<?xml version='1.0' encoding='UTF-8'?><gpx version="1.1" creator="JPX - https://github.com/jenetics/jpx" xmlns="http://www.topografix.com/GPX/1/1"><trk><trkseg><trkpt lat="43.817011679170946" lon="11.553470235077528"><ele>621.0</ele><time>2026-05-02T05:31:56.001Z</time></trkpt><trkpt lat="43.81692706137419" lon="11.553540980818411"><ele>621.0</ele><time>2026-05-02T05:31:58.001Z</time></trkpt><trkpt lat="43.81686690825777" lon="11.553653601909046"><ele>621.0</ele><time>2026-05-02T05:32:00.001Z</time></trkpt><trkpt lat="43.816766392548274" lon="11.55374516745359"><ele>621.0</ele><time>2026-05-02T05:32:02.001Z</time></trkpt><trkpt lat="43.816713595628244" lon="11.55379648985923"><ele>621.0</ele><time>2026-05-02T05:32:03.001Z</time></trkpt><trkpt lat="43.816652371167386" lon="11.553855121403524"><ele>623.5</ele><time>2026-05-02T05:32:04.001Z</time></trkpt><trkpt lat="43.81658204763468" lon="11.55391705997807"><ele>626.0</ele><time>2026-05-02T05:32:05.001Z</time></trkpt><trkpt lat="43.816507837814214" lon="11.553976389976132"><ele>628.5</ele><time>2026-05-02T05:32:06.001Z</time></trkpt><trkpt lat="43.81643530229683" lon="11.554032087215525"><ele>631.0</ele><time>2026-05-02T05:32:07.001Z</time></trkpt><trkpt lat="43.816359407422546" lon="11.554085079737128"><ele>633.5</ele><time>2026-05-02T05:32:08.001Z</time></trkpt><trkpt lat="43.816284710303776" lon="11.554132687057859"><ele>636.0</ele><time>2026-05-02T05:32:09.001Z</time></trkpt><trkpt lat="43.81621027835657" lon="11.554177214623913"><ele>636.0</ele><time>2026-05-02T05:32:10.001Z</time></trkpt><trkpt lat="43.81613760988683" lon="11.55421423475942"><ele>636.0</ele><time>2026-05-02T05:32:11.001Z</time></trkpt><trkpt lat="43.8160638284666" lon="11.554252204493059"><ele>636.0</ele><time>2026-05-02T05:32:12.001Z</time></trkpt><trkpt lat="43.81599309490081" lon="11.554300995020085"><ele>636.0</ele><time>2026-05-02T05:32:13.001Z</time></trkpt><trkpt lat="43.815924108003856" lon="11.554345799399988"><ele>636.0</ele><time>2026-05-02T05:32:14.001Z</time></trkpt><trkpt lat="43.81585860419235" lon="11.554410306084227"><ele>636.0</ele><time>2026-05-02T05:32:15.002Z</time></trkpt><trkpt lat="43.81581662157868" lon="11.554493610838648"><ele>637.1666666666666</ele><time>2026-05-02T05:32:16.002Z</time></trkpt><trkpt lat="43.81576547223183" lon="11.55457971462437"><ele>638.3333333333334</ele><time>2026-05-02T05:32:17.002Z</time></trkpt><trkpt lat="43.81570919142912" lon="11.554659031373271"><ele>639.5</ele><time>2026-05-02T05:32:18.002Z</time></trkpt><trkpt lat="43.815633702243275" lon="11.55469550605753"><ele>640.6666666666667</ele><time>2026-05-02T05:32:19.002Z</time></trkpt><trkpt lat="43.815582705685685" lon="11.554776857605644"><ele>641.8333333333334</ele><time>2026-05-02T05:32:20.002Z</time></trkpt><trkpt lat="43.81552422507004" lon="11.554842921203624"><ele>643.0</ele><time>2026-05-02T05:32:21.002Z</time></trkpt><trkpt lat="43.81548252262615" lon="11.554930234080825"><ele>643.0</ele><time>2026-05-02T05:32:22.002Z</time></trkpt><trkpt lat="43.81543329053727" lon="11.555032080256916"><ele>643.0</ele><time>2026-05-02T05:32:23.002Z</time></trkpt><trkpt lat="43.815393058763256" lon="11.555136176096582"><ele>643.0</ele><time>2026-05-02T05:32:24.002Z</time></trkpt><trkpt lat="43.81534747478821" lon="11.555252184298222"><ele>643.0</ele><time>2026-05-02T05:32:25.002Z</time></trkpt><trkpt lat="43.815297034126324" lon="11.555364298413314"><ele>643.0</ele><time>2026-05-02T05:32:26.002Z</time></trkpt><trkpt lat="43.815251698835446" lon="11.555502700181421"><ele>644.5</ele><time>2026-05-02T05:32:27.002Z</time></trkpt><trkpt lat="43.81520287468468" lon="11.555617667517682"><ele>646.0</ele><time>2026-05-02T05:32:28.002Z</time></trkpt><trkpt lat="43.815164609487965" lon="11.555742828245114"><ele>647.5</ele><time>2026-05-02T05:32:29.002Z</time></trkpt><trkpt lat="43.81512424519641" lon="11.55586200639178"><ele>649.0</ele><time>2026-05-02T05:32:30.002Z</time></trkpt><trkpt lat="43.81508574025053" lon="11.555955875863235"><ele>650.5</ele><time>2026-05-02T05:32:31.002Z</time></trkpt><trkpt lat="43.815054500434286" lon="11.556038789849056"><ele>652.0</ele><time>2026-05-02T05:32:32.002Z</time></trkpt><trkpt lat="43.81499322914636" lon="11.55615363992737"><ele>652.8333333333334</ele><time>2026-05-02T05:32:34.002Z</time></trkpt><trkpt lat="43.81491536142612" lon="11.556252570815648"><ele>653.6666666666667</ele><time>2026-05-02T05:32:36.002Z</time></trkpt><trkpt lat="43.81491821370887" lon="11.556388255195465"><ele>654.5</ele><time>2026-05-02T05:32:37.002Z</time></trkpt><trkpt lat="43.81490742820679" lon="11.556496774406869"><ele>655.3333333333334</ele><time>2026-05-02T05:32:38.002Z</time></trkpt><trkpt lat="43.814899139573434" lon="11.556603281272674"><ele>656.1666666666666</ele><time>2026-05-02T05:32:39.002Z</time></trkpt><trkpt lat="43.81489416980793" lon="11.55670287453964"><ele>657.0</ele><time>2026-05-02T05:32:40.002Z</time></trkpt><trkpt lat="43.81490928758716" lon="11.556800551926008"><ele>657.0</ele><time>2026-05-02T05:32:41.002Z</time></trkpt><trkpt lat="43.8149337433891" lon="11.55691558872572"><ele>657.0</ele><time>2026-05-02T05:32:42.002Z</time></trkpt><trkpt lat="43.81502724913603" lon="11.556986496681311"><ele>657.0</ele><time>2026-05-02T05:32:43.002Z</time></trkpt><trkpt lat="43.8151030911562" lon="11.557056833482909"><ele>657.0</ele><time>2026-05-02T05:32:44.002Z</time></trkpt><trkpt lat="43.81516271413859" lon="11.557128607914821"><ele>657.0</ele><time>2026-05-02T05:32:45.002Z</time></trkpt><trkpt lat="43.81526243540427" lon="11.557145767666807"><ele>659.4000000000001</ele><time>2026-05-02T05:32:46.002Z</time></trkpt><trkpt lat="43.815362635446576" lon="11.557104049155269"><ele>661.8000000000001</ele><time>2026-05-02T05:32:47.002Z</time></trkpt><trkpt lat="43.81546001719604" lon="11.557112598071434"><ele>664.2</ele><time>2026-05-02T05:32:48.002Z</time></trkpt><trkpt lat="43.81555070692824" lon="11.557103684600376"><ele>666.6</ele><time>2026-05-02T05:32:49.002Z</time></trkpt><trkpt lat="43.81562658732139" lon="11.557049355883931"><ele>669.0</ele><time>2026-05-02T05:32:50.001Z</time></trkpt><trkpt lat="43.8157090331775" lon="11.556977382719902"><ele>669.0</ele><time>2026-05-02T05:32:51.001Z</time></trkpt><trkpt lat="43.815774888960405" lon="11.556867770052522"><ele>669.0</ele><time>2026-05-02T05:32:52.001Z</time></trkpt><trkpt lat="43.81582065173268" lon="11.55673731923649"><ele>669.0</ele><time>2026-05-02T05:32:53.001Z</time></trkpt><trkpt lat="43.815850991280584" lon="11.556599406559265"><ele>669.0</ele><time>2026-05-02T05:32:54.001Z</time></trkpt><trkpt lat="43.81587974798733" lon="11.556465192690059"><ele>669.0</ele><time>2026-05-02T05:32:55.001Z</time></trkpt><trkpt lat="43.81591463439193" lon="11.556354241619655"><ele>669.0</ele><time>2026-05-02T05:32:56.001Z</time></trkpt><trkpt lat="43.81595830522068" lon="11.556262483351977"><ele>669.0</ele><time>2026-05-02T05:32:57.001Z</time></trkpt><trkpt lat="43.816033890248924" lon="11.556210939462687"><ele>669.0</ele><time>2026-05-02T05:32:58.001Z</time></trkpt><trkpt lat="43.81611107987731" lon="11.556168404455262"><ele>669.0</ele><time>2026-05-02T05:32:59.001Z</time></trkpt><trkpt lat="43.81619596307762" lon="11.556161344644087"><ele>669.0</ele><time>2026-05-02T05:33:00.001Z</time></trkpt><trkpt lat="43.8162859850983" lon="11.556160931484984"><ele>669.0</ele><time>2026-05-02T05:33:01.001Z</time></trkpt><trkpt lat="43.816371445578106" lon="11.55614080660985"><ele>669.0</ele><time>2026-05-02T05:33:02.001Z</time></trkpt><trkpt lat="43.81644284105304" lon="11.556137644840684"><ele>669.0</ele><time>2026-05-02T05:33:03.001Z</time></trkpt><trkpt lat="43.8165336342854" lon="11.556166462321608"><ele>669.0</ele><time>2026-05-02T05:33:05.001Z</time></trkpt><trkpt lat="43.81650205465451" lon="11.556291626198272"><ele>669.0</ele><time>2026-05-02T05:33:07.001Z</time></trkpt><trkpt lat="43.81642925868476" lon="11.556297627348377"><ele>669.0</ele><time>2026-05-02T05:33:08.001Z</time></trkpt><trkpt lat="43.81636892416147" lon="11.556372352959137"><ele>669.0</ele><time>2026-05-02T05:33:09.001Z</time></trkpt><trkpt lat="43.81630358608812" lon="11.55642584767411"><ele>671.3333333333334</ele><time>2026-05-02T05:33:10.001Z</time></trkpt><trkpt lat="43.81625166907836" lon="11.556508803296031"><ele>673.6666666666666</ele><time>2026-05-02T05:33:11.001Z</time></trkpt><trkpt lat="43.81620752350402" lon="11.55661982504559"><ele>676.0</ele><time>2026-05-02T05:33:12.001Z</time></trkpt><trkpt lat="43.81617100461787" lon="11.556728863251891"><ele>678.3333333333333</ele><time>2026-05-02T05:33:13.001Z</time></trkpt><trkpt lat="43.81616594984086" lon="11.556854902807572"><ele>680.6666666666666</ele><time>2026-05-02T05:33:14.001Z</time></trkpt><trkpt lat="43.81618400939214" lon="11.556983767080233"><ele>683.0</ele><time>2026-05-02T05:33:15.001Z</time></trkpt><trkpt lat="43.81624882204001" lon="11.557101612155716"><ele>685.0</ele><time>2026-05-02T05:33:16.001Z</time></trkpt><trkpt lat="43.81628064226489" lon="11.557230883614157"><ele>687.0</ele><time>2026-05-02T05:33:17.001Z</time></trkpt><trkpt lat="43.81630597110091" lon="11.557355839916248"><ele>689.0</ele><time>2026-05-02T05:33:18.001Z</time></trkpt><trkpt lat="43.81627990804573" lon="11.557478386694756"><ele>691.0</ele><time>2026-05-02T05:33:19.001Z</time></trkpt><trkpt lat="43.8162558088214" lon="11.557600438151455"><ele>693.0</ele><time>2026-05-02T05:33:20.001Z</time></trkpt><trkpt lat="43.816244134700355" lon="11.557731384820954"><ele>693.0</ele><time>2026-05-02T05:33:21.001Z</time></trkpt><trkpt lat="43.81619511278342" lon="11.557840429929227"><ele>693.0</ele><time>2026-05-02T05:33:22.001Z</time></trkpt><trkpt lat="43.81612868872694" lon="11.55792896560797"><ele>693.0</ele><time>2026-05-02T05:33:23.001Z</time></trkpt><trkpt lat="43.81603008443561" lon="11.557975629034123"><ele>693.0</ele><time>2026-05-02T05:33:24.001Z</time></trkpt><trkpt lat="43.81593122858784" lon="11.558054132342663"><ele>693.0</ele><time>2026-05-02T05:33:25.001Z</time></trkpt><trkpt lat="43.81584557366345" lon="11.558128298580005"><ele>693.5999999999999</ele><time>2026-05-02T05:33:26.001Z</time></trkpt><trkpt lat="43.81576320548789" lon="11.558206681524664"><ele>694.1999999999999</ele><time>2026-05-02T05:33:27.001Z</time></trkpt><trkpt lat="43.8156929207514" lon="11.558299195150122"><ele>694.8</ele><time>2026-05-02T05:33:28.001Z</time></trkpt><trkpt lat="43.81562526583085" lon="11.558407287011986"><ele>695.4</ele><time>2026-05-02T05:33:29.001Z</time></trkpt><trkpt lat="43.815573098652315" lon="11.55852150427906"><ele>696.0</ele><time>2026-05-02T05:33:30.001Z</time></trkpt><trkpt lat="43.81551863305412" lon="11.558637641951629"><ele>699.6666666666666</ele><time>2026-05-02T05:33:31.001Z</time></trkpt><trkpt lat="43.81547524167492" lon="11.558756319288936"><ele>703.3333333333334</ele><time>2026-05-02T05:33:32.001Z</time></trkpt><trkpt lat="43.815444322286815" lon="11.55888124035307"><ele>707.0</ele><time>2026-05-02T05:33:33.001Z</time></trkpt><trkpt lat="43.815422455010754" lon="11.55899680676894"><ele>710.6666666666667</ele><time>2026-05-02T05:33:34.001Z</time></trkpt><trkpt lat="43.81540327955784" lon="11.55911443327486"><ele>714.3333333333334</ele><time>2026-05-02T05:33:35.001Z</time></trkpt><trkpt lat="43.81536304640326" lon="11.559210147868482"><ele>718.0</ele><time>2026-05-02T05:33:36.001Z</time></trkpt><trkpt lat="43.81528596348703" lon="11.559273442715774"><ele>718.0</ele><time>2026-05-02T05:33:37.001Z</time></trkpt><trkpt lat="43.81521232687997" lon="11.559336685987338"><ele>718.0</ele><time>2026-05-02T05:33:38.001Z</time></trkpt><trkpt lat="43.815143157355315" lon="11.55943440780399"><ele>718.0</ele><time>2026-05-02T05:33:39.001Z</time></trkpt><trkpt lat="43.815066393792925" lon="11.559499363037007"><ele>718.0</ele><time>2026-05-02T05:33:40.001Z</time></trkpt><trkpt lat="43.8149876951897" lon="11.559533001377183"><ele>718.0</ele><time>2026-05-02T05:33:41.001Z</time></trkpt><trkpt lat="43.81489444790324" lon="11.559559149336666"><ele>717.2</ele><time>2026-05-02T05:33:42.001Z</time></trkpt><trkpt lat="43.81481039565233" lon="11.55959761309233"><ele>716.4</ele><time>2026-05-02T05:33:43.001Z</time></trkpt><trkpt lat="43.81473233145659" lon="11.559580922239592"><ele>715.6</ele><time>2026-05-02T05:33:44.001Z</time></trkpt><trkpt lat="43.81466634782169" lon="11.559608635922316"><ele>714.8000000000001</ele><time>2026-05-02T05:33:45.001Z</time></trkpt><trkpt lat="43.81455972768499" lon="11.559656894608072"><ele>714.0</ele><time>2026-05-02T05:33:47.001Z</time></trkpt><trkpt lat="43.8145378457435" lon="11.559823738029655"><ele>714.0</ele><time>2026-05-02T05:33:49.001Z</time></trkpt><trkpt lat="43.81454300108456" lon="11.559939501447563"><ele>714.0</ele><time>2026-05-02T05:33:50.001Z</time></trkpt><trkpt lat="43.814536737506664" lon="11.560054558396638"><ele>714.0</ele><time>2026-05-02T05:33:51.001Z</time></trkpt><trkpt lat="43.81453827947416" lon="11.560176885376977"><ele>714.0</ele><time>2026-05-02T05:33:52.001Z</time></trkpt><trkpt lat="43.81452763705044" lon="11.560273735050341"><ele>714.0</ele><time>2026-05-02T05:33:53.001Z</time></trkpt><trkpt lat="43.81448859490652" lon="11.560392016706762"><ele>714.0</ele><time>2026-05-02T05:33:54.001Z</time></trkpt><trkpt lat="43.81444737606848" lon="11.560513041141455"><ele>713.5</ele><time>2026-05-02T05:33:55.001Z</time></trkpt><trkpt lat="43.81440607309827" lon="11.560608844764667"><ele>713.0</ele><time>2026-05-02T05:33:56.001Z</time></trkpt><trkpt lat="43.814351970550454" lon="11.56071559711792"><ele>712.5</ele><time>2026-05-02T05:33:57.001Z</time></trkpt><trkpt lat="43.81431014381887" lon="11.560814982482183"><ele>712.0</ele><time>2026-05-02T05:33:58.001Z</time></trkpt><trkpt lat="43.81428213635478" lon="11.560935620087605"><ele>711.5</ele><time>2026-05-02T05:33:59.001Z</time></trkpt><trkpt lat="43.814284144072374" lon="11.561072346791558"><ele>711.0</ele><time>2026-05-02T05:34:00.001Z</time></trkpt><trkpt lat="43.814251189527845" lon="11.561181559766846"><ele>713.4</ele><time>2026-05-02T05:34:01.001Z</time></trkpt><trkpt lat="43.814214868237734" lon="11.56127954769248"><ele>715.8</ele><time>2026-05-02T05:34:02.001Z</time></trkpt><trkpt lat="43.814176309108824" lon="11.561365112100072"><ele>718.1999999999999</ele><time>2026-05-02T05:34:03.001Z</time></trkpt><trkpt lat="43.81411448156558" lon="11.561462700330093"><ele>720.5999999999999</ele><time>2026-05-02T05:34:04.001Z</time></trkpt><trkpt lat="43.81403007073447" lon="11.561575325185416"><ele>723.0</ele><time>2026-05-02T05:34:05.001Z</time></trkpt><trkpt lat="43.81394062748133" lon="11.561733605342269"><ele>723.0</ele><time>2026-05-02T05:34:06.001Z</time></trkpt><trkpt lat="43.81385576850804" lon="11.561864497384805"><ele>723.0</ele><time>2026-05-02T05:34:07.001Z</time></trkpt><trkpt lat="43.81377400285778" lon="11.56194469318714"><ele>723.0</ele><time>2026-05-02T05:34:08.001Z</time></trkpt><trkpt lat="43.81371023583538" lon="11.562015480259015"><ele>723.0</ele><time>2026-05-02T05:34:09.001Z</time></trkpt><trkpt lat="43.813652659477306" lon="11.562074582519955"><ele>723.0</ele><time>2026-05-02T05:34:10.001Z</time></trkpt><trkpt lat="43.813587627456805" lon="11.562135746024765"><ele>722.0</ele><time>2026-05-02T05:34:11.001Z</time></trkpt><trkpt lat="43.813522669301896" lon="11.562176867361739"><ele>721.0</ele><time>2026-05-02T05:34:12.001Z</time></trkpt><trkpt lat="43.81346201907163" lon="11.56220129285704"><ele>720.0</ele><time>2026-05-02T05:34:13.001Z</time></trkpt><trkpt lat="43.81335201942087" lon="11.562129601610533"><ele>719.0</ele><time>2026-05-02T05:34:15.001Z</time></trkpt><trkpt lat="43.813311801399436" lon="11.562056994044717"><ele>718.0</ele><time>2026-05-02T05:34:16.001Z</time></trkpt><trkpt lat="43.813251351045416" lon="11.562014261986267"><ele>717.0</ele><time>2026-05-02T05:34:17.001Z</time></trkpt><trkpt lat="43.81316022548836" lon="11.562018331694569"><ele>721.0</ele><time>2026-05-02T05:34:18.001Z</time></trkpt><trkpt lat="43.813062617348045" lon="11.562070718613136"><ele>725.0</ele><time>2026-05-02T05:34:19.001Z</time></trkpt><trkpt lat="43.812987970517405" lon="11.56210214886045"><ele>729.0</ele><time>2026-05-02T05:34:20.001Z</time></trkpt><trkpt lat="43.81290836764763" lon="11.56213785004569"><ele>733.0</ele><time>2026-05-02T05:34:21.001Z</time></trkpt><trkpt lat="43.81282718756195" lon="11.562180644350246"><ele>737.0</ele><time>2026-05-02T05:34:22.001Z</time></trkpt><trkpt lat="43.812751145373504" lon="11.562270086689574"><ele>737.0</ele><time>2026-05-02T05:34:23.001Z</time></trkpt><trkpt lat="43.81267394292733" lon="11.562377157854186"><ele>737.0</ele><time>2026-05-02T05:34:24.001Z</time></trkpt><trkpt lat="43.81261942189773" lon="11.562498414888669"><ele>737.0</ele><time>2026-05-02T05:34:25.001Z</time></trkpt><trkpt lat="43.812562850400845" lon="11.562612865486882"><ele>737.0</ele><time>2026-05-02T05:34:26.001Z</time></trkpt><trkpt lat="43.81251144549526" lon="11.562712177825814"><ele>737.0</ele><time>2026-05-02T05:34:27.001Z</time></trkpt><trkpt lat="43.81246042196805" lon="11.562795742426262"><ele>739.6</ele><time>2026-05-02T05:34:28.001Z</time></trkpt><trkpt lat="43.81240664351238" lon="11.562893432083822"><ele>742.2</ele><time>2026-05-02T05:34:29.001Z</time></trkpt><trkpt lat="43.81236517858944" lon="11.563023786659095"><ele>744.8</ele><time>2026-05-02T05:34:30.001Z</time></trkpt><trkpt lat="43.8123329600341" lon="11.563139510406087"><ele>747.4</ele><time>2026-05-02T05:34:31.001Z</time></trkpt><trkpt lat="43.81230166998751" lon="11.563251899156901"><ele>750.0</ele><time>2026-05-02T05:34:32.001Z</time></trkpt><trkpt lat="43.812259363663706" lon="11.563357003116797"><ele>750.0</ele><time>2026-05-02T05:34:33.001Z</time></trkpt><trkpt lat="43.812203027615084" lon="11.563459981510436"><ele>750.0</ele><time>2026-05-02T05:34:34.001Z</time></trkpt><trkpt lat="43.812101059708006" lon="11.563605964885404"><ele>750.0</ele><time>2026-05-02T05:34:36.001Z</time></trkpt><trkpt lat="43.81206216030888" lon="11.563738697170788"><ele>750.0</ele><time>2026-05-02T05:34:37.001Z</time></trkpt><trkpt lat="43.81204445761264" lon="11.56388204292086"><ele>750.0</ele><time>2026-05-02T05:34:38.001Z</time></trkpt><trkpt lat="43.812039046793245" lon="11.564013443848642"><ele>750.8333333333334</ele><time>2026-05-02T05:34:39.001Z</time></trkpt><trkpt lat="43.81202458030929" lon="11.564108241691308"><ele>751.6666666666666</ele><time>2026-05-02T05:34:40.001Z</time></trkpt><trkpt lat="43.81198731206306" lon="11.56421100898384"><ele>752.5</ele><time>2026-05-02T05:34:41.001Z</time></trkpt><trkpt lat="43.81193453263789" lon="11.564289682363642"><ele>753.3333333333333</ele><time>2026-05-02T05:34:42.001Z</time></trkpt><trkpt lat="43.81185773818842" lon="11.564393668677168"><ele>754.1666666666666</ele><time>2026-05-02T05:34:43.001Z</time></trkpt><trkpt lat="43.8117800218714" lon="11.5644981229419"><ele>755.0</ele><time>2026-05-02T05:34:44.001Z</time></trkpt><trkpt lat="43.8117033795227" lon="11.564595562209947"><ele>755.0</ele><time>2026-05-02T05:34:45.001Z</time></trkpt><trkpt lat="43.8116278262205" lon="11.564694080406873"><ele>755.0</ele><time>2026-05-02T05:34:46.001Z</time></trkpt><trkpt lat="43.811572241179995" lon="11.564806634226734"><ele>755.0</ele><time>2026-05-02T05:34:47.001Z</time></trkpt><trkpt lat="43.811532486311876" lon="11.564925920245612"><ele>755.0</ele><time>2026-05-02T05:34:48.001Z</time></trkpt><trkpt lat="43.81148288942771" lon="11.565023621153172"><ele>755.0</ele><time>2026-05-02T05:34:49.001Z</time></trkpt><trkpt lat="43.811412832688" lon="11.565092065378472"><ele>755.0</ele><time>2026-05-02T05:34:50.001Z</time></trkpt><trkpt lat="43.81134759826767" lon="11.56514428044864"><ele>755.0</ele><time>2026-05-02T05:34:51.001Z</time></trkpt><trkpt lat="43.81128957864024" lon="11.565220579067592"><ele>755.0</ele><time>2026-05-02T05:34:52.001Z</time></trkpt><trkpt lat="43.81124605145118" lon="11.565333449416297"><ele>755.0</ele><time>2026-05-02T05:34:53.001Z</time></trkpt><trkpt lat="43.81127630627034" lon="11.565500374540436"><ele>755.0</ele><time>2026-05-02T05:34:54.001Z</time></trkpt><trkpt lat="43.81127209907934" lon="11.565664735267859"><ele>757.1666666666666</ele><time>2026-05-02T05:34:55.001Z</time></trkpt><trkpt lat="43.81129241387666" lon="11.565799231292434"><ele>759.3333333333333</ele><time>2026-05-02T05:34:56.001Z</time></trkpt><trkpt lat="43.811302503303295" lon="11.565896289325213"><ele>761.5</ele><time>2026-05-02T05:34:57.001Z</time></trkpt><trkpt lat="43.81129243829941" lon="11.565990613240912"><ele>763.6666666666666</ele><time>2026-05-02T05:34:58.001Z</time></trkpt><trkpt lat="43.81125134268095" lon="11.566065501844804"><ele>765.8333333333334</ele><time>2026-05-02T05:34:59.001Z</time></trkpt><trkpt lat="43.811182534924114" lon="11.566138855494676"><ele>768.0</ele><time>2026-05-02T05:35:00.001Z</time></trkpt><trkpt lat="43.81109105234195" lon="11.566184663345656"><ele>767.5999999999999</ele><time>2026-05-02T05:35:01.001Z</time></trkpt><trkpt lat="43.8109929411405" lon="11.56624611345677"><ele>767.1999999999999</ele><time>2026-05-02T05:35:02.001Z</time></trkpt><trkpt lat="43.81090746369375" lon="11.566279014458226"><ele>766.8</ele><time>2026-05-02T05:35:03.001Z</time></trkpt><trkpt lat="43.810809484938424" lon="11.566353390829281"><ele>766.4</ele><time>2026-05-02T05:35:04.001Z</time></trkpt><trkpt lat="43.81073031671874" lon="11.566454415195906"><ele>766.0</ele><time>2026-05-02T05:35:05.001Z</time></trkpt><trkpt lat="43.810657886682044" lon="11.566544907553624"><ele>766.0</ele><time>2026-05-02T05:35:06Z</time></trkpt><trkpt lat="43.81057780377113" lon="11.566644961223341"><ele>766.0</ele><time>2026-05-02T05:35:07Z</time></trkpt><trkpt lat="43.810541224115966" lon="11.566837315954485"><ele>766.0</ele><time>2026-05-02T05:35:08Z</time></trkpt><trkpt lat="43.810479647029766" lon="11.56694904482863"><ele>766.0</ele><time>2026-05-02T05:35:09Z</time></trkpt><trkpt lat="43.810414223934075" lon="11.567038222527321"><ele>766.0</ele><time>2026-05-02T05:35:10Z</time></trkpt><trkpt lat="43.81034247933424" lon="11.567113959448257"><ele>768.0</ele><time>2026-05-02T05:35:11Z</time></trkpt><trkpt lat="43.81024705010316" lon="11.567187303102134"><ele>770.0</ele><time>2026-05-02T05:35:12Z</time></trkpt><trkpt lat="43.81014336269758" lon="11.567224790821472"><ele>772.0</ele><time>2026-05-02T05:35:13Z</time></trkpt><trkpt lat="43.810048010058885" lon="11.567269261918701"><ele>774.0</ele><time>2026-05-02T05:35:14Z</time></trkpt><trkpt lat="43.80994633016155" lon="11.567326227493199"><ele>776.0</ele><time>2026-05-02T05:35:15Z</time></trkpt><trkpt lat="43.80984929860287" lon="11.567352268569142"><ele>776.0</ele><time>2026-05-02T05:35:16Z</time></trkpt><trkpt lat="43.80974042554559" lon="11.567341051948143"><ele>776.0</ele><time>2026-05-02T05:35:17Z</time></trkpt><trkpt lat="43.809634709795766" lon="11.567328673116291"><ele>776.0</ele><time>2026-05-02T05:35:18Z</time></trkpt><trkpt lat="43.809543470759934" lon="11.567334621777215"><ele>776.0</ele><time>2026-05-02T05:35:19Z</time></trkpt><trkpt lat="43.809445842971925" lon="11.567356911436852"><ele>776.0</ele><time>2026-05-02T05:35:20Z</time></trkpt><trkpt lat="43.80935537364953" lon="11.567412831149086"><ele>774.4</ele><time>2026-05-02T05:35:21Z</time></trkpt><trkpt lat="43.80926506984511" lon="11.567481552553565"><ele>772.8</ele><time>2026-05-02T05:35:22Z</time></trkpt><trkpt lat="43.809191740757555" lon="11.567548609459733"><ele>771.1999999999999</ele><time>2026-05-02T05:35:23Z</time></trkpt><trkpt lat="43.80912856244865" lon="11.567609037699818"><ele>769.5999999999999</ele><time>2026-05-02T05:35:24Z</time></trkpt><trkpt lat="43.80906655945273" lon="11.567716944003397"><ele>768.0</ele><time>2026-05-02T05:35:25Z</time></trkpt><trkpt lat="43.808994946702995" lon="11.567819731252388"><ele>773.2</ele><time>2026-05-02T05:35:26Z</time></trkpt><trkpt lat="43.808918951003015" lon="11.567871549148274"><ele>778.4</ele><time>2026-05-02T05:35:27Z</time></trkpt><trkpt lat="43.80882122295692" lon="11.567873673858523"><ele>783.6</ele><time>2026-05-02T05:35:28Z</time></trkpt><trkpt lat="43.808724567834446" lon="11.567882634359663"><ele>788.8000000000001</ele><time>2026-05-02T05:35:29Z</time></trkpt><trkpt lat="43.808634677743505" lon="11.567908904051158"><ele>794.0</ele><time>2026-05-02T05:35:30Z</time></trkpt><trkpt lat="43.80854715206057" lon="11.56797232692773"><ele>793.0</ele><time>2026-05-02T05:35:31Z</time></trkpt><trkpt lat="43.80847215001723" lon="11.568063408318885"><ele>792.0</ele><time>2026-05-02T05:35:32Z</time></trkpt><trkpt lat="43.80839875976165" lon="11.568164509121981"><ele>791.0</ele><time>2026-05-02T05:35:33Z</time></trkpt><trkpt lat="43.808321972153315" lon="11.56822998152886"><ele>790.0</ele><time>2026-05-02T05:35:34Z</time></trkpt><trkpt lat="43.808239320152296" lon="11.568248939462023"><ele>789.0</ele><time>2026-05-02T05:35:35Z</time></trkpt><trkpt lat="43.808144126943354" lon="11.568229965622729"><ele>789.0</ele><time>2026-05-02T05:35:36Z</time></trkpt><trkpt lat="43.80804920709912" lon="11.568199118489064"><ele>789.0</ele><time>2026-05-02T05:35:37Z</time></trkpt><trkpt lat="43.80797446380268" lon="11.568206515165983"><ele>789.0</ele><time>2026-05-02T05:35:38Z</time></trkpt><trkpt lat="43.8079101638047" lon="11.56825170069204"><ele>789.0</ele><time>2026-05-02T05:35:39Z</time></trkpt><trkpt lat="43.80784068578054" lon="11.568322531652774"><ele>789.0</ele><time>2026-05-02T05:35:40Z</time></trkpt><trkpt lat="43.80776781566322" lon="11.568421912179321"><ele>789.0</ele><time>2026-05-02T05:35:41Z</time></trkpt><trkpt lat="43.807689754328514" lon="11.56854325255834"><ele>790.0</ele><time>2026-05-02T05:35:42Z</time></trkpt><trkpt lat="43.80760016022571" lon="11.568656271180382"><ele>791.0</ele><time>2026-05-02T05:35:43Z</time></trkpt><trkpt lat="43.80751379349534" lon="11.568769725970444"><ele>792.0</ele><time>2026-05-02T05:35:44Z</time></trkpt><trkpt lat="43.80743617843325" lon="11.568870699565988"><ele>793.0</ele><time>2026-05-02T05:35:45Z</time></trkpt><trkpt lat="43.80736196161702" lon="11.568960028369291"><ele>794.0</ele><time>2026-05-02T05:35:46Z</time></trkpt><trkpt lat="43.80728986061006" lon="11.569054847419201"><ele>794.0000000000001</ele><time>2026-05-02T05:35:47Z</time></trkpt><trkpt lat="43.80722296878145" lon="11.569138395231567"><ele>794.0</ele><time>2026-05-02T05:35:48Z</time></trkpt><trkpt lat="43.807158607767256" lon="11.569206717594183"><ele>794.0</ele><time>2026-05-02T05:35:49Z</time></trkpt><trkpt lat="43.807093918321236" lon="11.569251106670002"><ele>794.0</ele><time>2026-05-02T05:35:50Z</time></trkpt><trkpt lat="43.80701410085826" lon="11.569278109657594"><ele>794.0000000000001</ele><time>2026-05-02T05:35:51Z</time></trkpt><trkpt lat="43.80692949394923" lon="11.5692894961155"><ele>794.0</ele><time>2026-05-02T05:35:52Z</time></trkpt><trkpt lat="43.80682962629698" lon="11.56926217107083"><ele>794.2</ele><time>2026-05-02T05:35:53Z</time></trkpt><trkpt lat="43.80672667152031" lon="11.569208870030254"><ele>794.4000000000001</ele><time>2026-05-02T05:35:54Z</time></trkpt><trkpt lat="43.80663706280728" lon="11.569127935683346"><ele>794.6</ele><time>2026-05-02T05:35:55Z</time></trkpt><trkpt lat="43.80656975825851" lon="11.569026491525495"><ele>794.8</ele><time>2026-05-02T05:35:56Z</time></trkpt><trkpt lat="43.80652406438759" lon="11.568920249000435"><ele>795.0</ele><time>2026-05-02T05:35:57Z</time></trkpt><trkpt lat="43.80646802118571" lon="11.568825221836894"><ele>795.0</ele><time>2026-05-02T05:35:58Z</time></trkpt><trkpt lat="43.806404841286145" lon="11.568772319876713"><ele>795.0</ele><time>2026-05-02T05:35:59Z</time></trkpt><trkpt lat="43.80631284666444" lon="11.568712067193324"><ele>795.0</ele><time>2026-05-02T05:36:00Z</time></trkpt><trkpt lat="43.8061930729511" lon="11.5686320376169"><ele>795.0</ele><time>2026-05-02T05:36:01Z</time></trkpt><trkpt lat="43.80608668820674" lon="11.568579484134123"><ele>795.0</ele><time>2026-05-02T05:36:02Z</time></trkpt><trkpt lat="43.80601156904773" lon="11.56851866533301"><ele>796.5</ele><time>2026-05-02T05:36:03Z</time></trkpt><trkpt lat="43.80595870042088" lon="11.568456105232247"><ele>798.0</ele><time>2026-05-02T05:36:04Z</time></trkpt><trkpt lat="43.805861964475156" lon="11.568454801775458"><ele>799.5</ele><time>2026-05-02T05:36:06Z</time></trkpt><trkpt lat="43.80580323188955" lon="11.568505757437"><ele>801.0</ele><time>2026-05-02T05:36:07Z</time></trkpt><trkpt lat="43.805742348370686" lon="11.568582000766083"><ele>802.5</ele><time>2026-05-02T05:36:08Z</time></trkpt><trkpt lat="43.80567816300466" lon="11.568647626480285"><ele>804.0</ele><time>2026-05-02T05:36:09Z</time></trkpt><trkpt lat="43.805602807248" lon="11.568704989062265"><ele>804.0</ele><time>2026-05-02T05:36:10Z</time></trkpt><trkpt lat="43.80554211513561" lon="11.568748731701046"><ele>804.0</ele><time>2026-05-02T05:36:11Z</time></trkpt><trkpt lat="43.80548134541742" lon="11.568815353050432"><ele>804.0</ele><time>2026-05-02T05:36:12Z</time></trkpt><trkpt lat="43.80542778372271" lon="11.568925909884898"><ele>804.0</ele><time>2026-05-02T05:36:13Z</time></trkpt><trkpt lat="43.805394073142594" lon="11.569022001947149"><ele>804.0</ele><time>2026-05-02T05:36:14Z</time></trkpt><trkpt lat="43.805366801393085" lon="11.569142336114462"><ele>804.0</ele><time>2026-05-02T05:36:15Z</time></trkpt><trkpt lat="43.805321487331405" lon="11.569251510134173"><ele>804.0</ele><time>2026-05-02T05:36:16Z</time></trkpt><trkpt lat="43.80528630093692" lon="11.569356153175974"><ele>804.0</ele><time>2026-05-02T05:36:17Z</time></trkpt><trkpt lat="43.80525188139184" lon="11.569456657798058"><ele>804.0</ele><time>2026-05-02T05:36:18Z</time></trkpt><trkpt lat="43.80523208616762" lon="11.569562883979255"><ele>804.0</ele><time>2026-05-02T05:36:19Z</time></trkpt><trkpt lat="43.80521237220362" lon="11.569684911226608"><ele>804.0</ele><time>2026-05-02T05:36:20Z</time></trkpt><trkpt lat="43.80519745824558" lon="11.569796786825089"><ele>804.0</ele><time>2026-05-02T05:36:21Z</time></trkpt><trkpt lat="43.80518144955861" lon="11.569894664193308"><ele>802.0</ele><time>2026-05-02T05:36:22Z</time></trkpt><trkpt lat="43.80516573588832" lon="11.570012467826107"><ele>800.0</ele><time>2026-05-02T05:36:23Z</time></trkpt><trkpt lat="43.80515260496418" lon="11.570152632376804"><ele>798.0</ele><time>2026-05-02T05:36:24Z</time></trkpt><trkpt lat="43.80513914062604" lon="11.570294647681314"><ele>796.0</ele><time>2026-05-02T05:36:25Z</time></trkpt><trkpt lat="43.80512766390441" lon="11.57042754051399"><ele>794.0</ele><time>2026-05-02T05:36:26Z</time></trkpt><trkpt lat="43.805118288946574" lon="11.570552259251118"><ele>794.0</ele><time>2026-05-02T05:36:27Z</time></trkpt><trkpt lat="43.805089710826024" lon="11.570677133071905"><ele>794.0</ele><time>2026-05-02T05:36:28Z</time></trkpt><trkpt lat="43.80507406546791" lon="11.570814648861194"><ele>794.0</ele><time>2026-05-02T05:36:29Z</time></trkpt><trkpt lat="43.8050596559099" lon="11.570954624384312"><ele>794.0</ele><time>2026-05-02T05:36:30Z</time></trkpt><trkpt lat="43.80504854967841" lon="11.57109588032821"><ele>794.0</ele><time>2026-05-02T05:36:31Z</time></trkpt><trkpt lat="43.8050388814648" lon="11.571230985293472"><ele>795.4000000000001</ele><time>2026-05-02T05:36:32Z</time></trkpt><trkpt lat="43.80504645193416" lon="11.571363589642502"><ele>796.8</ele><time>2026-05-02T05:36:33Z</time></trkpt><trkpt lat="43.80507350062568" lon="11.571523736441932"><ele>798.2</ele><time>2026-05-02T05:36:34Z</time></trkpt><trkpt lat="43.80508179402005" lon="11.571672894618144"><ele>799.5999999999999</ele><time>2026-05-02T05:36:35Z</time></trkpt><trkpt lat="43.80507296835055" lon="11.57180482214858"><ele>801.0</ele><time>2026-05-02T05:36:36Z</time></trkpt><trkpt lat="43.805053754887666" lon="11.57195465980242"><ele>803.0</ele><time>2026-05-02T05:36:37Z</time></trkpt><trkpt lat="43.80503887725365" lon="11.572069779212564"><ele>805.0</ele><time>2026-05-02T05:36:38Z</time></trkpt><trkpt lat="43.80502716618189" lon="11.572192537029638"><ele>807.0</ele><time>2026-05-02T05:36:39Z</time></trkpt><trkpt lat="43.80503475974404" lon="11.572309713164126"><ele>809.0</ele><time>2026-05-02T05:36:40Z</time></trkpt><trkpt lat="43.80506232769008" lon="11.57241085452412"><ele>811.0</ele><time>2026-05-02T05:36:41Z</time></trkpt><trkpt lat="43.80507448756316" lon="11.572496907478556"><ele>813.0</ele><time>2026-05-02T05:36:42Z</time></trkpt><trkpt lat="43.804994481078595" lon="11.572603825802135"><ele>813.0</ele><time>2026-05-02T05:36:44Z</time></trkpt><trkpt lat="43.80494290594341" lon="11.572655883083389"><ele>813.0</ele><time>2026-05-02T05:36:45Z</time></trkpt><trkpt lat="43.80484683063397" lon="11.572679821494942"><ele>813.0</ele><time>2026-05-02T05:36:46Z</time></trkpt><trkpt lat="43.80476729536719" lon="11.572699625621981"><ele>813.0</ele><time>2026-05-02T05:36:47Z</time></trkpt><trkpt lat="43.80465974629621" lon="11.572761773926917"><ele>813.0</ele><time>2026-05-02T05:36:49Z</time></trkpt><trkpt lat="43.80461326627994" lon="11.57285694020002"><ele>813.0</ele><time>2026-05-02T05:36:50Z</time></trkpt><trkpt lat="43.80457834818072" lon="11.572987838573404"><ele>815.8</ele><time>2026-05-02T05:36:51Z</time></trkpt><trkpt lat="43.8045522549129" lon="11.573128261700408"><ele>818.5999999999999</ele><time>2026-05-02T05:36:52Z</time></trkpt><trkpt lat="43.80453592601853" lon="11.573258945350576"><ele>821.4000000000001</ele><time>2026-05-02T05:36:53Z</time></trkpt><trkpt lat="43.804521895465804" lon="11.573389838373998"><ele>824.2</ele><time>2026-05-02T05:36:54Z</time></trkpt><trkpt lat="43.80451042331431" lon="11.573509619584355"><ele>827.0</ele><time>2026-05-02T05:36:55Z</time></trkpt><trkpt lat="43.80449890273737" lon="11.573612306371725"><ele>828.8</ele><time>2026-05-02T05:36:56Z</time></trkpt><trkpt lat="43.80449669458648" lon="11.573742022983469"><ele>830.6</ele><time>2026-05-02T05:36:57Z</time></trkpt><trkpt lat="43.804507237973695" lon="11.573880754201125"><ele>832.4</ele><time>2026-05-02T05:36:58Z</time></trkpt><trkpt lat="43.80448942654189" lon="11.573997306451423"><ele>834.1999999999999</ele><time>2026-05-02T05:36:59Z</time></trkpt><trkpt lat="43.80445757249573" lon="11.574111948575787"><ele>836.0</ele><time>2026-05-02T05:37:00Z</time></trkpt><trkpt lat="43.80443878761966" lon="11.57423489072868"><ele>836.0000000000001</ele><time>2026-05-02T05:37:01Z</time></trkpt><trkpt lat="43.80443731160388" lon="11.574366914102287"><ele>836.0</ele><time>2026-05-02T05:37:02Z</time></trkpt><trkpt lat="43.80446293314286" lon="11.574488602911263"><ele>836.0</ele><time>2026-05-02T05:37:03Z</time></trkpt><trkpt lat="43.80448506572581" lon="11.574596701265072"><ele>836.0</ele><time>2026-05-02T05:37:04Z</time></trkpt><trkpt lat="43.80447658870383" lon="11.574690974500509"><ele>836.0000000000001</ele><time>2026-05-02T05:37:05Z</time></trkpt><trkpt lat="43.804466939077045" lon="11.574811415101783"><ele>836.0</ele><time>2026-05-02T05:37:06Z</time></trkpt><trkpt lat="43.80442810615083" lon="11.574903718386077"><ele>836.6666666666667</ele><time>2026-05-02T05:37:07Z</time></trkpt><trkpt lat="43.80440905092957" lon="11.575014959220265"><ele>837.3333333333334</ele><time>2026-05-02T05:37:08Z</time></trkpt><trkpt lat="43.80442338786998" lon="11.575139653515928"><ele>838.0</ele><time>2026-05-02T05:37:09Z</time></trkpt><trkpt lat="43.80445467523809" lon="11.575262786302348"><ele>838.6666666666667</ele><time>2026-05-02T05:37:10Z</time></trkpt><trkpt lat="43.80452108154452" lon="11.575361592589296"><ele>839.3333333333334</ele><time>2026-05-02T05:37:11Z</time></trkpt><trkpt lat="43.80456107884657" lon="11.575447777915427"><ele>840.0</ele><time>2026-05-02T05:37:12Z</time></trkpt><trkpt lat="43.80457778965418" lon="11.575552012316937"><ele>841.0</ele><time>2026-05-02T05:37:13Z</time></trkpt><trkpt lat="43.80457011834745" lon="11.575638958690165"><ele>842.0</ele><time>2026-05-02T05:37:14Z</time></trkpt><trkpt lat="43.80448333102132" lon="11.575785804344964"><ele>843.0</ele><time>2026-05-02T05:37:16Z</time></trkpt><trkpt lat="43.80444477893666" lon="11.575903649358388"><ele>844.0</ele><time>2026-05-02T05:37:17Z</time></trkpt><trkpt lat="43.804395979020754" lon="11.576032299217"><ele>845.0</ele><time>2026-05-02T05:37:18Z</time></trkpt><trkpt lat="43.8043726058749" lon="11.576187436123291"><ele>847.4</ele><time>2026-05-02T05:37:19Z</time></trkpt><trkpt lat="43.80435780538722" lon="11.57632966371825"><ele>849.8</ele><time>2026-05-02T05:37:20Z</time></trkpt><trkpt lat="43.80433311731975" lon="11.5764921813053"><ele>852.2</ele><time>2026-05-02T05:37:21Z</time></trkpt><trkpt lat="43.80430453057305" lon="11.576613246822925"><ele>854.6</ele><time>2026-05-02T05:37:22Z</time></trkpt><trkpt lat="43.804276624731564" lon="11.576730667498888"><ele>857.0</ele><time>2026-05-02T05:37:23Z</time></trkpt><trkpt lat="43.804234846449184" lon="11.576798775478027"><ele>850.5</ele><time>2026-05-02T05:37:24Z</time></trkpt><trkpt lat="43.80415643775201" lon="11.576906266013914"><ele>844.0</ele><time>2026-05-02T05:37:26Z</time></trkpt><trkpt lat="43.80409905366729" lon="11.576965170944465"><ele>837.5</ele><time>2026-05-02T05:37:28Z</time></trkpt><trkpt lat="43.80396662621439" lon="11.576816168785545"><ele>831.0</ele><time>2026-05-02T05:37:34Z</time></trkpt><trkpt lat="43.80386587863035" lon="11.576676016671287"><ele>831.0</ele><time>2026-05-02T05:37:36Z</time></trkpt><trkpt lat="43.80382979945689" lon="11.576595858123175"><ele>831.0</ele><time>2026-05-02T05:37:37Z</time></trkpt><trkpt lat="43.80379749338026" lon="11.576508302224271"><ele>831.0</ele><time>2026-05-02T05:37:38Z</time></trkpt><trkpt lat="43.80375653786952" lon="11.576392215048394"><ele>831.0</ele><time>2026-05-02T05:37:40Z</time></trkpt><trkpt lat="43.80365938371467" lon="11.576291059258722"><ele>831.0</ele><time>2026-05-02T05:37:42Z</time></trkpt><trkpt lat="43.80357033383113" lon="11.576230160880996"><ele>833.8333333333334</ele><time>2026-05-02T05:37:44Z</time></trkpt><trkpt lat="43.80345963434421" lon="11.576319262704638"><ele>836.6666666666667</ele><time>2026-05-02T05:37:46Z</time></trkpt><trkpt lat="43.80340458527962" lon="11.576380023828904"><ele>839.5</ele><time>2026-05-02T05:37:47Z</time></trkpt><trkpt lat="43.80336255277175" lon="11.576451614788002"><ele>842.3333333333334</ele><time>2026-05-02T05:37:48Z</time></trkpt><trkpt lat="43.803292490450836" lon="11.576484934329109"><ele>845.1666666666667</ele><time>2026-05-02T05:37:49Z</time></trkpt><trkpt lat="43.80322903160667" lon="11.576516237717271"><ele>848.0</ele><time>2026-05-02T05:37:50Z</time></trkpt><trkpt lat="43.80314772922826" lon="11.57657257941449"><ele>848.0</ele><time>2026-05-02T05:37:51Z</time></trkpt><trkpt lat="43.80308316312747" lon="11.576649247402697"><ele>848.0</ele><time>2026-05-02T05:37:52Z</time></trkpt><trkpt lat="43.803021486107596" lon="11.57676383313075"><ele>848.0</ele><time>2026-05-02T05:37:53Z</time></trkpt><trkpt lat="43.80296584618862" lon="11.576841435997155"><ele>848.0</ele><time>2026-05-02T05:37:54Z</time></trkpt><trkpt lat="43.8028943607127" lon="11.576956963675757"><ele>848.0</ele><time>2026-05-02T05:37:56Z</time></trkpt><trkpt lat="43.802809189663165" lon="11.577068906039457"><ele>848.0000000000001</ele><time>2026-05-02T05:37:58Z</time></trkpt><trkpt lat="43.80272692195615" lon="11.577127748759464"><ele>848.0</ele><time>2026-05-02T05:37:59Z</time></trkpt><trkpt lat="43.80265537416309" lon="11.577167000087238"><ele>848.0</ele><time>2026-05-02T05:38:00Z</time></trkpt><trkpt lat="43.80259300496226" lon="11.577185463915217"><ele>848.0</ele><time>2026-05-02T05:38:01Z</time></trkpt><trkpt lat="43.802474905109214" lon="11.577098792144096"><ele>848.0000000000001</ele><time>2026-05-02T05:38:03Z</time></trkpt><trkpt lat="43.80241598984665" lon="11.57703678615185"><ele>848.0</ele><time>2026-05-02T05:38:04Z</time></trkpt><trkpt lat="43.802372391845104" lon="11.57695167367288"><ele>849.5999999999999</ele><time>2026-05-02T05:38:05Z</time></trkpt><trkpt lat="43.80225936657513" lon="11.576844293445152"><ele>851.1999999999999</ele><time>2026-05-02T05:38:07Z</time></trkpt><trkpt lat="43.80217503617445" lon="11.576806882140037"><ele>852.8</ele><time>2026-05-02T05:38:08Z</time></trkpt><trkpt lat="43.802086146822965" lon="11.576792209354004"><ele>854.4</ele><time>2026-05-02T05:38:09Z</time></trkpt><trkpt lat="43.8019946284184" lon="11.576805220742568"><ele>856.0</ele><time>2026-05-02T05:38:10Z</time></trkpt><trkpt lat="43.80191644784988" lon="11.57682091178525"><ele>859.8</ele><time>2026-05-02T05:38:11Z</time></trkpt><trkpt lat="43.80180600083431" lon="11.576857652734724"><ele>863.5999999999999</ele><time>2026-05-02T05:38:13Z</time></trkpt><trkpt lat="43.80169499432292" lon="11.576866984989746"><ele>867.4</ele><time>2026-05-02T05:38:15Z</time></trkpt><trkpt lat="43.80159705671052" lon="11.576925626475466"><ele>871.2</ele><time>2026-05-02T05:38:17Z</time></trkpt><trkpt lat="43.80148492410142" lon="11.576944676113822"><ele>875.0</ele><time>2026-05-02T05:38:19Z</time></trkpt><trkpt lat="43.80137258531401" lon="11.576929138104243"><ele>875.0000000000001</ele><time>2026-05-02T05:38:21Z</time></trkpt><trkpt lat="43.80129566228846" lon="11.57689425182109"><ele>875.0</ele><time>2026-05-02T05:38:22Z</time></trkpt><trkpt lat="43.80123156511352" lon="11.576876234448436"><ele>875.0</ele><time>2026-05-02T05:38:23Z</time></trkpt><trkpt lat="43.801128844648254" lon="11.576811427280875"><ele>875.0</ele><time>2026-05-02T05:38:25Z</time></trkpt><trkpt lat="43.801054408090536" lon="11.576770621043933"><ele>875.0000000000001</ele><time>2026-05-02T05:38:26Z</time></trkpt><trkpt lat="43.80099860832596" lon="11.576729280316002"><ele>875.0</ele><time>2026-05-02T05:38:27Z</time></trkpt><trkpt lat="43.80090097232663" lon="11.576765882472454"><ele>876.4</ele><time>2026-05-02T05:38:29Z</time></trkpt><trkpt lat="43.800818274979825" lon="11.57682099543944"><ele>877.8</ele><time>2026-05-02T05:38:30Z</time></trkpt><trkpt lat="43.80074650473518" lon="11.576827749376873"><ele>879.2</ele><time>2026-05-02T05:38:31Z</time></trkpt><trkpt lat="43.80062314782216" lon="11.576821216297832"><ele>880.6</ele><time>2026-05-02T05:38:33Z</time></trkpt><trkpt lat="43.8005307169237" lon="11.576817366725809"><ele>882.0</ele><time>2026-05-02T05:38:34Z</time></trkpt><trkpt lat="43.80039937025544" lon="11.576760797776556"><ele>882.0</ele><time>2026-05-02T05:38:36Z</time></trkpt><trkpt lat="43.80033573652496" lon="11.57670067301893"><ele>882.0</ele><time>2026-05-02T05:38:37Z</time></trkpt><trkpt lat="43.8002702007363" lon="11.576651239140983"><ele>882.0</ele><time>2026-05-02T05:38:38Z</time></trkpt><trkpt lat="43.800193964148534" lon="11.576626049491724"><ele>882.0</ele><time>2026-05-02T05:38:39Z</time></trkpt><trkpt lat="43.80010621969634" lon="11.576588568110903"><ele>882.0</ele><time>2026-05-02T05:38:40Z</time></trkpt><trkpt lat="43.79997272901975" lon="11.576528558711152"><ele>883.3333333333334</ele><time>2026-05-02T05:38:42Z</time></trkpt><trkpt lat="43.799901116817686" lon="11.576486074748937"><ele>884.6666666666667</ele><time>2026-05-02T05:38:43Z</time></trkpt><trkpt lat="43.79982422173801" lon="11.576439765196847"><ele>886.0</ele><time>2026-05-02T05:38:44Z</time></trkpt><trkpt lat="43.79974339983359" lon="11.576397894481085"><ele>887.3333333333334</ele><time>2026-05-02T05:38:45Z</time></trkpt><trkpt lat="43.79968579426438" lon="11.576348271347511"><ele>888.6666666666667</ele><time>2026-05-02T05:38:46Z</time></trkpt><trkpt lat="43.799608570552614" lon="11.57628933797015"><ele>890.0</ele><time>2026-05-02T05:38:47Z</time></trkpt><trkpt lat="43.799521047293396" lon="11.576244899885568"><ele>890.0</ele><time>2026-05-02T05:38:48Z</time></trkpt><trkpt lat="43.79944846188211" lon="11.576195140979861"><ele>890.0</ele><time>2026-05-02T05:38:49Z</time></trkpt><trkpt lat="43.79931298429769" lon="11.576101175723306"><ele>890.0</ele><time>2026-05-02T05:38:51Z</time></trkpt><trkpt lat="43.799220815702654" lon="11.576080688594775"><ele>890.0</ele><time>2026-05-02T05:38:52Z</time></trkpt><trkpt lat="43.79912485047933" lon="11.576081319937433"><ele>890.0</ele><time>2026-05-02T05:38:53Z</time></trkpt><trkpt lat="43.7990286019667" lon="11.576088845428675"><ele>889.6666666666667</ele><time>2026-05-02T05:38:54Z</time></trkpt><trkpt lat="43.79894647873595" lon="11.57608012055127"><ele>889.3333333333334</ele><time>2026-05-02T05:38:55Z</time></trkpt><trkpt lat="43.79888013934755" lon="11.576057897364656"><ele>889.0</ele><time>2026-05-02T05:38:56Z</time></trkpt><trkpt lat="43.798805535891" lon="11.576058277523131"><ele>888.6666666666667</ele><time>2026-05-02T05:38:57Z</time></trkpt><trkpt lat="43.79870982113812" lon="11.576052081662546"><ele>888.3333333333334</ele><time>2026-05-02T05:38:59Z</time></trkpt><trkpt lat="43.79863920486625" lon="11.576073311930013"><ele>888.0</ele><time>2026-05-02T05:40:43Z</time></trkpt><trkpt lat="43.79856888914822" lon="11.576050001792181"><ele>888.8333333333334</ele><time>2026-05-02T05:40:45Z</time></trkpt><trkpt lat="43.798470749228834" lon="11.576059244848429"><ele>889.6666666666667</ele><time>2026-05-02T05:40:47Z</time></trkpt><trkpt lat="43.798353478772455" lon="11.576014375494523"><ele>890.5</ele><time>2026-05-02T05:40:49Z</time></trkpt><trkpt lat="43.79829357800867" lon="11.575969368651183"><ele>891.3333333333334</ele><time>2026-05-02T05:40:50Z</time></trkpt><trkpt lat="43.79824736441397" lon="11.575907796448279"><ele>892.1666666666667</ele><time>2026-05-02T05:40:51Z</time></trkpt><trkpt lat="43.798196317099936" lon="11.575849410166908"><ele>893.0</ele><time>2026-05-02T05:40:52Z</time></trkpt><trkpt lat="43.7981313687289" lon="11.575826514462134"><ele>893.0</ele><time>2026-05-02T05:40:53Z</time></trkpt><trkpt lat="43.798064433324136" lon="11.575821922813914"><ele>893.0</ele><time>2026-05-02T05:40:54Z</time></trkpt><trkpt lat="43.7979565677876" lon="11.57588214283255"><ele>893.0</ele><time>2026-05-02T05:40:56Z</time></trkpt><trkpt lat="43.79792062542581" lon="11.575966698650719"><ele>893.0</ele><time>2026-05-02T05:40:57Z</time></trkpt><trkpt lat="43.79787147004936" lon="11.576135403002384"><ele>893.0</ele><time>2026-05-02T05:40:59Z</time></trkpt><trkpt lat="43.7977899640916" lon="11.576248006988305"><ele>892.6666666666667</ele><time>2026-05-02T05:41:01Z</time></trkpt><trkpt lat="43.797746267540845" lon="11.576332068326055"><ele>892.3333333333334</ele><time>2026-05-02T05:41:02Z</time></trkpt><trkpt lat="43.79771365952356" lon="11.576483486510233"><ele>892.0</ele><time>2026-05-02T05:41:04Z</time></trkpt><trkpt lat="43.79765312859372" lon="11.576571636602152"><ele>891.6666666666667</ele><time>2026-05-02T05:41:05Z</time></trkpt><trkpt lat="43.79759101931626" lon="11.576640659605964"><ele>891.3333333333334</ele><time>2026-05-02T05:41:06Z</time></trkpt><trkpt lat="43.79751817857221" lon="11.576667458267881"><ele>891.0</ele><time>2026-05-02T05:41:07Z</time></trkpt><trkpt lat="43.79744164350504" lon="11.576690965409867"><ele>893.8</ele><time>2026-05-02T05:41:08Z</time></trkpt><trkpt lat="43.79736050413099" lon="11.576799493413217"><ele>896.5999999999999</ele><time>2026-05-02T05:41:10Z</time></trkpt><trkpt lat="43.79734908143672" lon="11.576987228288688"><ele>899.4</ele><time>2026-05-02T05:41:12Z</time></trkpt><trkpt lat="43.797257472934994" lon="11.577054789662107"><ele>902.2</ele><time>2026-05-02T05:41:14Z</time></trkpt><trkpt lat="43.79719375955437" lon="11.577097223128927"><ele>905.0</ele><time>2026-05-02T05:41:15Z</time></trkpt><trkpt lat="43.7971450151006" lon="11.577171144044001"><ele>905.0000000000001</ele><time>2026-05-02T05:41:16Z</time></trkpt><trkpt lat="43.7970992416797" lon="11.577264017798377"><ele>905.0</ele><time>2026-05-02T05:41:17Z</time></trkpt><trkpt lat="43.79704539228746" lon="11.577412971475454"><ele>905.0</ele><time>2026-05-02T05:41:19Z</time></trkpt><trkpt lat="43.797049290677414" lon="11.577512247442442"><ele>905.0</ele><time>2026-05-02T05:41:20Z</time></trkpt><trkpt lat="43.79707117309345" lon="11.577624653416883"><ele>905.0000000000001</ele><time>2026-05-02T05:41:21Z</time></trkpt><trkpt lat="43.79708647984888" lon="11.577723061113787"><ele>905.0</ele><time>2026-05-02T05:41:22Z</time></trkpt><trkpt lat="43.79705392828713" lon="11.577861473737178"><ele>904.1666666666667</ele><time>2026-05-02T05:41:24Z</time></trkpt><trkpt lat="43.797027349395" lon="11.577942550713956"><ele>903.3333333333334</ele><time>2026-05-02T05:41:25Z</time></trkpt><trkpt lat="43.796995041774025" lon="11.57803269777023"><ele>902.5</ele><time>2026-05-02T05:41:26Z</time></trkpt><trkpt lat="43.79695465816424" lon="11.578129298988337"><ele>901.6666666666667</ele><time>2026-05-02T05:41:27Z</time></trkpt><trkpt lat="43.7969026816408" lon="11.578204501437872"><ele>900.8333333333334</ele><time>2026-05-02T05:41:28Z</time></trkpt><trkpt lat="43.79679333071214" lon="11.578298347751733"><ele>900.0</ele><time>2026-05-02T05:41:30Z</time></trkpt><trkpt lat="43.79672722765538" lon="11.57833819301782"><ele>907.0</ele><time>2026-05-02T05:41:31Z</time></trkpt><trkpt lat="43.79660290089678" lon="11.578327690804658"><ele>914.0</ele><time>2026-05-02T05:41:33Z</time></trkpt><trkpt lat="43.79654043848202" lon="11.578259649515351"><ele>921.0</ele><time>2026-05-02T05:41:34Z</time></trkpt><trkpt lat="43.79647798617029" lon="11.578178961086305"><ele>928.0</ele><time>2026-05-02T05:41:35Z</time></trkpt><trkpt lat="43.796408915751" lon="11.578128766964358"><ele>935.0</ele><time>2026-05-02T05:41:36Z</time></trkpt><trkpt lat="43.79627337485952" lon="11.5781224968416"><ele>935.0</ele><time>2026-05-02T05:41:38Z</time></trkpt><trkpt lat="43.796183886560605" lon="11.578136553408878"><ele>935.0</ele><time>2026-05-02T05:41:39Z</time></trkpt><trkpt lat="43.79611205098822" lon="11.578132644353998"><ele>935.0</ele><time>2026-05-02T05:41:40Z</time></trkpt><trkpt lat="43.79604577602485" lon="11.578147774038403"><ele>935.0</ele><time>2026-05-02T05:41:41Z</time></trkpt><trkpt lat="43.79589502618691" lon="11.578175791072432"><ele>935.0</ele><time>2026-05-02T05:41:43Z</time></trkpt><trkpt lat="43.79581821832926" lon="11.578221000487721"><ele>938.3333333333334</ele><time>2026-05-02T05:41:44Z</time></trkpt><trkpt lat="43.795750079731334" lon="11.578242947996388"><ele>941.6666666666667</ele><time>2026-05-02T05:41:45Z</time></trkpt><trkpt lat="43.795675838705264" lon="11.5782853221209"><ele>945.0</ele><time>2026-05-02T05:41:46Z</time></trkpt><trkpt lat="43.79560192870321" lon="11.578311852680207"><ele>948.3333333333333</ele><time>2026-05-02T05:41:47Z</time></trkpt><trkpt lat="43.79554007350321" lon="11.578341911370572"><ele>951.6666666666666</ele><time>2026-05-02T05:41:48Z</time></trkpt><trkpt lat="43.79546430969105" lon="11.57837155071955"><ele>955.0</ele><time>2026-05-02T05:41:49Z</time></trkpt><trkpt lat="43.79533966073601" lon="11.578432133910548"><ele>955.0</ele><time>2026-05-02T05:41:51Z</time></trkpt><trkpt lat="43.79526785356113" lon="11.578468937030083"><ele>955.0</ele><time>2026-05-02T05:41:52Z</time></trkpt><trkpt lat="43.79520806532024" lon="11.578525520121778"><ele>955.0</ele><time>2026-05-02T05:41:53Z</time></trkpt><trkpt lat="43.79515595564296" lon="11.578708666300484"><ele>955.0</ele><time>2026-05-02T05:41:55Z</time></trkpt><trkpt lat="43.79513124623642" lon="11.578794888469444"><ele>955.0</ele><time>2026-05-02T05:41:56Z</time></trkpt><trkpt lat="43.79508470734921" lon="11.578933589813799"><ele>957.7142857142856</ele><time>2026-05-02T05:41:58Z</time></trkpt><trkpt lat="43.795063926780784" lon="11.579031959235843"><ele>960.4285714285713</ele><time>2026-05-02T05:41:59Z</time></trkpt><trkpt lat="43.79501894738437" lon="11.57912357024961"><ele>963.1428571428571</ele><time>2026-05-02T05:42:00Z</time></trkpt><trkpt lat="43.79496980885587" lon="11.579195065442898"><ele>965.8571428571428</ele><time>2026-05-02T05:42:01Z</time></trkpt><trkpt lat="43.79491015748365" lon="11.579272683473206"><ele>968.5714285714284</ele><time>2026-05-02T05:42:02Z</time></trkpt><trkpt lat="43.79485446110116" lon="11.579322942637859"><ele>971.2857142857143</ele><time>2026-05-02T05:42:03Z</time></trkpt><trkpt lat="43.79479757016766" lon="11.579388040647306"><ele>974.0</ele><time>2026-05-02T05:42:04Z</time></trkpt><trkpt lat="43.794738144908735" lon="11.579458816786888"><ele>972.5000000000001</ele><time>2026-05-02T05:42:05Z</time></trkpt><trkpt lat="43.794651279023256" lon="11.579555236640102"><ele>971.0</ele><time>2026-05-02T05:42:07Z</time></trkpt><trkpt lat="43.79457365982384" lon="11.579625706328853"><ele>969.5</ele><time>2026-05-02T05:42:09Z</time></trkpt><trkpt lat="43.79451074989133" lon="11.579649884544136"><ele>968.0</ele><time>2026-05-02T05:42:10Z</time></trkpt><trkpt lat="43.79444832452661" lon="11.579682745913694"><ele>966.5000000000001</ele><time>2026-05-02T05:42:11Z</time></trkpt><trkpt lat="43.79436736906985" lon="11.579722844188124"><ele>965.0</ele><time>2026-05-02T05:42:12Z</time></trkpt><trkpt lat="43.794276367847864" lon="11.579774815676345"><ele>969.4</ele><time>2026-05-02T05:42:13Z</time></trkpt><trkpt lat="43.794218573918094" lon="11.579850165980044"><ele>973.8</ele><time>2026-05-02T05:42:14Z</time></trkpt><trkpt lat="43.79410720768448" lon="11.579911213372156"><ele>978.2</ele><time>2026-05-02T05:42:16Z</time></trkpt><trkpt lat="43.79404222370207" lon="11.579963219778248"><ele>982.6</ele><time>2026-05-02T05:42:18Z</time></trkpt><trkpt lat="43.79394063585917" lon="11.58007361144348"><ele>987.0</ele><time>2026-05-02T05:42:20Z</time></trkpt><trkpt lat="43.79387785330571" lon="11.580158449936853"><ele>987.0</ele><time>2026-05-02T05:42:21Z</time></trkpt><trkpt lat="43.79380429562798" lon="11.580250975263983"><ele>987.0</ele><time>2026-05-02T05:42:22Z</time></trkpt><trkpt lat="43.79374843281454" lon="11.580339361013772"><ele>987.0</ele><time>2026-05-02T05:42:23Z</time></trkpt><trkpt lat="43.793699922370664" lon="11.580421161632371"><ele>987.0</ele><time>2026-05-02T05:42:24Z</time></trkpt><trkpt lat="43.793644251787065" lon="11.580499938098784"><ele>987.0</ele><time>2026-05-02T05:42:25Z</time></trkpt><trkpt lat="43.793580050113846" lon="11.580580485198912"><ele>987.0</ele><time>2026-05-02T05:42:26Z</time></trkpt><trkpt lat="43.793515777671956" lon="11.580650433849431"><ele>987.5</ele><time>2026-05-02T05:42:27Z</time></trkpt><trkpt lat="43.793457721132775" lon="11.58074705935761"><ele>988.0</ele><time>2026-05-02T05:42:28Z</time></trkpt><trkpt lat="43.79339839467825" lon="11.58080646028999"><ele>988.5</ele><time>2026-05-02T05:42:29Z</time></trkpt><trkpt lat="43.793339383167876" lon="11.580881762034906"><ele>989.0</ele><time>2026-05-02T05:42:30Z</time></trkpt><trkpt lat="43.793252995719406" lon="11.58098236778635"><ele>989.5</ele><time>2026-05-02T05:42:32Z</time></trkpt><trkpt lat="43.793206319696935" lon="11.581058839483505"><ele>990.0</ele><time>2026-05-02T05:42:33Z</time></trkpt><trkpt lat="43.79312148814296" lon="11.581183741581423"><ele>990.0</ele><time>2026-05-02T05:42:35Z</time></trkpt><trkpt lat="43.79302981551859" lon="11.581262055088297"><ele>990.0</ele><time>2026-05-02T05:42:36Z</time></trkpt><trkpt lat="43.79294741966065" lon="11.581312599849298"><ele>990.0</ele><time>2026-05-02T05:42:37Z</time></trkpt><trkpt lat="43.79288484997863" lon="11.581370824035547"><ele>990.0</ele><time>2026-05-02T05:42:38Z</time></trkpt><trkpt lat="43.79282475799045" lon="11.581439968819724"><ele>990.0</ele><time>2026-05-02T05:42:39Z</time></trkpt><trkpt lat="43.79273713702581" lon="11.581491455128587"><ele>990.0</ele><time>2026-05-02T05:42:40Z</time></trkpt><trkpt lat="43.79264835335755" lon="11.581567001204348"><ele>990.8</ele><time>2026-05-02T05:42:41Z</time></trkpt><trkpt lat="43.79254271878052" lon="11.581640366433348"><ele>991.6</ele><time>2026-05-02T05:42:42Z</time></trkpt><trkpt lat="43.79244471450476" lon="11.581671284836906"><ele>992.4000000000001</ele><time>2026-05-02T05:42:43Z</time></trkpt><trkpt lat="43.792373213625" lon="11.581735763334313"><ele>993.2</ele><time>2026-05-02T05:42:44Z</time></trkpt><trkpt lat="43.792285134569305" lon="11.581762912539244"><ele>994.0</ele><time>2026-05-02T05:42:46Z</time></trkpt><trkpt lat="43.79219814369873" lon="11.58179388584696"><ele>994.0</ele><time>2026-05-02T05:42:47Z</time></trkpt><trkpt lat="43.79212858432695" lon="11.581876015763621"><ele>994.0000000000001</ele><time>2026-05-02T05:42:48Z</time></trkpt><trkpt lat="43.79204237548565" lon="11.581928873992718"><ele>994.0000000000001</ele><time>2026-05-02T05:42:49Z</time></trkpt><trkpt lat="43.791962208672345" lon="11.581937798413655"><ele>994.0</ele><time>2026-05-02T05:42:50Z</time></trkpt><trkpt lat="43.791867896910745" lon="11.581936325574791"><ele>994.0</ele><time>2026-05-02T05:42:52Z</time></trkpt><trkpt lat="43.791768450202376" lon="11.581914419842695"><ele>993.4000000000001</ele><time>2026-05-02T05:42:53Z</time></trkpt><trkpt lat="43.79164190229502" lon="11.58199212334665"><ele>992.8000000000001</ele><time>2026-05-02T05:42:54Z</time></trkpt><trkpt lat="43.79155793199019" lon="11.582025950596762"><ele>992.1999999999999</ele><time>2026-05-02T05:42:55Z</time></trkpt><trkpt lat="43.79147072265958" lon="11.582018654780208"><ele>991.5999999999999</ele><time>2026-05-02T05:42:56Z</time></trkpt><trkpt lat="43.791378999351984" lon="11.582011305176671"><ele>991.0</ele><time>2026-05-02T05:42:57Z</time></trkpt><trkpt lat="43.791282346868265" lon="11.582000528440533"><ele>989.5999999999999</ele><time>2026-05-02T05:42:58Z</time></trkpt><trkpt lat="43.791182127014274" lon="11.582018304766583"><ele>988.1999999999999</ele><time>2026-05-02T05:42:59Z</time></trkpt><trkpt lat="43.79108552965482" lon="11.58203812034632"><ele>986.8000000000001</ele><time>2026-05-02T05:43:00Z</time></trkpt><trkpt lat="43.790993987976485" lon="11.582042968884311"><ele>985.4000000000001</ele><time>2026-05-02T05:43:01Z</time></trkpt><trkpt lat="43.790908768047345" lon="11.582032227985412"><ele>984.0</ele><time>2026-05-02T05:43:02Z</time></trkpt><trkpt lat="43.790811573774874" lon="11.582031432595874"><ele>983.6666666666666</ele><time>2026-05-02T05:43:03Z</time></trkpt><trkpt lat="43.79073419173232" lon="11.582082720229561"><ele>983.3333333333333</ele><time>2026-05-02T05:43:04Z</time></trkpt><trkpt lat="43.79066787828564" lon="11.582128158941254"><ele>983.0</ele><time>2026-05-02T05:43:05Z</time></trkpt><trkpt lat="43.790567624321845" lon="11.582157112445064"><ele>982.6666666666666</ele><time>2026-05-02T05:43:06Z</time></trkpt><trkpt lat="43.79047821202434" lon="11.582199240387336"><ele>982.3333333333333</ele><time>2026-05-02T05:43:07Z</time></trkpt><trkpt lat="43.79039988092978" lon="11.58220030462917"><ele>982.0</ele><time>2026-05-02T05:43:08Z</time></trkpt><trkpt lat="43.790323303363216" lon="11.582207621171554"><ele>982.0</ele><time>2026-05-02T05:43:09Z</time></trkpt><trkpt lat="43.79024954416624" lon="11.582229400888114"><ele>981.9999999999999</ele><time>2026-05-02T05:43:10Z</time></trkpt><trkpt lat="43.79018674233199" lon="11.58225953744788"><ele>982.0</ele><time>2026-05-02T05:43:11Z</time></trkpt><trkpt lat="43.790124990975194" lon="11.582312401185238"><ele>982.0</ele><time>2026-05-02T05:43:12Z</time></trkpt><trkpt lat="43.790069001614405" lon="11.582357549512137"><ele>981.9999999999999</ele><time>2026-05-02T05:43:13Z</time></trkpt><trkpt lat="43.79000421449575" lon="11.582420200757262"><ele>982.0</ele><time>2026-05-02T05:43:14Z</time></trkpt><trkpt lat="43.789940044272015" lon="11.582457405775429"><ele>982.0</ele><time>2026-05-02T05:43:15Z</time></trkpt><trkpt lat="43.78980162606343" lon="11.58248039436069"><ele>982.0</ele><time>2026-05-02T05:43:17Z</time></trkpt><trkpt lat="43.789715340997205" lon="11.58248483555686"><ele>982.0</ele><time>2026-05-02T05:43:19Z</time></trkpt><trkpt lat="43.789583052677116" lon="11.58240986106085"><ele>982.0</ele><time>2026-05-02T05:43:21Z</time></trkpt><trkpt lat="43.789435669947046" lon="11.582326577194404"><ele>982.0</ele><time>2026-05-02T05:43:23Z</time></trkpt><trkpt lat="43.78936721863011" lon="11.582275594656258"><ele>980.2</ele><time>2026-05-02T05:43:24Z</time></trkpt><trkpt lat="43.789292557994585" lon="11.582239913889195"><ele>978.4000000000001</ele><time>2026-05-02T05:43:25Z</time></trkpt><trkpt lat="43.78920104204904" lon="11.582197918636508"><ele>976.5999999999999</ele><time>2026-05-02T05:43:26Z</time></trkpt><trkpt lat="43.789095879718765" lon="11.582158999092137"><ele>974.8</ele><time>2026-05-02T05:43:27Z</time></trkpt><trkpt lat="43.78899512850987" lon="11.582108018546897"><ele>973.0</ele><time>2026-05-02T05:43:28Z</time></trkpt><trkpt lat="43.788903754608604" lon="11.582086861156816"><ele>972.9999999999999</ele><time>2026-05-02T05:43:29Z</time></trkpt><trkpt lat="43.78882309084215" lon="11.582068676905232"><ele>973.0</ele><time>2026-05-02T05:43:30Z</time></trkpt><trkpt lat="43.78875035811223" lon="11.582055388149382"><ele>973.0</ele><time>2026-05-02T05:43:31Z</time></trkpt><trkpt lat="43.788653617165956" lon="11.582064779009263"><ele>973.0</ele><time>2026-05-02T05:43:33Z</time></trkpt><trkpt lat="43.78858507401249" lon="11.58215412373054"><ele>972.9999999999999</ele><time>2026-05-02T05:43:35Z</time></trkpt><trkpt lat="43.788536588054754" lon="11.582212755174485"><ele>973.0</ele><time>2026-05-02T05:43:36Z</time></trkpt><trkpt lat="43.78847887944883" lon="11.582260126237633"><ele>972.6666666666666</ele><time>2026-05-02T05:43:37Z</time></trkpt><trkpt lat="43.78841407689713" lon="11.582299685061047"><ele>972.3333333333333</ele><time>2026-05-02T05:43:38Z</time></trkpt><trkpt lat="43.78835437980948" lon="11.582329892396116"><ele>972.0</ele><time>2026-05-02T05:43:39Z</time></trkpt><trkpt lat="43.788288440854295" lon="11.58236061141499"><ele>971.6666666666667</ele><time>2026-05-02T05:43:40Z</time></trkpt><trkpt lat="43.78822231433565" lon="11.58239564839656"><ele>971.3333333333334</ele><time>2026-05-02T05:43:41Z</time></trkpt><trkpt lat="43.78816093239027" lon="11.5824293892968"><ele>971.0</ele><time>2026-05-02T05:43:42Z</time></trkpt><trkpt lat="43.788044913897245" lon="11.582481906611424"><ele>971.0</ele><time>2026-05-02T05:43:44Z</time></trkpt><trkpt lat="43.78792726359611" lon="11.582494302376546"><ele>970.9999999999999</ele><time>2026-05-02T05:43:46Z</time></trkpt><trkpt lat="43.78786433928387" lon="11.582489675609718"><ele>970.9999999999999</ele><time>2026-05-02T05:43:47Z</time></trkpt><trkpt lat="43.787754192966034" lon="11.582453769444355"><ele>971.0</ele><time>2026-05-02T05:43:49Z</time></trkpt><trkpt lat="43.787688198666594" lon="11.582439923938677"><ele>971.0</ele><time>2026-05-02T05:43:50Z</time></trkpt><trkpt lat="43.78757357351609" lon="11.582432528417263"><ele>969.8</ele><time>2026-05-02T05:43:52Z</time></trkpt><trkpt lat="43.787507816276936" lon="11.582414776300043"><ele>968.5999999999999</ele><time>2026-05-02T05:43:53Z</time></trkpt><trkpt lat="43.787396340137285" lon="11.58234009304883"><ele>967.4</ele><time>2026-05-02T05:43:55Z</time></trkpt><trkpt lat="43.787284609692016" lon="11.582264333095058"><ele>966.2</ele><time>2026-05-02T05:43:57Z</time></trkpt><trkpt lat="43.78717758631817" lon="11.582176653745277"><ele>965.0</ele><time>2026-05-02T05:43:59Z</time></trkpt><trkpt lat="43.787101527933885" lon="11.582018342612795"><ele>964.8</ele><time>2026-05-02T05:44:01Z</time></trkpt><trkpt lat="43.7870665688464" lon="11.581928742633604"><ele>964.6</ele><time>2026-05-02T05:44:02Z</time></trkpt><trkpt lat="43.78702511018713" lon="11.581834855632707"><ele>964.4000000000001</ele><time>2026-05-02T05:44:03Z</time></trkpt><trkpt lat="43.78692630559953" lon="11.581710445769868"><ele>964.2</ele><time>2026-05-02T05:44:05Z</time></trkpt><trkpt lat="43.78685482031555" lon="11.581647145919254"><ele>964.0</ele><time>2026-05-02T05:44:06Z</time></trkpt><trkpt lat="43.78677370804968" lon="11.581583885220223"><ele>962.6</ele><time>2026-05-02T05:44:07Z</time></trkpt><trkpt lat="43.786714238200474" lon="11.58153430393411"><ele>961.2</ele><time>2026-05-02T05:44:08Z</time></trkpt><trkpt lat="43.786661314249194" lon="11.581484186167886"><ele>959.8000000000001</ele><time>2026-05-02T05:44:09Z</time></trkpt><trkpt lat="43.78656067647922" lon="11.581469931385165"><ele>958.4000000000001</ele><time>2026-05-02T05:44:11Z</time></trkpt><trkpt lat="43.78645502958883" lon="11.581445014358838"><ele>957.0</ele><time>2026-05-02T05:44:13Z</time></trkpt><trkpt lat="43.78634288570541" lon="11.581436336631965"><ele>957.0</ele><time>2026-05-02T05:44:15Z</time></trkpt><trkpt lat="43.78628098299783" lon="11.581455034541834"><ele>957.0</ele><time>2026-05-02T05:44:16Z</time></trkpt><trkpt lat="43.78620853829398" lon="11.58145616313315"><ele>957.0</ele><time>2026-05-02T05:44:18Z</time></trkpt></trkseg><trkseg><trkpt lat="43.78610784678989" lon="11.581440665715409"><ele>956.4000000000001</ele><time>2026-05-02T05:56:21Z</time></trkpt><trkpt lat="43.786008991675956" lon="11.581453785301775"><ele>955.8000000000001</ele><time>2026-05-02T05:56:23Z</time></trkpt><trkpt lat="43.78588712960705" lon="11.58148911130536"><ele>955.2</ele><time>2026-05-02T05:56:25Z</time></trkpt><trkpt lat="43.785809338823576" lon="11.581506898111254"><ele>954.6</ele><time>2026-05-02T05:56:26Z</time></trkpt><trkpt lat="43.78571994748023" lon="11.581514541508046"><ele>954.0</ele><time>2026-05-02T05:56:27Z</time></trkpt><trkpt lat="43.785636979118834" lon="11.58153100880219"><ele>954.0</ele><time>2026-05-02T05:56:28Z</time></trkpt><trkpt lat="43.78555964878363" lon="11.581581584325537"><ele>954.0000000000001</ele><time>2026-05-02T05:56:29Z</time></trkpt><trkpt lat="43.78549756825007" lon="11.581657850495114"><ele>954.0000000000001</ele><time>2026-05-02T05:56:30Z</time></trkpt><trkpt lat="43.78543485584118" lon="11.581754521162354"><ele>954.0</ele><time>2026-05-02T05:56:31Z</time></trkpt><trkpt lat="43.785380195517924" lon="11.581880111512397"><ele>954.0</ele><time>2026-05-02T05:56:32Z</time></trkpt><trkpt lat="43.785334019584475" lon="11.582028836585517"><ele>951.75</ele><time>2026-05-02T05:56:33Z</time></trkpt><trkpt lat="43.78528533200247" lon="11.582184327147033"><ele>949.5</ele><time>2026-05-02T05:56:34Z</time></trkpt><trkpt lat="43.78523244315298" lon="11.582322529201447"><ele>947.25</ele><time>2026-05-02T05:56:35Z</time></trkpt><trkpt lat="43.7851752815779" lon="11.58246101605476"><ele>945.0</ele><time>2026-05-02T05:56:36Z</time></trkpt><trkpt lat="43.78511809088908" lon="11.582599727523794"><ele>946.4</ele><time>2026-05-02T05:56:37Z</time></trkpt><trkpt lat="43.78505434670195" lon="11.582728812750373"><ele>947.8</ele><time>2026-05-02T05:56:38Z</time></trkpt><trkpt lat="43.7849995463401" lon="11.582837729435992"><ele>949.2</ele><time>2026-05-02T05:56:39Z</time></trkpt><trkpt lat="43.78492918794263" lon="11.582913746868176"><ele>950.6</ele><time>2026-05-02T05:56:40Z</time></trkpt><trkpt lat="43.78485642833466" lon="11.582971987772197"><ele>952.0</ele><time>2026-05-02T05:56:41Z</time></trkpt><trkpt lat="43.78476800217555" lon="11.58301958344586"><ele>952.0</ele><time>2026-05-02T05:56:42Z</time></trkpt><trkpt lat="43.78468305819135" lon="11.583067923317717"><ele>952.0</ele><time>2026-05-02T05:56:43Z</time></trkpt><trkpt lat="43.78462414923999" lon="11.583130003795995"><ele>952.0</ele><time>2026-05-02T05:56:44Z</time></trkpt><trkpt lat="43.78457622297962" lon="11.583231894315373"><ele>952.0</ele><time>2026-05-02T05:56:45Z</time></trkpt><trkpt lat="43.784563390902086" lon="11.583370479675915"><ele>952.0</ele><time>2026-05-02T05:56:46Z</time></trkpt><trkpt lat="43.78454040418426" lon="11.583524409395066"><ele>952.0</ele><time>2026-05-02T05:56:47Z</time></trkpt><trkpt lat="43.78453811598322" lon="11.583657423146596"><ele>952.0</ele><time>2026-05-02T05:56:48Z</time></trkpt><trkpt lat="43.78454295290586" lon="11.583754955540638"><ele>952.0</ele><time>2026-05-02T05:56:49Z</time></trkpt><trkpt lat="43.7845800760954" lon="11.583831214830504"><ele>952.0</ele><time>2026-05-02T05:56:50Z</time></trkpt><trkpt lat="43.78470569916717" lon="11.583765539378597"><ele>952.0</ele><time>2026-05-02T05:56:52Z</time></trkpt><trkpt lat="43.784813060919404" lon="11.583786694570126"><ele>953.0</ele><time>2026-05-02T05:56:53Z</time></trkpt><trkpt lat="43.784895428231906" lon="11.583835316981737"><ele>954.0</ele><time>2026-05-02T05:56:54Z</time></trkpt><trkpt lat="43.78497600957948" lon="11.583917499869136"><ele>955.0</ele><time>2026-05-02T05:56:55Z</time></trkpt><trkpt lat="43.78506742121096" lon="11.584031743574077"><ele>956.0</ele><time>2026-05-02T05:56:56Z</time></trkpt><trkpt lat="43.785141038069575" lon="11.584134449345447"><ele>957.0</ele><time>2026-05-02T05:56:57Z</time></trkpt><trkpt lat="43.78518564543513" lon="11.584243310372415"><ele>950.5</ele><time>2026-05-02T05:56:58Z</time></trkpt><trkpt lat="43.785226950741446" lon="11.584368193451768"><ele>944.0</ele><time>2026-05-02T05:56:59Z</time></trkpt><trkpt lat="43.78524778734868" lon="11.584511662503697"><ele>937.5</ele><time>2026-05-02T05:57:00Z</time></trkpt><trkpt lat="43.785258375180746" lon="11.58469074403341"><ele>931.0</ele><time>2026-05-02T05:57:01Z</time></trkpt><trkpt lat="43.7852728515282" lon="11.584865608700103"><ele>930.5999999999999</ele><time>2026-05-02T05:57:02Z</time></trkpt><trkpt lat="43.78524877024303" lon="11.58501947200123"><ele>930.1999999999999</ele><time>2026-05-02T05:57:03Z</time></trkpt><trkpt lat="43.78522474713795" lon="11.585160355140864"><ele>929.8000000000001</ele><time>2026-05-02T05:57:04Z</time></trkpt><trkpt lat="43.78520164328508" lon="11.585276940643396"><ele>929.4000000000001</ele><time>2026-05-02T05:57:05Z</time></trkpt><trkpt lat="43.78514130508326" lon="11.585395819378288"><ele>929.0</ele><time>2026-05-02T05:57:06Z</time></trkpt><trkpt lat="43.785061285474356" lon="11.585511469230818"><ele>932.6666666666667</ele><time>2026-05-02T05:57:07Z</time></trkpt><trkpt lat="43.784982400323315" lon="11.585593069586073"><ele>936.3333333333334</ele><time>2026-05-02T05:57:08Z</time></trkpt><trkpt lat="43.78490350070373" lon="11.585654987236747"><ele>940.0</ele><time>2026-05-02T05:57:09Z</time></trkpt><trkpt lat="43.78483225804167" lon="11.58572130764266"><ele>943.6666666666667</ele><time>2026-05-02T05:57:10Z</time></trkpt><trkpt lat="43.78477498357712" lon="11.585797309573831"><ele>947.3333333333334</ele><time>2026-05-02T05:57:11Z</time></trkpt><trkpt lat="43.78471068632367" lon="11.585884709776227"><ele>951.0</ele><time>2026-05-02T05:57:12Z</time></trkpt><trkpt lat="43.78465661304942" lon="11.5859828232969"><ele>951.0</ele><time>2026-05-02T05:57:13Z</time></trkpt><trkpt lat="43.78461413744643" lon="11.586106392007773"><ele>950.9999999999999</ele><time>2026-05-02T05:57:14Z</time></trkpt><trkpt lat="43.78458199174297" lon="11.586230324183735"><ele>950.9999999999999</ele><time>2026-05-02T05:57:15Z</time></trkpt><trkpt lat="43.78455855050403" lon="11.58635781562094"><ele>951.0</ele><time>2026-05-02T05:57:16Z</time></trkpt><trkpt lat="43.78454283443053" lon="11.586486927215638"><ele>951.0</ele><time>2026-05-02T05:57:17Z</time></trkpt><trkpt lat="43.78452219628044" lon="11.58659671877971"><ele>951.0</ele><time>2026-05-02T05:57:18Z</time></trkpt><trkpt lat="43.78447294258089" lon="11.58669341013485"><ele>950.9999999999999</ele><time>2026-05-02T05:57:19Z</time></trkpt><trkpt lat="43.7844159952725" lon="11.586802342645388"><ele>950.9999999999999</ele><time>2026-05-02T05:57:20Z</time></trkpt><trkpt lat="43.78433321309766" lon="11.586908476203481"><ele>951.0</ele><time>2026-05-02T05:57:21Z</time></trkpt><trkpt lat="43.78423065357673" lon="11.58701293891659"><ele>951.0</ele><time>2026-05-02T05:57:22Z</time></trkpt><trkpt lat="43.78413898090889" lon="11.587128697920953"><ele>951.0</ele><time>2026-05-02T05:57:23Z</time></trkpt><trkpt lat="43.78403790817263" lon="11.587244130852897"><ele>951.0</ele><time>2026-05-02T05:57:24Z</time></trkpt><trkpt lat="43.78394558125098" lon="11.587347288568129"><ele>951.0</ele><time>2026-05-02T05:57:25Z</time></trkpt><trkpt lat="43.78386424861171" lon="11.587451117100152"><ele>951.0</ele><time>2026-05-02T05:57:26Z</time></trkpt><trkpt lat="43.78378085051547" lon="11.587561152162476"><ele>951.0</ele><time>2026-05-02T05:57:27Z</time></trkpt><trkpt lat="43.78369722447444" lon="11.58768853634154"><ele>950.9999999999999</ele><time>2026-05-02T05:57:28Z</time></trkpt><trkpt lat="43.78361948337788" lon="11.587782497554278"><ele>950.9999999999999</ele><time>2026-05-02T05:57:29Z</time></trkpt><trkpt lat="43.78354954163931" lon="11.587884362959592"><ele>951.0</ele><time>2026-05-02T05:57:30Z</time></trkpt><trkpt lat="43.78349812548718" lon="11.587979707155302"><ele>951.0</ele><time>2026-05-02T05:57:31Z</time></trkpt><trkpt lat="43.78343150933691" lon="11.58806697842743"><ele>952.4</ele><time>2026-05-02T05:57:32Z</time></trkpt><trkpt lat="43.783360369430305" lon="11.588156347310097"><ele>953.8</ele><time>2026-05-02T05:57:33Z</time></trkpt><trkpt lat="43.78325795515139" lon="11.58822467622549"><ele>955.1999999999999</ele><time>2026-05-02T05:57:34Z</time></trkpt><trkpt lat="43.78315203748953" lon="11.58830851624502"><ele>956.5999999999999</ele><time>2026-05-02T05:57:35Z</time></trkpt><trkpt lat="43.78305772124816" lon="11.58838909229786"><ele>958.0</ele><time>2026-05-02T05:57:36Z</time></trkpt><trkpt lat="43.78296755928616" lon="11.588465286362348"><ele>958.0</ele><time>2026-05-02T05:57:37Z</time></trkpt><trkpt lat="43.78289106616474" lon="11.58854253919905"><ele>958.0</ele><time>2026-05-02T05:57:38Z</time></trkpt><trkpt lat="43.782835718328904" lon="11.58863823076073"><ele>958.0</ele><time>2026-05-02T05:57:39Z</time></trkpt><trkpt lat="43.78277020828342" lon="11.588779861967033"><ele>958.0</ele><time>2026-05-02T05:57:40Z</time></trkpt><trkpt lat="43.782700349391185" lon="11.588937254515624"><ele>958.0</ele><time>2026-05-02T05:57:41Z</time></trkpt><trkpt lat="43.782642099882665" lon="11.58905466720447"><ele>957.1666666666666</ele><time>2026-05-02T05:57:42Z</time></trkpt><trkpt lat="43.782585848962995" lon="11.589171605740447"><ele>956.3333333333333</ele><time>2026-05-02T05:57:43Z</time></trkpt><trkpt lat="43.782530834058434" lon="11.589277788003388"><ele>955.5</ele><time>2026-05-02T05:57:44Z</time></trkpt><trkpt lat="43.78247240565725" lon="11.589364882934378"><ele>954.6666666666667</ele><time>2026-05-02T05:57:45Z</time></trkpt><trkpt lat="43.782410649815986" lon="11.589433397405461"><ele>953.8333333333334</ele><time>2026-05-02T05:57:46Z</time></trkpt><trkpt lat="43.78233970717091" lon="11.589489544590364"><ele>953.0</ele><time>2026-05-02T05:57:47Z</time></trkpt><trkpt lat="43.78225450258014" lon="11.589520447911447"><ele>953.0000000000001</ele><time>2026-05-02T05:57:48Z</time></trkpt><trkpt lat="43.782166507713626" lon="11.589511086646455"><ele>953.0</ele><time>2026-05-02T05:57:49Z</time></trkpt><trkpt lat="43.78206252364695" lon="11.589499822025585"><ele>953.0</ele><time>2026-05-02T05:57:50Z</time></trkpt><trkpt lat="43.78198650906359" lon="11.58945661693735"><ele>953.0</ele><time>2026-05-02T05:57:51Z</time></trkpt><trkpt lat="43.78191838972062" lon="11.589396951207219"><ele>953.0000000000001</ele><time>2026-05-02T05:57:52Z</time></trkpt><trkpt lat="43.78184952238616" lon="11.589350105898584"><ele>953.0</ele><time>2026-05-02T05:57:53Z</time></trkpt><trkpt lat="43.7817695215456" lon="11.589331342301575"><ele>954.0000000000001</ele><time>2026-05-02T05:57:54Z</time></trkpt><trkpt lat="43.781702508293584" lon="11.589320252738128"><ele>955.0</ele><time>2026-05-02T05:57:55Z</time></trkpt><trkpt lat="43.78162244298398" lon="11.589409142402152"><ele>956.0</ele><time>2026-05-02T05:57:57Z</time></trkpt><trkpt lat="43.781576318449225" lon="11.589477619371568"><ele>957.0</ele><time>2026-05-02T05:57:58Z</time></trkpt><trkpt lat="43.781535754120945" lon="11.589562896006841"><ele>958.0000000000001</ele><time>2026-05-02T05:57:59Z</time></trkpt><trkpt lat="43.78153747979082" lon="11.589699610670293"><ele>959.0</ele><time>2026-05-02T05:58:00Z</time></trkpt><trkpt lat="43.781526867277414" lon="11.58982243478827"><ele>959.0</ele><time>2026-05-02T05:58:01Z</time></trkpt><trkpt lat="43.781492878357454" lon="11.589949329023328"><ele>959.0000000000001</ele><time>2026-05-02T05:58:02Z</time></trkpt><trkpt lat="43.781470384507834" lon="11.590044576426944"><ele>959.0000000000001</ele><time>2026-05-02T05:58:03Z</time></trkpt><trkpt lat="43.78142868210187" lon="11.590127286687514"><ele>959.0</ele><time>2026-05-02T05:58:04Z</time></trkpt><trkpt lat="43.78134174910637" lon="11.59025371747138"><ele>959.0</ele><time>2026-05-02T05:58:06Z</time></trkpt><trkpt lat="43.78134512767466" lon="11.590418464754281"><ele>960.2</ele><time>2026-05-02T05:58:08Z</time></trkpt><trkpt lat="43.781391924236516" lon="11.59051982398854"><ele>961.4000000000001</ele><time>2026-05-02T05:58:09Z</time></trkpt><trkpt lat="43.78145706891778" lon="11.590621928353587"><ele>962.6</ele><time>2026-05-02T05:58:10Z</time></trkpt><trkpt lat="43.78151655114313" lon="11.590699166429332"><ele>963.8</ele><time>2026-05-02T05:58:11Z</time></trkpt><trkpt lat="43.781659528612494" lon="11.590707979093395"><ele>965.0</ele><time>2026-05-02T05:58:13Z</time></trkpt><trkpt lat="43.781762714752126" lon="11.590664641296055"><ele>963.6666666666667</ele><time>2026-05-02T05:58:14Z</time></trkpt><trkpt lat="43.78185764440906" lon="11.590629989962682"><ele>962.3333333333334</ele><time>2026-05-02T05:58:15Z</time></trkpt><trkpt lat="43.78192458976302" lon="11.59064362802164"><ele>961.0</ele><time>2026-05-02T05:58:16Z</time></trkpt><trkpt lat="43.782005607970646" lon="11.59076793571796"><ele>959.6666666666667</ele><time>2026-05-02T05:58:18Z</time></trkpt><trkpt lat="43.781993240273096" lon="11.590877039575934"><ele>958.3333333333334</ele><time>2026-05-02T05:58:19Z</time></trkpt><trkpt lat="43.78196289949418" lon="11.59097950956874"><ele>957.0</ele><time>2026-05-02T05:58:20Z</time></trkpt><trkpt lat="43.781899616338976" lon="11.591077957927501"><ele>958.6</ele><time>2026-05-02T05:58:21Z</time></trkpt><trkpt lat="43.7818169509983" lon="11.591163674700388"><ele>960.2</ele><time>2026-05-02T05:58:22Z</time></trkpt><trkpt lat="43.78175261606759" lon="11.591236735644097"><ele>961.8</ele><time>2026-05-02T05:58:23Z</time></trkpt><trkpt lat="43.7817339474591" lon="11.591381976052556"><ele>963.4</ele><time>2026-05-02T05:58:25Z</time></trkpt><trkpt lat="43.78181328883935" lon="11.591487392152853"><ele>965.0</ele><time>2026-05-02T05:58:27Z</time></trkpt><trkpt lat="43.7818961983109" lon="11.591495580814017"><ele>966.0</ele><time>2026-05-02T05:58:28Z</time></trkpt><trkpt lat="43.781991611028545" lon="11.591488414984433"><ele>967.0</ele><time>2026-05-02T05:58:29Z</time></trkpt><trkpt lat="43.78208059477837" lon="11.591492079623082"><ele>968.0</ele><time>2026-05-02T05:58:30Z</time></trkpt><trkpt lat="43.78216591342758" lon="11.591522199760927"><ele>969.0</ele><time>2026-05-02T05:58:31Z</time></trkpt><trkpt lat="43.78223950972583" lon="11.591577151361438"><ele>970.0</ele><time>2026-05-02T05:58:32Z</time></trkpt><trkpt lat="43.78235131466208" lon="11.591574266161585"><ele>969.9999999999999</ele><time>2026-05-02T05:58:34Z</time></trkpt><trkpt lat="43.78240512283892" lon="11.59149434767194"><ele>970.0</ele><time>2026-05-02T05:58:35Z</time></trkpt><trkpt lat="43.782458511097246" lon="11.591442100558377"><ele>970.0</ele><time>2026-05-02T05:58:36Z</time></trkpt><trkpt lat="43.78257200432869" lon="11.591518804724586"><ele>970.0</ele><time>2026-05-02T05:58:38Z</time></trkpt><trkpt lat="43.78265668921306" lon="11.591583555523588"><ele>969.9999999999999</ele><time>2026-05-02T05:58:39Z</time></trkpt><trkpt lat="43.78273589280047" lon="11.591607512495667"><ele>970.0</ele><time>2026-05-02T05:58:40Z</time></trkpt><trkpt lat="43.78281245677571" lon="11.591615095721712"><ele>969.4</ele><time>2026-05-02T05:58:41Z</time></trkpt><trkpt lat="43.78291413881439" lon="11.591572337918988"><ele>968.8</ele><time>2026-05-02T05:58:43Z</time></trkpt><trkpt lat="43.782906489001995" lon="11.591412521527825"><ele>968.2</ele><time>2026-05-02T05:58:45Z</time></trkpt><trkpt lat="43.78286823129751" lon="11.591332485035101"><ele>967.6</ele><time>2026-05-02T05:58:46Z</time></trkpt><trkpt lat="43.78275931235504" lon="11.591238745738917"><ele>967.0</ele><time>2026-05-02T05:58:48Z</time></trkpt><trkpt lat="43.78269381695011" lon="11.591166040326486"><ele>966.9999999999999</ele><time>2026-05-02T05:58:49Z</time></trkpt><trkpt lat="43.78267271916301" lon="11.591071245622306"><ele>967.0</ele><time>2026-05-02T05:58:50Z</time></trkpt><trkpt lat="43.78267261032695" lon="11.590943970974324"><ele>967.0</ele><time>2026-05-02T05:58:51Z</time></trkpt><trkpt lat="43.782683682150456" lon="11.59083014583008"><ele>967.0</ele><time>2026-05-02T05:58:52Z</time></trkpt><trkpt lat="43.78273769947241" lon="11.590752673753471"><ele>966.9999999999999</ele><time>2026-05-02T05:58:53Z</time></trkpt><trkpt lat="43.782802089674114" lon="11.590696231146408"><ele>967.0</ele><time>2026-05-02T05:58:54Z</time></trkpt><trkpt lat="43.78287905794646" lon="11.590655134218881"><ele>966.9999999999999</ele><time>2026-05-02T05:58:55Z</time></trkpt><trkpt lat="43.78294674666623" lon="11.590559610929814"><ele>967.0</ele><time>2026-05-02T05:58:56Z</time></trkpt><trkpt lat="43.78303180910063" lon="11.590536878774794"><ele>967.0</ele><time>2026-05-02T05:58:57Z</time></trkpt><trkpt lat="43.783105010876" lon="11.590526860193371"><ele>967.0</ele><time>2026-05-02T05:58:58Z</time></trkpt><trkpt lat="43.78319150038961" lon="11.590541583405267"><ele>966.9999999999999</ele><time>2026-05-02T05:58:59Z</time></trkpt><trkpt lat="43.783283849777" lon="11.590565113828811"><ele>967.0</ele><time>2026-05-02T05:59:00Z</time></trkpt><trkpt lat="43.78334474397032" lon="11.590587993237529"><ele>966.9999999999999</ele><time>2026-05-02T05:59:01Z</time></trkpt><trkpt lat="43.78345262387912" lon="11.590520608679292"><ele>967.0</ele><time>2026-05-02T05:59:03Z</time></trkpt><trkpt lat="43.78349698627954" lon="11.590443513048465"><ele>967.0</ele><time>2026-05-02T05:59:04Z</time></trkpt><trkpt lat="43.783545379176736" lon="11.590356621425071"><ele>967.0</ele><time>2026-05-02T05:59:05Z</time></trkpt><trkpt lat="43.78360811370057" lon="11.59026323402389"><ele>966.9999999999999</ele><time>2026-05-02T05:59:06Z</time></trkpt><trkpt lat="43.783668302324905" lon="11.590224299163937"><ele>967.0</ele><time>2026-05-02T05:59:07Z</time></trkpt><trkpt lat="43.78373436374153" lon="11.590161461075688"><ele>965.0</ele><time>2026-05-02T05:59:08Z</time></trkpt><trkpt lat="43.78385883318749" lon="11.59016849344647"><ele>963.0</ele><time>2026-05-02T05:59:09Z</time></trkpt><trkpt lat="43.78397667694251" lon="11.590199180038393"><ele>961.0</ele><time>2026-05-02T05:59:10Z</time></trkpt><trkpt lat="43.784086118990245" lon="11.590166347869719"><ele>959.0</ele><time>2026-05-02T05:59:11Z</time></trkpt><trkpt lat="43.78417062445769" lon="11.590112241363482"><ele>959.0</ele><time>2026-05-02T05:59:12Z</time></trkpt><trkpt lat="43.78430343048131" lon="11.59013366720254"><ele>959.0000000000001</ele><time>2026-05-02T05:59:14Z</time></trkpt><trkpt lat="43.784387600498434" lon="11.59017713516895"><ele>959.0000000000001</ele><time>2026-05-02T05:59:15Z</time></trkpt><trkpt lat="43.78443806187064" lon="11.590230515710012"><ele>959.0</ele><time>2026-05-02T05:59:16Z</time></trkpt><trkpt lat="43.78451299243783" lon="11.590267569295955"><ele>959.0</ele><time>2026-05-02T05:59:17Z</time></trkpt><trkpt lat="43.78459870905494" lon="11.59030771926197"><ele>960.2</ele><time>2026-05-02T05:59:18Z</time></trkpt><trkpt lat="43.7847288625914" lon="11.59034502678982"><ele>961.4000000000001</ele><time>2026-05-02T05:59:19Z</time></trkpt><trkpt lat="43.784836407556604" lon="11.59034536876729"><ele>962.6</ele><time>2026-05-02T05:59:20Z</time></trkpt><trkpt lat="43.784900939943626" lon="11.590355891456042"><ele>963.8</ele><time>2026-05-02T05:59:21Z</time></trkpt><trkpt lat="43.784973307010844" lon="11.590399240778419"><ele>965.0</ele><time>2026-05-02T05:59:22Z</time></trkpt><trkpt lat="43.78504896174541" lon="11.590495984145527"><ele>965.0</ele><time>2026-05-02T05:59:23Z</time></trkpt><trkpt lat="43.78510264188392" lon="11.59056303202298"><ele>965.0</ele><time>2026-05-02T05:59:24Z</time></trkpt><trkpt lat="43.78511292023761" lon="11.590659763071884"><ele>965.0</ele><time>2026-05-02T05:59:25Z</time></trkpt><trkpt lat="43.78516303065491" lon="11.590777216065476"><ele>965.0</ele><time>2026-05-02T05:59:26Z</time></trkpt><trkpt lat="43.78519298191523" lon="11.590893181482645"><ele>965.0</ele><time>2026-05-02T05:59:27Z</time></trkpt><trkpt lat="43.78525445151511" lon="11.59109013952833"><ele>964.6666666666667</ele><time>2026-05-02T05:59:29Z</time></trkpt><trkpt lat="43.78530543306248" lon="11.591181546828304"><ele>964.3333333333334</ele><time>2026-05-02T05:59:31Z</time></trkpt><trkpt lat="43.785372326898546" lon="11.591188674857332"><ele>964.0</ele><time>2026-05-02T05:59:32Z</time></trkpt><trkpt lat="43.78547830471275" lon="11.591202238615429"><ele>963.6666666666667</ele><time>2026-05-02T05:59:33Z</time></trkpt><trkpt lat="43.785558346383766" lon="11.591169268824492"><ele>963.3333333333334</ele><time>2026-05-02T05:59:34Z</time></trkpt><trkpt lat="43.7856275821524" lon="11.59114487727986"><ele>963.0</ele><time>2026-05-02T05:59:35Z</time></trkpt><trkpt lat="43.78574755292564" lon="11.59116097557882"><ele>963.0</ele><time>2026-05-02T05:59:36Z</time></trkpt><trkpt lat="43.78584036210279" lon="11.59117283450055"><ele>963.0</ele><time>2026-05-02T05:59:37Z</time></trkpt><trkpt lat="43.78594288442765" lon="11.591195746465162"><ele>963.0</ele><time>2026-05-02T05:59:38Z</time></trkpt><trkpt lat="43.78606819937228" lon="11.591255583478265"><ele>963.0</ele><time>2026-05-02T05:59:39Z</time></trkpt><trkpt lat="43.78618132147727" lon="11.59126467081765"><ele>963.0</ele><time>2026-05-02T05:59:40Z</time></trkpt><trkpt lat="43.78629777476021" lon="11.591274154262997"><ele>965.4</ele><time>2026-05-02T05:59:41Z</time></trkpt><trkpt lat="43.78641434831705" lon="11.591243720549283"><ele>967.8</ele><time>2026-05-02T05:59:42Z</time></trkpt><trkpt lat="43.78653121799938" lon="11.59122126454264"><ele>970.2</ele><time>2026-05-02T05:59:43Z</time></trkpt><trkpt lat="43.78661484925102" lon="11.591205630916384"><ele>972.6</ele><time>2026-05-02T05:59:44Z</time></trkpt><trkpt lat="43.78670406340204" lon="11.591225894209328"><ele>975.0</ele><time>2026-05-02T05:59:45Z</time></trkpt><trkpt lat="43.786804182908526" lon="11.591242845607697"><ele>975.0</ele><time>2026-05-02T05:59:46Z</time></trkpt><trkpt lat="43.786880273285384" lon="11.591314371128082"><ele>975.0</ele><time>2026-05-02T05:59:48Z</time></trkpt><trkpt lat="43.786932753951575" lon="11.59139487900551"><ele>975.0</ele><time>2026-05-02T05:59:50Z</time></trkpt><trkpt lat="43.78692670171379" lon="11.591505803490639"><ele>975.0</ele><time>2026-05-02T05:59:52Z</time></trkpt><trkpt lat="43.78688148015236" lon="11.591662042128807"><ele>975.0</ele><time>2026-05-02T05:59:54Z</time></trkpt><trkpt lat="43.78684380411095" lon="11.591762532422845"><ele>975.0</ele><time>2026-05-02T05:59:55Z</time></trkpt><trkpt lat="43.78678735813942" lon="11.59186480152973"><ele>975.0</ele><time>2026-05-02T05:59:56Z</time></trkpt><trkpt lat="43.786724285679426" lon="11.591981427782795"><ele>975.0</ele><time>2026-05-02T05:59:57Z</time></trkpt><trkpt lat="43.78666202862809" lon="11.592097114076518"><ele>975.0</ele><time>2026-05-02T05:59:58Z</time></trkpt><trkpt lat="43.78661324344034" lon="11.592194053622155"><ele>975.0</ele><time>2026-05-02T05:59:59Z</time></trkpt><trkpt lat="43.7865748964571" lon="11.592300663565425"><ele>975.2</ele><time>2026-05-02T06:00:00Z</time></trkpt><trkpt lat="43.786541810273334" lon="11.592440132906093"><ele>975.4</ele><time>2026-05-02T06:00:01Z</time></trkpt><trkpt lat="43.78649894742965" lon="11.592575883594469"><ele>975.5999999999999</ele><time>2026-05-02T06:00:02Z</time></trkpt><trkpt lat="43.78643918833153" lon="11.592697778147185"><ele>975.8</ele><time>2026-05-02T06:00:03Z</time></trkpt><trkpt lat="43.786380455917865" lon="11.592810230603616"><ele>976.0</ele><time>2026-05-02T06:00:04Z</time></trkpt><trkpt lat="43.78632486017386" lon="11.592932865143439"><ele>976.4</ele><time>2026-05-02T06:00:05Z</time></trkpt><trkpt lat="43.78628692689713" lon="11.593086720924369"><ele>976.8</ele><time>2026-05-02T06:00:06Z</time></trkpt><trkpt lat="43.786247930354065" lon="11.59321280089689"><ele>977.1999999999999</ele><time>2026-05-02T06:00:07Z</time></trkpt><trkpt lat="43.78621680048785" lon="11.593338434874504"><ele>977.5999999999999</ele><time>2026-05-02T06:00:08Z</time></trkpt><trkpt lat="43.78619185531076" lon="11.593466284308318"><ele>978.0</ele><time>2026-05-02T06:00:09Z</time></trkpt><trkpt lat="43.78617409867871" lon="11.593578694595418"><ele>978.0</ele><time>2026-05-02T06:00:10Z</time></trkpt><trkpt lat="43.786173693562034" lon="11.593667588263086"><ele>978.0</ele><time>2026-05-02T06:00:11Z</time></trkpt><trkpt lat="43.78622484103943" lon="11.593859415711204"><ele>978.0</ele><time>2026-05-02T06:00:13Z</time></trkpt><trkpt lat="43.78627066616418" lon="11.593963983427537"><ele>978.0</ele><time>2026-05-02T06:00:14Z</time></trkpt><trkpt lat="43.786312451877805" lon="11.594052575747325"><ele>978.0</ele><time>2026-05-02T06:00:15Z</time></trkpt><trkpt lat="43.78637693238336" lon="11.594106357568"><ele>978.2</ele><time>2026-05-02T06:00:16Z</time></trkpt><trkpt lat="43.78643600654384" lon="11.594157311242586"><ele>978.4</ele><time>2026-05-02T06:00:17Z</time></trkpt><trkpt lat="43.78650031195961" lon="11.594349859545225"><ele>978.6000000000001</ele><time>2026-05-02T06:00:19Z</time></trkpt><trkpt lat="43.786523663178805" lon="11.594495890674665"><ele>978.8000000000001</ele><time>2026-05-02T06:00:20Z</time></trkpt><trkpt lat="43.78655954148042" lon="11.594633063832633"><ele>979.0</ele><time>2026-05-02T06:00:21Z</time></trkpt><trkpt lat="43.78658500345336" lon="11.594729263095934"><ele>979.3333333333333</ele><time>2026-05-02T06:00:22Z</time></trkpt><trkpt lat="43.78665130450302" lon="11.594803456352988"><ele>979.6666666666666</ele><time>2026-05-02T06:00:23Z</time></trkpt><trkpt lat="43.78665765316295" lon="11.594902599254588"><ele>980.0</ele><time>2026-05-02T06:00:24Z</time></trkpt><trkpt lat="43.786671171724464" lon="11.595025419130687"><ele>980.3333333333333</ele><time>2026-05-02T06:00:25Z</time></trkpt><trkpt lat="43.786666013315404" lon="11.595164775443026"><ele>980.6666666666666</ele><time>2026-05-02T06:00:26Z</time></trkpt><trkpt lat="43.786655320054315" lon="11.595304440025766"><ele>981.0</ele><time>2026-05-02T06:00:27Z</time></trkpt><trkpt lat="43.78664641331952" lon="11.595446192005848"><ele>981.5999999999999</ele><time>2026-05-02T06:00:28Z</time></trkpt><trkpt lat="43.78664478960502" lon="11.595591346393126"><ele>982.1999999999999</ele><time>2026-05-02T06:00:29Z</time></trkpt><trkpt lat="43.78662913199753" lon="11.595738202669878"><ele>982.8000000000001</ele><time>2026-05-02T06:00:30Z</time></trkpt><trkpt lat="43.786600749503904" lon="11.59587155282569"><ele>983.4000000000001</ele><time>2026-05-02T06:00:31Z</time></trkpt><trkpt lat="43.786564203785105" lon="11.595991965581089"><ele>984.0</ele><time>2026-05-02T06:00:32Z</time></trkpt><trkpt lat="43.786538975741884" lon="11.596124912995277"><ele>984.6</ele><time>2026-05-02T06:00:33Z</time></trkpt><trkpt lat="43.78654540412703" lon="11.59626516951126"><ele>985.2</ele><time>2026-05-02T06:00:34Z</time></trkpt><trkpt lat="43.786559549899295" lon="11.596415901659979"><ele>985.8000000000001</ele><time>2026-05-02T06:00:35Z</time></trkpt><trkpt lat="43.7865522060608" lon="11.59653978906556"><ele>986.4000000000001</ele><time>2026-05-02T06:00:36Z</time></trkpt><trkpt lat="43.786532074251255" lon="11.596658228278258"><ele>987.0</ele><time>2026-05-02T06:00:37Z</time></trkpt><trkpt lat="43.786517032755945" lon="11.596770948908436"><ele>987.0</ele><time>2026-05-02T06:00:38Z</time></trkpt><trkpt lat="43.78646899395527" lon="11.5968658080684"><ele>987.0</ele><time>2026-05-02T06:00:39Z</time></trkpt><trkpt lat="43.7864200709668" lon="11.59692322896093"><ele>987.0</ele><time>2026-05-02T06:00:40Z</time></trkpt><trkpt lat="43.7863473610154" lon="11.596974708312189"><ele>987.0</ele><time>2026-05-02T06:00:41Z</time></trkpt><trkpt lat="43.78627305721178" lon="11.59699292652732"><ele>987.0</ele><time>2026-05-02T06:00:42Z</time></trkpt><trkpt lat="43.78619114505334" lon="11.597020171056721"><ele>987.0</ele><time>2026-05-02T06:00:43Z</time></trkpt><trkpt lat="43.78610127735987" lon="11.597073775545924"><ele>988.4000000000001</ele><time>2026-05-02T06:00:44Z</time></trkpt><trkpt lat="43.78601465732719" lon="11.59713941454188"><ele>989.8000000000001</ele><time>2026-05-02T06:00:45Z</time></trkpt><trkpt lat="43.785946026197514" lon="11.597245532461065"><ele>991.2</ele><time>2026-05-02T06:00:46Z</time></trkpt><trkpt lat="43.78589077220334" lon="11.597354469217548"><ele>992.6</ele><time>2026-05-02T06:00:47Z</time></trkpt><trkpt lat="43.78584225633178" lon="11.597437852635668"><ele>994.0</ele><time>2026-05-02T06:00:48Z</time></trkpt><trkpt lat="43.7858167879973" lon="11.597574827373455"><ele>996.6</ele><time>2026-05-02T06:00:50Z</time></trkpt><trkpt lat="43.78591485548025" lon="11.597694997857289"><ele>999.2</ele><time>2026-05-02T06:00:52Z</time></trkpt><trkpt lat="43.78594583325034" lon="11.597833750721396"><ele>1001.8000000000001</ele><time>2026-05-02T06:00:54Z</time></trkpt><trkpt lat="43.785884365004144" lon="11.597905182780638"><ele>1004.4000000000001</ele><time>2026-05-02T06:00:55Z</time></trkpt><trkpt lat="43.78581143688598" lon="11.597948653104392"><ele>1007.0</ele><time>2026-05-02T06:00:56Z</time></trkpt><trkpt lat="43.785772365193196" lon="11.598028611181865"><ele>1007.0</ele><time>2026-05-02T06:00:57Z</time></trkpt><trkpt lat="43.78572373117091" lon="11.598151605899565"><ele>1007.0</ele><time>2026-05-02T06:00:58Z</time></trkpt><trkpt lat="43.78566712718557" lon="11.59828683077526"><ele>1007.0</ele><time>2026-05-02T06:00:59Z</time></trkpt><trkpt lat="43.78565947024882" lon="11.598412518372983"><ele>1007.0</ele><time>2026-05-02T06:01:01Z</time></trkpt><trkpt lat="43.7857236985135" lon="11.59849930858676"><ele>1007.0</ele><time>2026-05-02T06:01:02Z</time></trkpt><trkpt lat="43.78580653140471" lon="11.598497421309451"><ele>1007.0</ele><time>2026-05-02T06:01:03Z</time></trkpt><trkpt lat="43.78589504497889" lon="11.598414797802935"><ele>1007.0</ele><time>2026-05-02T06:01:05Z</time></trkpt><trkpt lat="43.78598975031001" lon="11.598386172145661"><ele>1007.0</ele><time>2026-05-02T06:01:06Z</time></trkpt><trkpt lat="43.78606874172378" lon="11.59832048204074"><ele>1007.0</ele><time>2026-05-02T06:01:07Z</time></trkpt><trkpt lat="43.78615122990098" lon="11.598316126336673"><ele>1007.0</ele><time>2026-05-02T06:01:08Z</time></trkpt><trkpt lat="43.7862451389257" lon="11.598296075317592"><ele>1006.4000000000001</ele><time>2026-05-02T06:01:09Z</time></trkpt><trkpt lat="43.786357566991484" lon="11.59830312201578"><ele>1005.8000000000001</ele><time>2026-05-02T06:01:11Z</time></trkpt><trkpt lat="43.78640023440051" lon="11.598399429738585"><ele>1005.2</ele><time>2026-05-02T06:01:13Z</time></trkpt><trkpt lat="43.78643494461382" lon="11.598524767895057"><ele>1004.6</ele><time>2026-05-02T06:01:16Z</time></trkpt><trkpt lat="43.78650510026716" lon="11.59865148008122"><ele>1004.0</ele><time>2026-05-02T06:01:18Z</time></trkpt><trkpt lat="43.786525808474735" lon="11.598846345267825"><ele>1005.8000000000001</ele><time>2026-05-02T06:01:20Z</time></trkpt><trkpt lat="43.78653768694372" lon="11.598941639287638"><ele>1007.6000000000001</ele><time>2026-05-02T06:01:21Z</time></trkpt><trkpt lat="43.78655193992067" lon="11.599079476610605"><ele>1009.4</ele><time>2026-05-02T06:01:23Z</time></trkpt><trkpt lat="43.786607705894724" lon="11.599142407267458"><ele>1011.2</ele><time>2026-05-02T06:01:33Z</time></trkpt><trkpt lat="43.786662339497454" lon="11.599298835211814"><ele>1013.0</ele><time>2026-05-02T06:01:35Z</time></trkpt><trkpt lat="43.78670182236192" lon="11.599406318020623"><ele>1013.0</ele><time>2026-05-02T06:01:36Z</time></trkpt><trkpt lat="43.786728630867366" lon="11.59948991343609"><ele>1013.0000000000001</ele><time>2026-05-02T06:01:37Z</time></trkpt><trkpt lat="43.78674947573675" lon="11.599574394310785"><ele>1013.0</ele><time>2026-05-02T06:01:38Z</time></trkpt><trkpt lat="43.78675878723078" lon="11.59967432225625"><ele>1013.0</ele><time>2026-05-02T06:01:39Z</time></trkpt><trkpt lat="43.786759390857384" lon="11.599765912455494"><ele>1013.0000000000001</ele><time>2026-05-02T06:01:40Z</time></trkpt><trkpt lat="43.786786794320626" lon="11.59989191164759"><ele>1013.0</ele><time>2026-05-02T06:01:42Z</time></trkpt><trkpt lat="43.786856939491166" lon="11.599914639195015"><ele>1013.0</ele><time>2026-05-02T06:01:44Z</time></trkpt><trkpt lat="43.7869364892859" lon="11.599881707122805"><ele>1011.5999999999999</ele><time>2026-05-02T06:01:45Z</time></trkpt><trkpt lat="43.78699510008337" lon="11.599792391684911"><ele>1010.1999999999999</ele><time>2026-05-02T06:01:46Z</time></trkpt><trkpt lat="43.78705487463919" lon="11.59970200730959"><ele>1008.8</ele><time>2026-05-02T06:01:47Z</time></trkpt><trkpt lat="43.787099038081905" lon="11.599595192153648"><ele>1007.4</ele><time>2026-05-02T06:01:48Z</time></trkpt><trkpt lat="43.78714511924554" lon="11.59950739018782"><ele>1006.0</ele><time>2026-05-02T06:01:49Z</time></trkpt><trkpt lat="43.787251034308824" lon="11.59943862300908"><ele>1006.0</ele><time>2026-05-02T06:01:51Z</time></trkpt><trkpt lat="43.787313749563" lon="11.599425674827458"><ele>1006.0000000000001</ele><time>2026-05-02T06:01:52Z</time></trkpt><trkpt lat="43.78737939127028" lon="11.599452114183048"><ele>1006.0</ele><time>2026-05-02T06:01:53Z</time></trkpt><trkpt lat="43.787461189020284" lon="11.599486776487558"><ele>1006.0</ele><time>2026-05-02T06:01:54Z</time></trkpt><trkpt lat="43.78753359338086" lon="11.599466258907723"><ele>1006.0000000000001</ele><time>2026-05-02T06:01:55Z</time></trkpt><trkpt lat="43.78758014395916" lon="11.59939968131805"><ele>1006.0</ele><time>2026-05-02T06:01:56Z</time></trkpt><trkpt lat="43.787646182499955" lon="11.599344782765808"><ele>1006.0</ele><time>2026-05-02T06:01:57Z</time></trkpt><trkpt lat="43.78770796134107" lon="11.599308310504464"><ele>1008.3333333333333</ele><time>2026-05-02T06:01:58Z</time></trkpt><trkpt lat="43.78781347339537" lon="11.599376480092179"><ele>1010.6666666666666</ele><time>2026-05-02T06:02:00Z</time></trkpt><trkpt lat="43.787868116922965" lon="11.599459909938027"><ele>1013.0</ele><time>2026-05-02T06:02:01Z</time></trkpt><trkpt lat="43.78791646505768" lon="11.599580968583489"><ele>1015.3333333333333</ele><time>2026-05-02T06:02:02Z</time></trkpt><trkpt lat="43.7879541043194" lon="11.599679252421272"><ele>1017.6666666666666</ele><time>2026-05-02T06:02:03Z</time></trkpt><trkpt lat="43.78799474863068" lon="11.599746304897383"><ele>1020.0</ele><time>2026-05-02T06:02:04Z</time></trkpt><trkpt lat="43.78806577023451" lon="11.599772839359"><ele>1020.0</ele><time>2026-05-02T06:02:07Z</time></trkpt><trkpt lat="43.78810228578466" lon="11.599690971810928"><ele>1020.0</ele><time>2026-05-02T06:02:09Z</time></trkpt><trkpt lat="43.78809983536392" lon="11.599597312065583"><ele>1020.0</ele><time>2026-05-02T06:02:10Z</time></trkpt><trkpt lat="43.78808940615302" lon="11.59948169503899"><ele>1020.0</ele><time>2026-05-02T06:02:11Z</time></trkpt><trkpt lat="43.788105345136" lon="11.599358398645208"><ele>1020.0</ele><time>2026-05-02T06:02:12Z</time></trkpt><trkpt lat="43.7880928844317" lon="11.5992168880076"><ele>1020.0</ele><time>2026-05-02T06:02:13Z</time></trkpt><trkpt lat="43.78811455087722" lon="11.599106942574467"><ele>1020.0</ele><time>2026-05-02T06:02:14Z</time></trkpt><trkpt lat="43.78813697614193" lon="11.599016492632487"><ele>1020.0</ele><time>2026-05-02T06:02:15Z</time></trkpt><trkpt lat="43.78818802961766" lon="11.598955986529605"><ele>1020.0</ele><time>2026-05-02T06:02:16Z</time></trkpt><trkpt lat="43.788252663894646" lon="11.598902570428537"><ele>1020.0</ele><time>2026-05-02T06:02:17Z</time></trkpt><trkpt lat="43.78832734252499" lon="11.598843454372288"><ele>1020.0</ele><time>2026-05-02T06:02:18Z</time></trkpt><trkpt lat="43.788393275032895" lon="11.59883963810198"><ele>1020.0</ele><time>2026-05-02T06:02:19Z</time></trkpt><trkpt lat="43.78849349539096" lon="11.598896125057651"><ele>1021.8571428571429</ele><time>2026-05-02T06:02:21Z</time></trkpt><trkpt lat="43.78854868930831" lon="11.598941336405174"><ele>1023.7142857142858</ele><time>2026-05-02T06:02:22Z</time></trkpt><trkpt lat="43.78862947023539" lon="11.598955575628274"><ele>1025.5714285714287</ele><time>2026-05-02T06:02:24Z</time></trkpt><trkpt lat="43.78867505107023" lon="11.598895124818075"><ele>1027.4285714285716</ele><time>2026-05-02T06:02:26Z</time></trkpt><trkpt lat="43.78872762297627" lon="11.598771409765323"><ele>1029.2857142857142</ele><time>2026-05-02T06:02:28Z</time></trkpt><trkpt lat="43.788781034404494" lon="11.598718969076947"><ele>1031.1428571428573</ele><time>2026-05-02T06:02:29Z</time></trkpt><trkpt lat="43.78884696432188" lon="11.598688600085964"><ele>1033.0</ele><time>2026-05-02T06:02:30Z</time></trkpt><trkpt lat="43.78892818001614" lon="11.598667941775581"><ele>1033.0</ele><time>2026-05-02T06:02:31Z</time></trkpt><trkpt lat="43.78903351515545" lon="11.598644186556657"><ele>1033.0</ele><time>2026-05-02T06:02:32Z</time></trkpt><trkpt lat="43.78912288944818" lon="11.598685708028404"><ele>1033.0</ele><time>2026-05-02T06:02:33Z</time></trkpt><trkpt lat="43.7892582081918" lon="11.598690811405325"><ele>1033.0</ele><time>2026-05-02T06:02:34Z</time></trkpt><trkpt lat="43.78936404969411" lon="11.598698244230064"><ele>1033.0</ele><time>2026-05-02T06:02:35Z</time></trkpt><trkpt lat="43.78946383276558" lon="11.598703685948749"><ele>1033.3333333333333</ele><time>2026-05-02T06:02:36Z</time></trkpt><trkpt lat="43.78954607501903" lon="11.598671420904903"><ele>1033.6666666666665</ele><time>2026-05-02T06:02:37Z</time></trkpt><trkpt lat="43.789610932056796" lon="11.598649435045862"><ele>1034.0</ele><time>2026-05-02T06:02:38Z</time></trkpt><trkpt lat="43.78969139333409" lon="11.598622414093995"><ele>1034.3333333333333</ele><time>2026-05-02T06:02:39Z</time></trkpt><trkpt lat="43.78978375263061" lon="11.598651140454145"><ele>1034.6666666666667</ele><time>2026-05-02T06:02:41Z</time></trkpt><trkpt lat="43.78985654558707" lon="11.598729871350642"><ele>1035.0</ele><time>2026-05-02T06:02:43Z</time></trkpt><trkpt lat="43.789921130496104" lon="11.598709242254374"><ele>1032.5</ele><time>2026-05-02T06:02:44Z</time></trkpt><trkpt lat="43.78994131848326" lon="11.59862547237714"><ele>1030.0</ele><time>2026-05-02T06:02:45Z</time></trkpt><trkpt lat="43.7900114898705" lon="11.59853842502433"><ele>1027.5</ele><time>2026-05-02T06:02:47Z</time></trkpt><trkpt lat="43.7900589474308" lon="11.598471282107244"><ele>1025.0</ele><time>2026-05-02T06:02:48Z</time></trkpt><trkpt lat="43.790122568565224" lon="11.598451215198477"><ele>1022.5</ele><time>2026-05-02T06:02:49Z</time></trkpt><trkpt lat="43.790189347402965" lon="11.5984673083618"><ele>1020.0</ele><time>2026-05-02T06:02:50Z</time></trkpt><trkpt lat="43.790288148528354" lon="11.59851659403065"><ele>1020.0</ele><time>2026-05-02T06:02:52Z</time></trkpt><trkpt lat="43.79033989131674" lon="11.59860192483519"><ele>1020.0</ele><time>2026-05-02T06:02:53Z</time></trkpt><trkpt lat="43.79040467530603" lon="11.598754320459735"><ele>1020.0</ele><time>2026-05-02T06:02:55Z</time></trkpt><trkpt lat="43.79045570657176" lon="11.59884166096651"><ele>1020.0</ele><time>2026-05-02T06:02:56Z</time></trkpt><trkpt lat="43.79050543534669" lon="11.598926279478658"><ele>1020.0</ele><time>2026-05-02T06:02:58Z</time></trkpt><trkpt lat="43.79060495294818" lon="11.598892145604571"><ele>1020.0</ele><time>2026-05-02T06:03:00Z</time></trkpt><trkpt lat="43.79065144595924" lon="11.598823598030535"><ele>1020.0</ele><time>2026-05-02T06:03:01Z</time></trkpt><trkpt lat="43.790690701494675" lon="11.598730530580953"><ele>1020.0</ele><time>2026-05-02T06:03:02Z</time></trkpt><trkpt lat="43.790709019758935" lon="11.598616065407796"><ele>1020.0</ele><time>2026-05-02T06:03:03Z</time></trkpt><trkpt lat="43.79074210198216" lon="11.598503039709936"><ele>1020.0</ele><time>2026-05-02T06:03:04Z</time></trkpt><trkpt lat="43.79077646511501" lon="11.598421449544775"><ele>1020.0</ele><time>2026-05-02T06:03:05Z</time></trkpt><trkpt lat="43.790813623431866" lon="11.598348185073085"><ele>1020.0</ele><time>2026-05-02T06:03:06Z</time></trkpt><trkpt lat="43.79086435322648" lon="11.598235657721037"><ele>1020.0</ele><time>2026-05-02T06:03:08Z</time></trkpt><trkpt lat="43.79091387612555" lon="11.59809520976181"><ele>1020.0</ele><time>2026-05-02T06:03:10Z</time></trkpt><trkpt lat="43.790995124047754" lon="11.59802726920561"><ele>1020.0</ele><time>2026-05-02T06:03:12Z</time></trkpt><trkpt lat="43.79104235028962" lon="11.597968829745911"><ele>1020.0</ele><time>2026-05-02T06:03:13Z</time></trkpt><trkpt lat="43.79111343251945" lon="11.597882106622478"><ele>1020.8</ele><time>2026-05-02T06:03:15Z</time></trkpt><trkpt lat="43.79119319826572" lon="11.597858718595266"><ele>1021.6</ele><time>2026-05-02T06:03:16Z</time></trkpt><trkpt lat="43.79130157444604" lon="11.597820275297792"><ele>1022.4000000000001</ele><time>2026-05-02T06:03:18Z</time></trkpt><trkpt lat="43.791370803090416" lon="11.597846414537303"><ele>1023.2</ele><time>2026-05-02T06:03:19Z</time></trkpt><trkpt lat="43.791441844437195" lon="11.597880285386111"><ele>1024.0</ele><time>2026-05-02T06:03:20Z</time></trkpt><trkpt lat="43.791551103153566" lon="11.597997968321254"><ele>1024.0</ele><time>2026-05-02T06:03:22Z</time></trkpt><trkpt lat="43.79159586906456" lon="11.598083790926186"><ele>1024.0</ele><time>2026-05-02T06:03:23Z</time></trkpt><trkpt lat="43.79164339136818" lon="11.598199746999883"><ele>1024.0</ele><time>2026-05-02T06:03:25Z</time></trkpt><trkpt lat="43.79167269696416" lon="11.598292127993878"><ele>1024.0</ele><time>2026-05-02T06:03:27Z</time></trkpt><trkpt lat="43.791691092488875" lon="11.59848437161772"><ele>1024.0</ele><time>2026-05-02T06:03:29Z</time></trkpt><trkpt lat="43.79168914791239" lon="11.598587552891543"><ele>1026.6000000000001</ele><time>2026-05-02T06:03:30Z</time></trkpt><trkpt lat="43.7916579980812" lon="11.598692882032672"><ele>1029.2</ele><time>2026-05-02T06:03:31Z</time></trkpt><trkpt lat="43.79165791924924" lon="11.598841759937475"><ele>1031.8000000000002</ele><time>2026-05-02T06:03:33Z</time></trkpt><trkpt lat="43.791704388530526" lon="11.598962087385026"><ele>1034.4</ele><time>2026-05-02T06:03:35Z</time></trkpt><trkpt lat="43.79175050691172" lon="11.599080685050424"><ele>1037.0</ele><time>2026-05-02T06:03:37Z</time></trkpt><trkpt lat="43.79177015121803" lon="11.599186225324807"><ele>1034.0</ele><time>2026-05-02T06:03:40Z</time></trkpt><trkpt lat="43.79188120201302" lon="11.599184814485687"><ele>1031.0</ele><time>2026-05-02T06:03:42Z</time></trkpt><trkpt lat="43.7919887856108" lon="11.599136706242366"><ele>1028.0</ele><time>2026-05-02T06:03:44Z</time></trkpt><trkpt lat="43.792108829753" lon="11.599130869669972"><ele>1025.0</ele><time>2026-05-02T06:03:46Z</time></trkpt><trkpt lat="43.792225276201926" lon="11.59915003550718"><ele>1025.0</ele><time>2026-05-02T06:03:48Z</time></trkpt><trkpt lat="43.792334627057144" lon="11.599175150969142"><ele>1025.0</ele><time>2026-05-02T06:03:50Z</time></trkpt><trkpt lat="43.79246241749934" lon="11.599301018259249"><ele>1025.0</ele><time>2026-05-02T06:03:52Z</time></trkpt><trkpt lat="43.792558652313666" lon="11.599392561556195"><ele>1025.0</ele><time>2026-05-02T06:03:53Z</time></trkpt><trkpt lat="43.79261806701221" lon="11.599458183663698"><ele>1022.5000000000001</ele><time>2026-05-02T06:03:54Z</time></trkpt><trkpt lat="43.79266058452234" lon="11.59954136510245"><ele>1020.0</ele><time>2026-05-02T06:03:55Z</time></trkpt><trkpt lat="43.7927142632772" lon="11.599693895471122"><ele>1017.5</ele><time>2026-05-02T06:03:57Z</time></trkpt><trkpt lat="43.7927381788259" lon="11.599805057309183"><ele>1015.0</ele><time>2026-05-02T06:03:58Z</time></trkpt><trkpt lat="43.79276619453813" lon="11.599895759901665"><ele>1012.5000000000001</ele><time>2026-05-02T06:03:59Z</time></trkpt><trkpt lat="43.79283122672444" lon="11.59997558579329"><ele>1010.0</ele><time>2026-05-02T06:04:00Z</time></trkpt><trkpt lat="43.79285287699656" lon="11.600060049015418"><ele>1010.0</ele><time>2026-05-02T06:04:01Z</time></trkpt><trkpt lat="43.79288309186549" lon="11.600179988655842"><ele>1010.0</ele><time>2026-05-02T06:04:02Z</time></trkpt><trkpt lat="43.79294289450355" lon="11.600287639364613"><ele>1010.0</ele><time>2026-05-02T06:04:03Z</time></trkpt><trkpt lat="43.79300208336371" lon="11.600409881057791"><ele>1010.0</ele><time>2026-05-02T06:04:04Z</time></trkpt><trkpt lat="43.79307800057608" lon="11.600526204141948"><ele>1010.0</ele><time>2026-05-02T06:04:05Z</time></trkpt><trkpt lat="43.79313557684206" lon="11.60064522026465"><ele>1013.4</ele><time>2026-05-02T06:04:06Z</time></trkpt><trkpt lat="43.79317076477266" lon="11.600751972425183"><ele>1016.8</ele><time>2026-05-02T06:04:07Z</time></trkpt><trkpt lat="43.793218222808285" lon="11.600866280224901"><ele>1020.2</ele><time>2026-05-02T06:04:08Z</time></trkpt><trkpt lat="43.79327317522822" lon="11.600981287669393"><ele>1023.6</ele><time>2026-05-02T06:04:09Z</time></trkpt><trkpt lat="43.79333841452913" lon="11.60108065177569"><ele>1027.0</ele><time>2026-05-02T06:04:10Z</time></trkpt><trkpt lat="43.79340831891284" lon="11.601172419822062"><ele>1026.0</ele><time>2026-05-02T06:04:11Z</time></trkpt><trkpt lat="43.793488057539165" lon="11.60125344108277"><ele>1025.0</ele><time>2026-05-02T06:04:12Z</time></trkpt><trkpt lat="43.79357039510618" lon="11.601307129981212"><ele>1024.0</ele><time>2026-05-02T06:04:13Z</time></trkpt><trkpt lat="43.793656076639124" lon="11.601339318581314"><ele>1023.0</ele><time>2026-05-02T06:04:14Z</time></trkpt><trkpt lat="43.79373758859769" lon="11.601336027886484"><ele>1021.9999999999999</ele><time>2026-05-02T06:04:15Z</time></trkpt><trkpt lat="43.79381976929215" lon="11.601323575910813"><ele>1021.0</ele><time>2026-05-02T06:04:16Z</time></trkpt><trkpt lat="43.79389176917907" lon="11.601311791046928"><ele>1021.0</ele><time>2026-05-02T06:04:17Z</time></trkpt><trkpt lat="43.7939667502767" lon="11.601338827488961"><ele>1020.9999999999999</ele><time>2026-05-02T06:04:18Z</time></trkpt><trkpt lat="43.794040684749156" lon="11.601393113938233"><ele>1020.9999999999999</ele><time>2026-05-02T06:04:19Z</time></trkpt><trkpt lat="43.79409192514977" lon="11.601493537531196"><ele>1021.0</ele><time>2026-05-02T06:04:20Z</time></trkpt><trkpt lat="43.79414392677708" lon="11.601607175444073"><ele>1021.0</ele><time>2026-05-02T06:04:21Z</time></trkpt><trkpt lat="43.794213828066326" lon="11.601721285054847"><ele>1021.0</ele><time>2026-05-02T06:04:22Z</time></trkpt><trkpt lat="43.7942674373694" lon="11.601829711318759"><ele>1020.9999999999999</ele><time>2026-05-02T06:04:23Z</time></trkpt><trkpt lat="43.794330704210644" lon="11.601920242320809"><ele>1020.9999999999999</ele><time>2026-05-02T06:04:24Z</time></trkpt><trkpt lat="43.79438238024176" lon="11.60200191238415"><ele>1021.0</ele><time>2026-05-02T06:04:25Z</time></trkpt><trkpt lat="43.79444699635402" lon="11.602123238827875"><ele>1021.0</ele><time>2026-05-02T06:04:27Z</time></trkpt><trkpt lat="43.79451446701494" lon="11.602178533904967"><ele>1017.1999999999999</ele><time>2026-05-02T06:04:29Z</time></trkpt><trkpt lat="43.79458334731147" lon="11.602260008719597"><ele>1013.3999999999999</ele><time>2026-05-02T06:04:32Z</time></trkpt><trkpt lat="43.79457887169477" lon="11.602352379034688"><ele>1009.6</ele><time>2026-05-02T06:04:34Z</time></trkpt><trkpt lat="43.79463396813872" lon="11.602429200601197"><ele>1005.8</ele><time>2026-05-02T06:04:36Z</time></trkpt><trkpt lat="43.79472722378669" lon="11.602541064216044"><ele>1002.0</ele><time>2026-05-02T06:04:38Z</time></trkpt><trkpt lat="43.794815466465025" lon="11.602584617490159"><ele>1002.0</ele><time>2026-05-02T06:04:40Z</time></trkpt><trkpt lat="43.794898077238884" lon="11.602682591886772"><ele>1002.0</ele><time>2026-05-02T06:04:42Z</time></trkpt><trkpt lat="43.79495633592002" lon="11.602754406771059"><ele>1002.0</ele><time>2026-05-02T06:04:44Z</time></trkpt><trkpt lat="43.795055828707575" lon="11.602783602721994"><ele>1002.0</ele><time>2026-05-02T06:04:45Z</time></trkpt><trkpt lat="43.795170099012815" lon="11.602807522089357"><ele>1002.0</ele><time>2026-05-02T06:04:47Z</time></trkpt><trkpt lat="43.795233905953324" lon="11.602785048404353"><ele>1000.5</ele><time>2026-05-02T06:04:48Z</time></trkpt><trkpt lat="43.79533329526719" lon="11.602828711411691"><ele>999.0</ele><time>2026-05-02T06:04:50Z</time></trkpt><trkpt lat="43.79538277970136" lon="11.602890213950113"><ele>997.5</ele><time>2026-05-02T06:04:51Z</time></trkpt><trkpt lat="43.795439095995356" lon="11.602997040228463"><ele>996.0</ele><time>2026-05-02T06:04:52Z</time></trkpt><trkpt lat="43.795485421221684" lon="11.603085755001027"><ele>994.5</ele><time>2026-05-02T06:04:53Z</time></trkpt><trkpt lat="43.795550600214305" lon="11.60318687142246"><ele>993.0</ele><time>2026-05-02T06:04:54Z</time></trkpt><trkpt lat="43.79562637405013" lon="11.603277368861642"><ele>993.0</ele><time>2026-05-02T06:04:55Z</time></trkpt><trkpt lat="43.79571160441141" lon="11.603363276756175"><ele>993.0</ele><time>2026-05-02T06:04:56Z</time></trkpt><trkpt lat="43.79576456189954" lon="11.60341512009616"><ele>993.0</ele><time>2026-05-02T06:04:57Z</time></trkpt><trkpt lat="43.79583315444647" lon="11.603480687295548"><ele>993.0</ele><time>2026-05-02T06:04:58Z</time></trkpt><trkpt lat="43.795935285365" lon="11.603524807092612"><ele>993.0</ele><time>2026-05-02T06:04:59Z</time></trkpt><trkpt lat="43.79601493721088" lon="11.603568936498576"><ele>993.0</ele><time>2026-05-02T06:05:00Z</time></trkpt><trkpt lat="43.79609179371735" lon="11.603600047121509"><ele>991.4</ele><time>2026-05-02T06:05:01Z</time></trkpt><trkpt lat="43.79622033903022" lon="11.60358277601181"><ele>989.8</ele><time>2026-05-02T06:05:03Z</time></trkpt><trkpt lat="43.79628257796794" lon="11.60354559275212"><ele>988.2</ele><time>2026-05-02T06:05:04Z</time></trkpt><trkpt lat="43.79638416882251" lon="11.603444329109744"><ele>986.6</ele><time>2026-05-02T06:05:05Z</time></trkpt><trkpt lat="43.79646098663493" lon="11.603388070212093"><ele>985.0</ele><time>2026-05-02T06:05:06Z</time></trkpt><trkpt lat="43.79654447570684" lon="11.603368605497895"><ele>984.9999999999999</ele><time>2026-05-02T06:05:07Z</time></trkpt><trkpt lat="43.79662843055625" lon="11.603358618220698"><ele>985.0</ele><time>2026-05-02T06:05:08Z</time></trkpt><trkpt lat="43.796711458688264" lon="11.603324455034427"><ele>985.0</ele><time>2026-05-02T06:05:09Z</time></trkpt><trkpt lat="43.79679139164458" lon="11.603269947632374"><ele>985.0</ele><time>2026-05-02T06:05:10Z</time></trkpt><trkpt lat="43.79686952253497" lon="11.603245045177637"><ele>984.9999999999999</ele><time>2026-05-02T06:05:11Z</time></trkpt><trkpt lat="43.796948995009004" lon="11.603229745771635"><ele>985.0</ele><time>2026-05-02T06:05:12Z</time></trkpt><trkpt lat="43.79701488114523" lon="11.60323639089866"><ele>984.6</ele><time>2026-05-02T06:05:13Z</time></trkpt><trkpt lat="43.79708553203096" lon="11.60326839414122"><ele>984.2</ele><time>2026-05-02T06:05:14Z</time></trkpt><trkpt lat="43.7971538066784" lon="11.603306988837119"><ele>983.8</ele><time>2026-05-02T06:05:15Z</time></trkpt><trkpt lat="43.79721619984256" lon="11.603327852724911"><ele>983.4</ele><time>2026-05-02T06:05:16Z</time></trkpt><trkpt lat="43.79733399378111" lon="11.603356789114981"><ele>983.0</ele><time>2026-05-02T06:05:18Z</time></trkpt><trkpt lat="43.797456206203364" lon="11.603325491406974"><ele>983.0000000000001</ele><time>2026-05-02T06:05:20Z</time></trkpt><trkpt lat="43.7975311536629" lon="11.60327736201838"><ele>983.0</ele><time>2026-05-02T06:05:21Z</time></trkpt><trkpt lat="43.797602913155764" lon="11.603220637324409"><ele>983.0</ele><time>2026-05-02T06:05:22Z</time></trkpt><trkpt lat="43.79767161867555" lon="11.60318397561756"><ele>983.0</ele><time>2026-05-02T06:05:23Z</time></trkpt><trkpt lat="43.79759101673989" lon="11.603239790701945"><ele>983.0000000000001</ele><time>2026-05-02T06:05:30Z</time></trkpt><trkpt lat="43.797494229003746" lon="11.603290558082746"><ele>983.0</ele><time>2026-05-02T06:05:32Z</time></trkpt><trkpt lat="43.7974546511162" lon="11.603373983595697"><ele>983.0</ele><time>2026-05-02T06:05:34Z</time></trkpt><trkpt lat="43.79742502933149" lon="11.603477609643713"><ele>983.0</ele><time>2026-05-02T06:05:50Z</time></trkpt><trkpt lat="43.79734571556987" lon="11.603529634152425"><ele>983.0</ele><time>2026-05-02T06:05:53Z</time></trkpt><trkpt lat="43.79768136133614" lon="11.6031616264494"><ele>981.0</ele><time>2026-05-02T06:05:54Z</time></trkpt><trkpt lat="43.79742589305258" lon="11.60384993192464"><ele>981.0</ele><time>2026-05-02T06:05:55Z</time></trkpt><trkpt lat="43.79742006275835" lon="11.603969345773871"><ele>980.9999999999999</ele><time>2026-05-02T06:05:56Z</time></trkpt><trkpt lat="43.797410836624636" lon="11.604091732007905"><ele>980.9999999999999</ele><time>2026-05-02T06:05:57Z</time></trkpt><trkpt lat="43.79739082255965" lon="11.604210948924084"><ele>981.0</ele><time>2026-05-02T06:05:58Z</time></trkpt><trkpt lat="43.79735573248669" lon="11.604341663680879"><ele>981.0</ele><time>2026-05-02T06:05:59Z</time></trkpt><trkpt lat="43.797311843974256" lon="11.604470432143252"><ele>979.4</ele><time>2026-05-02T06:06:00Z</time></trkpt><trkpt lat="43.79727638557569" lon="11.604602487764527"><ele>977.8</ele><time>2026-05-02T06:06:01Z</time></trkpt><trkpt lat="43.79723185913275" lon="11.604729741195639"><ele>976.1999999999999</ele><time>2026-05-02T06:06:02Z</time></trkpt><trkpt lat="43.7971959198026" lon="11.604848905430403"><ele>974.5999999999999</ele><time>2026-05-02T06:06:03Z</time></trkpt><trkpt lat="43.79716242396546" lon="11.604958524866708"><ele>973.0</ele><time>2026-05-02T06:06:04Z</time></trkpt><trkpt lat="43.797132636721166" lon="11.605056987797163"><ele>973.0</ele><time>2026-05-02T06:06:05Z</time></trkpt><trkpt lat="43.797094758088825" lon="11.605152832318739"><ele>973.0</ele><time>2026-05-02T06:06:06Z</time></trkpt><trkpt lat="43.797038552024446" lon="11.605244236551085"><ele>973.0</ele><time>2026-05-02T06:06:07Z</time></trkpt><trkpt lat="43.79694592161809" lon="11.605277356824246"><ele>973.0</ele><time>2026-05-02T06:06:08Z</time></trkpt><trkpt lat="43.79686207986341" lon="11.605300865911698"><ele>973.0</ele><time>2026-05-02T06:06:09Z</time></trkpt><trkpt lat="43.79675809298318" lon="11.605302997406973"><ele>972.2</ele><time>2026-05-02T06:06:10Z</time></trkpt><trkpt lat="43.796643940895976" lon="11.605318091236484"><ele>971.4</ele><time>2026-05-02T06:06:11Z</time></trkpt><trkpt lat="43.796547718448956" lon="11.605337290971661"><ele>970.6000000000001</ele><time>2026-05-02T06:06:12Z</time></trkpt><trkpt lat="43.79646734045132" lon="11.60535332918416"><ele>969.8000000000001</ele><time>2026-05-02T06:06:13Z</time></trkpt><trkpt lat="43.79637498358772" lon="11.605392520651199"><ele>969.0</ele><time>2026-05-02T06:06:15Z</time></trkpt><trkpt lat="43.79630193060127" lon="11.60540167836665"><ele>969.0</ele><time>2026-05-02T06:06:17Z</time></trkpt><trkpt lat="43.79623341333835" lon="11.605392386627875"><ele>969.0</ele><time>2026-05-02T06:06:20Z</time></trkpt><trkpt lat="43.796335554576544" lon="11.60539597134733"><ele>969.0</ele><time>2026-05-02T06:06:30Z</time></trkpt><trkpt lat="43.79640411925251" lon="11.605371783059894"><ele>969.0</ele><time>2026-05-02T06:06:31Z</time></trkpt><trkpt lat="43.79648098634413" lon="11.605359833593052"><ele>969.0</ele><time>2026-05-02T06:06:32Z</time></trkpt><trkpt lat="43.79658360005133" lon="11.605343498028125"><ele>969.0</ele><time>2026-05-02T06:06:33Z</time></trkpt><trkpt lat="43.79667887200003" lon="11.605359947115776"><ele>968.9999999999999</ele><time>2026-05-02T06:06:34Z</time></trkpt><trkpt lat="43.796748805836096" lon="11.60533873113926"><ele>969.0</ele><time>2026-05-02T06:06:35Z</time></trkpt><trkpt lat="43.79682404093153" lon="11.605335094358933"><ele>968.9999999999999</ele><time>2026-05-02T06:06:36Z</time></trkpt><trkpt lat="43.79690094863715" lon="11.60533064881151"><ele>968.9999999999999</ele><time>2026-05-02T06:06:37Z</time></trkpt><trkpt lat="43.796976532449605" lon="11.605310676239203"><ele>969.0</ele><time>2026-05-02T06:06:38Z</time></trkpt><trkpt lat="43.797033165540256" lon="11.605266229279634"><ele>968.9999999999999</ele><time>2026-05-02T06:06:39Z</time></trkpt><trkpt lat="43.797077880765045" lon="11.605202205002813"><ele>968.9999999999999</ele><time>2026-05-02T06:06:40Z</time></trkpt><trkpt lat="43.79711184211692" lon="11.605121881637196"><ele>969.8000000000001</ele><time>2026-05-02T06:06:41Z</time></trkpt><trkpt lat="43.79714629328475" lon="11.605018048107164"><ele>970.6000000000001</ele><time>2026-05-02T06:06:42Z</time></trkpt><trkpt lat="43.7971793974673" lon="11.604890712571164"><ele>971.4</ele><time>2026-05-02T06:06:43Z</time></trkpt><trkpt lat="43.797228988691714" lon="11.604779006686497"><ele>972.2</ele><time>2026-05-02T06:06:44Z</time></trkpt><trkpt lat="43.79724917916234" lon="11.604656429831667"><ele>973.0</ele><time>2026-05-02T06:06:45Z</time></trkpt><trkpt lat="43.797291619123335" lon="11.604551702447406"><ele>974.3333333333333</ele><time>2026-05-02T06:06:46Z</time></trkpt><trkpt lat="43.79731624271862" lon="11.604441502753478"><ele>975.6666666666666</ele><time>2026-05-02T06:06:47Z</time></trkpt><trkpt lat="43.79734068917757" lon="11.604345254938043"><ele>977.0</ele><time>2026-05-02T06:06:48Z</time></trkpt><trkpt lat="43.797365225574104" lon="11.604252035297629"><ele>978.3333333333333</ele><time>2026-05-02T06:06:49Z</time></trkpt><trkpt lat="43.797409199741764" lon="11.604082491592079"><ele>979.6666666666666</ele><time>2026-05-02T06:06:51Z</time></trkpt><trkpt lat="43.79741942498345" lon="11.603991538424163"><ele>981.0</ele><time>2026-05-02T06:06:52Z</time></trkpt><trkpt lat="43.79742509377813" lon="11.603888451067748"><ele>981.0</ele><time>2026-05-02T06:06:53Z</time></trkpt><trkpt lat="43.797431172258804" lon="11.603794368988138"><ele>981.0</ele><time>2026-05-02T06:06:54Z</time></trkpt><trkpt lat="43.797423461473215" lon="11.60370543981587"><ele>981.0</ele><time>2026-05-02T06:06:55Z</time></trkpt><trkpt lat="43.79742282630918" lon="11.603610621950574"><ele>981.0</ele><time>2026-05-02T06:06:56Z</time></trkpt><trkpt lat="43.797434863166835" lon="11.603459312013415"><ele>981.0</ele><time>2026-05-02T06:06:58Z</time></trkpt><trkpt lat="43.79749330023446" lon="11.603314928686203"><ele>981.0</ele><time>2026-05-02T06:07:00Z</time></trkpt><trkpt lat="43.79754218700356" lon="11.603252333627136"><ele>981.2857142857143</ele><time>2026-05-02T06:07:01Z</time></trkpt><trkpt lat="43.797608722807695" lon="11.603210676091242"><ele>981.5714285714284</ele><time>2026-05-02T06:07:02Z</time></trkpt><trkpt lat="43.79768315114333" lon="11.603185909635668"><ele>981.8571428571428</ele><time>2026-05-02T06:07:03Z</time></trkpt><trkpt lat="43.79774979518702" lon="11.603187757098018"><ele>982.1428571428571</ele><time>2026-05-02T06:07:04Z</time></trkpt><trkpt lat="43.79780266379994" lon="11.60324472451342"><ele>982.4285714285713</ele><time>2026-05-02T06:07:07Z</time></trkpt><trkpt lat="43.797730389625066" lon="11.603199740804161"><ele>982.7142857142856</ele><time>2026-05-02T06:07:18Z</time></trkpt><trkpt lat="43.79765876018719" lon="11.603181588128235"><ele>982.9999999999999</ele><time>2026-05-02T06:07:19Z</time></trkpt><trkpt lat="43.79756047960841" lon="11.60324546164546"><ele>983.0000000000001</ele><time>2026-05-02T06:07:21Z</time></trkpt><trkpt lat="43.7975017853718" lon="11.60329187727551"><ele>983.0</ele><time>2026-05-02T06:07:24Z</time></trkpt><trkpt lat="43.797473855674205" lon="11.603389187231313"><ele>983.0</ele><time>2026-05-02T06:07:27Z</time></trkpt><trkpt lat="43.79752775348029" lon="11.603474856432557"><ele>983.0</ele><time>2026-05-02T06:07:29Z</time></trkpt><trkpt lat="43.797599203511055" lon="11.603578925842154"><ele>983.0000000000001</ele><time>2026-05-02T06:07:31Z</time></trkpt><trkpt lat="43.797621785238796" lon="11.60371033302327"><ele>983.0</ele><time>2026-05-02T06:07:33Z</time></trkpt><trkpt lat="43.797673048549605" lon="11.603841394237152"><ele>983.1666666666667</ele><time>2026-05-02T06:07:35Z</time></trkpt><trkpt lat="43.79771483648076" lon="11.603910847943837"><ele>983.3333333333334</ele><time>2026-05-02T06:07:36Z</time></trkpt><trkpt lat="43.797753633406714" lon="11.604012880896564"><ele>983.5</ele><time>2026-05-02T06:07:38Z</time></trkpt><trkpt lat="43.7977934207192" lon="11.604086378835907"><ele>983.6666666666667</ele><time>2026-05-02T06:07:39Z</time></trkpt><trkpt lat="43.797826932520294" lon="11.604184042933072"><ele>983.8333333333334</ele><time>2026-05-02T06:07:40Z</time></trkpt><trkpt lat="43.79787503413929" lon="11.604322520830195"><ele>984.0</ele><time>2026-05-02T06:07:42Z</time></trkpt><trkpt lat="43.79784851516913" lon="11.60447347525579"><ele>981.5</ele><time>2026-05-02T06:07:44Z</time></trkpt><trkpt lat="43.79784460182445" lon="11.604605205259563"><ele>979.0</ele><time>2026-05-02T06:07:46Z</time></trkpt><trkpt lat="43.79784233402974" lon="11.604747003632141"><ele>976.5</ele><time>2026-05-02T06:07:49Z</time></trkpt><trkpt lat="43.79786877371301" lon="11.604874852851877"><ele>974.0</ele><time>2026-05-02T06:07:51Z</time></trkpt><trkpt lat="43.79791929138422" lon="11.604967421349233"><ele>971.5</ele><time>2026-05-02T06:07:53Z</time></trkpt><trkpt lat="43.797943130176755" lon="11.605056840943739"><ele>969.0</ele><time>2026-05-02T06:07:54Z</time></trkpt><trkpt lat="43.79798318860587" lon="11.60516294787747"><ele>969.0</ele><time>2026-05-02T06:07:56Z</time></trkpt><trkpt lat="43.79798912038418" lon="11.605278398349864"><ele>969.0</ele><time>2026-05-02T06:07:59Z</time></trkpt><trkpt lat="43.79796943781252" lon="11.605366946429857"><ele>969.0</ele><time>2026-05-02T06:08:01Z</time></trkpt><trkpt lat="43.79801083225714" lon="11.605449722192366"><ele>969.0</ele><time>2026-05-02T06:08:04Z</time></trkpt><trkpt lat="43.79807793513115" lon="11.605513122487068"><ele>969.0</ele><time>2026-05-02T06:08:07Z</time></trkpt><trkpt lat="43.79814451178165" lon="11.60555248040117"><ele>969.0</ele><time>2026-05-02T06:08:10Z</time></trkpt><trkpt lat="43.798216715881935" lon="11.605576947261023"><ele>969.5</ele><time>2026-05-02T06:08:12Z</time></trkpt><trkpt lat="43.79830994228989" lon="11.605586016887024"><ele>970.0</ele><time>2026-05-02T06:08:14Z</time></trkpt><trkpt lat="43.798398682828896" lon="11.605598825198008"><ele>970.5</ele><time>2026-05-02T06:08:16Z</time></trkpt><trkpt lat="43.79845038514792" lon="11.60568386866444"><ele>971.0</ele><time>2026-05-02T06:08:18Z</time></trkpt><trkpt lat="43.79850021186651" lon="11.605809430268227"><ele>971.5</ele><time>2026-05-02T06:08:20Z</time></trkpt><trkpt lat="43.79854198108441" lon="11.605879327810499"><ele>972.0</ele><time>2026-05-02T06:08:21Z</time></trkpt><trkpt lat="43.79858295614391" lon="11.606013158037813"><ele>972.0</ele><time>2026-05-02T06:08:23Z</time></trkpt><trkpt lat="43.79861319114478" lon="11.606143739146049"><ele>972.0</ele><time>2026-05-02T06:08:25Z</time></trkpt><trkpt lat="43.7986450183508" lon="11.60622143201193"><ele>972.0</ele><time>2026-05-02T06:08:26Z</time></trkpt><trkpt lat="43.798701217791944" lon="11.606376470401946"><ele>972.0</ele><time>2026-05-02T06:08:28Z</time></trkpt><trkpt lat="43.79874568218833" lon="11.606508871258974"><ele>972.0</ele><time>2026-05-02T06:08:30Z</time></trkpt><trkpt lat="43.798809956697966" lon="11.606612139222484"><ele>966.8</ele><time>2026-05-02T06:08:32Z</time></trkpt><trkpt lat="43.79883200968241" lon="11.606702287780339"><ele>961.6</ele><time>2026-05-02T06:08:33Z</time></trkpt><trkpt lat="43.79885231562947" lon="11.606845979260635"><ele>956.3999999999999</ele><time>2026-05-02T06:08:35Z</time></trkpt><trkpt lat="43.798798248142795" lon="11.606983066660042"><ele>951.1999999999999</ele><time>2026-05-02T06:08:37Z</time></trkpt><trkpt lat="43.79871305463264" lon="11.607119230269333"><ele>946.0</ele><time>2026-05-02T06:08:39Z</time></trkpt><trkpt lat="43.79868438542945" lon="11.607197605607567"><ele>942.4999999999999</ele><time>2026-05-02T06:08:40Z</time></trkpt><trkpt lat="43.798632828346825" lon="11.607350546870654"><ele>939.0</ele><time>2026-05-02T06:08:42Z</time></trkpt><trkpt lat="43.798558019258834" lon="11.607380103913165"><ele>935.5</ele><time>2026-05-02T06:08:44Z</time></trkpt><trkpt lat="43.79849019198651" lon="11.60741508068923"><ele>932.0</ele><time>2026-05-02T06:08:46Z</time></trkpt><trkpt lat="43.79843469643977" lon="11.607495878883102"><ele>928.4999999999999</ele><time>2026-05-02T06:08:48Z</time></trkpt><trkpt lat="43.798403904371014" lon="11.607581726886087"><ele>925.0</ele><time>2026-05-02T06:08:50Z</time></trkpt><trkpt lat="43.798359470760914" lon="11.607653198582902"><ele>925.0</ele><time>2026-05-02T06:08:52Z</time></trkpt><trkpt lat="43.79829697626559" lon="11.607738847549088"><ele>925.0</ele><time>2026-05-02T06:08:54Z</time></trkpt><trkpt lat="43.79822359984673" lon="11.607852364912697"><ele>925.0</ele><time>2026-05-02T06:08:56Z</time></trkpt><trkpt lat="43.798149344885864" lon="11.607952707412114"><ele>925.0</ele><time>2026-05-02T06:08:58Z</time></trkpt><trkpt lat="43.79809026835756" lon="11.608034035167469"><ele>925.0</ele><time>2026-05-02T06:09:00Z</time></trkpt><trkpt lat="43.79804217484953" lon="11.608124331680262"><ele>923.0</ele><time>2026-05-02T06:09:02Z</time></trkpt><trkpt lat="43.79800276991185" lon="11.608226597029656"><ele>921.0</ele><time>2026-05-02T06:09:04Z</time></trkpt><trkpt lat="43.7979273977189" lon="11.608299890260554"><ele>919.0</ele><time>2026-05-02T06:09:06Z</time></trkpt><trkpt lat="43.797857264804534" lon="11.608394200570709"><ele>917.0</ele><time>2026-05-02T06:09:08Z</time></trkpt><trkpt lat="43.79778526927586" lon="11.608504097203248"><ele>915.0</ele><time>2026-05-02T06:09:10Z</time></trkpt><trkpt lat="43.79772049976391" lon="11.608608222042708"><ele>912.8</ele><time>2026-05-02T06:09:12Z</time></trkpt><trkpt lat="43.79771135639993" lon="11.608739141039328"><ele>910.6</ele><time>2026-05-02T06:09:14Z</time></trkpt><trkpt lat="43.797765283083365" lon="11.608859434609167"><ele>908.4000000000001</ele><time>2026-05-02T06:09:16Z</time></trkpt><trkpt lat="43.79785920675549" lon="11.608966440339229"><ele>906.2</ele><time>2026-05-02T06:09:18Z</time></trkpt><trkpt lat="43.79792505416888" lon="11.609098688364545"><ele>904.0</ele><time>2026-05-02T06:09:20Z</time></trkpt><trkpt lat="43.79796096057116" lon="11.609203474175347"><ele>904.0</ele><time>2026-05-02T06:09:22Z</time></trkpt><trkpt lat="43.79800223772479" lon="11.609282437264492"><ele>904.0</ele><time>2026-05-02T06:09:26Z</time></trkpt><trkpt lat="43.7980782872048" lon="11.60931285570709"><ele>904.0</ele><time>2026-05-02T06:09:28Z</time></trkpt><trkpt lat="43.798148314218906" lon="11.609279327496322"><ele>904.0</ele><time>2026-05-02T06:09:29Z</time></trkpt><trkpt lat="43.79822178195718" lon="11.609255895512206"><ele>904.0</ele><time>2026-05-02T06:09:30Z</time></trkpt><trkpt lat="43.79828822838657" lon="11.609243499784212"><ele>904.0</ele><time>2026-05-02T06:09:31Z</time></trkpt><trkpt lat="43.79836761339621" lon="11.609234886113551"><ele>904.0</ele><time>2026-05-02T06:09:32Z</time></trkpt><trkpt lat="43.79844615391522" lon="11.6092204706532"><ele>903.4999999999999</ele><time>2026-05-02T06:09:33Z</time></trkpt><trkpt lat="43.79852329219916" lon="11.609208797964344"><ele>903.0</ele><time>2026-05-02T06:09:34Z</time></trkpt><trkpt lat="43.79860576466842" lon="11.609195092999252"><ele>902.5</ele><time>2026-05-02T06:09:35Z</time></trkpt><trkpt lat="43.79868478685888" lon="11.609187175107929"><ele>902.0</ele><time>2026-05-02T06:09:36Z</time></trkpt><trkpt lat="43.79876169057929" lon="11.609181900978504"><ele>901.4999999999999</ele><time>2026-05-02T06:09:37Z</time></trkpt><trkpt lat="43.79883133906346" lon="11.609196164522844"><ele>901.0</ele><time>2026-05-02T06:09:38Z</time></trkpt><trkpt lat="43.79894667401808" lon="11.609292235910834"><ele>901.0</ele><time>2026-05-02T06:09:40Z</time></trkpt><trkpt lat="43.798987400037916" lon="11.609391996023904"><ele>900.9999999999999</ele><time>2026-05-02T06:09:41Z</time></trkpt><trkpt lat="43.798993567789324" lon="11.609517980777547"><ele>900.9999999999999</ele><time>2026-05-02T06:09:42Z</time></trkpt><trkpt lat="43.798999754201866" lon="11.609648434961981"><ele>901.0</ele><time>2026-05-02T06:09:43Z</time></trkpt><trkpt lat="43.799019098860526" lon="11.609784810063143"><ele>901.0</ele><time>2026-05-02T06:09:44Z</time></trkpt><trkpt lat="43.79902004423306" lon="11.609930255007987"><ele>899.8333333333333</ele><time>2026-05-02T06:09:45Z</time></trkpt><trkpt lat="43.799022539478386" lon="11.610048500115031"><ele>898.6666666666666</ele><time>2026-05-02T06:09:46Z</time></trkpt><trkpt lat="43.79902374527089" lon="11.610164717072228"><ele>897.5</ele><time>2026-05-02T06:09:47Z</time></trkpt><trkpt lat="43.79901744787525" lon="11.610269300100137"><ele>896.3333333333333</ele><time>2026-05-02T06:09:48Z</time></trkpt><trkpt lat="43.7990297782025" lon="11.61036187963587"><ele>895.1666666666666</ele><time>2026-05-02T06:09:49Z</time></trkpt><trkpt lat="43.79907902063556" lon="11.610450184480953"><ele>894.0</ele><time>2026-05-02T06:09:50Z</time></trkpt><trkpt lat="43.79914115820481" lon="11.610527192217107"><ele>893.2</ele><time>2026-05-02T06:09:51Z</time></trkpt><trkpt lat="43.79921025738229" lon="11.610599068588602"><ele>892.4000000000001</ele><time>2026-05-02T06:09:52Z</time></trkpt><trkpt lat="43.7992734388804" lon="11.610661455190398"><ele>891.6</ele><time>2026-05-02T06:09:53Z</time></trkpt><trkpt lat="43.799363720086575" lon="11.610742603439611"><ele>890.8</ele><time>2026-05-02T06:09:55Z</time></trkpt><trkpt lat="43.79932599823883" lon="11.61089241812455"><ele>890.0</ele><time>2026-05-02T06:09:58Z</time></trkpt><trkpt lat="43.79926022752595" lon="11.610952130325305"><ele>890.0</ele><time>2026-05-02T06:10:00Z</time></trkpt><trkpt lat="43.79919777062336" lon="11.611008041251678"><ele>890.0</ele><time>2026-05-02T06:10:03Z</time></trkpt><trkpt lat="43.799128172358145" lon="11.61109722579174"><ele>890.0</ele><time>2026-05-02T06:10:06Z</time></trkpt><trkpt lat="43.799091208805315" lon="11.611190136070887"><ele>890.0</ele><time>2026-05-02T06:10:08Z</time></trkpt><trkpt lat="43.79903426836031" lon="11.611323647170483"><ele>890.0</ele><time>2026-05-02T06:10:10Z</time></trkpt><trkpt lat="43.798997207621746" lon="11.611476528848982"><ele>888.3333333333334</ele><time>2026-05-02T06:10:12Z</time></trkpt><trkpt lat="43.79897393713808" lon="11.611557896463017"><ele>886.6666666666667</ele><time>2026-05-02T06:10:13Z</time></trkpt><trkpt lat="43.79891177297532" lon="11.611717989280539"><ele>885.0</ele><time>2026-05-02T06:10:15Z</time></trkpt><trkpt lat="43.79884723669884" lon="11.611798389407635"><ele>883.3333333333333</ele><time>2026-05-02T06:10:16Z</time></trkpt><trkpt lat="43.79879910339065" lon="11.611866311923425"><ele>881.6666666666666</ele><time>2026-05-02T06:10:17Z</time></trkpt><trkpt lat="43.798743239862404" lon="11.611944886969289"><ele>880.0</ele><time>2026-05-02T06:10:18Z</time></trkpt><trkpt lat="43.798669918406304" lon="11.612037571736405"><ele>878.4999999999999</ele><time>2026-05-02T06:10:19Z</time></trkpt><trkpt lat="43.79862689952602" lon="11.612125758625924"><ele>877.0</ele><time>2026-05-02T06:10:20Z</time></trkpt><trkpt lat="43.79857975351806" lon="11.612233402533498"><ele>875.5</ele><time>2026-05-02T06:10:21Z</time></trkpt><trkpt lat="43.79856062474325" lon="11.612338068041348"><ele>874.0</ele><time>2026-05-02T06:10:22Z</time></trkpt><trkpt lat="43.798541030676944" lon="11.61245860340703"><ele>872.4999999999999</ele><time>2026-05-02T06:10:23Z</time></trkpt><trkpt lat="43.7985074449103" lon="11.612566706590485"><ele>871.0</ele><time>2026-05-02T06:10:24Z</time></trkpt><trkpt lat="43.798482413425575" lon="11.612663466749932"><ele>870.9999999999999</ele><time>2026-05-02T06:10:25Z</time></trkpt><trkpt lat="43.79845371511295" lon="11.612755341088869"><ele>871.0</ele><time>2026-05-02T06:10:26Z</time></trkpt><trkpt lat="43.798403487228924" lon="11.612842808013712"><ele>871.0</ele><time>2026-05-02T06:10:27Z</time></trkpt><trkpt lat="43.79837914800263" lon="11.61294925274136"><ele>871.0</ele><time>2026-05-02T06:10:28Z</time></trkpt><trkpt lat="43.798348872804866" lon="11.6130355318498"><ele>870.9999999999999</ele><time>2026-05-02T06:10:29Z</time></trkpt><trkpt lat="43.79826966485812" lon="11.613159086213816"><ele>871.0</ele><time>2026-05-02T06:10:31Z</time></trkpt><trkpt lat="43.79831285864438" lon="11.613309522575767"><ele>870.0</ele><time>2026-05-02T06:10:36Z</time></trkpt><trkpt lat="43.798372056922766" lon="11.613345762613571"><ele>868.9999999999999</ele><time>2026-05-02T06:10:37Z</time></trkpt><trkpt lat="43.79844493054209" lon="11.613424564001754"><ele>867.9999999999999</ele><time>2026-05-02T06:10:39Z</time></trkpt><trkpt lat="43.79846706508645" lon="11.61356047252735"><ele>867.0</ele><time>2026-05-02T06:10:41Z</time></trkpt><trkpt lat="43.798429836988326" lon="11.613707985385167"><ele>866.0</ele><time>2026-05-02T06:10:43Z</time></trkpt><trkpt lat="43.798351171220695" lon="11.613826524940864"><ele>864.3333333333334</ele><time>2026-05-02T06:10:45Z</time></trkpt><trkpt lat="43.798334430417434" lon="11.613974100739975"><ele>862.6666666666667</ele><time>2026-05-02T06:10:47Z</time></trkpt><trkpt lat="43.798342031752334" lon="11.614100303029886"><ele>861.0</ele><time>2026-05-02T06:10:49Z</time></trkpt><trkpt lat="43.798372235251314" lon="11.61423658273977"><ele>859.3333333333333</ele><time>2026-05-02T06:10:51Z</time></trkpt><trkpt lat="43.79840492152345" lon="11.614314930588167"><ele>857.6666666666666</ele><time>2026-05-02T06:10:53Z</time></trkpt><trkpt lat="43.79845604238986" lon="11.614393495235037"><ele>856.0</ele><time>2026-05-02T06:10:59Z</time></trkpt><trkpt lat="43.79849043067873" lon="11.614491682729266"><ele>854.4999999999999</ele><time>2026-05-02T06:11:01Z</time></trkpt><trkpt lat="43.79852684256386" lon="11.61460460147066"><ele>853.0</ele><time>2026-05-02T06:11:03Z</time></trkpt><trkpt lat="43.79851926604143" lon="11.614716539012953"><ele>851.5</ele><time>2026-05-02T06:11:05Z</time></trkpt><trkpt lat="43.79846407073659" lon="11.614828588301988"><ele>850.0</ele><time>2026-05-02T06:11:07Z</time></trkpt><trkpt lat="43.79845012608956" lon="11.614931563081377"><ele>848.4999999999999</ele><time>2026-05-02T06:11:09Z</time></trkpt><trkpt lat="43.79849624318856" lon="11.615007519653453"><ele>847.0</ele><time>2026-05-02T06:11:12Z</time></trkpt><trkpt lat="43.79857036794962" lon="11.615131250540168"><ele>846.9999999999999</ele><time>2026-05-02T06:11:14Z</time></trkpt><trkpt lat="43.7986076011817" lon="11.615231730908075"><ele>847.0</ele><time>2026-05-02T06:11:16Z</time></trkpt><trkpt lat="43.79855631806158" lon="11.615308727213872"><ele>847.0</ele><time>2026-05-02T06:11:19Z</time></trkpt><trkpt lat="43.79848853401756" lon="11.615336621466751"><ele>847.0</ele><time>2026-05-02T06:11:21Z</time></trkpt><trkpt lat="43.79841019456157" lon="11.615340815766293"><ele>846.9999999999999</ele><time>2026-05-02T06:11:23Z</time></trkpt><trkpt lat="43.798332544540095" lon="11.615322441212685"><ele>847.0</ele><time>2026-05-02T06:11:25Z</time></trkpt><trkpt lat="43.79823645789958" lon="11.615262253318724"><ele>847.0</ele><time>2026-05-02T06:11:28Z</time></trkpt><trkpt lat="43.79818854998776" lon="11.61520241200886"><ele>847.0</ele><time>2026-05-02T06:11:30Z</time></trkpt><trkpt lat="43.79812128088633" lon="11.615144415695486"><ele>847.0</ele><time>2026-05-02T06:11:32Z</time></trkpt><trkpt lat="43.79803990338402" lon="11.61511995597256"><ele>847.0</ele><time>2026-05-02T06:11:35Z</time></trkpt><trkpt lat="43.797996375246875" lon="11.615191008592355"><ele>847.0</ele><time>2026-05-02T06:11:38Z</time></trkpt><trkpt lat="43.7979908030159" lon="11.615284725761251"><ele>847.0</ele><time>2026-05-02T06:11:48Z</time></trkpt><trkpt lat="43.797998157774295" lon="11.615404497398705"><ele>847.0</ele><time>2026-05-02T06:11:50Z</time></trkpt><trkpt lat="43.797972730083586" lon="11.615552584947226"><ele>845.3333333333333</ele><time>2026-05-02T06:11:53Z</time></trkpt><trkpt lat="43.797958818705034" lon="11.615686283379489"><ele>843.6666666666666</ele><time>2026-05-02T06:11:55Z</time></trkpt><trkpt lat="43.797973716311304" lon="11.615789087592013"><ele>842.0</ele><time>2026-05-02T06:11:57Z</time></trkpt><trkpt lat="43.79794617736863" lon="11.61588171399516"><ele>840.3333333333333</ele><time>2026-05-02T06:12:01Z</time></trkpt><trkpt lat="43.79793225966948" lon="11.615976346124757"><ele>838.6666666666666</ele><time>2026-05-02T06:12:03Z</time></trkpt><trkpt lat="43.79790526489636" lon="11.616076889159062"><ele>837.0</ele><time>2026-05-02T06:12:05Z</time></trkpt><trkpt lat="43.79789018254694" lon="11.616169818526203"><ele>834.6</ele><time>2026-05-02T06:12:07Z</time></trkpt><trkpt lat="43.797837442155505" lon="11.616257047844675"><ele>832.2</ele><time>2026-05-02T06:12:09Z</time></trkpt><trkpt lat="43.79782841019245" lon="11.61640615928762"><ele>829.8</ele><time>2026-05-02T06:12:11Z</time></trkpt><trkpt lat="43.79780212694549" lon="11.61655549580094"><ele>827.4</ele><time>2026-05-02T06:12:13Z</time></trkpt><trkpt lat="43.7977660688789" lon="11.616689613180402"><ele>825.0</ele><time>2026-05-02T06:12:15Z</time></trkpt><trkpt lat="43.79773581968848" lon="11.616827484668072"><ele>825.0</ele><time>2026-05-02T06:12:17Z</time></trkpt><trkpt lat="43.79769911265824" lon="11.616924351337744"><ele>825.0</ele><time>2026-05-02T06:12:19Z</time></trkpt><trkpt lat="43.79764457249847" lon="11.617009565318938"><ele>825.0</ele><time>2026-05-02T06:12:20Z</time></trkpt><trkpt lat="43.797597307264645" lon="11.617071156634053"><ele>825.0</ele><time>2026-05-02T06:12:21Z</time></trkpt><trkpt lat="43.79757178860089" lon="11.617168486143772"><ele>825.0</ele><time>2026-05-02T06:12:23Z</time></trkpt><trkpt lat="43.797617156120396" lon="11.617286405054145"><ele>825.0</ele><time>2026-05-02T06:12:25Z</time></trkpt><trkpt lat="43.79768600505462" lon="11.617389291697384"><ele>825.1666666666666</ele><time>2026-05-02T06:12:27Z</time></trkpt><trkpt lat="43.797687132471225" lon="11.617512495242249"><ele>825.3333333333333</ele><time>2026-05-02T06:12:30Z</time></trkpt><trkpt lat="43.79764743345492" lon="11.61758507801685"><ele>825.5</ele><time>2026-05-02T06:12:32Z</time></trkpt><trkpt lat="43.797578467482175" lon="11.617623578568644"><ele>825.6666666666666</ele><time>2026-05-02T06:12:35Z</time></trkpt><trkpt lat="43.79752844583603" lon="11.61768279214101"><ele>825.8333333333333</ele><time>2026-05-02T06:12:37Z</time></trkpt><trkpt lat="43.797530665814556" lon="11.617808924575389"><ele>826.0</ele><time>2026-05-02T06:12:40Z</time></trkpt><trkpt lat="43.79755697056574" lon="11.617893139871493"><ele>825.1999999999999</ele><time>2026-05-02T06:12:43Z</time></trkpt><trkpt lat="43.797604145324385" lon="11.618001243438254"><ele>824.4</ele><time>2026-05-02T06:12:45Z</time></trkpt><trkpt lat="43.79761345226494" lon="11.618139534389252"><ele>823.6</ele><time>2026-05-02T06:12:47Z</time></trkpt><trkpt lat="43.79764971657765" lon="11.618249398895292"><ele>822.8</ele><time>2026-05-02T06:12:49Z</time></trkpt><trkpt lat="43.797679461253" lon="11.618395180891383"><ele>822.0</ele><time>2026-05-02T06:12:51Z</time></trkpt><trkpt lat="43.79771662277769" lon="11.618539024444717"><ele>820.6</ele><time>2026-05-02T06:12:53Z</time></trkpt><trkpt lat="43.79771585180716" lon="11.618701608758393"><ele>819.2</ele><time>2026-05-02T06:12:55Z</time></trkpt><trkpt lat="43.79773226000926" lon="11.618845490537034"><ele>817.8</ele><time>2026-05-02T06:12:57Z</time></trkpt><trkpt lat="43.797758494951964" lon="11.61895913896054"><ele>816.4</ele><time>2026-05-02T06:12:59Z</time></trkpt><trkpt lat="43.7977833841083" lon="11.619043462767607"><ele>815.0</ele><time>2026-05-02T06:13:01Z</time></trkpt><trkpt lat="43.79776384791171" lon="11.619146955418865"><ele>815.0000000000001</ele><time>2026-05-02T06:13:04Z</time></trkpt><trkpt lat="43.79783238522022" lon="11.619179178559094"><ele>815.0</ele><time>2026-05-02T06:13:06Z</time></trkpt><trkpt lat="43.797877427520575" lon="11.619271228046014"><ele>815.0</ele><time>2026-05-02T06:13:10Z</time></trkpt><trkpt lat="43.7978370260367" lon="11.619350529771348"><ele>815.0</ele><time>2026-05-02T06:13:16Z</time></trkpt><trkpt lat="43.797758819217094" lon="11.619373618090352"><ele>815.0000000000001</ele><time>2026-05-02T06:13:18Z</time></trkpt><trkpt lat="43.7976866676215" lon="11.619354290092836"><ele>815.0</ele><time>2026-05-02T06:13:22Z</time></trkpt><trkpt lat="43.797614931761395" lon="11.619319960228024"><ele>815.5000000000001</ele><time>2026-05-02T06:13:25Z</time></trkpt><trkpt lat="43.797552122780694" lon="11.619310710099299"><ele>816.0</ele><time>2026-05-02T06:13:27Z</time></trkpt><trkpt lat="43.797466497144214" lon="11.619356775897216"><ele>816.5</ele><time>2026-05-02T06:13:29Z</time></trkpt><trkpt lat="43.79739576672998" lon="11.619384480146117"><ele>817.0</ele><time>2026-05-02T06:13:31Z</time></trkpt><trkpt lat="43.7973152014896" lon="11.619371794605476"><ele>817.5000000000001</ele><time>2026-05-02T06:13:34Z</time></trkpt><trkpt lat="43.79724854225705" lon="11.619367251635175"><ele>818.0</ele><time>2026-05-02T06:14:16Z</time></trkpt><trkpt lat="43.79717109657012" lon="11.619286910276722"><ele>818.0</ele><time>2026-05-02T06:14:36Z</time></trkpt><trkpt lat="43.79720405051573" lon="11.619384703556184"><ele>818.0</ele><time>2026-05-02T06:15:30Z</time></trkpt><trkpt lat="43.797188917480774" lon="11.619474577261691"><ele>818.0</ele><time>2026-05-02T06:15:42Z</time></trkpt><trkpt lat="43.79725522422379" lon="11.619540938388386"><ele>818.0</ele><time>2026-05-02T06:16:10Z</time></trkpt><trkpt lat="43.797325761322796" lon="11.61957762058814"><ele>818.0</ele><time>2026-05-02T06:16:39Z</time></trkpt><trkpt lat="43.79736121811727" lon="11.619658034601741"><ele>818.0</ele><time>2026-05-02T06:16:42Z</time></trkpt><trkpt lat="43.7974216583077" lon="11.619690176354798"><ele>818.0</ele><time>2026-05-02T06:16:45Z</time></trkpt><trkpt lat="43.7975003616139" lon="11.619716829923004"><ele>817.6666666666667</ele><time>2026-05-02T06:16:50Z</time></trkpt><trkpt lat="43.797554958871835" lon="11.619771769620542"><ele>817.3333333333334</ele><time>2026-05-02T06:16:52Z</time></trkpt><trkpt lat="43.797613753138464" lon="11.61983127957768"><ele>817.0</ele><time>2026-05-02T06:16:54Z</time></trkpt><trkpt lat="43.79766787360636" lon="11.619922354707716"><ele>816.6666666666667</ele><time>2026-05-02T06:16:56Z</time></trkpt><trkpt lat="43.79772132065676" lon="11.62004821474191"><ele>816.3333333333334</ele><time>2026-05-02T06:16:58Z</time></trkpt><trkpt lat="43.797755905046074" lon="11.620183958848427"><ele>816.0</ele><time>2026-05-02T06:17:00Z</time></trkpt><trkpt lat="43.79777301590462" lon="11.620305678067147"><ele>816.1666666666666</ele><time>2026-05-02T06:17:02Z</time></trkpt><trkpt lat="43.79779075494125" lon="11.620418290663793"><ele>816.3333333333333</ele><time>2026-05-02T06:17:04Z</time></trkpt><trkpt lat="43.79774911777083" lon="11.620545018528256"><ele>816.5</ele><time>2026-05-02T06:17:06Z</time></trkpt><trkpt lat="43.797716194606956" lon="11.620622169735324"><ele>816.6666666666666</ele><time>2026-05-02T06:17:08Z</time></trkpt><trkpt lat="43.79765925932905" lon="11.620691853970488"><ele>816.8333333333333</ele><time>2026-05-02T06:17:11Z</time></trkpt><trkpt lat="43.797692054511444" lon="11.620766421141042"><ele>817.0</ele><time>2026-05-02T06:17:13Z</time></trkpt><trkpt lat="43.79775342078341" lon="11.620826823433514"><ele>816.9999999999999</ele><time>2026-05-02T06:17:15Z</time></trkpt><trkpt lat="43.797825624276115" lon="11.620903930137256"><ele>817.0</ele><time>2026-05-02T06:17:17Z</time></trkpt><trkpt lat="43.797895466506546" lon="11.620941125626233"><ele>817.0</ele><time>2026-05-02T06:17:19Z</time></trkpt><trkpt lat="43.797976024956384" lon="11.620974053213832"><ele>817.0</ele><time>2026-05-02T06:17:21Z</time></trkpt><trkpt lat="43.79805686714977" lon="11.62104831921521"><ele>816.9999999999999</ele><time>2026-05-02T06:17:24Z</time></trkpt><trkpt lat="43.79813359803949" lon="11.621044707562215"><ele>817.0</ele><time>2026-05-02T06:17:26Z</time></trkpt><trkpt lat="43.79821086105879" lon="11.621076581623289"><ele>821.2</ele><time>2026-05-02T06:17:28Z</time></trkpt><trkpt lat="43.79826820086829" lon="11.621150049906245"><ele>825.4000000000001</ele><time>2026-05-02T06:17:30Z</time></trkpt><trkpt lat="43.798312969886695" lon="11.621280582869558"><ele>829.5999999999999</ele><time>2026-05-02T06:17:32Z</time></trkpt><trkpt lat="43.79830498687649" lon="11.62140046784966"><ele>833.8</ele><time>2026-05-02T06:17:34Z</time></trkpt><trkpt lat="43.79826131428825" lon="11.621544487875797"><ele>838.0</ele><time>2026-05-02T06:17:36Z</time></trkpt><trkpt lat="43.79816530258321" lon="11.621602871531199"><ele>837.9999999999999</ele><time>2026-05-02T06:17:38Z</time></trkpt><trkpt lat="43.79806686694774" lon="11.621619490539905"><ele>838.0</ele><time>2026-05-02T06:17:40Z</time></trkpt><trkpt lat="43.79799600549585" lon="11.621685493209815"><ele>838.0</ele><time>2026-05-02T06:17:42Z</time></trkpt><trkpt lat="43.79796689143635" lon="11.62183027764447"><ele>838.0</ele><time>2026-05-02T06:17:44Z</time></trkpt><trkpt lat="43.79790496082965" lon="11.621921071558878"><ele>837.9999999999999</ele><time>2026-05-02T06:17:46Z</time></trkpt><trkpt lat="43.797852930146256" lon="11.621971859309452"><ele>838.0</ele><time>2026-05-02T06:17:47Z</time></trkpt><trkpt lat="43.79779739591946" lon="11.622026205519065"><ele>837.4</ele><time>2026-05-02T06:17:48Z</time></trkpt><trkpt lat="43.79774097187281" lon="11.622138271717597"><ele>836.8</ele><time>2026-05-02T06:17:50Z</time></trkpt><trkpt lat="43.79768060394756" lon="11.622250816230583"><ele>836.2</ele><time>2026-05-02T06:17:52Z</time></trkpt><trkpt lat="43.79757612297275" lon="11.622339745968562"><ele>835.6</ele><time>2026-05-02T06:17:54Z</time></trkpt><trkpt lat="43.79746946136292" lon="11.622411840409418"><ele>835.0</ele><time>2026-05-02T06:17:56Z</time></trkpt><trkpt lat="43.79740721952001" lon="11.622522909883706"><ele>841.8</ele><time>2026-05-02T06:17:58Z</time></trkpt><trkpt lat="43.79733460214428" lon="11.622613297045342"><ele>848.6</ele><time>2026-05-02T06:18:00Z</time></trkpt><trkpt lat="43.797354655169315" lon="11.622758538228153"><ele>855.4000000000001</ele><time>2026-05-02T06:18:02Z</time></trkpt><trkpt lat="43.79737858545851" lon="11.622849526655349"><ele>862.2</ele><time>2026-05-02T06:18:03Z</time></trkpt><trkpt lat="43.79734863489567" lon="11.623012181195886"><ele>869.0</ele><time>2026-05-02T06:18:05Z</time></trkpt><trkpt lat="43.797318397817136" lon="11.623089710754803"><ele>869.1666666666667</ele><time>2026-05-02T06:18:06Z</time></trkpt><trkpt lat="43.79730367060446" lon="11.623175320710978"><ele>869.3333333333334</ele><time>2026-05-02T06:18:07Z</time></trkpt><trkpt lat="43.79729814890862" lon="11.623282041002044"><ele>869.5</ele><time>2026-05-02T06:18:08Z</time></trkpt><trkpt lat="43.79728523499974" lon="11.623371266582712"><ele>869.6666666666667</ele><time>2026-05-02T06:18:09Z</time></trkpt><trkpt lat="43.797284801425434" lon="11.623462045774339"><ele>869.8333333333334</ele><time>2026-05-02T06:18:10Z</time></trkpt><trkpt lat="43.797253830831266" lon="11.623599202263339"><ele>870.0</ele><time>2026-05-02T06:18:12Z</time></trkpt><trkpt lat="43.7972087994972" lon="11.623751825845622"><ele>871.1666666666666</ele><time>2026-05-02T06:18:14Z</time></trkpt><trkpt lat="43.79713649329365" lon="11.623870626338078"><ele>872.3333333333333</ele><time>2026-05-02T06:18:16Z</time></trkpt><trkpt lat="43.79709850504924" lon="11.623942430132406"><ele>873.5</ele><time>2026-05-02T06:18:18Z</time></trkpt><trkpt lat="43.79708686432172" lon="11.62403967638362"><ele>874.6666666666666</ele><time>2026-05-02T06:18:20Z</time></trkpt><trkpt lat="43.7970176494226" lon="11.62406892055454"><ele>875.8333333333333</ele><time>2026-05-02T06:18:22Z</time></trkpt><trkpt lat="43.796942327323045" lon="11.624039329207864"><ele>877.0</ele><time>2026-05-02T06:18:24Z</time></trkpt><trkpt lat="43.7968436146425" lon="11.624062536332016"><ele>879.8333333333333</ele><time>2026-05-02T06:18:26Z</time></trkpt><trkpt lat="43.79679651741542" lon="11.624138212109926"><ele>882.6666666666666</ele><time>2026-05-02T06:18:28Z</time></trkpt><trkpt lat="43.796716095689966" lon="11.624253602315916"><ele>885.5</ele><time>2026-05-02T06:18:30Z</time></trkpt><trkpt lat="43.7966624449951" lon="11.62431986893918"><ele>888.3333333333333</ele><time>2026-05-02T06:18:32Z</time></trkpt><trkpt lat="43.796599891118944" lon="11.624400747567222"><ele>891.1666666666666</ele><time>2026-05-02T06:18:35Z</time></trkpt><trkpt lat="43.7965336722047" lon="11.62446220234455"><ele>894.0</ele><time>2026-05-02T06:18:37Z</time></trkpt><trkpt lat="43.796547180016375" lon="11.624548571657316"><ele>894.0</ele><time>2026-05-02T06:18:39Z</time></trkpt><trkpt lat="43.796612723608305" lon="11.62462110658681"><ele>894.0000000000001</ele><time>2026-05-02T06:18:41Z</time></trkpt><trkpt lat="43.79662967699798" lon="11.624707161441878"><ele>894.0000000000001</ele><time>2026-05-02T06:18:43Z</time></trkpt><trkpt lat="43.796641045702046" lon="11.62486864600431"><ele>894.0</ele><time>2026-05-02T06:18:45Z</time></trkpt><trkpt lat="43.79662418517799" lon="11.625042668996063"><ele>894.0</ele><time>2026-05-02T06:18:47Z</time></trkpt><trkpt lat="43.7965929223079" lon="11.62517181298248"><ele>894.0</ele><time>2026-05-02T06:18:49Z</time></trkpt><trkpt lat="43.796540549254665" lon="11.625279319924271"><ele>894.0000000000001</ele><time>2026-05-02T06:18:51Z</time></trkpt><trkpt lat="43.79644315662" lon="11.625380578290576"><ele>894.0000000000001</ele><time>2026-05-02T06:18:53Z</time></trkpt><trkpt lat="43.796404798848634" lon="11.625450643258302"><ele>894.0</ele><time>2026-05-02T06:18:54Z</time></trkpt><trkpt lat="43.79633735515349" lon="11.625597509648443"><ele>894.0</ele><time>2026-05-02T06:18:56Z</time></trkpt><trkpt lat="43.79630423811799" lon="11.625750872673962"><ele>895.2</ele><time>2026-05-02T06:18:58Z</time></trkpt><trkpt lat="43.79628208624446" lon="11.62587936027185"><ele>896.4000000000001</ele><time>2026-05-02T06:19:00Z</time></trkpt><trkpt lat="43.79620789892569" lon="11.625999583260446"><ele>897.6</ele><time>2026-05-02T06:19:02Z</time></trkpt><trkpt lat="43.79615285361388" lon="11.62609901963313"><ele>898.8</ele><time>2026-05-02T06:19:04Z</time></trkpt><trkpt lat="43.796163602545306" lon="11.626204050528326"><ele>900.0</ele><time>2026-05-02T06:19:07Z</time></trkpt><trkpt lat="43.79626931685137" lon="11.626250486393811"><ele>902.5</ele><time>2026-05-02T06:19:09Z</time></trkpt><trkpt lat="43.7963323558071" lon="11.626275098348609"><ele>905.0</ele><time>2026-05-02T06:19:10Z</time></trkpt><trkpt lat="43.79639907641096" lon="11.626356175893697"><ele>907.5</ele><time>2026-05-02T06:19:12Z</time></trkpt><trkpt lat="43.79646133609444" lon="11.626400524519381"><ele>910.0</ele><time>2026-05-02T06:19:14Z</time></trkpt><trkpt lat="43.79652398413495" lon="11.626351089366988"><ele>912.5</ele><time>2026-05-02T06:19:16Z</time></trkpt><trkpt lat="43.79659743374824" lon="11.626300720463933"><ele>915.0</ele><time>2026-05-02T06:19:19Z</time></trkpt><trkpt lat="43.796684885891246" lon="11.626300271237056"><ele>915.0</ele><time>2026-05-02T06:19:21Z</time></trkpt><trkpt lat="43.79674997016968" lon="11.626281061819848"><ele>915.0</ele><time>2026-05-02T06:19:23Z</time></trkpt><trkpt lat="43.79684209944781" lon="11.626279870477434"><ele>915.0</ele><time>2026-05-02T06:19:25Z</time></trkpt><trkpt lat="43.79694236587921" lon="11.626328607850462"><ele>915.0</ele><time>2026-05-02T06:19:27Z</time></trkpt><trkpt lat="43.797020127789324" lon="11.626382400236373"><ele>915.0</ele><time>2026-05-02T06:19:29Z</time></trkpt><trkpt lat="43.79708099149638" lon="11.626435303385408"><ele>915.0</ele><time>2026-05-02T06:19:31Z</time></trkpt><trkpt lat="43.79717227518445" lon="11.62652619957014"><ele>916.6</ele><time>2026-05-02T06:19:43Z</time></trkpt><trkpt lat="43.79725102367057" lon="11.62664411462388"><ele>918.2</ele><time>2026-05-02T06:19:45Z</time></trkpt><trkpt lat="43.797315766650236" lon="11.62676237239243"><ele>919.8</ele><time>2026-05-02T06:19:47Z</time></trkpt><trkpt lat="43.79736227345484" lon="11.626822588503591"><ele>921.4</ele><time>2026-05-02T06:19:48Z</time></trkpt><trkpt lat="43.79744692928835" lon="11.626917177985359"><ele>923.0</ele><time>2026-05-02T06:19:50Z</time></trkpt><trkpt lat="43.797511875752214" lon="11.62704723089046"><ele>927.0</ele><time>2026-05-02T06:19:52Z</time></trkpt><trkpt lat="43.79756465726119" lon="11.6271821787846"><ele>931.0</ele><time>2026-05-02T06:19:54Z</time></trkpt><trkpt lat="43.79760483134037" lon="11.627328354735628"><ele>935.0</ele><time>2026-05-02T06:19:56Z</time></trkpt><trkpt lat="43.797619007890034" lon="11.627414504506163"><ele>939.0</ele><time>2026-05-02T06:19:57Z</time></trkpt><trkpt lat="43.797619031612676" lon="11.627566047897067"><ele>943.0</ele><time>2026-05-02T06:19:59Z</time></trkpt><trkpt lat="43.79758107060126" lon="11.627689947342791"><ele>942.9999999999999</ele><time>2026-05-02T06:20:01Z</time></trkpt><trkpt lat="43.797515374810594" lon="11.627799384358413"><ele>943.0</ele><time>2026-05-02T06:20:03Z</time></trkpt><trkpt lat="43.79745644321231" lon="11.627872292974432"><ele>943.0</ele><time>2026-05-02T06:20:05Z</time></trkpt><trkpt lat="43.79740852998432" lon="11.627939453002503"><ele>943.0</ele><time>2026-05-02T06:20:20Z</time></trkpt><trkpt lat="43.79735813578984" lon="11.628003830660811"><ele>942.9999999999999</ele><time>2026-05-02T06:20:23Z</time></trkpt><trkpt lat="43.79730795703387" lon="11.628067654207447"><ele>943.0</ele><time>2026-05-02T06:20:26Z</time></trkpt><trkpt lat="43.79724861480442" lon="11.628131082888212"><ele>945.4</ele><time>2026-05-02T06:20:30Z</time></trkpt><trkpt lat="43.79718437620046" lon="11.628165074054277"><ele>947.8</ele><time>2026-05-02T06:20:32Z</time></trkpt><trkpt lat="43.79709628388073" lon="11.628180520251046"><ele>950.2</ele><time>2026-05-02T06:20:34Z</time></trkpt><trkpt lat="43.79698614880399" lon="11.628224374968102"><ele>952.6</ele><time>2026-05-02T06:20:36Z</time></trkpt><trkpt lat="43.79689316387169" lon="11.628285927828585"><ele>955.0</ele><time>2026-05-02T06:20:38Z</time></trkpt><trkpt lat="43.79678219929729" lon="11.628355473185646"><ele>955.0</ele><time>2026-05-02T06:20:40Z</time></trkpt><trkpt lat="43.79666917613124" lon="11.628408619618721"><ele>955.0</ele><time>2026-05-02T06:20:42Z</time></trkpt><trkpt lat="43.7965632250745" lon="11.628499048641386"><ele>955.0</ele><time>2026-05-02T06:20:44Z</time></trkpt><trkpt lat="43.79646638270893" lon="11.628578215749268"><ele>955.0</ele><time>2026-05-02T06:20:46Z</time></trkpt><trkpt lat="43.79636463852847" lon="11.628607348791789"><ele>955.0</ele><time>2026-05-02T06:20:48Z</time></trkpt><trkpt lat="43.79623875701629" lon="11.628555249671836"><ele>955.0</ele><time>2026-05-02T06:20:50Z</time></trkpt><trkpt lat="43.79615456034047" lon="11.628442395878787"><ele>955.0</ele><time>2026-05-02T06:20:52Z</time></trkpt><trkpt lat="43.79609882663017" lon="11.628393459702922"><ele>955.0</ele><time>2026-05-02T06:20:54Z</time></trkpt><trkpt lat="43.79602519273323" lon="11.62840061438932"><ele>955.0</ele><time>2026-05-02T06:20:56Z</time></trkpt><trkpt lat="43.79597546041672" lon="11.628479241887373"><ele>954.9999999999999</ele><time>2026-05-02T06:21:03Z</time></trkpt><trkpt lat="43.796017387995214" lon="11.628581926987103"><ele>955.0</ele><time>2026-05-02T06:21:06Z</time></trkpt><trkpt lat="43.79598986488432" lon="11.628682959852542"><ele>955.0</ele><time>2026-05-02T06:21:08Z</time></trkpt><trkpt lat="43.79598975115634" lon="11.628818305905714"><ele>955.0</ele><time>2026-05-02T06:21:10Z</time></trkpt><trkpt lat="43.79602166479168" lon="11.628910267390358"><ele>954.9999999999999</ele><time>2026-05-02T06:21:12Z</time></trkpt><trkpt lat="43.79608881487969" lon="11.62901605219495"><ele>955.0</ele><time>2026-05-02T06:21:14Z</time></trkpt><trkpt lat="43.796173874059214" lon="11.629122923578786"><ele>957.2</ele><time>2026-05-02T06:21:16Z</time></trkpt><trkpt lat="43.79624790890061" lon="11.62920890655431"><ele>959.4</ele><time>2026-05-02T06:21:18Z</time></trkpt><trkpt lat="43.796320414554415" lon="11.629303453193081"><ele>961.5999999999999</ele><time>2026-05-02T06:21:20Z</time></trkpt><trkpt lat="43.79641205317412" lon="11.629416840601895"><ele>963.8</ele><time>2026-05-02T06:21:22Z</time></trkpt><trkpt lat="43.79646784151089" lon="11.629496987737031"><ele>966.0</ele><time>2026-05-02T06:21:24Z</time></trkpt><trkpt lat="43.796539487341214" lon="11.62957935661065"><ele>967.6666666666666</ele><time>2026-05-02T06:21:26Z</time></trkpt><trkpt lat="43.79660274621864" lon="11.629701169161827"><ele>969.3333333333333</ele><time>2026-05-02T06:21:28Z</time></trkpt><trkpt lat="43.79664660802773" lon="11.629763756179727"><ele>971.0</ele><time>2026-05-02T06:21:30Z</time></trkpt><trkpt lat="43.79672436231783" lon="11.629840933833252"><ele>972.6666666666666</ele><time>2026-05-02T06:21:32Z</time></trkpt><trkpt lat="43.796795705871645" lon="11.629826574532252"><ele>974.3333333333333</ele><time>2026-05-02T06:21:45Z</time></trkpt><trkpt lat="43.79686363362156" lon="11.629803192256722"><ele>976.0</ele><time>2026-05-02T06:22:01Z</time></trkpt><trkpt lat="43.79695026706896" lon="11.629778450333886"><ele>976.5999999999999</ele><time>2026-05-02T06:22:03Z</time></trkpt><trkpt lat="43.79702500480623" lon="11.629782655023833"><ele>977.1999999999999</ele><time>2026-05-02T06:22:05Z</time></trkpt><trkpt lat="43.79711171525567" lon="11.6297886147847"><ele>977.8000000000001</ele><time>2026-05-02T06:22:07Z</time></trkpt><trkpt lat="43.797191750918394" lon="11.629776278802593"><ele>978.4000000000001</ele><time>2026-05-02T06:22:09Z</time></trkpt><trkpt lat="43.79730786197259" lon="11.629718793687196"><ele>979.0</ele><time>2026-05-02T06:22:11Z</time></trkpt><trkpt lat="43.797388434673536" lon="11.629649112026032"><ele>979.0</ele><time>2026-05-02T06:22:13Z</time></trkpt><trkpt lat="43.79746422539828" lon="11.629630932367855"><ele>979.0000000000001</ele><time>2026-05-02T06:22:15Z</time></trkpt><trkpt lat="43.79752776120378" lon="11.629615980623305"><ele>979.0000000000001</ele><time>2026-05-02T06:22:23Z</time></trkpt><trkpt lat="43.79759385975994" lon="11.629690194141169"><ele>979.0</ele><time>2026-05-02T06:22:25Z</time></trkpt><trkpt lat="43.7976505673759" lon="11.629842589154347"><ele>979.0</ele><time>2026-05-02T06:22:27Z</time></trkpt><trkpt lat="43.7976983031103" lon="11.629975325342064"><ele>978.1666666666666</ele><time>2026-05-02T06:22:29Z</time></trkpt><trkpt lat="43.79776785817789" lon="11.630057200990995"><ele>977.3333333333333</ele><time>2026-05-02T06:22:31Z</time></trkpt><trkpt lat="43.79782346618272" lon="11.63016610970152"><ele>976.5</ele><time>2026-05-02T06:22:33Z</time></trkpt><trkpt lat="43.79783668674358" lon="11.630276526004538"><ele>975.6666666666667</ele><time>2026-05-02T06:22:35Z</time></trkpt><trkpt lat="43.79785512090671" lon="11.630375800105778"><ele>974.8333333333334</ele><time>2026-05-02T06:22:37Z</time></trkpt><trkpt lat="43.797897063629904" lon="11.630478145177728"><ele>974.0</ele><time>2026-05-02T06:22:39Z</time></trkpt><trkpt lat="43.797969048993664" lon="11.630580869472135"><ele>974.0</ele><time>2026-05-02T06:22:41Z</time></trkpt><trkpt lat="43.79800712145785" lon="11.630653109178718"><ele>974.0</ele><time>2026-05-02T06:22:42Z</time></trkpt><trkpt lat="43.79801575289915" lon="11.630747269795807"><ele>974.0</ele><time>2026-05-02T06:22:43Z</time></trkpt><trkpt lat="43.79801207472667" lon="11.630837446277853"><ele>974.0</ele><time>2026-05-02T06:22:44Z</time></trkpt><trkpt lat="43.79800398397604" lon="11.630948163027275"><ele>974.0</ele><time>2026-05-02T06:22:45Z</time></trkpt><trkpt lat="43.79802559489614" lon="11.631053160337723"><ele>974.0</ele><time>2026-05-02T06:22:46Z</time></trkpt><trkpt lat="43.79804418007405" lon="11.631149152987266"><ele>974.0</ele><time>2026-05-02T06:22:47Z</time></trkpt><trkpt lat="43.79805208657728" lon="11.631281480925205"><ele>975.0</ele><time>2026-05-02T06:22:49Z</time></trkpt><trkpt lat="43.79806744660686" lon="11.631403984427866"><ele>976.0</ele><time>2026-05-02T06:22:51Z</time></trkpt><trkpt lat="43.79802841149772" lon="11.631560309694848"><ele>977.0</ele><time>2026-05-02T06:22:53Z</time></trkpt><trkpt lat="43.798058617978285" lon="11.631731868069233"><ele>978.0</ele><time>2026-05-02T06:22:55Z</time></trkpt><trkpt lat="43.79805817694239" lon="11.631907285637146"><ele>976.25</ele><time>2026-05-02T06:22:57Z</time></trkpt><trkpt lat="43.79803121843228" lon="11.6320663969925"><ele>974.5</ele><time>2026-05-02T06:22:59Z</time></trkpt><trkpt lat="43.797987963350785" lon="11.632208619164278"><ele>972.75</ele><time>2026-05-02T06:23:01Z</time></trkpt><trkpt lat="43.7979749908808" lon="11.632368289711446"><ele>971.0</ele><time>2026-05-02T06:23:03Z</time></trkpt><trkpt lat="43.79796874322789" lon="11.632525150347815"><ele>971.0</ele><time>2026-05-02T06:23:05Z</time></trkpt><trkpt lat="43.797962302778075" lon="11.632690918316664"><ele>970.9999999999999</ele><time>2026-05-02T06:23:07Z</time></trkpt><trkpt lat="43.79797821631515" lon="11.632850152959035"><ele>970.9999999999999</ele><time>2026-05-02T06:23:09Z</time></trkpt><trkpt lat="43.79802828762633" lon="11.633007272755513"><ele>971.0</ele><time>2026-05-02T06:23:11Z</time></trkpt><trkpt lat="43.798071726379526" lon="11.633104892110874"><ele>971.0</ele><time>2026-05-02T06:23:12Z</time></trkpt><trkpt lat="43.798142060239265" lon="11.633218961965328"><ele>970.8333333333334</ele><time>2026-05-02T06:23:13Z</time></trkpt><trkpt lat="43.79821128200476" lon="11.633342755624867"><ele>970.6666666666667</ele><time>2026-05-02T06:23:14Z</time></trkpt><trkpt lat="43.79827222314294" lon="11.633425397851447"><ele>970.5</ele><time>2026-05-02T06:23:15Z</time></trkpt><trkpt lat="43.79832481940395" lon="11.633505142955745"><ele>970.3333333333333</ele><time>2026-05-02T06:23:16Z</time></trkpt><trkpt lat="43.79836817526189" lon="11.633590499182644"><ele>970.1666666666666</ele><time>2026-05-02T06:23:17Z</time></trkpt><trkpt lat="43.798405809515714" lon="11.633668193039341"><ele>970.0</ele><time>2026-05-02T06:23:18Z</time></trkpt><trkpt lat="43.7984475762255" lon="11.633743902367424"><ele>969.2</ele><time>2026-05-02T06:23:19Z</time></trkpt><trkpt lat="43.79849426029792" lon="11.633819181011447"><ele>968.4</ele><time>2026-05-02T06:23:20Z</time></trkpt><trkpt lat="43.79855294966024" lon="11.633910059548937"><ele>967.5999999999999</ele><time>2026-05-02T06:23:21Z</time></trkpt><trkpt lat="43.79861814719051" lon="11.633976696638577"><ele>966.8</ele><time>2026-05-02T06:23:22Z</time></trkpt><trkpt lat="43.79873064596694" lon="11.634089535558063"><ele>966.0</ele><time>2026-05-02T06:23:24Z</time></trkpt><trkpt lat="43.79877804656273" lon="11.634160913719695"><ele>966.0</ele><time>2026-05-02T06:23:25Z</time></trkpt><trkpt lat="43.798830972274665" lon="11.63423196643302"><ele>966.0</ele><time>2026-05-02T06:23:27Z</time></trkpt><trkpt lat="43.798897861539125" lon="11.634324734337843"><ele>966.0</ele><time>2026-05-02T06:23:30Z</time></trkpt><trkpt lat="43.79896974999497" lon="11.634421557572294"><ele>966.0</ele><time>2026-05-02T06:23:32Z</time></trkpt><trkpt lat="43.79902592914514" lon="11.634514360123909"><ele>966.0</ele><time>2026-05-02T06:23:34Z</time></trkpt><trkpt lat="43.7990847566129" lon="11.634611311891208"><ele>966.0</ele><time>2026-05-02T06:23:36Z</time></trkpt><trkpt lat="43.79911261600238" lon="11.634702475014345"><ele>965.0</ele><time>2026-05-02T06:23:38Z</time></trkpt><trkpt lat="43.799181300172776" lon="11.634796145588869"><ele>963.9999999999999</ele><time>2026-05-02T06:23:40Z</time></trkpt><trkpt lat="43.79922893328242" lon="11.634913627952248"><ele>962.9999999999999</ele><time>2026-05-02T06:23:42Z</time></trkpt><trkpt lat="43.7992879836752" lon="11.635035105809605"><ele>962.0</ele><time>2026-05-02T06:23:44Z</time></trkpt><trkpt lat="43.79934346012295" lon="11.635133918432613"><ele>961.0</ele><time>2026-05-02T06:23:46Z</time></trkpt><trkpt lat="43.799385351293346" lon="11.635248469419299"><ele>956.0</ele><time>2026-05-02T06:23:48Z</time></trkpt><trkpt lat="43.79941038973985" lon="11.63537363202372"><ele>950.9999999999999</ele><time>2026-05-02T06:23:50Z</time></trkpt><trkpt lat="43.79943543322862" lon="11.635539180608353"><ele>945.9999999999999</ele><time>2026-05-02T06:23:52Z</time></trkpt><trkpt lat="43.79949497934773" lon="11.635690657092992"><ele>941.0</ele><time>2026-05-02T06:23:54Z</time></trkpt><trkpt lat="43.79954254019706" lon="11.635824837979769"><ele>936.0</ele><time>2026-05-02T06:23:56Z</time></trkpt><trkpt lat="43.79958226486839" lon="11.63592999226505"><ele>936.0</ele><time>2026-05-02T06:23:58Z</time></trkpt><trkpt lat="43.79963472214897" lon="11.636019501074712"><ele>936.0</ele><time>2026-05-02T06:24:00Z</time></trkpt><trkpt lat="43.79969928034681" lon="11.636091764980732"><ele>936.0</ele><time>2026-05-02T06:24:02Z</time></trkpt><trkpt lat="43.79977238447585" lon="11.636167005976892"><ele>936.0</ele><time>2026-05-02T06:24:04Z</time></trkpt><trkpt lat="43.799831760826784" lon="11.63620482764266"><ele>936.0</ele><time>2026-05-02T06:24:05Z</time></trkpt><trkpt lat="43.79991893934036" lon="11.636291065287432"><ele>936.0</ele><time>2026-05-02T06:24:07Z</time></trkpt><trkpt lat="43.80001707276477" lon="11.636407094340845"><ele>934.8333333333334</ele><time>2026-05-02T06:24:09Z</time></trkpt><trkpt lat="43.80010570803933" lon="11.636466192136922"><ele>933.6666666666667</ele><time>2026-05-02T06:24:10Z</time></trkpt><trkpt lat="43.80015710968946" lon="11.636525690094524"><ele>932.5</ele><time>2026-05-02T06:24:11Z</time></trkpt><trkpt lat="43.800216256089826" lon="11.636592676182081"><ele>931.3333333333334</ele><time>2026-05-02T06:24:12Z</time></trkpt><trkpt lat="43.80028360144808" lon="11.636666077707439"><ele>930.1666666666667</ele><time>2026-05-02T06:24:13Z</time></trkpt><trkpt lat="43.800343726157024" lon="11.636727542893484"><ele>929.0</ele><time>2026-05-02T06:24:14Z</time></trkpt><trkpt lat="43.800412935958455" lon="11.636804516792452"><ele>928.8571428571429</ele><time>2026-05-02T06:24:15Z</time></trkpt><trkpt lat="43.80047096617613" lon="11.636864763316238"><ele>928.7142857142858</ele><time>2026-05-02T06:24:16Z</time></trkpt><trkpt lat="43.80052375891478" lon="11.636920152174326"><ele>928.5714285714287</ele><time>2026-05-02T06:24:17Z</time></trkpt><trkpt lat="43.80058691630076" lon="11.636976883353373"><ele>928.4285714285716</ele><time>2026-05-02T06:24:18Z</time></trkpt><trkpt lat="43.80065645045734" lon="11.63704435518908"><ele>928.2857142857143</ele><time>2026-05-02T06:24:19Z</time></trkpt><trkpt lat="43.800721560757744" lon="11.637088504872553"><ele>928.1428571428573</ele><time>2026-05-02T06:24:20Z</time></trkpt><trkpt lat="43.800784122995935" lon="11.637127433528024"><ele>928.0000000000001</ele><time>2026-05-02T06:24:21Z</time></trkpt><trkpt lat="43.80085914495105" lon="11.637164697056233"><ele>927.9999999999999</ele><time>2026-05-02T06:24:22Z</time></trkpt><trkpt lat="43.800921730392595" lon="11.637210626665022"><ele>928.0</ele><time>2026-05-02T06:24:23Z</time></trkpt><trkpt lat="43.80098587542313" lon="11.637252858391005"><ele>928.0</ele><time>2026-05-02T06:24:24Z</time></trkpt><trkpt lat="43.80105347065952" lon="11.637308186859006"><ele>928.0</ele><time>2026-05-02T06:24:26Z</time></trkpt><trkpt lat="43.80111971608178" lon="11.63738769260702"><ele>927.9999999999999</ele><time>2026-05-02T06:24:28Z</time></trkpt><trkpt lat="43.80119180920919" lon="11.63745903796543"><ele>928.0</ele><time>2026-05-02T06:24:30Z</time></trkpt><trkpt lat="43.80127047264439" lon="11.6375089675958"><ele>929.1666666666666</ele><time>2026-05-02T06:24:32Z</time></trkpt><trkpt lat="43.80133218476679" lon="11.63754677620796"><ele>930.3333333333333</ele><time>2026-05-02T06:24:33Z</time></trkpt><trkpt lat="43.80141049373741" lon="11.637591158104753"><ele>931.5</ele><time>2026-05-02T06:24:34Z</time></trkpt><trkpt lat="43.80147002493747" lon="11.637636310150024"><ele>932.6666666666667</ele><time>2026-05-02T06:24:35Z</time></trkpt><trkpt lat="43.80156572335475" lon="11.637699832771267"><ele>933.8333333333334</ele><time>2026-05-02T06:24:37Z</time></trkpt><trkpt lat="43.80162321175182" lon="11.637756117836872"><ele>935.0</ele><time>2026-05-02T06:24:38Z</time></trkpt><trkpt lat="43.801687130285124" lon="11.637838154235395"><ele>935.0000000000001</ele><time>2026-05-02T06:24:39Z</time></trkpt><trkpt lat="43.8017397703929" lon="11.63791681284841"><ele>935.0</ele><time>2026-05-02T06:24:40Z</time></trkpt><trkpt lat="43.801825238450085" lon="11.638044667690425"><ele>935.0</ele><time>2026-05-02T06:24:42Z</time></trkpt><trkpt lat="43.80187600387481" lon="11.638125424296325"><ele>935.0</ele><time>2026-05-02T06:24:43Z</time></trkpt><trkpt lat="43.8019092078062" lon="11.638219377623395"><ele>935.0000000000001</ele><time>2026-05-02T06:24:44Z</time></trkpt><trkpt lat="43.80194691898072" lon="11.638311051276531"><ele>935.0</ele><time>2026-05-02T06:24:45Z</time></trkpt><trkpt lat="43.8019801348929" lon="11.638398791659368"><ele>933.1666666666667</ele><time>2026-05-02T06:24:46Z</time></trkpt><trkpt lat="43.80201518530175" lon="11.6385025561305"><ele>931.3333333333334</ele><time>2026-05-02T06:24:47Z</time></trkpt><trkpt lat="43.80205395906004" lon="11.63859218538359"><ele>929.5</ele><time>2026-05-02T06:24:48Z</time></trkpt><trkpt lat="43.802093588378064" lon="11.638674567717011"><ele>927.6666666666667</ele><time>2026-05-02T06:24:49Z</time></trkpt><trkpt lat="43.80213545771438" lon="11.63877738615761"><ele>925.8333333333334</ele><time>2026-05-02T06:24:50Z</time></trkpt><trkpt lat="43.802170277722894" lon="11.63887097473325"><ele>924.0</ele><time>2026-05-02T06:24:51Z</time></trkpt><trkpt lat="43.802205653871866" lon="11.638969855356054"><ele>923.8333333333334</ele><time>2026-05-02T06:24:52Z</time></trkpt><trkpt lat="43.80225032580792" lon="11.639058869605611"><ele>923.6666666666667</ele><time>2026-05-02T06:24:53Z</time></trkpt><trkpt lat="43.80228973445562" lon="11.639135546489147"><ele>923.5</ele><time>2026-05-02T06:24:54Z</time></trkpt><trkpt lat="43.802341961685556" lon="11.639198056548059"><ele>923.3333333333334</ele><time>2026-05-02T06:24:55Z</time></trkpt><trkpt lat="43.8023932081412" lon="11.639261720319373"><ele>923.1666666666667</ele><time>2026-05-02T06:24:56Z</time></trkpt><trkpt lat="43.802447753679544" lon="11.639349426911666"><ele>923.0</ele><time>2026-05-02T06:24:57Z</time></trkpt><trkpt lat="43.80248605216146" lon="11.639456450115075"><ele>921.6666666666667</ele><time>2026-05-02T06:24:58Z</time></trkpt><trkpt lat="43.802517448494534" lon="11.639546982411455"><ele>920.3333333333334</ele><time>2026-05-02T06:24:59Z</time></trkpt><trkpt lat="43.80254242438241" lon="11.639630780835391"><ele>919.0</ele><time>2026-05-02T06:25:00Z</time></trkpt><trkpt lat="43.802579046558535" lon="11.639704677722182"><ele>917.6666666666667</ele><time>2026-05-02T06:25:01Z</time></trkpt><trkpt lat="43.802673762818905" lon="11.639800396043768"><ele>916.3333333333334</ele><time>2026-05-02T06:25:03Z</time></trkpt><trkpt lat="43.80277718269486" lon="11.639823610296986"><ele>915.0</ele><time>2026-05-02T06:25:05Z</time></trkpt><trkpt lat="43.80289444182791" lon="11.639841808053895"><ele>914.6666666666666</ele><time>2026-05-02T06:25:07Z</time></trkpt><trkpt lat="43.802961653843745" lon="11.6398537418942"><ele>914.3333333333333</ele><time>2026-05-02T06:25:08Z</time></trkpt><trkpt lat="43.8030277029887" lon="11.639860890017962"><ele>914.0</ele><time>2026-05-02T06:25:09Z</time></trkpt><trkpt lat="43.80308975451318" lon="11.639878161721738"><ele>913.6666666666666</ele><time>2026-05-02T06:25:10Z</time></trkpt><trkpt lat="43.80317787004116" lon="11.639943272468031"><ele>913.3333333333333</ele><time>2026-05-02T06:25:12Z</time></trkpt><trkpt lat="43.80327497969216" lon="11.640000908698307"><ele>913.0</ele><time>2026-05-02T06:25:14Z</time></trkpt><trkpt lat="43.803394465684846" lon="11.640095211661125"><ele>912.9999999999999</ele><time>2026-05-02T06:25:16Z</time></trkpt><trkpt lat="43.80344356839418" lon="11.6401519055774"><ele>913.0</ele><time>2026-05-02T06:25:17Z</time></trkpt><trkpt lat="43.803490447307595" lon="11.640218212838558"><ele>912.9999999999999</ele><time>2026-05-02T06:25:18Z</time></trkpt><trkpt lat="43.80351985603752" lon="11.64029688148913"><ele>912.9999999999999</ele><time>2026-05-02T06:25:19Z</time></trkpt><trkpt lat="43.80355432116336" lon="11.640382679675652"><ele>913.0</ele><time>2026-05-02T06:25:20Z</time></trkpt><trkpt lat="43.803584049241984" lon="11.640469375887994"><ele>912.9999999999999</ele><time>2026-05-02T06:25:21Z</time></trkpt><trkpt lat="43.80360875356346" lon="11.640563048599486"><ele>912.9999999999999</ele><time>2026-05-02T06:25:22Z</time></trkpt><trkpt lat="43.80362295102033" lon="11.640649690315064"><ele>908.4</ele><time>2026-05-02T06:25:23Z</time></trkpt><trkpt lat="43.8036540472639" lon="11.640796267974315"><ele>903.8</ele><time>2026-05-02T06:25:25Z</time></trkpt><trkpt lat="43.803692001374785" lon="11.640937995705348"><ele>899.2</ele><time>2026-05-02T06:25:27Z</time></trkpt><trkpt lat="43.803763132152774" lon="11.6410298934393"><ele>894.6</ele><time>2026-05-02T06:25:29Z</time></trkpt><trkpt lat="43.80378524170047" lon="11.641166123763714"><ele>890.0</ele><time>2026-05-02T06:25:31Z</time></trkpt><trkpt lat="43.80375105838104" lon="11.641304856103424"><ele>890.0000000000001</ele><time>2026-05-02T06:25:33Z</time></trkpt><trkpt lat="43.80376344848087" lon="11.641412433068261"><ele>890.0</ele><time>2026-05-02T06:25:35Z</time></trkpt><trkpt lat="43.8038458789415" lon="11.64150074690334"><ele>890.0</ele><time>2026-05-02T06:25:37Z</time></trkpt><trkpt lat="43.80391053729381" lon="11.641543841931064"><ele>890.0</ele><time>2026-05-02T06:25:38Z</time></trkpt><trkpt lat="43.803978500703785" lon="11.641582366921693"><ele>890.0000000000001</ele><time>2026-05-02T06:25:39Z</time></trkpt><trkpt lat="43.80408201810187" lon="11.641611250103"><ele>890.0</ele><time>2026-05-02T06:25:41Z</time></trkpt><trkpt lat="43.80415644036238" lon="11.641609269632143"><ele>890.0000000000001</ele><time>2026-05-02T06:25:43Z</time></trkpt><trkpt lat="43.804222280894926" lon="11.64169740652312"><ele>890.0</ele><time>2026-05-02T06:25:54Z</time></trkpt><trkpt lat="43.80422378644616" lon="11.641813613766178"><ele>890.0</ele><time>2026-05-02T06:25:56Z</time></trkpt><trkpt lat="43.80421257760674" lon="11.64193368699239"><ele>890.0</ele><time>2026-05-02T06:25:58Z</time></trkpt><trkpt lat="43.804235523851496" lon="11.642083644947515"><ele>890.0000000000001</ele><time>2026-05-02T06:26:00Z</time></trkpt><trkpt lat="43.80425454721449" lon="11.642173002546901"><ele>890.0</ele><time>2026-05-02T06:26:01Z</time></trkpt><trkpt lat="43.80428344432939" lon="11.642264242106526"><ele>885.8333333333334</ele><time>2026-05-02T06:26:02Z</time></trkpt><trkpt lat="43.804333361362936" lon="11.642364565369334"><ele>881.6666666666667</ele><time>2026-05-02T06:26:03Z</time></trkpt><trkpt lat="43.80437135278223" lon="11.64246344750498"><ele>877.5</ele><time>2026-05-02T06:26:04Z</time></trkpt><trkpt lat="43.804390158726186" lon="11.642556827731337"><ele>873.3333333333333</ele><time>2026-05-02T06:26:05Z</time></trkpt><trkpt lat="43.80440203442398" lon="11.642696190142303"><ele>869.1666666666666</ele><time>2026-05-02T06:26:06Z</time></trkpt><trkpt lat="43.804421179275074" lon="11.642823346089461"><ele>865.0</ele><time>2026-05-02T06:26:07Z</time></trkpt><trkpt lat="43.804444340155264" lon="11.642935661197246"><ele>864.9999999999999</ele><time>2026-05-02T06:26:08Z</time></trkpt><trkpt lat="43.804467404748145" lon="11.643030432268748"><ele>865.0</ele><time>2026-05-02T06:26:09Z</time></trkpt><trkpt lat="43.80447595954195" lon="11.643143351293649"><ele>865.0</ele><time>2026-05-02T06:26:10Z</time></trkpt><trkpt lat="43.80447110689908" lon="11.6432583968655"><ele>865.0</ele><time>2026-05-02T06:26:11Z</time></trkpt><trkpt lat="43.8044626422873" lon="11.643345970545216"><ele>864.9999999999999</ele><time>2026-05-02T06:26:12Z</time></trkpt><trkpt lat="43.80445229453265" lon="11.643503208711211"><ele>865.0</ele><time>2026-05-02T06:26:14Z</time></trkpt><trkpt lat="43.804453163315706" lon="11.643671858828881"><ele>863.9999999999999</ele><time>2026-05-02T06:26:16Z</time></trkpt><trkpt lat="43.804443160828505" lon="11.643783286835061"><ele>863.0</ele><time>2026-05-02T06:26:17Z</time></trkpt><trkpt lat="43.80445158594739" lon="11.643884603347226"><ele>862.0</ele><time>2026-05-02T06:26:18Z</time></trkpt><trkpt lat="43.804460309856644" lon="11.64399815703152"><ele>861.0</ele><time>2026-05-02T06:26:19Z</time></trkpt><trkpt lat="43.804474071860504" lon="11.644106459749104"><ele>859.9999999999999</ele><time>2026-05-02T06:26:20Z</time></trkpt><trkpt lat="43.80449903463883" lon="11.644206797570162"><ele>859.0</ele><time>2026-05-02T06:26:21Z</time></trkpt><trkpt lat="43.804498672653345" lon="11.644298731200898"><ele>858.9999999999999</ele><time>2026-05-02T06:26:22Z</time></trkpt><trkpt lat="43.8044742013075" lon="11.644408012160918"><ele>859.0</ele><time>2026-05-02T06:26:23Z</time></trkpt><trkpt lat="43.80445396717555" lon="11.644518781016592"><ele>859.0</ele><time>2026-05-02T06:26:24Z</time></trkpt><trkpt lat="43.80444846675758" lon="11.644625358632295"><ele>859.0</ele><time>2026-05-02T06:26:25Z</time></trkpt><trkpt lat="43.80443779845337" lon="11.644761947130968"><ele>858.9999999999999</ele><time>2026-05-02T06:26:26Z</time></trkpt><trkpt lat="43.80441976313301" lon="11.64490655345475"><ele>859.0</ele><time>2026-05-02T06:26:27Z</time></trkpt><trkpt lat="43.804416064287956" lon="11.645003288824158"><ele>857.9999999999999</ele><time>2026-05-02T06:26:28Z</time></trkpt><trkpt lat="43.8044163006408" lon="11.645125952263912"><ele>857.0</ele><time>2026-05-02T06:26:29Z</time></trkpt><trkpt lat="43.80440109142912" lon="11.645256009574343"><ele>856.0</ele><time>2026-05-02T06:26:30Z</time></trkpt><trkpt lat="43.80439930217981" lon="11.645388063922592"><ele>855.0</ele><time>2026-05-02T06:26:31Z</time></trkpt><trkpt lat="43.80439450711592" lon="11.6454993797576"><ele>853.9999999999999</ele><time>2026-05-02T06:26:32Z</time></trkpt><trkpt lat="43.80438627107341" lon="11.645600472539451"><ele>853.0</ele><time>2026-05-02T06:26:33Z</time></trkpt><trkpt lat="43.80437960345994" lon="11.645689771043962"><ele>852.9999999999999</ele><time>2026-05-02T06:26:35Z</time></trkpt><trkpt lat="43.804410899753776" lon="11.64577026149774"><ele>853.0</ele><time>2026-05-02T06:26:41Z</time></trkpt><trkpt lat="43.80440850016772" lon="11.64586778291129"><ele>853.0</ele><time>2026-05-02T06:26:43Z</time></trkpt><trkpt lat="43.80440175235088" lon="11.645971594079525"><ele>853.0</ele><time>2026-05-02T06:26:45Z</time></trkpt><trkpt lat="43.804419661456414" lon="11.646102110515338"><ele>852.9999999999999</ele><time>2026-05-02T06:26:47Z</time></trkpt><trkpt lat="43.80447599579436" lon="11.646186915329194"><ele>853.0</ele><time>2026-05-02T06:26:49Z</time></trkpt><trkpt lat="43.804560789669765" lon="11.646253794374832"><ele>856.5999999999999</ele><time>2026-05-02T06:26:51Z</time></trkpt><trkpt lat="43.80461065491695" lon="11.646311143459142"><ele>860.1999999999999</ele><time>2026-05-02T06:26:52Z</time></trkpt><trkpt lat="43.804655882963225" lon="11.646435565044541"><ele>863.8</ele><time>2026-05-02T06:26:54Z</time></trkpt><trkpt lat="43.80475591530176" lon="11.646527638557025"><ele>867.4</ele><time>2026-05-02T06:26:56Z</time></trkpt><trkpt lat="43.804819591870604" lon="11.64663376107681"><ele>871.0</ele><time>2026-05-02T06:26:58Z</time></trkpt><trkpt lat="43.80485853977716" lon="11.646797655347266"><ele>870.9999999999999</ele><time>2026-05-02T06:27:00Z</time></trkpt><trkpt lat="43.80489839501946" lon="11.64687640861872"><ele>871.0</ele><time>2026-05-02T06:27:01Z</time></trkpt><trkpt lat="43.80496710829798" lon="11.647008077973634"><ele>871.0</ele><time>2026-05-02T06:27:03Z</time></trkpt><trkpt lat="43.80495915687668" lon="11.647098828076908"><ele>871.0</ele><time>2026-05-02T06:27:04Z</time></trkpt><trkpt lat="43.80495537619578" lon="11.647216858700151"><ele>870.9999999999999</ele><time>2026-05-02T06:27:05Z</time></trkpt><trkpt lat="43.804947015729915" lon="11.647317456977563"><ele>871.0</ele><time>2026-05-02T06:27:06Z</time></trkpt><trkpt lat="43.804931647648445" lon="11.647412426620134"><ele>871.8333333333333</ele><time>2026-05-02T06:27:07Z</time></trkpt><trkpt lat="43.80494124354208" lon="11.64758670620542"><ele>872.6666666666666</ele><time>2026-05-02T06:27:09Z</time></trkpt><trkpt lat="43.80495507338347" lon="11.647689576940625"><ele>873.5</ele><time>2026-05-02T06:27:10Z</time></trkpt><trkpt lat="43.8049659222542" lon="11.647796176157321"><ele>874.3333333333333</ele><time>2026-05-02T06:27:11Z</time></trkpt><trkpt lat="43.80496841926739" lon="11.647894808645814"><ele>875.1666666666666</ele><time>2026-05-02T06:27:12Z</time></trkpt><trkpt lat="43.80498396785702" lon="11.648000180216648"><ele>876.0</ele><time>2026-05-02T06:27:13Z</time></trkpt><trkpt lat="43.805014186518385" lon="11.648145475318708"><ele>876.0</ele><time>2026-05-02T06:27:14Z</time></trkpt><trkpt lat="43.80503456633508" lon="11.648277409497974"><ele>876.0</ele><time>2026-05-02T06:27:15Z</time></trkpt><trkpt lat="43.80505375064384" lon="11.648386118501646"><ele>876.0</ele><time>2026-05-02T06:27:16Z</time></trkpt><trkpt lat="43.80507996289182" lon="11.648476118840845"><ele>876.0</ele><time>2026-05-02T06:27:17Z</time></trkpt><trkpt lat="43.80510322549645" lon="11.648586627030497"><ele>876.0</ele><time>2026-05-02T06:27:18Z</time></trkpt><trkpt lat="43.805132809087425" lon="11.64871752354292"><ele>876.0</ele><time>2026-05-02T06:27:19Z</time></trkpt><trkpt lat="43.805158697044405" lon="11.648854551217886"><ele>876.1666666666666</ele><time>2026-05-02T06:27:20Z</time></trkpt><trkpt lat="43.805166904512035" lon="11.648976637886634"><ele>876.3333333333333</ele><time>2026-05-02T06:27:21Z</time></trkpt><trkpt lat="43.80518281446471" lon="11.649122598686397"><ele>876.5</ele><time>2026-05-02T06:27:23Z</time></trkpt><trkpt lat="43.80522316498794" lon="11.649265778889065"><ele>876.6666666666666</ele><time>2026-05-02T06:27:25Z</time></trkpt><trkpt lat="43.805256171207425" lon="11.649344274558981"><ele>876.8333333333333</ele><time>2026-05-02T06:27:26Z</time></trkpt><trkpt lat="43.8053012608466" lon="11.649418537067538"><ele>877.0</ele><time>2026-05-02T06:27:27Z</time></trkpt><trkpt lat="43.80536305893277" lon="11.649536174493218"><ele>877.0</ele><time>2026-05-02T06:27:28Z</time></trkpt><trkpt lat="43.80541919954457" lon="11.649621803442066"><ele>877.0</ele><time>2026-05-02T06:27:29Z</time></trkpt><trkpt lat="43.805480418510854" lon="11.649712080661022"><ele>877.0</ele><time>2026-05-02T06:27:30Z</time></trkpt><trkpt lat="43.80555549917251" lon="11.649793278124234"><ele>877.0</ele><time>2026-05-02T06:27:32Z</time></trkpt><trkpt lat="43.80566266384473" lon="11.649819119288901"><ele>877.0</ele><time>2026-05-02T06:27:34Z</time></trkpt><trkpt lat="43.80574362056496" lon="11.649884024233653"><ele>877.0</ele><time>2026-05-02T06:27:36Z</time></trkpt><trkpt lat="43.80582241037458" lon="11.649982322151928"><ele>877.0</ele><time>2026-05-02T06:27:38Z</time></trkpt><trkpt lat="43.805847040544464" lon="11.650080121315527"><ele>877.0</ele><time>2026-05-02T06:27:40Z</time></trkpt><trkpt lat="43.805870458979975" lon="11.650198084388691"><ele>877.0</ele><time>2026-05-02T06:27:42Z</time></trkpt><trkpt lat="43.80591250828019" lon="11.650322275577343"><ele>877.0</ele><time>2026-05-02T06:27:44Z</time></trkpt><trkpt lat="43.80592872056652" lon="11.650440528562559"><ele>875.4000000000001</ele><time>2026-05-02T06:27:46Z</time></trkpt><trkpt lat="43.80590361509398" lon="11.65057826240712"><ele>873.8000000000001</ele><time>2026-05-02T06:27:48Z</time></trkpt><trkpt lat="43.805922605991" lon="11.650727328647498"><ele>872.2</ele><time>2026-05-02T06:27:50Z</time></trkpt><trkpt lat="43.80590868368806" lon="11.650886048906962"><ele>870.6</ele><time>2026-05-02T06:27:52Z</time></trkpt><trkpt lat="43.80591895902975" lon="11.651042447031985"><ele>869.0</ele><time>2026-05-02T06:27:54Z</time></trkpt><trkpt lat="43.80598018276592" lon="11.651145176627933"><ele>867.8333333333334</ele><time>2026-05-02T06:27:56Z</time></trkpt><trkpt lat="43.80601061067005" lon="11.651226164720269"><ele>866.6666666666667</ele><time>2026-05-02T06:27:57Z</time></trkpt><trkpt lat="43.80605870983348" lon="11.651354100494055"><ele>865.5</ele><time>2026-05-02T06:27:59Z</time></trkpt><trkpt lat="43.80613199129533" lon="11.651465285193778"><ele>864.3333333333333</ele><time>2026-05-02T06:28:01Z</time></trkpt><trkpt lat="43.80618882489982" lon="11.651532377787145"><ele>863.1666666666666</ele><time>2026-05-02T06:28:02Z</time></trkpt><trkpt lat="43.80625710772156" lon="11.651604459039916"><ele>862.0</ele><time>2026-05-02T06:28:04Z</time></trkpt><trkpt lat="43.806316125275515" lon="11.6517451607116"><ele>861.9999999999999</ele><time>2026-05-02T06:28:06Z</time></trkpt><trkpt lat="43.80637176235869" lon="11.651799137419966"><ele>862.0</ele><time>2026-05-02T06:28:07Z</time></trkpt><trkpt lat="43.80641409263696" lon="11.65189328419815"><ele>862.0</ele><time>2026-05-02T06:28:08Z</time></trkpt><trkpt lat="43.80643709560206" lon="11.651974977748635"><ele>862.0</ele><time>2026-05-02T06:28:09Z</time></trkpt><trkpt lat="43.80644932326928" lon="11.652067426930317"><ele>861.9999999999999</ele><time>2026-05-02T06:28:10Z</time></trkpt><trkpt lat="43.806511601312934" lon="11.652213388220277"><ele>862.0</ele><time>2026-05-02T06:28:12Z</time></trkpt><trkpt lat="43.80655935081517" lon="11.652285916201041"><ele>862.8333333333333</ele><time>2026-05-02T06:28:13Z</time></trkpt><trkpt lat="43.806587873477305" lon="11.652366544086123"><ele>863.6666666666666</ele><time>2026-05-02T06:28:14Z</time></trkpt><trkpt lat="43.806625628264484" lon="11.652437604052343"><ele>864.5</ele><time>2026-05-02T06:28:15Z</time></trkpt><trkpt lat="43.806720722547674" lon="11.652485558190529"><ele>865.3333333333333</ele><time>2026-05-02T06:28:17Z</time></trkpt><trkpt lat="43.806795261753905" lon="11.652489309831212"><ele>866.1666666666666</ele><time>2026-05-02T06:28:19Z</time></trkpt><trkpt lat="43.80685940482507" lon="11.652517437481276"><ele>867.0</ele><time>2026-05-02T06:28:38Z</time></trkpt><trkpt lat="43.80694261764737" lon="11.652520467869603"><ele>867.0</ele><time>2026-05-02T06:28:46Z</time></trkpt><trkpt lat="43.80701746647506" lon="11.652525237793535"><ele>867.0</ele><time>2026-05-02T06:28:49Z</time></trkpt><trkpt lat="43.80709338857439" lon="11.652576915544623"><ele>867.0</ele><time>2026-05-02T06:28:52Z</time></trkpt><trkpt lat="43.807164275648994" lon="11.652656596222656"><ele>867.0</ele><time>2026-05-02T06:28:55Z</time></trkpt><trkpt lat="43.80724797187767" lon="11.652709845474195"><ele>867.0</ele><time>2026-05-02T06:28:57Z</time></trkpt><trkpt lat="43.807326906280984" lon="11.652791408821443"><ele>867.0</ele><time>2026-05-02T06:28:59Z</time></trkpt><trkpt lat="43.80737253502103" lon="11.652910049029558"><ele>867.6666666666666</ele><time>2026-05-02T06:29:01Z</time></trkpt><trkpt lat="43.80738952180015" lon="11.652994306745523"><ele>868.3333333333333</ele><time>2026-05-02T06:29:02Z</time></trkpt><trkpt lat="43.80742352599996" lon="11.6531441141565"><ele>869.0</ele><time>2026-05-02T06:29:04Z</time></trkpt><trkpt lat="43.80746527507378" lon="11.653211721537494"><ele>869.6666666666666</ele><time>2026-05-02T06:29:05Z</time></trkpt><trkpt lat="43.80752808204801" lon="11.653264492491305"><ele>870.3333333333333</ele><time>2026-05-02T06:29:06Z</time></trkpt><trkpt lat="43.80762786468467" lon="11.653369195665347"><ele>871.0</ele><time>2026-05-02T06:29:08Z</time></trkpt><trkpt lat="43.80774943324147" lon="11.653407474210761"><ele>867.4</ele><time>2026-05-02T06:29:10Z</time></trkpt><trkpt lat="43.807820320291235" lon="11.653408656899398"><ele>863.8</ele><time>2026-05-02T06:29:11Z</time></trkpt><trkpt lat="43.80790291796091" lon="11.653419375091678"><ele>860.1999999999999</ele><time>2026-05-02T06:29:12Z</time></trkpt><trkpt lat="43.80797647908548" lon="11.65341650990599"><ele>856.5999999999999</ele><time>2026-05-02T06:29:13Z</time></trkpt><trkpt lat="43.808094602698716" lon="11.653479908880701"><ele>853.0</ele><time>2026-05-02T06:29:15Z</time></trkpt><trkpt lat="43.80822040961576" lon="11.653520088283095"><ele>853.0</ele><time>2026-05-02T06:29:17Z</time></trkpt><trkpt lat="43.80828825121586" lon="11.653552978791025"><ele>853.0</ele><time>2026-05-02T06:29:18Z</time></trkpt><trkpt lat="43.808427398263156" lon="11.653592364361051"><ele>853.0</ele><time>2026-05-02T06:29:20Z</time></trkpt><trkpt lat="43.808482825282624" lon="11.65363899032185"><ele>853.0</ele><time>2026-05-02T06:29:21Z</time></trkpt><trkpt lat="43.808578454641825" lon="11.653674463158104"><ele>853.0</ele><time>2026-05-02T06:29:23Z</time></trkpt><trkpt lat="43.80867687004042" lon="11.653669099103864"><ele>848.5999999999999</ele><time>2026-05-02T06:29:26Z</time></trkpt><trkpt lat="43.808783285997606" lon="11.65360344023588"><ele>844.1999999999999</ele><time>2026-05-02T06:29:28Z</time></trkpt><trkpt lat="43.808851743992825" lon="11.65359374136616"><ele>839.8</ele><time>2026-05-02T06:29:29Z</time></trkpt><trkpt lat="43.808965766373284" lon="11.653618400104401"><ele>835.4</ele><time>2026-05-02T06:29:31Z</time></trkpt><trkpt lat="43.80904017757663" lon="11.65363621953899"><ele>831.0</ele><time>2026-05-02T06:29:32Z</time></trkpt><trkpt lat="43.8091192529805" lon="11.653644268119482"><ele>830.9999999999999</ele><time>2026-05-02T06:29:33Z</time></trkpt><trkpt lat="43.809191265987494" lon="11.653619202040682"><ele>831.0</ele><time>2026-05-02T06:29:34Z</time></trkpt><trkpt lat="43.80925821295103" lon="11.653604205350733"><ele>831.0</ele><time>2026-05-02T06:29:35Z</time></trkpt><trkpt lat="43.80932089573708" lon="11.653565319815131"><ele>831.0</ele><time>2026-05-02T06:29:36Z</time></trkpt><trkpt lat="43.80938563971147" lon="11.65350742480684"><ele>831.0</ele><time>2026-05-02T06:29:38Z</time></trkpt><trkpt lat="43.80943937644455" lon="11.653450187769376"><ele>830.9999999999999</ele><time>2026-05-02T06:30:01Z</time></trkpt><trkpt lat="43.80947716859778" lon="11.653348364661332"><ele>831.0</ele><time>2026-05-02T06:30:05Z</time></trkpt><trkpt lat="43.80952037808435" lon="11.653208779755628"><ele>828.0</ele><time>2026-05-02T06:30:07Z</time></trkpt><trkpt lat="43.809564976991624" lon="11.653141949037387"><ele>825.0</ele><time>2026-05-02T06:30:09Z</time></trkpt><trkpt lat="43.809635002003986" lon="11.653140552905606"><ele>822.0</ele><time>2026-05-02T06:30:12Z</time></trkpt><trkpt lat="43.809669652325525" lon="11.653256905672013"><ele>819.0</ele><time>2026-05-02T06:30:16Z</time></trkpt><trkpt lat="43.80969167486616" lon="11.653374190884684"><ele>816.0</ele><time>2026-05-02T06:30:18Z</time></trkpt><trkpt lat="43.80970042378286" lon="11.653471232467995"><ele>813.0</ele><time>2026-05-02T06:30:20Z</time></trkpt><trkpt lat="43.80971013643709" lon="11.65363238362286"><ele>813.0</ele><time>2026-05-02T06:30:22Z</time></trkpt><trkpt lat="43.8097446279178" lon="11.653764365165715"><ele>813.0</ele><time>2026-05-02T06:30:24Z</time></trkpt><trkpt lat="43.80980423745063" lon="11.653857838144786"><ele>813.0</ele><time>2026-05-02T06:30:26Z</time></trkpt><trkpt lat="43.809865022821015" lon="11.653946611006257"><ele>813.0</ele><time>2026-05-02T06:30:28Z</time></trkpt><trkpt lat="43.80991458443365" lon="11.654053787479254"><ele>813.0</ele><time>2026-05-02T06:30:30Z</time></trkpt><trkpt lat="43.80996819612659" lon="11.654149214905077"><ele>813.0</ele><time>2026-05-02T06:30:32Z</time></trkpt><trkpt lat="43.8100327899962" lon="11.654254808984662"><ele>813.0</ele><time>2026-05-02T06:30:34Z</time></trkpt><trkpt lat="43.81010076656641" lon="11.654316093505741"><ele>813.0</ele><time>2026-05-02T06:30:36Z</time></trkpt><trkpt lat="43.81017762916177" lon="11.654374052424354"><ele>813.0</ele><time>2026-05-02T06:30:38Z</time></trkpt><trkpt lat="43.81026033141339" lon="11.654448611020548"><ele>813.0</ele><time>2026-05-02T06:30:40Z</time></trkpt><trkpt lat="43.810324506596636" lon="11.654570069875891"><ele>809.8</ele><time>2026-05-02T06:30:42Z</time></trkpt><trkpt lat="43.81036962810616" lon="11.654676139165266"><ele>806.5999999999999</ele><time>2026-05-02T06:30:44Z</time></trkpt><trkpt lat="43.810386657797544" lon="11.65476330570681"><ele>803.4000000000001</ele><time>2026-05-02T06:30:57Z</time></trkpt><trkpt lat="43.81047416431993" lon="11.654890127454513"><ele>800.2</ele><time>2026-05-02T06:30:59Z</time></trkpt><trkpt lat="43.810577020012104" lon="11.654996609705746"><ele>797.0</ele><time>2026-05-02T06:31:01Z</time></trkpt><trkpt lat="43.81066840322566" lon="11.655133154477602"><ele>797.0</ele><time>2026-05-02T06:31:03Z</time></trkpt><trkpt lat="43.81076985060836" lon="11.65523097057379"><ele>797.0</ele><time>2026-05-02T06:31:05Z</time></trkpt><trkpt lat="43.8108743553727" lon="11.655327234513042"><ele>797.0</ele><time>2026-05-02T06:31:07Z</time></trkpt><trkpt lat="43.81098046247676" lon="11.655383580668722"><ele>797.0</ele><time>2026-05-02T06:31:09Z</time></trkpt><trkpt lat="43.81106292136626" lon="11.655441381518862"><ele>793.8</ele><time>2026-05-02T06:31:11Z</time></trkpt><trkpt lat="43.81113975018535" lon="11.655500912082832"><ele>790.6</ele><time>2026-05-02T06:31:13Z</time></trkpt><trkpt lat="43.8112354038922" lon="11.655566743325453"><ele>787.4</ele><time>2026-05-02T06:31:15Z</time></trkpt><trkpt lat="43.811334138740264" lon="11.655662732254982"><ele>784.1999999999999</ele><time>2026-05-02T06:31:17Z</time></trkpt><trkpt lat="43.81139891879304" lon="11.655784071601747"><ele>781.0</ele><time>2026-05-02T06:31:19Z</time></trkpt><trkpt lat="43.81143091231624" lon="11.655869514055688"><ele>780.9999999999999</ele><time>2026-05-02T06:31:20Z</time></trkpt><trkpt lat="43.8114573587717" lon="11.655960998164417"><ele>781.0</ele><time>2026-05-02T06:31:21Z</time></trkpt><trkpt lat="43.811515979167076" lon="11.656098325804967"><ele>781.0</ele><time>2026-05-02T06:31:23Z</time></trkpt><trkpt lat="43.81158158666659" lon="11.65615797141256"><ele>781.0</ele><time>2026-05-02T06:31:25Z</time></trkpt><trkpt lat="43.81163967949576" lon="11.65619961964486"><ele>780.9999999999999</ele><time>2026-05-02T06:31:28Z</time></trkpt><trkpt lat="43.811757164682845" lon="11.656226066873494"><ele>781.0</ele><time>2026-05-02T06:31:30Z</time></trkpt><trkpt lat="43.811816177209046" lon="11.656183494512922"><ele>778.8333333333333</ele><time>2026-05-02T06:31:31Z</time></trkpt><trkpt lat="43.81191846929716" lon="11.65612559336279"><ele>776.6666666666666</ele><time>2026-05-02T06:31:33Z</time></trkpt><trkpt lat="43.81201681038629" lon="11.656128631489791"><ele>774.5</ele><time>2026-05-02T06:31:35Z</time></trkpt><trkpt lat="43.812075004087646" lon="11.656182365849462"><ele>772.3333333333333</ele><time>2026-05-02T06:31:37Z</time></trkpt><trkpt lat="43.81206273856136" lon="11.656288515872037"><ele>770.1666666666666</ele><time>2026-05-02T06:31:40Z</time></trkpt><trkpt lat="43.8119816206179" lon="11.656350493762355"><ele>768.0</ele><time>2026-05-02T06:31:42Z</time></trkpt><trkpt lat="43.811863214763235" lon="11.656434702053259"><ele>767.9999999999999</ele><time>2026-05-02T06:31:44Z</time></trkpt><trkpt lat="43.8118040601286" lon="11.656476745289583"><ele>768.0</ele><time>2026-05-02T06:31:45Z</time></trkpt><trkpt lat="43.81173749056881" lon="11.656491522910997"><ele>768.0</ele><time>2026-05-02T06:31:46Z</time></trkpt><trkpt lat="43.81166777667589" lon="11.656517678090346"><ele>768.0</ele><time>2026-05-02T06:31:47Z</time></trkpt><trkpt lat="43.81159404214831" lon="11.656533172516918"><ele>768.0</ele><time>2026-05-02T06:31:48Z</time></trkpt><trkpt lat="43.811529107308075" lon="11.656562756655877"><ele>767.9999999999999</ele><time>2026-05-02T06:31:49Z</time></trkpt><trkpt lat="43.8114532948417" lon="11.656571730575303"><ele>768.0</ele><time>2026-05-02T06:31:50Z</time></trkpt><trkpt lat="43.8113648748658" lon="11.65656914971995"><ele>768.0</ele><time>2026-05-02T06:31:51Z</time></trkpt><trkpt lat="43.81128088773381" lon="11.656592334138344"><ele>768.0</ele><time>2026-05-02T06:31:52Z</time></trkpt><trkpt lat="43.811209903378035" lon="11.65664680296027"><ele>768.0</ele><time>2026-05-02T06:31:53Z</time></trkpt><trkpt lat="43.81110831148419" lon="11.656671649822485"><ele>768.0</ele><time>2026-05-02T06:31:54Z</time></trkpt><trkpt lat="43.81101399695046" lon="11.656712624354656"><ele>768.0</ele><time>2026-05-02T06:31:55Z</time></trkpt><trkpt lat="43.81093998014149" lon="11.656749790116555"><ele>768.0</ele><time>2026-05-02T06:31:56Z</time></trkpt><trkpt lat="43.81087146554911" lon="11.656745965217183"><ele>769.4</ele><time>2026-05-02T06:32:02Z</time></trkpt><trkpt lat="43.810742154217344" lon="11.656748884480658"><ele>770.8</ele><time>2026-05-02T06:32:04Z</time></trkpt><trkpt lat="43.81065244173812" lon="11.656752809879155"><ele>772.2</ele><time>2026-05-02T06:32:05Z</time></trkpt><trkpt lat="43.81056143658829" lon="11.656751204603838"><ele>773.6</ele><time>2026-05-02T06:32:06Z</time></trkpt><trkpt lat="43.810477676331686" lon="11.65674727834271"><ele>775.0</ele><time>2026-05-02T06:32:07Z</time></trkpt><trkpt lat="43.81040335532694" lon="11.65674227040721"><ele>775.0</ele><time>2026-05-02T06:32:08Z</time></trkpt><trkpt lat="43.81048560751711" lon="11.656747650117014"><ele>775.0</ele><time>2026-05-02T06:32:20Z</time></trkpt><trkpt lat="43.810582795178725" lon="11.656752205786379"><ele>775.0</ele><time>2026-05-02T06:32:22Z</time></trkpt><trkpt lat="43.81072595734555" lon="11.656752809880635"><ele>775.0</ele><time>2026-05-02T06:32:24Z</time></trkpt><trkpt lat="43.810805914651496" lon="11.656746018076252"><ele>775.0</ele><time>2026-05-02T06:32:25Z</time></trkpt><trkpt lat="43.81087729487979" lon="11.656742739992286"><ele>774.9999999999999</ele><time>2026-05-02T06:32:26Z</time></trkpt><trkpt lat="43.81094156771393" lon="11.656739788307652"><ele>775.0</ele><time>2026-05-02T06:32:27Z</time></trkpt><trkpt lat="43.811003655477876" lon="11.656756705124874"><ele>775.0</ele><time>2026-05-02T06:32:28Z</time></trkpt><trkpt lat="43.81111509915246" lon="11.656704345581456"><ele>775.0</ele><time>2026-05-02T06:32:30Z</time></trkpt><trkpt lat="43.81119893715302" lon="11.656704965968848"><ele>774.9999999999999</ele><time>2026-05-02T06:32:32Z</time></trkpt><trkpt lat="43.81127961085141" lon="11.656701261088909"><ele>775.0</ele><time>2026-05-02T06:32:35Z</time></trkpt><trkpt lat="43.81118889548347" lon="11.656728429947892"><ele>775.0</ele><time>2026-05-02T06:32:44Z</time></trkpt><trkpt lat="43.811097012901655" lon="11.656732649580727"><ele>775.0</ele><time>2026-05-02T06:32:47Z</time></trkpt><trkpt lat="43.81100347086573" lon="11.656736945422832"><ele>775.0</ele><time>2026-05-02T06:32:49Z</time></trkpt><trkpt lat="43.81091624614698" lon="11.65674095114687"><ele>775.0</ele><time>2026-05-02T06:32:51Z</time></trkpt><trkpt lat="43.81081268698597" lon="11.656745707014018"><ele>775.0</ele><time>2026-05-02T06:32:53Z</time></trkpt><trkpt lat="43.8107550046045" lon="11.657256556571332"><ele>771.1666666666666</ele><time>2026-05-02T06:32:54Z</time></trkpt><trkpt lat="43.81069961850136" lon="11.657315976469071"><ele>767.3333333333333</ele><time>2026-05-02T06:32:55Z</time></trkpt><trkpt lat="43.810652263666455" lon="11.65738084717666"><ele>763.5</ele><time>2026-05-02T06:32:56Z</time></trkpt><trkpt lat="43.81058525716166" lon="11.657463524910295"><ele>759.6666666666666</ele><time>2026-05-02T06:32:58Z</time></trkpt><trkpt lat="43.81051189154024" lon="11.657597151158944"><ele>755.8333333333333</ele><time>2026-05-02T06:33:00Z</time></trkpt><trkpt lat="43.81046884324586" lon="11.657684838241748"><ele>752.0</ele><time>2026-05-02T06:33:01Z</time></trkpt><trkpt lat="43.81041727191089" lon="11.65775778245259"><ele>751.0</ele><time>2026-05-02T06:33:02Z</time></trkpt><trkpt lat="43.81035863084435" lon="11.65782339800085"><ele>750.0</ele><time>2026-05-02T06:33:03Z</time></trkpt><trkpt lat="43.81030101034758" lon="11.657894728841994"><ele>749.0</ele><time>2026-05-02T06:33:04Z</time></trkpt><trkpt lat="43.810241453863746" lon="11.657956860424688"><ele>748.0</ele><time>2026-05-02T06:33:05Z</time></trkpt><trkpt lat="43.81017410433304" lon="11.65803293349984"><ele>747.0</ele><time>2026-05-02T06:33:06Z</time></trkpt><trkpt lat="43.81011101034548" lon="11.65808432101244"><ele>746.0</ele><time>2026-05-02T06:33:07Z</time></trkpt><trkpt lat="43.810023216467805" lon="11.658184590632343"><ele>746.0</ele><time>2026-05-02T06:33:09Z</time></trkpt><trkpt lat="43.809993573725016" lon="11.658268226377583"><ele>746.0</ele><time>2026-05-02T06:33:11Z</time></trkpt><trkpt lat="43.81000514553112" lon="11.658372952544758"><ele>746.0</ele><time>2026-05-02T06:33:15Z</time></trkpt><trkpt lat="43.80997541816193" lon="11.658471814623763"><ele>746.0</ele><time>2026-05-02T06:33:17Z</time></trkpt><trkpt lat="43.80991108362899" lon="11.658580845442671"><ele>746.0</ele><time>2026-05-02T06:33:19Z</time></trkpt><trkpt lat="43.809827361885056" lon="11.658721402336743"><ele>741.8</ele><time>2026-05-02T06:33:21Z</time></trkpt><trkpt lat="43.80977850543825" lon="11.65880469818598"><ele>737.5999999999999</ele><time>2026-05-02T06:33:22Z</time></trkpt><trkpt lat="43.80973215370577" lon="11.658883726644778"><ele>733.4</ele><time>2026-05-02T06:33:23Z</time></trkpt><trkpt lat="43.80967959850521" lon="11.659028648377118"><ele>729.2</ele><time>2026-05-02T06:33:25Z</time></trkpt><trkpt lat="43.809637810389475" lon="11.65919551530377"><ele>725.0</ele><time>2026-05-02T06:33:27Z</time></trkpt><trkpt lat="43.80961674858776" lon="11.65929189904244"><ele>725.0</ele><time>2026-05-02T06:33:28Z</time></trkpt><trkpt lat="43.80957947355928" lon="11.659376996384548"><ele>725.0</ele><time>2026-05-02T06:33:29Z</time></trkpt><trkpt lat="43.80950931147134" lon="11.659523347252785"><ele>725.0</ele><time>2026-05-02T06:33:31Z</time></trkpt><trkpt lat="43.80946585320462" lon="11.65960732898451"><ele>725.0</ele><time>2026-05-02T06:33:32Z</time></trkpt><trkpt lat="43.80941195321467" lon="11.659679406645546"><ele>725.0</ele><time>2026-05-02T06:33:33Z</time></trkpt><trkpt lat="43.80935987893072" lon="11.659735876330089"><ele>725.0</ele><time>2026-05-02T06:33:34Z</time></trkpt><trkpt lat="43.809295097811365" lon="11.659793541826918"><ele>724.6666666666666</ele><time>2026-05-02T06:33:35Z</time></trkpt><trkpt lat="43.809225425545236" lon="11.659861466654615"><ele>724.3333333333333</ele><time>2026-05-02T06:33:36Z</time></trkpt><trkpt lat="43.80916588696419" lon="11.659924153277135"><ele>724.0</ele><time>2026-05-02T06:33:37Z</time></trkpt><trkpt lat="43.80911033937863" lon="11.659997510946354"><ele>723.6666666666666</ele><time>2026-05-02T06:33:38Z</time></trkpt><trkpt lat="43.80905497427384" lon="11.660049159687967"><ele>723.3333333333334</ele><time>2026-05-02T06:33:39Z</time></trkpt><trkpt lat="43.808984228186915" lon="11.660095051496597"><ele>723.0</ele><time>2026-05-02T06:33:41Z</time></trkpt><trkpt lat="43.80891579078904" lon="11.660189373192448"><ele>723.0</ele><time>2026-05-02T06:33:50Z</time></trkpt><trkpt lat="43.80882757092946" lon="11.66023396937896"><ele>723.0</ele><time>2026-05-02T06:33:52Z</time></trkpt><trkpt lat="43.80876617245006" lon="11.660294521488193"><ele>723.0</ele><time>2026-05-02T06:33:53Z</time></trkpt><trkpt lat="43.808699781308945" lon="11.660310386786675"><ele>723.0</ele><time>2026-05-02T06:33:54Z</time></trkpt><trkpt lat="43.808593253503005" lon="11.660381209893323"><ele>723.0</ele><time>2026-05-02T06:33:56Z</time></trkpt><trkpt lat="43.8085080350929" lon="11.660413508635196"><ele>723.0</ele><time>2026-05-02T06:33:58Z</time></trkpt><trkpt lat="43.808442660597954" lon="11.660355717443121"><ele>721.4</ele><time>2026-05-02T06:34:00Z</time></trkpt><trkpt lat="43.80841269408878" lon="11.660217917940974"><ele>719.8</ele><time>2026-05-02T06:34:02Z</time></trkpt><trkpt lat="43.808393644354354" lon="11.660090499059686"><ele>718.2</ele><time>2026-05-02T06:34:04Z</time></trkpt><trkpt lat="43.80835732473573" lon="11.65996458650914"><ele>716.6</ele><time>2026-05-02T06:34:06Z</time></trkpt><trkpt lat="43.808292736219755" lon="11.659867283893078"><ele>715.0</ele><time>2026-05-02T06:34:08Z</time></trkpt><trkpt lat="43.80823062305772" lon="11.65983024577099"><ele>715.0</ele><time>2026-05-02T06:34:09Z</time></trkpt><trkpt lat="43.808139953842726" lon="11.659853815971417"><ele>715.0</ele><time>2026-05-02T06:34:12Z</time></trkpt><trkpt lat="43.808108192696" lon="11.659944971757216"><ele>715.0</ele><time>2026-05-02T06:34:23Z</time></trkpt><trkpt lat="43.808046665655546" lon="11.660021318419345"><ele>715.0</ele><time>2026-05-02T06:34:28Z</time></trkpt><trkpt lat="43.808012164024206" lon="11.660127764701901"><ele>715.0</ele><time>2026-05-02T06:34:31Z</time></trkpt><trkpt lat="43.807953933042086" lon="11.660233387073859"><ele>715.0</ele><time>2026-05-02T06:34:35Z</time></trkpt><trkpt lat="43.807883637384236" lon="11.660299426481412"><ele>713.8</ele><time>2026-05-02T06:34:37Z</time></trkpt><trkpt lat="43.80781349670675" lon="11.660394464567762"><ele>712.6</ele><time>2026-05-02T06:34:39Z</time></trkpt><trkpt lat="43.807727995595016" lon="11.660454959085452"><ele>711.4000000000001</ele><time>2026-05-02T06:34:41Z</time></trkpt><trkpt lat="43.80764435511381" lon="11.660461884458785"><ele>710.2</ele><time>2026-05-02T06:34:43Z</time></trkpt><trkpt lat="43.80754921672205" lon="11.66041741557477"><ele>709.0</ele><time>2026-05-02T06:34:45Z</time></trkpt><trkpt lat="43.80747367111097" lon="11.660347779434149"><ele>706.3333333333334</ele><time>2026-05-02T06:34:47Z</time></trkpt><trkpt lat="43.807399382204984" lon="11.660322977319383"><ele>703.6666666666667</ele><time>2026-05-02T06:34:49Z</time></trkpt><trkpt lat="43.80732294085893" lon="11.660426866448665"><ele>701.0</ele><time>2026-05-02T06:34:51Z</time></trkpt><trkpt lat="43.807265587471825" lon="11.66051938807063"><ele>698.3333333333334</ele><time>2026-05-02T06:34:53Z</time></trkpt><trkpt lat="43.807212599075115" lon="11.66064621422209"><ele>695.6666666666666</ele><time>2026-05-02T06:34:55Z</time></trkpt><trkpt lat="43.80718203086173" lon="11.660729606918506"><ele>693.0</ele><time>2026-05-02T06:34:56Z</time></trkpt><trkpt lat="43.807153639864886" lon="11.660818325571515"><ele>693.0</ele><time>2026-05-02T06:34:57Z</time></trkpt><trkpt lat="43.807130086450115" lon="11.660986427328162"><ele>693.0</ele><time>2026-05-02T06:34:59Z</time></trkpt><trkpt lat="43.80710625615155" lon="11.661121262215698"><ele>693.0</ele><time>2026-05-02T06:35:01Z</time></trkpt><trkpt lat="43.807061116807944" lon="11.661197116182233"><ele>693.0</ele><time>2026-05-02T06:35:03Z</time></trkpt><trkpt lat="43.80698940493776" lon="11.661273912761022"><ele>693.0</ele><time>2026-05-02T06:35:05Z</time></trkpt><trkpt lat="43.80693260621021" lon="11.661377868864312"><ele>692.3333333333334</ele><time>2026-05-02T06:35:07Z</time></trkpt><trkpt lat="43.80693152783312" lon="11.661508399419606"><ele>691.6666666666666</ele><time>2026-05-02T06:35:09Z</time></trkpt><trkpt lat="43.80692825179665" lon="11.661598757062778"><ele>691.0</ele><time>2026-05-02T06:35:10Z</time></trkpt><trkpt lat="43.806915711599316" lon="11.66175686588998"><ele>690.3333333333333</ele><time>2026-05-02T06:35:12Z</time></trkpt><trkpt lat="43.80690950158968" lon="11.661849122137717"><ele>689.6666666666666</ele><time>2026-05-02T06:35:13Z</time></trkpt><trkpt lat="43.8069094656014" lon="11.661943443137844"><ele>689.0</ele><time>2026-05-02T06:35:14Z</time></trkpt><trkpt lat="43.80691554729391" lon="11.662033103188216"><ele>687.4000000000001</ele><time>2026-05-02T06:35:15Z</time></trkpt><trkpt lat="43.80692255864082" lon="11.662184968886914"><ele>685.8</ele><time>2026-05-02T06:35:17Z</time></trkpt><trkpt lat="43.80693192525595" lon="11.662323907185064"><ele>684.2</ele><time>2026-05-02T06:35:19Z</time></trkpt><trkpt lat="43.80691150728465" lon="11.662485113868646"><ele>682.5999999999999</ele><time>2026-05-02T06:35:21Z</time></trkpt><trkpt lat="43.806849640148165" lon="11.662583519076378"><ele>681.0</ele><time>2026-05-02T06:35:23Z</time></trkpt><trkpt lat="43.806784437424085" lon="11.662611960919046"><ele>678.8</ele><time>2026-05-02T06:35:24Z</time></trkpt><trkpt lat="43.80671045459299" lon="11.66262529796643"><ele>676.5999999999999</ele><time>2026-05-02T06:35:25Z</time></trkpt><trkpt lat="43.8066058202022" lon="11.662549812671292"><ele>674.4</ele><time>2026-05-02T06:35:27Z</time></trkpt><trkpt lat="43.80651812557557" lon="11.662441989059602"><ele>672.2</ele><time>2026-05-02T06:35:29Z</time></trkpt><trkpt lat="43.806468997428574" lon="11.662303880333676"><ele>670.0</ele><time>2026-05-02T06:35:31Z</time></trkpt><trkpt lat="43.80638183086112" lon="11.662200353078486"><ele>670.0</ele><time>2026-05-02T06:35:33Z</time></trkpt><trkpt lat="43.80626543823616" lon="11.662184139020937"><ele>670.0</ele><time>2026-05-02T06:35:35Z</time></trkpt><trkpt lat="43.80622620408834" lon="11.662257419629194"><ele>670.0</ele><time>2026-05-02T06:35:36Z</time></trkpt><trkpt lat="43.80617899089739" lon="11.662389542949589"><ele>670.0</ele><time>2026-05-02T06:35:38Z</time></trkpt><trkpt lat="43.80616884372541" lon="11.662525213593943"><ele>670.0</ele><time>2026-05-02T06:35:40Z</time></trkpt><trkpt lat="43.80619470175468" lon="11.662615341447125"><ele>670.0</ele><time>2026-05-02T06:35:42Z</time></trkpt><trkpt lat="43.806199851181624" lon="11.662722773011877"><ele>670.0</ele><time>2026-05-02T06:35:44Z</time></trkpt><trkpt lat="43.80617464904033" lon="11.662807170218944"><ele>670.0</ele><time>2026-05-02T06:35:46Z</time></trkpt><trkpt lat="43.80615731257611" lon="11.662953256540169"><ele>670.0</ele><time>2026-05-02T06:35:49Z</time></trkpt><trkpt lat="43.80618935078404" lon="11.663029765452405"><ele>670.0</ele><time>2026-05-02T06:35:51Z</time></trkpt><trkpt lat="43.80623980095693" lon="11.66309724997982"><ele>670.0</ele><time>2026-05-02T06:35:53Z</time></trkpt><trkpt lat="43.806291984718" lon="11.66315424705901"><ele>669.1666666666667</ele><time>2026-05-02T06:35:56Z</time></trkpt><trkpt lat="43.80634618112972" lon="11.663219494246682"><ele>668.3333333333334</ele><time>2026-05-02T06:35:59Z</time></trkpt><trkpt lat="43.806397176558306" lon="11.663284594499343"><ele>667.5</ele><time>2026-05-02T06:36:01Z</time></trkpt><trkpt lat="43.806482277336706" lon="11.66334910488903"><ele>666.6666666666666</ele><time>2026-05-02T06:36:05Z</time></trkpt><trkpt lat="43.80656806640625" lon="11.66341928464958"><ele>665.8333333333333</ele><time>2026-05-02T06:36:08Z</time></trkpt><trkpt lat="43.80663920545717" lon="11.66350917286603"><ele>665.0</ele><time>2026-05-02T06:36:10Z</time></trkpt><trkpt lat="43.80672055605116" lon="11.66359976773648"><ele>666.2</ele><time>2026-05-02T06:36:12Z</time></trkpt><trkpt lat="43.806781580495496" lon="11.663672395956716"><ele>667.4</ele><time>2026-05-02T06:36:15Z</time></trkpt><trkpt lat="43.80688719856197" lon="11.663695251525974"><ele>668.5999999999999</ele><time>2026-05-02T06:36:18Z</time></trkpt><trkpt lat="43.806988631549416" lon="11.663715888554862"><ele>669.8</ele><time>2026-05-02T06:36:20Z</time></trkpt><trkpt lat="43.80707226305525" lon="11.663781401984028"><ele>671.0</ele><time>2026-05-02T06:36:23Z</time></trkpt><trkpt lat="43.807122675074694" lon="11.66388927980161"><ele>671.0</ele><time>2026-05-02T06:36:25Z</time></trkpt><trkpt lat="43.80716404391167" lon="11.66402155955993"><ele>671.0</ele><time>2026-05-02T06:36:27Z</time></trkpt><trkpt lat="43.807272026606206" lon="11.664086704884706"><ele>671.0</ele><time>2026-05-02T06:36:30Z</time></trkpt><trkpt lat="43.80739317100065" lon="11.664082995036573"><ele>671.0</ele><time>2026-05-02T06:36:32Z</time></trkpt><trkpt lat="43.807509971387525" lon="11.664113807566379"><ele>671.0</ele><time>2026-05-02T06:36:34Z</time></trkpt><trkpt lat="43.80756569720447" lon="11.664159325342341"><ele>671.0</ele><time>2026-05-02T06:36:35Z</time></trkpt><trkpt lat="43.80762757854683" lon="11.664206434859588"><ele>671.0</ele><time>2026-05-02T06:36:36Z</time></trkpt><trkpt lat="43.80768691418478" lon="11.664240190684184"><ele>671.0</ele><time>2026-05-02T06:36:37Z</time></trkpt><trkpt lat="43.807751540136906" lon="11.664264961141058"><ele>671.0</ele><time>2026-05-02T06:36:38Z</time></trkpt><trkpt lat="43.80786114442125" lon="11.664269158113498"><ele>671.0</ele><time>2026-05-02T06:36:40Z</time></trkpt><trkpt lat="43.80795012827279" lon="11.664228816206515"><ele>671.5999999999999</ele><time>2026-05-02T06:36:42Z</time></trkpt><trkpt lat="43.808054358831825" lon="11.664185789381241"><ele>672.2</ele><time>2026-05-02T06:36:44Z</time></trkpt><trkpt lat="43.80812977720531" lon="11.664121211375704"><ele>672.8</ele><time>2026-05-02T06:36:46Z</time></trkpt><trkpt lat="43.808190627433824" lon="11.66406494790189"><ele>673.4000000000001</ele><time>2026-05-02T06:36:48Z</time></trkpt><trkpt lat="43.80830407120888" lon="11.66403626223612"><ele>674.0</ele><time>2026-05-02T06:36:50Z</time></trkpt><trkpt lat="43.808400944475444" lon="11.66397815153804"><ele>674.0</ele><time>2026-05-02T06:36:52Z</time></trkpt><trkpt lat="43.80845581809991" lon="11.663929271028685"><ele>674.0</ele><time>2026-05-02T06:36:53Z</time></trkpt><trkpt lat="43.808581798351725" lon="11.663952189562748"><ele>674.0</ele><time>2026-05-02T06:36:55Z</time></trkpt><trkpt lat="43.808655060942726" lon="11.663994231806827"><ele>674.0</ele><time>2026-05-02T06:36:56Z</time></trkpt><trkpt lat="43.80872609312459" lon="11.664013559278379"><ele>674.0</ele><time>2026-05-02T06:36:57Z</time></trkpt><trkpt lat="43.808842362717684" lon="11.66406184932124"><ele>671.8333333333333</ele><time>2026-05-02T06:36:59Z</time></trkpt><trkpt lat="43.80891346213449" lon="11.664088679121194"><ele>669.6666666666666</ele><time>2026-05-02T06:37:00Z</time></trkpt><trkpt lat="43.80898490186645" lon="11.66412328304996"><ele>667.5</ele><time>2026-05-02T06:37:01Z</time></trkpt><trkpt lat="43.809057167451876" lon="11.664152704227401"><ele>665.3333333333334</ele><time>2026-05-02T06:37:02Z</time></trkpt><trkpt lat="43.809170432537464" lon="11.664207332678524"><ele>663.1666666666667</ele><time>2026-05-02T06:37:04Z</time></trkpt><trkpt lat="43.8092550930586" lon="11.664229263505268"><ele>661.0</ele><time>2026-05-02T06:37:05Z</time></trkpt><trkpt lat="43.80933904075083" lon="11.664257169625955"><ele>661.5</ele><time>2026-05-02T06:37:06Z</time></trkpt><trkpt lat="43.80941833441351" lon="11.664298331713765"><ele>662.0</ele><time>2026-05-02T06:37:07Z</time></trkpt><trkpt lat="43.809492068423594" lon="11.664342550123338"><ele>662.5</ele><time>2026-05-02T06:37:08Z</time></trkpt><trkpt lat="43.80955841071514" lon="11.664367183221147"><ele>663.0</ele><time>2026-05-02T06:37:09Z</time></trkpt><trkpt lat="43.80963310053978" lon="11.664452326149995"><ele>663.5</ele><time>2026-05-02T06:37:11Z</time></trkpt><trkpt lat="43.80967141286237" lon="11.664574763737571"><ele>664.0</ele><time>2026-05-02T06:37:13Z</time></trkpt><trkpt lat="43.80976888372038" lon="11.664651706145412"><ele>664.0</ele><time>2026-05-02T06:37:15Z</time></trkpt><trkpt lat="43.80985937146863" lon="11.66464469851788"><ele>664.0</ele><time>2026-05-02T06:37:17Z</time></trkpt><trkpt lat="43.80992431573231" lon="11.664632560017592"><ele>664.0</ele><time>2026-05-02T06:37:18Z</time></trkpt><trkpt lat="43.8100566048475" lon="11.66464009330291"><ele>664.0</ele><time>2026-05-02T06:37:20Z</time></trkpt><trkpt lat="43.81015885599543" lon="11.66464835344282"><ele>664.0</ele><time>2026-05-02T06:37:22Z</time></trkpt><trkpt lat="43.81026856326994" lon="11.664612577426658"><ele>660.8000000000001</ele><time>2026-05-02T06:37:24Z</time></trkpt><trkpt lat="43.81040486121733" lon="11.664617745445748"><ele>657.6</ele><time>2026-05-02T06:37:26Z</time></trkpt><trkpt lat="43.81048119637865" lon="11.6646348834374"><ele>654.4</ele><time>2026-05-02T06:37:27Z</time></trkpt><trkpt lat="43.81055772448563" lon="11.664666652252413"><ele>651.2</ele><time>2026-05-02T06:37:28Z</time></trkpt><trkpt lat="43.8106363501315" lon="11.664697652353135"><ele>648.0</ele><time>2026-05-02T06:37:29Z</time></trkpt><trkpt lat="43.81071415663028" lon="11.66471482280832"><ele>648.0</ele><time>2026-05-02T06:37:30Z</time></trkpt><trkpt lat="43.81083126011958" lon="11.66477222297374"><ele>648.0</ele><time>2026-05-02T06:37:32Z</time></trkpt><trkpt lat="43.81093888384737" lon="11.664858287885762"><ele>648.0</ele><time>2026-05-02T06:37:34Z</time></trkpt><trkpt lat="43.81105291683832" lon="11.664885061075804"><ele>648.0</ele><time>2026-05-02T06:37:36Z</time></trkpt><trkpt lat="43.8111576524887" lon="11.664846460182556"><ele>646.6666666666666</ele><time>2026-05-02T06:37:38Z</time></trkpt><trkpt lat="43.811250800330356" lon="11.664826511486492"><ele>645.3333333333334</ele><time>2026-05-02T06:37:40Z</time></trkpt><trkpt lat="43.811316666852036" lon="11.664820171500612"><ele>644.0</ele><time>2026-05-02T06:37:41Z</time></trkpt><trkpt lat="43.811392102896846" lon="11.664839512373197"><ele>642.6666666666667</ele><time>2026-05-02T06:37:42Z</time></trkpt><trkpt lat="43.81145421806918" lon="11.664880830632146"><ele>641.3333333333334</ele><time>2026-05-02T06:37:43Z</time></trkpt><trkpt lat="43.81150586968705" lon="11.66493769751174"><ele>640.0</ele><time>2026-05-02T06:37:44Z</time></trkpt><trkpt lat="43.81160194516954" lon="11.665057330666711"><ele>640.0</ele><time>2026-05-02T06:37:46Z</time></trkpt><trkpt lat="43.81167362978994" lon="11.665165276928546"><ele>640.0</ele><time>2026-05-02T06:37:48Z</time></trkpt><trkpt lat="43.81174855915362" lon="11.665151213955902"><ele>640.0</ele><time>2026-05-02T06:37:50Z</time></trkpt><trkpt lat="43.81187357767133" lon="11.6651373243337"><ele>640.0</ele><time>2026-05-02T06:37:52Z</time></trkpt><trkpt lat="43.81195801014133" lon="11.665170303428265"><ele>640.0</ele><time>2026-05-02T06:37:53Z</time></trkpt><trkpt lat="43.81202804083567" lon="11.665198613962591"><ele>642.0</ele><time>2026-05-02T06:37:54Z</time></trkpt><trkpt lat="43.81209740975264" lon="11.665285448046925"><ele>644.0</ele><time>2026-05-02T06:37:56Z</time></trkpt><trkpt lat="43.81218092551532" lon="11.665377135193188"><ele>646.0</ele><time>2026-05-02T06:37:58Z</time></trkpt><trkpt lat="43.81224914114897" lon="11.665434457843803"><ele>648.0</ele><time>2026-05-02T06:37:59Z</time></trkpt><trkpt lat="43.812325911450124" lon="11.665484950629908"><ele>650.0</ele><time>2026-05-02T06:38:00Z</time></trkpt><trkpt lat="43.812452821285085" lon="11.6655698250829"><ele>650.0</ele><time>2026-05-02T06:38:02Z</time></trkpt><trkpt lat="43.8125012013682" lon="11.665630101992319"><ele>650.0</ele><time>2026-05-02T06:38:03Z</time></trkpt><trkpt lat="43.812547412565664" lon="11.665689469134033"><ele>650.0</ele><time>2026-05-02T06:38:04Z</time></trkpt><trkpt lat="43.812595225330185" lon="11.66576885007871"><ele>650.0</ele><time>2026-05-02T06:38:05Z</time></trkpt><trkpt lat="43.81265989002084" lon="11.665891638891674"><ele>650.0</ele><time>2026-05-02T06:38:07Z</time></trkpt><trkpt lat="43.81267187313524" lon="11.666018117550157"><ele>650.0</ele><time>2026-05-02T06:38:09Z</time></trkpt><trkpt lat="43.812700016312576" lon="11.666096365649699"><ele>652.0</ele><time>2026-05-02T06:38:10Z</time></trkpt><trkpt lat="43.81274858797143" lon="11.666164062422412"><ele>654.0</ele><time>2026-05-02T06:38:12Z</time></trkpt><trkpt lat="43.81282253202094" lon="11.666208433393104"><ele>656.0</ele><time>2026-05-02T06:38:14Z</time></trkpt><trkpt lat="43.81291417165322" lon="11.666296598305085"><ele>658.0</ele><time>2026-05-02T06:38:16Z</time></trkpt><trkpt lat="43.81303294765446" lon="11.666377164584251"><ele>660.0</ele><time>2026-05-02T06:38:18Z</time></trkpt><trkpt lat="43.81314857266087" lon="11.666384619294002"><ele>660.0</ele><time>2026-05-02T06:38:20Z</time></trkpt><trkpt lat="43.813261283788265" lon="11.666350427375022"><ele>660.0</ele><time>2026-05-02T06:38:22Z</time></trkpt><trkpt lat="43.81333413026406" lon="11.666464635293417"><ele>660.0</ele><time>2026-05-02T06:38:24Z</time></trkpt><trkpt lat="43.8133561216191" lon="11.666576706701674"><ele>660.0</ele><time>2026-05-02T06:38:25Z</time></trkpt><trkpt lat="43.81338382498676" lon="11.666672551882646"><ele>660.0</ele><time>2026-05-02T06:38:26Z</time></trkpt><trkpt lat="43.813448482341364" lon="11.666769414594231"><ele>660.0</ele><time>2026-05-02T06:38:28Z</time></trkpt><trkpt lat="43.813478425218776" lon="11.666897789376504"><ele>660.0</ele><time>2026-05-02T06:38:30Z</time></trkpt><trkpt lat="43.81349570054522" lon="11.667033329791034"><ele>660.0</ele><time>2026-05-02T06:38:32Z</time></trkpt><trkpt lat="43.813488155001664" lon="11.667132626299367"><ele>660.0</ele><time>2026-05-02T06:38:33Z</time></trkpt><trkpt lat="43.81347155487929" lon="11.667240173961945"><ele>660.0</ele><time>2026-05-02T06:38:34Z</time></trkpt><trkpt lat="43.81344574079979" lon="11.667346081267041"><ele>660.0</ele><time>2026-05-02T06:38:35Z</time></trkpt><trkpt lat="43.81342857470765" lon="11.667443494147175"><ele>660.0</ele><time>2026-05-02T06:38:36Z</time></trkpt><trkpt lat="43.81341296451753" lon="11.667551013013151"><ele>660.0</ele><time>2026-05-02T06:38:37Z</time></trkpt><trkpt lat="43.81340339464245" lon="11.667652602001995"><ele>660.0</ele><time>2026-05-02T06:38:38Z</time></trkpt><trkpt lat="43.81339248867612" lon="11.66774984202363"><ele>660.0</ele><time>2026-05-02T06:38:39Z</time></trkpt><trkpt lat="43.81337662650197" lon="11.66784702411004"><ele>660.0</ele><time>2026-05-02T06:38:40Z</time></trkpt><trkpt lat="43.81331547841307" lon="11.667982877689163"><ele>660.0</ele><time>2026-05-02T06:38:42Z</time></trkpt><trkpt lat="43.81326617737126" lon="11.6680532792594"><ele>657.0</ele><time>2026-05-02T06:38:43Z</time></trkpt><trkpt lat="43.81321286993749" lon="11.668151266077016"><ele>654.0</ele><time>2026-05-02T06:38:44Z</time></trkpt><trkpt lat="43.81316528810595" lon="11.668216672953736"><ele>651.0</ele><time>2026-05-02T06:38:45Z</time></trkpt><trkpt lat="43.81311763745553" lon="11.668303464302582"><ele>648.0</ele><time>2026-05-02T06:38:46Z</time></trkpt><trkpt lat="43.81306496084583" lon="11.668376383395113"><ele>645.0</ele><time>2026-05-02T06:38:47Z</time></trkpt><trkpt lat="43.81300989258751" lon="11.668436489703316"><ele>642.0</ele><time>2026-05-02T06:38:48Z</time></trkpt><trkpt lat="43.81295054124212" lon="11.668504241246426"><ele>641.9999999999999</ele><time>2026-05-02T06:38:49Z</time></trkpt><trkpt lat="43.812891968275345" lon="11.668572841757884"><ele>642.0</ele><time>2026-05-02T06:38:50Z</time></trkpt><trkpt lat="43.81284366403496" lon="11.668629252762386"><ele>642.0</ele><time>2026-05-02T06:38:51Z</time></trkpt><trkpt lat="43.8127877894051" lon="11.668756141144577"><ele>642.0</ele><time>2026-05-02T06:38:53Z</time></trkpt><trkpt lat="43.812773554642106" lon="11.668849036431064"><ele>642.0</ele><time>2026-05-02T06:38:54Z</time></trkpt><trkpt lat="43.81273737005169" lon="11.668922676204021"><ele>641.9999999999999</ele><time>2026-05-02T06:38:55Z</time></trkpt><trkpt lat="43.81269789445921" lon="11.668999784455004"><ele>642.0</ele><time>2026-05-02T06:38:56Z</time></trkpt><trkpt lat="43.81265611037067" lon="11.669073760626821"><ele>639.6</ele><time>2026-05-02T06:38:57Z</time></trkpt><trkpt lat="43.812570930023995" lon="11.669185039742796"><ele>637.2</ele><time>2026-05-02T06:38:59Z</time></trkpt><trkpt lat="43.812497340064844" lon="11.669318739330059"><ele>634.8</ele><time>2026-05-02T06:39:01Z</time></trkpt><trkpt lat="43.812439343834484" lon="11.669425787232134"><ele>632.4</ele><time>2026-05-02T06:39:03Z</time></trkpt><trkpt lat="43.8123805974198" lon="11.669484473555897"><ele>630.0</ele><time>2026-05-02T06:39:05Z</time></trkpt><trkpt lat="43.812280371922725" lon="11.66952747500024"><ele>628.1666666666666</ele><time>2026-05-02T06:39:08Z</time></trkpt><trkpt lat="43.81221430592852" lon="11.66954736513491"><ele>626.3333333333334</ele><time>2026-05-02T06:39:09Z</time></trkpt><trkpt lat="43.812144448321106" lon="11.669573833655969"><ele>624.5</ele><time>2026-05-02T06:39:10Z</time></trkpt><trkpt lat="43.81203908386484" lon="11.66962865531152"><ele>622.6666666666667</ele><time>2026-05-02T06:39:12Z</time></trkpt><trkpt lat="43.81200065495931" lon="11.669763784409767"><ele>620.8333333333334</ele><time>2026-05-02T06:39:14Z</time></trkpt><trkpt lat="43.81200230512613" lon="11.669862946154081"><ele>619.0</ele><time>2026-05-02T06:39:15Z</time></trkpt><trkpt lat="43.81199305239992" lon="11.669964324183377"><ele>619.0</ele><time>2026-05-02T06:39:16Z</time></trkpt><trkpt lat="43.81198534504701" lon="11.670054243850043"><ele>619.0</ele><time>2026-05-02T06:39:17Z</time></trkpt><trkpt lat="43.81196734311733" lon="11.67015048208663"><ele>619.0</ele><time>2026-05-02T06:39:18Z</time></trkpt><trkpt lat="43.81194923397977" lon="11.67025201742279"><ele>619.0</ele><time>2026-05-02T06:39:19Z</time></trkpt><trkpt lat="43.81194408532866" lon="11.670405986988762"><ele>619.0</ele><time>2026-05-02T06:39:21Z</time></trkpt><trkpt lat="43.81197471804258" lon="11.670540936999052"><ele>619.0</ele><time>2026-05-02T06:39:23Z</time></trkpt><trkpt lat="43.81201013966414" lon="11.67070268361023"><ele>618.0</ele><time>2026-05-02T06:39:25Z</time></trkpt><trkpt lat="43.81203456486692" lon="11.67079146896975"><ele>617.0</ele><time>2026-05-02T06:39:26Z</time></trkpt><trkpt lat="43.81205957877306" lon="11.67087987198038"><ele>616.0</ele><time>2026-05-02T06:39:27Z</time></trkpt><trkpt lat="43.81207120595685" lon="11.670987382430601"><ele>615.0</ele><time>2026-05-02T06:39:28Z</time></trkpt><trkpt lat="43.81208104573418" lon="11.67109857367562"><ele>614.0</ele><time>2026-05-02T06:39:29Z</time></trkpt><trkpt lat="43.81208345073862" lon="11.671205749030658"><ele>613.0</ele><time>2026-05-02T06:39:30Z</time></trkpt><trkpt lat="43.812087846301246" lon="11.671311856957868"><ele>612.6666666666667</ele><time>2026-05-02T06:39:31Z</time></trkpt><trkpt lat="43.81208224657583" lon="11.671403538174648"><ele>612.3333333333334</ele><time>2026-05-02T06:39:32Z</time></trkpt><trkpt lat="43.8120907627275" lon="11.671587277640771"><ele>612.0</ele><time>2026-05-02T06:39:34Z</time></trkpt><trkpt lat="43.812114021609105" lon="11.67168812883656"><ele>611.6666666666666</ele><time>2026-05-02T06:39:35Z</time></trkpt><trkpt lat="43.81213686419314" lon="11.67177691352055"><ele>611.3333333333333</ele><time>2026-05-02T06:39:36Z</time></trkpt><trkpt lat="43.812191528755285" lon="11.671871191522984"><ele>611.0</ele><time>2026-05-02T06:39:37Z</time></trkpt><trkpt lat="43.81223842299011" lon="11.67194843117933"><ele>609.4</ele><time>2026-05-02T06:39:38Z</time></trkpt><trkpt lat="43.812295739904265" lon="11.672015482611425"><ele>607.8</ele><time>2026-05-02T06:39:39Z</time></trkpt><trkpt lat="43.812348000499554" lon="11.672079866248014"><ele>606.1999999999999</ele><time>2026-05-02T06:39:40Z</time></trkpt><trkpt lat="43.812419852708594" lon="11.672208570134243"><ele>604.6</ele><time>2026-05-02T06:39:42Z</time></trkpt><trkpt lat="43.812444342439754" lon="11.672325841912903"><ele>603.0</ele><time>2026-05-02T06:39:44Z</time></trkpt><trkpt lat="43.81239905745364" lon="11.672490279897547"><ele>603.0</ele><time>2026-05-02T06:39:46Z</time></trkpt><trkpt lat="43.81233867018567" lon="11.672557077971012"><ele>603.0</ele><time>2026-05-02T06:39:47Z</time></trkpt><trkpt lat="43.81227822054566" lon="11.672632454651056"><ele>603.0</ele><time>2026-05-02T06:39:48Z</time></trkpt><trkpt lat="43.81221355659663" lon="11.672690302059486"><ele>603.0</ele><time>2026-05-02T06:39:49Z</time></trkpt><trkpt lat="43.812140574546014" lon="11.672746543279443"><ele>603.0</ele><time>2026-05-02T06:39:50Z</time></trkpt><trkpt lat="43.81207230181426" lon="11.672802470278606"><ele>603.0</ele><time>2026-05-02T06:39:51Z</time></trkpt><trkpt lat="43.812007005816184" lon="11.672853633699283"><ele>601.3333333333334</ele><time>2026-05-02T06:39:52Z</time></trkpt><trkpt lat="43.81192773407538" lon="11.672916671040428"><ele>599.6666666666666</ele><time>2026-05-02T06:39:53Z</time></trkpt><trkpt lat="43.81185341766554" lon="11.672973259533064"><ele>598.0</ele><time>2026-05-02T06:39:54Z</time></trkpt><trkpt lat="43.811780887168176" lon="11.673030390588261"><ele>596.3333333333333</ele><time>2026-05-02T06:39:55Z</time></trkpt><trkpt lat="43.81171483077726" lon="11.673081792314255"><ele>594.6666666666666</ele><time>2026-05-02T06:39:56Z</time></trkpt><trkpt lat="43.81166226989337" lon="11.673148411941613"><ele>593.0</ele><time>2026-05-02T06:39:57Z</time></trkpt><trkpt lat="43.81161996896015" lon="11.673235108562476"><ele>593.0</ele><time>2026-05-02T06:39:58Z</time></trkpt><trkpt lat="43.811586194273126" lon="11.67335031038567"><ele>593.0</ele><time>2026-05-02T06:39:59Z</time></trkpt><trkpt lat="43.81155857949993" lon="11.673477818681492"><ele>593.0</ele><time>2026-05-02T06:40:00Z</time></trkpt><trkpt lat="43.811538634281426" lon="11.67359787564431"><ele>593.0</ele><time>2026-05-02T06:40:01Z</time></trkpt><trkpt lat="43.81152371555331" lon="11.673723085910598"><ele>593.0</ele><time>2026-05-02T06:40:02Z</time></trkpt><trkpt lat="43.811510541072394" lon="11.673827911810577"><ele>593.0</ele><time>2026-05-02T06:40:03Z</time></trkpt><trkpt lat="43.81150494107873" lon="11.673943509456418"><ele>591.3333333333333</ele><time>2026-05-02T06:40:04Z</time></trkpt><trkpt lat="43.81150039140646" lon="11.674042935516217"><ele>589.6666666666666</ele><time>2026-05-02T06:40:05Z</time></trkpt><trkpt lat="43.81148874387184" lon="11.674178237300005"><ele>588.0</ele><time>2026-05-02T06:40:07Z</time></trkpt><trkpt lat="43.81147459046094" lon="11.674277641546503"><ele>586.3333333333334</ele><time>2026-05-02T06:40:10Z</time></trkpt><trkpt lat="43.811453496379286" lon="11.674373204164642"><ele>584.6666666666667</ele><time>2026-05-02T06:40:12Z</time></trkpt><trkpt lat="43.81141861251941" lon="11.674499619465518"><ele>583.0</ele><time>2026-05-02T06:40:14Z</time></trkpt><trkpt lat="43.81140334088125" lon="11.674586617928156"><ele>581.1666666666667</ele><time>2026-05-02T06:40:15Z</time></trkpt><trkpt lat="43.81139143268799" lon="11.674682480563506"><ele>579.3333333333334</ele><time>2026-05-02T06:40:16Z</time></trkpt><trkpt lat="43.81138085759054" lon="11.674787345013497"><ele>577.5</ele><time>2026-05-02T06:40:17Z</time></trkpt><trkpt lat="43.81137948812473" lon="11.674877872638671"><ele>575.6666666666666</ele><time>2026-05-02T06:40:18Z</time></trkpt><trkpt lat="43.81140075173635" lon="11.674995094620803"><ele>573.8333333333333</ele><time>2026-05-02T06:40:20Z</time></trkpt><trkpt lat="43.8114438135282" lon="11.675109296278313"><ele>572.0</ele><time>2026-05-02T06:40:22Z</time></trkpt><trkpt lat="43.81147217613712" lon="11.675249121324152"><ele>571.8000000000001</ele><time>2026-05-02T06:40:24Z</time></trkpt><trkpt lat="43.811494530799486" lon="11.675399427902393"><ele>571.6</ele><time>2026-05-02T06:40:26Z</time></trkpt><trkpt lat="43.811499275013354" lon="11.675521936816263"><ele>571.4000000000001</ele><time>2026-05-02T06:40:28Z</time></trkpt><trkpt lat="43.81152650823063" lon="11.675649627869207"><ele>571.2</ele><time>2026-05-02T06:40:31Z</time></trkpt><trkpt lat="43.81163705552367" lon="11.675706178558867"><ele>571.0</ele><time>2026-05-02T06:40:33Z</time></trkpt><trkpt lat="43.81172512398762" lon="11.675792392036076"><ele>571.0</ele><time>2026-05-02T06:40:35Z</time></trkpt><trkpt lat="43.81175898096439" lon="11.675954720612692"><ele>571.0</ele><time>2026-05-02T06:40:37Z</time></trkpt><trkpt lat="43.81173806253995" lon="11.676043425415873"><ele>571.0</ele><time>2026-05-02T06:40:38Z</time></trkpt><trkpt lat="43.81169053522106" lon="11.676113496916543"><ele>571.0</ele><time>2026-05-02T06:40:39Z</time></trkpt><trkpt lat="43.81163657116892" lon="11.676159240570133"><ele>571.0</ele><time>2026-05-02T06:40:40Z</time></trkpt><trkpt lat="43.81154258778283" lon="11.67622005236487"><ele>571.0</ele><time>2026-05-02T06:40:42Z</time></trkpt><trkpt lat="43.81145220825154" lon="11.676296673523687"><ele>569.2</ele><time>2026-05-02T06:40:44Z</time></trkpt><trkpt lat="43.811379653527275" lon="11.676401102904375"><ele>567.4000000000001</ele><time>2026-05-02T06:40:46Z</time></trkpt><trkpt lat="43.81133796478916" lon="11.676544183857139"><ele>565.6</ele><time>2026-05-02T06:40:48Z</time></trkpt><trkpt lat="43.811281119351555" lon="11.676691305208905"><ele>563.8000000000001</ele><time>2026-05-02T06:40:50Z</time></trkpt><trkpt lat="43.81124229602029" lon="11.676762271297799"><ele>562.0</ele><time>2026-05-02T06:40:51Z</time></trkpt><trkpt lat="43.811167687210116" lon="11.676897495750895"><ele>562.2857142857143</ele><time>2026-05-02T06:40:53Z</time></trkpt><trkpt lat="43.811122207226404" lon="11.676960185028172"><ele>562.5714285714286</ele><time>2026-05-02T06:40:54Z</time></trkpt><trkpt lat="43.81106917691691" lon="11.677018383721274"><ele>562.8571428571429</ele><time>2026-05-02T06:40:55Z</time></trkpt><trkpt lat="43.81102047187993" lon="11.677073922311221"><ele>563.1428571428571</ele><time>2026-05-02T06:40:56Z</time></trkpt><trkpt lat="43.81097730420947" lon="11.677146209825755"><ele>563.4285714285714</ele><time>2026-05-02T06:40:57Z</time></trkpt><trkpt lat="43.81095156918968" lon="11.677235403810657"><ele>563.7142857142858</ele><time>2026-05-02T06:40:58Z</time></trkpt><trkpt lat="43.81094413514616" lon="11.67734051267215"><ele>564.0</ele><time>2026-05-02T06:40:59Z</time></trkpt><trkpt lat="43.81095045710327" lon="11.677451451318232"><ele>564.0</ele><time>2026-05-02T06:41:00Z</time></trkpt><trkpt lat="43.81096020254505" lon="11.677566355688528"><ele>564.0</ele><time>2026-05-02T06:41:01Z</time></trkpt><trkpt lat="43.81097507290528" lon="11.677676661614209"><ele>564.0</ele><time>2026-05-02T06:41:02Z</time></trkpt><trkpt lat="43.810986539150285" lon="11.677792252688212"><ele>564.0</ele><time>2026-05-02T06:41:03Z</time></trkpt><trkpt lat="43.81099848601312" lon="11.677906796800817"><ele>564.0</ele><time>2026-05-02T06:41:04Z</time></trkpt><trkpt lat="43.81101208334628" lon="11.678020620694896"><ele>564.0</ele><time>2026-05-02T06:41:05Z</time></trkpt><trkpt lat="43.811028826050624" lon="11.678132463723335"><ele>557.8333333333334</ele><time>2026-05-02T06:41:06Z</time></trkpt><trkpt lat="43.81105737534601" lon="11.678239400876073"><ele>551.6666666666666</ele><time>2026-05-02T06:41:07Z</time></trkpt><trkpt lat="43.81108159262429" lon="11.678347949393153"><ele>545.5</ele><time>2026-05-02T06:41:08Z</time></trkpt><trkpt lat="43.811108039865154" lon="11.678454213823377"><ele>539.3333333333333</ele><time>2026-05-02T06:41:09Z</time></trkpt><trkpt lat="43.81113372212265" lon="11.678555765847976"><ele>533.1666666666666</ele><time>2026-05-02T06:41:10Z</time></trkpt><trkpt lat="43.81115005564669" lon="11.67865544422679"><ele>527.0</ele><time>2026-05-02T06:41:11Z</time></trkpt><trkpt lat="43.81115483338" lon="11.678761948904551"><ele>524.8333333333333</ele><time>2026-05-02T06:41:12Z</time></trkpt><trkpt lat="43.81113361647702" lon="11.678873693772447"><ele>522.6666666666666</ele><time>2026-05-02T06:41:13Z</time></trkpt><trkpt lat="43.811094432847845" lon="11.67897795793944"><ele>520.5</ele><time>2026-05-02T06:41:14Z</time></trkpt><trkpt lat="43.81104274859993" lon="11.679082527095954"><ele>518.3333333333334</ele><time>2026-05-02T06:41:15Z</time></trkpt><trkpt lat="43.811005990018934" lon="11.67918217612117"><ele>516.1666666666667</ele><time>2026-05-02T06:41:16Z</time></trkpt><trkpt lat="43.810980660042" lon="11.679295855933876"><ele>514.0</ele><time>2026-05-02T06:41:17Z</time></trkpt><trkpt lat="43.810946332525" lon="11.679403417253758"><ele>516.0</ele><time>2026-05-02T06:41:18Z</time></trkpt><trkpt lat="43.81089492728032" lon="11.679492600647281"><ele>518.0</ele><time>2026-05-02T06:41:19Z</time></trkpt><trkpt lat="43.81083096522406" lon="11.679576236482196"><ele>520.0</ele><time>2026-05-02T06:41:20Z</time></trkpt><trkpt lat="43.81075581443383" lon="11.67964567936877"><ele>522.0</ele><time>2026-05-02T06:41:21Z</time></trkpt><trkpt lat="43.81066645633118" lon="11.679683189595952"><ele>524.0</ele><time>2026-05-02T06:41:22Z</time></trkpt><trkpt lat="43.81057811579405" lon="11.679714790424224"><ele>526.0</ele><time>2026-05-02T06:41:23Z</time></trkpt><trkpt lat="43.81048993730278" lon="11.679765852378738"><ele>526.0</ele><time>2026-05-02T06:41:24Z</time></trkpt><trkpt lat="43.81042808287392" lon="11.67986016683563"><ele>526.0</ele><time>2026-05-02T06:41:25Z</time></trkpt><trkpt lat="43.810358466394405" lon="11.679947544480628"><ele>526.0</ele><time>2026-05-02T06:41:26Z</time></trkpt><trkpt lat="43.81030427983434" lon="11.680042745115419"><ele>526.0</ele><time>2026-05-02T06:41:27Z</time></trkpt><trkpt lat="43.81025573031757" lon="11.680146641351227"><ele>526.0</ele><time>2026-05-02T06:41:28Z</time></trkpt><trkpt lat="43.81020277785983" lon="11.680248599222962"><ele>525.8</ele><time>2026-05-02T06:41:29Z</time></trkpt><trkpt lat="43.8101537357662" lon="11.680331785460657"><ele>525.6</ele><time>2026-05-02T06:41:30Z</time></trkpt><trkpt lat="43.81009721385153" lon="11.680417236813026"><ele>525.4</ele><time>2026-05-02T06:41:31Z</time></trkpt><trkpt lat="43.81004181653395" lon="11.68049248360039"><ele>525.2</ele><time>2026-05-02T06:41:32Z</time></trkpt><trkpt lat="43.809996234466674" lon="11.68064430802601"><ele>525.0</ele><time>2026-05-02T06:41:34Z</time></trkpt><trkpt lat="43.81004238744388" lon="11.680769257365945"><ele>525.0</ele><time>2026-05-02T06:41:36Z</time></trkpt><trkpt lat="43.810136413379304" lon="11.680828177315238"><ele>525.0</ele><time>2026-05-02T06:41:38Z</time></trkpt><trkpt lat="43.81025314964726" lon="11.680759772570555"><ele>525.0</ele><time>2026-05-02T06:41:40Z</time></trkpt><trkpt lat="43.81031889814619" lon="11.680677510127566"><ele>525.0</ele><time>2026-05-02T06:41:41Z</time></trkpt><trkpt lat="43.810385614658664" lon="11.680585521173326"><ele>525.0</ele><time>2026-05-02T06:41:42Z</time></trkpt><trkpt lat="43.81044827122091" lon="11.680510118679694"><ele>523.3333333333334</ele><time>2026-05-02T06:41:43Z</time></trkpt><trkpt lat="43.81051583524628" lon="11.680429659395674"><ele>521.6666666666666</ele><time>2026-05-02T06:41:44Z</time></trkpt><trkpt lat="43.81057752073122" lon="11.680349455482272"><ele>520.0</ele><time>2026-05-02T06:41:45Z</time></trkpt><trkpt lat="43.810631071799335" lon="11.680286001043738"><ele>518.3333333333333</ele><time>2026-05-02T06:41:46Z</time></trkpt><trkpt lat="43.8107498151437" lon="11.680277072264012"><ele>516.6666666666666</ele><time>2026-05-02T06:41:48Z</time></trkpt><trkpt lat="43.81079610987132" lon="11.680343754660836"><ele>515.0</ele><time>2026-05-02T06:41:49Z</time></trkpt><trkpt lat="43.810802356949985" lon="11.680445775700539"><ele>515.0</ele><time>2026-05-02T06:41:50Z</time></trkpt><trkpt lat="43.810779929041374" lon="11.680543953516448"><ele>515.0</ele><time>2026-05-02T06:41:51Z</time></trkpt><trkpt lat="43.81074942204158" lon="11.680631346952767"><ele>515.0</ele><time>2026-05-02T06:41:52Z</time></trkpt><trkpt lat="43.810728319987874" lon="11.68071676846033"><ele>515.0</ele><time>2026-05-02T06:41:53Z</time></trkpt><trkpt lat="43.81071321434674" lon="11.680810986336907"><ele>515.0</ele><time>2026-05-02T06:41:54Z</time></trkpt><trkpt lat="43.81070870303026" lon="11.680904922092742"><ele>515.0</ele><time>2026-05-02T06:41:55Z</time></trkpt><trkpt lat="43.81072398465678" lon="11.680997699575622"><ele>515.0</ele><time>2026-05-02T06:41:56Z</time></trkpt><trkpt lat="43.810745933636206" lon="11.681090153639998"><ele>513.6666666666666</ele><time>2026-05-02T06:41:57Z</time></trkpt><trkpt lat="43.810768234735384" lon="11.681205127393444"><ele>512.3333333333333</ele><time>2026-05-02T06:41:58Z</time></trkpt><trkpt lat="43.8107908373065" lon="11.681320619203197"><ele>511.0</ele><time>2026-05-02T06:41:59Z</time></trkpt><trkpt lat="43.81080968721257" lon="11.68141852221327"><ele>509.66666666666663</ele><time>2026-05-02T06:42:00Z</time></trkpt><trkpt lat="43.810819541892364" lon="11.681510693700913"><ele>508.3333333333333</ele><time>2026-05-02T06:42:01Z</time></trkpt><trkpt lat="43.810811388150235" lon="11.681606605766564"><ele>507.0</ele><time>2026-05-02T06:42:02Z</time></trkpt><trkpt lat="43.81077899243627" lon="11.681707215661291"><ele>507.0</ele><time>2026-05-02T06:42:03Z</time></trkpt><trkpt lat="43.810715317088054" lon="11.681793625897116"><ele>507.00000000000006</ele><time>2026-05-02T06:42:04Z</time></trkpt><trkpt lat="43.81063384451756" lon="11.681866625656957"><ele>507.00000000000006</ele><time>2026-05-02T06:42:05Z</time></trkpt><trkpt lat="43.81053732567084" lon="11.68193751515064"><ele>507.0</ele><time>2026-05-02T06:42:06Z</time></trkpt><trkpt lat="43.81043857132924" lon="11.68199514737308"><ele>507.0</ele><time>2026-05-02T06:42:07Z</time></trkpt><trkpt lat="43.81033504183906" lon="11.682017283646765"><ele>504.8333333333333</ele><time>2026-05-02T06:42:08Z</time></trkpt><trkpt lat="43.81022681562492" lon="11.682003516168448"><ele>502.66666666666663</ele><time>2026-05-02T06:42:09Z</time></trkpt><trkpt lat="43.81013024197348" lon="11.681978146149923"><ele>500.5</ele><time>2026-05-02T06:42:10Z</time></trkpt><trkpt lat="43.81004599947785" lon="11.681954714849336"><ele>498.3333333333333</ele><time>2026-05-02T06:42:11Z</time></trkpt><trkpt lat="43.80997983391203" lon="11.68195014805509"><ele>496.16666666666663</ele><time>2026-05-02T06:42:12Z</time></trkpt><trkpt lat="43.80992359928816" lon="11.681999587246656"><ele>494.0</ele><time>2026-05-02T06:42:13Z</time></trkpt><trkpt lat="43.80989466348805" lon="11.682085235558112"><ele>494.0</ele><time>2026-05-02T06:42:14Z</time></trkpt><trkpt lat="43.80990979727651" lon="11.68218467375917"><ele>494.0</ele><time>2026-05-02T06:42:15Z</time></trkpt><trkpt lat="43.80996163847591" lon="11.682273835388996"><ele>494.0</ele><time>2026-05-02T06:42:16Z</time></trkpt><trkpt lat="43.81005184362088" lon="11.682337605997697"><ele>494.0</ele><time>2026-05-02T06:42:17Z</time></trkpt><trkpt lat="43.8101468590125" lon="11.682382835326234"><ele>494.0</ele><time>2026-05-02T06:42:18Z</time></trkpt><trkpt lat="43.81022156875146" lon="11.68246341996507"><ele>494.0</ele><time>2026-05-02T06:42:19Z</time></trkpt><trkpt lat="43.81027538121434" lon="11.682580669514259"><ele>494.0</ele><time>2026-05-02T06:42:20Z</time></trkpt><trkpt lat="43.81030574786012" lon="11.68271886058191"><ele>494.0</ele><time>2026-05-02T06:42:21Z</time></trkpt><trkpt lat="43.8103169339298" lon="11.682860654293135"><ele>494.0</ele><time>2026-05-02T06:42:22Z</time></trkpt><trkpt lat="43.81031203109781" lon="11.683001488923042"><ele>494.0</ele><time>2026-05-02T06:42:23Z</time></trkpt><trkpt lat="43.81028967147167" lon="11.683122474381003"><ele>492.8333333333333</ele><time>2026-05-02T06:42:24Z</time></trkpt><trkpt lat="43.810262686197476" lon="11.683207114126015"><ele>491.66666666666663</ele><time>2026-05-02T06:42:25Z</time></trkpt><trkpt lat="43.81020772643298" lon="11.68331599437076"><ele>490.5</ele><time>2026-05-02T06:42:27Z</time></trkpt><trkpt lat="43.81027520754429" lon="11.683220135277441"><ele>489.33333333333337</ele><time>2026-05-02T06:42:34Z</time></trkpt><trkpt lat="43.81028688847215" lon="11.683081388720455"><ele>488.1666666666667</ele><time>2026-05-02T06:42:36Z</time></trkpt><trkpt lat="43.81029177531371" lon="11.682969677391146"><ele>487.0</ele><time>2026-05-02T06:42:38Z</time></trkpt><trkpt lat="43.8102485842429" lon="11.682882988891935"><ele>487.0</ele><time>2026-05-02T06:42:41Z</time></trkpt><trkpt lat="43.81017660159268" lon="11.68281344268035"><ele>487.00000000000006</ele><time>2026-05-02T06:42:44Z</time></trkpt><trkpt lat="43.81007597456944" lon="11.682871889097342"><ele>487.00000000000006</ele><time>2026-05-02T06:42:46Z</time></trkpt><trkpt lat="43.80997470033402" lon="11.68293832327853"><ele>487.0</ele><time>2026-05-02T06:42:48Z</time></trkpt><trkpt lat="43.8098787137064" lon="11.682996325053193"><ele>487.0</ele><time>2026-05-02T06:42:50Z</time></trkpt><trkpt lat="43.80981060406695" lon="11.68299309722798"><ele>487.0</ele><time>2026-05-02T06:42:52Z</time></trkpt><trkpt lat="43.80973073491155" lon="11.683015058163376"><ele>487.00000000000006</ele><time>2026-05-02T06:42:54Z</time></trkpt><trkpt lat="43.80963503526097" lon="11.68299822406208"><ele>487.00000000000006</ele><time>2026-05-02T06:42:56Z</time></trkpt><trkpt lat="43.80954834344693" lon="11.682979815989448"><ele>487.0</ele><time>2026-05-02T06:42:58Z</time></trkpt><trkpt lat="43.809429125975726" lon="11.682937290555348"><ele>487.0</ele><time>2026-05-02T06:43:00Z</time></trkpt><trkpt lat="43.809313622810095" lon="11.68293976014973"><ele>490.40000000000003</ele><time>2026-05-02T06:43:02Z</time></trkpt><trkpt lat="43.80920301030072" lon="11.682992093686508"><ele>493.80000000000007</ele><time>2026-05-02T06:43:04Z</time></trkpt><trkpt lat="43.809091756971306" lon="11.683090717894082"><ele>497.2</ele><time>2026-05-02T06:43:06Z</time></trkpt><trkpt lat="43.80904845064844" lon="11.683166634710023"><ele>500.6</ele><time>2026-05-02T06:43:07Z</time></trkpt><trkpt lat="43.808932773241914" lon="11.683229971907098"><ele>504.0</ele><time>2026-05-02T06:43:09Z</time></trkpt><trkpt lat="43.808829751237774" lon="11.683251776654743"><ele>504.0</ele><time>2026-05-02T06:43:11Z</time></trkpt><trkpt lat="43.808775130447906" lon="11.68338116381988"><ele>504.0</ele><time>2026-05-02T06:43:13Z</time></trkpt><trkpt lat="43.8087626438031" lon="11.683542965634485"><ele>504.0</ele><time>2026-05-02T06:43:15Z</time></trkpt><trkpt lat="43.80869814455717" lon="11.683601575168973"><ele>504.0</ele><time>2026-05-02T06:43:17Z</time></trkpt><trkpt lat="43.808595946802605" lon="11.683609279126292"><ele>504.0</ele><time>2026-05-02T06:43:19Z</time></trkpt><trkpt lat="43.808525826395005" lon="11.683603683597607"><ele>504.0</ele><time>2026-05-02T06:43:21Z</time></trkpt><trkpt lat="43.80849692200941" lon="11.68350224954224"><ele>504.0</ele><time>2026-05-02T06:43:23Z</time></trkpt><trkpt lat="43.80841040307584" lon="11.683378921981598"><ele>504.0</ele><time>2026-05-02T06:43:25Z</time></trkpt><trkpt lat="43.80834970712665" lon="11.68328686985832"><ele>504.0</ele><time>2026-05-02T06:43:26Z</time></trkpt><trkpt lat="43.80830805004514" lon="11.683160179712813"><ele>504.0</ele><time>2026-05-02T06:43:28Z</time></trkpt><trkpt lat="43.80827772514737" lon="11.68302326339044"><ele>510.0</ele><time>2026-05-02T06:43:30Z</time></trkpt><trkpt lat="43.80825974871079" lon="11.68292190825065"><ele>516.0</ele><time>2026-05-02T06:43:32Z</time></trkpt><trkpt lat="43.808291828367686" lon="11.682791618572736"><ele>522.0</ele><time>2026-05-02T06:43:34Z</time></trkpt><trkpt lat="43.808329013862114" lon="11.682651432053195"><ele>528.0</ele><time>2026-05-02T06:43:36Z</time></trkpt><trkpt lat="43.8083413358013" lon="11.68256339161547"><ele>534.0</ele><time>2026-05-02T06:43:37Z</time></trkpt><trkpt lat="43.808361305646635" lon="11.682461422519928"><ele>540.0</ele><time>2026-05-02T06:43:38Z</time></trkpt><trkpt lat="43.80839512257713" lon="11.682352656541696"><ele>541.5</ele><time>2026-05-02T06:43:39Z</time></trkpt><trkpt lat="43.80842983828681" lon="11.68226043769462"><ele>543.0</ele><time>2026-05-02T06:43:40Z</time></trkpt><trkpt lat="43.80847529634866" lon="11.682162648297412"><ele>544.5</ele><time>2026-05-02T06:43:42Z</time></trkpt><trkpt lat="43.8083803511023" lon="11.682119833800922"><ele>546.0</ele><time>2026-05-02T06:43:45Z</time></trkpt><trkpt lat="43.808321834103104" lon="11.682179146333496"><ele>547.5</ele><time>2026-05-02T06:43:46Z</time></trkpt><trkpt lat="43.80827073185552" lon="11.68226449463756"><ele>549.0</ele><time>2026-05-02T06:43:47Z</time></trkpt><trkpt lat="43.80821236059238" lon="11.682348252150074"><ele>549.0</ele><time>2026-05-02T06:43:48Z</time></trkpt><trkpt lat="43.8081188188864" lon="11.682423354652352"><ele>549.0</ele><time>2026-05-02T06:43:50Z</time></trkpt><trkpt lat="43.80806277271059" lon="11.68238320478166"><ele>549.0</ele><time>2026-05-02T06:43:52Z</time></trkpt><trkpt lat="43.808140155815686" lon="11.682219027318357"><ele>549.0</ele><time>2026-05-02T06:43:54Z</time></trkpt><trkpt lat="43.80816349608896" lon="11.682115898678484"><ele>549.0</ele><time>2026-05-02T06:43:55Z</time></trkpt><trkpt lat="43.80816901512454" lon="11.682005600394335"><ele>549.5</ele><time>2026-05-02T06:43:56Z</time></trkpt><trkpt lat="43.80816316147731" lon="11.681908331739745"><ele>550.0</ele><time>2026-05-02T06:43:57Z</time></trkpt><trkpt lat="43.808153159534506" lon="11.68180795975818"><ele>550.5</ele><time>2026-05-02T06:43:58Z</time></trkpt><trkpt lat="43.80812200821642" lon="11.681698247272223"><ele>551.0</ele><time>2026-05-02T06:43:59Z</time></trkpt><trkpt lat="43.80807698379331" lon="11.6816069928006"><ele>551.5</ele><time>2026-05-02T06:44:01Z</time></trkpt><trkpt lat="43.80802465339552" lon="11.68154677970977"><ele>552.0</ele><time>2026-05-02T06:44:02Z</time></trkpt><trkpt lat="43.807946796626474" lon="11.681501372003433"><ele>552.0</ele><time>2026-05-02T06:44:04Z</time></trkpt><trkpt lat="43.80788468995559" lon="11.681523268752903"><ele>552.0</ele><time>2026-05-02T06:44:06Z</time></trkpt><trkpt lat="43.80784165421255" lon="11.681636227710076"><ele>552.0</ele><time>2026-05-02T06:44:08Z</time></trkpt><trkpt lat="43.807859250289134" lon="11.681762064642301"><ele>552.0</ele><time>2026-05-02T06:44:10Z</time></trkpt><trkpt lat="43.807877695390445" lon="11.68187592036766"><ele>552.0</ele><time>2026-05-02T06:44:12Z</time></trkpt><trkpt lat="43.80785243601371" lon="11.681959101324201"><ele>552.0</ele><time>2026-05-02T06:44:14Z</time></trkpt><trkpt lat="43.80781465613523" lon="11.682031515209768"><ele>551.5</ele><time>2026-05-02T06:44:17Z</time></trkpt><trkpt lat="43.807721894141864" lon="11.682130186951458"><ele>551.0</ele><time>2026-05-02T06:44:21Z</time></trkpt><trkpt lat="43.80764759043326" lon="11.68217313410226"><ele>550.5</ele><time>2026-05-02T06:44:22Z</time></trkpt><trkpt lat="43.80758133885656" lon="11.682209958555982"><ele>550.0</ele><time>2026-05-02T06:44:23Z</time></trkpt><trkpt lat="43.80752091963224" lon="11.682251232578375"><ele>549.5</ele><time>2026-05-02T06:44:24Z</time></trkpt><trkpt lat="43.80745477555571" lon="11.682293930710529"><ele>549.0</ele><time>2026-05-02T06:44:25Z</time></trkpt><trkpt lat="43.80738859006037" lon="11.682343737662642"><ele>554.3333333333334</ele><time>2026-05-02T06:44:26Z</time></trkpt><trkpt lat="43.8073318119267" lon="11.682409831677818"><ele>559.6666666666666</ele><time>2026-05-02T06:44:27Z</time></trkpt><trkpt lat="43.807280869928455" lon="11.682486791839302"><ele>565.0</ele><time>2026-05-02T06:44:28Z</time></trkpt><trkpt lat="43.8072312376321" lon="11.68255172833826"><ele>570.3333333333333</ele><time>2026-05-02T06:44:29Z</time></trkpt><trkpt lat="43.80714403721691" lon="11.682607113250729"><ele>575.6666666666666</ele><time>2026-05-02T06:44:31Z</time></trkpt><trkpt lat="43.80716226469734" lon="11.682736601413835"><ele>581.0</ele><time>2026-05-02T06:44:34Z</time></trkpt><trkpt lat="43.80722154927592" lon="11.682870809476542"><ele>581.0</ele><time>2026-05-02T06:44:36Z</time></trkpt><trkpt lat="43.8072344361308" lon="11.682996815127403"><ele>581.0</ele><time>2026-05-02T06:44:38Z</time></trkpt><trkpt lat="43.80718511444239" lon="11.68312221981536"><ele>581.0</ele><time>2026-05-02T06:44:40Z</time></trkpt><trkpt lat="43.80713179292874" lon="11.683215258627657"><ele>581.0</ele><time>2026-05-02T06:44:42Z</time></trkpt><trkpt lat="43.807167371314755" lon="11.683334646344099"><ele>581.0</ele><time>2026-05-02T06:44:44Z</time></trkpt><trkpt lat="43.80725248307224" lon="11.683405375025982"><ele>581.0</ele><time>2026-05-02T06:44:46Z</time></trkpt><trkpt lat="43.80728535581619" lon="11.68350759379849"><ele>581.0</ele><time>2026-05-02T06:44:48Z</time></trkpt><trkpt lat="43.80728436621491" lon="11.68365207350952"><ele>581.0</ele><time>2026-05-02T06:44:50Z</time></trkpt><trkpt lat="43.80727411588329" lon="11.683806940591206"><ele>581.0</ele><time>2026-05-02T06:44:52Z</time></trkpt><trkpt lat="43.80726274461414" lon="11.683958888180875"><ele>581.0</ele><time>2026-05-02T06:44:54Z</time></trkpt><trkpt lat="43.807225293586676" lon="11.68409742410711"><ele>581.2</ele><time>2026-05-02T06:44:56Z</time></trkpt><trkpt lat="43.80721411368451" lon="11.684250345428751"><ele>581.4000000000001</ele><time>2026-05-02T06:44:58Z</time></trkpt><trkpt lat="43.807240936534534" lon="11.684386427741497"><ele>581.6</ele><time>2026-05-02T06:45:00Z</time></trkpt><trkpt lat="43.80728729246898" lon="11.684528210640009"><ele>581.8000000000001</ele><time>2026-05-02T06:45:02Z</time></trkpt><trkpt lat="43.80731530933122" lon="11.68467226243332"><ele>582.0</ele><time>2026-05-02T06:45:04Z</time></trkpt><trkpt lat="43.80732981213369" lon="11.684838493372123"><ele>582.0</ele><time>2026-05-02T06:45:06Z</time></trkpt><trkpt lat="43.80731949728051" lon="11.684969699167056"><ele>582.0</ele><time>2026-05-02T06:45:08Z</time></trkpt><trkpt lat="43.807363689117956" lon="11.685081502754988"><ele>582.0</ele><time>2026-05-02T06:45:10Z</time></trkpt><trkpt lat="43.80743825888904" lon="11.685192889142824"><ele>582.0</ele><time>2026-05-02T06:45:12Z</time></trkpt><trkpt lat="43.80750222613935" lon="11.685312136073897"><ele>582.0</ele><time>2026-05-02T06:45:14Z</time></trkpt><trkpt lat="43.80754711785327" lon="11.685400952670719"><ele>581.6666666666666</ele><time>2026-05-02T06:45:16Z</time></trkpt><trkpt lat="43.807567587079255" lon="11.685547501215792"><ele>581.3333333333334</ele><time>2026-05-02T06:45:18Z</time></trkpt><trkpt lat="43.80757761160977" lon="11.6856773471312"><ele>581.0</ele><time>2026-05-02T06:45:20Z</time></trkpt><trkpt lat="43.80759855081319" lon="11.685760697799077"><ele>580.6666666666667</ele><time>2026-05-02T06:45:21Z</time></trkpt><trkpt lat="43.80761446619325" lon="11.68590147966436"><ele>580.3333333333334</ele><time>2026-05-02T06:45:23Z</time></trkpt><trkpt lat="43.807619657984425" lon="11.68599407615069"><ele>580.0</ele><time>2026-05-02T06:45:24Z</time></trkpt><trkpt lat="43.8076140142194" lon="11.686081629269914"><ele>577.0</ele><time>2026-05-02T06:45:25Z</time></trkpt><trkpt lat="43.80760369698691" lon="11.686244551641185"><ele>574.0</ele><time>2026-05-02T06:45:27Z</time></trkpt><trkpt lat="43.80760366446159" lon="11.686386854900652"><ele>571.0</ele><time>2026-05-02T06:45:29Z</time></trkpt><trkpt lat="43.80755118277704" lon="11.686532417879286"><ele>568.0</ele><time>2026-05-02T06:45:31Z</time></trkpt><trkpt lat="43.807486818228405" lon="11.686659211521544"><ele>568.0</ele><time>2026-05-02T06:45:33Z</time></trkpt><trkpt lat="43.80737680913974" lon="11.686769800034279"><ele>568.0</ele><time>2026-05-02T06:45:35Z</time></trkpt><trkpt lat="43.80731439586409" lon="11.686834977529475"><ele>568.0</ele><time>2026-05-02T06:45:36Z</time></trkpt><trkpt lat="43.80725632696533" lon="11.686909790790784"><ele>568.0</ele><time>2026-05-02T06:45:37Z</time></trkpt><trkpt lat="43.80720092148884" lon="11.686991663241795"><ele>568.0</ele><time>2026-05-02T06:45:38Z</time></trkpt><trkpt lat="43.807134818779375" lon="11.687049504934024"><ele>569.8</ele><time>2026-05-02T06:45:39Z</time></trkpt><trkpt lat="43.80705029259415" lon="11.687098877682528"><ele>571.5999999999999</ele><time>2026-05-02T06:45:41Z</time></trkpt><trkpt lat="43.80695282930595" lon="11.687160516201208"><ele>573.4000000000001</ele><time>2026-05-02T06:45:44Z</time></trkpt><trkpt lat="43.806920193193555" lon="11.68730998391689"><ele>575.2</ele><time>2026-05-02T06:45:47Z</time></trkpt><trkpt lat="43.80686480673477" lon="11.687458160389701"><ele>577.0</ele><time>2026-05-02T06:45:49Z</time></trkpt><trkpt lat="43.80681311389755" lon="11.687640545689318"><ele>577.0</ele><time>2026-05-02T06:45:51Z</time></trkpt><trkpt lat="43.806809903635994" lon="11.687736327263286"><ele>577.0</ele><time>2026-05-02T06:45:52Z</time></trkpt><trkpt lat="43.80681381912984" lon="11.687842164916903"><ele>577.0</ele><time>2026-05-02T06:45:53Z</time></trkpt><trkpt lat="43.806823747797715" lon="11.687940792064696"><ele>577.0</ele><time>2026-05-02T06:45:54Z</time></trkpt><trkpt lat="43.8068307769744" lon="11.688031571809521"><ele>577.0</ele><time>2026-05-02T06:45:55Z</time></trkpt><trkpt lat="43.80680120058571" lon="11.688204785304503"><ele>577.0</ele><time>2026-05-02T06:45:57Z</time></trkpt><trkpt lat="43.806773006457036" lon="11.688292462680277"><ele>574.6666666666667</ele><time>2026-05-02T06:45:58Z</time></trkpt><trkpt lat="43.80673228250596" lon="11.688363846252546"><ele>572.3333333333334</ele><time>2026-05-02T06:45:59Z</time></trkpt><trkpt lat="43.80663914290513" lon="11.68848842389326"><ele>570.0</ele><time>2026-05-02T06:46:01Z</time></trkpt><trkpt lat="43.80658174539965" lon="11.688565414325025"><ele>567.6666666666666</ele><time>2026-05-02T06:46:02Z</time></trkpt><trkpt lat="43.80651546273374" lon="11.688623774358732"><ele>565.3333333333333</ele><time>2026-05-02T06:46:03Z</time></trkpt><trkpt lat="43.80645471241229" lon="11.688701970536496"><ele>563.0</ele><time>2026-05-02T06:46:04Z</time></trkpt><trkpt lat="43.80641076547673" lon="11.68879060865084"><ele>562.8</ele><time>2026-05-02T06:46:05Z</time></trkpt><trkpt lat="43.806373331915715" lon="11.688882423048488"><ele>562.5999999999999</ele><time>2026-05-02T06:46:06Z</time></trkpt><trkpt lat="43.80626814376607" lon="11.688942498859664"><ele>562.4000000000001</ele><time>2026-05-02T06:46:08Z</time></trkpt><trkpt lat="43.80617555512061" lon="11.68898461783602"><ele>562.2</ele><time>2026-05-02T06:46:10Z</time></trkpt><trkpt lat="43.806083326804334" lon="11.688965982123213"><ele>562.0</ele><time>2026-05-02T06:46:13Z</time></trkpt><trkpt lat="43.80598726981402" lon="11.68906688478508"><ele>562.0</ele><time>2026-05-02T06:46:15Z</time></trkpt><trkpt lat="43.80595211380348" lon="11.689179487592918"><ele>562.0</ele><time>2026-05-02T06:46:17Z</time></trkpt><trkpt lat="43.80590981779677" lon="11.689273108049315"><ele>562.0</ele><time>2026-05-02T06:46:19Z</time></trkpt><trkpt lat="43.80588249565533" lon="11.689391941832076"><ele>562.0</ele><time>2026-05-02T06:46:21Z</time></trkpt><trkpt lat="43.805835095633164" lon="11.689464430499742"><ele>562.0</ele><time>2026-05-02T06:46:22Z</time></trkpt><trkpt lat="43.805761600867854" lon="11.689520892771915"><ele>562.0</ele><time>2026-05-02T06:46:23Z</time></trkpt><trkpt lat="43.805691754330816" lon="11.689664243094008"><ele>560.5</ele><time>2026-05-02T06:46:25Z</time></trkpt><trkpt lat="43.80564790197398" lon="11.689739683330863"><ele>559.0</ele><time>2026-05-02T06:46:26Z</time></trkpt><trkpt lat="43.80560651809144" lon="11.689816770440025"><ele>557.5</ele><time>2026-05-02T06:46:27Z</time></trkpt><trkpt lat="43.80556877025425" lon="11.68991528699748"><ele>556.0</ele><time>2026-05-02T06:46:28Z</time></trkpt><trkpt lat="43.80555204779779" lon="11.690004654513245"><ele>554.5</ele><time>2026-05-02T06:46:29Z</time></trkpt><trkpt lat="43.80554095452206" lon="11.690108260514668"><ele>553.0</ele><time>2026-05-02T06:46:30Z</time></trkpt><trkpt lat="43.805517053380385" lon="11.690239283029815"><ele>551.4</ele><time>2026-05-02T06:46:32Z</time></trkpt><trkpt lat="43.80545119356472" lon="11.690347019827763"><ele>549.8</ele><time>2026-05-02T06:46:34Z</time></trkpt><trkpt lat="43.8053923065422" lon="11.690429679816265"><ele>548.2</ele><time>2026-05-02T06:46:38Z</time></trkpt><trkpt lat="43.80534770404621" lon="11.690557528683804"><ele>546.6</ele><time>2026-05-02T06:46:46Z</time></trkpt><trkpt lat="43.80531638495708" lon="11.690636898291162"><ele>545.0</ele><time>2026-05-02T06:46:47Z</time></trkpt><trkpt lat="43.805242374968834" lon="11.690747588429971"><ele>545.0</ele><time>2026-05-02T06:46:49Z</time></trkpt><trkpt lat="43.80518840246744" lon="11.69080401205291"><ele>545.0</ele><time>2026-05-02T06:46:50Z</time></trkpt><trkpt lat="43.80511059835322" lon="11.690872554237163"><ele>545.0</ele><time>2026-05-02T06:46:51Z</time></trkpt><trkpt lat="43.80503580254886" lon="11.690881520792477"><ele>545.0</ele><time>2026-05-02T06:46:55Z</time></trkpt><trkpt lat="43.80496656464051" lon="11.69095049328159"><ele>545.0</ele><time>2026-05-02T06:46:57Z</time></trkpt><trkpt lat="43.80487473776596" lon="11.691024984224027"><ele>545.0</ele><time>2026-05-02T06:46:59Z</time></trkpt><trkpt lat="43.804797430980855" lon="11.691099161901654"><ele>544.8</ele><time>2026-05-02T06:47:01Z</time></trkpt><trkpt lat="43.804719112484314" lon="11.69116302263609"><ele>544.6</ele><time>2026-05-02T06:47:04Z</time></trkpt><trkpt lat="43.80463051221264" lon="11.691194054726482"><ele>544.4</ele><time>2026-05-02T06:47:06Z</time></trkpt><trkpt lat="43.80453327213036" lon="11.691199279269338"><ele>544.2</ele><time>2026-05-02T06:47:08Z</time></trkpt><trkpt lat="43.80447580068188" lon="11.691337899216016"><ele>544.0</ele><time>2026-05-02T06:47:11Z</time></trkpt><trkpt lat="43.804438181487775" lon="11.691448082881472"><ele>544.0</ele><time>2026-05-02T06:47:13Z</time></trkpt><trkpt lat="43.80441395824908" lon="11.691561809268679"><ele>544.0</ele><time>2026-05-02T06:47:15Z</time></trkpt><trkpt lat="43.80440921562084" lon="11.691680901917591"><ele>544.0</ele><time>2026-05-02T06:47:17Z</time></trkpt><trkpt lat="43.804401840612286" lon="11.691810571308196"><ele>544.0</ele><time>2026-05-02T06:47:19Z</time></trkpt><trkpt lat="43.80440881793278" lon="11.691945908299589"><ele>544.0</ele><time>2026-05-02T06:47:21Z</time></trkpt><trkpt lat="43.80438278487684" lon="11.692060974888776"><ele>540.2</ele><time>2026-05-02T06:47:23Z</time></trkpt><trkpt lat="43.80438187590626" lon="11.692233628216474"><ele>536.4</ele><time>2026-05-02T06:47:25Z</time></trkpt><trkpt lat="43.80437899267621" lon="11.69232190301948"><ele>532.6</ele><time>2026-05-02T06:47:26Z</time></trkpt><trkpt lat="43.8044230071274" lon="11.692464925205833"><ele>528.8</ele><time>2026-05-02T06:47:28Z</time></trkpt><trkpt lat="43.8044352100292" lon="11.69259887855865"><ele>525.0</ele><time>2026-05-02T06:47:30Z</time></trkpt><trkpt lat="43.804446219609545" lon="11.692738561928627"><ele>523.2</ele><time>2026-05-02T06:47:32Z</time></trkpt><trkpt lat="43.8044489576534" lon="11.69287175412763"><ele>521.4</ele><time>2026-05-02T06:47:34Z</time></trkpt><trkpt lat="43.804445373219636" lon="11.692994104175794"><ele>519.6</ele><time>2026-05-02T06:47:36Z</time></trkpt><trkpt lat="43.8044780969535" lon="11.6931482562662"><ele>517.8</ele><time>2026-05-02T06:47:38Z</time></trkpt><trkpt lat="43.804483818215395" lon="11.693297552263358"><ele>516.0</ele><time>2026-05-02T06:47:40Z</time></trkpt><trkpt lat="43.80445651792667" lon="11.693449803012463"><ele>516.0</ele><time>2026-05-02T06:47:42Z</time></trkpt><trkpt lat="43.80440319054607" lon="11.693580158858603"><ele>516.0</ele><time>2026-05-02T06:47:44Z</time></trkpt><trkpt lat="43.80433748104733" lon="11.693693306645786"><ele>516.0</ele><time>2026-05-02T06:47:46Z</time></trkpt><trkpt lat="43.80428663839407" lon="11.693807109625984"><ele>516.0</ele><time>2026-05-02T06:47:48Z</time></trkpt><trkpt lat="43.80424398548075" lon="11.693958571962812"><ele>516.0</ele><time>2026-05-02T06:47:50Z</time></trkpt><trkpt lat="43.80421404115149" lon="11.694047132008436"><ele>515.0</ele><time>2026-05-02T06:47:51Z</time></trkpt><trkpt lat="43.80416433359776" lon="11.69411351317536"><ele>514.0</ele><time>2026-05-02T06:47:52Z</time></trkpt><trkpt lat="43.80408526697006" lon="11.694218303024122"><ele>513.0</ele><time>2026-05-02T06:47:54Z</time></trkpt><trkpt lat="43.804001865956" lon="11.694320731294354"><ele>512.0</ele><time>2026-05-02T06:47:56Z</time></trkpt><trkpt lat="43.80395390840693" lon="11.694382639856993"><ele>511.0</ele><time>2026-05-02T06:47:57Z</time></trkpt><trkpt lat="43.80384163550679" lon="11.694443062885243"><ele>511.00000000000006</ele><time>2026-05-02T06:47:59Z</time></trkpt><trkpt lat="43.80379880335598" lon="11.694518540075052"><ele>511.0</ele><time>2026-05-02T06:48:01Z</time></trkpt><trkpt lat="43.80384415943267" lon="11.694636581791626"><ele>511.0</ele><time>2026-05-02T06:48:03Z</time></trkpt><trkpt lat="43.80387603069276" lon="11.694728744507943"><ele>511.0</ele><time>2026-05-02T06:48:04Z</time></trkpt><trkpt lat="43.8038870849963" lon="11.694816897531528"><ele>511.00000000000006</ele><time>2026-05-02T06:48:05Z</time></trkpt><trkpt lat="43.80385673777781" lon="11.694910067657405"><ele>511.0</ele><time>2026-05-02T06:48:06Z</time></trkpt><trkpt lat="43.8038138045276" lon="11.6950039788426"><ele>511.0</ele><time>2026-05-02T06:48:07Z</time></trkpt><trkpt lat="43.80375912562991" lon="11.695083454781935"><ele>511.0</ele><time>2026-05-02T06:48:09Z</time></trkpt><trkpt lat="43.803679194955656" lon="11.695108240911653"><ele>511.0</ele><time>2026-05-02T06:48:11Z</time></trkpt><trkpt lat="43.8035639189031" lon="11.695080492473286"><ele>511.0</ele><time>2026-05-02T06:48:13Z</time></trkpt><trkpt lat="43.80347138703469" lon="11.695045596369328"><ele>511.0</ele><time>2026-05-02T06:48:15Z</time></trkpt><trkpt lat="43.80339221944091" lon="11.69507658809713"><ele>509.0</ele><time>2026-05-02T06:48:18Z</time></trkpt><trkpt lat="43.80342764489847" lon="11.695227474285627"><ele>507.0</ele><time>2026-05-02T06:48:21Z</time></trkpt><trkpt lat="43.8034920521883" lon="11.695320796105037"><ele>505.0</ele><time>2026-05-02T06:48:22Z</time></trkpt><trkpt lat="43.80351938013452" lon="11.695410380205836"><ele>503.0</ele><time>2026-05-02T06:48:23Z</time></trkpt><trkpt lat="43.80353111660186" lon="11.695505503837015"><ele>501.0</ele><time>2026-05-02T06:48:24Z</time></trkpt><trkpt lat="43.8035663817533" lon="11.695660484251013"><ele>501.0</ele><time>2026-05-02T06:48:26Z</time></trkpt><trkpt lat="43.80356794836138" lon="11.695752839318166"><ele>501.0</ele><time>2026-05-02T06:48:27Z</time></trkpt><trkpt lat="43.80356163464966" lon="11.69584150632997"><ele>501.0</ele><time>2026-05-02T06:48:28Z</time></trkpt><trkpt lat="43.803565362302145" lon="11.695952912907586"><ele>501.0</ele><time>2026-05-02T06:48:29Z</time></trkpt><trkpt lat="43.80356599536029" lon="11.69605633676226"><ele>501.0</ele><time>2026-05-02T06:48:30Z</time></trkpt><trkpt lat="43.80356178974657" lon="11.696162508432554"><ele>501.0</ele><time>2026-05-02T06:48:31Z</time></trkpt><trkpt lat="43.8035630911112" lon="11.696271975576455"><ele>501.0</ele><time>2026-05-02T06:48:32Z</time></trkpt><trkpt lat="43.803553231778" lon="11.696364887096172"><ele>502.4</ele><time>2026-05-02T06:48:33Z</time></trkpt><trkpt lat="43.80354089244923" lon="11.696513655225079"><ele>503.8</ele><time>2026-05-02T06:48:35Z</time></trkpt><trkpt lat="43.80351623174373" lon="11.69667211797526"><ele>505.19999999999993</ele><time>2026-05-02T06:48:37Z</time></trkpt><trkpt lat="43.80348929949996" lon="11.696821745460598"><ele>506.59999999999997</ele><time>2026-05-02T06:48:39Z</time></trkpt><trkpt lat="43.803451945371805" lon="11.696914199786045"><ele>508.0</ele><time>2026-05-02T06:48:41Z</time></trkpt><trkpt lat="43.80340757810862" lon="11.696999568182886"><ele>508.0</ele><time>2026-05-02T06:48:44Z</time></trkpt><trkpt lat="43.80334345829515" lon="11.697068131829814"><ele>507.99999999999994</ele><time>2026-05-02T06:48:46Z</time></trkpt><trkpt lat="43.8032880886394" lon="11.697132509169807"><ele>507.99999999999994</ele><time>2026-05-02T06:48:48Z</time></trkpt><trkpt lat="43.803233109911815" lon="11.697209981445212"><ele>508.0</ele><time>2026-05-02T06:48:50Z</time></trkpt><trkpt lat="43.80317037368661" lon="11.697312680318706"><ele>508.0</ele><time>2026-05-02T06:48:52Z</time></trkpt><trkpt lat="43.80307404241113" lon="11.697423882378722"><ele>508.00000000000006</ele><time>2026-05-02T06:48:54Z</time></trkpt><trkpt lat="43.802976982000395" lon="11.697542077677694"><ele>508.0</ele><time>2026-05-02T06:48:56Z</time></trkpt><trkpt lat="43.80292706524395" lon="11.697602070516083"><ele>508.0</ele><time>2026-05-02T06:48:57Z</time></trkpt><trkpt lat="43.80284956580046" lon="11.697723118073876"><ele>508.0</ele><time>2026-05-02T06:48:59Z</time></trkpt><trkpt lat="43.80281038465031" lon="11.697794177839796"><ele>508.00000000000006</ele><time>2026-05-02T06:49:00Z</time></trkpt><trkpt lat="43.80276780022351" lon="11.697871162630726"><ele>508.0</ele><time>2026-05-02T06:49:01Z</time></trkpt><trkpt lat="43.8027412187733" lon="11.69795310301591"><ele>509.25</ele><time>2026-05-02T06:49:02Z</time></trkpt><trkpt lat="43.802686947698604" lon="11.698098996796887"><ele>510.5</ele><time>2026-05-02T06:49:04Z</time></trkpt><trkpt lat="43.80261010387039" lon="11.698202655226007"><ele>511.75</ele><time>2026-05-02T06:49:06Z</time></trkpt><trkpt lat="43.80253698851632" lon="11.69828771471043"><ele>513.0</ele><time>2026-05-02T06:49:08Z</time></trkpt><trkpt lat="43.8024750664852" lon="11.698446038411205"><ele>513.0</ele><time>2026-05-02T06:49:10Z</time></trkpt><trkpt lat="43.802465287287404" lon="11.698547154209663"><ele>513.0</ele><time>2026-05-02T06:49:11Z</time></trkpt><trkpt lat="43.80247374016627" lon="11.69865729711065"><ele>513.0</ele><time>2026-05-02T06:49:12Z</time></trkpt><trkpt lat="43.80247974781818" lon="11.698766444098435"><ele>513.0</ele><time>2026-05-02T06:49:13Z</time></trkpt><trkpt lat="43.80247109035747" lon="11.698882319690773"><ele>513.0</ele><time>2026-05-02T06:49:14Z</time></trkpt><trkpt lat="43.80244309780642" lon="11.698985125077819"><ele>513.0</ele><time>2026-05-02T06:49:15Z</time></trkpt><trkpt lat="43.80239699542389" lon="11.69910557724416"><ele>510.59999999999997</ele><time>2026-05-02T06:49:16Z</time></trkpt><trkpt lat="43.80233565847691" lon="11.699221453868223"><ele>508.19999999999993</ele><time>2026-05-02T06:49:17Z</time></trkpt><trkpt lat="43.80227705818998" lon="11.699340930051813"><ele>505.8</ele><time>2026-05-02T06:49:18Z</time></trkpt><trkpt lat="43.80222528666629" lon="11.699456802011092"><ele>503.4</ele><time>2026-05-02T06:49:19Z</time></trkpt><trkpt lat="43.80218994294042" lon="11.6995732198955"><ele>501.0</ele><time>2026-05-02T06:49:20Z</time></trkpt><trkpt lat="43.80216987258359" lon="11.699690857260032"><ele>499.8333333333333</ele><time>2026-05-02T06:49:21Z</time></trkpt><trkpt lat="43.8021546450433" lon="11.699807902835108"><ele>498.66666666666663</ele><time>2026-05-02T06:49:22Z</time></trkpt><trkpt lat="43.80213994915511" lon="11.699913390936082"><ele>497.5</ele><time>2026-05-02T06:49:24Z</time></trkpt><trkpt lat="43.80207852237855" lon="11.699885451277522"><ele>496.3333333333333</ele><time>2026-05-02T06:49:32Z</time></trkpt><trkpt lat="43.80207615828507" lon="11.699975792013179"><ele>495.16666666666663</ele><time>2026-05-02T06:49:38Z</time></trkpt><trkpt lat="43.802014736182755" lon="11.700079664699905"><ele>494.0</ele><time>2026-05-02T06:49:40Z</time></trkpt><trkpt lat="43.80192018379646" lon="11.700163278648915"><ele>494.0</ele><time>2026-05-02T06:49:42Z</time></trkpt><trkpt lat="43.801861534239414" lon="11.700232576107911"><ele>494.0</ele><time>2026-05-02T06:49:43Z</time></trkpt><trkpt lat="43.80181057941558" lon="11.700306951450257"><ele>494.0</ele><time>2026-05-02T06:49:44Z</time></trkpt><trkpt lat="43.80176991259078" lon="11.70038731804942"><ele>494.0</ele><time>2026-05-02T06:49:45Z</time></trkpt><trkpt lat="43.80173234613341" lon="11.700470861279669"><ele>494.0</ele><time>2026-05-02T06:49:46Z</time></trkpt><trkpt lat="43.80169690834714" lon="11.700553082313595"><ele>494.0</ele><time>2026-05-02T06:49:47Z</time></trkpt><trkpt lat="43.801659815531465" lon="11.700631594926172"><ele>494.0</ele><time>2026-05-02T06:49:48Z</time></trkpt><trkpt lat="43.801619683978736" lon="11.700706364307587"><ele>494.79999999999995</ele><time>2026-05-02T06:49:49Z</time></trkpt><trkpt lat="43.8015777495739" lon="11.700775798652463"><ele>495.59999999999997</ele><time>2026-05-02T06:49:50Z</time></trkpt><trkpt lat="43.801482240668356" lon="11.700885185332599"><ele>496.4</ele><time>2026-05-02T06:49:52Z</time></trkpt><trkpt lat="43.801361449680186" lon="11.7009704992117"><ele>497.2</ele><time>2026-05-02T06:49:54Z</time></trkpt><trkpt lat="43.80128823423847" lon="11.701003113082075"><ele>498.0</ele><time>2026-05-02T06:49:55Z</time></trkpt><trkpt lat="43.80120157030166" lon="11.701044778096655"><ele>497.0</ele><time>2026-05-02T06:49:56Z</time></trkpt><trkpt lat="43.80111617208404" lon="11.701091506321948"><ele>496.0</ele><time>2026-05-02T06:49:57Z</time></trkpt><trkpt lat="43.80102775617673" lon="11.701144507797975"><ele>495.0</ele><time>2026-05-02T06:49:58Z</time></trkpt><trkpt lat="43.800958728515575" lon="11.701161618178443"><ele>494.0</ele><time>2026-05-02T06:49:59Z</time></trkpt><trkpt lat="43.80088997342333" lon="11.701192541338335"><ele>493.0</ele><time>2026-05-02T06:50:00Z</time></trkpt><trkpt lat="43.800821071443536" lon="11.701224822782466"><ele>492.0</ele><time>2026-05-02T06:50:01Z</time></trkpt><trkpt lat="43.80075520479521" lon="11.70125455299814"><ele>492.00000000000006</ele><time>2026-05-02T06:50:02Z</time></trkpt><trkpt lat="43.80068580677158" lon="11.701291661267064"><ele>492.0</ele><time>2026-05-02T06:50:03Z</time></trkpt><trkpt lat="43.800623911262" lon="11.70133169312139"><ele>492.00000000000006</ele><time>2026-05-02T06:50:04Z</time></trkpt><trkpt lat="43.80057721334411" lon="11.701392570924579"><ele>492.00000000000006</ele><time>2026-05-02T06:50:05Z</time></trkpt><trkpt lat="43.80054436195077" lon="11.701472815504625"><ele>492.0</ele><time>2026-05-02T06:50:06Z</time></trkpt><trkpt lat="43.80052936844968" lon="11.701575272776456"><ele>492.00000000000006</ele><time>2026-05-02T06:50:07Z</time></trkpt><trkpt lat="43.80053325456958" lon="11.701693830182553"><ele>492.00000000000006</ele><time>2026-05-02T06:50:08Z</time></trkpt><trkpt lat="43.800535529646076" lon="11.701814015276266"><ele>490.5</ele><time>2026-05-02T06:50:09Z</time></trkpt><trkpt lat="43.800529039893135" lon="11.701929153509251"><ele>489.0</ele><time>2026-05-02T06:50:10Z</time></trkpt><trkpt lat="43.800518690620414" lon="11.702038814481162"><ele>487.5</ele><time>2026-05-02T06:50:11Z</time></trkpt><trkpt lat="43.80050313297427" lon="11.702136971525189"><ele>486.0</ele><time>2026-05-02T06:50:12Z</time></trkpt><trkpt lat="43.80047813476761" lon="11.702241362629033"><ele>484.5</ele><time>2026-05-02T06:50:13Z</time></trkpt><trkpt lat="43.80043748258377" lon="11.702333448419536"><ele>483.0</ele><time>2026-05-02T06:50:14Z</time></trkpt><trkpt lat="43.80039382827143" lon="11.702413191712129"><ele>483.0</ele><time>2026-05-02T06:50:15Z</time></trkpt><trkpt lat="43.80034048785089" lon="11.70250123092885"><ele>483.0</ele><time>2026-05-02T06:50:16Z</time></trkpt><trkpt lat="43.800278958280785" lon="11.702575237550883"><ele>483.0</ele><time>2026-05-02T06:50:17Z</time></trkpt><trkpt lat="43.8002118390395" lon="11.702646666016614"><ele>483.0</ele><time>2026-05-02T06:50:18Z</time></trkpt><trkpt lat="43.800145810244395" lon="11.702720459659442"><ele>483.0</ele><time>2026-05-02T06:50:19Z</time></trkpt><trkpt lat="43.80007874851556" lon="11.70278844538324"><ele>483.0</ele><time>2026-05-02T06:50:20Z</time></trkpt><trkpt lat="43.80000615966172" lon="11.702875853974126"><ele>480.59999999999997</ele><time>2026-05-02T06:50:22Z</time></trkpt><trkpt lat="43.79996346092527" lon="11.7029416908287"><ele>478.19999999999993</ele><time>2026-05-02T06:50:24Z</time></trkpt><trkpt lat="43.79999695381674" lon="11.703035200653034"><ele>475.8</ele><time>2026-05-02T06:50:27Z</time></trkpt><trkpt lat="43.80012036177047" lon="11.70298738650749"><ele>473.4</ele><time>2026-05-02T06:50:29Z</time></trkpt><trkpt lat="43.800211025240685" lon="11.702981282503082"><ele>471.0</ele><time>2026-05-02T06:50:31Z</time></trkpt><trkpt lat="43.800280240628766" lon="11.703103889073812"><ele>470.20000000000005</ele><time>2026-05-02T06:50:33Z</time></trkpt><trkpt lat="43.800343037949894" lon="11.703250016719892"><ele>469.40000000000003</ele><time>2026-05-02T06:50:35Z</time></trkpt><trkpt lat="43.800389367088336" lon="11.70340855336074"><ele>468.6</ele><time>2026-05-02T06:50:37Z</time></trkpt><trkpt lat="43.8004017236431" lon="11.703500221144806"><ele>467.8</ele><time>2026-05-02T06:50:38Z</time></trkpt><trkpt lat="43.80039856670378" lon="11.703609805774331"><ele>467.0</ele><time>2026-05-02T06:50:39Z</time></trkpt><trkpt lat="43.80039084789603" lon="11.703706700166236"><ele>464.3333333333333</ele><time>2026-05-02T06:50:40Z</time></trkpt><trkpt lat="43.80039596879043" lon="11.70380048443196"><ele>461.66666666666663</ele><time>2026-05-02T06:50:41Z</time></trkpt><trkpt lat="43.800414706889995" lon="11.703889982746226"><ele>459.0</ele><time>2026-05-02T06:50:42Z</time></trkpt><trkpt lat="43.80043725027386" lon="11.703973151804208"><ele>456.33333333333337</ele><time>2026-05-02T06:50:43Z</time></trkpt><trkpt lat="43.800506589336976" lon="11.704073989333898"><ele>453.6666666666667</ele><time>2026-05-02T06:50:45Z</time></trkpt><trkpt lat="43.80057111091673" lon="11.704087634725756"><ele>451.0</ele><time>2026-05-02T06:50:46Z</time></trkpt><trkpt lat="43.80067858904408" lon="11.704119411531073"><ele>451.00000000000006</ele><time>2026-05-02T06:50:48Z</time></trkpt><trkpt lat="43.80071392979116" lon="11.704194910416579"><ele>451.0</ele><time>2026-05-02T06:50:50Z</time></trkpt><trkpt lat="43.800642271050165" lon="11.70434606599182"><ele>451.0</ele><time>2026-05-02T06:50:52Z</time></trkpt><trkpt lat="43.80058768026641" lon="11.704427583042637"><ele>451.0</ele><time>2026-05-02T06:50:53Z</time></trkpt><trkpt lat="43.80053831654834" lon="11.704514465286241"><ele>451.00000000000006</ele><time>2026-05-02T06:50:54Z</time></trkpt><trkpt lat="43.80049868385585" lon="11.704609522977972"><ele>451.0</ele><time>2026-05-02T06:50:55Z</time></trkpt><trkpt lat="43.8004612213786" lon="11.704683574993194"><ele>450.00000000000006</ele><time>2026-05-02T06:50:56Z</time></trkpt><trkpt lat="43.80042953187115" lon="11.704760464790242"><ele>449.0</ele><time>2026-05-02T06:50:57Z</time></trkpt><trkpt lat="43.80041884810939" lon="11.704861269999544"><ele>448.0</ele><time>2026-05-02T06:50:59Z</time></trkpt><trkpt lat="43.80045965471742" lon="11.704982892759093"><ele>447.0</ele><time>2026-05-02T06:51:01Z</time></trkpt><trkpt lat="43.800488955625035" lon="11.705068153874496"><ele>446.00000000000006</ele><time>2026-05-02T06:51:02Z</time></trkpt><trkpt lat="43.80052313897857" lon="11.705163482539463"><ele>445.0</ele><time>2026-05-02T06:51:03Z</time></trkpt><trkpt lat="43.80054600918393" lon="11.705267204964233"><ele>445.00000000000006</ele><time>2026-05-02T06:51:04Z</time></trkpt><trkpt lat="43.80054805393065" lon="11.705382377957658"><ele>445.0</ele><time>2026-05-02T06:51:05Z</time></trkpt><trkpt lat="43.80054999110902" lon="11.705501247871778"><ele>445.0</ele><time>2026-05-02T06:51:06Z</time></trkpt><trkpt lat="43.8005495536632" lon="11.705608860390045"><ele>445.0</ele><time>2026-05-02T06:51:07Z</time></trkpt><trkpt lat="43.80055012007353" lon="11.705708332370925"><ele>445.00000000000006</ele><time>2026-05-02T06:51:08Z</time></trkpt><trkpt lat="43.800532707739855" lon="11.705842522102259"><ele>445.0</ele><time>2026-05-02T06:51:10Z</time></trkpt><trkpt lat="43.800442889478504" lon="11.70589166750159"><ele>445.00000000000006</ele><time>2026-05-02T06:51:12Z</time></trkpt><trkpt lat="43.80037484413647" lon="11.705902291316297"><ele>445.0</ele><time>2026-05-02T06:51:13Z</time></trkpt><trkpt lat="43.80029629617682" lon="11.705876753105667"><ele>445.0</ele><time>2026-05-02T06:51:14Z</time></trkpt><trkpt lat="43.80022057828112" lon="11.705833153581944"><ele>445.0</ele><time>2026-05-02T06:51:15Z</time></trkpt><trkpt lat="43.80013649863907" lon="11.70579352593669"><ele>445.00000000000006</ele><time>2026-05-02T06:51:16Z</time></trkpt><trkpt lat="43.80005103449517" lon="11.70576918160135"><ele>445.0</ele><time>2026-05-02T06:51:17Z</time></trkpt><trkpt lat="43.79997334365859" lon="11.705766651734399"><ele>444.33333333333337</ele><time>2026-05-02T06:51:18Z</time></trkpt><trkpt lat="43.79989898991453" lon="11.705771753843251"><ele>443.6666666666667</ele><time>2026-05-02T06:51:19Z</time></trkpt><trkpt lat="43.79983319368965" lon="11.705799044795913"><ele>443.0</ele><time>2026-05-02T06:51:20Z</time></trkpt><trkpt lat="43.79977381061113" lon="11.70584307091584"><ele>442.33333333333337</ele><time>2026-05-02T06:51:21Z</time></trkpt><trkpt lat="43.799723637042234" lon="11.705898723210389"><ele>441.6666666666667</ele><time>2026-05-02T06:51:22Z</time></trkpt><trkpt lat="43.79965644920788" lon="11.70601964106559"><ele>441.0</ele><time>2026-05-02T06:51:24Z</time></trkpt><trkpt lat="43.79966850658506" lon="11.706178781461471"><ele>441.0</ele><time>2026-05-02T06:51:26Z</time></trkpt><trkpt lat="43.79971117672488" lon="11.706259389018191"><ele>441.0</ele><time>2026-05-02T06:51:27Z</time></trkpt><trkpt lat="43.79977137351029" lon="11.706327619590947"><ele>441.0</ele><time>2026-05-02T06:51:28Z</time></trkpt><trkpt lat="43.799838780276914" lon="11.706385958007038"><ele>441.0</ele><time>2026-05-02T06:51:29Z</time></trkpt><trkpt lat="43.79989844753881" lon="11.706456880655564"><ele>441.0</ele><time>2026-05-02T06:51:30Z</time></trkpt><trkpt lat="43.79995024548375" lon="11.706516871295538"><ele>441.0</ele><time>2026-05-02T06:51:31Z</time></trkpt><trkpt lat="43.80000405511306" lon="11.706580181230311"><ele>441.0</ele><time>2026-05-02T06:51:32Z</time></trkpt><trkpt lat="43.80005635534328" lon="11.70662927316148"><ele>441.0</ele><time>2026-05-02T06:51:33Z</time></trkpt><trkpt lat="43.800141008030344" lon="11.706749870796536"><ele>441.0</ele><time>2026-05-02T06:51:35Z</time></trkpt><trkpt lat="43.800191414760675" lon="11.70681384830103"><ele>441.0</ele><time>2026-05-02T06:51:36Z</time></trkpt><trkpt lat="43.80025073762656" lon="11.706871173130478"><ele>441.0</ele><time>2026-05-02T06:51:37Z</time></trkpt><trkpt lat="43.80031381290953" lon="11.706916523606157"><ele>441.0</ele><time>2026-05-02T06:51:38Z</time></trkpt><trkpt lat="43.800379074724134" lon="11.706953513564526"><ele>441.0</ele><time>2026-05-02T06:51:39Z</time></trkpt><trkpt lat="43.800488314347625" lon="11.707017308352658"><ele>441.6666666666667</ele><time>2026-05-02T06:51:41Z</time></trkpt><trkpt lat="43.80059874582121" lon="11.70706465939534"><ele>442.33333333333337</ele><time>2026-05-02T06:51:43Z</time></trkpt><trkpt lat="43.80065928260608" lon="11.707098018803377"><ele>443.0</ele><time>2026-05-02T06:51:44Z</time></trkpt><trkpt lat="43.80076736759958" lon="11.70715005646427"><ele>443.6666666666667</ele><time>2026-05-02T06:51:46Z</time></trkpt><trkpt lat="43.800833790418984" lon="11.70715705959651"><ele>444.33333333333337</ele><time>2026-05-02T06:51:47Z</time></trkpt><trkpt lat="43.80090171046239" lon="11.7071797050798"><ele>445.0</ele><time>2026-05-02T06:51:48Z</time></trkpt><trkpt lat="43.80096912286841" lon="11.70720520730946"><ele>445.42857142857144</ele><time>2026-05-02T06:51:49Z</time></trkpt><trkpt lat="43.801037361381916" lon="11.707239045442421"><ele>445.85714285714283</ele><time>2026-05-02T06:51:50Z</time></trkpt><trkpt lat="43.80111041489971" lon="11.707286200349412"><ele>446.2857142857143</ele><time>2026-05-02T06:51:51Z</time></trkpt><trkpt lat="43.80117433673272" lon="11.707318030960439"><ele>446.7142857142857</ele><time>2026-05-02T06:51:52Z</time></trkpt><trkpt lat="43.801237034963115" lon="11.707353401744031"><ele>447.1428571428571</ele><time>2026-05-02T06:51:53Z</time></trkpt><trkpt lat="43.801301031124815" lon="11.707388154093868"><ele>447.57142857142856</ele><time>2026-05-02T06:51:54Z</time></trkpt><trkpt lat="43.80137932053322" lon="11.707425628142406"><ele>448.0</ele><time>2026-05-02T06:51:55Z</time></trkpt><trkpt lat="43.80145890684146" lon="11.707472888206668"><ele>448.00000000000006</ele><time>2026-05-02T06:51:56Z</time></trkpt><trkpt lat="43.80153527093266" lon="11.707520357461085"><ele>448.0</ele><time>2026-05-02T06:51:57Z</time></trkpt><trkpt lat="43.80160010914396" lon="11.707577247956435"><ele>448.0</ele><time>2026-05-02T06:51:58Z</time></trkpt><trkpt lat="43.801651863050346" lon="11.707632262148897"><ele>448.0</ele><time>2026-05-02T06:51:59Z</time></trkpt><trkpt lat="43.801699705026664" lon="11.707694520358492"><ele>448.00000000000006</ele><time>2026-05-02T06:52:00Z</time></trkpt><trkpt lat="43.80179691645701" lon="11.707763288176404"><ele>448.0</ele><time>2026-05-02T06:52:02Z</time></trkpt><trkpt lat="43.801914754923814" lon="11.707740110821256"><ele>448.33333333333337</ele><time>2026-05-02T06:52:04Z</time></trkpt><trkpt lat="43.80198131741533" lon="11.707729019805791"><ele>448.6666666666667</ele><time>2026-05-02T06:52:05Z</time></trkpt><trkpt lat="43.80209983460597" lon="11.707729893928471"><ele>449.0</ele><time>2026-05-02T06:52:07Z</time></trkpt><trkpt lat="43.80220097958722" lon="11.707798057689873"><ele>449.33333333333337</ele><time>2026-05-02T06:52:09Z</time></trkpt><trkpt lat="43.80224447783712" lon="11.707882466969746"><ele>449.6666666666667</ele><time>2026-05-02T06:52:10Z</time></trkpt><trkpt lat="43.802298513767006" lon="11.707948370172307"><ele>450.0</ele><time>2026-05-02T06:52:11Z</time></trkpt><trkpt lat="43.80235270240583" lon="11.707996479483409"><ele>450.0</ele><time>2026-05-02T06:52:12Z</time></trkpt><trkpt lat="43.80243948373699" lon="11.708061215305792"><ele>450.0</ele><time>2026-05-02T06:52:14Z</time></trkpt><trkpt lat="43.802506992808844" lon="11.70803395147969"><ele>450.0</ele><time>2026-05-02T06:52:15Z</time></trkpt><trkpt lat="43.8025854173106" lon="11.708001635296284"><ele>450.0</ele><time>2026-05-02T06:52:16Z</time></trkpt><trkpt lat="43.80267173313421" lon="11.707967339377461"><ele>450.0</ele><time>2026-05-02T06:52:17Z</time></trkpt><trkpt lat="43.802747940154134" lon="11.707941027968712"><ele>450.0</ele><time>2026-05-02T06:52:18Z</time></trkpt><trkpt lat="43.80282781506165" lon="11.707926653994724"><ele>451.0</ele><time>2026-05-02T06:52:19Z</time></trkpt><trkpt lat="43.80289994407464" lon="11.707902165880396"><ele>452.0</ele><time>2026-05-02T06:52:20Z</time></trkpt><trkpt lat="43.802971762086685" lon="11.70789781608159"><ele>453.0</ele><time>2026-05-02T06:52:21Z</time></trkpt><trkpt lat="43.80305461873198" lon="11.707899340411075"><ele>454.0</ele><time>2026-05-02T06:52:22Z</time></trkpt><trkpt lat="43.80313837808293" lon="11.707901043785858"><ele>455.0</ele><time>2026-05-02T06:52:23Z</time></trkpt><trkpt lat="43.8032134191845" lon="11.707900809478671"><ele>456.0</ele><time>2026-05-02T06:52:24Z</time></trkpt><trkpt lat="43.80331644328692" lon="11.707888396826249"><ele>456.0</ele><time>2026-05-02T06:52:26Z</time></trkpt><trkpt lat="43.803449438571974" lon="11.707876635179524"><ele>456.0</ele><time>2026-05-02T06:52:28Z</time></trkpt><trkpt lat="43.80353333084426" lon="11.707893259657494"><ele>456.0</ele><time>2026-05-02T06:52:29Z</time></trkpt><trkpt lat="43.803613233174886" lon="11.707909722546297"><ele>456.0</ele><time>2026-05-02T06:52:30Z</time></trkpt><trkpt lat="43.80368829700778" lon="11.707922717437398"><ele>456.0</ele><time>2026-05-02T06:52:31Z</time></trkpt><trkpt lat="43.803762016379366" lon="11.707959455207543"><ele>458.0</ele><time>2026-05-02T06:52:32Z</time></trkpt><trkpt lat="43.80383243330204" lon="11.708012022703757"><ele>460.0</ele><time>2026-05-02T06:52:33Z</time></trkpt><trkpt lat="43.803899234757544" lon="11.708073806091184"><ele>462.0</ele><time>2026-05-02T06:52:34Z</time></trkpt><trkpt lat="43.80395954084726" lon="11.708161537549303"><ele>464.0</ele><time>2026-05-02T06:52:35Z</time></trkpt><trkpt lat="43.80401402220042" lon="11.708270390183635"><ele>466.0</ele><time>2026-05-02T06:52:36Z</time></trkpt><trkpt lat="43.80405880996826" lon="11.70838688242388"><ele>468.0</ele><time>2026-05-02T06:52:37Z</time></trkpt><trkpt lat="43.80408923102499" lon="11.708510831020538"><ele>466.1666666666667</ele><time>2026-05-02T06:52:38Z</time></trkpt><trkpt lat="43.804104598446614" lon="11.70863512339883"><ele>464.33333333333337</ele><time>2026-05-02T06:52:39Z</time></trkpt><trkpt lat="43.80410143851848" lon="11.70875125157405"><ele>462.5</ele><time>2026-05-02T06:52:40Z</time></trkpt><trkpt lat="43.80409589640594" lon="11.708865297702216"><ele>460.6666666666667</ele><time>2026-05-02T06:52:41Z</time></trkpt><trkpt lat="43.80408200772172" lon="11.708994294974632"><ele>458.83333333333337</ele><time>2026-05-02T06:52:42Z</time></trkpt><trkpt lat="43.80406287785923" lon="11.709113417878608"><ele>457.0</ele><time>2026-05-02T06:52:43Z</time></trkpt><trkpt lat="43.80404366011058" lon="11.709228734477628"><ele>457.0</ele><time>2026-05-02T06:52:44Z</time></trkpt><trkpt lat="43.8040157958657" lon="11.709324108189824"><ele>457.00000000000006</ele><time>2026-05-02T06:52:45Z</time></trkpt><trkpt lat="43.80398080110782" lon="11.709397646665076"><ele>457.00000000000006</ele><time>2026-05-02T06:52:46Z</time></trkpt><trkpt lat="43.80396705637717" lon="11.70959220947569"><ele>457.0</ele><time>2026-05-02T06:52:49Z</time></trkpt><trkpt lat="43.80409600436953" lon="11.709651770971218"><ele>457.0</ele><time>2026-05-02T06:52:51Z</time></trkpt><trkpt lat="43.80418826159992" lon="11.70965251819385"><ele>458.6</ele><time>2026-05-02T06:52:52Z</time></trkpt><trkpt lat="43.80428766934226" lon="11.709645675745458"><ele>460.20000000000005</ele><time>2026-05-02T06:52:53Z</time></trkpt><trkpt lat="43.804388091913694" lon="11.709631740819551"><ele>461.8</ele><time>2026-05-02T06:52:54Z</time></trkpt><trkpt lat="43.804490752663135" lon="11.709607948478594"><ele>463.4</ele><time>2026-05-02T06:52:55Z</time></trkpt><trkpt lat="43.80459072059986" lon="11.709578162828299"><ele>465.0</ele><time>2026-05-02T06:52:56Z</time></trkpt><trkpt lat="43.80469067574722" lon="11.709549924232986"><ele>465.8</ele><time>2026-05-02T06:52:57Z</time></trkpt><trkpt lat="43.80478875585853" lon="11.709525051862704"><ele>466.6</ele><time>2026-05-02T06:52:58Z</time></trkpt><trkpt lat="43.80488434210372" lon="11.709509726822601"><ele>467.4</ele><time>2026-05-02T06:52:59Z</time></trkpt><trkpt lat="43.804977181192484" lon="11.709501175928384"><ele>468.2</ele><time>2026-05-02T06:53:00Z</time></trkpt><trkpt lat="43.80508698309155" lon="11.709505755985072"><ele>469.0</ele><time>2026-05-02T06:53:01Z</time></trkpt><trkpt lat="43.80521187626842" lon="11.709536798042404"><ele>470.0</ele><time>2026-05-02T06:53:02Z</time></trkpt><trkpt lat="43.80533881985059" lon="11.709559500377702"><ele>471.0</ele><time>2026-05-02T06:53:03Z</time></trkpt><trkpt lat="43.80546097645616" lon="11.709589319950389"><ele>472.0</ele><time>2026-05-02T06:53:04Z</time></trkpt><trkpt lat="43.80557934955941" lon="11.709619738387861"><ele>473.0</ele><time>2026-05-02T06:53:05Z</time></trkpt><trkpt lat="43.80568566631637" lon="11.709648554027595"><ele>473.0</ele><time>2026-05-02T06:53:06Z</time></trkpt><trkpt lat="43.805784181915165" lon="11.70969422433256"><ele>472.99999999999994</ele><time>2026-05-02T06:53:07Z</time></trkpt><trkpt lat="43.80588117328593" lon="11.709747140364636"><ele>472.99999999999994</ele><time>2026-05-02T06:53:08Z</time></trkpt><trkpt lat="43.805977837545115" lon="11.709804562537284"><ele>473.0</ele><time>2026-05-02T06:53:09Z</time></trkpt><trkpt lat="43.80607118077843" lon="11.709865920164141"><ele>473.0</ele><time>2026-05-02T06:53:10Z</time></trkpt><trkpt lat="43.806159651281995" lon="11.70993512797079"><ele>473.4</ele><time>2026-05-02T06:53:11Z</time></trkpt><trkpt lat="43.806247647352194" lon="11.710006449654703"><ele>473.79999999999995</ele><time>2026-05-02T06:53:12Z</time></trkpt><trkpt lat="43.80634308564873" lon="11.710075737854366"><ele>474.2</ele><time>2026-05-02T06:53:13Z</time></trkpt><trkpt lat="43.80643965914714" lon="11.71014950557769"><ele>474.6</ele><time>2026-05-02T06:53:14Z</time></trkpt><trkpt lat="43.806531836865084" lon="11.710227229587954"><ele>475.0</ele><time>2026-05-02T06:53:15Z</time></trkpt><trkpt lat="43.806618609901385" lon="11.710323814131057"><ele>477.2</ele><time>2026-05-02T06:53:16Z</time></trkpt><trkpt lat="43.806696351951366" lon="11.710430985855075"><ele>479.4</ele><time>2026-05-02T06:53:17Z</time></trkpt><trkpt lat="43.806757916422065" lon="11.710555835410878"><ele>481.6</ele><time>2026-05-02T06:53:18Z</time></trkpt><trkpt lat="43.80680177903686" lon="11.710696565789618"><ele>483.8</ele><time>2026-05-02T06:53:19Z</time></trkpt><trkpt lat="43.806816397044926" lon="11.710854732560103"><ele>486.0</ele><time>2026-05-02T06:53:20Z</time></trkpt><trkpt lat="43.806813352033885" lon="11.711014613382433"><ele>487.4</ele><time>2026-05-02T06:53:21Z</time></trkpt><trkpt lat="43.80678927739077" lon="11.711164139733594"><ele>488.8</ele><time>2026-05-02T06:53:22Z</time></trkpt><trkpt lat="43.80674986170447" lon="11.711308167843239"><ele>490.19999999999993</ele><time>2026-05-02T06:53:23Z</time></trkpt><trkpt lat="43.806693927953155" lon="11.711448828639638"><ele>491.59999999999997</ele><time>2026-05-02T06:53:24Z</time></trkpt><trkpt lat="43.80662771218781" lon="11.711561649368827"><ele>493.0</ele><time>2026-05-02T06:53:25Z</time></trkpt><trkpt lat="43.80654059517829" lon="11.711650861234483"><ele>493.0</ele><time>2026-05-02T06:53:26Z</time></trkpt><trkpt lat="43.80644433072108" lon="11.711718436893003"><ele>492.99999999999994</ele><time>2026-05-02T06:53:27Z</time></trkpt><trkpt lat="43.80634238710672" lon="11.711755120922199"><ele>492.99999999999994</ele><time>2026-05-02T06:53:28Z</time></trkpt><trkpt lat="43.80623124688924" lon="11.711761460470639"><ele>493.0</ele><time>2026-05-02T06:53:29Z</time></trkpt><trkpt lat="43.8061225177171" lon="11.71174394328368"><ele>493.0</ele><time>2026-05-02T06:53:30Z</time></trkpt><trkpt lat="43.80603601072378" lon="11.71171492818013"><ele>493.5</ele><time>2026-05-02T06:53:31Z</time></trkpt><trkpt lat="43.805952883220904" lon="11.711676786650846"><ele>494.0</ele><time>2026-05-02T06:53:32Z</time></trkpt><trkpt lat="43.80584743691733" lon="11.71160602544839"><ele>494.5</ele><time>2026-05-02T06:53:33Z</time></trkpt><trkpt lat="43.80572296190439" lon="11.711514088998213"><ele>495.0</ele><time>2026-05-02T06:53:34Z</time></trkpt><trkpt lat="43.80558475585043" lon="11.711412139559004"><ele>495.0</ele><time>2026-05-02T06:53:35Z</time></trkpt><trkpt lat="43.805459142019785" lon="11.711322917749053"><ele>495.0</ele><time>2026-05-02T06:53:36Z</time></trkpt><trkpt lat="43.80534840451637" lon="11.711257203896585"><ele>495.0</ele><time>2026-05-02T06:53:37Z</time></trkpt><trkpt lat="43.805251126938344" lon="11.711219139364385"><ele>495.0</ele><time>2026-05-02T06:53:38Z</time></trkpt><trkpt lat="43.80515175124792" lon="11.711211985930083"><ele>496.25</ele><time>2026-05-02T06:53:39Z</time></trkpt><trkpt lat="43.805032217689444" lon="11.711241769001015"><ele>497.5</ele><time>2026-05-02T06:53:40Z</time></trkpt><trkpt lat="43.80489731712452" lon="11.711308345410732"><ele>498.75</ele><time>2026-05-02T06:53:41Z</time></trkpt><trkpt lat="43.80475010284295" lon="11.711397165825305"><ele>500.0</ele><time>2026-05-02T06:53:42Z</time></trkpt><trkpt lat="43.804591227471725" lon="11.71149412954469"><ele>500.0</ele><time>2026-05-02T06:53:43Z</time></trkpt><trkpt lat="43.80444292934409" lon="11.711582987514388"><ele>500.0</ele><time>2026-05-02T06:53:44Z</time></trkpt><trkpt lat="43.80430981036205" lon="11.711652787242667"><ele>500.0</ele><time>2026-05-02T06:53:45Z</time></trkpt><trkpt lat="43.80419442613385" lon="11.71171793722401"><ele>500.0</ele><time>2026-05-02T06:53:46Z</time></trkpt><trkpt lat="43.804093030727394" lon="11.711779880938856"><ele>499.2</ele><time>2026-05-02T06:53:47Z</time></trkpt><trkpt lat="43.80400784889417" lon="11.711852875570658"><ele>498.4</ele><time>2026-05-02T06:53:48Z</time></trkpt><trkpt lat="43.80393899446961" lon="11.711957206630451"><ele>497.6</ele><time>2026-05-02T06:53:49Z</time></trkpt><trkpt lat="43.80388530249311" lon="11.71209148150684"><ele>496.8</ele><time>2026-05-02T06:53:50Z</time></trkpt><trkpt lat="43.803841006874485" lon="11.712244026361564"><ele>496.0</ele><time>2026-05-02T06:53:51Z</time></trkpt><trkpt lat="43.80382514908393" lon="11.712417834912184"><ele>499.25</ele><time>2026-05-02T06:53:52Z</time></trkpt><trkpt lat="43.80382381982259" lon="11.712608758752936"><ele>502.5</ele><time>2026-05-02T06:53:53Z</time></trkpt><trkpt lat="43.80382911451477" lon="11.712814837697163"><ele>505.75</ele><time>2026-05-02T06:53:54Z</time></trkpt><trkpt lat="43.80382430691544" lon="11.7130324983593"><ele>509.0</ele><time>2026-05-02T06:53:55Z</time></trkpt><trkpt lat="43.8038052642874" lon="11.71324919177015"><ele>511.0</ele><time>2026-05-02T06:53:56Z</time></trkpt><trkpt lat="43.80377194147802" lon="11.713430383785234"><ele>513.0</ele><time>2026-05-02T06:53:57Z</time></trkpt><trkpt lat="43.80373358492551" lon="11.713592210810198"><ele>515.0</ele><time>2026-05-02T06:53:58Z</time></trkpt><trkpt lat="43.80368475338701" lon="11.713754048958632"><ele>517.0</ele><time>2026-05-02T06:53:59Z</time></trkpt><trkpt lat="43.803633436248255" lon="11.713916873233703"><ele>517.6666666666667</ele><time>2026-05-02T06:54:00Z</time></trkpt><trkpt lat="43.80358246318777" lon="11.714067130178947"><ele>518.3333333333334</ele><time>2026-05-02T06:54:01Z</time></trkpt><trkpt lat="43.80353663403548" lon="11.714195809177255"><ele>519.0</ele><time>2026-05-02T06:54:02Z</time></trkpt><trkpt lat="43.80348911393967" lon="11.714278207168139"><ele>519.6666666666666</ele><time>2026-05-02T06:54:03Z</time></trkpt><trkpt lat="43.80343145846098" lon="11.714319134181602"><ele>520.3333333333333</ele><time>2026-05-02T06:54:04Z</time></trkpt><trkpt lat="43.803366280181876" lon="11.714333986839485"><ele>521.0</ele><time>2026-05-02T06:54:05Z</time></trkpt><trkpt lat="43.80330160337147" lon="11.714321796377877"><ele>520.2</ele><time>2026-05-02T06:54:07Z</time></trkpt><trkpt lat="43.80336023601088" lon="11.714423956414802"><ele>519.4000000000001</ele><time>2026-05-02T06:54:18Z</time></trkpt><trkpt lat="43.80348130622649" lon="11.714589751734604"><ele>518.6</ele><time>2026-05-02T06:54:20Z</time></trkpt><trkpt lat="43.803490756666015" lon="11.714705837234334"><ele>517.8000000000001</ele><time>2026-05-02T06:54:21Z</time></trkpt><trkpt lat="43.803479668982746" lon="11.714829796977414"><ele>517.0</ele><time>2026-05-02T06:54:22Z</time></trkpt><trkpt lat="43.80344374832235" lon="11.71493976098283"><ele>517.0</ele><time>2026-05-02T06:54:23Z</time></trkpt><trkpt lat="43.803381461866714" lon="11.715038441115171"><ele>517.0</ele><time>2026-05-02T06:54:24Z</time></trkpt><trkpt lat="43.803291136218306" lon="11.715134842271558"><ele>517.0</ele><time>2026-05-02T06:54:25Z</time></trkpt><trkpt lat="43.80323570382176" lon="11.715232636063885"><ele>517.0</ele><time>2026-05-02T06:54:26Z</time></trkpt><trkpt lat="43.803134536439906" lon="11.715333527007635"><ele>517.0</ele><time>2026-05-02T06:54:27Z</time></trkpt><trkpt lat="43.803043987666015" lon="11.715427888555286"><ele>519.0</ele><time>2026-05-02T06:54:28Z</time></trkpt><trkpt lat="43.80296615455897" lon="11.715506506759429"><ele>521.0</ele><time>2026-05-02T06:54:29Z</time></trkpt><trkpt lat="43.80290185782023" lon="11.715569919695831"><ele>523.0</ele><time>2026-05-02T06:54:30Z</time></trkpt><trkpt lat="43.8028118374922" lon="11.715649184024766"><ele>525.0</ele><time>2026-05-02T06:54:32Z</time></trkpt><trkpt lat="43.80280210151523" lon="11.715759737372611"><ele>527.0</ele><time>2026-05-02T06:54:37Z</time></trkpt><trkpt lat="43.80283365623206" lon="11.715858578048179"><ele>529.0</ele><time>2026-05-02T06:54:39Z</time></trkpt><trkpt lat="43.80284374177431" lon="11.715994814088424"><ele>531.6</ele><time>2026-05-02T06:54:42Z</time></trkpt><trkpt lat="43.802844328581024" lon="11.716119984647802"><ele>534.2</ele><time>2026-05-02T06:54:44Z</time></trkpt><trkpt lat="43.8028359824455" lon="11.716245633519456"><ele>536.8000000000001</ele><time>2026-05-02T06:54:46Z</time></trkpt><trkpt lat="43.80283526663487" lon="11.716393472021386"><ele>539.4</ele><time>2026-05-02T06:54:48Z</time></trkpt><trkpt lat="43.802818114868636" lon="11.716526563455284"><ele>542.0</ele><time>2026-05-02T06:54:50Z</time></trkpt><trkpt lat="43.80278573482894" lon="11.716676055764921"><ele>542.0</ele><time>2026-05-02T06:54:52Z</time></trkpt><trkpt lat="43.80276343888239" lon="11.716774580839465"><ele>542.0</ele><time>2026-05-02T06:54:54Z</time></trkpt><trkpt lat="43.80278609269628" lon="11.716889910738033"><ele>542.0</ele><time>2026-05-02T06:54:56Z</time></trkpt><trkpt lat="43.80281599654171" lon="11.7169834892507"><ele>542.0</ele><time>2026-05-02T06:54:57Z</time></trkpt><trkpt lat="43.80284332058579" lon="11.717067591496813"><ele>542.0</ele><time>2026-05-02T06:54:58Z</time></trkpt><trkpt lat="43.80287727540988" lon="11.71720541144183"><ele>542.0</ele><time>2026-05-02T06:55:00Z</time></trkpt><trkpt lat="43.80290350190057" lon="11.717294472863525"><ele>542.7142857142857</ele><time>2026-05-02T06:55:01Z</time></trkpt><trkpt lat="43.80293370639599" lon="11.71738247198092"><ele>543.4285714285714</ele><time>2026-05-02T06:55:02Z</time></trkpt><trkpt lat="43.80295311305957" lon="11.717468621129733"><ele>544.1428571428571</ele><time>2026-05-02T06:55:03Z</time></trkpt><trkpt lat="43.80297900563484" lon="11.717550267995467"><ele>544.8571428571429</ele><time>2026-05-02T06:55:04Z</time></trkpt><trkpt lat="43.803001562959636" lon="11.717632446722485"><ele>545.5714285714286</ele><time>2026-05-02T06:55:05Z</time></trkpt><trkpt lat="43.80304860997934" lon="11.71778469076602"><ele>546.2857142857142</ele><time>2026-05-02T06:55:07Z</time></trkpt><trkpt lat="43.80307295950248" lon="11.717865412540126"><ele>547.0</ele><time>2026-05-02T06:55:08Z</time></trkpt><trkpt lat="43.80311116067476" lon="11.718009262705298"><ele>547.0</ele><time>2026-05-02T06:55:10Z</time></trkpt><trkpt lat="43.80312870488963" lon="11.718117540631225"><ele>547.0</ele><time>2026-05-02T06:55:12Z</time></trkpt><trkpt lat="43.803153308031696" lon="11.71829833639911"><ele>547.0</ele><time>2026-05-02T06:55:14Z</time></trkpt><trkpt lat="43.80318855805213" lon="11.718400616179403"><ele>547.0</ele><time>2026-05-02T06:55:15Z</time></trkpt><trkpt lat="43.80322861009291" lon="11.718521096061004"><ele>547.0</ele><time>2026-05-02T06:55:16Z</time></trkpt><trkpt lat="43.80327051428345" lon="11.71864231568381"><ele>547.0</ele><time>2026-05-02T06:55:17Z</time></trkpt><trkpt lat="43.80331410340453" lon="11.718780406759981"><ele>547.0</ele><time>2026-05-02T06:55:18Z</time></trkpt><trkpt lat="43.80335798354288" lon="11.718927878336864"><ele>547.0</ele><time>2026-05-02T06:55:19Z</time></trkpt><trkpt lat="43.80340400047118" lon="11.719076796035196"><ele>547.0</ele><time>2026-05-02T06:55:20Z</time></trkpt><trkpt lat="43.80344086548115" lon="11.719211592546326"><ele>547.0</ele><time>2026-05-02T06:55:21Z</time></trkpt><trkpt lat="43.8034701735321" lon="11.719326390899562"><ele>547.6666666666667</ele><time>2026-05-02T06:55:22Z</time></trkpt><trkpt lat="43.80349561163028" lon="11.719429473056937"><ele>548.3333333333334</ele><time>2026-05-02T06:55:23Z</time></trkpt><trkpt lat="43.80351895277796" lon="11.71951951119672"><ele>549.0</ele><time>2026-05-02T06:55:24Z</time></trkpt><trkpt lat="43.80354078709969" lon="11.719686981826555"><ele>549.6666666666666</ele><time>2026-05-02T06:55:26Z</time></trkpt><trkpt lat="43.80353095624107" lon="11.719780577159863"><ele>550.3333333333333</ele><time>2026-05-02T06:55:27Z</time></trkpt><trkpt lat="43.803516049813375" lon="11.719889811769443"><ele>551.0</ele><time>2026-05-02T06:55:28Z</time></trkpt><trkpt lat="43.80349804434182" lon="11.719994958146783"><ele>551.0</ele><time>2026-05-02T06:55:29Z</time></trkpt><trkpt lat="43.803482067450155" lon="11.720103430182167"><ele>551.0</ele><time>2026-05-02T06:55:30Z</time></trkpt><trkpt lat="43.80346224957441" lon="11.720213321350343"><ele>551.0</ele><time>2026-05-02T06:55:31Z</time></trkpt><trkpt lat="43.80344403040417" lon="11.720306092538138"><ele>551.0</ele><time>2026-05-02T06:55:32Z</time></trkpt><trkpt lat="43.803419931724186" lon="11.720402281771042"><ele>551.0</ele><time>2026-05-02T06:55:33Z</time></trkpt><trkpt lat="43.80339484715764" lon="11.720496365093336"><ele>551.0</ele><time>2026-05-02T06:55:34Z</time></trkpt><trkpt lat="43.80337104130512" lon="11.720601844351542"><ele>551.6666666666666</ele><time>2026-05-02T06:55:35Z</time></trkpt><trkpt lat="43.80334923810494" lon="11.720701543285797"><ele>552.3333333333333</ele><time>2026-05-02T06:55:36Z</time></trkpt><trkpt lat="43.80332263456142" lon="11.720803691981539"><ele>553.0</ele><time>2026-05-02T06:55:37Z</time></trkpt><trkpt lat="43.80329295650345" lon="11.720911671356049"><ele>553.6666666666666</ele><time>2026-05-02T06:55:38Z</time></trkpt><trkpt lat="43.80327315525858" lon="11.72100404252626"><ele>554.3333333333334</ele><time>2026-05-02T06:55:39Z</time></trkpt><trkpt lat="43.80326458064308" lon="11.721186719558336"><ele>555.0</ele><time>2026-05-02T06:55:41Z</time></trkpt><trkpt lat="43.803276169530584" lon="11.721292424361563"><ele>555.8</ele><time>2026-05-02T06:55:42Z</time></trkpt><trkpt lat="43.803304864847114" lon="11.721390264716526"><ele>556.6</ele><time>2026-05-02T06:55:43Z</time></trkpt><trkpt lat="43.80333083828188" lon="11.721483191382957"><ele>557.4</ele><time>2026-05-02T06:55:44Z</time></trkpt><trkpt lat="43.803317377884284" lon="11.721639117902367"><ele>558.2</ele><time>2026-05-02T06:55:46Z</time></trkpt><trkpt lat="43.803204817404406" lon="11.721715220998794"><ele>559.0</ele><time>2026-05-02T06:55:48Z</time></trkpt><trkpt lat="43.80313675851578" lon="11.721728632414006"><ele>559.0</ele><time>2026-05-02T06:55:49Z</time></trkpt><trkpt lat="43.80306743898355" lon="11.721856563655232"><ele>559.0</ele><time>2026-05-02T06:55:51Z</time></trkpt><trkpt lat="43.80305860056664" lon="11.721966859775145"><ele>559.0</ele><time>2026-05-02T06:55:52Z</time></trkpt><trkpt lat="43.80305775587026" lon="11.722065968538748"><ele>559.0</ele><time>2026-05-02T06:55:53Z</time></trkpt><trkpt lat="43.80300996198798" lon="11.722180534592939"><ele>559.0</ele><time>2026-05-02T06:55:55Z</time></trkpt><trkpt lat="43.802906009512625" lon="11.722117745692902"><ele>559.0</ele><time>2026-05-02T06:55:57Z</time></trkpt><trkpt lat="43.80285011224559" lon="11.722021281752733"><ele>559.0</ele><time>2026-05-02T06:55:58Z</time></trkpt><trkpt lat="43.802786375548614" lon="11.72191966418215"><ele>559.0</ele><time>2026-05-02T06:55:59Z</time></trkpt><trkpt lat="43.80273201696884" lon="11.721852300079064"><ele>559.0</ele><time>2026-05-02T06:56:00Z</time></trkpt><trkpt lat="43.802650266950025" lon="11.721829786533009"><ele>559.0</ele><time>2026-05-02T06:56:02Z</time></trkpt><trkpt lat="43.8025602151692" lon="11.721890892470284"><ele>559.0</ele><time>2026-05-02T06:56:04Z</time></trkpt><trkpt lat="43.802629451933534" lon="11.72189272974756"><ele>561.3333333333334</ele><time>2026-05-02T06:57:15Z</time></trkpt><trkpt lat="43.80262590253432" lon="11.722015010929965"><ele>563.6666666666667</ele><time>2026-05-02T06:57:17Z</time></trkpt><trkpt lat="43.802624893386394" lon="11.722131136873607"><ele>566.0</ele><time>2026-05-02T06:57:18Z</time></trkpt><trkpt lat="43.80268644905795" lon="11.722200961983061"><ele>568.3333333333334</ele><time>2026-05-02T06:57:20Z</time></trkpt><trkpt lat="43.802701376234836" lon="11.72232002600549"><ele>570.6666666666666</ele><time>2026-05-02T06:57:22Z</time></trkpt><trkpt lat="43.80270170600575" lon="11.722421066717795"><ele>573.0</ele><time>2026-05-02T06:57:24Z</time></trkpt><trkpt lat="43.80266630567943" lon="11.722499255820688"><ele>573.0</ele><time>2026-05-02T06:58:10Z</time></trkpt><trkpt lat="43.80266903516755" lon="11.722390919145"><ele>573.0</ele><time>2026-05-02T06:58:17Z</time></trkpt><trkpt lat="43.802673928840804" lon="11.722282089006763"><ele>573.0</ele><time>2026-05-02T06:58:20Z</time></trkpt><trkpt lat="43.80266325438273" lon="11.72217872794392"><ele>573.0</ele><time>2026-05-02T06:58:23Z</time></trkpt><trkpt lat="43.80261448749841" lon="11.72211080212198"><ele>573.0</ele><time>2026-05-02T06:58:25Z</time></trkpt><trkpt lat="43.80259826611295" lon="11.721991232800564"><ele>573.0</ele><time>2026-05-02T06:58:28Z</time></trkpt><trkpt lat="43.802613059717046" lon="11.721896307692115"><ele>573.5</ele><time>2026-05-02T06:58:31Z</time></trkpt><trkpt lat="43.80254024719412" lon="11.721904074223014"><ele>574.0</ele><time>2026-05-02T06:58:35Z</time></trkpt><trkpt lat="43.80248906959372" lon="11.721957262381101"><ele>574.5</ele><time>2026-05-02T06:58:36Z</time></trkpt><trkpt lat="43.802395766504304" lon="11.722048505095755"><ele>575.0</ele><time>2026-05-02T06:58:38Z</time></trkpt><trkpt lat="43.80233736808629" lon="11.722089481870025"><ele>575.5</ele><time>2026-05-02T06:58:39Z</time></trkpt><trkpt lat="43.802273420614924" lon="11.722131203072909"><ele>576.0</ele><time>2026-05-02T06:58:40Z</time></trkpt><trkpt lat="43.802213436195345" lon="11.722171743481889"><ele>576.0</ele><time>2026-05-02T06:58:41Z</time></trkpt><trkpt lat="43.80214275009912" lon="11.722215777211849"><ele>576.0</ele><time>2026-05-02T06:58:42Z</time></trkpt><trkpt lat="43.80208213359355" lon="11.722251567638024"><ele>576.0</ele><time>2026-05-02T06:58:43Z</time></trkpt><trkpt lat="43.80202366757255" lon="11.72229184844263"><ele>576.0</ele><time>2026-05-02T06:58:44Z</time></trkpt><trkpt lat="43.80192146067146" lon="11.722375853455842"><ele>576.0</ele><time>2026-05-02T06:58:46Z</time></trkpt><trkpt lat="43.80182831785425" lon="11.722496816962291"><ele>575.0000000000001</ele><time>2026-05-02T06:58:48Z</time></trkpt><trkpt lat="43.80179293923419" lon="11.722570872179348"><ele>574.0</ele><time>2026-05-02T06:58:49Z</time></trkpt><trkpt lat="43.80177083803325" lon="11.722658270039418"><ele>573.0</ele><time>2026-05-02T06:58:50Z</time></trkpt><trkpt lat="43.801741931633686" lon="11.722752431064126"><ele>572.0</ele><time>2026-05-02T06:58:51Z</time></trkpt><trkpt lat="43.80169694079916" lon="11.722823212154132"><ele>571.0</ele><time>2026-05-02T06:58:52Z</time></trkpt><trkpt lat="43.80163547541925" lon="11.72288180848454"><ele>570.0000000000001</ele><time>2026-05-02T06:58:53Z</time></trkpt><trkpt lat="43.801569383696666" lon="11.722932486041286"><ele>569.0</ele><time>2026-05-02T06:58:54Z</time></trkpt><trkpt lat="43.80148553964007" lon="11.723054640134485"><ele>571.5</ele><time>2026-05-02T06:58:56Z</time></trkpt><trkpt lat="43.80146435021247" lon="11.723139166674974"><ele>574.0</ele><time>2026-05-02T06:58:57Z</time></trkpt><trkpt lat="43.801451115031774" lon="11.723252157273784"><ele>576.5</ele><time>2026-05-02T06:58:58Z</time></trkpt><trkpt lat="43.80146055603286" lon="11.723355155610212"><ele>579.0</ele><time>2026-05-02T06:58:59Z</time></trkpt><trkpt lat="43.80148221837233" lon="11.723469802681524"><ele>581.5</ele><time>2026-05-02T06:59:00Z</time></trkpt><trkpt lat="43.80150572563954" lon="11.723579769115434"><ele>584.0</ele><time>2026-05-02T06:59:01Z</time></trkpt><trkpt lat="43.80152007434521" lon="11.723695554170602"><ele>585.0</ele><time>2026-05-02T06:59:02Z</time></trkpt><trkpt lat="43.801524207506986" lon="11.72381356617571"><ele>586.0</ele><time>2026-05-02T06:59:03Z</time></trkpt><trkpt lat="43.801517348714626" lon="11.723909811469959"><ele>587.0</ele><time>2026-05-02T06:59:04Z</time></trkpt><trkpt lat="43.801504462785935" lon="11.72403548136355"><ele>588.0</ele><time>2026-05-02T06:59:05Z</time></trkpt><trkpt lat="43.80149024762916" lon="11.72414800500235"><ele>589.0</ele><time>2026-05-02T06:59:06Z</time></trkpt><trkpt lat="43.80149448715469" lon="11.724242835044054"><ele>590.0</ele><time>2026-05-02T06:59:07Z</time></trkpt><trkpt lat="43.80149243694977" lon="11.724361191138692"><ele>590.5</ele><time>2026-05-02T06:59:08Z</time></trkpt><trkpt lat="43.80149464997712" lon="11.724476043939907"><ele>591.0</ele><time>2026-05-02T06:59:09Z</time></trkpt><trkpt lat="43.80150016866125" lon="11.72457755407609"><ele>591.5</ele><time>2026-05-02T06:59:10Z</time></trkpt><trkpt lat="43.801506312121624" lon="11.72473293859981"><ele>592.0</ele><time>2026-05-02T06:59:12Z</time></trkpt><trkpt lat="43.801523349505054" lon="11.724830022846557"><ele>592.5</ele><time>2026-05-02T06:59:14Z</time></trkpt><trkpt lat="43.801531096014266" lon="11.724953977272438"><ele>593.0</ele><time>2026-05-02T06:59:18Z</time></trkpt><trkpt lat="43.80152506333015" lon="11.725046549343837"><ele>593.0</ele><time>2026-05-02T06:59:20Z</time></trkpt><trkpt lat="43.80148770156669" lon="11.725181401412794"><ele>593.0</ele><time>2026-05-02T06:59:22Z</time></trkpt><trkpt lat="43.80144999792156" lon="11.72525669162261"><ele>593.0</ele><time>2026-05-02T06:59:23Z</time></trkpt><trkpt lat="43.8014086935356" lon="11.725327258424828"><ele>593.0</ele><time>2026-05-02T06:59:24Z</time></trkpt><trkpt lat="43.80135889814507" lon="11.72541021945854"><ele>593.0</ele><time>2026-05-02T06:59:25Z</time></trkpt><trkpt lat="43.80130870744625" lon="11.725492627105375"><ele>593.0</ele><time>2026-05-02T06:59:26Z</time></trkpt><trkpt lat="43.801268331739955" lon="11.725576414334244"><ele>592.8333333333333</ele><time>2026-05-02T06:59:27Z</time></trkpt><trkpt lat="43.80121962494759" lon="11.725668988892364"><ele>592.6666666666666</ele><time>2026-05-02T06:59:28Z</time></trkpt><trkpt lat="43.80116147204482" lon="11.725757236248207"><ele>592.5</ele><time>2026-05-02T06:59:29Z</time></trkpt><trkpt lat="43.80109489960223" lon="11.725837383438476"><ele>592.3333333333334</ele><time>2026-05-02T06:59:30Z</time></trkpt><trkpt lat="43.801027776688784" lon="11.7259020936583"><ele>592.1666666666667</ele><time>2026-05-02T06:59:31Z</time></trkpt><trkpt lat="43.800960831979104" lon="11.725963134212364"><ele>592.0</ele><time>2026-05-02T06:59:32Z</time></trkpt><trkpt lat="43.80087690454306" lon="11.726033519091715"><ele>595.4</ele><time>2026-05-02T06:59:34Z</time></trkpt><trkpt lat="43.800826193082635" lon="11.726151918652768"><ele>598.8000000000001</ele><time>2026-05-02T06:59:49Z</time></trkpt><trkpt lat="43.8007765298784" lon="11.726244516270572"><ele>602.2</ele><time>2026-05-02T06:59:51Z</time></trkpt><trkpt lat="43.80071944929434" lon="11.726287861132931"><ele>605.6</ele><time>2026-05-02T06:59:53Z</time></trkpt><trkpt lat="43.800650489235494" lon="11.726330658966539"><ele>609.0</ele><time>2026-05-02T06:59:54Z</time></trkpt><trkpt lat="43.80056207979482" lon="11.726457843480231"><ele>609.0</ele><time>2026-05-02T06:59:57Z</time></trkpt><trkpt lat="43.800518797741745" lon="11.72652339312445"><ele>609.0</ele><time>2026-05-02T06:59:58Z</time></trkpt><trkpt lat="43.80045279201443" lon="11.726653447674572"><ele>609.0</ele><time>2026-05-02T07:00:00Z</time></trkpt><trkpt lat="43.80040590500728" lon="11.7267178909882"><ele>609.0</ele><time>2026-05-02T07:00:01Z</time></trkpt><trkpt lat="43.800366779974105" lon="11.726789873901843"><ele>609.0</ele><time>2026-05-02T07:00:02Z</time></trkpt><trkpt lat="43.80033150785828" lon="11.726914737530894"><ele>609.0</ele><time>2026-05-02T07:00:04Z</time></trkpt><trkpt lat="43.80031970055443" lon="11.727062710689319"><ele>610.5</ele><time>2026-05-02T07:00:06Z</time></trkpt><trkpt lat="43.80030742415728" lon="11.727219469123783"><ele>612.0</ele><time>2026-05-02T07:00:08Z</time></trkpt><trkpt lat="43.80029202642976" lon="11.727312367941035"><ele>613.5</ele><time>2026-05-02T07:00:09Z</time></trkpt><trkpt lat="43.80028671134218" lon="11.727443832090831"><ele>615.0</ele><time>2026-05-02T07:00:11Z</time></trkpt><trkpt lat="43.8002813581569" lon="11.727543693946426"><ele>616.5</ele><time>2026-05-02T07:00:14Z</time></trkpt><trkpt lat="43.80022535867119" lon="11.727638380652987"><ele>618.0</ele><time>2026-05-02T07:00:16Z</time></trkpt><trkpt lat="43.800149046740295" lon="11.727686503043786"><ele>620.4</ele><time>2026-05-02T07:00:17Z</time></trkpt><trkpt lat="43.80007471060018" lon="11.72775089434809"><ele>622.8</ele><time>2026-05-02T07:00:18Z</time></trkpt><trkpt lat="43.799991928653945" lon="11.727816094518673"><ele>625.2</ele><time>2026-05-02T07:00:19Z</time></trkpt><trkpt lat="43.79989643833565" lon="11.727887342577127"><ele>627.6</ele><time>2026-05-02T07:00:20Z</time></trkpt><trkpt lat="43.799806592295" lon="11.72795185701625"><ele>630.0</ele><time>2026-05-02T07:00:21Z</time></trkpt><trkpt lat="43.799719786732076" lon="11.728021570526687"><ele>630.0</ele><time>2026-05-02T07:00:22Z</time></trkpt><trkpt lat="43.79965399587622" lon="11.728082386213853"><ele>630.0</ele><time>2026-05-02T07:00:23Z</time></trkpt><trkpt lat="43.79960451203205" lon="11.728150114746132"><ele>630.0</ele><time>2026-05-02T07:00:24Z</time></trkpt><trkpt lat="43.79956875185254" lon="11.72823719316025"><ele>630.0</ele><time>2026-05-02T07:00:25Z</time></trkpt><trkpt lat="43.799566037366624" lon="11.72834785395716"><ele>630.0</ele><time>2026-05-02T07:00:26Z</time></trkpt><trkpt lat="43.79958659795577" lon="11.7284514744519"><ele>630.0</ele><time>2026-05-02T07:00:27Z</time></trkpt><trkpt lat="43.799623612727714" lon="11.72857439196201"><ele>630.8333333333334</ele><time>2026-05-02T07:00:29Z</time></trkpt><trkpt lat="43.79955866390092" lon="11.728593100123243"><ele>631.6666666666666</ele><time>2026-05-02T07:03:33Z</time></trkpt><trkpt lat="43.79956379443504" lon="11.72868270562199"><ele>632.5</ele><time>2026-05-02T07:03:35Z</time></trkpt><trkpt lat="43.79956079965449" lon="11.728793725978049"><ele>633.3333333333333</ele><time>2026-05-02T07:03:39Z</time></trkpt><trkpt lat="43.79955607104311" lon="11.728931146066376"><ele>634.1666666666666</ele><time>2026-05-02T07:03:41Z</time></trkpt><trkpt lat="43.79954607609884" lon="11.729074458393113"><ele>635.0</ele><time>2026-05-02T07:03:43Z</time></trkpt><trkpt lat="43.799531352934984" lon="11.729213471126796"><ele>635.0</ele><time>2026-05-02T07:03:45Z</time></trkpt><trkpt lat="43.79953399066324" lon="11.729361808790694"><ele>635.0</ele><time>2026-05-02T07:03:47Z</time></trkpt><trkpt lat="43.79953509141475" lon="11.729506310594466"><ele>635.0</ele><time>2026-05-02T07:03:49Z</time></trkpt><trkpt lat="43.799515024411534" lon="11.729638598067787"><ele>635.0</ele><time>2026-05-02T07:03:51Z</time></trkpt><trkpt lat="43.79949757752709" lon="11.729737943156584"><ele>635.0</ele><time>2026-05-02T07:03:53Z</time></trkpt><trkpt lat="43.79952283223553" lon="11.729642679705574"><ele>635.0</ele><time>2026-05-02T07:04:11Z</time></trkpt><trkpt lat="43.79953037214612" lon="11.729503594347264"><ele>635.0</ele><time>2026-05-02T07:04:13Z</time></trkpt><trkpt lat="43.79954179235415" lon="11.729377550198116"><ele>635.0</ele><time>2026-05-02T07:04:14Z</time></trkpt><trkpt lat="43.79954734519746" lon="11.729268110175783"><ele>635.0</ele><time>2026-05-02T07:04:15Z</time></trkpt><trkpt lat="43.799555677673176" lon="11.729177692867031"><ele>635.0</ele><time>2026-05-02T07:04:16Z</time></trkpt><trkpt lat="43.79956286136541" lon="11.729012995898799"><ele>635.0</ele><time>2026-05-02T07:04:18Z</time></trkpt><trkpt lat="43.79958587892345" lon="11.728865339782182"><ele>635.0</ele><time>2026-05-02T07:04:20Z</time></trkpt><trkpt lat="43.79959157707392" lon="11.728765612702746"><ele>635.0</ele><time>2026-05-02T07:04:22Z</time></trkpt><trkpt lat="43.79961256807935" lon="11.728664959243774"><ele>635.0</ele><time>2026-05-02T07:04:25Z</time></trkpt><trkpt lat="43.799660680404465" lon="11.728601932146585"><ele>635.0</ele><time>2026-05-02T07:04:29Z</time></trkpt><trkpt lat="43.799615370921885" lon="11.728703908442677"><ele>635.0</ele><time>2026-05-02T07:04:48Z</time></trkpt><trkpt lat="43.79961622664972" lon="11.72879545185189"><ele>635.0</ele><time>2026-05-02T07:04:51Z</time></trkpt><trkpt lat="43.79964044233153" lon="11.728903727764752"><ele>635.0</ele><time>2026-05-02T07:05:01Z</time></trkpt><trkpt lat="43.79967809123614" lon="11.729002187012645"><ele>635.0</ele><time>2026-05-02T07:05:03Z</time></trkpt><trkpt lat="43.79971400549911" lon="11.7290822556943"><ele>635.0</ele><time>2026-05-02T07:05:05Z</time></trkpt><trkpt lat="43.7997368855545" lon="11.72918905044356"><ele>635.0</ele><time>2026-05-02T07:05:08Z</time></trkpt><trkpt lat="43.79968934192032" lon="11.729057596539327"><ele>635.0</ele><time>2026-05-02T07:05:26Z</time></trkpt><trkpt lat="43.79962147235963" lon="11.7288973681199"><ele>635.0</ele><time>2026-05-02T07:05:28Z</time></trkpt><trkpt lat="43.79958714476389" lon="11.728781711633681"><ele>635.0</ele><time>2026-05-02T07:05:30Z</time></trkpt><trkpt lat="43.79960401244473" lon="11.728667086109802"><ele>635.0</ele><time>2026-05-02T07:05:32Z</time></trkpt><trkpt lat="43.799651464899156" lon="11.728585669101722"><ele>635.0</ele><time>2026-05-02T07:05:34Z</time></trkpt><trkpt lat="43.799769817253065" lon="11.728574176553606"><ele>635.0</ele><time>2026-05-02T07:05:36Z</time></trkpt><trkpt lat="43.79988682700231" lon="11.72851746897972"><ele>635.6666666666666</ele><time>2026-05-02T07:05:38Z</time></trkpt><trkpt lat="43.79993807055829" lon="11.72846666637555"><ele>636.3333333333333</ele><time>2026-05-02T07:05:39Z</time></trkpt><trkpt lat="43.7999911394891" lon="11.72840397102404"><ele>637.0</ele><time>2026-05-02T07:05:40Z</time></trkpt><trkpt lat="43.80004950248612" lon="11.728336620193245"><ele>637.6666666666666</ele><time>2026-05-02T07:05:41Z</time></trkpt><trkpt lat="43.80011925767899" lon="11.728279006991125"><ele>638.3333333333334</ele><time>2026-05-02T07:05:42Z</time></trkpt><trkpt lat="43.80019884401775" lon="11.728224220158278"><ele>639.0</ele><time>2026-05-02T07:05:43Z</time></trkpt><trkpt lat="43.80028688722796" lon="11.728185277350896"><ele>639.0</ele><time>2026-05-02T07:05:44Z</time></trkpt><trkpt lat="43.80038458013213" lon="11.728154738257107"><ele>639.0</ele><time>2026-05-02T07:05:45Z</time></trkpt><trkpt lat="43.800484623045215" lon="11.728131635934929"><ele>639.0</ele><time>2026-05-02T07:05:46Z</time></trkpt><trkpt lat="43.80058483504534" lon="11.728105601501133"><ele>639.0</ele><time>2026-05-02T07:05:47Z</time></trkpt><trkpt lat="43.80068438295926" lon="11.728085110072811"><ele>639.0</ele><time>2026-05-02T07:05:48Z</time></trkpt><trkpt lat="43.80078160645599" lon="11.728054091083576"><ele>639.0</ele><time>2026-05-02T07:05:49Z</time></trkpt><trkpt lat="43.80088024008988" lon="11.728026725060179"><ele>639.0</ele><time>2026-05-02T07:05:50Z</time></trkpt><trkpt lat="43.800973845975754" lon="11.728008455074075"><ele>639.0</ele><time>2026-05-02T07:05:51Z</time></trkpt><trkpt lat="43.801065838038" lon="11.72801259652634"><ele>639.0</ele><time>2026-05-02T07:05:52Z</time></trkpt><trkpt lat="43.801164775901846" lon="11.728047281669307"><ele>639.0</ele><time>2026-05-02T07:05:53Z</time></trkpt><trkpt lat="43.80126600252452" lon="11.728103113434027"><ele>639.6</ele><time>2026-05-02T07:05:54Z</time></trkpt><trkpt lat="43.80137184386092" lon="11.728165098962561"><ele>640.2</ele><time>2026-05-02T07:05:55Z</time></trkpt><trkpt lat="43.801477381409754" lon="11.728232754174481"><ele>640.8000000000001</ele><time>2026-05-02T07:05:56Z</time></trkpt><trkpt lat="43.801574099785114" lon="11.728295896016661"><ele>641.4</ele><time>2026-05-02T07:05:57Z</time></trkpt><trkpt lat="43.801665452419726" lon="11.728352804686553"><ele>642.0</ele><time>2026-05-02T07:05:58Z</time></trkpt><trkpt lat="43.80176527681509" lon="11.72841141722107"><ele>642.8</ele><time>2026-05-02T07:05:59Z</time></trkpt><trkpt lat="43.80187109033277" lon="11.72847234681561"><ele>643.6</ele><time>2026-05-02T07:06:00Z</time></trkpt><trkpt lat="43.80196803401724" lon="11.728529190850919"><ele>644.4</ele><time>2026-05-02T07:06:01Z</time></trkpt><trkpt lat="43.80205139234295" lon="11.728590128293002"><ele>645.1999999999999</ele><time>2026-05-02T07:06:02Z</time></trkpt><trkpt lat="43.802118554869466" lon="11.728647259935553"><ele>646.0</ele><time>2026-05-02T07:06:03Z</time></trkpt><trkpt lat="43.80217222156758" lon="11.728713055145791"><ele>648.8333333333334</ele><time>2026-05-02T07:06:04Z</time></trkpt><trkpt lat="43.80220685322653" lon="11.728806062974364"><ele>651.6666666666667</ele><time>2026-05-02T07:06:05Z</time></trkpt><trkpt lat="43.80219158565169" lon="11.728913314607137"><ele>654.5</ele><time>2026-05-02T07:06:06Z</time></trkpt><trkpt lat="43.80215872568559" lon="11.72900999558054"><ele>657.3333333333334</ele><time>2026-05-02T07:06:07Z</time></trkpt><trkpt lat="43.802111522931995" lon="11.729098883780564"><ele>660.1666666666666</ele><time>2026-05-02T07:06:08Z</time></trkpt><trkpt lat="43.80203819424734" lon="11.72916111180729"><ele>663.0</ele><time>2026-05-02T07:06:09Z</time></trkpt><trkpt lat="43.80194905914026" lon="11.729179211909393"><ele>663.0</ele><time>2026-05-02T07:06:10Z</time></trkpt><trkpt lat="43.801849884397924" lon="11.729207713414413"><ele>663.0</ele><time>2026-05-02T07:06:11Z</time></trkpt><trkpt lat="43.80174537919132" lon="11.729231148399085"><ele>663.0</ele><time>2026-05-02T07:06:12Z</time></trkpt><trkpt lat="43.801640894510726" lon="11.729251560974776"><ele>663.0</ele><time>2026-05-02T07:06:13Z</time></trkpt><trkpt lat="43.80153829280137" lon="11.72926271288776"><ele>663.0</ele><time>2026-05-02T07:06:14Z</time></trkpt><trkpt lat="43.8014435561159" lon="11.729264514049987"><ele>662.0</ele><time>2026-05-02T07:06:15Z</time></trkpt><trkpt lat="43.80135746673309" lon="11.729280802025874"><ele>661.0</ele><time>2026-05-02T07:06:16Z</time></trkpt><trkpt lat="43.801284706262464" lon="11.72926517100689"><ele>660.0</ele><time>2026-05-02T07:06:17Z</time></trkpt><trkpt lat="43.801147875079714" lon="11.729289533722984"><ele>659.0</ele><time>2026-05-02T07:06:19Z</time></trkpt><trkpt lat="43.801088051745126" lon="11.72936217524377"><ele>658.0</ele><time>2026-05-02T07:06:20Z</time></trkpt><trkpt lat="43.801045297550075" lon="11.729485322334632"><ele>657.5999999999999</ele><time>2026-05-02T07:06:21Z</time></trkpt><trkpt lat="43.800995287684316" lon="11.729605943630803"><ele>657.1999999999999</ele><time>2026-05-02T07:06:22Z</time></trkpt><trkpt lat="43.80093982130154" lon="11.729710793354494"><ele>656.8</ele><time>2026-05-02T07:06:23Z</time></trkpt><trkpt lat="43.80092047014473" lon="11.729826867233903"><ele>656.4</ele><time>2026-05-02T07:06:24Z</time></trkpt><trkpt lat="43.80094187728283" lon="11.729952988263031"><ele>656.0</ele><time>2026-05-02T07:06:25Z</time></trkpt><trkpt lat="43.80096941626534" lon="11.730068178027118"><ele>658.4</ele><time>2026-05-02T07:06:26Z</time></trkpt><trkpt lat="43.80102903342317" lon="11.730179278494992"><ele>660.8</ele><time>2026-05-02T07:06:27Z</time></trkpt><trkpt lat="43.80110079629028" lon="11.730291238285824"><ele>663.1999999999999</ele><time>2026-05-02T07:06:28Z</time></trkpt><trkpt lat="43.80117170388012" lon="11.730409084583465"><ele>665.5999999999999</ele><time>2026-05-02T07:06:29Z</time></trkpt><trkpt lat="43.80125025337501" lon="11.730534185138849"><ele>668.0</ele><time>2026-05-02T07:06:30Z</time></trkpt><trkpt lat="43.8013222622654" lon="11.730652088449983"><ele>668.2</ele><time>2026-05-02T07:06:31Z</time></trkpt><trkpt lat="43.801391451902525" lon="11.730767632750704"><ele>668.4</ele><time>2026-05-02T07:06:32Z</time></trkpt><trkpt lat="43.80146251639154" lon="11.730884551965515"><ele>668.6</ele><time>2026-05-02T07:06:33Z</time></trkpt><trkpt lat="43.80152077354097" lon="11.73102130343165"><ele>668.8000000000001</ele><time>2026-05-02T07:06:34Z</time></trkpt><trkpt lat="43.80159093615888" lon="11.731122650636324"><ele>669.0</ele><time>2026-05-02T07:06:35Z</time></trkpt><trkpt lat="43.80162401662159" lon="11.731242683691098"><ele>669.0</ele><time>2026-05-02T07:06:36Z</time></trkpt><trkpt lat="43.80159777303114" lon="11.731371046250066"><ele>669.0</ele><time>2026-05-02T07:06:37Z</time></trkpt><trkpt lat="43.80157431797143" lon="11.731489797102073"><ele>669.0</ele><time>2026-05-02T07:06:38Z</time></trkpt><trkpt lat="43.801542431204574" lon="11.731619311919976"><ele>669.0</ele><time>2026-05-02T07:06:39Z</time></trkpt><trkpt lat="43.8015091337105" lon="11.731752959095983"><ele>669.0</ele><time>2026-05-02T07:06:40Z</time></trkpt><trkpt lat="43.8014925139278" lon="11.73189360250209"><ele>669.2</ele><time>2026-05-02T07:06:41Z</time></trkpt><trkpt lat="43.80144760660607" lon="11.732009559918167"><ele>669.4000000000001</ele><time>2026-05-02T07:06:42Z</time></trkpt><trkpt lat="43.8014150392404" lon="11.732145334357076"><ele>669.6</ele><time>2026-05-02T07:06:43Z</time></trkpt><trkpt lat="43.80138309772863" lon="11.732278444478498"><ele>669.8</ele><time>2026-05-02T07:06:44Z</time></trkpt><trkpt lat="43.801354153715316" lon="11.732399063150798"><ele>670.0</ele><time>2026-05-02T07:06:45Z</time></trkpt><trkpt lat="43.80132526935145" lon="11.732519433248877"><ele>670.0</ele><time>2026-05-02T07:06:46Z</time></trkpt><trkpt lat="43.8012992505788" lon="11.732628123700202"><ele>670.0</ele><time>2026-05-02T07:06:47Z</time></trkpt><trkpt lat="43.80126857687797" lon="11.732762616068188"><ele>670.0</ele><time>2026-05-02T07:06:49Z</time></trkpt><trkpt lat="43.80124171180209" lon="11.732870988489555"><ele>670.0</ele><time>2026-05-02T07:07:04Z</time></trkpt><trkpt lat="43.80123474317202" lon="11.733012088802642"><ele>670.0</ele><time>2026-05-02T07:07:06Z</time></trkpt><trkpt lat="43.80122545123907" lon="11.733103750568139"><ele>670.0</ele><time>2026-05-02T07:07:07Z</time></trkpt><trkpt lat="43.80123130339195" lon="11.73320159441077"><ele>668.6</ele><time>2026-05-02T07:07:08Z</time></trkpt><trkpt lat="43.801258514328744" lon="11.733298656726118"><ele>667.2</ele><time>2026-05-02T07:07:09Z</time></trkpt><trkpt lat="43.801312845111255" lon="11.733391583330022"><ele>665.8</ele><time>2026-05-02T07:07:10Z</time></trkpt><trkpt lat="43.80138795923194" lon="11.733472124841064"><ele>664.4</ele><time>2026-05-02T07:07:11Z</time></trkpt><trkpt lat="43.80147411170238" lon="11.733556133432998"><ele>663.0</ele><time>2026-05-02T07:07:12Z</time></trkpt><trkpt lat="43.80156688093313" lon="11.73363587551023"><ele>661.5999999999999</ele><time>2026-05-02T07:07:13Z</time></trkpt><trkpt lat="43.80166164330781" lon="11.733701502338866"><ele>660.1999999999999</ele><time>2026-05-02T07:07:14Z</time></trkpt><trkpt lat="43.80176341365449" lon="11.733746570963007"><ele>658.8</ele><time>2026-05-02T07:07:15Z</time></trkpt><trkpt lat="43.80186827053295" lon="11.733777317964748"><ele>657.4</ele><time>2026-05-02T07:07:16Z</time></trkpt><trkpt lat="43.801964067941526" lon="11.733823269563779"><ele>656.0</ele><time>2026-05-02T07:07:17Z</time></trkpt><trkpt lat="43.802049267857846" lon="11.733899294349921"><ele>656.0</ele><time>2026-05-02T07:07:18Z</time></trkpt><trkpt lat="43.80212222516455" lon="11.733993119467884"><ele>656.0</ele><time>2026-05-02T07:07:19Z</time></trkpt><trkpt lat="43.802187198598354" lon="11.734083444399191"><ele>656.0</ele><time>2026-05-02T07:07:20Z</time></trkpt><trkpt lat="43.80225854664905" lon="11.734148093131884"><ele>656.0</ele><time>2026-05-02T07:07:21Z</time></trkpt><trkpt lat="43.80234514975312" lon="11.734196396003842"><ele>656.0</ele><time>2026-05-02T07:07:22Z</time></trkpt><trkpt lat="43.802447861792366" lon="11.73422254100982"><ele>656.0</ele><time>2026-05-02T07:07:23Z</time></trkpt><trkpt lat="43.80256380600606" lon="11.734233572812952"><ele>656.0</ele><time>2026-05-02T07:07:24Z</time></trkpt><trkpt lat="43.80266837490493" lon="11.734248904784707"><ele>656.0</ele><time>2026-05-02T07:07:25Z</time></trkpt><trkpt lat="43.802768965455925" lon="11.734267345869403"><ele>656.0</ele><time>2026-05-02T07:07:26Z</time></trkpt><trkpt lat="43.802854893150794" lon="11.734305898962418"><ele>656.0</ele><time>2026-05-02T07:07:27Z</time></trkpt><trkpt lat="43.802933603407" lon="11.73437112357331"><ele>656.8</ele><time>2026-05-02T07:07:28Z</time></trkpt><trkpt lat="43.802994682547784" lon="11.734476113189697"><ele>657.5999999999999</ele><time>2026-05-02T07:07:29Z</time></trkpt><trkpt lat="43.80303111669059" lon="11.734612779253489"><ele>658.4</ele><time>2026-05-02T07:07:30Z</time></trkpt><trkpt lat="43.80305664993509" lon="11.734749723038755"><ele>659.2</ele><time>2026-05-02T07:07:31Z</time></trkpt><trkpt lat="43.80308408700581" lon="11.734891591069779"><ele>660.0</ele><time>2026-05-02T07:07:32Z</time></trkpt><trkpt lat="43.803114522077685" lon="11.735044909558324"><ele>660.0</ele><time>2026-05-02T07:07:33Z</time></trkpt><trkpt lat="43.80316227291459" lon="11.735192908931772"><ele>660.0</ele><time>2026-05-02T07:07:34Z</time></trkpt><trkpt lat="43.803190859029876" lon="11.735337212446638"><ele>660.0</ele><time>2026-05-02T07:07:35Z</time></trkpt><trkpt lat="43.8032119112924" lon="11.73545866040601"><ele>660.0</ele><time>2026-05-02T07:07:36Z</time></trkpt><trkpt lat="43.80319995128487" lon="11.735570205826587"><ele>660.0</ele><time>2026-05-02T07:07:37Z</time></trkpt><trkpt lat="43.80319541731348" lon="11.735669378241592"><ele>660.0</ele><time>2026-05-02T07:07:38Z</time></trkpt><trkpt lat="43.80313217609622" lon="11.735738120706959"><ele>660.0</ele><time>2026-05-02T07:07:39Z</time></trkpt><trkpt lat="43.80306266199262" lon="11.735815602394794"><ele>660.0</ele><time>2026-05-02T07:07:40Z</time></trkpt><trkpt lat="43.80297866707294" lon="11.735832696723715"><ele>660.0</ele><time>2026-05-02T07:07:41Z</time></trkpt><trkpt lat="43.80287664424222" lon="11.735847538177053"><ele>660.0</ele><time>2026-05-02T07:07:42Z</time></trkpt><trkpt lat="43.80276827219255" lon="11.73586482936232"><ele>662.0</ele><time>2026-05-02T07:07:43Z</time></trkpt><trkpt lat="43.80265653465675" lon="11.735902787669728"><ele>664.0</ele><time>2026-05-02T07:07:44Z</time></trkpt><trkpt lat="43.802550184268895" lon="11.735918459679642"><ele>666.0</ele><time>2026-05-02T07:07:45Z</time></trkpt><trkpt lat="43.802446717462985" lon="11.73592069620117"><ele>668.0</ele><time>2026-05-02T07:07:46Z</time></trkpt><trkpt lat="43.80234517591256" lon="11.735993493719942"><ele>670.0</ele><time>2026-05-02T07:07:47Z</time></trkpt><trkpt lat="43.80223965397808" lon="11.73607756211789"><ele>670.0</ele><time>2026-05-02T07:07:48Z</time></trkpt><trkpt lat="43.80213473353699" lon="11.736184037171897"><ele>670.0</ele><time>2026-05-02T07:07:49Z</time></trkpt><trkpt lat="43.802026017341454" lon="11.736268759555237"><ele>670.0</ele><time>2026-05-02T07:07:50Z</time></trkpt><trkpt lat="43.80193313134671" lon="11.736361157452356"><ele>670.0</ele><time>2026-05-02T07:07:51Z</time></trkpt><trkpt lat="43.80183930224288" lon="11.736440640159957"><ele>668.0</ele><time>2026-05-02T07:07:52Z</time></trkpt><trkpt lat="43.80174304783668" lon="11.736498366132913"><ele>666.0</ele><time>2026-05-02T07:07:53Z</time></trkpt><trkpt lat="43.80164752625189" lon="11.736517688300061"><ele>664.0</ele><time>2026-05-02T07:07:54Z</time></trkpt><trkpt lat="43.80154610037878" lon="11.736501737760465"><ele>662.0</ele><time>2026-05-02T07:07:55Z</time></trkpt><trkpt lat="43.80142455648114" lon="11.736448768301463"><ele>660.0</ele><time>2026-05-02T07:07:56Z</time></trkpt><trkpt lat="43.80128322240116" lon="11.73643028722658"><ele>660.0</ele><time>2026-05-02T07:07:57Z</time></trkpt><trkpt lat="43.801144159024446" lon="11.73647552359918"><ele>660.0</ele><time>2026-05-02T07:07:58Z</time></trkpt><trkpt lat="43.801015658519674" lon="11.73648206717963"><ele>660.0</ele><time>2026-05-02T07:07:59Z</time></trkpt><trkpt lat="43.800897172370746" lon="11.736484824169123"><ele>660.0</ele><time>2026-05-02T07:08:00Z</time></trkpt><trkpt lat="43.80079493853921" lon="11.73647244828715"><ele>659.6</ele><time>2026-05-02T07:08:01Z</time></trkpt><trkpt lat="43.800687396834434" lon="11.736467957284084"><ele>659.2</ele><time>2026-05-02T07:08:02Z</time></trkpt><trkpt lat="43.80059040575949" lon="11.736480877027926"><ele>658.8</ele><time>2026-05-02T07:08:03Z</time></trkpt><trkpt lat="43.80049926920873" lon="11.736540081378754"><ele>658.4</ele><time>2026-05-02T07:08:04Z</time></trkpt><trkpt lat="43.80041043789695" lon="11.736595601472525"><ele>658.0</ele><time>2026-05-02T07:08:05Z</time></trkpt><trkpt lat="43.800337092039676" lon="11.736689074768194"><ele>658.0</ele><time>2026-05-02T07:08:06Z</time></trkpt><trkpt lat="43.80028032959674" lon="11.736805987019808"><ele>658.0</ele><time>2026-05-02T07:08:07Z</time></trkpt><trkpt lat="43.80023249615058" lon="11.736958306212884"><ele>658.0</ele><time>2026-05-02T07:08:08Z</time></trkpt><trkpt lat="43.80019884636399" lon="11.737126219863091"><ele>658.0</ele><time>2026-05-02T07:08:09Z</time></trkpt><trkpt lat="43.80017178659373" lon="11.737288498545595"><ele>657.8</ele><time>2026-05-02T07:08:10Z</time></trkpt><trkpt lat="43.80015621770101" lon="11.73742757080298"><ele>657.5999999999999</ele><time>2026-05-02T07:08:11Z</time></trkpt><trkpt lat="43.800152759725286" lon="11.737544413795906"><ele>657.4000000000001</ele><time>2026-05-02T07:08:12Z</time></trkpt><trkpt lat="43.80017360417238" lon="11.737681493527521"><ele>657.2</ele><time>2026-05-02T07:08:14Z</time></trkpt><trkpt lat="43.80019252280132" lon="11.737769870712345"><ele>657.0</ele><time>2026-05-02T07:08:18Z</time></trkpt><trkpt lat="43.800086550814186" lon="11.737734343032493"><ele>656.2857142857142</ele><time>2026-05-02T07:08:30Z</time></trkpt><trkpt lat="43.799982528208496" lon="11.737764153834945"><ele>655.5714285714287</ele><time>2026-05-02T07:08:32Z</time></trkpt><trkpt lat="43.79991975762574" lon="11.737773472717912"><ele>654.8571428571429</ele><time>2026-05-02T07:08:33Z</time></trkpt><trkpt lat="43.799853008551295" lon="11.737795165450667"><ele>654.1428571428571</ele><time>2026-05-02T07:08:34Z</time></trkpt><trkpt lat="43.799783723521" lon="11.737781079750148"><ele>653.4285714285713</ele><time>2026-05-02T07:08:35Z</time></trkpt><trkpt lat="43.7997203680516" lon="11.73772909485919"><ele>652.7142857142858</ele><time>2026-05-02T07:08:36Z</time></trkpt><trkpt lat="43.79965796132737" lon="11.737694758363535"><ele>652.0</ele><time>2026-05-02T07:08:37Z</time></trkpt><trkpt lat="43.799596345966485" lon="11.737651827139798"><ele>652.0</ele><time>2026-05-02T07:08:38Z</time></trkpt><trkpt lat="43.79953056762487" lon="11.737601992349504"><ele>652.0</ele><time>2026-05-02T07:08:39Z</time></trkpt><trkpt lat="43.7994638476564" lon="11.737539943211363"><ele>652.0</ele><time>2026-05-02T07:08:40Z</time></trkpt><trkpt lat="43.79938525550169" lon="11.737492845198702"><ele>652.0</ele><time>2026-05-02T07:08:41Z</time></trkpt><trkpt lat="43.79931692648796" lon="11.737402072896215"><ele>652.0</ele><time>2026-05-02T07:08:42Z</time></trkpt><trkpt lat="43.799234247336614" lon="11.737324670333578"><ele>652.0</ele><time>2026-05-02T07:08:43Z</time></trkpt><trkpt lat="43.79914116305042" lon="11.737265918402601"><ele>650.8333333333334</ele><time>2026-05-02T07:08:44Z</time></trkpt><trkpt lat="43.79905886510704" lon="11.737186569602702"><ele>649.6666666666667</ele><time>2026-05-02T07:08:45Z</time></trkpt><trkpt lat="43.79897635205677" lon="11.737114328819416"><ele>648.5</ele><time>2026-05-02T07:08:46Z</time></trkpt><trkpt lat="43.79890066543974" lon="11.737045805635313"><ele>647.3333333333334</ele><time>2026-05-02T07:08:47Z</time></trkpt><trkpt lat="43.79882983875996" lon="11.736991670922134"><ele>646.1666666666666</ele><time>2026-05-02T07:08:48Z</time></trkpt><trkpt lat="43.79875567704199" lon="11.736971340584844"><ele>645.0</ele><time>2026-05-02T07:08:49Z</time></trkpt><trkpt lat="43.79868328052176" lon="11.736959313994202"><ele>645.0</ele><time>2026-05-02T07:08:50Z</time></trkpt><trkpt lat="43.79860292964288" lon="11.737013964270561"><ele>645.0</ele><time>2026-05-02T07:08:51Z</time></trkpt><trkpt lat="43.79853432064665" lon="11.737112123760546"><ele>645.0</ele><time>2026-05-02T07:08:52Z</time></trkpt><trkpt lat="43.798476721473804" lon="11.737209963031376"><ele>645.0</ele><time>2026-05-02T07:08:53Z</time></trkpt><trkpt lat="43.798439976130624" lon="11.737337905803203"><ele>645.0</ele><time>2026-05-02T07:08:54Z</time></trkpt><trkpt lat="43.79839875894716" lon="11.737437397278123"><ele>642.2</ele><time>2026-05-02T07:08:55Z</time></trkpt><trkpt lat="43.79837069912655" lon="11.737577584440432"><ele>639.4</ele><time>2026-05-02T07:08:56Z</time></trkpt><trkpt lat="43.798439410974204" lon="11.737727799272157"><ele>636.6</ele><time>2026-05-02T07:08:57Z</time></trkpt><trkpt lat="43.79843547364912" lon="11.737858963706296"><ele>633.8</ele><time>2026-05-02T07:08:58Z</time></trkpt><trkpt lat="43.798437483141754" lon="11.737986648514365"><ele>631.0</ele><time>2026-05-02T07:08:59Z</time></trkpt><trkpt lat="43.79844754244371" lon="11.738086673170171"><ele>630.4</ele><time>2026-05-02T07:09:00Z</time></trkpt><trkpt lat="43.79846400928638" lon="11.73820295804015"><ele>629.8</ele><time>2026-05-02T07:09:02Z</time></trkpt><trkpt lat="43.79853136852925" lon="11.738325499422892"><ele>629.1999999999999</ele><time>2026-05-02T07:09:04Z</time></trkpt><trkpt lat="43.79857866434694" lon="11.738400395134684"><ele>628.6</ele><time>2026-05-02T07:09:05Z</time></trkpt><trkpt lat="43.79863814230002" lon="11.738501461470284"><ele>628.0</ele><time>2026-05-02T07:09:06Z</time></trkpt><trkpt lat="43.7986927443336" lon="11.738615059106174"><ele>628.0</ele><time>2026-05-02T07:09:07Z</time></trkpt><trkpt lat="43.79873590387589" lon="11.738731048503578"><ele>628.0</ele><time>2026-05-02T07:09:08Z</time></trkpt><trkpt lat="43.79876865430716" lon="11.738836371413479"><ele>628.0</ele><time>2026-05-02T07:09:09Z</time></trkpt><trkpt lat="43.79879461830687" lon="11.738925013579115"><ele>628.0</ele><time>2026-05-02T07:09:10Z</time></trkpt><trkpt lat="43.798824098050524" lon="11.739020691465841"><ele>628.0</ele><time>2026-05-02T07:09:13Z</time></trkpt><trkpt lat="43.79881071328696" lon="11.738924031425858"><ele>628.0</ele><time>2026-05-02T07:09:30Z</time></trkpt><trkpt lat="43.798763531625895" lon="11.73877472662966"><ele>628.0</ele><time>2026-05-02T07:09:32Z</time></trkpt><trkpt lat="43.798730144297906" lon="11.738667538655738"><ele>628.0</ele><time>2026-05-02T07:09:33Z</time></trkpt><trkpt lat="43.798685038041455" lon="11.73859379890687"><ele>628.0</ele><time>2026-05-02T07:09:34Z</time></trkpt><trkpt lat="43.79862391990234" lon="11.738446566956185"><ele>628.0</ele><time>2026-05-02T07:09:36Z</time></trkpt><trkpt lat="43.798578509504914" lon="11.738367719836686"><ele>628.0</ele><time>2026-05-02T07:09:37Z</time></trkpt><trkpt lat="43.79852988829197" lon="11.73828735912527"><ele>628.0</ele><time>2026-05-02T07:09:38Z</time></trkpt><trkpt lat="43.798472282807744" lon="11.738228759523672"><ele>628.5</ele><time>2026-05-02T07:09:39Z</time></trkpt><trkpt lat="43.79840940307237" lon="11.738073325113197"><ele>629.0</ele><time>2026-05-02T07:09:41Z</time></trkpt><trkpt lat="43.79838788934628" lon="11.737977564943474"><ele>629.5</ele><time>2026-05-02T07:09:42Z</time></trkpt><trkpt lat="43.79840268795075" lon="11.737853346578731"><ele>630.0</ele><time>2026-05-02T07:09:43Z</time></trkpt><trkpt lat="43.79840433959057" lon="11.737750157819722"><ele>630.5</ele><time>2026-05-02T07:09:44Z</time></trkpt><trkpt lat="43.798411043417" lon="11.737647238128442"><ele>631.0</ele><time>2026-05-02T07:09:45Z</time></trkpt><trkpt lat="43.79841970713319" lon="11.73756021419969"><ele>631.0</ele><time>2026-05-02T07:09:46Z</time></trkpt><trkpt lat="43.798428532849556" lon="11.737455955674895"><ele>631.0</ele><time>2026-05-02T07:09:48Z</time></trkpt><trkpt lat="43.79838719100952" lon="11.737552460453758"><ele>631.0</ele><time>2026-05-02T07:09:53Z</time></trkpt><trkpt lat="43.79837505467028" lon="11.737692852885885"><ele>631.0</ele><time>2026-05-02T07:09:55Z</time></trkpt><trkpt lat="43.798366507690574" lon="11.737780298577842"><ele>631.0</ele><time>2026-05-02T07:09:56Z</time></trkpt><trkpt lat="43.798342072532776" lon="11.737940357077486"><ele>631.0</ele><time>2026-05-02T07:09:58Z</time></trkpt><trkpt lat="43.79830528008452" lon="11.738081680314348"><ele>629.4</ele><time>2026-05-02T07:10:00Z</time></trkpt><trkpt lat="43.79825396621008" lon="11.738166891782111"><ele>627.8</ele><time>2026-05-02T07:10:02Z</time></trkpt><trkpt lat="43.79813936998412" lon="11.738212725802088"><ele>626.1999999999999</ele><time>2026-05-02T07:10:04Z</time></trkpt><trkpt lat="43.79807222167082" lon="11.73822859443487"><ele>624.6</ele><time>2026-05-02T07:10:05Z</time></trkpt><trkpt lat="43.79794970285821" lon="11.738232207510977"><ele>623.0</ele><time>2026-05-02T07:10:07Z</time></trkpt><trkpt lat="43.79789590372989" lon="11.738179049233779"><ele>623.0</ele><time>2026-05-02T07:10:09Z</time></trkpt><trkpt lat="43.797853298411084" lon="11.738107483946079"><ele>623.0</ele><time>2026-05-02T07:10:22Z</time></trkpt><trkpt lat="43.79789949792518" lon="11.738169733926725"><ele>623.0</ele><time>2026-05-02T07:10:26Z</time></trkpt><trkpt lat="43.79779157058131" lon="11.738121920921639"><ele>623.0</ele><time>2026-05-02T07:10:28Z</time></trkpt><trkpt lat="43.7977075441363" lon="11.7381580928098"><ele>623.0</ele><time>2026-05-02T07:10:30Z</time></trkpt><trkpt lat="43.79762797590731" lon="11.738141122080956"><ele>623.0</ele><time>2026-05-02T07:10:32Z</time></trkpt><trkpt lat="43.797548000661614" lon="11.73822812497197"><ele>619.8</ele><time>2026-05-02T07:10:34Z</time></trkpt><trkpt lat="43.7975089116232" lon="11.738461952115982"><ele>616.5999999999999</ele><time>2026-05-02T07:10:36Z</time></trkpt><trkpt lat="43.797436212360765" lon="11.738487894558876"><ele>613.4000000000001</ele><time>2026-05-02T07:10:38Z</time></trkpt><trkpt lat="43.79736935131009" lon="11.73856963691096"><ele>610.2</ele><time>2026-05-02T07:10:40Z</time></trkpt><trkpt lat="43.797316102038586" lon="11.738658012294035"><ele>607.0</ele><time>2026-05-02T07:10:42Z</time></trkpt><trkpt lat="43.79724768445528" lon="11.738692982036953"><ele>604.5</ele><time>2026-05-02T07:10:44Z</time></trkpt><trkpt lat="43.797184716441635" lon="11.73876700061593"><ele>602.0</ele><time>2026-05-02T07:10:48Z</time></trkpt><trkpt lat="43.79714545196474" lon="11.738880386775264"><ele>599.5</ele><time>2026-05-02T07:10:50Z</time></trkpt><trkpt lat="43.79711892740725" lon="11.738989503971649"><ele>597.0</ele><time>2026-05-02T07:10:52Z</time></trkpt><trkpt lat="43.79708670713848" lon="11.73907332044288"><ele>594.5</ele><time>2026-05-02T07:10:54Z</time></trkpt><trkpt lat="43.797031198599974" lon="11.73913300114367"><ele>592.0</ele><time>2026-05-02T07:10:56Z</time></trkpt><trkpt lat="43.79696471800369" lon="11.739135316320192"><ele>592.0</ele><time>2026-05-02T07:10:58Z</time></trkpt><trkpt lat="43.79687109628855" lon="11.739115835557666"><ele>592.0</ele><time>2026-05-02T07:11:00Z</time></trkpt><trkpt lat="43.79677385585617" lon="11.739100176368547"><ele>592.0</ele><time>2026-05-02T07:11:02Z</time></trkpt><trkpt lat="43.79669469649781" lon="11.739022973036747"><ele>592.0</ele><time>2026-05-02T07:11:04Z</time></trkpt><trkpt lat="43.79661391759827" lon="11.73901513020571"><ele>592.0</ele><time>2026-05-02T07:11:06Z</time></trkpt><trkpt lat="43.79653531813813" lon="11.7390240310515"><ele>592.0</ele><time>2026-05-02T07:11:08Z</time></trkpt><trkpt lat="43.796480669268924" lon="11.739107864734349"><ele>589.8333333333334</ele><time>2026-05-02T07:11:10Z</time></trkpt><trkpt lat="43.79642377667871" lon="11.739215613402894"><ele>587.6666666666667</ele><time>2026-05-02T07:11:12Z</time></trkpt><trkpt lat="43.79637065335123" lon="11.739289913143589"><ele>585.5</ele><time>2026-05-02T07:11:14Z</time></trkpt><trkpt lat="43.796349444815704" lon="11.739383064308369"><ele>583.3333333333334</ele><time>2026-05-02T07:11:16Z</time></trkpt><trkpt lat="43.796301714840006" lon="11.73947551113148"><ele>581.1666666666666</ele><time>2026-05-02T07:11:19Z</time></trkpt><trkpt lat="43.79625103276429" lon="11.739564734075412"><ele>579.0</ele><time>2026-05-02T07:11:21Z</time></trkpt><trkpt lat="43.79617832158039" lon="11.739667624181733"><ele>575.2</ele><time>2026-05-02T07:11:23Z</time></trkpt><trkpt lat="43.796087837317295" lon="11.739702186698969"><ele>571.4</ele><time>2026-05-02T07:11:25Z</time></trkpt><trkpt lat="43.79600246975775" lon="11.739722480385804"><ele>567.6</ele><time>2026-05-02T07:11:27Z</time></trkpt><trkpt lat="43.795917751577036" lon="11.739706408853166"><ele>563.8</ele><time>2026-05-02T07:11:29Z</time></trkpt><trkpt lat="43.79582965785496" lon="11.739727708171435"><ele>560.0</ele><time>2026-05-02T07:11:31Z</time></trkpt><trkpt lat="43.795741423209584" lon="11.739784760490187"><ele>557.2</ele><time>2026-05-02T07:11:33Z</time></trkpt><trkpt lat="43.79567739909945" lon="11.739923433405576"><ele>554.4</ele><time>2026-05-02T07:11:36Z</time></trkpt><trkpt lat="43.79562398048956" lon="11.740015922001067"><ele>551.6</ele><time>2026-05-02T07:11:38Z</time></trkpt><trkpt lat="43.795530377434766" lon="11.740082611484887"><ele>548.8</ele><time>2026-05-02T07:11:40Z</time></trkpt><trkpt lat="43.79545519737784" lon="11.740171169555586"><ele>546.0</ele><time>2026-05-02T07:11:42Z</time></trkpt><trkpt lat="43.79539275097327" lon="11.740243277090089"><ele>543.0</ele><time>2026-05-02T07:11:44Z</time></trkpt><trkpt lat="43.795349914727396" lon="11.740319246380148"><ele>540.0</ele><time>2026-05-02T07:11:46Z</time></trkpt><trkpt lat="43.7952663164069" lon="11.740319088098998"><ele>537.0</ele><time>2026-05-02T07:11:48Z</time></trkpt><trkpt lat="43.79518602158465" lon="11.740314095405994"><ele>534.0</ele><time>2026-05-02T07:11:50Z</time></trkpt><trkpt lat="43.79511484043307" lon="11.740335139019686"><ele>531.0</ele><time>2026-05-02T07:11:52Z</time></trkpt><trkpt lat="43.79505553565707" lon="11.740383951570715"><ele>528.0</ele><time>2026-05-02T07:11:54Z</time></trkpt><trkpt lat="43.79498638022326" lon="11.74034183110734"><ele>527.8333333333334</ele><time>2026-05-02T07:11:56Z</time></trkpt><trkpt lat="43.79491183050774" lon="11.74021407765411"><ele>527.6666666666666</ele><time>2026-05-02T07:11:58Z</time></trkpt><trkpt lat="43.79488078279584" lon="11.740130756012968"><ele>527.5</ele><time>2026-05-02T07:11:59Z</time></trkpt><trkpt lat="43.79485083675681" lon="11.740042589052916"><ele>527.3333333333333</ele><time>2026-05-02T07:12:00Z</time></trkpt><trkpt lat="43.7948267612364" lon="11.739954221462668"><ele>527.1666666666666</ele><time>2026-05-02T07:12:01Z</time></trkpt><trkpt lat="43.79477989509855" lon="11.739805392456098"><ele>527.0</ele><time>2026-05-02T07:12:03Z</time></trkpt><trkpt lat="43.79473890914197" lon="11.739673602569564"><ele>527.0</ele><time>2026-05-02T07:12:05Z</time></trkpt><trkpt lat="43.79469461952459" lon="11.739550643891656"><ele>527.0</ele><time>2026-05-02T07:12:07Z</time></trkpt><trkpt lat="43.794652136891514" lon="11.73940022538299"><ele>527.0</ele><time>2026-05-02T07:12:09Z</time></trkpt><trkpt lat="43.794621943102946" lon="11.739310073385399"><ele>527.0</ele><time>2026-05-02T07:12:10Z</time></trkpt><trkpt lat="43.79459389046466" lon="11.739208988628638"><ele>527.0</ele><time>2026-05-02T07:12:11Z</time></trkpt><trkpt lat="43.79455574509677" lon="11.739092885866164"><ele>527.3333333333333</ele><time>2026-05-02T07:12:12Z</time></trkpt><trkpt lat="43.7945202038976" lon="11.738981679505759"><ele>527.6666666666666</ele><time>2026-05-02T07:12:13Z</time></trkpt><trkpt lat="43.79448687958047" lon="11.73887894322645"><ele>528.0</ele><time>2026-05-02T07:12:14Z</time></trkpt><trkpt lat="43.79445473204232" lon="11.738774826777039"><ele>528.3333333333334</ele><time>2026-05-02T07:12:15Z</time></trkpt><trkpt lat="43.794423327059896" lon="11.738668968699832"><ele>528.6666666666667</ele><time>2026-05-02T07:12:16Z</time></trkpt><trkpt lat="43.7943939742514" lon="11.738569222721361"><ele>529.0</ele><time>2026-05-02T07:12:17Z</time></trkpt><trkpt lat="43.79434577167638" lon="11.738410997229122"><ele>525.3333333333334</ele><time>2026-05-02T07:12:19Z</time></trkpt><trkpt lat="43.794290147033124" lon="11.738257294807628"><ele>521.6666666666667</ele><time>2026-05-02T07:12:21Z</time></trkpt><trkpt lat="43.79423860871186" lon="11.738099269167995"><ele>518.0</ele><time>2026-05-02T07:12:23Z</time></trkpt><trkpt lat="43.794212054451236" lon="11.738011352813013"><ele>514.3333333333334</ele><time>2026-05-02T07:12:24Z</time></trkpt><trkpt lat="43.794190585221294" lon="11.737926791238088"><ele>510.6666666666667</ele><time>2026-05-02T07:12:25Z</time></trkpt><trkpt lat="43.794165015014244" lon="11.737842749625761"><ele>507.0</ele><time>2026-05-02T07:12:26Z</time></trkpt><trkpt lat="43.794142523368535" lon="11.737760640201124"><ele>507.6</ele><time>2026-05-02T07:12:27Z</time></trkpt><trkpt lat="43.79409337597793" lon="11.737611913306514"><ele>508.20000000000005</ele><time>2026-05-02T07:12:29Z</time></trkpt><trkpt lat="43.79405723413554" lon="11.737461166490748"><ele>508.8</ele><time>2026-05-02T07:12:31Z</time></trkpt><trkpt lat="43.79402880576022" lon="11.737322458419888"><ele>509.4</ele><time>2026-05-02T07:12:33Z</time></trkpt><trkpt lat="43.79400789036829" lon="11.73721927370901"><ele>510.0</ele><time>2026-05-02T07:12:35Z</time></trkpt><trkpt lat="43.79392747177024" lon="11.737178476120448"><ele>510.0</ele><time>2026-05-02T07:12:37Z</time></trkpt><trkpt lat="43.793861401781506" lon="11.737179321966467"><ele>510.0</ele><time>2026-05-02T07:12:38Z</time></trkpt><trkpt lat="43.7937426511231" lon="11.737155034767225"><ele>510.0</ele><time>2026-05-02T07:12:40Z</time></trkpt><trkpt lat="43.793678292012714" lon="11.737145659365044"><ele>510.0</ele><time>2026-05-02T07:12:41Z</time></trkpt><trkpt lat="43.7936109009744" lon="11.737133889961994"><ele>510.0</ele><time>2026-05-02T07:12:42Z</time></trkpt><trkpt lat="43.79354656906904" lon="11.737119052100946"><ele>510.0</ele><time>2026-05-02T07:12:43Z</time></trkpt><trkpt lat="43.79348046577602" lon="11.737107446996127"><ele>506.5</ele><time>2026-05-02T07:12:44Z</time></trkpt><trkpt lat="43.79341410758979" lon="11.737094050993678"><ele>503.0</ele><time>2026-05-02T07:12:45Z</time></trkpt><trkpt lat="43.79335063264762" lon="11.737084505451255"><ele>499.5</ele><time>2026-05-02T07:12:46Z</time></trkpt><trkpt lat="43.79323215370559" lon="11.737085445080012"><ele>496.0</ele><time>2026-05-02T07:12:48Z</time></trkpt><trkpt lat="43.793139555571905" lon="11.737160559199127"><ele>492.5</ele><time>2026-05-02T07:12:50Z</time></trkpt><trkpt lat="43.79309421581749" lon="11.737228510487299"><ele>489.0</ele><time>2026-05-02T07:12:51Z</time></trkpt><trkpt lat="43.79303733770206" lon="11.737324096708301"><ele>489.0</ele><time>2026-05-02T07:12:52Z</time></trkpt><trkpt lat="43.792974267992534" lon="11.737411610630906"><ele>489.0</ele><time>2026-05-02T07:12:53Z</time></trkpt><trkpt lat="43.79289946752583" lon="11.737495776710249"><ele>489.0</ele><time>2026-05-02T07:12:54Z</time></trkpt><trkpt lat="43.79283239654967" lon="11.737569810543766"><ele>489.0</ele><time>2026-05-02T07:12:55Z</time></trkpt><trkpt lat="43.7927629893124" lon="11.737657659319307"><ele>489.0</ele><time>2026-05-02T07:12:56Z</time></trkpt><trkpt lat="43.79268596409691" lon="11.737749921870162"><ele>486.5</ele><time>2026-05-02T07:12:57Z</time></trkpt><trkpt lat="43.79261733822998" lon="11.737836660515018"><ele>484.0</ele><time>2026-05-02T07:12:58Z</time></trkpt><trkpt lat="43.792548582694344" lon="11.737921051828064"><ele>481.5</ele><time>2026-05-02T07:12:59Z</time></trkpt><trkpt lat="43.792488815650614" lon="11.73799883096545"><ele>479.0</ele><time>2026-05-02T07:13:00Z</time></trkpt><trkpt lat="43.7924302737934" lon="11.738074501857305"><ele>476.5</ele><time>2026-05-02T07:13:01Z</time></trkpt><trkpt lat="43.79236947412859" lon="11.738145677207745"><ele>474.0</ele><time>2026-05-02T07:13:02Z</time></trkpt><trkpt lat="43.79231371329034" lon="11.738218265394119"><ele>474.0</ele><time>2026-05-02T07:13:03Z</time></trkpt><trkpt lat="43.7922546469764" lon="11.738291737817216"><ele>474.0</ele><time>2026-05-02T07:13:04Z</time></trkpt><trkpt lat="43.79220709055722" lon="11.73836107065953"><ele>474.0</ele><time>2026-05-02T07:13:05Z</time></trkpt><trkpt lat="43.7921754241285" lon="11.73845670375833"><ele>474.0</ele><time>2026-05-02T07:13:06Z</time></trkpt><trkpt lat="43.792159830687496" lon="11.738565803847079"><ele>474.0</ele><time>2026-05-02T07:13:07Z</time></trkpt><trkpt lat="43.79218731335209" lon="11.7387235119392"><ele>474.0</ele><time>2026-05-02T07:13:09Z</time></trkpt><trkpt lat="43.79216535412681" lon="11.738812093906514"><ele>474.0</ele><time>2026-05-02T07:13:11Z</time></trkpt><trkpt lat="43.79208421922554" lon="11.738816497761956"><ele>474.0</ele><time>2026-05-02T07:13:14Z</time></trkpt><trkpt lat="43.7920270412305" lon="11.738661672376459"><ele>474.0</ele><time>2026-05-02T07:13:16Z</time></trkpt><trkpt lat="43.79200531019149" lon="11.738552739969661"><ele>474.0</ele><time>2026-05-02T07:13:17Z</time></trkpt><trkpt lat="43.79197115908887" lon="11.738457806776243"><ele>474.0</ele><time>2026-05-02T07:13:18Z</time></trkpt><trkpt lat="43.79193109075164" lon="11.738360802705424"><ele>474.0</ele><time>2026-05-02T07:13:19Z</time></trkpt><trkpt lat="43.791876376390036" lon="11.738269124800436"><ele>472.0</ele><time>2026-05-02T07:13:20Z</time></trkpt><trkpt lat="43.79181004946624" lon="11.738182598315246"><ele>470.0</ele><time>2026-05-02T07:13:21Z</time></trkpt><trkpt lat="43.79173950161049" lon="11.73809153863305"><ele>468.0</ele><time>2026-05-02T07:13:22Z</time></trkpt><trkpt lat="43.791658805959386" lon="11.737996715918078"><ele>466.0</ele><time>2026-05-02T07:13:23Z</time></trkpt><trkpt lat="43.79156342368385" lon="11.737906935917088"><ele>464.0</ele><time>2026-05-02T07:13:24Z</time></trkpt><trkpt lat="43.791470958452926" lon="11.737820249522995"><ele>464.0</ele><time>2026-05-02T07:13:25Z</time></trkpt><trkpt lat="43.79137978732223" lon="11.737731489535284"><ele>464.0</ele><time>2026-05-02T07:13:26Z</time></trkpt><trkpt lat="43.79128813946011" lon="11.737634938603716"><ele>464.0</ele><time>2026-05-02T07:13:27Z</time></trkpt><trkpt lat="43.79119671745353" lon="11.737535163578192"><ele>464.0</ele><time>2026-05-02T07:13:28Z</time></trkpt><trkpt lat="43.79110741949458" lon="11.737429932615477"><ele>464.0</ele><time>2026-05-02T07:13:29Z</time></trkpt><trkpt lat="43.79101668373447" lon="11.737297756741702"><ele>464.0</ele><time>2026-05-02T07:13:30Z</time></trkpt><trkpt lat="43.79093571170407" lon="11.737148199003798"><ele>464.0</ele><time>2026-05-02T07:13:31Z</time></trkpt><trkpt lat="43.79085882010977" lon="11.736988747044203"><ele>464.0</ele><time>2026-05-02T07:13:32Z</time></trkpt><trkpt lat="43.790778595498864" lon="11.736821929607302"><ele>463.5</ele><time>2026-05-02T07:13:33Z</time></trkpt><trkpt lat="43.79069692879632" lon="11.736661970387713"><ele>463.0</ele><time>2026-05-02T07:13:34Z</time></trkpt><trkpt lat="43.790619218424865" lon="11.73650658854154"><ele>462.5</ele><time>2026-05-02T07:13:35Z</time></trkpt><trkpt lat="43.79054342492261" lon="11.736350716686252"><ele>462.0</ele><time>2026-05-02T07:13:36Z</time></trkpt><trkpt lat="43.790469448623085" lon="11.736195071863616"><ele>466.25</ele><time>2026-05-02T07:13:37Z</time></trkpt><trkpt lat="43.790395472659156" lon="11.736043888863271"><ele>470.5</ele><time>2026-05-02T07:13:38Z</time></trkpt><trkpt lat="43.79032277081979" lon="11.735900592598925"><ele>474.75</ele><time>2026-05-02T07:13:39Z</time></trkpt><trkpt lat="43.79025497195086" lon="11.735767657994183"><ele>479.0</ele><time>2026-05-02T07:13:40Z</time></trkpt><trkpt lat="43.79018928975417" lon="11.735646641196855"><ele>474.3333333333333</ele><time>2026-05-02T07:13:41Z</time></trkpt><trkpt lat="43.790128835000765" lon="11.735548274818354"><ele>469.66666666666663</ele><time>2026-05-02T07:13:42Z</time></trkpt><trkpt lat="43.79007533616075" lon="11.735469883177572"><ele>465.0</ele><time>2026-05-02T07:13:43Z</time></trkpt><trkpt lat="43.790028761472904" lon="11.73540717679485"><ele>460.33333333333337</ele><time>2026-05-02T07:13:44Z</time></trkpt><trkpt lat="43.78997667622789" lon="11.735350344922841"><ele>455.6666666666667</ele><time>2026-05-02T07:13:46Z</time></trkpt><trkpt lat="43.78994555446571" lon="11.735439728704712"><ele>451.0</ele><time>2026-05-02T07:13:50Z</time></trkpt><trkpt lat="43.78998350256611" lon="11.73554168610797"><ele>451.0</ele><time>2026-05-02T07:13:52Z</time></trkpt><trkpt lat="43.79002343961174" lon="11.735661834172433"><ele>451.0</ele><time>2026-05-02T07:13:54Z</time></trkpt><trkpt lat="43.79005680449356" lon="11.735806939445759"><ele>451.0</ele><time>2026-05-02T07:13:56Z</time></trkpt><trkpt lat="43.790074009632704" lon="11.735892109645702"><ele>451.0</ele><time>2026-05-02T07:13:57Z</time></trkpt><trkpt lat="43.79011319946877" lon="11.736021035008651"><ele>451.0</ele><time>2026-05-02T07:13:59Z</time></trkpt><trkpt lat="43.79014597720439" lon="11.73613108389763"><ele>450.6666666666667</ele><time>2026-05-02T07:14:01Z</time></trkpt><trkpt lat="43.79017223468001" lon="11.73625250084245"><ele>450.33333333333337</ele><time>2026-05-02T07:14:03Z</time></trkpt><trkpt lat="43.790194516333905" lon="11.736348454096285"><ele>450.0</ele><time>2026-05-02T07:14:05Z</time></trkpt><trkpt lat="43.790235830725756" lon="11.736465267834843"><ele>449.66666666666663</ele><time>2026-05-02T07:14:07Z</time></trkpt><trkpt lat="43.79024671505968" lon="11.736555524796064"><ele>449.3333333333333</ele><time>2026-05-02T07:14:15Z</time></trkpt><trkpt lat="43.79019414646584" lon="11.736612684810067"><ele>449.0</ele><time>2026-05-02T07:14:17Z</time></trkpt><trkpt lat="43.79010939156277" lon="11.736695774727378"><ele>448.99999999999994</ele><time>2026-05-02T07:14:20Z</time></trkpt><trkpt lat="43.790039758303756" lon="11.73676904046966"><ele>449.0</ele><time>2026-05-02T07:14:22Z</time></trkpt><trkpt lat="43.789966298032795" lon="11.736850994256818"><ele>449.0</ele><time>2026-05-02T07:14:24Z</time></trkpt><trkpt lat="43.789894664358684" lon="11.736879372818779"><ele>449.0</ele><time>2026-05-02T07:14:26Z</time></trkpt><trkpt lat="43.78981974288791" lon="11.73682263629004"><ele>448.99999999999994</ele><time>2026-05-02T07:14:28Z</time></trkpt><trkpt lat="43.789772644941756" lon="11.736759086429943"><ele>449.0</ele><time>2026-05-02T07:14:29Z</time></trkpt><trkpt lat="43.78971287300987" lon="11.736605179843364"><ele>448.99999999999994</ele><time>2026-05-02T07:14:31Z</time></trkpt><trkpt lat="43.78966300799087" lon="11.736506524343941"><ele>449.0</ele><time>2026-05-02T07:14:33Z</time></trkpt><trkpt lat="43.789602198109144" lon="11.736459234957353"><ele>449.0</ele><time>2026-05-02T07:14:36Z</time></trkpt><trkpt lat="43.78954664601714" lon="11.73650164837103"><ele>449.0</ele><time>2026-05-02T07:14:39Z</time></trkpt><trkpt lat="43.78951117425828" lon="11.736615528880142"><ele>448.99999999999994</ele><time>2026-05-02T07:14:41Z</time></trkpt><trkpt lat="43.789441750630694" lon="11.73670785591192"><ele>449.0</ele><time>2026-05-02T07:14:43Z</time></trkpt><trkpt lat="43.78936554985073" lon="11.736795020026475"><ele>451.49999999999994</ele><time>2026-05-02T07:14:45Z</time></trkpt><trkpt lat="43.78931553638634" lon="11.736876373138118"><ele>454.0</ele><time>2026-05-02T07:21:40Z</time></trkpt><trkpt lat="43.789251919127416" lon="11.736930610411491"><ele>456.5</ele><time>2026-05-02T07:21:42Z</time></trkpt><trkpt lat="43.789206032812885" lon="11.737001728748547"><ele>459.0</ele><time>2026-05-02T07:21:44Z</time></trkpt><trkpt lat="43.78914017506814" lon="11.737128470376586"><ele>461.49999999999994</ele><time>2026-05-02T07:21:46Z</time></trkpt><trkpt lat="43.78906993795511" lon="11.737227176753695"><ele>464.0</ele><time>2026-05-02T07:21:48Z</time></trkpt><trkpt lat="43.78899721082176" lon="11.737348279209444"><ele>464.2</ele><time>2026-05-02T07:21:50Z</time></trkpt><trkpt lat="43.78890805553432" lon="11.73746096986076"><ele>464.4</ele><time>2026-05-02T07:21:52Z</time></trkpt><trkpt lat="43.788860968516296" lon="11.73752110818508"><ele>464.6</ele><time>2026-05-02T07:21:53Z</time></trkpt><trkpt lat="43.78878263649751" lon="11.737626496758894"><ele>464.8</ele><time>2026-05-02T07:21:55Z</time></trkpt><trkpt lat="43.78869267101917" lon="11.73772580810868"><ele>465.0</ele><time>2026-05-02T07:21:57Z</time></trkpt><trkpt lat="43.78861683472006" lon="11.737847061163357"><ele>467.0</ele><time>2026-05-02T07:21:59Z</time></trkpt><trkpt lat="43.78852494906243" lon="11.737928856603858"><ele>469.0</ele><time>2026-05-02T07:22:01Z</time></trkpt><trkpt lat="43.78843786533124" lon="11.738012712404926"><ele>471.0</ele><time>2026-05-02T07:22:03Z</time></trkpt><trkpt lat="43.78838244087494" lon="11.738060489906912"><ele>473.0</ele><time>2026-05-02T07:22:04Z</time></trkpt><trkpt lat="43.78830001875206" lon="11.738168980492913"><ele>475.0</ele><time>2026-05-02T07:22:06Z</time></trkpt><trkpt lat="43.788198775185364" lon="11.738249849763333"><ele>475.00000000000006</ele><time>2026-05-02T07:22:08Z</time></trkpt><trkpt lat="43.788137773723314" lon="11.738293434500832"><ele>475.0</ele><time>2026-05-02T07:22:09Z</time></trkpt><trkpt lat="43.78805829736025" lon="11.738319118284883"><ele>475.0</ele><time>2026-05-02T07:22:11Z</time></trkpt><trkpt lat="43.78796141340638" lon="11.738348257103317"><ele>475.0</ele><time>2026-05-02T07:22:13Z</time></trkpt><trkpt lat="43.78785900693796" lon="11.738390962488872"><ele>475.00000000000006</ele><time>2026-05-02T07:22:15Z</time></trkpt><trkpt lat="43.78778695499813" lon="11.738379045991628"><ele>475.0</ele><time>2026-05-02T07:22:16Z</time></trkpt><trkpt lat="43.78771942342816" lon="11.738385768574618"><ele>477.33333333333337</ele><time>2026-05-02T07:22:17Z</time></trkpt><trkpt lat="43.787648108168014" lon="11.738439946856483"><ele>479.6666666666667</ele><time>2026-05-02T07:22:18Z</time></trkpt><trkpt lat="43.787591294762784" lon="11.73848444953746"><ele>482.0</ele><time>2026-05-02T07:22:19Z</time></trkpt><trkpt lat="43.787560025662415" lon="11.738407720253475"><ele>484.33333333333337</ele><time>2026-05-02T07:22:21Z</time></trkpt><trkpt lat="43.7875872682992" lon="11.738322354154926"><ele>486.6666666666667</ele><time>2026-05-02T07:22:23Z</time></trkpt><trkpt lat="43.787601398211386" lon="11.738203536970012"><ele>489.0</ele><time>2026-05-02T07:22:39Z</time></trkpt><trkpt lat="43.78765067058322" lon="11.738089550875468"><ele>489.0</ele><time>2026-05-02T07:22:41Z</time></trkpt><trkpt lat="43.787667294072506" lon="11.737999086144175"><ele>489.0</ele><time>2026-05-02T07:22:42Z</time></trkpt><trkpt lat="43.787691850595124" lon="11.737909122266005"><ele>489.0</ele><time>2026-05-02T07:22:43Z</time></trkpt><trkpt lat="43.78776207666161" lon="11.737830551675138"><ele>489.0</ele><time>2026-05-02T07:22:45Z</time></trkpt><trkpt lat="43.78785564446194" lon="11.73773199074605"><ele>489.0</ele><time>2026-05-02T07:22:47Z</time></trkpt><trkpt lat="43.78795629579317" lon="11.737665080528327"><ele>488.4</ele><time>2026-05-02T07:22:49Z</time></trkpt><trkpt lat="43.78805203393147" lon="11.737595233055373"><ele>487.79999999999995</ele><time>2026-05-02T07:22:51Z</time></trkpt><trkpt lat="43.78807667638081" lon="11.737470857410953"><ele>487.20000000000005</ele><time>2026-05-02T07:22:53Z</time></trkpt><trkpt lat="43.78813574115093" lon="11.737358337557461"><ele>486.6</ele><time>2026-05-02T07:22:55Z</time></trkpt><trkpt lat="43.78819765338478" lon="11.737285122015697"><ele>486.0</ele><time>2026-05-02T07:22:57Z</time></trkpt><trkpt lat="43.78826405378103" lon="11.737174010376675"><ele>486.0</ele><time>2026-05-02T07:22:59Z</time></trkpt><trkpt lat="43.78829151946885" lon="11.737093735533422"><ele>486.0</ele><time>2026-05-02T07:23:00Z</time></trkpt><trkpt lat="43.788304465223966" lon="11.736956670820172"><ele>486.0</ele><time>2026-05-02T07:23:02Z</time></trkpt><trkpt lat="43.78832702964987" lon="11.736848490714994"><ele>486.0</ele><time>2026-05-02T07:23:04Z</time></trkpt><trkpt lat="43.78830237620903" lon="11.736754855527378"><ele>486.0</ele><time>2026-05-02T07:23:06Z</time></trkpt><trkpt lat="43.7882423985021" lon="11.736799105257361"><ele>486.0</ele><time>2026-05-02T07:23:08Z</time></trkpt><trkpt lat="43.788157325668976" lon="11.736897409297603"><ele>486.0</ele><time>2026-05-02T07:23:10Z</time></trkpt><trkpt lat="43.78805370134554" lon="11.73701025701298"><ele>486.0</ele><time>2026-05-02T07:23:12Z</time></trkpt><trkpt lat="43.78797461654487" lon="11.73704487739465"><ele>486.0</ele><time>2026-05-02T07:23:14Z</time></trkpt><trkpt lat="43.78783589592677" lon="11.737040723761142"><ele>486.0</ele><time>2026-05-02T07:23:16Z</time></trkpt><trkpt lat="43.78776928783555" lon="11.737044555490687"><ele>486.0</ele><time>2026-05-02T07:23:17Z</time></trkpt><trkpt lat="43.78761062332761" lon="11.73704536300511"><ele>490.8</ele><time>2026-05-02T07:23:20Z</time></trkpt><trkpt lat="43.78750011086546" lon="11.737061184173918"><ele>495.6</ele><time>2026-05-02T07:23:22Z</time></trkpt><trkpt lat="43.78741246272363" lon="11.737001562443584"><ele>500.4</ele><time>2026-05-02T07:23:24Z</time></trkpt><trkpt lat="43.78736177897699" lon="11.73687824809226"><ele>505.2</ele><time>2026-05-02T07:23:26Z</time></trkpt><trkpt lat="43.78726145189158" lon="11.73684168207381"><ele>510.0</ele><time>2026-05-02T07:23:29Z</time></trkpt><trkpt lat="43.78717532844482" lon="11.736807986619985"><ele>512.0</ele><time>2026-05-02T07:23:31Z</time></trkpt><trkpt lat="43.78708475340985" lon="11.736743788404425"><ele>514.0</ele><time>2026-05-02T07:23:33Z</time></trkpt><trkpt lat="43.78700600630367" lon="11.736696268586902"><ele>516.0</ele><time>2026-05-02T07:23:35Z</time></trkpt><trkpt lat="43.78695891286654" lon="11.736605187247184"><ele>518.0</ele><time>2026-05-02T07:23:37Z</time></trkpt><trkpt lat="43.786911458203406" lon="11.73650784095795"><ele>520.0</ele><time>2026-05-02T07:23:39Z</time></trkpt><trkpt lat="43.78688570391672" lon="11.736385772950262"><ele>522.0</ele><time>2026-05-02T07:23:41Z</time></trkpt><trkpt lat="43.786844735233394" lon="11.736297854256929"><ele>522.0</ele><time>2026-05-02T07:23:43Z</time></trkpt><trkpt lat="43.78676087943396" lon="11.736234780466944"><ele>522.0</ele><time>2026-05-02T07:23:45Z</time></trkpt><trkpt lat="43.78665721917574" lon="11.736236725460223"><ele>522.0</ele><time>2026-05-02T07:23:47Z</time></trkpt><trkpt lat="43.78652981742033" lon="11.736218632634134"><ele>522.0</ele><time>2026-05-02T07:23:49Z</time></trkpt><trkpt lat="43.78646412913474" lon="11.736241187223603"><ele>522.0</ele><time>2026-05-02T07:23:50Z</time></trkpt><trkpt lat="43.78634073738325" lon="11.736291529587243"><ele>522.0</ele><time>2026-05-02T07:23:52Z</time></trkpt><trkpt lat="43.78624286704128" lon="11.736324999319972"><ele>522.0</ele><time>2026-05-02T07:23:54Z</time></trkpt><trkpt lat="43.786135940918854" lon="11.736338201520669"><ele>522.0</ele><time>2026-05-02T07:24:01Z</time></trkpt><trkpt lat="43.786062702355096" lon="11.736351865808404"><ele>522.0</ele><time>2026-05-02T07:24:02Z</time></trkpt><trkpt lat="43.78598017338955" lon="11.736377834405937"><ele>522.0</ele><time>2026-05-02T07:24:03Z</time></trkpt><trkpt lat="43.78589540782134" lon="11.73640881569036"><ele>521.3333333333334</ele><time>2026-05-02T07:24:04Z</time></trkpt><trkpt lat="43.78580299637513" lon="11.73644770198195"><ele>520.6666666666666</ele><time>2026-05-02T07:24:05Z</time></trkpt><trkpt lat="43.78571626736022" lon="11.736494462225883"><ele>520.0</ele><time>2026-05-02T07:24:06Z</time></trkpt><trkpt lat="43.78563800569867" lon="11.736538669197147"><ele>519.3333333333333</ele><time>2026-05-02T07:24:07Z</time></trkpt><trkpt lat="43.78555174120518" lon="11.73656122395015"><ele>518.6666666666666</ele><time>2026-05-02T07:24:08Z</time></trkpt><trkpt lat="43.78546807216393" lon="11.736596607690663"><ele>518.0</ele><time>2026-05-02T07:24:09Z</time></trkpt><trkpt lat="43.785389134117544" lon="11.736624262168506"><ele>518.0</ele><time>2026-05-02T07:24:10Z</time></trkpt><trkpt lat="43.78529955580705" lon="11.736667549811271"><ele>518.0</ele><time>2026-05-02T07:24:11Z</time></trkpt><trkpt lat="43.78521479591413" lon="11.736727825326616"><ele>518.0</ele><time>2026-05-02T07:24:12Z</time></trkpt><trkpt lat="43.78512842725562" lon="11.736782760912767"><ele>518.0</ele><time>2026-05-02T07:24:13Z</time></trkpt><trkpt lat="43.785052331043616" lon="11.73686065241011"><ele>518.0</ele><time>2026-05-02T07:24:14Z</time></trkpt><trkpt lat="43.78499216366581" lon="11.736928927120399"><ele>519.0</ele><time>2026-05-02T07:24:15Z</time></trkpt><trkpt lat="43.78493481565375" lon="11.737014956051768"><ele>520.0</ele><time>2026-05-02T07:24:16Z</time></trkpt><trkpt lat="43.784877560836975" lon="11.737058593546019"><ele>521.0</ele><time>2026-05-02T07:24:17Z</time></trkpt><trkpt lat="43.78483246960284" lon="11.737132169433888"><ele>522.0</ele><time>2026-05-02T07:24:18Z</time></trkpt><trkpt lat="43.7847400450775" lon="11.737202667825006"><ele>523.0</ele><time>2026-05-02T07:24:20Z</time></trkpt><trkpt lat="43.784658513454055" lon="11.737257767031247"><ele>524.0</ele><time>2026-05-02T07:24:22Z</time></trkpt><trkpt lat="43.78459103104536" lon="11.73726799820353"><ele>524.0</ele><time>2026-05-02T07:24:24Z</time></trkpt><trkpt lat="43.78451771082234" lon="11.737255396671896"><ele>524.0</ele><time>2026-05-02T07:24:26Z</time></trkpt><trkpt lat="43.78442340126589" lon="11.737277003099512"><ele>524.0</ele><time>2026-05-02T07:24:28Z</time></trkpt><trkpt lat="43.784379744524344" lon="11.737356742861621"><ele>524.0</ele><time>2026-05-02T07:24:29Z</time></trkpt><trkpt lat="43.78431017174265" lon="11.737405208780302"><ele>524.0</ele><time>2026-05-02T07:24:30Z</time></trkpt><trkpt lat="43.784239109447874" lon="11.737449940383536"><ele>524.0</ele><time>2026-05-02T07:24:31Z</time></trkpt><trkpt lat="43.784155308540896" lon="11.737481306561387"><ele>525.4</ele><time>2026-05-02T07:24:32Z</time></trkpt><trkpt lat="43.7840619835412" lon="11.737509216759204"><ele>526.8</ele><time>2026-05-02T07:24:33Z</time></trkpt><trkpt lat="43.7839662076019" lon="11.737538709952"><ele>528.2</ele><time>2026-05-02T07:24:34Z</time></trkpt><trkpt lat="43.78387118008932" lon="11.737570113699444"><ele>529.6</ele><time>2026-05-02T07:24:35Z</time></trkpt><trkpt lat="43.783770145440855" lon="11.737603938877944"><ele>531.0</ele><time>2026-05-02T07:24:36Z</time></trkpt><trkpt lat="43.78366258989425" lon="11.737639947175474"><ele>531.0</ele><time>2026-05-02T07:24:37Z</time></trkpt><trkpt lat="43.78355746096494" lon="11.7376751430711"><ele>531.0</ele><time>2026-05-02T07:24:38Z</time></trkpt><trkpt lat="43.78345655657168" lon="11.737710857953816"><ele>531.0</ele><time>2026-05-02T07:24:39Z</time></trkpt><trkpt lat="43.78335910907766" lon="11.7377457912999"><ele>531.0</ele><time>2026-05-02T07:24:40Z</time></trkpt><trkpt lat="43.78327575514939" lon="11.737775672333804"><ele>531.0</ele><time>2026-05-02T07:24:41Z</time></trkpt><trkpt lat="43.78321453835276" lon="11.737800650440704"><ele>533.3333333333334</ele><time>2026-05-02T07:24:42Z</time></trkpt><trkpt lat="43.78313799887305" lon="11.737812329138524"><ele>535.6666666666666</ele><time>2026-05-02T07:24:44Z</time></trkpt><trkpt lat="43.783036226234884" lon="11.737783539044084"><ele>538.0</ele><time>2026-05-02T07:24:46Z</time></trkpt><trkpt lat="43.7829576430137" lon="11.737771707629634"><ele>540.3333333333333</ele><time>2026-05-02T07:24:47Z</time></trkpt><trkpt lat="43.78287195280521" lon="11.73778859400454"><ele>542.6666666666666</ele><time>2026-05-02T07:24:48Z</time></trkpt><trkpt lat="43.78278354882588" lon="11.737820168109813"><ele>545.0</ele><time>2026-05-02T07:24:49Z</time></trkpt><trkpt lat="43.782693824102104" lon="11.737859639863423"><ele>545.5</ele><time>2026-05-02T07:24:50Z</time></trkpt><trkpt lat="43.782617392036094" lon="11.737895233516237"><ele>546.0</ele><time>2026-05-02T07:24:51Z</time></trkpt><trkpt lat="43.78254245632537" lon="11.737913439362064"><ele>546.5</ele><time>2026-05-02T07:24:52Z</time></trkpt><trkpt lat="43.78246403120459" lon="11.737917131284766"><ele>547.0</ele><time>2026-05-02T07:24:53Z</time></trkpt><trkpt lat="43.78238657777726" lon="11.737918318557293"><ele>547.5</ele><time>2026-05-02T07:24:54Z</time></trkpt><trkpt lat="43.782297400140386" lon="11.737935784650013"><ele>548.0</ele><time>2026-05-02T07:24:55Z</time></trkpt><trkpt lat="43.782197797982036" lon="11.737915445809923"><ele>548.0</ele><time>2026-05-02T07:24:56Z</time></trkpt><trkpt lat="43.7821029818221" lon="11.73791182176515"><ele>548.0</ele><time>2026-05-02T07:24:57Z</time></trkpt><trkpt lat="43.78201383907443" lon="11.737907681536834"><ele>548.0</ele><time>2026-05-02T07:24:58Z</time></trkpt><trkpt lat="43.78192965071231" lon="11.737901751694714"><ele>548.0</ele><time>2026-05-02T07:24:59Z</time></trkpt><trkpt lat="43.78184748938787" lon="11.737891639810858"><ele>548.0</ele><time>2026-05-02T07:25:00Z</time></trkpt><trkpt lat="43.78177378488255" lon="11.73787441475939"><ele>548.0</ele><time>2026-05-02T07:25:01Z</time></trkpt><trkpt lat="43.781696553228095" lon="11.737871196191143"><ele>548.0</ele><time>2026-05-02T07:25:02Z</time></trkpt><trkpt lat="43.7815961956625" lon="11.737803576020061"><ele>548.0</ele><time>2026-05-02T07:25:04Z</time></trkpt><trkpt lat="43.78155297942538" lon="11.737729663713292"><ele>548.0</ele><time>2026-05-02T07:25:05Z</time></trkpt><trkpt lat="43.78144391034897" lon="11.737700305059668"><ele>548.0</ele><time>2026-05-02T07:25:07Z</time></trkpt><trkpt lat="43.781362285086686" lon="11.73768554660418"><ele>548.0</ele><time>2026-05-02T07:25:09Z</time></trkpt><trkpt lat="43.78124388483072" lon="11.737673574126848"><ele>547.0</ele><time>2026-05-02T07:25:11Z</time></trkpt><trkpt lat="43.78117441447527" lon="11.737670946905528"><ele>546.0</ele><time>2026-05-02T07:25:12Z</time></trkpt><trkpt lat="43.781049568675336" lon="11.73767143119763"><ele>545.0</ele><time>2026-05-02T07:25:14Z</time></trkpt><trkpt lat="43.78095467500853" lon="11.737679322975888"><ele>544.0</ele><time>2026-05-02T07:25:16Z</time></trkpt><trkpt lat="43.78083228875893" lon="11.737690372485634"><ele>543.0</ele><time>2026-05-02T07:25:18Z</time></trkpt><trkpt lat="43.780768213036175" lon="11.737698045692891"><ele>543.0</ele><time>2026-05-02T07:25:19Z</time></trkpt><trkpt lat="43.780704532068405" lon="11.737705490438898"><ele>543.0</ele><time>2026-05-02T07:25:20Z</time></trkpt><trkpt lat="43.78057983486579" lon="11.737725770814038"><ele>543.0</ele><time>2026-05-02T07:25:22Z</time></trkpt><trkpt lat="43.780479175777046" lon="11.737749227558826"><ele>543.0</ele><time>2026-05-02T07:25:24Z</time></trkpt><trkpt lat="43.78039121065112" lon="11.73776596796176"><ele>543.0</ele><time>2026-05-02T07:25:26Z</time></trkpt><trkpt lat="43.78032359278243" lon="11.737776291356562"><ele>543.0</ele><time>2026-05-02T07:25:28Z</time></trkpt><trkpt lat="43.78021983771854" lon="11.737766720424823"><ele>544.75</ele><time>2026-05-02T07:25:30Z</time></trkpt><trkpt lat="43.78011601994967" lon="11.737766720425602"><ele>546.5</ele><time>2026-05-02T07:25:32Z</time></trkpt><trkpt lat="43.78000427569366" lon="11.737585505915748"><ele>548.25</ele><time>2026-05-02T07:25:35Z</time></trkpt><trkpt lat="43.779917177756126" lon="11.737579985604137"><ele>550.0</ele><time>2026-05-02T07:25:37Z</time></trkpt><trkpt lat="43.77955609963144" lon="11.737512004861264"><ele>548.0</ele><time>2026-05-02T07:25:40Z</time></trkpt><trkpt lat="43.779486326575125" lon="11.737530528808886"><ele>546.0</ele><time>2026-05-02T07:25:42Z</time></trkpt><trkpt lat="43.77942207311904" lon="11.737548781301538"><ele>544.0</ele><time>2026-05-02T07:25:43Z</time></trkpt><trkpt lat="43.77934633531612" lon="11.737570296161001"><ele>542.0</ele><time>2026-05-02T07:25:44Z</time></trkpt><trkpt lat="43.77927245979222" lon="11.73759128199669"><ele>540.0</ele><time>2026-05-02T07:25:45Z</time></trkpt><trkpt lat="43.77921010847281" lon="11.737608994164976"><ele>538.0</ele><time>2026-05-02T07:25:46Z</time></trkpt><trkpt lat="43.779136415497135" lon="11.737632459567052"><ele>536.0</ele><time>2026-05-02T07:25:47Z</time></trkpt><trkpt lat="43.77906953118094" lon="11.73765583039381"><ele>534.75</ele><time>2026-05-02T07:25:48Z</time></trkpt><trkpt lat="43.77897424413213" lon="11.737689052868532"><ele>533.5</ele><time>2026-05-02T07:25:50Z</time></trkpt><trkpt lat="43.778912347953096" lon="11.737710633454881"><ele>532.25</ele><time>2026-05-02T07:25:51Z</time></trkpt><trkpt lat="43.77883059617713" lon="11.73773913684598"><ele>531.0</ele><time>2026-05-02T07:25:53Z</time></trkpt><trkpt lat="43.778864247261225" lon="11.73840627412744"><ele>531.4285714285714</ele><time>2026-05-02T07:25:55Z</time></trkpt><trkpt lat="43.77879581606956" lon="11.738391784388051"><ele>531.8571428571429</ele><time>2026-05-02T07:25:56Z</time></trkpt><trkpt lat="43.77871758388744" lon="11.738389432236529"><ele>532.2857142857143</ele><time>2026-05-02T07:25:57Z</time></trkpt><trkpt lat="43.77865441394485" lon="11.738386294596628"><ele>532.7142857142858</ele><time>2026-05-02T07:25:58Z</time></trkpt><trkpt lat="43.7785870373462" lon="11.738398721400834"><ele>533.1428571428571</ele><time>2026-05-02T07:25:59Z</time></trkpt><trkpt lat="43.77851513325316" lon="11.738414651223291"><ele>533.5714285714287</ele><time>2026-05-02T07:26:00Z</time></trkpt><trkpt lat="43.778439185804245" lon="11.738423361953405"><ele>534.0</ele><time>2026-05-02T07:26:01Z</time></trkpt><trkpt lat="43.77835399777807" lon="11.738449848546214"><ele>534.0</ele><time>2026-05-02T07:26:02Z</time></trkpt><trkpt lat="43.77828244698588" lon="11.738479806792954"><ele>534.0</ele><time>2026-05-02T07:26:03Z</time></trkpt><trkpt lat="43.77820151110915" lon="11.738507941286878"><ele>534.0</ele><time>2026-05-02T07:26:04Z</time></trkpt><trkpt lat="43.778136496563036" lon="11.738551826326699"><ele>534.0</ele><time>2026-05-02T07:26:05Z</time></trkpt><trkpt lat="43.77807090586419" lon="11.738593917243133"><ele>534.0</ele><time>2026-05-02T07:26:06Z</time></trkpt><trkpt lat="43.77795261238148" lon="11.738601468718977"><ele>534.0</ele><time>2026-05-02T07:26:08Z</time></trkpt><trkpt lat="43.7778629620056" lon="11.738584841749606"><ele>534.0</ele><time>2026-05-02T07:26:09Z</time></trkpt><trkpt lat="43.77776111796629" lon="11.738585087285486"><ele>534.0</ele><time>2026-05-02T07:26:10Z</time></trkpt><trkpt lat="43.77764951289329" lon="11.738576670239633"><ele>534.0</ele><time>2026-05-02T07:26:11Z</time></trkpt><trkpt lat="43.777557547763294" lon="11.73856189621318"><ele>534.0</ele><time>2026-05-02T07:26:12Z</time></trkpt><trkpt lat="43.77747821611209" lon="11.738555465034816"><ele>534.0</ele><time>2026-05-02T07:26:13Z</time></trkpt><trkpt lat="43.777392008506325" lon="11.738540247944373"><ele>534.0</ele><time>2026-05-02T07:26:14Z</time></trkpt><trkpt lat="43.77730590210542" lon="11.738505842625283"><ele>534.0</ele><time>2026-05-02T07:26:15Z</time></trkpt><trkpt lat="43.77722926042571" lon="11.738485368892196"><ele>534.0</ele><time>2026-05-02T07:26:16Z</time></trkpt><trkpt lat="43.77715132533772" lon="11.738478580801486"><ele>534.0</ele><time>2026-05-02T07:26:17Z</time></trkpt><trkpt lat="43.77707674095421" lon="11.73847029925333"><ele>534.0</ele><time>2026-05-02T07:26:18Z</time></trkpt><trkpt lat="43.77701411987439" lon="11.73845946341082"><ele>534.0</ele><time>2026-05-02T07:26:19Z</time></trkpt><trkpt lat="43.77689733324029" lon="11.738425117654346"><ele>533.6</ele><time>2026-05-02T07:26:21Z</time></trkpt><trkpt lat="43.77677300084362" lon="11.738409790042073"><ele>533.2</ele><time>2026-05-02T07:26:23Z</time></trkpt><trkpt lat="43.77666895754072" lon="11.738395805634829"><ele>532.8000000000001</ele><time>2026-05-02T07:26:25Z</time></trkpt><trkpt lat="43.776604079279984" lon="11.738397359111191"><ele>532.4</ele><time>2026-05-02T07:26:26Z</time></trkpt><trkpt lat="43.77649830786996" lon="11.738388693476946"><ele>532.0</ele><time>2026-05-02T07:26:28Z</time></trkpt><trkpt lat="43.77637392264735" lon="11.738394028922494"><ele>532.0</ele><time>2026-05-02T07:26:30Z</time></trkpt><trkpt lat="43.7763112539534" lon="11.738417443717339"><ele>532.0</ele><time>2026-05-02T07:26:31Z</time></trkpt><trkpt lat="43.776242790355354" lon="11.738447648699706"><ele>532.0</ele><time>2026-05-02T07:26:32Z</time></trkpt><trkpt lat="43.77617582698071" lon="11.738469135755226"><ele>532.0</ele><time>2026-05-02T07:26:33Z</time></trkpt><trkpt lat="43.776109740866616" lon="11.738487619023141"><ele>532.0</ele><time>2026-05-02T07:26:34Z</time></trkpt><trkpt lat="43.77604291286965" lon="11.738501027233841"><ele>532.0</ele><time>2026-05-02T07:26:35Z</time></trkpt><trkpt lat="43.7759788998868" lon="11.73851182014613"><ele>532.0</ele><time>2026-05-02T07:26:36Z</time></trkpt><trkpt lat="43.77586954823647" lon="11.738520501582256"><ele>531.4</ele><time>2026-05-02T07:26:38Z</time></trkpt><trkpt lat="43.7758013094832" lon="11.738546714820359"><ele>530.8000000000001</ele><time>2026-05-02T07:26:40Z</time></trkpt><trkpt lat="43.775684782317775" lon="11.738599889479353"><ele>530.2</ele><time>2026-05-02T07:26:42Z</time></trkpt><trkpt lat="43.77555999755326" lon="11.73868774680448"><ele>529.6</ele><time>2026-05-02T07:26:44Z</time></trkpt><trkpt lat="43.775498255931076" lon="11.738739126791556"><ele>529.0</ele><time>2026-05-02T07:26:45Z</time></trkpt><trkpt lat="43.77539688362718" lon="11.73882443476412"><ele>529.8</ele><time>2026-05-02T07:26:47Z</time></trkpt><trkpt lat="43.77531766670922" lon="11.738911234186428"><ele>530.5999999999999</ele><time>2026-05-02T07:26:49Z</time></trkpt><trkpt lat="43.775251594658606" lon="11.738991280308232"><ele>531.4</ele><time>2026-05-02T07:26:51Z</time></trkpt><trkpt lat="43.775182855534716" lon="11.739085469039788"><ele>532.1999999999999</ele><time>2026-05-02T07:26:53Z</time></trkpt><trkpt lat="43.775120898585804" lon="11.739186616134115"><ele>533.0</ele><time>2026-05-02T07:26:55Z</time></trkpt><trkpt lat="43.775058502202555" lon="11.739283727319334"><ele>533.0</ele><time>2026-05-02T07:26:57Z</time></trkpt><trkpt lat="43.774999712487904" lon="11.73940040781685"><ele>533.0</ele><time>2026-05-02T07:26:59Z</time></trkpt><trkpt lat="43.7749276067217" lon="11.739544843938823"><ele>533.0</ele><time>2026-05-02T07:27:01Z</time></trkpt><trkpt lat="43.77489048044111" lon="11.739629254183109"><ele>533.0</ele><time>2026-05-02T07:27:02Z</time></trkpt><trkpt lat="43.774857434630164" lon="11.739706445863991"><ele>533.0</ele><time>2026-05-02T07:27:03Z</time></trkpt><trkpt lat="43.774796630673194" lon="11.73979452475374"><ele>533.0</ele><time>2026-05-02T07:27:05Z</time></trkpt><trkpt lat="43.77473816234519" lon="11.73986116372819"><ele>533.0</ele><time>2026-05-02T07:27:08Z</time></trkpt><trkpt lat="43.77469987416444" lon="11.739966978447494"><ele>533.0</ele><time>2026-05-02T07:27:10Z</time></trkpt><trkpt lat="43.77470095781493" lon="11.740064226411246"><ele>533.0</ele><time>2026-05-02T07:27:11Z</time></trkpt><trkpt lat="43.7746917732132" lon="11.74017469954993"><ele>533.0</ele><time>2026-05-02T07:27:12Z</time></trkpt><trkpt lat="43.77466819222745" lon="11.7402722330253"><ele>533.0</ele><time>2026-05-02T07:27:13Z</time></trkpt><trkpt lat="43.774646335136545" lon="11.740371838546272"><ele>533.0</ele><time>2026-05-02T07:27:14Z</time></trkpt><trkpt lat="43.774616883220546" lon="11.740470581126276"><ele>533.0</ele><time>2026-05-02T07:27:15Z</time></trkpt><trkpt lat="43.77458816255899" lon="11.740564398039098"><ele>533.0</ele><time>2026-05-02T07:27:16Z</time></trkpt><trkpt lat="43.77455408475755" lon="11.740656017681282"><ele>533.0</ele><time>2026-05-02T07:27:17Z</time></trkpt><trkpt lat="43.774446772636495" lon="11.740765858966084"><ele>533.0</ele><time>2026-05-02T07:27:19Z</time></trkpt><trkpt lat="43.77436986121701" lon="11.740814996482786"><ele>533.0</ele><time>2026-05-02T07:27:20Z</time></trkpt><trkpt lat="43.774287515746195" lon="11.740873231590834"><ele>532.8</ele><time>2026-05-02T07:27:21Z</time></trkpt><trkpt lat="43.77420044514754" lon="11.740944337024862"><ele>532.5999999999999</ele><time>2026-05-02T07:27:22Z</time></trkpt><trkpt lat="43.77410996922981" lon="11.74101215730531"><ele>532.4000000000001</ele><time>2026-05-02T07:27:23Z</time></trkpt><trkpt lat="43.77401329346512" lon="11.741079398540645"><ele>532.2</ele><time>2026-05-02T07:27:24Z</time></trkpt><trkpt lat="43.77391749635425" lon="11.74113922387801"><ele>532.0</ele><time>2026-05-02T07:27:25Z</time></trkpt><trkpt lat="43.773803132960566" lon="11.741205452454675"><ele>532.6</ele><time>2026-05-02T07:27:26Z</time></trkpt><trkpt lat="43.77369898228911" lon="11.74126644581641"><ele>533.2</ele><time>2026-05-02T07:27:27Z</time></trkpt><trkpt lat="43.773602204724774" lon="11.741333636595469"><ele>533.8</ele><time>2026-05-02T07:27:28Z</time></trkpt><trkpt lat="43.773510967897174" lon="11.741372153511858"><ele>534.4</ele><time>2026-05-02T07:27:29Z</time></trkpt><trkpt lat="43.77342469452955" lon="11.741410524151842"><ele>535.0</ele><time>2026-05-02T07:27:30Z</time></trkpt><trkpt lat="43.77334863788056" lon="11.741457696730697"><ele>535.0</ele><time>2026-05-02T07:27:31Z</time></trkpt><trkpt lat="43.77328052120218" lon="11.74148749949489"><ele>535.0</ele><time>2026-05-02T07:27:32Z</time></trkpt><trkpt lat="43.77318106422623" lon="11.741524918845874"><ele>535.0</ele><time>2026-05-02T07:27:34Z</time></trkpt><trkpt lat="43.77310926078954" lon="11.741637974074955"><ele>535.0</ele><time>2026-05-02T07:27:36Z</time></trkpt><trkpt lat="43.77297822816505" lon="11.741716775926838"><ele>535.0</ele><time>2026-05-02T07:27:38Z</time></trkpt><trkpt lat="43.772884297671595" lon="11.741764810815676"><ele>535.0</ele><time>2026-05-02T07:27:39Z</time></trkpt><trkpt lat="43.77278772275245" lon="11.741826877908714"><ele>535.0</ele><time>2026-05-02T07:27:40Z</time></trkpt><trkpt lat="43.77269062673267" lon="11.741884581453444"><ele>535.0</ele><time>2026-05-02T07:27:41Z</time></trkpt><trkpt lat="43.77259855730017" lon="11.741939340408432"><ele>535.0</ele><time>2026-05-02T07:27:42Z</time></trkpt><trkpt lat="43.7725142215584" lon="11.741977789512582"><ele>535.0</ele><time>2026-05-02T07:27:43Z</time></trkpt><trkpt lat="43.77243772468866" lon="11.742043264842057"><ele>535.1666666666667</ele><time>2026-05-02T07:27:44Z</time></trkpt><trkpt lat="43.772378896460836" lon="11.742123407289267"><ele>535.3333333333334</ele><time>2026-05-02T07:27:45Z</time></trkpt><trkpt lat="43.772331265853" lon="11.74222181920642"><ele>535.5</ele><time>2026-05-02T07:27:46Z</time></trkpt><trkpt lat="43.77230346265835" lon="11.742336963788803"><ele>535.6666666666666</ele><time>2026-05-02T07:27:47Z</time></trkpt><trkpt lat="43.77228422435961" lon="11.74245898805995"><ele>535.8333333333333</ele><time>2026-05-02T07:27:48Z</time></trkpt><trkpt lat="43.77226391167583" lon="11.742581515578722"><ele>536.0</ele><time>2026-05-02T07:27:49Z</time></trkpt><trkpt lat="43.77224029861253" lon="11.742669150183819"><ele>537.6</ele><time>2026-05-02T07:27:50Z</time></trkpt><trkpt lat="43.77220560571048" lon="11.742827906187756"><ele>539.2</ele><time>2026-05-02T07:27:52Z</time></trkpt><trkpt lat="43.7721739826277" lon="11.742954456815266"><ele>540.8</ele><time>2026-05-02T07:27:54Z</time></trkpt><trkpt lat="43.77210060878219" lon="11.743048445804497"><ele>542.4</ele><time>2026-05-02T07:27:56Z</time></trkpt><trkpt lat="43.77204013353194" lon="11.743098014913004"><ele>544.0</ele><time>2026-05-02T07:27:57Z</time></trkpt><trkpt lat="43.771981717952904" lon="11.743134773771942"><ele>544.0</ele><time>2026-05-02T07:27:58Z</time></trkpt><trkpt lat="43.77188265730758" lon="11.743204448931321"><ele>544.0</ele><time>2026-05-02T07:28:00Z</time></trkpt><trkpt lat="43.77182243511771" lon="11.743310850723766"><ele>544.0</ele><time>2026-05-02T07:28:02Z</time></trkpt><trkpt lat="43.77179586055135" lon="11.74346746133189"><ele>544.0</ele><time>2026-05-02T07:28:04Z</time></trkpt><trkpt lat="43.77178432964375" lon="11.743589053411583"><ele>544.0</ele><time>2026-05-02T07:28:06Z</time></trkpt><trkpt lat="43.77176462589802" lon="11.743696994544"><ele>541.6</ele><time>2026-05-02T07:28:08Z</time></trkpt><trkpt lat="43.77167848049975" lon="11.743766386082822"><ele>539.2</ele><time>2026-05-02T07:28:10Z</time></trkpt><trkpt lat="43.771582268740055" lon="11.743821562778413"><ele>536.8000000000001</ele><time>2026-05-02T07:28:12Z</time></trkpt><trkpt lat="43.7714829591159" lon="11.743883386606853"><ele>534.4</ele><time>2026-05-02T07:28:14Z</time></trkpt><trkpt lat="43.771361380435444" lon="11.743942845221419"><ele>532.0</ele><time>2026-05-02T07:28:16Z</time></trkpt><trkpt lat="43.77123892287165" lon="11.743961210982906"><ele>532.0</ele><time>2026-05-02T07:28:18Z</time></trkpt><trkpt lat="43.7711597107062" lon="11.743921306171162"><ele>532.0</ele><time>2026-05-02T07:28:19Z</time></trkpt><trkpt lat="43.77108298820316" lon="11.743888998561728"><ele>532.0</ele><time>2026-05-02T07:28:20Z</time></trkpt><trkpt lat="43.77100819784933" lon="11.743870049272697"><ele>532.0</ele><time>2026-05-02T07:28:21Z</time></trkpt><trkpt lat="43.77093453874836" lon="11.743852038138147"><ele>532.0</ele><time>2026-05-02T07:28:22Z</time></trkpt><trkpt lat="43.770872024349" lon="11.743864313236507"><ele>532.0</ele><time>2026-05-02T07:28:23Z</time></trkpt><trkpt lat="43.77079745775865" lon="11.743894983754815"><ele>529.8333333333334</ele><time>2026-05-02T07:28:24Z</time></trkpt><trkpt lat="43.77073358742832" lon="11.743928660641163"><ele>527.6666666666667</ele><time>2026-05-02T07:28:25Z</time></trkpt><trkpt lat="43.77066568246" lon="11.743932717793863"><ele>525.5</ele><time>2026-05-02T07:28:26Z</time></trkpt><trkpt lat="43.770602626064765" lon="11.743911463422744"><ele>523.3333333333334</ele><time>2026-05-02T07:28:27Z</time></trkpt><trkpt lat="43.77050668899006" lon="11.743805887484145"><ele>521.1666666666666</ele><time>2026-05-02T07:28:29Z</time></trkpt><trkpt lat="43.7704616490275" lon="11.74373703870142"><ele>519.0</ele><time>2026-05-02T07:28:30Z</time></trkpt><trkpt lat="43.770411107845334" lon="11.743644591259311"><ele>519.0</ele><time>2026-05-02T07:28:31Z</time></trkpt><trkpt lat="43.770357741832846" lon="11.74358145711107"><ele>519.0</ele><time>2026-05-02T07:28:32Z</time></trkpt><trkpt lat="43.770282053277114" lon="11.743432825170302"><ele>519.0</ele><time>2026-05-02T07:28:34Z</time></trkpt><trkpt lat="43.77024101166306" lon="11.743274402815052"><ele>519.0</ele><time>2026-05-02T07:28:36Z</time></trkpt><trkpt lat="43.77020981835244" lon="11.743143540925105"><ele>519.0</ele><time>2026-05-02T07:28:38Z</time></trkpt><trkpt lat="43.770107485329056" lon="11.74312698326579"><ele>517.0</ele><time>2026-05-02T07:28:40Z</time></trkpt><trkpt lat="43.77002935134483" lon="11.743252635465959"><ele>515.0</ele><time>2026-05-02T07:28:42Z</time></trkpt><trkpt lat="43.770002060831445" lon="11.74339366812293"><ele>513.0</ele><time>2026-05-02T07:28:44Z</time></trkpt><trkpt lat="43.769999937782124" lon="11.743504585746344"><ele>511.0</ele><time>2026-05-02T07:28:45Z</time></trkpt><trkpt lat="43.77003533533314" lon="11.743595896362983"><ele>509.0</ele><time>2026-05-02T07:28:46Z</time></trkpt><trkpt lat="43.77001827056072" lon="11.74373027909723"><ele>508.99999999999994</ele><time>2026-05-02T07:28:48Z</time></trkpt><trkpt lat="43.76993842046519" lon="11.743808413068843"><ele>509.0</ele><time>2026-05-02T07:28:50Z</time></trkpt><trkpt lat="43.76987032517296" lon="11.743829527278526"><ele>509.0</ele><time>2026-05-02T07:28:51Z</time></trkpt><trkpt lat="43.76978213961984" lon="11.743837582077205"><ele>509.0</ele><time>2026-05-02T07:28:52Z</time></trkpt><trkpt lat="43.769705113673744" lon="11.743852915144005"><ele>508.99999999999994</ele><time>2026-05-02T07:28:53Z</time></trkpt><trkpt lat="43.76963231127919" lon="11.743862690083269"><ele>509.0</ele><time>2026-05-02T07:28:54Z</time></trkpt><trkpt lat="43.76956798649827" lon="11.74384176129961"><ele>508.99999999999994</ele><time>2026-05-02T07:28:56Z</time></trkpt><trkpt lat="43.769496502861756" lon="11.743785281367595"><ele>509.0</ele><time>2026-05-02T07:29:01Z</time></trkpt><trkpt lat="43.76945423009685" lon="11.743714131265502"><ele>509.0</ele><time>2026-05-02T07:29:02Z</time></trkpt><trkpt lat="43.76941994828958" lon="11.743634900482354"><ele>509.0</ele><time>2026-05-02T07:29:03Z</time></trkpt><trkpt lat="43.76938525242171" lon="11.743557038932845"><ele>508.99999999999994</ele><time>2026-05-02T07:29:04Z</time></trkpt><trkpt lat="43.769348294124505" lon="11.743475006724942"><ele>509.0</ele><time>2026-05-02T07:29:05Z</time></trkpt><trkpt lat="43.76928688425418" lon="11.743347883367566"><ele>508.2</ele><time>2026-05-02T07:29:07Z</time></trkpt><trkpt lat="43.76922535796855" lon="11.743296720388155"><ele>507.4</ele><time>2026-05-02T07:29:09Z</time></trkpt><trkpt lat="43.76914216818764" lon="11.743328245798553"><ele>506.6</ele><time>2026-05-02T07:29:11Z</time></trkpt><trkpt lat="43.7690775814813" lon="11.743361250905428"><ele>505.8</ele><time>2026-05-02T07:29:13Z</time></trkpt><trkpt lat="43.76903567988425" lon="11.743461169022977"><ele>505.0</ele><time>2026-05-02T07:29:15Z</time></trkpt><trkpt lat="43.76899729925789" lon="11.743648797230083"><ele>505.00000000000006</ele><time>2026-05-02T07:29:17Z</time></trkpt><trkpt lat="43.76897027111479" lon="11.743753973204804"><ele>505.0</ele><time>2026-05-02T07:29:18Z</time></trkpt><trkpt lat="43.768939713327406" lon="11.74386851378872"><ele>505.0</ele><time>2026-05-02T07:29:19Z</time></trkpt><trkpt lat="43.768915678473114" lon="11.743961050616193"><ele>505.0</ele><time>2026-05-02T07:29:20Z</time></trkpt><trkpt lat="43.76888631184699" lon="11.74406648997966"><ele>505.00000000000006</ele><time>2026-05-02T07:29:21Z</time></trkpt><trkpt lat="43.768853032647954" lon="11.744162873240086"><ele>505.0</ele><time>2026-05-02T07:29:22Z</time></trkpt><trkpt lat="43.76882837079399" lon="11.744246245773356"><ele>505.00000000000006</ele><time>2026-05-02T07:29:23Z</time></trkpt><trkpt lat="43.76882256829882" lon="11.744361577981483"><ele>505.0</ele><time>2026-05-02T07:29:25Z</time></trkpt><trkpt lat="43.768856476951065" lon="11.744471260032757"><ele>505.0</ele><time>2026-05-02T07:29:27Z</time></trkpt><trkpt lat="43.76889101795671" lon="11.74456054881611"><ele>505.0</ele><time>2026-05-02T07:29:28Z</time></trkpt><trkpt lat="43.76893809971108" lon="11.744649676226022"><ele>505.00000000000006</ele><time>2026-05-02T07:29:29Z</time></trkpt><trkpt lat="43.76898131065774" lon="11.744719202626209"><ele>505.0</ele><time>2026-05-02T07:29:30Z</time></trkpt><trkpt lat="43.76898374992359" lon="11.74486163906041"><ele>505.8</ele><time>2026-05-02T07:29:32Z</time></trkpt><trkpt lat="43.768948841937046" lon="11.74495646884369"><ele>506.6</ele><time>2026-05-02T07:29:33Z</time></trkpt><trkpt lat="43.768897924361575" lon="11.745061569112568"><ele>507.4</ele><time>2026-05-02T07:29:34Z</time></trkpt><trkpt lat="43.768864768485415" lon="11.745166443639976"><ele>508.2</ele><time>2026-05-02T07:29:35Z</time></trkpt><trkpt lat="43.76882352913247" lon="11.745303125921623"><ele>509.0</ele><time>2026-05-02T07:29:36Z</time></trkpt><trkpt lat="43.76877957623109" lon="11.745450054182609"><ele>510.6</ele><time>2026-05-02T07:29:37Z</time></trkpt><trkpt lat="43.76874402350375" lon="11.745587599940889"><ele>512.2</ele><time>2026-05-02T07:29:38Z</time></trkpt><trkpt lat="43.76870572457576" lon="11.745712359453536"><ele>513.8000000000001</ele><time>2026-05-02T07:29:39Z</time></trkpt><trkpt lat="43.76866295232823" lon="11.745836623151282"><ele>515.4</ele><time>2026-05-02T07:29:40Z</time></trkpt><trkpt lat="43.76861627801313" lon="11.745929939783322"><ele>517.0</ele><time>2026-05-02T07:29:41Z</time></trkpt><trkpt lat="43.76855773053703" lon="11.746031528614635"><ele>515.6666666666667</ele><time>2026-05-02T07:29:42Z</time></trkpt><trkpt lat="43.768501078551616" lon="11.746119536914097"><ele>514.3333333333334</ele><time>2026-05-02T07:29:43Z</time></trkpt><trkpt lat="43.768436297201504" lon="11.74620863066891"><ele>513.0</ele><time>2026-05-02T07:29:44Z</time></trkpt><trkpt lat="43.76837611209155" lon="11.74629443842709"><ele>511.66666666666663</ele><time>2026-05-02T07:29:45Z</time></trkpt><trkpt lat="43.76832494444912" lon="11.746379173827648"><ele>510.3333333333333</ele><time>2026-05-02T07:29:46Z</time></trkpt><trkpt lat="43.76828973343508" lon="11.746463456209202"><ele>509.0</ele><time>2026-05-02T07:29:47Z</time></trkpt><trkpt lat="43.768277878558536" lon="11.746571393508725"><ele>508.99999999999994</ele><time>2026-05-02T07:29:48Z</time></trkpt><trkpt lat="43.7682800632605" lon="11.746673931813428"><ele>509.0</ele><time>2026-05-02T07:29:49Z</time></trkpt><trkpt lat="43.76828442431512" lon="11.746770118146094"><ele>509.0</ele><time>2026-05-02T07:29:50Z</time></trkpt><trkpt lat="43.76832100944235" lon="11.7469074471589"><ele>509.0</ele><time>2026-05-02T07:29:51Z</time></trkpt><trkpt lat="43.76835429505688" lon="11.74703355064381"><ele>508.99999999999994</ele><time>2026-05-02T07:29:52Z</time></trkpt><trkpt lat="43.76836960381482" lon="11.747121183551869"><ele>509.0</ele><time>2026-05-02T07:29:53Z</time></trkpt><trkpt lat="43.7683858348142" lon="11.747234973197235"><ele>509.0</ele><time>2026-05-02T07:29:55Z</time></trkpt><trkpt lat="43.76836218115072" lon="11.747101927919212"><ele>509.0</ele><time>2026-05-02T07:30:08Z</time></trkpt><trkpt lat="43.76834019256236" lon="11.746971193189719"><ele>509.0</ele><time>2026-05-02T07:30:10Z</time></trkpt><trkpt lat="43.76831646679093" lon="11.746840786060375"><ele>509.0</ele><time>2026-05-02T07:30:12Z</time></trkpt><trkpt lat="43.76828445149523" lon="11.74670857745905"><ele>509.0</ele><time>2026-05-02T07:30:14Z</time></trkpt><trkpt lat="43.76828245706743" lon="11.746578464268334"><ele>508.99999999999994</ele><time>2026-05-02T07:30:16Z</time></trkpt><trkpt lat="43.76830407680456" lon="11.746448548184398"><ele>509.0</ele><time>2026-05-02T07:30:18Z</time></trkpt><trkpt lat="43.768363883599534" lon="11.746308403087221"><ele>509.0</ele><time>2026-05-02T07:30:20Z</time></trkpt><trkpt lat="43.76840705809055" lon="11.74623812374852"><ele>509.0</ele><time>2026-05-02T07:30:21Z</time></trkpt><trkpt lat="43.76845176285697" lon="11.746169473903727"><ele>508.99999999999994</ele><time>2026-05-02T07:30:22Z</time></trkpt><trkpt lat="43.76849908771488" lon="11.746101335038686"><ele>509.0</ele><time>2026-05-02T07:30:23Z</time></trkpt><trkpt lat="43.76854275101122" lon="11.746029222778276"><ele>510.3333333333333</ele><time>2026-05-02T07:30:24Z</time></trkpt><trkpt lat="43.768594836228" lon="11.745939112561357"><ele>511.66666666666663</ele><time>2026-05-02T07:30:25Z</time></trkpt><trkpt lat="43.76864490358508" lon="11.74584268348946"><ele>513.0</ele><time>2026-05-02T07:30:26Z</time></trkpt><trkpt lat="43.768686272964146" lon="11.745742584529907"><ele>514.3333333333334</ele><time>2026-05-02T07:30:27Z</time></trkpt><trkpt lat="43.76871515660826" lon="11.74564669066037"><ele>515.6666666666667</ele><time>2026-05-02T07:30:28Z</time></trkpt><trkpt lat="43.76874826547122" lon="11.745530685613776"><ele>517.0</ele><time>2026-05-02T07:30:29Z</time></trkpt><trkpt lat="43.7687816648473" lon="11.745421689727591"><ele>517.0</ele><time>2026-05-02T07:30:30Z</time></trkpt><trkpt lat="43.76880759753614" lon="11.745323521280115"><ele>517.0</ele><time>2026-05-02T07:30:31Z</time></trkpt><trkpt lat="43.76883559747093" lon="11.745220847128383"><ele>517.0</ele><time>2026-05-02T07:30:32Z</time></trkpt><trkpt lat="43.76886221463735" lon="11.745115938389542"><ele>517.0</ele><time>2026-05-02T07:30:33Z</time></trkpt><trkpt lat="43.76889656794042" lon="11.745028617254679"><ele>517.0</ele><time>2026-05-02T07:30:34Z</time></trkpt><trkpt lat="43.768954292896915" lon="11.744882533275659"><ele>517.0</ele><time>2026-05-02T07:30:36Z</time></trkpt><trkpt lat="43.76898397639807" lon="11.744757302565707"><ele>515.4</ele><time>2026-05-02T07:30:38Z</time></trkpt><trkpt lat="43.7689383205226" lon="11.74464053192683"><ele>513.8000000000001</ele><time>2026-05-02T07:30:40Z</time></trkpt><trkpt lat="43.768875174764965" lon="11.74450140868457"><ele>512.2</ele><time>2026-05-02T07:30:42Z</time></trkpt><trkpt lat="43.76882645447996" lon="11.744363859157186"><ele>510.6</ele><time>2026-05-02T07:30:44Z</time></trkpt><trkpt lat="43.768821797332016" lon="11.744266828182537"><ele>509.0</ele><time>2026-05-02T07:30:46Z</time></trkpt><trkpt lat="43.76874720331555" lon="11.744236657585997"><ele>508.3333333333333</ele><time>2026-05-02T07:30:57Z</time></trkpt><trkpt lat="43.76868442134605" lon="11.744278109234722"><ele>507.66666666666663</ele><time>2026-05-02T07:30:59Z</time></trkpt><trkpt lat="43.76861616330507" lon="11.74431503652933"><ele>507.0</ele><time>2026-05-02T07:31:01Z</time></trkpt><trkpt lat="43.76854557908696" lon="11.74435058265778"><ele>506.33333333333337</ele><time>2026-05-02T07:31:03Z</time></trkpt><trkpt lat="43.768467775562435" lon="11.74440030526446"><ele>505.6666666666667</ele><time>2026-05-02T07:31:06Z</time></trkpt><trkpt lat="43.76839135877997" lon="11.744418489590613"><ele>505.0</ele><time>2026-05-02T07:31:09Z</time></trkpt><trkpt lat="43.76831843486064" lon="11.744398064670966"><ele>504.33333333333337</ele><time>2026-05-02T07:31:11Z</time></trkpt><trkpt lat="43.768243970434206" lon="11.74438573743013"><ele>503.6666666666667</ele><time>2026-05-02T07:31:13Z</time></trkpt><trkpt lat="43.768167152300194" lon="11.744398761992358"><ele>503.0</ele><time>2026-05-02T07:31:15Z</time></trkpt><trkpt lat="43.768087203944255" lon="11.744384617314994"><ele>502.33333333333337</ele><time>2026-05-02T07:31:17Z</time></trkpt><trkpt lat="43.768005420490844" lon="11.744404922272631"><ele>501.6666666666667</ele><time>2026-05-02T07:31:19Z</time></trkpt><trkpt lat="43.76790945924626" lon="11.744428205474534"><ele>501.0</ele><time>2026-05-02T07:31:23Z</time></trkpt><trkpt lat="43.767812815766526" lon="11.74446560706374"><ele>501.0</ele><time>2026-05-02T07:31:25Z</time></trkpt><trkpt lat="43.76773132791523" lon="11.744488648692794"><ele>501.0</ele><time>2026-05-02T07:31:27Z</time></trkpt><trkpt lat="43.767636162882745" lon="11.744516159297667"><ele>501.0</ele><time>2026-05-02T07:31:29Z</time></trkpt><trkpt lat="43.767561340659014" lon="11.744566593029619"><ele>501.0</ele><time>2026-05-02T07:31:31Z</time></trkpt><trkpt lat="43.76750688762829" lon="11.744636299535232"><ele>501.0</ele><time>2026-05-02T07:31:33Z</time></trkpt><trkpt lat="43.76746868824876" lon="11.744717648662972"><ele>501.0</ele><time>2026-05-02T07:31:36Z</time></trkpt><trkpt lat="43.76743866341923" lon="11.744813400550001"><ele>500.1666666666667</ele><time>2026-05-02T07:31:38Z</time></trkpt><trkpt lat="43.767375310057915" lon="11.744926596798384"><ele>499.33333333333337</ele><time>2026-05-02T07:31:40Z</time></trkpt><trkpt lat="43.76734850653902" lon="11.745013814862771"><ele>498.5</ele><time>2026-05-02T07:31:42Z</time></trkpt><trkpt lat="43.767275624212786" lon="11.745088692000804"><ele>497.6666666666667</ele><time>2026-05-02T07:31:45Z</time></trkpt><trkpt lat="43.76718784251029" lon="11.745114713863199"><ele>496.83333333333337</ele><time>2026-05-02T07:31:47Z</time></trkpt><trkpt lat="43.76711087648885" lon="11.745162646543108"><ele>496.0</ele><time>2026-05-02T07:31:49Z</time></trkpt><trkpt lat="43.76699780124977" lon="11.745259474798821"><ele>496.0</ele><time>2026-05-02T07:31:51Z</time></trkpt><trkpt lat="43.76692923984559" lon="11.745316721019865"><ele>496.00000000000006</ele><time>2026-05-02T07:31:52Z</time></trkpt><trkpt lat="43.76687037472735" lon="11.74536164251023"><ele>496.0</ele><time>2026-05-02T07:31:53Z</time></trkpt><trkpt lat="43.76680857685986" lon="11.74539074090913"><ele>496.0</ele><time>2026-05-02T07:31:54Z</time></trkpt><trkpt lat="43.76674759150337" lon="11.745414836640853"><ele>496.00000000000006</ele><time>2026-05-02T07:31:55Z</time></trkpt><trkpt lat="43.76668175811485" lon="11.745451460472866"><ele>496.0</ele><time>2026-05-02T07:31:56Z</time></trkpt><trkpt lat="43.76662239337768" lon="11.745481005451703"><ele>496.0</ele><time>2026-05-02T07:31:57Z</time></trkpt><trkpt lat="43.76651324410538" lon="11.745545050185255"><ele>495.83333333333337</ele><time>2026-05-02T07:31:59Z</time></trkpt><trkpt lat="43.76643433017571" lon="11.745602585669833"><ele>495.6666666666667</ele><time>2026-05-02T07:32:01Z</time></trkpt><trkpt lat="43.76636801575941" lon="11.745608520824554"><ele>495.5</ele><time>2026-05-02T07:32:03Z</time></trkpt><trkpt lat="43.766322299246745" lon="11.745531416682857"><ele>495.33333333333337</ele><time>2026-05-02T07:32:05Z</time></trkpt><trkpt lat="43.7663159657187" lon="11.745380966130803"><ele>495.1666666666667</ele><time>2026-05-02T07:32:07Z</time></trkpt><trkpt lat="43.76629556340606" lon="11.745294256209547"><ele>495.0</ele><time>2026-05-02T07:32:08Z</time></trkpt><trkpt lat="43.76626794509246" lon="11.745194315356752"><ele>494.6666666666667</ele><time>2026-05-02T07:32:09Z</time></trkpt><trkpt lat="43.766237423459046" lon="11.745097818740478"><ele>494.33333333333337</ele><time>2026-05-02T07:32:10Z</time></trkpt><trkpt lat="43.766198486806225" lon="11.745003535144651"><ele>494.0</ele><time>2026-05-02T07:32:11Z</time></trkpt><trkpt lat="43.76616195694728" lon="11.744893076810024"><ele>493.6666666666667</ele><time>2026-05-02T07:32:12Z</time></trkpt><trkpt lat="43.76612228814306" lon="11.744754266376535"><ele>493.33333333333337</ele><time>2026-05-02T07:32:13Z</time></trkpt><trkpt lat="43.766077389439616" lon="11.744632425346333"><ele>493.0</ele><time>2026-05-02T07:32:14Z</time></trkpt><trkpt lat="43.76604282787814" lon="11.744533860758871"><ele>492.33333333333337</ele><time>2026-05-02T07:32:15Z</time></trkpt><trkpt lat="43.76600517773811" lon="11.744441254628933"><ele>491.6666666666667</ele><time>2026-05-02T07:32:16Z</time></trkpt><trkpt lat="43.76595337133672" lon="11.744316119510836"><ele>491.0</ele><time>2026-05-02T07:32:18Z</time></trkpt><trkpt lat="43.7659061971959" lon="11.744234593032546"><ele>490.33333333333337</ele><time>2026-05-02T07:32:20Z</time></trkpt><trkpt lat="43.76586375172935" lon="11.744151862335567"><ele>489.6666666666667</ele><time>2026-05-02T07:32:22Z</time></trkpt><trkpt lat="43.76581328370718" lon="11.74406061828039"><ele>489.0</ele><time>2026-05-02T07:32:24Z</time></trkpt><trkpt lat="43.765756515120515" lon="11.74398712416059"><ele>488.8333333333333</ele><time>2026-05-02T07:32:26Z</time></trkpt><trkpt lat="43.765737200865736" lon="11.743877176440884"><ele>488.66666666666663</ele><time>2026-05-02T07:32:28Z</time></trkpt><trkpt lat="43.76571018887199" lon="11.743760628989781"><ele>488.5</ele><time>2026-05-02T07:32:30Z</time></trkpt><trkpt lat="43.76566705931123" lon="11.743676311443334"><ele>488.3333333333333</ele><time>2026-05-02T07:32:32Z</time></trkpt><trkpt lat="43.76563163566208" lon="11.74351699756308"><ele>488.16666666666663</ele><time>2026-05-02T07:32:34Z</time></trkpt><trkpt lat="43.76560950065588" lon="11.743423786463048"><ele>488.0</ele><time>2026-05-02T07:32:35Z</time></trkpt><trkpt lat="43.76558550901024" lon="11.743336838097173"><ele>486.99999999999994</ele><time>2026-05-02T07:32:36Z</time></trkpt><trkpt lat="43.76555956268394" lon="11.743251289831665"><ele>486.0</ele><time>2026-05-02T07:32:37Z</time></trkpt><trkpt lat="43.76553865331904" lon="11.743156179649"><ele>484.99999999999994</ele><time>2026-05-02T07:32:38Z</time></trkpt><trkpt lat="43.765512062368416" lon="11.743047255604775"><ele>483.99999999999994</ele><time>2026-05-02T07:32:39Z</time></trkpt><trkpt lat="43.76548613896431" lon="11.74295054917264"><ele>483.0</ele><time>2026-05-02T07:32:40Z</time></trkpt><trkpt lat="43.765458255901784" lon="11.74284894371661"><ele>481.99999999999994</ele><time>2026-05-02T07:32:41Z</time></trkpt><trkpt lat="43.76543603627299" lon="11.74275134106173"><ele>480.99999999999994</ele><time>2026-05-02T07:32:42Z</time></trkpt><trkpt lat="43.765409538476554" lon="11.742655849683002"><ele>479.5714285714285</ele><time>2026-05-02T07:32:43Z</time></trkpt><trkpt lat="43.765385802720054" lon="11.74255770391002"><ele>478.1428571428571</ele><time>2026-05-02T07:32:44Z</time></trkpt><trkpt lat="43.765367782173485" lon="11.74247026324121"><ele>476.7142857142857</ele><time>2026-05-02T07:32:45Z</time></trkpt><trkpt lat="43.76533538959397" lon="11.742369120035727"><ele>475.2857142857143</ele><time>2026-05-02T07:32:46Z</time></trkpt><trkpt lat="43.7653112640832" lon="11.74226874248861"><ele>473.8571428571429</ele><time>2026-05-02T07:32:47Z</time></trkpt><trkpt lat="43.76528662221066" lon="11.742173840464787"><ele>472.4285714285715</ele><time>2026-05-02T07:32:48Z</time></trkpt><trkpt lat="43.765264410680125" lon="11.74208076223938"><ele>471.00000000000006</ele><time>2026-05-02T07:32:49Z</time></trkpt><trkpt lat="43.76524374432968" lon="11.741992836886268"><ele>471.0</ele><time>2026-05-02T07:32:50Z</time></trkpt><trkpt lat="43.765212143233896" lon="11.74190980351035"><ele>471.0</ele><time>2026-05-02T07:32:51Z</time></trkpt><trkpt lat="43.765156983279454" lon="11.741827521287949"><ele>471.0</ele><time>2026-05-02T07:32:52Z</time></trkpt><trkpt lat="43.76510251158878" lon="11.741740463212404"><ele>471.0</ele><time>2026-05-02T07:32:53Z</time></trkpt><trkpt lat="43.76504415891899" lon="11.741666886570695"><ele>471.0</ele><time>2026-05-02T07:32:54Z</time></trkpt><trkpt lat="43.76497295187568" lon="11.741584677092996"><ele>471.0</ele><time>2026-05-02T07:32:55Z</time></trkpt><trkpt lat="43.76490627878175" lon="11.741499722300409"><ele>469.20000000000005</ele><time>2026-05-02T07:32:56Z</time></trkpt><trkpt lat="43.764842806966875" lon="11.741413493291066"><ele>467.40000000000003</ele><time>2026-05-02T07:32:57Z</time></trkpt><trkpt lat="43.76476672909583" lon="11.741313892396414"><ele>465.6</ele><time>2026-05-02T07:32:58Z</time></trkpt><trkpt lat="43.764699984012864" lon="11.741219915332353"><ele>463.8</ele><time>2026-05-02T07:32:59Z</time></trkpt><trkpt lat="43.76462716120473" lon="11.741123147031042"><ele>462.0</ele><time>2026-05-02T07:33:00Z</time></trkpt><trkpt lat="43.76456221998625" lon="11.741037596300295"><ele>460.5</ele><time>2026-05-02T07:33:01Z</time></trkpt><trkpt lat="43.76451523854065" lon="11.740969523146381"><ele>459.0</ele><time>2026-05-02T07:33:02Z</time></trkpt><trkpt lat="43.76445514340423" lon="11.74088344693517"><ele>457.5</ele><time>2026-05-02T07:33:03Z</time></trkpt><trkpt lat="43.764403950887015" lon="11.740799310034127"><ele>456.0</ele><time>2026-05-02T07:33:04Z</time></trkpt><trkpt lat="43.76432439892626" lon="11.740712863723292"><ele>454.5</ele><time>2026-05-02T07:33:05Z</time></trkpt><trkpt lat="43.76425002745682" lon="11.740666634546313"><ele>453.0</ele><time>2026-05-02T07:33:06Z</time></trkpt><trkpt lat="43.76418114815248" lon="11.740624308360019"><ele>452.5</ele><time>2026-05-02T07:33:07Z</time></trkpt><trkpt lat="43.76410714592646" lon="11.74057085156587"><ele>452.0</ele><time>2026-05-02T07:33:08Z</time></trkpt><trkpt lat="43.76403776232703" lon="11.740511910404626"><ele>451.5</ele><time>2026-05-02T07:33:09Z</time></trkpt><trkpt lat="43.76396365801694" lon="11.740453727412701"><ele>451.0</ele><time>2026-05-02T07:33:10Z</time></trkpt><trkpt lat="43.76389349437851" lon="11.740393657712817"><ele>450.5</ele><time>2026-05-02T07:33:11Z</time></trkpt><trkpt lat="43.76382858982886" lon="11.740335494852545"><ele>450.0</ele><time>2026-05-02T07:33:12Z</time></trkpt><trkpt lat="43.763758773912976" lon="11.740273478898528"><ele>450.00000000000006</ele><time>2026-05-02T07:33:13Z</time></trkpt><trkpt lat="43.76370408897235" lon="11.740219328103072"><ele>450.0</ele><time>2026-05-02T07:33:14Z</time></trkpt><trkpt lat="43.763652027132125" lon="11.740166897832806"><ele>450.00000000000006</ele><time>2026-05-02T07:33:15Z</time></trkpt><trkpt lat="43.76359126299152" lon="11.740110842425128"><ele>450.00000000000006</ele><time>2026-05-02T07:33:16Z</time></trkpt><trkpt lat="43.76353295527438" lon="11.74005612133462"><ele>450.0</ele><time>2026-05-02T07:33:17Z</time></trkpt><trkpt lat="43.7634723683681" lon="11.74000591085594"><ele>450.00000000000006</ele><time>2026-05-02T07:33:18Z</time></trkpt><trkpt lat="43.76340737334277" lon="11.739955968482672"><ele>450.00000000000006</ele><time>2026-05-02T07:33:19Z</time></trkpt><trkpt lat="43.76329566229495" lon="11.7398770731189"><ele>449.0</ele><time>2026-05-02T07:33:21Z</time></trkpt><trkpt lat="43.76322966614001" lon="11.739773736847194"><ele>448.0</ele><time>2026-05-02T07:33:23Z</time></trkpt><trkpt lat="43.76321336446163" lon="11.739896115087955"><ele>447.0</ele><time>2026-05-02T07:33:35Z</time></trkpt><trkpt lat="43.763132106683216" lon="11.739954170441242"><ele>446.0</ele><time>2026-05-02T07:33:37Z</time></trkpt><trkpt lat="43.76303756696359" lon="11.740019682855865"><ele>445.0</ele><time>2026-05-02T07:33:39Z</time></trkpt><trkpt lat="43.76294297378763" lon="11.740094830915924"><ele>445.00000000000006</ele><time>2026-05-02T07:33:41Z</time></trkpt><trkpt lat="43.7628474534009" lon="11.740168960402059"><ele>445.0</ele><time>2026-05-02T07:33:43Z</time></trkpt><trkpt lat="43.76277927513828" lon="11.740220101820615"><ele>445.0</ele><time>2026-05-02T07:33:46Z</time></trkpt><trkpt lat="43.76270912665218" lon="11.74027951766134"><ele>445.0</ele><time>2026-05-02T07:33:50Z</time></trkpt><trkpt lat="43.76265345076737" lon="11.740326310435545"><ele>445.00000000000006</ele><time>2026-05-02T07:33:53Z</time></trkpt><trkpt lat="43.76272075673011" lon="11.740301739715246"><ele>445.0</ele><time>2026-05-02T07:34:50Z</time></trkpt><trkpt lat="43.76279226771515" lon="11.740217937409232"><ele>445.00000000000006</ele><time>2026-05-02T07:34:52Z</time></trkpt><trkpt lat="43.76285395376486" lon="11.740167295750679"><ele>445.0</ele><time>2026-05-02T07:34:53Z</time></trkpt><trkpt lat="43.76291261202963" lon="11.740116697546453"><ele>445.0</ele><time>2026-05-02T07:34:54Z</time></trkpt><trkpt lat="43.76300504635972" lon="11.74004321458748"><ele>445.0</ele><time>2026-05-02T07:34:56Z</time></trkpt><trkpt lat="43.7630868801315" lon="11.739982172894344"><ele>445.00000000000006</ele><time>2026-05-02T07:34:58Z</time></trkpt><trkpt lat="43.76316394509457" lon="11.73992611066426"><ele>445.0</ele><time>2026-05-02T07:35:00Z</time></trkpt><trkpt lat="43.76322558592188" lon="11.739888262723541"><ele>445.0</ele><time>2026-05-02T07:35:02Z</time></trkpt><trkpt lat="43.76320702894695" lon="11.739628299064833"><ele>445.0</ele><time>2026-05-02T07:35:06Z</time></trkpt><trkpt lat="43.7631524146431" lon="11.739479456085142"><ele>445.0</ele><time>2026-05-02T07:35:08Z</time></trkpt><trkpt lat="43.763084139590624" lon="11.739337539516189"><ele>445.0</ele><time>2026-05-02T07:35:10Z</time></trkpt><trkpt lat="43.76303700487793" lon="11.73917259074184"><ele>444.14285714285717</ele><time>2026-05-02T07:35:12Z</time></trkpt><trkpt lat="43.763006341767706" lon="11.739091443816184"><ele>443.2857142857143</ele><time>2026-05-02T07:35:13Z</time></trkpt><trkpt lat="43.76297645478826" lon="11.739012495198873"><ele>442.42857142857144</ele><time>2026-05-02T07:35:14Z</time></trkpt><trkpt lat="43.76294628135035" lon="11.738932789885837"><ele>441.57142857142856</ele><time>2026-05-02T07:35:15Z</time></trkpt><trkpt lat="43.7629125493709" lon="11.738843684427941"><ele>440.71428571428567</ele><time>2026-05-02T07:35:16Z</time></trkpt><trkpt lat="43.76286461111688" lon="11.738765560980363"><ele>439.85714285714283</ele><time>2026-05-02T07:35:17Z</time></trkpt><trkpt lat="43.762832690925194" lon="11.73867812604915"><ele>439.0</ele><time>2026-05-02T07:35:18Z</time></trkpt><trkpt lat="43.76279817053375" lon="11.738587301911794"><ele>437.85714285714283</ele><time>2026-05-02T07:35:19Z</time></trkpt><trkpt lat="43.762764561116896" lon="11.73850215564767"><ele>436.71428571428567</ele><time>2026-05-02T07:35:20Z</time></trkpt><trkpt lat="43.762730515818305" lon="11.738405728079842"><ele>435.57142857142856</ele><time>2026-05-02T07:35:21Z</time></trkpt><trkpt lat="43.76270065333349" lon="11.73832721343483"><ele>434.42857142857144</ele><time>2026-05-02T07:35:22Z</time></trkpt><trkpt lat="43.762666165836094" lon="11.738247596183301"><ele>433.2857142857143</ele><time>2026-05-02T07:35:23Z</time></trkpt><trkpt lat="43.76263463282228" lon="11.738162329440161"><ele>432.14285714285717</ele><time>2026-05-02T07:35:24Z</time></trkpt><trkpt lat="43.76261494261212" lon="11.73805814337258"><ele>431.0</ele><time>2026-05-02T07:35:25Z</time></trkpt><trkpt lat="43.76258229086921" lon="11.737967642696786"><ele>430.2857142857143</ele><time>2026-05-02T07:35:26Z</time></trkpt><trkpt lat="43.76254992732774" lon="11.737877384974222"><ele>429.57142857142856</ele><time>2026-05-02T07:35:27Z</time></trkpt><trkpt lat="43.76251996876418" lon="11.737796222644825"><ele>428.85714285714283</ele><time>2026-05-02T07:35:28Z</time></trkpt><trkpt lat="43.762475504779964" lon="11.737719036278241"><ele>428.1428571428571</ele><time>2026-05-02T07:35:29Z</time></trkpt><trkpt lat="43.76244158603145" lon="11.737639286027399"><ele>427.42857142857144</ele><time>2026-05-02T07:35:30Z</time></trkpt><trkpt lat="43.76239528296535" lon="11.737564029567713"><ele>426.71428571428567</ele><time>2026-05-02T07:35:31Z</time></trkpt><trkpt lat="43.762357022356184" lon="11.73746575876239"><ele>426.0</ele><time>2026-05-02T07:35:32Z</time></trkpt><trkpt lat="43.762314281516915" lon="11.737380308570016"><ele>425.5</ele><time>2026-05-02T07:35:33Z</time></trkpt><trkpt lat="43.76226110596086" lon="11.737306050590949"><ele>425.0</ele><time>2026-05-02T07:35:34Z</time></trkpt><trkpt lat="43.76221543436182" lon="11.737204121323598"><ele>424.5</ele><time>2026-05-02T07:35:35Z</time></trkpt><trkpt lat="43.76216174389267" lon="11.737097558534359"><ele>424.0</ele><time>2026-05-02T07:35:36Z</time></trkpt><trkpt lat="43.76212505579248" lon="11.736994280617855"><ele>423.5</ele><time>2026-05-02T07:35:37Z</time></trkpt><trkpt lat="43.76206019623409" lon="11.736893606976434"><ele>423.0</ele><time>2026-05-02T07:35:38Z</time></trkpt><trkpt lat="43.76201177495954" lon="11.736797517509867"><ele>421.59999999999997</ele><time>2026-05-02T07:35:39Z</time></trkpt><trkpt lat="43.761972477662034" lon="11.73668278521933"><ele>420.2</ele><time>2026-05-02T07:35:40Z</time></trkpt><trkpt lat="43.761912638793014" lon="11.73660112828921"><ele>418.8</ele><time>2026-05-02T07:35:41Z</time></trkpt><trkpt lat="43.761866780005064" lon="11.736471138266655"><ele>417.4</ele><time>2026-05-02T07:35:42Z</time></trkpt><trkpt lat="43.76181821343948" lon="11.736374861603354"><ele>416.0</ele><time>2026-05-02T07:35:43Z</time></trkpt><trkpt lat="43.761765873862274" lon="11.736271105442379"><ele>415.0</ele><time>2026-05-02T07:35:44Z</time></trkpt><trkpt lat="43.761700059554116" lon="11.73618049773005"><ele>414.0</ele><time>2026-05-02T07:35:45Z</time></trkpt><trkpt lat="43.7616428386635" lon="11.736065711274474"><ele>413.0</ele><time>2026-05-02T07:35:46Z</time></trkpt><trkpt lat="43.76159064881212" lon="11.73596293447915"><ele>412.0</ele><time>2026-05-02T07:35:47Z</time></trkpt><trkpt lat="43.76153524150893" lon="11.735857347303119"><ele>411.0</ele><time>2026-05-02T07:35:48Z</time></trkpt><trkpt lat="43.761482662349856" lon="11.735751375754981"><ele>410.20000000000005</ele><time>2026-05-02T07:35:49Z</time></trkpt><trkpt lat="43.761445399558646" lon="11.735634078316854"><ele>409.40000000000003</ele><time>2026-05-02T07:35:50Z</time></trkpt><trkpt lat="43.76137898579111" lon="11.73553552473881"><ele>408.6</ele><time>2026-05-02T07:35:51Z</time></trkpt><trkpt lat="43.76133151592349" lon="11.73542491647046"><ele>407.8</ele><time>2026-05-02T07:35:52Z</time></trkpt><trkpt lat="43.76128383268413" lon="11.735332974220508"><ele>407.0</ele><time>2026-05-02T07:35:53Z</time></trkpt><trkpt lat="43.761234475049164" lon="11.735206480094694"><ele>405.6</ele><time>2026-05-02T07:35:54Z</time></trkpt><trkpt lat="43.76117868146441" lon="11.735096378326048"><ele>404.20000000000005</ele><time>2026-05-02T07:35:55Z</time></trkpt><trkpt lat="43.761115664321125" lon="11.73499890555102"><ele>402.8</ele><time>2026-05-02T07:35:56Z</time></trkpt><trkpt lat="43.76106518657343" lon="11.734903739494593"><ele>401.4</ele><time>2026-05-02T07:35:57Z</time></trkpt><trkpt lat="43.7610142973244" lon="11.734789308188411"><ele>400.0</ele><time>2026-05-02T07:35:58Z</time></trkpt><trkpt lat="43.76096135020181" lon="11.73467146625487"><ele>399.33333333333337</ele><time>2026-05-02T07:35:59Z</time></trkpt><trkpt lat="43.76090447009513" lon="11.73457142521134"><ele>398.6666666666667</ele><time>2026-05-02T07:36:00Z</time></trkpt><trkpt lat="43.760851700834195" lon="11.734480679419173"><ele>398.0</ele><time>2026-05-02T07:36:01Z</time></trkpt><trkpt lat="43.76080463946811" lon="11.734392611165989"><ele>397.33333333333337</ele><time>2026-05-02T07:36:02Z</time></trkpt><trkpt lat="43.760764271037694" lon="11.734318397686744"><ele>396.6666666666667</ele><time>2026-05-02T07:36:03Z</time></trkpt><trkpt lat="43.760711788979066" lon="11.734230841746761"><ele>396.0</ele><time>2026-05-02T07:36:05Z</time></trkpt><trkpt lat="43.760672938831604" lon="11.734140374410936"><ele>396.0</ele><time>2026-05-02T07:36:08Z</time></trkpt><trkpt lat="43.760529973344454" lon="11.734259375035615"><ele>396.0</ele><time>2026-05-02T07:36:10Z</time></trkpt><trkpt lat="43.76046445404254" lon="11.734337237058472"><ele>396.0</ele><time>2026-05-02T07:36:11Z</time></trkpt><trkpt lat="43.760386579908605" lon="11.734415066187669"><ele>396.0</ele><time>2026-05-02T07:36:12Z</time></trkpt><trkpt lat="43.760295337199224" lon="11.734483467320244"><ele>396.0</ele><time>2026-05-02T07:36:13Z</time></trkpt><trkpt lat="43.76020211380029" lon="11.734551502015464"><ele>396.0</ele><time>2026-05-02T07:36:14Z</time></trkpt><trkpt lat="43.76010395470711" lon="11.734613992127057"><ele>396.0</ele><time>2026-05-02T07:36:15Z</time></trkpt><trkpt lat="43.760003900194135" lon="11.734680922700159"><ele>396.0</ele><time>2026-05-02T07:36:16Z</time></trkpt><trkpt lat="43.75989911200238" lon="11.73473406632432"><ele>396.0</ele><time>2026-05-02T07:36:17Z</time></trkpt><trkpt lat="43.75979715947301" lon="11.734793462835217"><ele>394.8</ele><time>2026-05-02T07:36:18Z</time></trkpt><trkpt lat="43.75969647404328" lon="11.734850827666722"><ele>393.6</ele><time>2026-05-02T07:36:19Z</time></trkpt><trkpt lat="43.75959836473799" lon="11.734908374881632"><ele>392.4</ele><time>2026-05-02T07:36:20Z</time></trkpt><trkpt lat="43.75949883367152" lon="11.73496771822383"><ele>391.2</ele><time>2026-05-02T07:36:21Z</time></trkpt><trkpt lat="43.759396064711154" lon="11.735028560291113"><ele>390.0</ele><time>2026-05-02T07:36:22Z</time></trkpt><trkpt lat="43.759293992125954" lon="11.73508897259928"><ele>389.4</ele><time>2026-05-02T07:36:23Z</time></trkpt><trkpt lat="43.75919574434649" lon="11.73514445047216"><ele>388.8</ele><time>2026-05-02T07:36:24Z</time></trkpt><trkpt lat="43.75910184496115" lon="11.735196395670371"><ele>388.20000000000005</ele><time>2026-05-02T07:36:25Z</time></trkpt><trkpt lat="43.75901070997306" lon="11.73525432600889"><ele>387.6</ele><time>2026-05-02T07:36:26Z</time></trkpt><trkpt lat="43.7589230996911" lon="11.735308904425137"><ele>387.0</ele><time>2026-05-02T07:36:27Z</time></trkpt><trkpt lat="43.75883596431111" lon="11.735364393664568"><ele>386.8333333333333</ele><time>2026-05-02T07:36:28Z</time></trkpt><trkpt lat="43.75875449951267" lon="11.735414506441707"><ele>386.66666666666663</ele><time>2026-05-02T07:36:29Z</time></trkpt><trkpt lat="43.75868018960029" lon="11.73545580408071"><ele>386.5</ele><time>2026-05-02T07:36:30Z</time></trkpt><trkpt lat="43.75862338248492" lon="11.735509547487945"><ele>386.3333333333333</ele><time>2026-05-02T07:36:31Z</time></trkpt><trkpt lat="43.75857975736089" lon="11.73561911331597"><ele>386.16666666666663</ele><time>2026-05-02T07:36:33Z</time></trkpt><trkpt lat="43.75862277160988" lon="11.735762239255408"><ele>386.0</ele><time>2026-05-02T07:36:35Z</time></trkpt><trkpt lat="43.75867439362693" lon="11.735860533166917"><ele>386.0</ele><time>2026-05-02T07:36:36Z</time></trkpt><trkpt lat="43.758728914981674" lon="11.73596004332787"><ele>386.0</ele><time>2026-05-02T07:36:37Z</time></trkpt><trkpt lat="43.75878725774018" lon="11.736067602946548"><ele>386.0</ele><time>2026-05-02T07:36:38Z</time></trkpt><trkpt lat="43.75884050003091" lon="11.736178393538621"><ele>386.0</ele><time>2026-05-02T07:36:39Z</time></trkpt><trkpt lat="43.75889306142532" lon="11.736282137204123"><ele>386.0</ele><time>2026-05-02T07:36:40Z</time></trkpt><trkpt lat="43.75894348612645" lon="11.736395170954486"><ele>386.4</ele><time>2026-05-02T07:36:41Z</time></trkpt><trkpt lat="43.75900222991225" lon="11.736503102802075"><ele>386.8</ele><time>2026-05-02T07:36:42Z</time></trkpt><trkpt lat="43.759047825149466" lon="11.736608980473065"><ele>387.2</ele><time>2026-05-02T07:36:43Z</time></trkpt><trkpt lat="43.759094328605734" lon="11.736718612105326"><ele>387.59999999999997</ele><time>2026-05-02T07:36:44Z</time></trkpt><trkpt lat="43.759141989077094" lon="11.736829250068409"><ele>388.0</ele><time>2026-05-02T07:36:45Z</time></trkpt><trkpt lat="43.75919868628296" lon="11.736937220748107"><ele>389.59999999999997</ele><time>2026-05-02T07:36:46Z</time></trkpt><trkpt lat="43.75925252367862" lon="11.737040765904172"><ele>391.2</ele><time>2026-05-02T07:36:47Z</time></trkpt><trkpt lat="43.75929789107711" lon="11.737153223112696"><ele>392.8</ele><time>2026-05-02T07:36:48Z</time></trkpt><trkpt lat="43.759359844386836" lon="11.737252947631033"><ele>394.4</ele><time>2026-05-02T07:36:49Z</time></trkpt><trkpt lat="43.759406813733456" lon="11.737357475454315"><ele>396.0</ele><time>2026-05-02T07:36:50Z</time></trkpt><trkpt lat="43.75945818231242" lon="11.737448088896416"><ele>396.8333333333333</ele><time>2026-05-02T07:36:51Z</time></trkpt><trkpt lat="43.759501031840976" lon="11.737534382490443"><ele>397.66666666666663</ele><time>2026-05-02T07:36:52Z</time></trkpt><trkpt lat="43.75952285635281" lon="11.737621872269978"><ele>398.5</ele><time>2026-05-02T07:36:53Z</time></trkpt><trkpt lat="43.75950794929013" lon="11.7377134662957"><ele>399.3333333333333</ele><time>2026-05-02T07:36:54Z</time></trkpt><trkpt lat="43.759437165447025" lon="11.737769093565214"><ele>400.16666666666663</ele><time>2026-05-02T07:36:55Z</time></trkpt><trkpt lat="43.759366610501246" lon="11.737835518103449"><ele>401.0</ele><time>2026-05-02T07:36:56Z</time></trkpt><trkpt lat="43.75929098023125" lon="11.737924033892366"><ele>401.0</ele><time>2026-05-02T07:36:57Z</time></trkpt><trkpt lat="43.75921398109515" lon="11.738016248775683"><ele>401.0</ele><time>2026-05-02T07:36:58Z</time></trkpt><trkpt lat="43.759156543801645" lon="11.738142788553386"><ele>401.0</ele><time>2026-05-02T07:36:59Z</time></trkpt><trkpt lat="43.75912368379213" lon="11.738280470961927"><ele>401.0</ele><time>2026-05-02T07:37:00Z</time></trkpt><trkpt lat="43.75908185391518" lon="11.738407116658225"><ele>401.0</ele><time>2026-05-02T07:37:01Z</time></trkpt><trkpt lat="43.75904244906059" lon="11.738539078704692"><ele>402.0</ele><time>2026-05-02T07:37:02Z</time></trkpt><trkpt lat="43.75898992164546" lon="11.73866046705143"><ele>403.0</ele><time>2026-05-02T07:37:03Z</time></trkpt><trkpt lat="43.75898513629421" lon="11.738807280531557"><ele>404.0</ele><time>2026-05-02T07:37:04Z</time></trkpt><trkpt lat="43.75897312462498" lon="11.738957599448613"><ele>405.0</ele><time>2026-05-02T07:37:05Z</time></trkpt><trkpt lat="43.758964679710026" lon="11.73910755885262"><ele>406.0</ele><time>2026-05-02T07:37:06Z</time></trkpt><trkpt lat="43.758963046028036" lon="11.73925660813017"><ele>407.4</ele><time>2026-05-02T07:37:07Z</time></trkpt><trkpt lat="43.758947543888624" lon="11.739394797735567"><ele>408.8</ele><time>2026-05-02T07:37:08Z</time></trkpt><trkpt lat="43.75891612052345" lon="11.73952405396568"><ele>410.2</ele><time>2026-05-02T07:37:09Z</time></trkpt><trkpt lat="43.75890579936718" lon="11.739644202652599"><ele>411.59999999999997</ele><time>2026-05-02T07:37:10Z</time></trkpt><trkpt lat="43.75882942699728" lon="11.739726073637046"><ele>413.0</ele><time>2026-05-02T07:37:11Z</time></trkpt><trkpt lat="43.75874446320408" lon="11.739779498180813"><ele>413.0</ele><time>2026-05-02T07:37:12Z</time></trkpt><trkpt lat="43.75864842391687" lon="11.73985852700218"><ele>413.0</ele><time>2026-05-02T07:37:13Z</time></trkpt><trkpt lat="43.75854908946827" lon="11.73994597742469"><ele>413.0</ele><time>2026-05-02T07:37:14Z</time></trkpt><trkpt lat="43.75845261740112" lon="11.740040432773654"><ele>413.0</ele><time>2026-05-02T07:37:15Z</time></trkpt><trkpt lat="43.75836618537161" lon="11.740155174020336"><ele>413.66666666666663</ele><time>2026-05-02T07:37:16Z</time></trkpt><trkpt lat="43.75827665470488" lon="11.740230590879657"><ele>414.3333333333333</ele><time>2026-05-02T07:37:17Z</time></trkpt><trkpt lat="43.758207159989354" lon="11.740307670331658"><ele>415.0</ele><time>2026-05-02T07:37:18Z</time></trkpt><trkpt lat="43.75814819673921" lon="11.74036933898476"><ele>415.66666666666663</ele><time>2026-05-02T07:37:19Z</time></trkpt><trkpt lat="43.75809560693622" lon="11.740417377086484"><ele>416.3333333333333</ele><time>2026-05-02T07:37:20Z</time></trkpt><trkpt lat="43.7580737904486" lon="11.740504198496607"><ele>417.0</ele><time>2026-05-02T07:37:21Z</time></trkpt><trkpt lat="43.758103404223554" lon="11.7406181015526"><ele>417.0</ele><time>2026-05-02T07:37:22Z</time></trkpt><trkpt lat="43.7581935371224" lon="11.740700654269933"><ele>417.0</ele><time>2026-05-02T07:37:23Z</time></trkpt><trkpt lat="43.758275604181335" lon="11.740794393333127"><ele>417.0</ele><time>2026-05-02T07:37:24Z</time></trkpt><trkpt lat="43.758357391112334" lon="11.740887599216624"><ele>417.0</ele><time>2026-05-02T07:37:25Z</time></trkpt><trkpt lat="43.75844464013529" lon="11.741004933293215"><ele>417.0</ele><time>2026-05-02T07:37:26Z</time></trkpt><trkpt lat="43.75852420847595" lon="11.74112674024613"><ele>419.25</ele><time>2026-05-02T07:37:27Z</time></trkpt><trkpt lat="43.75860655347997" lon="11.741242376803452"><ele>421.5</ele><time>2026-05-02T07:37:28Z</time></trkpt><trkpt lat="43.75868911363821" lon="11.74135427847883"><ele>423.75</ele><time>2026-05-02T07:37:29Z</time></trkpt><trkpt lat="43.758764692071246" lon="11.741468975278277"><ele>426.0</ele><time>2026-05-02T07:37:30Z</time></trkpt><trkpt lat="43.7588419494629" lon="11.74157903150465"><ele>426.0</ele><time>2026-05-02T07:37:31Z</time></trkpt><trkpt lat="43.75891900782687" lon="11.741697715856372"><ele>426.0</ele><time>2026-05-02T07:37:32Z</time></trkpt><trkpt lat="43.75899966020611" lon="11.74182181708902"><ele>426.0</ele><time>2026-05-02T07:37:33Z</time></trkpt><trkpt lat="43.75908444273984" lon="11.741942946241887"><ele>426.0</ele><time>2026-05-02T07:37:34Z</time></trkpt><trkpt lat="43.75916731688212" lon="11.74206029376486"><ele>427.75</ele><time>2026-05-02T07:37:35Z</time></trkpt><trkpt lat="43.759255396670035" lon="11.742188130800715"><ele>429.5</ele><time>2026-05-02T07:37:36Z</time></trkpt><trkpt lat="43.75934928705528" lon="11.742320828945418"><ele>431.25</ele><time>2026-05-02T07:37:37Z</time></trkpt><trkpt lat="43.75944146457641" lon="11.742450668012836"><ele>433.0</ele><time>2026-05-02T07:37:38Z</time></trkpt><trkpt lat="43.75953410682894" lon="11.742580306063557"><ele>433.75</ele><time>2026-05-02T07:37:39Z</time></trkpt><trkpt lat="43.759618178394476" lon="11.74270066040186"><ele>434.5</ele><time>2026-05-02T07:37:40Z</time></trkpt><trkpt lat="43.75970243313683" lon="11.74282097469207"><ele>435.25</ele><time>2026-05-02T07:37:41Z</time></trkpt><trkpt lat="43.7597804703818" lon="11.742943094962348"><ele>436.0</ele><time>2026-05-02T07:37:42Z</time></trkpt><trkpt lat="43.75985815325276" lon="11.743064794378652"><ele>437.5</ele><time>2026-05-02T07:37:43Z</time></trkpt><trkpt lat="43.75994110092165" lon="11.743187342510003"><ele>439.0</ele><time>2026-05-02T07:37:44Z</time></trkpt><trkpt lat="43.76002346496266" lon="11.743305096459492"><ele>440.5</ele><time>2026-05-02T07:37:45Z</time></trkpt><trkpt lat="43.7601055729266" lon="11.743422038085358"><ele>442.0</ele><time>2026-05-02T07:37:46Z</time></trkpt><trkpt lat="43.76018063220726" lon="11.74354320878069"><ele>444.0</ele><time>2026-05-02T07:37:47Z</time></trkpt><trkpt lat="43.7602309680882" lon="11.7436908477943"><ele>446.00000000000006</ele><time>2026-05-02T07:37:48Z</time></trkpt><trkpt lat="43.76028186674409" lon="11.743834484940164"><ele>448.00000000000006</ele><time>2026-05-02T07:37:49Z</time></trkpt><trkpt lat="43.760345799008064" lon="11.743960593938796"><ele>450.0</ele><time>2026-05-02T07:37:50Z</time></trkpt><trkpt lat="43.760400073663206" lon="11.744076586502706"><ele>452.0</ele><time>2026-05-02T07:37:51Z</time></trkpt><trkpt lat="43.76045925165131" lon="11.744154394650419"><ele>452.0</ele><time>2026-05-02T07:37:52Z</time></trkpt><trkpt lat="43.760526935065364" lon="11.744209431085737"><ele>452.00000000000006</ele><time>2026-05-02T07:37:53Z</time></trkpt><trkpt lat="43.76059686584592" lon="11.744263929550755"><ele>452.00000000000006</ele><time>2026-05-02T07:37:54Z</time></trkpt><trkpt lat="43.76068579032588" lon="11.744320804907685"><ele>452.0</ele><time>2026-05-02T07:37:56Z</time></trkpt><trkpt lat="43.76057713477238" lon="11.744449676278007"><ele>452.0</ele><time>2026-05-02T07:37:59Z</time></trkpt><trkpt lat="43.76052858583957" lon="11.744553853730475"><ele>453.40000000000003</ele><time>2026-05-02T07:38:06Z</time></trkpt><trkpt lat="43.76048495316524" lon="11.744645780020011"><ele>454.80000000000007</ele><time>2026-05-02T07:38:08Z</time></trkpt><trkpt lat="43.76043952479329" lon="11.744741489518296"><ele>456.2</ele><time>2026-05-02T07:38:10Z</time></trkpt><trkpt lat="43.7603836437684" lon="11.744850580719532"><ele>457.6</ele><time>2026-05-02T07:38:12Z</time></trkpt><trkpt lat="43.760322266520866" lon="11.744963645720834"><ele>459.0</ele><time>2026-05-02T07:38:14Z</time></trkpt><trkpt lat="43.76026433142771" lon="11.745063179969069"><ele>459.0</ele><time>2026-05-02T07:38:16Z</time></trkpt><trkpt lat="43.76021887365179" lon="11.74514023044031"><ele>459.0</ele><time>2026-05-02T07:38:18Z</time></trkpt><trkpt lat="43.76016669628246" lon="11.745226379841919"><ele>459.0</ele><time>2026-05-02T07:38:20Z</time></trkpt><trkpt lat="43.76011487947279" lon="11.745311933933376"><ele>459.0</ele><time>2026-05-02T07:38:22Z</time></trkpt><trkpt lat="43.760055866988026" lon="11.745409368710776"><ele>459.0</ele><time>2026-05-02T07:38:25Z</time></trkpt><trkpt lat="43.760014597112054" lon="11.745512734411244"><ele>459.0</ele><time>2026-05-02T07:38:27Z</time></trkpt><trkpt lat="43.75994475638505" lon="11.745595406384343"><ele>459.2</ele><time>2026-05-02T07:38:29Z</time></trkpt><trkpt lat="43.75988017764613" lon="11.74570695065254"><ele>459.4</ele><time>2026-05-02T07:38:31Z</time></trkpt><trkpt lat="43.759828384863106" lon="11.74583180734967"><ele>459.6</ele><time>2026-05-02T07:38:33Z</time></trkpt><trkpt lat="43.75976890676939" lon="11.745941286475308"><ele>459.8</ele><time>2026-05-02T07:38:35Z</time></trkpt><trkpt lat="43.759690219817436" lon="11.746052381702842"><ele>460.0</ele><time>2026-05-02T07:38:37Z</time></trkpt><trkpt lat="43.75962334881461" lon="11.746175166353725"><ele>460.4</ele><time>2026-05-02T07:38:39Z</time></trkpt><trkpt lat="43.75955853515196" lon="11.74631379443818"><ele>460.8</ele><time>2026-05-02T07:38:41Z</time></trkpt><trkpt lat="43.75949389525069" lon="11.746433440763642"><ele>461.20000000000005</ele><time>2026-05-02T07:38:43Z</time></trkpt><trkpt lat="43.75944199671055" lon="11.746524034697705"><ele>461.6</ele><time>2026-05-02T07:38:45Z</time></trkpt><trkpt lat="43.759395176859734" lon="11.74660709174949"><ele>462.0</ele><time>2026-05-02T07:38:47Z</time></trkpt><trkpt lat="43.75934260924596" lon="11.746686021481194"><ele>462.0</ele><time>2026-05-02T07:38:49Z</time></trkpt><trkpt lat="43.759289973852106" lon="11.746764999942243"><ele>462.0</ele><time>2026-05-02T07:38:51Z</time></trkpt><trkpt lat="43.759235994065605" lon="11.746850938047245"><ele>462.0</ele><time>2026-05-02T07:38:53Z</time></trkpt><trkpt lat="43.75919562406196" lon="11.746956750668197"><ele>462.0</ele><time>2026-05-02T07:38:55Z</time></trkpt><trkpt lat="43.75915577386632" lon="11.747042717862369"><ele>462.0</ele><time>2026-05-02T07:38:57Z</time></trkpt><trkpt lat="43.75910934934134" lon="11.747133332068163"><ele>462.0</ele><time>2026-05-02T07:38:59Z</time></trkpt><trkpt lat="43.75907160539361" lon="11.747224593556098"><ele>462.40000000000003</ele><time>2026-05-02T07:39:01Z</time></trkpt><trkpt lat="43.75903065881437" lon="11.747323599044854"><ele>462.80000000000007</ele><time>2026-05-02T07:39:03Z</time></trkpt><trkpt lat="43.75896723800433" lon="11.747379500064186"><ele>463.2</ele><time>2026-05-02T07:39:05Z</time></trkpt><trkpt lat="43.75888633966339" lon="11.747483029437047"><ele>463.6</ele><time>2026-05-02T07:39:07Z</time></trkpt><trkpt lat="43.758810762976" lon="11.747616070869167"><ele>464.0</ele><time>2026-05-02T07:39:09Z</time></trkpt><trkpt lat="43.7587785188441" lon="11.747698991557217"><ele>464.3333333333333</ele><time>2026-05-02T07:39:10Z</time></trkpt><trkpt lat="43.75873667470277" lon="11.747812501827749"><ele>464.66666666666663</ele><time>2026-05-02T07:39:12Z</time></trkpt><trkpt lat="43.75870843602889" lon="11.747932137014338"><ele>465.0</ele><time>2026-05-02T07:39:15Z</time></trkpt><trkpt lat="43.75865096742533" lon="11.748017907191693"><ele>465.33333333333337</ele><time>2026-05-02T07:39:17Z</time></trkpt><trkpt lat="43.75862595852174" lon="11.748105598196918"><ele>465.6666666666667</ele><time>2026-05-02T07:39:18Z</time></trkpt><trkpt lat="43.758569527410394" lon="11.748200956697792"><ele>466.0</ele><time>2026-05-02T07:39:19Z</time></trkpt><trkpt lat="43.75851658746525" lon="11.748317126828464"><ele>465.50000000000006</ele><time>2026-05-02T07:39:20Z</time></trkpt><trkpt lat="43.75846958369901" lon="11.748406682726149"><ele>465.0</ele><time>2026-05-02T07:39:21Z</time></trkpt><trkpt lat="43.75842052871827" lon="11.748504376873667"><ele>464.5</ele><time>2026-05-02T07:39:22Z</time></trkpt><trkpt lat="43.75837505016652" lon="11.748600915331254"><ele>464.0</ele><time>2026-05-02T07:39:23Z</time></trkpt><trkpt lat="43.75831420206967" lon="11.748683433967601"><ele>463.50000000000006</ele><time>2026-05-02T07:39:24Z</time></trkpt><trkpt lat="43.75828294937246" lon="11.748783666647988"><ele>463.0</ele><time>2026-05-02T07:39:25Z</time></trkpt><trkpt lat="43.75822761110773" lon="11.748884513765956"><ele>463.0</ele><time>2026-05-02T07:39:26Z</time></trkpt><trkpt lat="43.75817243836103" lon="11.748983122801379"><ele>462.99999999999994</ele><time>2026-05-02T07:39:27Z</time></trkpt><trkpt lat="43.75811630523148" lon="11.749095957695024"><ele>462.99999999999994</ele><time>2026-05-02T07:39:28Z</time></trkpt><trkpt lat="43.75806054214107" lon="11.749214661284022"><ele>463.0</ele><time>2026-05-02T07:39:29Z</time></trkpt><trkpt lat="43.758007475264876" lon="11.749326195294152"><ele>463.0</ele><time>2026-05-02T07:39:30Z</time></trkpt><trkpt lat="43.75796105338163" lon="11.749428138049273"><ele>464.50000000000006</ele><time>2026-05-02T07:39:31Z</time></trkpt><trkpt lat="43.757924170970945" lon="11.749532479697955"><ele>466.0</ele><time>2026-05-02T07:39:32Z</time></trkpt><trkpt lat="43.75790202737829" lon="11.749627853403762"><ele>467.5</ele><time>2026-05-02T07:39:33Z</time></trkpt><trkpt lat="43.75789122607785" lon="11.749731833978343"><ele>469.0</ele><time>2026-05-02T07:39:34Z</time></trkpt><trkpt lat="43.75789656188183" lon="11.749826177664342"><ele>470.50000000000006</ele><time>2026-05-02T07:39:35Z</time></trkpt><trkpt lat="43.7579133781645" lon="11.749924032794814"><ele>472.0</ele><time>2026-05-02T07:39:36Z</time></trkpt><trkpt lat="43.75793416679018" lon="11.750037943908179"><ele>472.0</ele><time>2026-05-02T07:39:37Z</time></trkpt><trkpt lat="43.75797266714144" lon="11.750134122956466"><ele>472.00000000000006</ele><time>2026-05-02T07:39:38Z</time></trkpt><trkpt lat="43.75799334871117" lon="11.750237102627368"><ele>472.00000000000006</ele><time>2026-05-02T07:39:39Z</time></trkpt><trkpt lat="43.758028984819255" lon="11.750394897243616"><ele>472.0</ele><time>2026-05-02T07:39:40Z</time></trkpt><trkpt lat="43.75806243673944" lon="11.75054707178564"><ele>472.0</ele><time>2026-05-02T07:39:41Z</time></trkpt><trkpt lat="43.75808852390344" lon="11.750658875575093"><ele>472.6</ele><time>2026-05-02T07:39:42Z</time></trkpt><trkpt lat="43.7581142244582" lon="11.750774707653358"><ele>473.20000000000005</ele><time>2026-05-02T07:39:43Z</time></trkpt><trkpt lat="43.75813896852777" lon="11.750883814556959"><ele>473.8</ele><time>2026-05-02T07:39:44Z</time></trkpt><trkpt lat="43.758167325903344" lon="11.751010064139061"><ele>474.4</ele><time>2026-05-02T07:39:45Z</time></trkpt><trkpt lat="43.75820004382095" lon="11.751139120813022"><ele>475.0</ele><time>2026-05-02T07:39:46Z</time></trkpt><trkpt lat="43.758229096072135" lon="11.751255454260102"><ele>475.4</ele><time>2026-05-02T07:39:47Z</time></trkpt><trkpt lat="43.75825661020186" lon="11.7513679179814"><ele>475.8</ele><time>2026-05-02T07:39:48Z</time></trkpt><trkpt lat="43.758284284055314" lon="11.751460950236037"><ele>476.20000000000005</ele><time>2026-05-02T07:39:49Z</time></trkpt><trkpt lat="43.75829505775715" lon="11.751575718607468"><ele>476.6</ele><time>2026-05-02T07:39:50Z</time></trkpt><trkpt lat="43.75829753816538" lon="11.75178324475841"><ele>477.0</ele><time>2026-05-02T07:39:52Z</time></trkpt><trkpt lat="43.75827347223054" lon="11.75192920552654"><ele>478.0</ele><time>2026-05-02T07:39:53Z</time></trkpt><trkpt lat="43.75828122244694" lon="11.752105169764356"><ele>479.0</ele><time>2026-05-02T07:39:54Z</time></trkpt><trkpt lat="43.75827870819396" lon="11.752247353446602"><ele>480.0</ele><time>2026-05-02T07:39:55Z</time></trkpt><trkpt lat="43.758159250021144" lon="11.752377359426218"><ele>481.0</ele><time>2026-05-02T07:39:56Z</time></trkpt><trkpt lat="43.75811213930066" lon="11.752511629056318"><ele>481.0</ele><time>2026-05-02T07:39:57Z</time></trkpt><trkpt lat="43.758056637481694" lon="11.752653778898544"><ele>481.0</ele><time>2026-05-02T07:39:58Z</time></trkpt><trkpt lat="43.75799809556913" lon="11.75281290080591"><ele>481.0</ele><time>2026-05-02T07:39:59Z</time></trkpt><trkpt lat="43.757928339307796" lon="11.75293790679274"><ele>481.0</ele><time>2026-05-02T07:40:00Z</time></trkpt><trkpt lat="43.757870075787935" lon="11.75304841600802"><ele>482.8</ele><time>2026-05-02T07:40:01Z</time></trkpt><trkpt lat="43.75783308066558" lon="11.753140211112232"><ele>484.6</ele><time>2026-05-02T07:40:02Z</time></trkpt><trkpt lat="43.75776251550109" lon="11.75329969621824"><ele>486.4</ele><time>2026-05-02T07:40:04Z</time></trkpt><trkpt lat="43.75775265082603" lon="11.7534647509344"><ele>488.2</ele><time>2026-05-02T07:40:06Z</time></trkpt><trkpt lat="43.757766340377344" lon="11.753550557479645"><ele>490.0</ele><time>2026-05-02T07:40:07Z</time></trkpt><trkpt lat="43.75779236030895" lon="11.75364500392424"><ele>491.6666666666667</ele><time>2026-05-02T07:40:08Z</time></trkpt><trkpt lat="43.757825737618234" lon="11.753777761693366"><ele>493.33333333333337</ele><time>2026-05-02T07:40:09Z</time></trkpt><trkpt lat="43.75785001572072" lon="11.753900347282041"><ele>495.0</ele><time>2026-05-02T07:40:10Z</time></trkpt><trkpt lat="43.757858909903014" lon="11.754005097288042"><ele>496.66666666666663</ele><time>2026-05-02T07:40:11Z</time></trkpt><trkpt lat="43.75786431036754" lon="11.754105815773139"><ele>498.3333333333333</ele><time>2026-05-02T07:40:12Z</time></trkpt><trkpt lat="43.757868711800036" lon="11.754211903333761"><ele>500.0</ele><time>2026-05-02T07:40:13Z</time></trkpt><trkpt lat="43.75789281564614" lon="11.754385079116146"><ele>501.3333333333333</ele><time>2026-05-02T07:40:15Z</time></trkpt><trkpt lat="43.757906605480116" lon="11.754474253982425"><ele>502.66666666666663</ele><time>2026-05-02T07:40:16Z</time></trkpt><trkpt lat="43.75791990929201" lon="11.754602516372056"><ele>504.0</ele><time>2026-05-02T07:40:17Z</time></trkpt><trkpt lat="43.75792028726836" lon="11.754713005121694"><ele>505.33333333333337</ele><time>2026-05-02T07:40:18Z</time></trkpt><trkpt lat="43.75791777176947" lon="11.754818570352464"><ele>506.6666666666667</ele><time>2026-05-02T07:40:19Z</time></trkpt><trkpt lat="43.75789439766641" lon="11.754953933170038"><ele>508.0</ele><time>2026-05-02T07:40:21Z</time></trkpt><trkpt lat="43.7578386730448" lon="11.75501868841137"><ele>508.0</ele><time>2026-05-02T07:40:22Z</time></trkpt><trkpt lat="43.75775923703074" lon="11.755093082320572"><ele>507.99999999999994</ele><time>2026-05-02T07:40:23Z</time></trkpt><trkpt lat="43.75767431797424" lon="11.755186422867407"><ele>507.99999999999994</ele><time>2026-05-02T07:40:24Z</time></trkpt><trkpt lat="43.75758539155486" lon="11.75529288435271"><ele>508.0</ele><time>2026-05-02T07:40:25Z</time></trkpt><trkpt lat="43.75750484624251" lon="11.755395413148253"><ele>508.0</ele><time>2026-05-02T07:40:26Z</time></trkpt><trkpt lat="43.75742233975575" lon="11.755490263740928"><ele>508.4</ele><time>2026-05-02T07:40:27Z</time></trkpt><trkpt lat="43.75733798598624" lon="11.755593537234212"><ele>508.79999999999995</ele><time>2026-05-02T07:40:28Z</time></trkpt><trkpt lat="43.75727218882016" lon="11.755679674814298"><ele>509.2</ele><time>2026-05-02T07:40:29Z</time></trkpt><trkpt lat="43.75721229316519" lon="11.755751043054943"><ele>509.6</ele><time>2026-05-02T07:40:30Z</time></trkpt><trkpt lat="43.75714620955516" lon="11.755827939408713"><ele>510.0</ele><time>2026-05-02T07:40:31Z</time></trkpt><trkpt lat="43.757077054739206" lon="11.7558920889346"><ele>510.0</ele><time>2026-05-02T07:40:32Z</time></trkpt><trkpt lat="43.75701595748038" lon="11.755964896559123"><ele>510.00000000000006</ele><time>2026-05-02T07:40:33Z</time></trkpt><trkpt lat="43.75696324496731" lon="11.75602498707388"><ele>510.0</ele><time>2026-05-02T07:40:34Z</time></trkpt><trkpt lat="43.75691534472799" lon="11.75608368001609"><ele>510.0</ele><time>2026-05-02T07:40:35Z</time></trkpt><trkpt lat="43.756891348299376" lon="11.756207873907506"><ele>510.00000000000006</ele><time>2026-05-02T07:40:37Z</time></trkpt><trkpt lat="43.75690647831779" lon="11.75629361059769"><ele>510.0</ele><time>2026-05-02T07:40:38Z</time></trkpt><trkpt lat="43.75688103160373" lon="11.756388589376234"><ele>510.0</ele><time>2026-05-02T07:40:40Z</time></trkpt><trkpt lat="43.75678797088066" lon="11.75639903164846"><ele>509.8333333333333</ele><time>2026-05-02T07:40:42Z</time></trkpt><trkpt lat="43.75671083152797" lon="11.756400766081036"><ele>509.66666666666663</ele><time>2026-05-02T07:40:43Z</time></trkpt><trkpt lat="43.75663617615051" lon="11.756413759187037"><ele>509.5</ele><time>2026-05-02T07:40:44Z</time></trkpt><trkpt lat="43.756566956594284" lon="11.75643005249422"><ele>509.3333333333333</ele><time>2026-05-02T07:40:45Z</time></trkpt><trkpt lat="43.75648734503029" lon="11.756449840885505"><ele>509.16666666666663</ele><time>2026-05-02T07:40:46Z</time></trkpt><trkpt lat="43.75640890439501" lon="11.75647237039554"><ele>509.0</ele><time>2026-05-02T07:40:47Z</time></trkpt><trkpt lat="43.756326969499135" lon="11.756498866515406"><ele>509.0</ele><time>2026-05-02T07:40:48Z</time></trkpt><trkpt lat="43.75623934043659" lon="11.756524086272025"><ele>509.0</ele><time>2026-05-02T07:40:49Z</time></trkpt><trkpt lat="43.75615081665273" lon="11.756556159797107"><ele>509.0</ele><time>2026-05-02T07:40:50Z</time></trkpt><trkpt lat="43.75605906045054" lon="11.756591132291794"><ele>509.0</ele><time>2026-05-02T07:40:51Z</time></trkpt><trkpt lat="43.75597344127267" lon="11.756623363349835"><ele>509.0</ele><time>2026-05-02T07:40:52Z</time></trkpt><trkpt lat="43.75588167598899" lon="11.756660893765927"><ele>507.0</ele><time>2026-05-02T07:40:53Z</time></trkpt><trkpt lat="43.755787276015326" lon="11.75669862914322"><ele>505.0</ele><time>2026-05-02T07:40:54Z</time></trkpt><trkpt lat="43.75568939692083" lon="11.756736053203394"><ele>503.0</ele><time>2026-05-02T07:40:55Z</time></trkpt><trkpt lat="43.75559210834508" lon="11.756774350694837"><ele>501.0</ele><time>2026-05-02T07:40:56Z</time></trkpt><trkpt lat="43.75549574809572" lon="11.756812894450622"><ele>499.0</ele><time>2026-05-02T07:40:57Z</time></trkpt><trkpt lat="43.75539539161473" lon="11.756860935619201"><ele>498.6</ele><time>2026-05-02T07:40:58Z</time></trkpt><trkpt lat="43.75529500517856" lon="11.756917428402472"><ele>498.2</ele><time>2026-05-02T07:40:59Z</time></trkpt><trkpt lat="43.75519830024728" lon="11.756981390028118"><ele>497.80000000000007</ele><time>2026-05-02T07:41:00Z</time></trkpt><trkpt lat="43.755096731201334" lon="11.757049672569398"><ele>497.40000000000003</ele><time>2026-05-02T07:41:01Z</time></trkpt><trkpt lat="43.75499406486001" lon="11.757116325450076"><ele>497.0</ele><time>2026-05-02T07:41:02Z</time></trkpt><trkpt lat="43.75488340367028" lon="11.757179165965825"><ele>494.25</ele><time>2026-05-02T07:41:03Z</time></trkpt><trkpt lat="43.75476999716327" lon="11.757232595929322"><ele>491.5</ele><time>2026-05-02T07:41:04Z</time></trkpt><trkpt lat="43.754652188170375" lon="11.75728532147487"><ele>488.75</ele><time>2026-05-02T07:41:05Z</time></trkpt><trkpt lat="43.7545357150584" lon="11.75733173298637"><ele>486.0</ele><time>2026-05-02T07:41:06Z</time></trkpt><trkpt lat="43.754409210428186" lon="11.757372615568618"><ele>484.0</ele><time>2026-05-02T07:41:07Z</time></trkpt><trkpt lat="43.7542855075435" lon="11.757400980478755"><ele>482.0</ele><time>2026-05-02T07:41:08Z</time></trkpt><trkpt lat="43.754165575849335" lon="11.75741675962842"><ele>480.0</ele><time>2026-05-02T07:41:09Z</time></trkpt><trkpt lat="43.754063560039654" lon="11.757425328699762"><ele>478.0</ele><time>2026-05-02T07:41:10Z</time></trkpt><trkpt lat="43.75397564149328" lon="11.757435865589631"><ele>476.0</ele><time>2026-05-02T07:41:11Z</time></trkpt><trkpt lat="43.753899728236796" lon="11.757434769149011"><ele>475.99999999999994</ele><time>2026-05-02T07:41:12Z</time></trkpt><trkpt lat="43.75379448550885" lon="11.757447328790352"><ele>476.0</ele><time>2026-05-02T07:41:14Z</time></trkpt><trkpt lat="43.75372560621781" lon="11.757495131043923"><ele>476.0</ele><time>2026-05-02T07:41:31Z</time></trkpt><trkpt lat="43.75365185514434" lon="11.757499555110005"><ele>476.0</ele><time>2026-05-02T07:41:34Z</time></trkpt><trkpt lat="43.75357224134091" lon="11.757493583258116"><ele>475.99999999999994</ele><time>2026-05-02T07:43:28Z</time></trkpt><trkpt lat="43.753485206061356" lon="11.757466013465937"><ele>476.0</ele><time>2026-05-02T07:43:31Z</time></trkpt><trkpt lat="43.753408528534756" lon="11.757446475519663"><ele>474.49999999999994</ele><time>2026-05-02T07:43:33Z</time></trkpt><trkpt lat="43.753335440669886" lon="11.757430242624578"><ele>473.0</ele><time>2026-05-02T07:43:35Z</time></trkpt><trkpt lat="43.753266502254554" lon="11.757406398552261"><ele>471.5</ele><time>2026-05-02T07:43:37Z</time></trkpt><trkpt lat="43.753199759238164" lon="11.757387819096072"><ele>470.0</ele><time>2026-05-02T07:43:39Z</time></trkpt><trkpt lat="43.75313176550462" lon="11.757367661476616"><ele>468.49999999999994</ele><time>2026-05-02T07:43:43Z</time></trkpt><trkpt lat="43.75301680418563" lon="11.757355045363804"><ele>467.0</ele><time>2026-05-02T07:52:05Z</time></trkpt><trkpt lat="43.752955318053246" lon="11.757335464600285"><ele>466.99999999999994</ele><time>2026-05-02T07:52:06Z</time></trkpt><trkpt lat="43.752890786947326" lon="11.757309792638585"><ele>467.0</ele><time>2026-05-02T07:52:07Z</time></trkpt><trkpt lat="43.75282191726858" lon="11.757282011752604"><ele>467.0</ele><time>2026-05-02T07:52:08Z</time></trkpt><trkpt lat="43.752746614248984" lon="11.75725693663089"><ele>467.0</ele><time>2026-05-02T07:52:09Z</time></trkpt><trkpt lat="43.75267000949059" lon="11.757229723298304"><ele>466.99999999999994</ele><time>2026-05-02T07:52:10Z</time></trkpt><trkpt lat="43.75259041175725" lon="11.757209597015239"><ele>467.0</ele><time>2026-05-02T07:52:11Z</time></trkpt><trkpt lat="43.75250557736636" lon="11.7571975594339"><ele>464.40000000000003</ele><time>2026-05-02T07:52:12Z</time></trkpt><trkpt lat="43.75241023788093" lon="11.757186566184677"><ele>461.80000000000007</ele><time>2026-05-02T07:52:13Z</time></trkpt><trkpt lat="43.75230922030032" lon="11.757187390680881"><ele>459.2</ele><time>2026-05-02T07:52:14Z</time></trkpt><trkpt lat="43.75220452544355" lon="11.757193176703856"><ele>456.6</ele><time>2026-05-02T07:52:15Z</time></trkpt><trkpt lat="43.75209398258682" lon="11.75719613004587"><ele>454.0</ele><time>2026-05-02T07:52:16Z</time></trkpt><trkpt lat="43.751986018425534" lon="11.757202916247866"><ele>454.0</ele><time>2026-05-02T07:52:17Z</time></trkpt><trkpt lat="43.75187632974623" lon="11.757205294407386"><ele>454.0</ele><time>2026-05-02T07:52:18Z</time></trkpt><trkpt lat="43.75176568414532" lon="11.757201648740937"><ele>454.0</ele><time>2026-05-02T07:52:19Z</time></trkpt><trkpt lat="43.75166304595133" lon="11.757196482019754"><ele>454.0</ele><time>2026-05-02T07:52:20Z</time></trkpt><trkpt lat="43.751560088709425" lon="11.757191126038451"><ele>454.0</ele><time>2026-05-02T07:52:21Z</time></trkpt><trkpt lat="43.751458226858" lon="11.757183118918876"><ele>452.1666666666667</ele><time>2026-05-02T07:52:22Z</time></trkpt><trkpt lat="43.751367478628794" lon="11.757187338035411"><ele>450.33333333333337</ele><time>2026-05-02T07:52:23Z</time></trkpt><trkpt lat="43.75128149244425" lon="11.757190969267409"><ele>448.5</ele><time>2026-05-02T07:52:24Z</time></trkpt><trkpt lat="43.75120806744989" lon="11.757215913785513"><ele>446.66666666666663</ele><time>2026-05-02T07:52:25Z</time></trkpt><trkpt lat="43.75112475946303" lon="11.757224638310104"><ele>444.8333333333333</ele><time>2026-05-02T07:52:26Z</time></trkpt><trkpt lat="43.75103338916196" lon="11.757225712370097"><ele>443.0</ele><time>2026-05-02T07:52:27Z</time></trkpt><trkpt lat="43.750945475473145" lon="11.757212603361134"><ele>441.49999999999994</ele><time>2026-05-02T07:52:28Z</time></trkpt><trkpt lat="43.75084388130041" lon="11.757191776951835"><ele>440.0</ele><time>2026-05-02T07:52:29Z</time></trkpt><trkpt lat="43.75075650907753" lon="11.757163269688002"><ele>438.5</ele><time>2026-05-02T07:52:30Z</time></trkpt><trkpt lat="43.750679516886" lon="11.75713171501611"><ele>437.0</ele><time>2026-05-02T07:52:31Z</time></trkpt><trkpt lat="43.750599180260096" lon="11.757114301411985"><ele>435.49999999999994</ele><time>2026-05-02T07:52:32Z</time></trkpt><trkpt lat="43.75053539311267" lon="11.757123943818764"><ele>434.0</ele><time>2026-05-02T07:52:33Z</time></trkpt><trkpt lat="43.75045363127819" lon="11.757218952253115"><ele>434.0</ele><time>2026-05-02T07:52:35Z</time></trkpt><trkpt lat="43.75042664501485" lon="11.757395125092247"><ele>434.0</ele><time>2026-05-02T07:52:37Z</time></trkpt><trkpt lat="43.750417475309035" lon="11.757513034767918"><ele>434.0</ele><time>2026-05-02T07:52:38Z</time></trkpt><trkpt lat="43.75041034858401" lon="11.757626951920283"><ele>434.0</ele><time>2026-05-02T07:52:39Z</time></trkpt><trkpt lat="43.75040697562094" lon="11.757738538219272"><ele>434.0</ele><time>2026-05-02T07:52:40Z</time></trkpt><trkpt lat="43.75040724517477" lon="11.757867084900376"><ele>433.4</ele><time>2026-05-02T07:52:41Z</time></trkpt><trkpt lat="43.7504034421237" lon="11.75799850856949"><ele>432.79999999999995</ele><time>2026-05-02T07:52:42Z</time></trkpt><trkpt lat="43.75040819640843" lon="11.758123422755881"><ele>432.20000000000005</ele><time>2026-05-02T07:52:43Z</time></trkpt><trkpt lat="43.750416733013125" lon="11.75826673917446"><ele>431.6</ele><time>2026-05-02T07:52:44Z</time></trkpt><trkpt lat="43.75042768513534" lon="11.75840557610495"><ele>431.0</ele><time>2026-05-02T07:52:45Z</time></trkpt><trkpt lat="43.750432521617356" lon="11.758544932157278"><ele>430.99999999999994</ele><time>2026-05-02T07:52:46Z</time></trkpt><trkpt lat="43.750421689782534" lon="11.758655210744655"><ele>431.0</ele><time>2026-05-02T07:52:47Z</time></trkpt><trkpt lat="43.75038749447226" lon="11.758773393546713"><ele>431.0</ele><time>2026-05-02T07:52:48Z</time></trkpt><trkpt lat="43.75031935500634" lon="11.758882497658206"><ele>431.0</ele><time>2026-05-02T07:52:49Z</time></trkpt><trkpt lat="43.75025418934841" lon="11.758976083200949"><ele>430.99999999999994</ele><time>2026-05-02T07:52:50Z</time></trkpt><trkpt lat="43.75020214639683" lon="11.759057365998606"><ele>431.0</ele><time>2026-05-02T07:52:51Z</time></trkpt><trkpt lat="43.750165626068416" lon="11.759131298555243"><ele>428.8333333333333</ele><time>2026-05-02T07:52:52Z</time></trkpt><trkpt lat="43.75014304680747" lon="11.759215458787"><ele>426.66666666666663</ele><time>2026-05-02T07:52:53Z</time></trkpt><trkpt lat="43.75012883749832" lon="11.75931081558693"><ele>424.5</ele><time>2026-05-02T07:52:54Z</time></trkpt><trkpt lat="43.75012060779963" lon="11.759430556012102"><ele>422.33333333333337</ele><time>2026-05-02T07:52:55Z</time></trkpt><trkpt lat="43.750092543752785" lon="11.75955338907122"><ele>420.1666666666667</ele><time>2026-05-02T07:52:56Z</time></trkpt><trkpt lat="43.750062008449966" lon="11.759678286232152"><ele>418.0</ele><time>2026-05-02T07:52:57Z</time></trkpt><trkpt lat="43.75003210801567" lon="11.759808210168181"><ele>418.0</ele><time>2026-05-02T07:52:58Z</time></trkpt><trkpt lat="43.750021628653485" lon="11.75993907017913"><ele>418.0</ele><time>2026-05-02T07:52:59Z</time></trkpt><trkpt lat="43.74999355640624" lon="11.760093216089988"><ele>418.0</ele><time>2026-05-02T07:53:00Z</time></trkpt><trkpt lat="43.74997587051847" lon="11.760243085988913"><ele>418.0</ele><time>2026-05-02T07:53:01Z</time></trkpt><trkpt lat="43.74995300269463" lon="11.7603912858919"><ele>418.0</ele><time>2026-05-02T07:53:02Z</time></trkpt><trkpt lat="43.74994452040422" lon="11.760539947761744"><ele>418.0</ele><time>2026-05-02T07:53:03Z</time></trkpt><trkpt lat="43.749931186570464" lon="11.760694759826173"><ele>418.0</ele><time>2026-05-02T07:53:04Z</time></trkpt><trkpt lat="43.74991972975084" lon="11.760838960953109"><ele>418.0</ele><time>2026-05-02T07:53:05Z</time></trkpt><trkpt lat="43.74990872944471" lon="11.760977442578712"><ele>418.0</ele><time>2026-05-02T07:53:06Z</time></trkpt><trkpt lat="43.74989032438596" lon="11.761094516119975"><ele>418.0</ele><time>2026-05-02T07:53:07Z</time></trkpt><trkpt lat="43.74988705041104" lon="11.761204727507995"><ele>417.59999999999997</ele><time>2026-05-02T07:53:08Z</time></trkpt><trkpt lat="43.749847175600515" lon="11.761338956548437"><ele>417.2</ele><time>2026-05-02T07:53:10Z</time></trkpt><trkpt lat="43.74979731031252" lon="11.761427696585303"><ele>416.8</ele><time>2026-05-02T07:53:12Z</time></trkpt><trkpt lat="43.7496775822563" lon="11.761332078930893"><ele>416.4</ele><time>2026-05-02T07:53:13Z</time></trkpt><trkpt lat="43.74959889273807" lon="11.761315959523712"><ele>416.0</ele><time>2026-05-02T07:53:14Z</time></trkpt><trkpt lat="43.749505555757935" lon="11.761285373093136"><ele>416.0</ele><time>2026-05-02T07:53:15Z</time></trkpt><trkpt lat="43.74941068165367" lon="11.76125932996396"><ele>416.0</ele><time>2026-05-02T07:53:16Z</time></trkpt><trkpt lat="43.749319383408455" lon="11.761234515349065"><ele>416.0</ele><time>2026-05-02T07:53:17Z</time></trkpt><trkpt lat="43.74921332893451" lon="11.76121085481609"><ele>416.0</ele><time>2026-05-02T07:53:18Z</time></trkpt><trkpt lat="43.749137576457294" lon="11.76111733876125"><ele>416.0</ele><time>2026-05-02T07:53:19Z</time></trkpt><trkpt lat="43.749056669732866" lon="11.76103044643927"><ele>414.8</ele><time>2026-05-02T07:53:20Z</time></trkpt><trkpt lat="43.748974839474414" lon="11.760943415308295"><ele>413.6</ele><time>2026-05-02T07:53:21Z</time></trkpt><trkpt lat="43.748893526833285" lon="11.760867640382779"><ele>412.4</ele><time>2026-05-02T07:53:22Z</time></trkpt><trkpt lat="43.748809716541665" lon="11.760799998501104"><ele>411.2</ele><time>2026-05-02T07:53:23Z</time></trkpt><trkpt lat="43.74873872405205" lon="11.760721898172038"><ele>410.0</ele><time>2026-05-02T07:53:24Z</time></trkpt><trkpt lat="43.74866339410784" lon="11.760670357131904"><ele>409.99999999999994</ele><time>2026-05-02T07:53:25Z</time></trkpt><trkpt lat="43.748581739844184" lon="11.760616863330409"><ele>410.0</ele><time>2026-05-02T07:53:26Z</time></trkpt><trkpt lat="43.74850732324071" lon="11.76056640282175"><ele>410.0</ele><time>2026-05-02T07:53:27Z</time></trkpt><trkpt lat="43.748437825012935" lon="11.760529525673045"><ele>410.0</ele><time>2026-05-02T07:53:28Z</time></trkpt><trkpt lat="43.74838347314008" lon="11.76062859589918"><ele>409.99999999999994</ele><time>2026-05-02T07:53:34Z</time></trkpt><trkpt lat="43.748348321047615" lon="11.760754140696255"><ele>410.0</ele><time>2026-05-02T07:53:43Z</time></trkpt><trkpt lat="43.74830007245991" lon="11.76090696551044"><ele>409.0</ele><time>2026-05-02T07:53:45Z</time></trkpt><trkpt lat="43.748270987102565" lon="11.761004631436984"><ele>408.0</ele><time>2026-05-02T07:53:46Z</time></trkpt><trkpt lat="43.74825029410278" lon="11.761102088499989"><ele>407.0</ele><time>2026-05-02T07:53:47Z</time></trkpt><trkpt lat="43.74827846491277" lon="11.761276805871178"><ele>406.0</ele><time>2026-05-02T07:53:49Z</time></trkpt><trkpt lat="43.74829353071529" lon="11.761435834543184"><ele>405.0</ele><time>2026-05-02T07:53:51Z</time></trkpt><trkpt lat="43.74820311635192" lon="11.761560541999417"><ele>407.0</ele><time>2026-05-02T07:53:53Z</time></trkpt><trkpt lat="43.74813925778986" lon="11.761621800353304"><ele>409.0</ele><time>2026-05-02T07:53:54Z</time></trkpt><trkpt lat="43.748076676361705" lon="11.761699816560881"><ele>411.0</ele><time>2026-05-02T07:53:55Z</time></trkpt><trkpt lat="43.74800581825635" lon="11.761792450437913"><ele>413.0</ele><time>2026-05-02T07:53:56Z</time></trkpt><trkpt lat="43.7479386108786" lon="11.761876337788674"><ele>415.0</ele><time>2026-05-02T07:53:57Z</time></trkpt><trkpt lat="43.74788596681714" lon="11.761964168729074"><ele>417.0</ele><time>2026-05-02T07:53:58Z</time></trkpt><trkpt lat="43.747849525643666" lon="11.762048891455033"><ele>418.20000000000005</ele><time>2026-05-02T07:53:59Z</time></trkpt><trkpt lat="43.74782104101033" lon="11.762149257452121"><ele>419.4</ele><time>2026-05-02T07:54:00Z</time></trkpt><trkpt lat="43.74785317725476" lon="11.762316764553386"><ele>420.6</ele><time>2026-05-02T07:54:02Z</time></trkpt><trkpt lat="43.747902194514815" lon="11.762415599122145"><ele>421.79999999999995</ele><time>2026-05-02T07:54:03Z</time></trkpt><trkpt lat="43.747961607194895" lon="11.762517367111704"><ele>423.0</ele><time>2026-05-02T07:54:04Z</time></trkpt><trkpt lat="43.74801300955881" lon="11.762620452327395"><ele>425.0</ele><time>2026-05-02T07:54:05Z</time></trkpt><trkpt lat="43.748052406580506" lon="11.762702422449749"><ele>427.0</ele><time>2026-05-02T07:54:06Z</time></trkpt><trkpt lat="43.748079432582806" lon="11.762785370687661"><ele>429.0</ele><time>2026-05-02T07:54:07Z</time></trkpt><trkpt lat="43.748085471844384" lon="11.76287339474199"><ele>431.0</ele><time>2026-05-02T07:54:08Z</time></trkpt><trkpt lat="43.74800665600912" lon="11.763012084070416"><ele>433.0</ele><time>2026-05-02T07:54:10Z</time></trkpt><trkpt lat="43.74793891436679" lon="11.763043963016186"><ele>435.0</ele><time>2026-05-02T07:54:11Z</time></trkpt><trkpt lat="43.747862782393796" lon="11.76306487398461"><ele>435.0</ele><time>2026-05-02T07:54:12Z</time></trkpt><trkpt lat="43.747796287924494" lon="11.763092615543904"><ele>435.0</ele><time>2026-05-02T07:54:13Z</time></trkpt><trkpt lat="43.74771762167254" lon="11.76316622764694"><ele>435.0</ele><time>2026-05-02T07:54:15Z</time></trkpt><trkpt lat="43.747635827786524" lon="11.763244704301236"><ele>435.0</ele><time>2026-05-02T07:54:18Z</time></trkpt><trkpt lat="43.74757148594397" lon="11.76338439346556"><ele>435.0</ele><time>2026-05-02T07:54:20Z</time></trkpt><trkpt lat="43.747530369819906" lon="11.763460817274074"><ele>435.8</ele><time>2026-05-02T07:54:21Z</time></trkpt><trkpt lat="43.74748120107846" lon="11.763607366670325"><ele>436.6</ele><time>2026-05-02T07:54:23Z</time></trkpt><trkpt lat="43.74748012526995" lon="11.763775309164993"><ele>437.4</ele><time>2026-05-02T07:54:25Z</time></trkpt><trkpt lat="43.74754699052456" lon="11.763890178446303"><ele>438.2</ele><time>2026-05-02T07:54:27Z</time></trkpt><trkpt lat="43.74761263316969" lon="11.763926992205706"><ele>439.0</ele><time>2026-05-02T07:54:28Z</time></trkpt><trkpt lat="43.747687523401986" lon="11.763935473828735"><ele>439.33333333333337</ele><time>2026-05-02T07:54:29Z</time></trkpt><trkpt lat="43.74776114170259" lon="11.7639282508942"><ele>439.6666666666667</ele><time>2026-05-02T07:54:30Z</time></trkpt><trkpt lat="43.74784480584011" lon="11.763928641551047"><ele>440.0</ele><time>2026-05-02T07:54:31Z</time></trkpt><trkpt lat="43.74792679611914" lon="11.76393940214044"><ele>440.33333333333337</ele><time>2026-05-02T07:54:32Z</time></trkpt><trkpt lat="43.74801110327372" lon="11.763906013850075"><ele>440.6666666666667</ele><time>2026-05-02T07:54:34Z</time></trkpt><trkpt lat="43.74803577346456" lon="11.763812863733975"><ele>441.0</ele><time>2026-05-02T07:54:37Z</time></trkpt><trkpt lat="43.74800159737146" lon="11.76389273243098"><ele>441.0</ele><time>2026-05-02T07:54:48Z</time></trkpt><trkpt lat="43.748054134372396" lon="11.763951441204112"><ele>441.0</ele><time>2026-05-02T07:54:50Z</time></trkpt><trkpt lat="43.748119072297165" lon="11.764044393708968"><ele>441.0</ele><time>2026-05-02T07:54:53Z</time></trkpt><trkpt lat="43.748178800060224" lon="11.764138159939138"><ele>441.0</ele><time>2026-05-02T07:54:55Z</time></trkpt><trkpt lat="43.74822791943758" lon="11.764227678645065"><ele>441.0</ele><time>2026-05-02T07:54:59Z</time></trkpt><trkpt lat="43.74830375114969" lon="11.764345789365416"><ele>441.0</ele><time>2026-05-02T07:55:01Z</time></trkpt><trkpt lat="43.748366433711205" lon="11.764424634308606"><ele>441.8333333333333</ele><time>2026-05-02T07:55:02Z</time></trkpt><trkpt lat="43.74841232545197" lon="11.764491680614045"><ele>442.66666666666663</ele><time>2026-05-02T07:55:03Z</time></trkpt><trkpt lat="43.74845809518356" lon="11.764561063606426"><ele>443.5</ele><time>2026-05-02T07:55:04Z</time></trkpt><trkpt lat="43.7485402026332" lon="11.764693569276462"><ele>444.3333333333333</ele><time>2026-05-02T07:55:06Z</time></trkpt><trkpt lat="43.74860228155148" lon="11.764797117533853"><ele>445.16666666666663</ele><time>2026-05-02T07:55:08Z</time></trkpt><trkpt lat="43.74864685939951" lon="11.76489657146397"><ele>446.0</ele><time>2026-05-02T07:55:11Z</time></trkpt><trkpt lat="43.74864116228757" lon="11.76501752004448"><ele>446.49999999999994</ele><time>2026-05-02T07:55:13Z</time></trkpt><trkpt lat="43.74865312605993" lon="11.765162721936893"><ele>447.0</ele><time>2026-05-02T07:55:15Z</time></trkpt><trkpt lat="43.748670049809405" lon="11.76525522646504"><ele>447.5</ele><time>2026-05-02T07:55:16Z</time></trkpt><trkpt lat="43.74866664967739" lon="11.765356464981561"><ele>448.0</ele><time>2026-05-02T07:55:17Z</time></trkpt><trkpt lat="43.748659509124764" lon="11.765492228098125"><ele>448.49999999999994</ele><time>2026-05-02T07:55:19Z</time></trkpt><trkpt lat="43.74864275773886" lon="11.765615651737214"><ele>449.0</ele><time>2026-05-02T07:55:21Z</time></trkpt><trkpt lat="43.74867712791776" lon="11.765724510689175"><ele>450.6</ele><time>2026-05-02T07:55:23Z</time></trkpt><trkpt lat="43.748746114455756" lon="11.765874089369316"><ele>452.2</ele><time>2026-05-02T07:55:25Z</time></trkpt><trkpt lat="43.74878833487946" lon="11.76602512357045"><ele>453.80000000000007</ele><time>2026-05-02T07:55:27Z</time></trkpt><trkpt lat="43.74887396878715" lon="11.766135530063863"><ele>455.40000000000003</ele><time>2026-05-02T07:55:29Z</time></trkpt><trkpt lat="43.74892393862562" lon="11.766205645308586"><ele>457.0</ele><time>2026-05-02T07:55:30Z</time></trkpt><trkpt lat="43.74898413180403" lon="11.7662772573074"><ele>458.8</ele><time>2026-05-02T07:55:31Z</time></trkpt><trkpt lat="43.74902030304633" lon="11.76640998379167"><ele>460.6</ele><time>2026-05-02T07:55:33Z</time></trkpt><trkpt lat="43.74898259278583" lon="11.766558370027239"><ele>462.40000000000003</ele><time>2026-05-02T07:55:35Z</time></trkpt><trkpt lat="43.74892431912552" lon="11.766664737529705"><ele>464.20000000000005</ele><time>2026-05-02T07:55:37Z</time></trkpt><trkpt lat="43.74902734015353" lon="11.76670516392522"><ele>466.0</ele><time>2026-05-02T07:55:43Z</time></trkpt><trkpt lat="43.74910445930958" lon="11.766680505045919"><ele>466.00000000000006</ele><time>2026-05-02T07:55:44Z</time></trkpt><trkpt lat="43.74918125630512" lon="11.766669184791137"><ele>466.0</ele><time>2026-05-02T07:55:45Z</time></trkpt><trkpt lat="43.74926380322365" lon="11.766668629931713"><ele>466.0</ele><time>2026-05-02T07:55:46Z</time></trkpt><trkpt lat="43.749351143838346" lon="11.766672448618854"><ele>466.0</ele><time>2026-05-02T07:55:47Z</time></trkpt><trkpt lat="43.74944159952161" lon="11.766678516634245"><ele>466.00000000000006</ele><time>2026-05-02T07:55:48Z</time></trkpt><trkpt lat="43.74952975821181" lon="11.76667732790054"><ele>466.0</ele><time>2026-05-02T07:55:49Z</time></trkpt><trkpt lat="43.74962487889528" lon="11.766660166042113"><ele>468.0</ele><time>2026-05-02T07:55:50Z</time></trkpt><trkpt lat="43.74973477690911" lon="11.766635968474402"><ele>470.0</ele><time>2026-05-02T07:55:51Z</time></trkpt><trkpt lat="43.74984906945437" lon="11.766595401674468"><ele>472.0</ele><time>2026-05-02T07:55:52Z</time></trkpt><trkpt lat="43.74995994088277" lon="11.76655949006857"><ele>474.0</ele><time>2026-05-02T07:55:53Z</time></trkpt><trkpt lat="43.75006528864497" lon="11.766530682652721"><ele>474.0</ele><time>2026-05-02T07:55:54Z</time></trkpt><trkpt lat="43.750162688607105" lon="11.766506307322668"><ele>474.0</ele><time>2026-05-02T07:55:55Z</time></trkpt><trkpt lat="43.75025637946818" lon="11.766484067942327"><ele>474.0</ele><time>2026-05-02T07:55:56Z</time></trkpt><trkpt lat="43.75034702026396" lon="11.766469049543852"><ele>474.0</ele><time>2026-05-02T07:55:57Z</time></trkpt><trkpt lat="43.750437353952115" lon="11.766485864197435"><ele>474.0</ele><time>2026-05-02T07:55:58Z</time></trkpt><trkpt lat="43.75052261552409" lon="11.766534866244891"><ele>474.79999999999995</ele><time>2026-05-02T07:55:59Z</time></trkpt><trkpt lat="43.75059851279739" lon="11.766624223976526"><ele>475.59999999999997</ele><time>2026-05-02T07:56:00Z</time></trkpt><trkpt lat="43.750654345212695" lon="11.766737802163657"><ele>476.4</ele><time>2026-05-02T07:56:01Z</time></trkpt><trkpt lat="43.750687255451204" lon="11.766871693114355"><ele>477.2</ele><time>2026-05-02T07:56:02Z</time></trkpt><trkpt lat="43.750699314558474" lon="11.767011181139013"><ele>478.0</ele><time>2026-05-02T07:56:03Z</time></trkpt><trkpt lat="43.750716471395826" lon="11.767148305791311"><ele>480.0</ele><time>2026-05-02T07:56:04Z</time></trkpt><trkpt lat="43.75075828368755" lon="11.767258641265684"><ele>481.99999999999994</ele><time>2026-05-02T07:56:05Z</time></trkpt><trkpt lat="43.75081808689377" lon="11.767348804710892"><ele>483.99999999999994</ele><time>2026-05-02T07:56:06Z</time></trkpt><trkpt lat="43.75089154894223" lon="11.767414954596036"><ele>486.0</ele><time>2026-05-02T07:56:07Z</time></trkpt><trkpt lat="43.750976284086796" lon="11.767451163713082"><ele>488.0</ele><time>2026-05-02T07:56:08Z</time></trkpt><trkpt lat="43.751075364923" lon="11.767474049221978"><ele>489.79999999999995</ele><time>2026-05-02T07:56:09Z</time></trkpt><trkpt lat="43.751175448296685" lon="11.767484158448713"><ele>491.59999999999997</ele><time>2026-05-02T07:56:10Z</time></trkpt><trkpt lat="43.75126942925399" lon="11.76750392830503"><ele>493.40000000000003</ele><time>2026-05-02T07:56:11Z</time></trkpt><trkpt lat="43.751356400804525" lon="11.767558363361573"><ele>495.20000000000005</ele><time>2026-05-02T07:56:12Z</time></trkpt><trkpt lat="43.75143847456802" lon="11.767627633705901"><ele>497.0</ele><time>2026-05-02T07:56:13Z</time></trkpt><trkpt lat="43.75152349409677" lon="11.767685932780315"><ele>497.6</ele><time>2026-05-02T07:56:14Z</time></trkpt><trkpt lat="43.751623496131074" lon="11.767741042075972"><ele>498.20000000000005</ele><time>2026-05-02T07:56:15Z</time></trkpt><trkpt lat="43.751719519304785" lon="11.767814887218345"><ele>498.8</ele><time>2026-05-02T07:56:16Z</time></trkpt><trkpt lat="43.75181230173541" lon="11.76790849238071"><ele>499.4</ele><time>2026-05-02T07:56:17Z</time></trkpt><trkpt lat="43.751896791453085" lon="11.767995773153267"><ele>500.0</ele><time>2026-05-02T07:56:18Z</time></trkpt><trkpt lat="43.751983118132756" lon="11.768092159287377"><ele>500.16666666666663</ele><time>2026-05-02T07:56:19Z</time></trkpt><trkpt lat="43.752065084298124" lon="11.768159427367701"><ele>500.3333333333333</ele><time>2026-05-02T07:56:20Z</time></trkpt><trkpt lat="43.75213118960963" lon="11.768214833603903"><ele>500.5</ele><time>2026-05-02T07:56:21Z</time></trkpt><trkpt lat="43.752217630176304" lon="11.768300409101021"><ele>500.66666666666663</ele><time>2026-05-02T07:56:23Z</time></trkpt><trkpt lat="43.752240128454055" lon="11.768384599353382"><ele>500.8333333333333</ele><time>2026-05-02T07:56:24Z</time></trkpt><trkpt lat="43.75225680258254" lon="11.76849993016312"><ele>501.0</ele><time>2026-05-02T07:56:25Z</time></trkpt><trkpt lat="43.75228269452017" lon="11.768639678410247"><ele>502.0</ele><time>2026-05-02T07:56:26Z</time></trkpt><trkpt lat="43.7523260644496" lon="11.76877976103088"><ele>503.0</ele><time>2026-05-02T07:56:27Z</time></trkpt><trkpt lat="43.75238127074026" lon="11.768914437583652"><ele>504.0</ele><time>2026-05-02T07:56:28Z</time></trkpt><trkpt lat="43.7524343182801" lon="11.769047279217531"><ele>505.0</ele><time>2026-05-02T07:56:29Z</time></trkpt><trkpt lat="43.75249702714529" lon="11.769175969163454"><ele>506.0</ele><time>2026-05-02T07:56:30Z</time></trkpt><trkpt lat="43.75256459617109" lon="11.76929034314805"><ele>506.4</ele><time>2026-05-02T07:56:31Z</time></trkpt><trkpt lat="43.75264260934035" lon="11.769394211937412"><ele>506.8</ele><time>2026-05-02T07:56:32Z</time></trkpt><trkpt lat="43.75273180847288" lon="11.769494390549337"><ele>507.19999999999993</ele><time>2026-05-02T07:56:33Z</time></trkpt><trkpt lat="43.75282107813386" lon="11.769579603168875"><ele>507.59999999999997</ele><time>2026-05-02T07:56:34Z</time></trkpt><trkpt lat="43.75291115345233" lon="11.76964984146889"><ele>508.0</ele><time>2026-05-02T07:56:35Z</time></trkpt><trkpt lat="43.75300051930871" lon="11.769718846749806"><ele>508.4</ele><time>2026-05-02T07:56:36Z</time></trkpt><trkpt lat="43.75307668023575" lon="11.76978581127378"><ele>508.79999999999995</ele><time>2026-05-02T07:56:37Z</time></trkpt><trkpt lat="43.753156412553615" lon="11.769871597890473"><ele>509.2</ele><time>2026-05-02T07:56:38Z</time></trkpt><trkpt lat="43.75322814294371" lon="11.769977224666173"><ele>509.6</ele><time>2026-05-02T07:56:39Z</time></trkpt><trkpt lat="43.753294096600726" lon="11.77009835415244"><ele>510.0</ele><time>2026-05-02T07:56:40Z</time></trkpt><trkpt lat="43.75335733604719" lon="11.77021328632857"><ele>512.0</ele><time>2026-05-02T07:56:41Z</time></trkpt><trkpt lat="43.753414314645966" lon="11.770328045990437"><ele>514.0</ele><time>2026-05-02T07:56:42Z</time></trkpt><trkpt lat="43.75345465327018" lon="11.77042785038163"><ele>516.0</ele><time>2026-05-02T07:56:43Z</time></trkpt><trkpt lat="43.75349530127761" lon="11.77052240563947"><ele>518.0</ele><time>2026-05-02T07:56:44Z</time></trkpt><trkpt lat="43.75353296060876" lon="11.770626717112226"><ele>520.0</ele><time>2026-05-02T07:56:45Z</time></trkpt><trkpt lat="43.75356178433026" lon="11.770723645860405"><ele>522.0</ele><time>2026-05-02T07:56:46Z</time></trkpt><trkpt lat="43.753580191497115" lon="11.770816108038765"><ele>522.5</ele><time>2026-05-02T07:56:47Z</time></trkpt><trkpt lat="43.75358332260309" lon="11.770905259638216"><ele>523.0</ele><time>2026-05-02T07:56:48Z</time></trkpt><trkpt lat="43.75356134362087" lon="11.77100713058126"><ele>523.5</ele><time>2026-05-02T07:56:50Z</time></trkpt><trkpt lat="43.753510569964504" lon="11.771061288151548"><ele>524.0</ele><time>2026-05-02T07:56:52Z</time></trkpt><trkpt lat="43.7534511273445" lon="11.77111376556419"><ele>524.5</ele><time>2026-05-02T07:56:55Z</time></trkpt><trkpt lat="43.753376514585725" lon="11.7712037325274"><ele>525.0</ele><time>2026-05-02T07:56:59Z</time></trkpt><trkpt lat="43.753283256284924" lon="11.771312502270728"><ele>525.8333333333334</ele><time>2026-05-02T07:57:01Z</time></trkpt><trkpt lat="43.75322423572769" lon="11.771370514567252"><ele>526.6666666666666</ele><time>2026-05-02T07:57:02Z</time></trkpt><trkpt lat="43.753171170899925" lon="11.771429351916103"><ele>527.5</ele><time>2026-05-02T07:57:03Z</time></trkpt><trkpt lat="43.753116410150945" lon="11.771499315773722"><ele>528.3333333333333</ele><time>2026-05-02T07:57:04Z</time></trkpt><trkpt lat="43.75305810225831" lon="11.771589947088417"><ele>529.1666666666666</ele><time>2026-05-02T07:57:05Z</time></trkpt><trkpt lat="43.75299986154658" lon="11.771686805962574"><ele>530.0</ele><time>2026-05-02T07:57:06Z</time></trkpt><trkpt lat="43.752946670328186" lon="11.77178889656921"><ele>531.75</ele><time>2026-05-02T07:57:07Z</time></trkpt><trkpt lat="43.75289581377932" lon="11.771901894857526"><ele>533.5</ele><time>2026-05-02T07:57:08Z</time></trkpt><trkpt lat="43.752835792762184" lon="11.77205083766118"><ele>535.25</ele><time>2026-05-02T07:57:09Z</time></trkpt><trkpt lat="43.752777500019896" lon="11.772201857728565"><ele>537.0</ele><time>2026-05-02T07:57:10Z</time></trkpt><trkpt lat="43.752716531298134" lon="11.772336446917835"><ele>536.0</ele><time>2026-05-02T07:57:11Z</time></trkpt><trkpt lat="43.75265390306275" lon="11.772460289882842"><ele>535.0</ele><time>2026-05-02T07:57:12Z</time></trkpt><trkpt lat="43.75259288227359" lon="11.772579718980383"><ele>534.0</ele><time>2026-05-02T07:57:13Z</time></trkpt><trkpt lat="43.75252679639499" lon="11.772694842245873"><ele>533.0</ele><time>2026-05-02T07:57:14Z</time></trkpt><trkpt lat="43.75245810037637" lon="11.772794482006779"><ele>532.0</ele><time>2026-05-02T07:57:15Z</time></trkpt><trkpt lat="43.752404242111034" lon="11.772888591817646"><ele>532.0</ele><time>2026-05-02T07:57:16Z</time></trkpt><trkpt lat="43.752362620607634" lon="11.77298560560503"><ele>532.0</ele><time>2026-05-02T07:57:17Z</time></trkpt><trkpt lat="43.752338159006364" lon="11.773086533093883"><ele>532.0</ele><time>2026-05-02T07:57:18Z</time></trkpt><trkpt lat="43.752329151670764" lon="11.773215423965253"><ele>532.0</ele><time>2026-05-02T07:57:19Z</time></trkpt><trkpt lat="43.75234053879261" lon="11.773367838709433"><ele>532.0</ele><time>2026-05-02T07:57:20Z</time></trkpt><trkpt lat="43.752353164299414" lon="11.773531242726946"><ele>532.6</ele><time>2026-05-02T07:57:21Z</time></trkpt><trkpt lat="43.75236357544395" lon="11.773683136995613"><ele>533.2</ele><time>2026-05-02T07:57:22Z</time></trkpt><trkpt lat="43.75235687812887" lon="11.773829931586183"><ele>533.8</ele><time>2026-05-02T07:57:23Z</time></trkpt><trkpt lat="43.752335149611135" lon="11.773987257584354"><ele>534.4</ele><time>2026-05-02T07:57:24Z</time></trkpt><trkpt lat="43.75230870204965" lon="11.77412443751092"><ele>535.0</ele><time>2026-05-02T07:57:25Z</time></trkpt><trkpt lat="43.75229902210879" lon="11.774253836356507"><ele>534.6666666666667</ele><time>2026-05-02T07:57:26Z</time></trkpt><trkpt lat="43.75230555445078" lon="11.774369329459347"><ele>534.3333333333334</ele><time>2026-05-02T07:57:27Z</time></trkpt><trkpt lat="43.75231564076766" lon="11.774471836908125"><ele>534.0</ele><time>2026-05-02T07:57:28Z</time></trkpt><trkpt lat="43.752346250049364" lon="11.774608484004885"><ele>533.6666666666666</ele><time>2026-05-02T07:57:30Z</time></trkpt><trkpt lat="43.75242089258126" lon="11.77465599510946"><ele>533.3333333333333</ele><time>2026-05-02T07:57:32Z</time></trkpt><trkpt lat="43.752493376432554" lon="11.77462374801496"><ele>533.0</ele><time>2026-05-02T07:57:34Z</time></trkpt><trkpt lat="43.752605485587694" lon="11.774596522632539"><ele>533.0</ele><time>2026-05-02T07:57:36Z</time></trkpt><trkpt lat="43.752675564391275" lon="11.774569942196838"><ele>533.0</ele><time>2026-05-02T07:57:37Z</time></trkpt><trkpt lat="43.75280490762814" lon="11.77455584130182"><ele>533.0</ele><time>2026-05-02T07:57:39Z</time></trkpt><trkpt lat="43.75288085108928" lon="11.77454072175913"><ele>533.0</ele><time>2026-05-02T07:57:40Z</time></trkpt><trkpt lat="43.75295509923997" lon="11.774535622113625"><ele>533.0</ele><time>2026-05-02T07:57:41Z</time></trkpt><trkpt lat="43.75304042056105" lon="11.7745265477268"><ele>533.0</ele><time>2026-05-02T07:57:42Z</time></trkpt><trkpt lat="43.753130993101784" lon="11.77452035140248"><ele>533.0</ele><time>2026-05-02T07:57:43Z</time></trkpt><trkpt lat="43.753227774541685" lon="11.774512565990378"><ele>533.0</ele><time>2026-05-02T07:57:44Z</time></trkpt><trkpt lat="43.753318060676605" lon="11.774507379349972"><ele>533.0</ele><time>2026-05-02T07:57:45Z</time></trkpt><trkpt lat="43.75341650050407" lon="11.774519285022896"><ele>533.0</ele><time>2026-05-02T07:57:46Z</time></trkpt><trkpt lat="43.75351362660394" lon="11.774554840643717"><ele>533.0</ele><time>2026-05-02T07:57:47Z</time></trkpt><trkpt lat="43.753603205462966" lon="11.774620257880676"><ele>534.5</ele><time>2026-05-02T07:57:48Z</time></trkpt><trkpt lat="43.75368653943097" lon="11.774714553125854"><ele>536.0</ele><time>2026-05-02T07:57:49Z</time></trkpt><trkpt lat="43.75376138144189" lon="11.774842765669076"><ele>537.5</ele><time>2026-05-02T07:57:50Z</time></trkpt><trkpt lat="43.75382004370224" lon="11.774981789277104"><ele>539.0</ele><time>2026-05-02T07:57:51Z</time></trkpt><trkpt lat="43.75386975634992" lon="11.775127949912584"><ele>539.2</ele><time>2026-05-02T07:57:52Z</time></trkpt><trkpt lat="43.75390862795591" lon="11.77527569032826"><ele>539.4</ele><time>2026-05-02T07:57:53Z</time></trkpt><trkpt lat="43.75393406814808" lon="11.77542751598773"><ele>539.6</ele><time>2026-05-02T07:57:54Z</time></trkpt><trkpt lat="43.75393963548519" lon="11.775573068700469"><ele>539.8</ele><time>2026-05-02T07:57:55Z</time></trkpt><trkpt lat="43.75392975020225" lon="11.775723307915348"><ele>540.0</ele><time>2026-05-02T07:57:56Z</time></trkpt><trkpt lat="43.7539257376008" lon="11.775861873756698"><ele>540.0</ele><time>2026-05-02T07:57:57Z</time></trkpt><trkpt lat="43.75393378895678" lon="11.775980835662397"><ele>540.0</ele><time>2026-05-02T07:57:58Z</time></trkpt><trkpt lat="43.7539627362127" lon="11.776131894374942"><ele>540.0</ele><time>2026-05-02T07:57:59Z</time></trkpt><trkpt lat="43.75400833310385" lon="11.776271724005442"><ele>540.0</ele><time>2026-05-02T07:58:00Z</time></trkpt><trkpt lat="43.75408059033946" lon="11.776414760972774"><ele>540.0</ele><time>2026-05-02T07:58:01Z</time></trkpt><trkpt lat="43.754166833415375" lon="11.776573726527364"><ele>540.0</ele><time>2026-05-02T07:58:02Z</time></trkpt><trkpt lat="43.7542490819757" lon="11.776724662470503"><ele>540.0</ele><time>2026-05-02T07:58:03Z</time></trkpt><trkpt lat="43.75432029463693" lon="11.77688047086245"><ele>540.0</ele><time>2026-05-02T07:58:04Z</time></trkpt><trkpt lat="43.7543827825753" lon="11.777030504523681"><ele>540.0</ele><time>2026-05-02T07:58:05Z</time></trkpt><trkpt lat="43.754437235642214" lon="11.777183003949222"><ele>540.0</ele><time>2026-05-02T07:58:06Z</time></trkpt><trkpt lat="43.75449157509088" lon="11.777330761400004"><ele>540.0</ele><time>2026-05-02T07:58:07Z</time></trkpt><trkpt lat="43.75455332502365" lon="11.777466348245603"><ele>540.0</ele><time>2026-05-02T07:58:08Z</time></trkpt><trkpt lat="43.75462819774514" lon="11.777610579623406"><ele>540.0</ele><time>2026-05-02T07:58:09Z</time></trkpt><trkpt lat="43.754708235276986" lon="11.777738216242595"><ele>540.6666666666666</ele><time>2026-05-02T07:58:10Z</time></trkpt><trkpt lat="43.75478385513802" lon="11.777845256641625"><ele>541.3333333333334</ele><time>2026-05-02T07:58:11Z</time></trkpt><trkpt lat="43.754838151337786" lon="11.777942484575432"><ele>542.0</ele><time>2026-05-02T07:58:12Z</time></trkpt><trkpt lat="43.75487112475215" lon="11.778033271361931"><ele>542.6666666666667</ele><time>2026-05-02T07:58:13Z</time></trkpt><trkpt lat="43.754892256593834" lon="11.77812154147609"><ele>543.3333333333334</ele><time>2026-05-02T07:58:14Z</time></trkpt><trkpt lat="43.754903655369496" lon="11.778236712734612"><ele>544.0</ele><time>2026-05-02T07:58:16Z</time></trkpt><trkpt lat="43.75484128907849" lon="11.77835350941134"><ele>544.0</ele><time>2026-05-02T07:58:19Z</time></trkpt><trkpt lat="43.754767373644064" lon="11.778390287197118"><ele>544.0</ele><time>2026-05-02T07:58:20Z</time></trkpt><trkpt lat="43.754678878634614" lon="11.778437329208138"><ele>544.0</ele><time>2026-05-02T07:58:21Z</time></trkpt><trkpt lat="43.75457776131648" lon="11.778498710180948"><ele>544.0</ele><time>2026-05-02T07:58:22Z</time></trkpt><trkpt lat="43.754474057138225" lon="11.778571243463908"><ele>544.0</ele><time>2026-05-02T07:58:23Z</time></trkpt><trkpt lat="43.754372018651104" lon="11.778633535810535"><ele>540.6</ele><time>2026-05-02T07:58:24Z</time></trkpt><trkpt lat="43.75427323500891" lon="11.77869483801482"><ele>537.2</ele><time>2026-05-02T07:58:25Z</time></trkpt><trkpt lat="43.75418750671367" lon="11.778773334659563"><ele>533.8000000000001</ele><time>2026-05-02T07:58:26Z</time></trkpt><trkpt lat="43.75412378750166" lon="11.77887623690575"><ele>530.4</ele><time>2026-05-02T07:58:27Z</time></trkpt><trkpt lat="43.75408642370058" lon="11.77901892174074"><ele>527.0</ele><time>2026-05-02T07:58:28Z</time></trkpt><trkpt lat="43.75407285401898" lon="11.779173265217617"><ele>527.0</ele><time>2026-05-02T07:58:29Z</time></trkpt><trkpt lat="43.754084944087204" lon="11.779326507956899"><ele>527.0</ele><time>2026-05-02T07:58:30Z</time></trkpt><trkpt lat="43.75412435526718" lon="11.779478268115856"><ele>527.0</ele><time>2026-05-02T07:58:31Z</time></trkpt><trkpt lat="43.75419384427397" lon="11.779634646882194"><ele>527.0</ele><time>2026-05-02T07:58:32Z</time></trkpt><trkpt lat="43.75427396367974" lon="11.779788928587388"><ele>526.0</ele><time>2026-05-02T07:58:33Z</time></trkpt><trkpt lat="43.75434786012244" lon="11.779944669907108"><ele>525.0</ele><time>2026-05-02T07:58:34Z</time></trkpt><trkpt lat="43.754407823543325" lon="11.780106123442684"><ele>524.0</ele><time>2026-05-02T07:58:35Z</time></trkpt><trkpt lat="43.75444651605404" lon="11.780271091591805"><ele>523.0</ele><time>2026-05-02T07:58:36Z</time></trkpt><trkpt lat="43.75445895532741" lon="11.780429838807116"><ele>521.25</ele><time>2026-05-02T07:58:37Z</time></trkpt><trkpt lat="43.75443796056275" lon="11.780588794955468"><ele>519.5</ele><time>2026-05-02T07:58:38Z</time></trkpt><trkpt lat="43.754386648561415" lon="11.78075324362726"><ele>517.75</ele><time>2026-05-02T07:58:39Z</time></trkpt><trkpt lat="43.75430876259971" lon="11.780921388539241"><ele>516.0</ele><time>2026-05-02T07:58:40Z</time></trkpt><trkpt lat="43.75421754247969" lon="11.78109595146331"><ele>516.0</ele><time>2026-05-02T07:58:41Z</time></trkpt><trkpt lat="43.7541270105293" lon="11.781273874379416"><ele>516.0</ele><time>2026-05-02T07:58:42Z</time></trkpt><trkpt lat="43.75404599277325" lon="11.781430122391754"><ele>516.0</ele><time>2026-05-02T07:58:43Z</time></trkpt><trkpt lat="43.75397751519832" lon="11.781567456265117"><ele>516.0</ele><time>2026-05-02T07:58:44Z</time></trkpt><trkpt lat="43.753897550949226" lon="11.78168125586236"><ele>516.0</ele><time>2026-05-02T07:58:45Z</time></trkpt><trkpt lat="43.75380237639121" lon="11.781764947309494"><ele>516.0</ele><time>2026-05-02T07:58:46Z</time></trkpt><trkpt lat="43.75369690401727" lon="11.781811430245531"><ele>516.0</ele><time>2026-05-02T07:58:47Z</time></trkpt><trkpt lat="43.75357761500444" lon="11.781844171696672"><ele>516.0</ele><time>2026-05-02T07:58:48Z</time></trkpt><trkpt lat="43.75345581963663" lon="11.781865683420229"><ele>513.8</ele><time>2026-05-02T07:58:49Z</time></trkpt><trkpt lat="43.75333934067035" lon="11.781890243335896"><ele>511.6</ele><time>2026-05-02T07:58:50Z</time></trkpt><trkpt lat="43.75323392139471" lon="11.781907749019888"><ele>509.4</ele><time>2026-05-02T07:58:51Z</time></trkpt><trkpt lat="43.75313549854195" lon="11.781937094402894"><ele>507.2</ele><time>2026-05-02T07:58:52Z</time></trkpt><trkpt lat="43.75305417999278" lon="11.78197772267135"><ele>505.0</ele><time>2026-05-02T07:58:53Z</time></trkpt><trkpt lat="43.7529985592454" lon="11.782033254500249"><ele>505.0</ele><time>2026-05-02T07:58:54Z</time></trkpt><trkpt lat="43.75295977672704" lon="11.782145811001717"><ele>505.0</ele><time>2026-05-02T07:58:56Z</time></trkpt><trkpt lat="43.753029843677844" lon="11.782224385512121"><ele>505.0</ele><time>2026-05-02T07:58:58Z</time></trkpt><trkpt lat="43.75314634632609" lon="11.782242562226717"><ele>505.0</ele><time>2026-05-02T07:59:00Z</time></trkpt><trkpt lat="43.753227294205885" lon="11.782263814737494"><ele>505.0</ele><time>2026-05-02T07:59:01Z</time></trkpt><trkpt lat="43.75332218798399" lon="11.782294362385658"><ele>505.00000000000006</ele><time>2026-05-02T07:59:02Z</time></trkpt><trkpt lat="43.75341625222052" lon="11.782332897059925"><ele>505.0</ele><time>2026-05-02T07:59:03Z</time></trkpt><trkpt lat="43.75349558998675" lon="11.78236557420216"><ele>505.0</ele><time>2026-05-02T07:59:04Z</time></trkpt><trkpt lat="43.75356619848534" lon="11.782395021194315"><ele>505.0</ele><time>2026-05-02T07:59:05Z</time></trkpt><trkpt lat="43.753638161836626" lon="11.78242854795048"><ele>505.00000000000006</ele><time>2026-05-02T07:59:06Z</time></trkpt><trkpt lat="43.75370571622025" lon="11.782452830055595"><ele>505.0</ele><time>2026-05-02T07:59:07Z</time></trkpt><trkpt lat="43.753775674259884" lon="11.782484416408796"><ele>506.4</ele><time>2026-05-02T07:59:08Z</time></trkpt><trkpt lat="43.75385429469808" lon="11.782523727940317"><ele>507.8</ele><time>2026-05-02T07:59:09Z</time></trkpt><trkpt lat="43.75394119040714" lon="11.782579955677107"><ele>509.20000000000005</ele><time>2026-05-02T07:59:10Z</time></trkpt><trkpt lat="43.75403639553546" lon="11.782640591782414"><ele>510.6</ele><time>2026-05-02T07:59:11Z</time></trkpt><trkpt lat="43.7541276632305" lon="11.782694181009278"><ele>512.0</ele><time>2026-05-02T07:59:12Z</time></trkpt><trkpt lat="43.754198933031994" lon="11.78272912502463"><ele>512.0</ele><time>2026-05-02T07:59:13Z</time></trkpt><trkpt lat="43.754295642044205" lon="11.782711480266121"><ele>512.0</ele><time>2026-05-02T07:59:15Z</time></trkpt><trkpt lat="43.754353055879584" lon="11.782649559627803"><ele>512.0</ele><time>2026-05-02T07:59:16Z</time></trkpt><trkpt lat="43.75441181307337" lon="11.782557577290081"><ele>512.0</ele><time>2026-05-02T07:59:17Z</time></trkpt><trkpt lat="43.75448025336106" lon="11.782466857122389"><ele>512.0</ele><time>2026-05-02T07:59:18Z</time></trkpt><trkpt lat="43.75456410778063" lon="11.782393863448933"><ele>512.0</ele><time>2026-05-02T07:59:19Z</time></trkpt><trkpt lat="43.754667372741785" lon="11.782319228417457"><ele>512.0</ele><time>2026-05-02T07:59:20Z</time></trkpt><trkpt lat="43.75477292612229" lon="11.782261993541058"><ele>512.0</ele><time>2026-05-02T07:59:21Z</time></trkpt><trkpt lat="43.75487188904058" lon="11.782202742684136"><ele>512.0</ele><time>2026-05-02T07:59:22Z</time></trkpt><trkpt lat="43.75496008048308" lon="11.782151624541946"><ele>512.0</ele><time>2026-05-02T07:59:23Z</time></trkpt><trkpt lat="43.75504733623476" lon="11.78207454319622"><ele>512.0</ele><time>2026-05-02T07:59:24Z</time></trkpt><trkpt lat="43.75513619618493" lon="11.781988148901368"><ele>512.0</ele><time>2026-05-02T07:59:25Z</time></trkpt><trkpt lat="43.755223469158025" lon="11.781905891799747"><ele>512.0</ele><time>2026-05-02T07:59:26Z</time></trkpt><trkpt lat="43.755311172498516" lon="11.781821829111857"><ele>512.0</ele><time>2026-05-02T07:59:27Z</time></trkpt><trkpt lat="43.755388062581446" lon="11.781736348816636"><ele>512.0</ele><time>2026-05-02T07:59:28Z</time></trkpt><trkpt lat="43.75544988349667" lon="11.781682832288764"><ele>513.4</ele><time>2026-05-02T07:59:29Z</time></trkpt><trkpt lat="43.755550278406886" lon="11.781660397209206"><ele>514.8000000000001</ele><time>2026-05-02T07:59:31Z</time></trkpt><trkpt lat="43.75559527280454" lon="11.781832903575781"><ele>516.2</ele><time>2026-05-02T07:59:33Z</time></trkpt><trkpt lat="43.755573457913584" lon="11.78195038638673"><ele>517.6</ele><time>2026-05-02T07:59:34Z</time></trkpt><trkpt lat="43.75554083058395" lon="11.782082081592891"><ele>519.0</ele><time>2026-05-02T07:59:35Z</time></trkpt><trkpt lat="43.75553335729491" lon="11.78219972957239"><ele>519.0</ele><time>2026-05-02T07:59:36Z</time></trkpt><trkpt lat="43.755552186474176" lon="11.782303949441088"><ele>519.0</ele><time>2026-05-02T07:59:37Z</time></trkpt><trkpt lat="43.755590516308054" lon="11.782426233695952"><ele>519.0</ele><time>2026-05-02T07:59:38Z</time></trkpt><trkpt lat="43.75561777662723" lon="11.782538162001215"><ele>519.0</ele><time>2026-05-02T07:59:39Z</time></trkpt><trkpt lat="43.75564717672127" lon="11.782642538768048"><ele>519.0</ele><time>2026-05-02T07:59:40Z</time></trkpt><trkpt lat="43.75568558485423" lon="11.782720835588986"><ele>519.0</ele><time>2026-05-02T07:59:41Z</time></trkpt><trkpt lat="43.75574803180529" lon="11.782807245295087"><ele>517.8</ele><time>2026-05-02T07:59:42Z</time></trkpt><trkpt lat="43.75584194510246" lon="11.782848421921214"><ele>516.5999999999999</ele><time>2026-05-02T07:59:43Z</time></trkpt><trkpt lat="43.7559301357971" lon="11.78292417307177"><ele>515.4</ele><time>2026-05-02T07:59:44Z</time></trkpt><trkpt lat="43.75602525628904" lon="11.783007816257397"><ele>514.1999999999999</ele><time>2026-05-02T07:59:45Z</time></trkpt><trkpt lat="43.75611021256649" lon="11.783092355543609"><ele>513.0</ele><time>2026-05-02T07:59:46Z</time></trkpt><trkpt lat="43.75619928978485" lon="11.78315292425963"><ele>513.0</ele><time>2026-05-02T07:59:47Z</time></trkpt><trkpt lat="43.756313351888906" lon="11.783201530932546"><ele>513.0</ele><time>2026-05-02T07:59:48Z</time></trkpt><trkpt lat="43.7564349077624" lon="11.783237603871482"><ele>513.0</ele><time>2026-05-02T07:59:49Z</time></trkpt><trkpt lat="43.756554767087444" lon="11.78328290233778"><ele>513.0</ele><time>2026-05-02T07:59:50Z</time></trkpt><trkpt lat="43.75666566537179" lon="11.78333302027081"><ele>513.0</ele><time>2026-05-02T07:59:51Z</time></trkpt><trkpt lat="43.75677534823903" lon="11.783396042648164"><ele>513.0</ele><time>2026-05-02T07:59:52Z</time></trkpt><trkpt lat="43.75686445500834" lon="11.783464399565329"><ele>513.0</ele><time>2026-05-02T07:59:53Z</time></trkpt><trkpt lat="43.75694302010441" lon="11.783541509402143"><ele>513.0</ele><time>2026-05-02T07:59:54Z</time></trkpt><trkpt lat="43.75702492743711" lon="11.783602430354938"><ele>513.0</ele><time>2026-05-02T07:59:55Z</time></trkpt><trkpt lat="43.75713255054559" lon="11.783637750078384"><ele>507.75</ele><time>2026-05-02T07:59:56Z</time></trkpt><trkpt lat="43.7572719459072" lon="11.783665148401338"><ele>502.5</ele><time>2026-05-02T07:59:57Z</time></trkpt><trkpt lat="43.75740466627423" lon="11.783707300310212"><ele>497.25</ele><time>2026-05-02T07:59:58Z</time></trkpt><trkpt lat="43.757521124612516" lon="11.783753888789759"><ele>492.0</ele><time>2026-05-02T07:59:59Z</time></trkpt><trkpt lat="43.75761677346539" lon="11.783797309555723"><ele>493.0</ele><time>2026-05-02T08:00:00Z</time></trkpt><trkpt lat="43.75770793514331" lon="11.783826919686948"><ele>494.0</ele><time>2026-05-02T08:00:01Z</time></trkpt><trkpt lat="43.75782517238933" lon="11.783842096626778"><ele>495.0</ele><time>2026-05-02T08:00:02Z</time></trkpt><trkpt lat="43.75795305926972" lon="11.783829136849889"><ele>496.0</ele><time>2026-05-02T08:00:03Z</time></trkpt><trkpt lat="43.75807090852099" lon="11.783807797021877"><ele>496.0</ele><time>2026-05-02T08:00:04Z</time></trkpt><trkpt lat="43.7581796524416" lon="11.783782186005071"><ele>496.0</ele><time>2026-05-02T08:00:05Z</time></trkpt><trkpt lat="43.758279324133746" lon="11.783773155372655"><ele>496.0</ele><time>2026-05-02T08:00:06Z</time></trkpt><trkpt lat="43.75837910563541" lon="11.7838019368608"><ele>496.0</ele><time>2026-05-02T08:00:07Z</time></trkpt><trkpt lat="43.75847287399902" lon="11.783870969426218"><ele>496.0</ele><time>2026-05-02T08:00:08Z</time></trkpt><trkpt lat="43.75854624410502" lon="11.783953702701147"><ele>498.4</ele><time>2026-05-02T08:00:09Z</time></trkpt><trkpt lat="43.75860953409438" lon="11.784040041728977"><ele>500.8</ele><time>2026-05-02T08:00:10Z</time></trkpt><trkpt lat="43.75867929325106" lon="11.7841050207649"><ele>503.19999999999993</ele><time>2026-05-02T08:00:11Z</time></trkpt><trkpt lat="43.75877059737081" lon="11.784141860213843"><ele>505.59999999999997</ele><time>2026-05-02T08:00:12Z</time></trkpt><trkpt lat="43.7588918653803" lon="11.784163394571054"><ele>508.0</ele><time>2026-05-02T08:00:13Z</time></trkpt><trkpt lat="43.759014284830826" lon="11.7841811831153"><ele>508.0</ele><time>2026-05-02T08:00:14Z</time></trkpt><trkpt lat="43.759131145030345" lon="11.784201592402221"><ele>507.99999999999994</ele><time>2026-05-02T08:00:15Z</time></trkpt><trkpt lat="43.75924071765652" lon="11.784234756095652"><ele>507.99999999999994</ele><time>2026-05-02T08:00:16Z</time></trkpt><trkpt lat="43.75934933204866" lon="11.784279794332539"><ele>508.0</ele><time>2026-05-02T08:00:17Z</time></trkpt><trkpt lat="43.7594414283674" lon="11.784348540969628"><ele>508.0</ele><time>2026-05-02T08:00:18Z</time></trkpt><trkpt lat="43.75952330965885" lon="11.784444495278999"><ele>506.59999999999997</ele><time>2026-05-02T08:00:19Z</time></trkpt><trkpt lat="43.75958634451872" lon="11.784563148032737"><ele>505.19999999999993</ele><time>2026-05-02T08:00:20Z</time></trkpt><trkpt lat="43.759626862274544" lon="11.78469111255383"><ele>503.8</ele><time>2026-05-02T08:00:21Z</time></trkpt><trkpt lat="43.75966496875305" lon="11.784816881130768"><ele>502.4</ele><time>2026-05-02T08:00:22Z</time></trkpt><trkpt lat="43.759706074650964" lon="11.784928315443503"><ele>501.0</ele><time>2026-05-02T08:00:23Z</time></trkpt><trkpt lat="43.75976250878811" lon="11.785010295931999"><ele>501.0</ele><time>2026-05-02T08:00:24Z</time></trkpt><trkpt lat="43.75983355970103" lon="11.785059683538924"><ele>501.0</ele><time>2026-05-02T08:00:25Z</time></trkpt><trkpt lat="43.759919295354024" lon="11.785083116419907"><ele>501.0</ele><time>2026-05-02T08:00:26Z</time></trkpt><trkpt lat="43.76002894628152" lon="11.785090811300643"><ele>501.0</ele><time>2026-05-02T08:00:27Z</time></trkpt><trkpt lat="43.76012176145981" lon="11.785137084627516"><ele>501.0</ele><time>2026-05-02T08:00:28Z</time></trkpt><trkpt lat="43.76019191920827" lon="11.785216695578587"><ele>500.0</ele><time>2026-05-02T08:00:29Z</time></trkpt><trkpt lat="43.76022929210688" lon="11.78531849660958"><ele>499.0</ele><time>2026-05-02T08:00:30Z</time></trkpt><trkpt lat="43.76025765397203" lon="11.785456666653749"><ele>498.0</ele><time>2026-05-02T08:00:31Z</time></trkpt><trkpt lat="43.760294886399194" lon="11.785593008941285"><ele>497.0</ele><time>2026-05-02T08:00:32Z</time></trkpt><trkpt lat="43.76035738215543" lon="11.785700739379514"><ele>496.0</ele><time>2026-05-02T08:00:33Z</time></trkpt><trkpt lat="43.76043684356955" lon="11.785791380846476"><ele>496.0</ele><time>2026-05-02T08:00:34Z</time></trkpt><trkpt lat="43.760511242796724" lon="11.78586013012924"><ele>496.0</ele><time>2026-05-02T08:00:35Z</time></trkpt><trkpt lat="43.76058340424096" lon="11.785909737291524"><ele>496.0</ele><time>2026-05-02T08:00:36Z</time></trkpt><trkpt lat="43.76069944808445" lon="11.78598840410627"><ele>496.0</ele><time>2026-05-02T08:00:38Z</time></trkpt><trkpt lat="43.76072049760863" lon="11.786104163626456"><ele>496.0</ele><time>2026-05-02T08:00:40Z</time></trkpt><trkpt lat="43.76064302697129" lon="11.786261491601435"><ele>496.50000000000006</ele><time>2026-05-02T08:00:42Z</time></trkpt><trkpt lat="43.760590921224605" lon="11.786352729508716"><ele>497.0</ele><time>2026-05-02T08:00:43Z</time></trkpt><trkpt lat="43.76055940293439" lon="11.786471957580723"><ele>497.5</ele><time>2026-05-02T08:00:44Z</time></trkpt><trkpt lat="43.760557610657834" lon="11.786591478395243"><ele>498.0</ele><time>2026-05-02T08:00:45Z</time></trkpt><trkpt lat="43.760581179419326" lon="11.78671023877218"><ele>498.50000000000006</ele><time>2026-05-02T08:00:46Z</time></trkpt><trkpt lat="43.76063564201125" lon="11.786820951785431"><ele>499.0</ele><time>2026-05-02T08:00:47Z</time></trkpt><trkpt lat="43.76070679614151" lon="11.786929233026209"><ele>500.6</ele><time>2026-05-02T08:00:48Z</time></trkpt><trkpt lat="43.76076668395539" lon="11.787040049847578"><ele>502.2</ele><time>2026-05-02T08:00:49Z</time></trkpt><trkpt lat="43.760827041062974" lon="11.787154316948802"><ele>503.80000000000007</ele><time>2026-05-02T08:00:50Z</time></trkpt><trkpt lat="43.760900536057626" lon="11.787261648766664"><ele>505.40000000000003</ele><time>2026-05-02T08:00:51Z</time></trkpt><trkpt lat="43.760989208580924" lon="11.787369167768633"><ele>507.0</ele><time>2026-05-02T08:00:52Z</time></trkpt><trkpt lat="43.76108049616407" lon="11.787458546884121"><ele>507.0</ele><time>2026-05-02T08:00:53Z</time></trkpt><trkpt lat="43.76117680928915" lon="11.787545887117542"><ele>507.0</ele><time>2026-05-02T08:00:54Z</time></trkpt><trkpt lat="43.7612752523091" lon="11.78762810438013"><ele>507.0</ele><time>2026-05-02T08:00:55Z</time></trkpt><trkpt lat="43.76138797699471" lon="11.787690844590376"><ele>507.0</ele><time>2026-05-02T08:00:56Z</time></trkpt><trkpt lat="43.76150547192771" lon="11.787736858578187"><ele>509.75</ele><time>2026-05-02T08:00:57Z</time></trkpt><trkpt lat="43.761626042221714" lon="11.78776600453515"><ele>512.5</ele><time>2026-05-02T08:00:58Z</time></trkpt><trkpt lat="43.76175432644871" lon="11.787798401314198"><ele>515.25</ele><time>2026-05-02T08:00:59Z</time></trkpt><trkpt lat="43.76187104043648" lon="11.787835249304223"><ele>518.0</ele><time>2026-05-02T08:01:00Z</time></trkpt><trkpt lat="43.76197222917933" lon="11.787876723027523"><ele>518.0</ele><time>2026-05-02T08:01:01Z</time></trkpt><trkpt lat="43.76203927821811" lon="11.787904062665552"><ele>518.0</ele><time>2026-05-02T08:01:02Z</time></trkpt><trkpt lat="43.76210794713033" lon="11.787937280590288"><ele>518.0</ele><time>2026-05-02T08:01:04Z</time></trkpt><trkpt lat="43.76203838548513" lon="11.787835772737502"><ele>518.0</ele><time>2026-05-02T08:01:09Z</time></trkpt><trkpt lat="43.761935877677544" lon="11.787842476407768"><ele>518.0</ele><time>2026-05-02T08:01:11Z</time></trkpt><trkpt lat="43.76183823231932" lon="11.78781608009451"><ele>518.0</ele><time>2026-05-02T08:01:13Z</time></trkpt><trkpt lat="43.76176005958236" lon="11.787812596210356"><ele>519.4</ele><time>2026-05-02T08:01:15Z</time></trkpt><trkpt lat="43.7616638487885" lon="11.78791827852077"><ele>520.8</ele><time>2026-05-02T08:01:24Z</time></trkpt><trkpt lat="43.76159692793219" lon="11.787948617107993"><ele>522.2</ele><time>2026-05-02T08:01:25Z</time></trkpt><trkpt lat="43.761520791315235" lon="11.78793607031191"><ele>523.6</ele><time>2026-05-02T08:01:26Z</time></trkpt><trkpt lat="43.76145813074825" lon="11.787924878730923"><ele>525.0</ele><time>2026-05-02T08:01:27Z</time></trkpt><trkpt lat="43.761354188257876" lon="11.788008986458093"><ele>525.0</ele><time>2026-05-02T08:01:29Z</time></trkpt><trkpt lat="43.76130789291797" lon="11.788104640223786"><ele>525.0</ele><time>2026-05-02T08:01:30Z</time></trkpt><trkpt lat="43.761258967740346" lon="11.788198187276569"><ele>525.0</ele><time>2026-05-02T08:01:31Z</time></trkpt><trkpt lat="43.761226219501154" lon="11.788292285650712"><ele>525.0</ele><time>2026-05-02T08:01:32Z</time></trkpt><trkpt lat="43.76118726781669" lon="11.788386337526624"><ele>525.0</ele><time>2026-05-02T08:01:33Z</time></trkpt><trkpt lat="43.76116440941714" lon="11.788501052644884"><ele>525.0</ele><time>2026-05-02T08:01:34Z</time></trkpt><trkpt lat="43.76114563170931" lon="11.788610078541971"><ele>527.3333333333334</ele><time>2026-05-02T08:01:35Z</time></trkpt><trkpt lat="43.76111797551818" lon="11.788710880761842"><ele>529.6666666666666</ele><time>2026-05-02T08:01:36Z</time></trkpt><trkpt lat="43.76108164434015" lon="11.788790379535367"><ele>532.0</ele><time>2026-05-02T08:01:37Z</time></trkpt><trkpt lat="43.76103312329362" lon="11.788856883475296"><ele>534.3333333333333</ele><time>2026-05-02T08:01:38Z</time></trkpt><trkpt lat="43.76099335251525" lon="11.788926942817382"><ele>536.6666666666666</ele><time>2026-05-02T08:01:39Z</time></trkpt><trkpt lat="43.76094130196471" lon="11.789031463168145"><ele>539.0</ele><time>2026-05-02T08:01:41Z</time></trkpt><trkpt lat="43.76090906360289" lon="11.789140708628908"><ele>539.5</ele><time>2026-05-02T08:01:43Z</time></trkpt><trkpt lat="43.760904988751015" lon="11.789264482249987"><ele>540.0</ele><time>2026-05-02T08:01:45Z</time></trkpt><trkpt lat="43.76089171051556" lon="11.789366411761499"><ele>540.5</ele><time>2026-05-02T08:01:47Z</time></trkpt><trkpt lat="43.76089039102919" lon="11.789476684310154"><ele>541.0</ele><time>2026-05-02T08:01:49Z</time></trkpt><trkpt lat="43.76089653046016" lon="11.78958062373851"><ele>541.5</ele><time>2026-05-02T08:01:51Z</time></trkpt><trkpt lat="43.76095819982324" lon="11.789618035515705"><ele>542.0</ele><time>2026-05-02T08:02:25Z</time></trkpt><trkpt lat="43.761029555220794" lon="11.789628139669794"><ele>543.1666666666666</ele><time>2026-05-02T08:02:27Z</time></trkpt><trkpt lat="43.76109110570307" lon="11.789673938838193"><ele>544.3333333333333</ele><time>2026-05-02T08:02:30Z</time></trkpt><trkpt lat="43.761093500451715" lon="11.789787469313078"><ele>545.5</ele><time>2026-05-02T08:02:33Z</time></trkpt><trkpt lat="43.76101692171498" lon="11.789853664314027"><ele>546.6666666666666</ele><time>2026-05-02T08:02:35Z</time></trkpt><trkpt lat="43.76097966336196" lon="11.789959989461622"><ele>547.8333333333334</ele><time>2026-05-02T08:02:37Z</time></trkpt><trkpt lat="43.76093196001999" lon="11.790079220113205"><ele>549.0</ele><time>2026-05-02T08:02:39Z</time></trkpt><trkpt lat="43.760891383088484" lon="11.790212760629966"><ele>550.6</ele><time>2026-05-02T08:02:41Z</time></trkpt><trkpt lat="43.760845676471924" lon="11.790329099238068"><ele>552.2</ele><time>2026-05-02T08:02:43Z</time></trkpt><trkpt lat="43.76081181589358" lon="11.79044301784859"><ele>553.8000000000001</ele><time>2026-05-02T08:02:45Z</time></trkpt><trkpt lat="43.76078226261842" lon="11.790532186520949"><ele>555.4</ele><time>2026-05-02T08:02:47Z</time></trkpt><trkpt lat="43.760684763459665" lon="11.7904706441793"><ele>557.0</ele><time>2026-05-02T08:02:51Z</time></trkpt><trkpt lat="43.76058459048852" lon="11.790410238409244"><ele>557.0</ele><time>2026-05-02T08:02:53Z</time></trkpt><trkpt lat="43.76047653077487" lon="11.790345738986275"><ele>557.0</ele><time>2026-05-02T08:02:55Z</time></trkpt><trkpt lat="43.76035966589767" lon="11.790277686882462"><ele>557.0</ele><time>2026-05-02T08:02:57Z</time></trkpt><trkpt lat="43.760296861587854" lon="11.790254130253768"><ele>557.0</ele><time>2026-05-02T08:02:58Z</time></trkpt><trkpt lat="43.76023054083952" lon="11.790221256200901"><ele>557.0</ele><time>2026-05-02T08:02:59Z</time></trkpt><trkpt lat="43.760168615999305" lon="11.790186635340515"><ele>557.0</ele><time>2026-05-02T08:03:00Z</time></trkpt><trkpt lat="43.76010212377907" lon="11.790158145719102"><ele>556.5</ele><time>2026-05-02T08:03:01Z</time></trkpt><trkpt lat="43.76002520821311" lon="11.790136856472298"><ele>556.0</ele><time>2026-05-02T08:03:02Z</time></trkpt><trkpt lat="43.759938288978454" lon="11.790139530906593"><ele>555.5</ele><time>2026-05-02T08:03:03Z</time></trkpt><trkpt lat="43.759840643613174" lon="11.790171813791888"><ele>555.0</ele><time>2026-05-02T08:03:04Z</time></trkpt><trkpt lat="43.75975717742311" lon="11.790224719806066"><ele>554.5</ele><time>2026-05-02T08:03:05Z</time></trkpt><trkpt lat="43.75968093685809" lon="11.790294529586482"><ele>554.0</ele><time>2026-05-02T08:03:06Z</time></trkpt><trkpt lat="43.75961023754554" lon="11.790384538779266"><ele>554.6</ele><time>2026-05-02T08:03:07Z</time></trkpt><trkpt lat="43.759548733360745" lon="11.7904905911759"><ele>555.2</ele><time>2026-05-02T08:03:08Z</time></trkpt><trkpt lat="43.759470719285574" lon="11.79058756687852"><ele>555.8000000000001</ele><time>2026-05-02T08:03:09Z</time></trkpt><trkpt lat="43.75940176608918" lon="11.790710527095618"><ele>556.4</ele><time>2026-05-02T08:03:10Z</time></trkpt><trkpt lat="43.75932567884192" lon="11.790842955256155"><ele>557.0</ele><time>2026-05-02T08:03:11Z</time></trkpt><trkpt lat="43.75925032506535" lon="11.790973693659442"><ele>557.6</ele><time>2026-05-02T08:03:12Z</time></trkpt><trkpt lat="43.759177477450926" lon="11.791099842002296"><ele>558.2</ele><time>2026-05-02T08:03:13Z</time></trkpt><trkpt lat="43.75910556337273" lon="11.791224373762095"><ele>558.8</ele><time>2026-05-02T08:03:14Z</time></trkpt><trkpt lat="43.75903524907527" lon="11.79134613526274"><ele>559.4</ele><time>2026-05-02T08:03:15Z</time></trkpt><trkpt lat="43.75896916275964" lon="11.791457701398594"><ele>560.0</ele><time>2026-05-02T08:03:16Z</time></trkpt><trkpt lat="43.75891397344601" lon="11.79157757103691"><ele>560.0</ele><time>2026-05-02T08:03:17Z</time></trkpt><trkpt lat="43.75882873963647" lon="11.791672472568997"><ele>560.0</ele><time>2026-05-02T08:03:18Z</time></trkpt><trkpt lat="43.758718419558086" lon="11.791728814880146"><ele>560.0</ele><time>2026-05-02T08:03:19Z</time></trkpt><trkpt lat="43.7586007399558" lon="11.79179972247179"><ele>560.0</ele><time>2026-05-02T08:03:20Z</time></trkpt><trkpt lat="43.758480995148375" lon="11.791871188188876"><ele>559.75</ele><time>2026-05-02T08:03:21Z</time></trkpt><trkpt lat="43.75835984146107" lon="11.791944003817378"><ele>559.5</ele><time>2026-05-02T08:03:22Z</time></trkpt><trkpt lat="43.75824613342703" lon="11.792036226354764"><ele>559.25</ele><time>2026-05-02T08:03:23Z</time></trkpt><trkpt lat="43.75812773929696" lon="11.792081033428962"><ele>559.0</ele><time>2026-05-02T08:03:24Z</time></trkpt><trkpt lat="43.758017901377634" lon="11.792145265590284"><ele>559.0</ele><time>2026-05-02T08:03:25Z</time></trkpt><trkpt lat="43.75790622084054" lon="11.792210575294172"><ele>559.0</ele><time>2026-05-02T08:03:26Z</time></trkpt><trkpt lat="43.75779266237716" lon="11.792277153871282"><ele>559.0</ele><time>2026-05-02T08:03:27Z</time></trkpt><trkpt lat="43.757676453808074" lon="11.79234670126002"><ele>559.0</ele><time>2026-05-02T08:03:28Z</time></trkpt><trkpt lat="43.75756182043919" lon="11.792407939200547"><ele>557.0</ele><time>2026-05-02T08:03:29Z</time></trkpt><trkpt lat="43.75744796749228" lon="11.792447173842788"><ele>555.0</ele><time>2026-05-02T08:03:30Z</time></trkpt><trkpt lat="43.75732877452488" lon="11.792475059883706"><ele>553.0</ele><time>2026-05-02T08:03:31Z</time></trkpt><trkpt lat="43.757206723619" lon="11.792487043498642"><ele>551.0</ele><time>2026-05-02T08:03:32Z</time></trkpt><trkpt lat="43.757086060599924" lon="11.792503949274694"><ele>551.0</ele><time>2026-05-02T08:03:33Z</time></trkpt><trkpt lat="43.75697855322129" lon="11.792551325995229"><ele>551.0</ele><time>2026-05-02T08:03:34Z</time></trkpt><trkpt lat="43.7568800510077" lon="11.792607225113025"><ele>551.0</ele><time>2026-05-02T08:03:35Z</time></trkpt><trkpt lat="43.75678150738761" lon="11.792697253941219"><ele>551.0</ele><time>2026-05-02T08:03:36Z</time></trkpt><trkpt lat="43.756682511624994" lon="11.79280182149552"><ele>553.5</ele><time>2026-05-02T08:03:37Z</time></trkpt><trkpt lat="43.756575412610616" lon="11.79288740243575"><ele>556.0</ele><time>2026-05-02T08:03:38Z</time></trkpt><trkpt lat="43.75646111843771" lon="11.792901678802489"><ele>558.5</ele><time>2026-05-02T08:03:39Z</time></trkpt><trkpt lat="43.75634723191301" lon="11.79291591554666"><ele>561.0</ele><time>2026-05-02T08:03:40Z</time></trkpt><trkpt lat="43.75623438232202" lon="11.79295441283859"><ele>561.0</ele><time>2026-05-02T08:03:41Z</time></trkpt><trkpt lat="43.75611328969781" lon="11.792973033318011"><ele>561.0</ele><time>2026-05-02T08:03:42Z</time></trkpt><trkpt lat="43.75600632555248" lon="11.793011492276245"><ele>561.0</ele><time>2026-05-02T08:03:43Z</time></trkpt><trkpt lat="43.7559169908738" lon="11.793070233402478"><ele>561.0</ele><time>2026-05-02T08:03:44Z</time></trkpt><trkpt lat="43.75584957954782" lon="11.793135847546694"><ele>561.0</ele><time>2026-05-02T08:03:45Z</time></trkpt><trkpt lat="43.755808447531365" lon="11.793206978766051"><ele>561.3333333333334</ele><time>2026-05-02T08:03:46Z</time></trkpt><trkpt lat="43.75577270498298" lon="11.7932914441804"><ele>561.6666666666666</ele><time>2026-05-02T08:03:47Z</time></trkpt><trkpt lat="43.75575029523082" lon="11.793397000591348"><ele>562.0</ele><time>2026-05-02T08:03:48Z</time></trkpt><trkpt lat="43.75571971057734" lon="11.793508025850722"><ele>562.3333333333333</ele><time>2026-05-02T08:03:49Z</time></trkpt><trkpt lat="43.7556852012883" lon="11.79362848378249"><ele>562.6666666666666</ele><time>2026-05-02T08:03:50Z</time></trkpt><trkpt lat="43.75564395957471" lon="11.793764688200392"><ele>563.0</ele><time>2026-05-02T08:03:51Z</time></trkpt><trkpt lat="43.75560701223273" lon="11.79391581423319"><ele>565.5</ele><time>2026-05-02T08:03:52Z</time></trkpt><trkpt lat="43.75556407128782" lon="11.794080845064318"><ele>568.0</ele><time>2026-05-02T08:03:53Z</time></trkpt><trkpt lat="43.75551464185437" lon="11.794255589395387"><ele>570.5</ele><time>2026-05-02T08:03:54Z</time></trkpt><trkpt lat="43.75545608930333" lon="11.794418171234335"><ele>573.0</ele><time>2026-05-02T08:03:55Z</time></trkpt><trkpt lat="43.7553687540449" lon="11.794545207697086"><ele>573.6</ele><time>2026-05-02T08:03:56Z</time></trkpt><trkpt lat="43.75529388819215" lon="11.794680836956799"><ele>574.1999999999999</ele><time>2026-05-02T08:03:57Z</time></trkpt><trkpt lat="43.755213446123804" lon="11.79478168443013"><ele>574.8</ele><time>2026-05-02T08:03:58Z</time></trkpt><trkpt lat="43.75515614626769" lon="11.794865553905664"><ele>575.4</ele><time>2026-05-02T08:03:59Z</time></trkpt><trkpt lat="43.755075911663695" lon="11.794949079317593"><ele>576.0</ele><time>2026-05-02T08:04:01Z</time></trkpt><trkpt lat="43.755015473149705" lon="11.795032259175098"><ele>578.8</ele><time>2026-05-02T08:04:15Z</time></trkpt><trkpt lat="43.755005481848364" lon="11.795213842021727"><ele>581.6</ele><time>2026-05-02T08:04:17Z</time></trkpt><trkpt lat="43.75493095476682" lon="11.79525508169917"><ele>584.4</ele><time>2026-05-02T08:04:19Z</time></trkpt><trkpt lat="43.754924399044484" lon="11.795344979723371"><ele>587.2</ele><time>2026-05-02T08:04:23Z</time></trkpt><trkpt lat="43.75495255452346" lon="11.795489264345193"><ele>590.0</ele><time>2026-05-02T08:04:25Z</time></trkpt><trkpt lat="43.754978517166684" lon="11.795608967384704"><ele>590.0</ele><time>2026-05-02T08:04:27Z</time></trkpt><trkpt lat="43.754998683104" lon="11.795752485985687"><ele>590.0</ele><time>2026-05-02T08:04:29Z</time></trkpt><trkpt lat="43.75500846004399" lon="11.79590259879244"><ele>590.0</ele><time>2026-05-02T08:04:31Z</time></trkpt><trkpt lat="43.75501932617309" lon="11.796057400988868"><ele>590.0</ele><time>2026-05-02T08:04:33Z</time></trkpt><trkpt lat="43.755010005584104" lon="11.796160991961978"><ele>590.0</ele><time>2026-05-02T08:04:35Z</time></trkpt><trkpt lat="43.754926071385846" lon="11.796191099123384"><ele>590.7142857142858</ele><time>2026-05-02T08:04:39Z</time></trkpt><trkpt lat="43.7548624973957" lon="11.796225068310413"><ele>591.4285714285714</ele><time>2026-05-02T08:04:41Z</time></trkpt><trkpt lat="43.75482344133956" lon="11.796345735082985"><ele>592.1428571428571</ele><time>2026-05-02T08:04:43Z</time></trkpt><trkpt lat="43.75479559917688" lon="11.796440889185279"><ele>592.8571428571429</ele><time>2026-05-02T08:04:44Z</time></trkpt><trkpt lat="43.754766474772524" lon="11.7965338442561"><ele>593.5714285714286</ele><time>2026-05-02T08:04:45Z</time></trkpt><trkpt lat="43.754735050304156" lon="11.796620690467812"><ele>594.2857142857143</ele><time>2026-05-02T08:04:46Z</time></trkpt><trkpt lat="43.75470360479991" lon="11.796702121970243"><ele>595.0</ele><time>2026-05-02T08:04:47Z</time></trkpt><trkpt lat="43.75467332885378" lon="11.796793569202828"><ele>594.6666666666667</ele><time>2026-05-02T08:04:48Z</time></trkpt><trkpt lat="43.75463966780675" lon="11.796873940506433"><ele>594.3333333333334</ele><time>2026-05-02T08:04:49Z</time></trkpt><trkpt lat="43.75460302244252" lon="11.796956315050648"><ele>594.0</ele><time>2026-05-02T08:04:50Z</time></trkpt><trkpt lat="43.75456194121971" lon="11.797040927601676"><ele>593.6666666666666</ele><time>2026-05-02T08:04:51Z</time></trkpt><trkpt lat="43.754516042895695" lon="11.797117727259531"><ele>593.3333333333333</ele><time>2026-05-02T08:04:52Z</time></trkpt><trkpt lat="43.75445666878376" lon="11.797220368839648"><ele>593.0</ele><time>2026-05-02T08:04:53Z</time></trkpt><trkpt lat="43.75438662545771" lon="11.797289718926915"><ele>591.6666666666666</ele><time>2026-05-02T08:04:54Z</time></trkpt><trkpt lat="43.75430664553457" lon="11.797345532632422"><ele>590.3333333333333</ele><time>2026-05-02T08:04:55Z</time></trkpt><trkpt lat="43.75424088293291" lon="11.797380036589097"><ele>589.0</ele><time>2026-05-02T08:04:56Z</time></trkpt><trkpt lat="43.75417000745814" lon="11.797422376620911"><ele>587.6666666666666</ele><time>2026-05-02T08:04:57Z</time></trkpt><trkpt lat="43.75409570950902" lon="11.797460099587179"><ele>586.3333333333334</ele><time>2026-05-02T08:04:58Z</time></trkpt><trkpt lat="43.75401908213202" lon="11.79750107788029"><ele>585.0</ele><time>2026-05-02T08:04:59Z</time></trkpt><trkpt lat="43.75394496629415" lon="11.797541184841615"><ele>585.0</ele><time>2026-05-02T08:05:00Z</time></trkpt><trkpt lat="43.753871521626735" lon="11.797585319599477"><ele>585.0</ele><time>2026-05-02T08:05:01Z</time></trkpt><trkpt lat="43.75380185708643" lon="11.79763125340354"><ele>585.0</ele><time>2026-05-02T08:05:02Z</time></trkpt><trkpt lat="43.75372195775444" lon="11.797692789388764"><ele>585.0</ele><time>2026-05-02T08:05:03Z</time></trkpt><trkpt lat="43.753652134520785" lon="11.79774091529726"><ele>585.0</ele><time>2026-05-02T08:05:04Z</time></trkpt><trkpt lat="43.75357717127207" lon="11.79781281754674"><ele>585.0</ele><time>2026-05-02T08:05:05Z</time></trkpt><trkpt lat="43.753509613800084" lon="11.797889827196176"><ele>584.2</ele><time>2026-05-02T08:05:06Z</time></trkpt><trkpt lat="43.75344300028487" lon="11.797977459068814"><ele>583.4</ele><time>2026-05-02T08:05:07Z</time></trkpt><trkpt lat="43.75338901845554" lon="11.798046472381447"><ele>582.6</ele><time>2026-05-02T08:05:08Z</time></trkpt><trkpt lat="43.75331631421212" lon="11.79812251080568"><ele>581.8</ele><time>2026-05-02T08:05:10Z</time></trkpt><trkpt lat="43.75336908473956" lon="11.798040952299054"><ele>581.0</ele><time>2026-05-02T08:05:27Z</time></trkpt><trkpt lat="43.753458495096034" lon="11.797938251738165"><ele>581.0</ele><time>2026-05-02T08:05:29Z</time></trkpt><trkpt lat="43.75353371848998" lon="11.797868343413214"><ele>581.0</ele><time>2026-05-02T08:05:31Z</time></trkpt><trkpt lat="43.753600459612386" lon="11.797939604664398"><ele>581.0</ele><time>2026-05-02T08:05:34Z</time></trkpt><trkpt lat="43.75362440118068" lon="11.798037926767973"><ele>581.0</ele><time>2026-05-02T08:05:36Z</time></trkpt><trkpt lat="43.753655966789864" lon="11.79814055480354"><ele>581.0</ele><time>2026-05-02T08:05:38Z</time></trkpt><trkpt lat="43.753673289651324" lon="11.798302285635296"><ele>581.0</ele><time>2026-05-02T08:05:40Z</time></trkpt><trkpt lat="43.75371188909353" lon="11.79844536077409"><ele>581.3333333333333</ele><time>2026-05-02T08:05:42Z</time></trkpt><trkpt lat="43.753788502885804" lon="11.798504850690115"><ele>581.6666666666666</ele><time>2026-05-02T08:05:45Z</time></trkpt><trkpt lat="43.75387583155324" lon="11.798469544504593"><ele>582.0</ele><time>2026-05-02T08:05:47Z</time></trkpt><trkpt lat="43.75390745919134" lon="11.798549206498116"><ele>582.3333333333334</ele><time>2026-05-02T08:05:50Z</time></trkpt><trkpt lat="43.753877304828656" lon="11.798644734979026"><ele>582.6666666666667</ele><time>2026-05-02T08:05:52Z</time></trkpt><trkpt lat="43.75380664645978" lon="11.798765424785092"><ele>583.0</ele><time>2026-05-02T08:05:54Z</time></trkpt><trkpt lat="43.753766521128405" lon="11.79883817336911"><ele>583.1999999999999</ele><time>2026-05-02T08:05:55Z</time></trkpt><trkpt lat="43.753707179962255" lon="11.798944810635556"><ele>583.4</ele><time>2026-05-02T08:05:57Z</time></trkpt><trkpt lat="43.75364760542928" lon="11.799041848179112"><ele>583.5999999999999</ele><time>2026-05-02T08:05:59Z</time></trkpt><trkpt lat="43.75356469119561" lon="11.799151685476803"><ele>583.8</ele><time>2026-05-02T08:06:01Z</time></trkpt><trkpt lat="43.75348859116839" lon="11.799273994111465"><ele>584.0</ele><time>2026-05-02T08:06:03Z</time></trkpt><trkpt lat="43.753427732940665" lon="11.799398336724783"><ele>583.5</ele><time>2026-05-02T08:06:05Z</time></trkpt><trkpt lat="43.753393150759536" lon="11.799522969086407"><ele>583.0</ele><time>2026-05-02T08:06:07Z</time></trkpt><trkpt lat="43.75338256170309" lon="11.799623115681758"><ele>582.5</ele><time>2026-05-02T08:06:09Z</time></trkpt><trkpt lat="43.753405001808204" lon="11.799706679619934"><ele>582.0</ele><time>2026-05-02T08:06:11Z</time></trkpt><trkpt lat="43.753457102816505" lon="11.799837406826683"><ele>581.5</ele><time>2026-05-02T08:06:13Z</time></trkpt><trkpt lat="43.75349993856868" lon="11.799941193050497"><ele>581.0</ele><time>2026-05-02T08:06:15Z</time></trkpt><trkpt lat="43.7535288156582" lon="11.80003370701114"><ele>581.0</ele><time>2026-05-02T08:06:17Z</time></trkpt><trkpt lat="43.75347367155963" lon="11.800091759796752"><ele>581.0</ele><time>2026-05-02T08:06:27Z</time></trkpt><trkpt lat="43.75341782837023" lon="11.800207166553177"><ele>581.0</ele><time>2026-05-02T08:06:30Z</time></trkpt><trkpt lat="43.753351658017536" lon="11.800223743918329"><ele>581.0</ele><time>2026-05-02T08:06:32Z</time></trkpt><trkpt lat="43.75326502586445" lon="11.80021530316273"><ele>581.0</ele><time>2026-05-02T08:06:34Z</time></trkpt><trkpt lat="43.753159535503556" lon="11.800205278504851"><ele>581.0</ele><time>2026-05-02T08:06:36Z</time></trkpt><trkpt lat="43.753052889472826" lon="11.80022649755014"><ele>580.5</ele><time>2026-05-02T08:06:38Z</time></trkpt><trkpt lat="43.75295282996939" lon="11.800290194517567"><ele>580.0</ele><time>2026-05-02T08:06:40Z</time></trkpt><trkpt lat="43.752895040119505" lon="11.80033893765238"><ele>579.5</ele><time>2026-05-02T08:06:41Z</time></trkpt><trkpt lat="43.752833751882484" lon="11.800394316469554"><ele>579.0</ele><time>2026-05-02T08:06:42Z</time></trkpt><trkpt lat="43.75277653984679" lon="11.800458062837027"><ele>578.5</ele><time>2026-05-02T08:06:43Z</time></trkpt><trkpt lat="43.75272777093926" lon="11.800517172607968"><ele>578.0</ele><time>2026-05-02T08:06:44Z</time></trkpt><trkpt lat="43.75265736959929" lon="11.800639960065812"><ele>578.0</ele><time>2026-05-02T08:06:46Z</time></trkpt><trkpt lat="43.75260848808845" lon="11.800732329688161"><ele>578.0</ele><time>2026-05-02T08:06:48Z</time></trkpt><trkpt lat="43.75256829174515" lon="11.800844237004355"><ele>578.0</ele><time>2026-05-02T08:06:50Z</time></trkpt><trkpt lat="43.752543061424724" lon="11.800934448769583"><ele>578.0</ele><time>2026-05-02T08:06:53Z</time></trkpt><trkpt lat="43.752516021121906" lon="11.80102208612342"><ele>578.0</ele><time>2026-05-02T08:06:55Z</time></trkpt><trkpt lat="43.75249247625121" lon="11.801145787710974"><ele>578.0</ele><time>2026-05-02T08:06:58Z</time></trkpt><trkpt lat="43.75244050337315" lon="11.801212784310726"><ele>579.6</ele><time>2026-05-02T08:07:00Z</time></trkpt><trkpt lat="43.75236039651711" lon="11.801234502565245"><ele>581.1999999999999</ele><time>2026-05-02T08:07:02Z</time></trkpt><trkpt lat="43.75228703860888" lon="11.80123793532025"><ele>582.8</ele><time>2026-05-02T08:07:03Z</time></trkpt><trkpt lat="43.752214300129715" lon="11.80123386940068"><ele>584.4</ele><time>2026-05-02T08:07:04Z</time></trkpt><trkpt lat="43.752105015146114" lon="11.80124660711083"><ele>586.0</ele><time>2026-05-02T08:07:06Z</time></trkpt><trkpt lat="43.75198529866269" lon="11.801258774337551"><ele>586.0</ele><time>2026-05-02T08:07:08Z</time></trkpt><trkpt lat="43.751919948138756" lon="11.801265086189835"><ele>586.0</ele><time>2026-05-02T08:07:09Z</time></trkpt><trkpt lat="43.75185106087168" lon="11.801257632063077"><ele>586.0</ele><time>2026-05-02T08:07:10Z</time></trkpt><trkpt lat="43.75177786344147" lon="11.801245233765318"><ele>586.0</ele><time>2026-05-02T08:07:11Z</time></trkpt><trkpt lat="43.75166464802338" lon="11.801266562670724"><ele>586.0</ele><time>2026-05-02T08:07:13Z</time></trkpt><trkpt lat="43.751558076875526" lon="11.801324563162334"><ele>586.0</ele><time>2026-05-02T08:07:15Z</time></trkpt><trkpt lat="43.75146816298603" lon="11.801370708967232"><ele>583.8</ele><time>2026-05-02T08:07:17Z</time></trkpt><trkpt lat="43.751369886702626" lon="11.80140473136313"><ele>581.6</ele><time>2026-05-02T08:07:19Z</time></trkpt><trkpt lat="43.751280395255144" lon="11.801488199665327"><ele>579.4</ele><time>2026-05-02T08:07:21Z</time></trkpt><trkpt lat="43.75121155646788" lon="11.801566556417999"><ele>577.2</ele><time>2026-05-02T08:07:23Z</time></trkpt><trkpt lat="43.75112783191976" lon="11.801682877573995"><ele>575.0</ele><time>2026-05-02T08:07:25Z</time></trkpt><trkpt lat="43.75107941611856" lon="11.80175531103815"><ele>574.5</ele><time>2026-05-02T08:07:26Z</time></trkpt><trkpt lat="43.751039890995585" lon="11.801891698377684"><ele>574.0</ele><time>2026-05-02T08:07:28Z</time></trkpt><trkpt lat="43.75099758174459" lon="11.80198970935876"><ele>573.5</ele><time>2026-05-02T08:07:30Z</time></trkpt><trkpt lat="43.750959026019174" lon="11.802077577506196"><ele>573.0</ele><time>2026-05-02T08:07:32Z</time></trkpt><trkpt lat="43.75092736653968" lon="11.802186894797643"><ele>572.5</ele><time>2026-05-02T08:07:34Z</time></trkpt><trkpt lat="43.75089033126864" lon="11.802293609002588"><ele>572.0</ele><time>2026-05-02T08:07:36Z</time></trkpt><trkpt lat="43.750842966480064" lon="11.802427172427178"><ele>572.0</ele><time>2026-05-02T08:07:38Z</time></trkpt><trkpt lat="43.75077858154042" lon="11.802524365969461"><ele>572.0</ele><time>2026-05-02T08:07:40Z</time></trkpt><trkpt lat="43.75072880481164" lon="11.802600110427603"><ele>572.0</ele><time>2026-05-02T08:07:43Z</time></trkpt><trkpt lat="43.7506578845528" lon="11.80269949983225"><ele>572.0</ele><time>2026-05-02T08:07:45Z</time></trkpt><trkpt lat="43.75061067448907" lon="11.802759414356021"><ele>572.0</ele><time>2026-05-02T08:07:46Z</time></trkpt><trkpt lat="43.75055864984286" lon="11.802810920538102"><ele>572.0</ele><time>2026-05-02T08:07:47Z</time></trkpt><trkpt lat="43.75050444506995" lon="11.802923706999493"><ele>572.2</ele><time>2026-05-02T08:07:49Z</time></trkpt><trkpt lat="43.75049203756" lon="11.803074925938052"><ele>572.4000000000001</ele><time>2026-05-02T08:07:51Z</time></trkpt><trkpt lat="43.75049351916994" lon="11.803221393093764"><ele>572.5999999999999</ele><time>2026-05-02T08:07:53Z</time></trkpt><trkpt lat="43.75052240853015" lon="11.803348265506786"><ele>572.8</ele><time>2026-05-02T08:07:55Z</time></trkpt><trkpt lat="43.75057437457378" lon="11.803471530171443"><ele>573.0</ele><time>2026-05-02T08:07:57Z</time></trkpt><trkpt lat="43.75062476179407" lon="11.803575804606949"><ele>573.0</ele><time>2026-05-02T08:07:59Z</time></trkpt><trkpt lat="43.750685333488406" lon="11.803663196693181"><ele>573.0</ele><time>2026-05-02T08:08:01Z</time></trkpt><trkpt lat="43.75070435977989" lon="11.803746996263703"><ele>573.0</ele><time>2026-05-02T08:08:08Z</time></trkpt><trkpt lat="43.75073640654957" lon="11.803833458518216"><ele>573.0</ele><time>2026-05-02T08:08:22Z</time></trkpt><trkpt lat="43.750686581904525" lon="11.80390578789324"><ele>573.0</ele><time>2026-05-02T08:08:29Z</time></trkpt><trkpt lat="43.75063702544575" lon="11.80398005226679"><ele>573.0</ele><time>2026-05-02T08:08:32Z</time></trkpt><trkpt lat="43.75058047732995" lon="11.80407145084524"><ele>573.0</ele><time>2026-05-02T08:08:35Z</time></trkpt><trkpt lat="43.75053653340506" lon="11.804144720206805"><ele>573.0</ele><time>2026-05-02T08:08:37Z</time></trkpt><trkpt lat="43.750485143244774" lon="11.80421978128175"><ele>573.0</ele><time>2026-05-02T08:08:39Z</time></trkpt><trkpt lat="43.750436570617104" lon="11.804292816181961"><ele>573.0</ele><time>2026-05-02T08:08:41Z</time></trkpt><trkpt lat="43.75037903421565" lon="11.80432949506938"><ele>573.0</ele><time>2026-05-02T08:08:43Z</time></trkpt><trkpt lat="43.75028427768693" lon="11.804354068426518"><ele>573.0</ele><time>2026-05-02T08:08:45Z</time></trkpt><trkpt lat="43.75024344204131" lon="11.804444941734522"><ele>572.5</ele><time>2026-05-02T08:08:48Z</time></trkpt><trkpt lat="43.75023984180344" lon="11.804567401412003"><ele>572.0</ele><time>2026-05-02T08:08:50Z</time></trkpt><trkpt lat="43.750204835222334" lon="11.80464885525669"><ele>571.5</ele><time>2026-05-02T08:08:52Z</time></trkpt><trkpt lat="43.75015220106837" lon="11.804698229778916"><ele>571.0</ele><time>2026-05-02T08:08:54Z</time></trkpt><trkpt lat="43.75004542770655" lon="11.804761479938664"><ele>570.5</ele><time>2026-05-02T08:08:56Z</time></trkpt><trkpt lat="43.74999116569885" lon="11.804807147393863"><ele>570.0</ele><time>2026-05-02T08:08:58Z</time></trkpt><trkpt lat="43.74988749694033" lon="11.804791852466094"><ele>567.2</ele><time>2026-05-02T08:09:09Z</time></trkpt><trkpt lat="43.74977458495195" lon="11.804790174546014"><ele>564.4</ele><time>2026-05-02T08:09:11Z</time></trkpt><trkpt lat="43.74966940318817" lon="11.804747312797907"><ele>561.6</ele><time>2026-05-02T08:09:13Z</time></trkpt><trkpt lat="43.749586570548885" lon="11.804702130752045"><ele>558.8</ele><time>2026-05-02T08:09:15Z</time></trkpt><trkpt lat="43.74950355968597" lon="11.804623229205099"><ele>556.0</ele><time>2026-05-02T08:09:17Z</time></trkpt><trkpt lat="43.74941392742829" lon="11.804539325240013"><ele>554.4</ele><time>2026-05-02T08:09:19Z</time></trkpt><trkpt lat="43.74935088304054" lon="11.804440637242083"><ele>552.8</ele><time>2026-05-02T08:09:21Z</time></trkpt><trkpt lat="43.749293051045136" lon="11.804329862197813"><ele>551.1999999999999</ele><time>2026-05-02T08:09:23Z</time></trkpt><trkpt lat="43.74921656609531" lon="11.804234096847356"><ele>549.6</ele><time>2026-05-02T08:09:25Z</time></trkpt><trkpt lat="43.74911659170514" lon="11.804151490439246"><ele>548.0</ele><time>2026-05-02T08:09:27Z</time></trkpt><trkpt lat="43.74903371925249" lon="11.804137659461539"><ele>548.0</ele><time>2026-05-02T08:09:29Z</time></trkpt><trkpt lat="43.74900149840842" lon="11.804223415854343"><ele>548.0</ele><time>2026-05-02T08:09:34Z</time></trkpt><trkpt lat="43.74901078741317" lon="11.804090850727349"><ele>548.0</ele><time>2026-05-02T08:10:43Z</time></trkpt><trkpt lat="43.74899909420285" lon="11.803969910558106"><ele>548.0</ele><time>2026-05-02T08:10:46Z</time></trkpt><trkpt lat="43.748985267413" lon="11.803858363573573"><ele>548.0</ele><time>2026-05-02T08:10:48Z</time></trkpt><trkpt lat="43.74892591930374" lon="11.803746545651304"><ele>548.0</ele><time>2026-05-02T08:10:51Z</time></trkpt><trkpt lat="43.748889578890726" lon="11.803631784743871"><ele>548.0</ele><time>2026-05-02T08:10:53Z</time></trkpt><trkpt lat="43.74889032553219" lon="11.803516049199198"><ele>548.0</ele><time>2026-05-02T08:10:55Z</time></trkpt><trkpt lat="43.74885886979105" lon="11.80342394237822"><ele>548.0</ele><time>2026-05-02T08:10:57Z</time></trkpt><trkpt lat="43.74879607528407" lon="11.803340554690594"><ele>548.0</ele><time>2026-05-02T08:11:38Z</time></trkpt><trkpt lat="43.748761375172705" lon="11.803261212419052"><ele>548.0</ele><time>2026-05-02T08:11:40Z</time></trkpt><trkpt lat="43.74872862652242" lon="11.803182196227606"><ele>548.0</ele><time>2026-05-02T08:11:42Z</time></trkpt><trkpt lat="43.74867946086687" lon="11.803082204635365"><ele>548.3333333333333</ele><time>2026-05-02T08:11:44Z</time></trkpt><trkpt lat="43.74863724101001" lon="11.802985951792955"><ele>548.6666666666666</ele><time>2026-05-02T08:11:46Z</time></trkpt><trkpt lat="43.7486031031121" lon="11.802888102807538"><ele>549.0</ele><time>2026-05-02T08:11:48Z</time></trkpt><trkpt lat="43.74859183202888" lon="11.802801890598706"><ele>549.3333333333334</ele><time>2026-05-02T08:11:50Z</time></trkpt><trkpt lat="43.74857582533859" lon="11.802688878097081"><ele>549.6666666666667</ele><time>2026-05-02T08:11:52Z</time></trkpt><trkpt lat="43.74856809472329" lon="11.802574825533414"><ele>550.0</ele><time>2026-05-02T08:11:54Z</time></trkpt><trkpt lat="43.74855509818985" lon="11.80243374767271"><ele>550.0</ele><time>2026-05-02T08:11:56Z</time></trkpt><trkpt lat="43.748549979623895" lon="11.802300438517847"><ele>550.0</ele><time>2026-05-02T08:11:58Z</time></trkpt><trkpt lat="43.74855778774805" lon="11.80219458614816"><ele>550.0</ele><time>2026-05-02T08:12:00Z</time></trkpt><trkpt lat="43.748536902151834" lon="11.80210781423892"><ele>550.0</ele><time>2026-05-02T08:12:02Z</time></trkpt><trkpt lat="43.748524362524776" lon="11.802002512668622"><ele>550.0</ele><time>2026-05-02T08:12:04Z</time></trkpt><trkpt lat="43.748511318409186" lon="11.80191392041662"><ele>550.0</ele><time>2026-05-02T08:12:06Z</time></trkpt><trkpt lat="43.74843634448449" lon="11.801878471076824"><ele>547.6</ele><time>2026-05-02T08:12:10Z</time></trkpt><trkpt lat="43.748371254029024" lon="11.80188689278408"><ele>545.2</ele><time>2026-05-02T08:12:12Z</time></trkpt><trkpt lat="43.748270052212" lon="11.80189843165667"><ele>542.8</ele><time>2026-05-02T08:12:14Z</time></trkpt><trkpt lat="43.74815703729564" lon="11.801929641474588"><ele>540.4</ele><time>2026-05-02T08:12:16Z</time></trkpt><trkpt lat="43.748059156273385" lon="11.801943437890815"><ele>538.0</ele><time>2026-05-02T08:12:18Z</time></trkpt><trkpt lat="43.74798316303771" lon="11.801947932922054"><ele>538.0</ele><time>2026-05-02T08:12:20Z</time></trkpt><trkpt lat="43.74790095144397" lon="11.801939392428293"><ele>538.0</ele><time>2026-05-02T08:12:22Z</time></trkpt><trkpt lat="43.74780477175312" lon="11.801965532376741"><ele>538.0</ele><time>2026-05-02T08:12:24Z</time></trkpt><trkpt lat="43.74768543473681" lon="11.801973777614691"><ele>538.0</ele><time>2026-05-02T08:12:26Z</time></trkpt><trkpt lat="43.74762230792438" lon="11.801974004832847"><ele>538.0</ele><time>2026-05-02T08:12:27Z</time></trkpt><trkpt lat="43.74755849635007" lon="11.801987125850092"><ele>538.0</ele><time>2026-05-02T08:12:28Z</time></trkpt><trkpt lat="43.74749542228892" lon="11.801997126583743"><ele>535.8571428571429</ele><time>2026-05-02T08:12:29Z</time></trkpt><trkpt lat="43.747427942071916" lon="11.802010851727426"><ele>533.7142857142858</ele><time>2026-05-02T08:12:30Z</time></trkpt><trkpt lat="43.74736108854322" lon="11.802014580524776"><ele>531.5714285714286</ele><time>2026-05-02T08:12:31Z</time></trkpt><trkpt lat="43.74729035227276" lon="11.802026508308806"><ele>529.4285714285714</ele><time>2026-05-02T08:12:32Z</time></trkpt><trkpt lat="43.7472100554931" lon="11.802031642164767"><ele>527.2857142857142</ele><time>2026-05-02T08:12:33Z</time></trkpt><trkpt lat="43.74714073372796" lon="11.802046141941743"><ele>525.1428571428571</ele><time>2026-05-02T08:12:34Z</time></trkpt><trkpt lat="43.7470716614495" lon="11.802054160104987"><ele>523.0</ele><time>2026-05-02T08:12:35Z</time></trkpt><trkpt lat="43.74700620914037" lon="11.802068261299926"><ele>523.0</ele><time>2026-05-02T08:12:36Z</time></trkpt><trkpt lat="43.74691063397639" lon="11.802071870678757"><ele>523.0</ele><time>2026-05-02T08:12:38Z</time></trkpt><trkpt lat="43.746811624413596" lon="11.802099787351587"><ele>523.0</ele><time>2026-05-02T08:12:40Z</time></trkpt><trkpt lat="43.74675227441235" lon="11.802132455385026"><ele>523.0</ele><time>2026-05-02T08:12:41Z</time></trkpt><trkpt lat="43.746630882163664" lon="11.802194086061057"><ele>523.0</ele><time>2026-05-02T08:12:43Z</time></trkpt><trkpt lat="43.74651086982092" lon="11.802237274567943"><ele>521.4285714285713</ele><time>2026-05-02T08:12:45Z</time></trkpt><trkpt lat="43.746444668819215" lon="11.802265932794834"><ele>519.8571428571429</ele><time>2026-05-02T08:12:46Z</time></trkpt><trkpt lat="43.74638352531216" lon="11.80229186765839"><ele>518.2857142857142</ele><time>2026-05-02T08:12:47Z</time></trkpt><trkpt lat="43.746322829001905" lon="11.80231792575555"><ele>516.7142857142857</ele><time>2026-05-02T08:12:48Z</time></trkpt><trkpt lat="43.746263197179736" lon="11.802346158218487"><ele>515.1428571428571</ele><time>2026-05-02T08:12:49Z</time></trkpt><trkpt lat="43.746201593876144" lon="11.802380512352784"><ele>513.5714285714286</ele><time>2026-05-02T08:12:50Z</time></trkpt><trkpt lat="43.74613380478116" lon="11.80241794980396"><ele>512.0</ele><time>2026-05-02T08:12:51Z</time></trkpt><trkpt lat="43.7460650237116" lon="11.802455408101336"><ele>510.4285714285714</ele><time>2026-05-02T08:12:52Z</time></trkpt><trkpt lat="43.74599410730655" lon="11.802485871073339"><ele>508.8571428571428</ele><time>2026-05-02T08:12:53Z</time></trkpt><trkpt lat="43.74592229000233" lon="11.80253896617911"><ele>507.2857142857143</ele><time>2026-05-02T08:12:54Z</time></trkpt><trkpt lat="43.74586240479876" lon="11.802596741064116"><ele>505.71428571428567</ele><time>2026-05-02T08:12:55Z</time></trkpt><trkpt lat="43.74581019518037" lon="11.802655689828178"><ele>504.1428571428571</ele><time>2026-05-02T08:12:56Z</time></trkpt><trkpt lat="43.745760170137814" lon="11.802730300102663"><ele>502.57142857142856</ele><time>2026-05-02T08:12:57Z</time></trkpt><trkpt lat="43.74571406948239" lon="11.802807352959787"><ele>501.0</ele><time>2026-05-02T08:12:58Z</time></trkpt><trkpt lat="43.7456795329514" lon="11.802884681527722"><ele>501.0</ele><time>2026-05-02T08:12:59Z</time></trkpt><trkpt lat="43.74564159464787" lon="11.802954737580917"><ele>501.0</ele><time>2026-05-02T08:13:00Z</time></trkpt><trkpt lat="43.74559321699206" lon="11.803030187807682"><ele>501.0</ele><time>2026-05-02T08:13:01Z</time></trkpt><trkpt lat="43.745546532772295" lon="11.803107294825304"><ele>501.0</ele><time>2026-05-02T08:13:02Z</time></trkpt><trkpt lat="43.745503296912304" lon="11.803193903393117"><ele>501.0</ele><time>2026-05-02T08:13:03Z</time></trkpt><trkpt lat="43.74546197075639" lon="11.803270679903328"><ele>501.0</ele><time>2026-05-02T08:13:04Z</time></trkpt><trkpt lat="43.74534391475451" lon="11.803363062404465"><ele>501.0</ele><time>2026-05-02T08:13:06Z</time></trkpt><trkpt lat="43.745261529304564" lon="11.803386049214927"><ele>501.0</ele><time>2026-05-02T08:13:07Z</time></trkpt><trkpt lat="43.74517683381744" lon="11.803393834838035"><ele>501.0</ele><time>2026-05-02T08:13:08Z</time></trkpt><trkpt lat="43.745095337347394" lon="11.80340500155699"><ele>501.0</ele><time>2026-05-02T08:13:09Z</time></trkpt><trkpt lat="43.745017012742835" lon="11.80343329576592"><ele>501.0</ele><time>2026-05-02T08:13:10Z</time></trkpt><trkpt lat="43.744926713429614" lon="11.803457296499568"><ele>501.0</ele><time>2026-05-02T08:13:11Z</time></trkpt><trkpt lat="43.744838518304874" lon="11.803471429178687"><ele>499.8333333333333</ele><time>2026-05-02T08:13:12Z</time></trkpt><trkpt lat="43.7447619113461" lon="11.803488620905442"><ele>498.66666666666663</ele><time>2026-05-02T08:13:13Z</time></trkpt><trkpt lat="43.744697347283314" lon="11.803498603069862"><ele>497.5</ele><time>2026-05-02T08:13:14Z</time></trkpt><trkpt lat="43.744633032330896" lon="11.803514798083885"><ele>496.3333333333333</ele><time>2026-05-02T08:13:18Z</time></trkpt><trkpt lat="43.74472503446888" lon="11.803547046568683"><ele>495.16666666666663</ele><time>2026-05-02T08:13:22Z</time></trkpt><trkpt lat="43.744786011485964" lon="11.803495243954865"><ele>494.0</ele><time>2026-05-02T08:13:24Z</time></trkpt><trkpt lat="43.74486841328313" lon="11.803482331398882"><ele>493.66666666666663</ele><time>2026-05-02T08:13:26Z</time></trkpt><trkpt lat="43.74492594315433" lon="11.803529498880891"><ele>493.3333333333333</ele><time>2026-05-02T08:13:28Z</time></trkpt><trkpt lat="43.74495850926967" lon="11.803637449163348"><ele>493.0</ele><time>2026-05-02T08:13:30Z</time></trkpt><trkpt lat="43.74500067497327" lon="11.803756019701618"><ele>492.66666666666663</ele><time>2026-05-02T08:13:32Z</time></trkpt><trkpt lat="43.74502605495065" lon="11.803850895798156"><ele>492.3333333333333</ele><time>2026-05-02T08:13:34Z</time></trkpt><trkpt lat="43.745056991454504" lon="11.803940614877755"><ele>492.0</ele><time>2026-05-02T08:13:36Z</time></trkpt><trkpt lat="43.74508673121572" lon="11.804026332319786"><ele>492.0</ele><time>2026-05-02T08:13:38Z</time></trkpt><trkpt lat="43.74511596187979" lon="11.804108736313484"><ele>492.0</ele><time>2026-05-02T08:14:53Z</time></trkpt><trkpt lat="43.74510641717789" lon="11.804021435281262"><ele>492.0</ele><time>2026-05-02T08:14:57Z</time></trkpt><trkpt lat="43.74507260921796" lon="11.803941581834897"><ele>492.0</ele><time>2026-05-02T08:14:59Z</time></trkpt><trkpt lat="43.745035936110995" lon="11.803835126934876"><ele>492.0</ele><time>2026-05-02T08:15:01Z</time></trkpt><trkpt lat="43.74498852812663" lon="11.80368912602678"><ele>492.0</ele><time>2026-05-02T08:15:03Z</time></trkpt><trkpt lat="43.744942714225154" lon="11.803570258639699"><ele>492.0</ele><time>2026-05-02T08:15:05Z</time></trkpt><trkpt lat="43.74491382293891" lon="11.803481561290457"><ele>492.0</ele><time>2026-05-02T08:15:08Z</time></trkpt><trkpt lat="43.74498744353761" lon="11.80340591388964"><ele>492.0</ele><time>2026-05-02T08:15:12Z</time></trkpt><trkpt lat="43.74504959222412" lon="11.803443508984344"><ele>492.0</ele><time>2026-05-02T08:15:14Z</time></trkpt><trkpt lat="43.74507440595755" lon="11.803531136969086"><ele>492.0</ele><time>2026-05-02T08:15:16Z</time></trkpt><trkpt lat="43.745089256699494" lon="11.803654559788534"><ele>492.0</ele><time>2026-05-02T08:15:18Z</time></trkpt><trkpt lat="43.745122185661174" lon="11.803759303996605"><ele>492.0</ele><time>2026-05-02T08:15:20Z</time></trkpt><trkpt lat="43.7451612238532" lon="11.803856293497024"><ele>492.00000000000006</ele><time>2026-05-02T08:15:22Z</time></trkpt><trkpt lat="43.74519168494997" lon="11.803977207568751"><ele>492.00000000000006</ele><time>2026-05-02T08:15:24Z</time></trkpt><trkpt lat="43.74521769955134" lon="11.804105295599825"><ele>492.0</ele><time>2026-05-02T08:15:26Z</time></trkpt><trkpt lat="43.74524848094075" lon="11.80425483688538"><ele>492.0</ele><time>2026-05-02T08:15:28Z</time></trkpt><trkpt lat="43.74528248767976" lon="11.804424754347126"><ele>493.1428571428572</ele><time>2026-05-02T08:15:30Z</time></trkpt><trkpt lat="43.745298380251995" lon="11.804512432699127"><ele>494.28571428571433</ele><time>2026-05-02T08:15:31Z</time></trkpt><trkpt lat="43.745318534881804" lon="11.80460968631769"><ele>495.42857142857144</ele><time>2026-05-02T08:15:32Z</time></trkpt><trkpt lat="43.745344081973336" lon="11.804713048940123"><ele>496.5714285714286</ele><time>2026-05-02T08:15:33Z</time></trkpt><trkpt lat="43.74536486171753" lon="11.804809440926732"><ele>497.7142857142858</ele><time>2026-05-02T08:15:34Z</time></trkpt><trkpt lat="43.74538605875572" lon="11.804910207070021"><ele>498.85714285714283</ele><time>2026-05-02T08:15:35Z</time></trkpt><trkpt lat="43.745411929315615" lon="11.805016199313462"><ele>500.0</ele><time>2026-05-02T08:15:36Z</time></trkpt><trkpt lat="43.74543764659148" lon="11.805118600465144"><ele>499.49999999999994</ele><time>2026-05-02T08:15:37Z</time></trkpt><trkpt lat="43.74546054735482" lon="11.805222554832099"><ele>499.0</ele><time>2026-05-02T08:15:38Z</time></trkpt><trkpt lat="43.745484650709365" lon="11.80533396726404"><ele>498.5</ele><time>2026-05-02T08:15:39Z</time></trkpt><trkpt lat="43.745515430913876" lon="11.805429960855632"><ele>498.0</ele><time>2026-05-02T08:15:40Z</time></trkpt><trkpt lat="43.74555638740903" lon="11.80551926206797"><ele>497.49999999999994</ele><time>2026-05-02T08:15:41Z</time></trkpt><trkpt lat="43.745591748287815" lon="11.80560774685056"><ele>497.0</ele><time>2026-05-02T08:15:42Z</time></trkpt><trkpt lat="43.745625514623875" lon="11.805694216809226"><ele>496.99999999999994</ele><time>2026-05-02T08:15:43Z</time></trkpt><trkpt lat="43.74566532465739" lon="11.805791973021767"><ele>497.0</ele><time>2026-05-02T08:15:44Z</time></trkpt><trkpt lat="43.74570042664807" lon="11.80588093590996"><ele>497.0</ele><time>2026-05-02T08:15:45Z</time></trkpt><trkpt lat="43.74574291462007" lon="11.805956348636222"><ele>497.0</ele><time>2026-05-02T08:15:46Z</time></trkpt><trkpt lat="43.74578123025154" lon="11.80602750857212"><ele>496.99999999999994</ele><time>2026-05-02T08:15:47Z</time></trkpt><trkpt lat="43.745845919254315" lon="11.806119100999677"><ele>497.0</ele><time>2026-05-02T08:15:49Z</time></trkpt><trkpt lat="43.74591164126584" lon="11.806163351453879"><ele>497.6</ele><time>2026-05-02T08:15:54Z</time></trkpt><trkpt lat="43.74600189519325" lon="11.80619026590003"><ele>498.20000000000005</ele><time>2026-05-02T08:15:56Z</time></trkpt><trkpt lat="43.74607802723608" lon="11.806259828932578"><ele>498.8</ele><time>2026-05-02T08:15:58Z</time></trkpt><trkpt lat="43.746161426003916" lon="11.806328737691667"><ele>499.4</ele><time>2026-05-02T08:16:00Z</time></trkpt><trkpt lat="43.74623398168937" lon="11.806395214809235"><ele>500.0</ele><time>2026-05-02T08:16:02Z</time></trkpt><trkpt lat="43.746304510192786" lon="11.80648179034641"><ele>500.0</ele><time>2026-05-02T08:16:04Z</time></trkpt><trkpt lat="43.74639642426833" lon="11.806571524481923"><ele>500.0</ele><time>2026-05-02T08:16:06Z</time></trkpt><trkpt lat="43.746471657560626" lon="11.806687395285186"><ele>500.0</ele><time>2026-05-02T08:16:08Z</time></trkpt><trkpt lat="43.746454732680576" lon="11.80682230239507"><ele>500.0</ele><time>2026-05-02T08:16:10Z</time></trkpt><trkpt lat="43.7463699722621" lon="11.806947218380726"><ele>500.0</ele><time>2026-05-02T08:16:12Z</time></trkpt><trkpt lat="43.746288022195905" lon="11.807079929994812"><ele>498.4</ele><time>2026-05-02T08:16:14Z</time></trkpt><trkpt lat="43.74625474015579" lon="11.80722157434979"><ele>496.8</ele><time>2026-05-02T08:16:16Z</time></trkpt><trkpt lat="43.74619793095172" lon="11.807353830714005"><ele>495.20000000000005</ele><time>2026-05-02T08:16:18Z</time></trkpt><trkpt lat="43.74613281845094" lon="11.807437948956956"><ele>493.6</ele><time>2026-05-02T08:16:20Z</time></trkpt><trkpt lat="43.74610558097307" lon="11.807520657124316"><ele>492.0</ele><time>2026-05-02T08:16:22Z</time></trkpt><trkpt lat="43.74608968263268" lon="11.807627575035562"><ele>491.3333333333333</ele><time>2026-05-02T08:16:24Z</time></trkpt><trkpt lat="43.74609081356332" lon="11.807768715207795"><ele>490.66666666666663</ele><time>2026-05-02T08:16:26Z</time></trkpt><trkpt lat="43.7461222034842" lon="11.807881703249162"><ele>490.0</ele><time>2026-05-02T08:16:28Z</time></trkpt><trkpt lat="43.74614313713316" lon="11.80800368246963"><ele>489.3333333333333</ele><time>2026-05-02T08:16:30Z</time></trkpt><trkpt lat="43.746173372295445" lon="11.808125115080198"><ele>488.66666666666663</ele><time>2026-05-02T08:16:32Z</time></trkpt><trkpt lat="43.74617704145319" lon="11.808217398882277"><ele>488.0</ele><time>2026-05-02T08:16:34Z</time></trkpt><trkpt lat="43.74620539227973" lon="11.80832113456243"><ele>488.0</ele><time>2026-05-02T08:16:36Z</time></trkpt><trkpt lat="43.74619928887245" lon="11.808414886321971"><ele>487.99999999999994</ele><time>2026-05-02T08:16:38Z</time></trkpt><trkpt lat="43.74613726597588" lon="11.808476968376077"><ele>487.99999999999994</ele><time>2026-05-02T08:16:40Z</time></trkpt><trkpt lat="43.74602215188103" lon="11.808461121575158"><ele>488.0</ele><time>2026-05-02T08:16:42Z</time></trkpt><trkpt lat="43.74591390886313" lon="11.808466656460876"><ele>488.0</ele><time>2026-05-02T08:16:44Z</time></trkpt><trkpt lat="43.74580006454526" lon="11.808480781675993"><ele>487.0</ele><time>2026-05-02T08:16:46Z</time></trkpt><trkpt lat="43.745697285394854" lon="11.80848222644267"><ele>485.99999999999994</ele><time>2026-05-02T08:16:48Z</time></trkpt><trkpt lat="43.74560285468868" lon="11.80849067387394"><ele>484.99999999999994</ele><time>2026-05-02T08:16:50Z</time></trkpt><trkpt lat="43.74550959231799" lon="11.808506120631236"><ele>484.0</ele><time>2026-05-02T08:16:52Z</time></trkpt><trkpt lat="43.74542242294998" lon="11.808536595181408"><ele>483.0</ele><time>2026-05-02T08:16:54Z</time></trkpt><trkpt lat="43.7453469388625" lon="11.808592595534742"><ele>483.0</ele><time>2026-05-02T08:16:56Z</time></trkpt><trkpt lat="43.74527189567084" lon="11.808694122683262"><ele>482.99999999999994</ele><time>2026-05-02T08:16:58Z</time></trkpt><trkpt lat="43.74519251488275" lon="11.808776574293814"><ele>482.99999999999994</ele><time>2026-05-02T08:17:00Z</time></trkpt><trkpt lat="43.74510092813353" lon="11.808838800970783"><ele>483.0</ele><time>2026-05-02T08:17:02Z</time></trkpt><trkpt lat="43.74500371312108" lon="11.808858770886046"><ele>483.0</ele><time>2026-05-02T08:17:04Z</time></trkpt><trkpt lat="43.7448968257059" lon="11.808870390876399"><ele>480.59999999999997</ele><time>2026-05-02T08:17:06Z</time></trkpt><trkpt lat="43.74479510622988" lon="11.808885139805916"><ele>478.19999999999993</ele><time>2026-05-02T08:17:08Z</time></trkpt><trkpt lat="43.74469659140956" lon="11.808875409573465"><ele>475.8</ele><time>2026-05-02T08:17:10Z</time></trkpt><trkpt lat="43.744608589134764" lon="11.80889069816804"><ele>473.4</ele><time>2026-05-02T08:17:12Z</time></trkpt><trkpt lat="43.74450569049618" lon="11.808899221504928"><ele>471.0</ele><time>2026-05-02T08:17:14Z</time></trkpt><trkpt lat="43.74441027417894" lon="11.808874694352838"><ele>469.6</ele><time>2026-05-02T08:17:16Z</time></trkpt><trkpt lat="43.74435207948687" lon="11.808796894173236"><ele>468.20000000000005</ele><time>2026-05-02T08:17:18Z</time></trkpt><trkpt lat="43.74434081480358" lon="11.808655420724074"><ele>466.79999999999995</ele><time>2026-05-02T08:17:20Z</time></trkpt><trkpt lat="43.744271195140875" lon="11.808599906169572"><ele>465.4</ele><time>2026-05-02T08:17:22Z</time></trkpt><trkpt lat="43.74416315780284" lon="11.80860154428986"><ele>464.0</ele><time>2026-05-02T08:17:24Z</time></trkpt><trkpt lat="43.74408120605377" lon="11.808593013353317"><ele>463.99999999999994</ele><time>2026-05-02T08:17:26Z</time></trkpt><trkpt lat="43.743995581558934" lon="11.808600286746014"><ele>464.0</ele><time>2026-05-02T08:17:28Z</time></trkpt><trkpt lat="43.74389781196833" lon="11.80859539987807"><ele>464.0</ele><time>2026-05-02T08:17:30Z</time></trkpt><trkpt lat="43.743802811255115" lon="11.808581020507553"><ele>464.0</ele><time>2026-05-02T08:17:32Z</time></trkpt><trkpt lat="43.74371666704517" lon="11.808612439913105"><ele>463.99999999999994</ele><time>2026-05-02T08:17:34Z</time></trkpt><trkpt lat="43.743681482829764" lon="11.80869723989433"><ele>464.0</ele><time>2026-05-02T08:17:36Z</time></trkpt><trkpt lat="43.743669513534584" lon="11.808824437526193"><ele>463.99999999999994</ele><time>2026-05-02T08:17:38Z</time></trkpt><trkpt lat="43.74366249532549" lon="11.808961561296586"><ele>464.0</ele><time>2026-05-02T08:17:40Z</time></trkpt><trkpt lat="43.74365103618505" lon="11.80908835165783"><ele>464.0</ele><time>2026-05-02T08:17:42Z</time></trkpt><trkpt lat="43.74364710462255" lon="11.809221538899616"><ele>464.0</ele><time>2026-05-02T08:17:44Z</time></trkpt><trkpt lat="43.74363463785562" lon="11.809317623320146"><ele>463.99999999999994</ele><time>2026-05-02T08:17:47Z</time></trkpt><trkpt lat="43.74354516108132" lon="11.80933745747321"><ele>464.0</ele><time>2026-05-02T08:17:52Z</time></trkpt><trkpt lat="43.743462307056134" lon="11.809338446555907"><ele>461.3333333333333</ele><time>2026-05-02T08:17:54Z</time></trkpt><trkpt lat="43.743377504408244" lon="11.809348695994503"><ele>458.66666666666663</ele><time>2026-05-02T08:17:56Z</time></trkpt><trkpt lat="43.743263349149295" lon="11.809351858760968"><ele>456.0</ele><time>2026-05-02T08:17:58Z</time></trkpt><trkpt lat="43.743200171740604" lon="11.809354788063999"><ele>453.33333333333337</ele><time>2026-05-02T08:17:59Z</time></trkpt><trkpt lat="43.74313377198634" lon="11.809358294875473"><ele>450.6666666666667</ele><time>2026-05-02T08:18:00Z</time></trkpt><trkpt lat="43.743065778598215" lon="11.809356268781025"><ele>448.0</ele><time>2026-05-02T08:18:01Z</time></trkpt><trkpt lat="43.74289166590772" lon="11.80939604092959"><ele>448.0</ele><time>2026-05-02T08:18:04Z</time></trkpt><trkpt lat="43.742783123636535" lon="11.809413178687365"><ele>447.99999999999994</ele><time>2026-05-02T08:18:06Z</time></trkpt><trkpt lat="43.742656166863064" lon="11.80941535038488"><ele>447.99999999999994</ele><time>2026-05-02T08:18:08Z</time></trkpt><trkpt lat="43.74255256406817" lon="11.80942463518037"><ele>448.0</ele><time>2026-05-02T08:18:10Z</time></trkpt><trkpt lat="43.742456999179886" lon="11.809457320785283"><ele>448.0</ele><time>2026-05-02T08:18:12Z</time></trkpt><trkpt lat="43.74239465958723" lon="11.809476269182037"><ele>446.42857142857144</ele><time>2026-05-02T08:18:13Z</time></trkpt><trkpt lat="43.74233186048578" lon="11.80949447705476"><ele>444.8571428571429</ele><time>2026-05-02T08:18:14Z</time></trkpt><trkpt lat="43.742261230099984" lon="11.809509507249428"><ele>443.2857142857143</ele><time>2026-05-02T08:18:15Z</time></trkpt><trkpt lat="43.742192386639964" lon="11.809518412127519"><ele>441.7142857142857</ele><time>2026-05-02T08:18:16Z</time></trkpt><trkpt lat="43.74212675287859" lon="11.809516945016316"><ele>440.14285714285717</ele><time>2026-05-02T08:18:17Z</time></trkpt><trkpt lat="43.74204930724175" lon="11.809526230078383"><ele>438.57142857142856</ele><time>2026-05-02T08:18:18Z</time></trkpt><trkpt lat="43.74197756142891" lon="11.80953984556636"><ele>437.0</ele><time>2026-05-02T08:18:19Z</time></trkpt><trkpt lat="43.74191132425398" lon="11.809558066468426"><ele>435.3333333333333</ele><time>2026-05-02T08:18:20Z</time></trkpt><trkpt lat="43.741849625274504" lon="11.809582993748075"><ele>433.66666666666663</ele><time>2026-05-02T08:18:21Z</time></trkpt><trkpt lat="43.741786730502454" lon="11.80959056292866"><ele>432.0</ele><time>2026-05-02T08:18:22Z</time></trkpt><trkpt lat="43.74171716218278" lon="11.809615142386022"><ele>430.33333333333337</ele><time>2026-05-02T08:18:23Z</time></trkpt><trkpt lat="43.741647334669466" lon="11.809628819559123"><ele>428.6666666666667</ele><time>2026-05-02T08:18:24Z</time></trkpt><trkpt lat="43.74152273685055" lon="11.80966322295442"><ele>427.0</ele><time>2026-05-02T08:18:26Z</time></trkpt><trkpt lat="43.741466094653916" lon="11.809701836742187"><ele>427.0</ele><time>2026-05-02T08:18:27Z</time></trkpt><trkpt lat="43.741399986308046" lon="11.809750923391693"><ele>427.0</ele><time>2026-05-02T08:18:28Z</time></trkpt><trkpt lat="43.74133686672338" lon="11.809767767941647"><ele>427.0</ele><time>2026-05-02T08:18:29Z</time></trkpt><trkpt lat="43.74127166012889" lon="11.809782957629233"><ele>427.0</ele><time>2026-05-02T08:18:30Z</time></trkpt><trkpt lat="43.741193955856396" lon="11.809814337525301"><ele>427.0</ele><time>2026-05-02T08:18:31Z</time></trkpt><trkpt lat="43.74112007591221" lon="11.809845464981976"><ele>427.0</ele><time>2026-05-02T08:18:32Z</time></trkpt><trkpt lat="43.74105657356766" lon="11.809874364647959"><ele>427.0</ele><time>2026-05-02T08:18:33Z</time></trkpt><trkpt lat="43.7409864068951" lon="11.809917857282345"><ele>424.83333333333337</ele><time>2026-05-02T08:18:34Z</time></trkpt><trkpt lat="43.740914961475795" lon="11.809961260925917"><ele>422.6666666666667</ele><time>2026-05-02T08:18:35Z</time></trkpt><trkpt lat="43.740849254377444" lon="11.810014137303465"><ele>420.5</ele><time>2026-05-02T08:18:36Z</time></trkpt><trkpt lat="43.74077982561069" lon="11.810071050788787"><ele>418.33333333333337</ele><time>2026-05-02T08:18:37Z</time></trkpt><trkpt lat="43.740706957123564" lon="11.810116733551132"><ele>416.1666666666667</ele><time>2026-05-02T08:18:38Z</time></trkpt><trkpt lat="43.74063275998776" lon="11.8101633426749"><ele>414.0</ele><time>2026-05-02T08:18:39Z</time></trkpt><trkpt lat="43.7405677628495" lon="11.810216242291231"><ele>413.6666666666667</ele><time>2026-05-02T08:18:40Z</time></trkpt><trkpt lat="43.74050753211258" lon="11.810273614983064"><ele>413.33333333333337</ele><time>2026-05-02T08:18:41Z</time></trkpt><trkpt lat="43.740451094182504" lon="11.810332753406197"><ele>413.0</ele><time>2026-05-02T08:18:42Z</time></trkpt><trkpt lat="43.74039220251022" lon="11.810399974936034"><ele>412.6666666666667</ele><time>2026-05-02T08:18:43Z</time></trkpt><trkpt lat="43.74034508060921" lon="11.81046193386536"><ele>412.33333333333337</ele><time>2026-05-02T08:18:44Z</time></trkpt><trkpt lat="43.74030422746587" lon="11.810602393648557"><ele>412.0</ele><time>2026-05-02T08:18:46Z</time></trkpt><trkpt lat="43.74028244376408" lon="11.810746456260276"><ele>411.33333333333337</ele><time>2026-05-02T08:18:48Z</time></trkpt><trkpt lat="43.74021309700533" lon="11.810845806318985"><ele>410.6666666666667</ele><time>2026-05-02T08:18:50Z</time></trkpt><trkpt lat="43.7400981915765" lon="11.81091704439468"><ele>410.0</ele><time>2026-05-02T08:18:52Z</time></trkpt><trkpt lat="43.74003113142759" lon="11.810943604305118"><ele>409.33333333333337</ele><time>2026-05-02T08:18:53Z</time></trkpt><trkpt lat="43.73996556209055" lon="11.810968540965137"><ele>408.6666666666667</ele><time>2026-05-02T08:18:54Z</time></trkpt><trkpt lat="43.73989971635174" lon="11.810996219627373"><ele>408.0</ele><time>2026-05-02T08:18:55Z</time></trkpt><trkpt lat="43.73979405007521" lon="11.811035406228545"><ele>408.0</ele><time>2026-05-02T08:18:57Z</time></trkpt><trkpt lat="43.73972323120936" lon="11.811098113758048"><ele>408.0</ele><time>2026-05-02T08:18:59Z</time></trkpt><trkpt lat="43.73970851540311" lon="11.811185181244543"><ele>408.0</ele><time>2026-05-02T08:19:18Z</time></trkpt><trkpt lat="43.73974588983546" lon="11.811282988629765"><ele>408.0</ele><time>2026-05-02T08:19:20Z</time></trkpt><trkpt lat="43.73977943745219" lon="11.81135850586179"><ele>408.0</ele><time>2026-05-02T08:19:21Z</time></trkpt><trkpt lat="43.73979878652503" lon="11.811458565926829"><ele>408.0</ele><time>2026-05-02T08:19:22Z</time></trkpt><trkpt lat="43.73981176972253" lon="11.811575185708154"><ele>408.0</ele><time>2026-05-02T08:19:23Z</time></trkpt><trkpt lat="43.739828740293135" lon="11.811701641226431"><ele>408.0</ele><time>2026-05-02T08:19:24Z</time></trkpt><trkpt lat="43.739849598206085" lon="11.811815793631204"><ele>408.0</ele><time>2026-05-02T08:19:25Z</time></trkpt><trkpt lat="43.73987047297748" lon="11.811935272249578"><ele>408.0</ele><time>2026-05-02T08:19:26Z</time></trkpt><trkpt lat="43.73988550551726" lon="11.812056277864887"><ele>408.0</ele><time>2026-05-02T08:19:27Z</time></trkpt><trkpt lat="43.73989795047473" lon="11.812174584387307"><ele>408.0</ele><time>2026-05-02T08:19:28Z</time></trkpt><trkpt lat="43.73991610426247" lon="11.812287033214703"><ele>408.1666666666667</ele><time>2026-05-02T08:19:29Z</time></trkpt><trkpt lat="43.73993295585687" lon="11.812403813912432"><ele>408.33333333333337</ele><time>2026-05-02T08:19:30Z</time></trkpt><trkpt lat="43.739955111130676" lon="11.812523746627923"><ele>408.5</ele><time>2026-05-02T08:19:31Z</time></trkpt><trkpt lat="43.73998241904242" lon="11.812651758141643"><ele>408.6666666666667</ele><time>2026-05-02T08:19:32Z</time></trkpt><trkpt lat="43.73999476154569" lon="11.81277062487708"><ele>408.83333333333337</ele><time>2026-05-02T08:19:33Z</time></trkpt><trkpt lat="43.73999715624045" lon="11.812889543578832"><ele>409.0</ele><time>2026-05-02T08:19:34Z</time></trkpt><trkpt lat="43.739990120372745" lon="11.813012191427346"><ele>409.33333333333337</ele><time>2026-05-02T08:19:35Z</time></trkpt><trkpt lat="43.739971465163705" lon="11.813133821552086"><ele>409.6666666666667</ele><time>2026-05-02T08:19:36Z</time></trkpt><trkpt lat="43.7399524539558" lon="11.813257382993793"><ele>410.0</ele><time>2026-05-02T08:19:37Z</time></trkpt><trkpt lat="43.739931436786605" lon="11.813363281772872"><ele>410.33333333333337</ele><time>2026-05-02T08:19:38Z</time></trkpt><trkpt lat="43.73991960952567" lon="11.813464311776553"><ele>410.6666666666667</ele><time>2026-05-02T08:19:39Z</time></trkpt><trkpt lat="43.739904573518515" lon="11.813552935852838"><ele>411.0</ele><time>2026-05-02T08:19:40Z</time></trkpt><trkpt lat="43.73989205697092" lon="11.813661276276381"><ele>411.0</ele><time>2026-05-02T08:19:42Z</time></trkpt><trkpt lat="43.73986894597433" lon="11.813787124978633"><ele>411.0</ele><time>2026-05-02T08:19:54Z</time></trkpt><trkpt lat="43.73986156081914" lon="11.813880827954778"><ele>411.0</ele><time>2026-05-02T08:19:55Z</time></trkpt><trkpt lat="43.73985227218418" lon="11.813990420270288"><ele>411.0</ele><time>2026-05-02T08:19:56Z</time></trkpt><trkpt lat="43.73983648082727" lon="11.814099123976725"><ele>411.0</ele><time>2026-05-02T08:19:57Z</time></trkpt><trkpt lat="43.739820426146466" lon="11.814211263723399"><ele>411.0</ele><time>2026-05-02T08:19:58Z</time></trkpt><trkpt lat="43.739801254605574" lon="11.814322978137703"><ele>411.0</ele><time>2026-05-02T08:19:59Z</time></trkpt><trkpt lat="43.739787824016226" lon="11.814426918853377"><ele>411.0</ele><time>2026-05-02T08:20:00Z</time></trkpt><trkpt lat="43.73977520693655" lon="11.814568002548906"><ele>411.0</ele><time>2026-05-02T08:20:02Z</time></trkpt><trkpt lat="43.73976875896743" lon="11.814658444184149"><ele>411.0</ele><time>2026-05-02T08:20:06Z</time></trkpt><trkpt lat="43.73973730841095" lon="11.814789141395396"><ele>411.0</ele><time>2026-05-02T08:20:09Z</time></trkpt><trkpt lat="43.739719285251745" lon="11.814925887419262"><ele>411.0</ele><time>2026-05-02T08:20:11Z</time></trkpt><trkpt lat="43.73971121783359" lon="11.815099682971095"><ele>410.57142857142856</ele><time>2026-05-02T08:20:13Z</time></trkpt><trkpt lat="43.73969504311067" lon="11.815199191529986"><ele>410.1428571428571</ele><time>2026-05-02T08:20:14Z</time></trkpt><trkpt lat="43.73968251483031" lon="11.81529808941968"><ele>409.7142857142857</ele><time>2026-05-02T08:20:15Z</time></trkpt><trkpt lat="43.73966593316981" lon="11.815391395251662"><ele>409.2857142857143</ele><time>2026-05-02T08:20:16Z</time></trkpt><trkpt lat="43.73965441901587" lon="11.815487024343602"><ele>408.8571428571429</ele><time>2026-05-02T08:20:17Z</time></trkpt><trkpt lat="43.73964264289116" lon="11.815574975656306"><ele>408.42857142857144</ele><time>2026-05-02T08:20:18Z</time></trkpt><trkpt lat="43.73962821262529" lon="11.815699398992995"><ele>408.0</ele><time>2026-05-02T08:20:20Z</time></trkpt><trkpt lat="43.73958074776676" lon="11.815774827861127"><ele>408.0</ele><time>2026-05-02T08:21:02Z</time></trkpt><trkpt lat="43.73947329517696" lon="11.815748489754275"><ele>408.0</ele><time>2026-05-02T08:21:04Z</time></trkpt><trkpt lat="43.73940890875011" lon="11.815702012865021"><ele>408.0</ele><time>2026-05-02T08:21:05Z</time></trkpt><trkpt lat="43.739342975330686" lon="11.815699534316833"><ele>408.0</ele><time>2026-05-02T08:21:06Z</time></trkpt><trkpt lat="43.73927533105048" lon="11.815697344294383"><ele>408.0</ele><time>2026-05-02T08:21:07Z</time></trkpt><trkpt lat="43.73921022107226" lon="11.815695236321472"><ele>408.0</ele><time>2026-05-02T08:21:08Z</time></trkpt><trkpt lat="43.739146874694825" lon="11.815693185446955"><ele>408.0</ele><time>2026-05-02T08:21:09Z</time></trkpt><trkpt lat="43.73902835156731" lon="11.815685200681253"><ele>407.2</ele><time>2026-05-02T08:21:11Z</time></trkpt><trkpt lat="43.738910367053045" lon="11.815676179015577"><ele>406.4</ele><time>2026-05-02T08:21:13Z</time></trkpt><trkpt lat="43.73879153690499" lon="11.815669429384634"><ele>405.59999999999997</ele><time>2026-05-02T08:21:15Z</time></trkpt><trkpt lat="43.73872719705321" lon="11.815686018621943"><ele>404.79999999999995</ele><time>2026-05-02T08:21:16Z</time></trkpt><trkpt lat="43.738599631645165" lon="11.815675368920312"><ele>404.0</ele><time>2026-05-02T08:21:18Z</time></trkpt><trkpt lat="43.73853368865154" lon="11.8156776851696"><ele>403.57142857142856</ele><time>2026-05-02T08:21:19Z</time></trkpt><trkpt lat="43.738465712185814" lon="11.815677059979771"><ele>403.1428571428571</ele><time>2026-05-02T08:21:20Z</time></trkpt><trkpt lat="43.73839947983949" lon="11.815670766051857"><ele>402.7142857142857</ele><time>2026-05-02T08:21:21Z</time></trkpt><trkpt lat="43.738327989444606" lon="11.815674726979179"><ele>402.2857142857143</ele><time>2026-05-02T08:21:22Z</time></trkpt><trkpt lat="43.73825916405023" lon="11.81567679405338"><ele>401.8571428571429</ele><time>2026-05-02T08:21:23Z</time></trkpt><trkpt lat="43.738183567796646" lon="11.815673571802371"><ele>401.42857142857144</ele><time>2026-05-02T08:21:24Z</time></trkpt><trkpt lat="43.73810680033264" lon="11.815668590651036"><ele>401.0</ele><time>2026-05-02T08:21:25Z</time></trkpt><trkpt lat="43.73802382334529" lon="11.815668441010097"><ele>401.0</ele><time>2026-05-02T08:21:26Z</time></trkpt><trkpt lat="43.73794756623358" lon="11.815675042379594"><ele>401.0</ele><time>2026-05-02T08:21:27Z</time></trkpt><trkpt lat="43.737872518574115" lon="11.815674609135968"><ele>401.0</ele><time>2026-05-02T08:21:28Z</time></trkpt><trkpt lat="43.737795356317584" lon="11.815662017273297"><ele>401.0</ele><time>2026-05-02T08:21:29Z</time></trkpt><trkpt lat="43.73772343544427" lon="11.815653775814717"><ele>401.0</ele><time>2026-05-02T08:21:30Z</time></trkpt><trkpt lat="43.73765647938427" lon="11.815639562400607"><ele>401.0</ele><time>2026-05-02T08:21:31Z</time></trkpt><trkpt lat="43.73759210623663" lon="11.815627699947456"><ele>401.0</ele><time>2026-05-02T08:21:32Z</time></trkpt><trkpt lat="43.737477203093505" lon="11.815611270995024"><ele>400.8</ele><time>2026-05-02T08:21:34Z</time></trkpt><trkpt lat="43.737362478569366" lon="11.81557649084752"><ele>400.6</ele><time>2026-05-02T08:21:36Z</time></trkpt><trkpt lat="43.737245293659974" lon="11.81554556199645"><ele>400.4</ele><time>2026-05-02T08:21:38Z</time></trkpt><trkpt lat="43.73718075311421" lon="11.815531923722917"><ele>400.2</ele><time>2026-05-02T08:21:39Z</time></trkpt><trkpt lat="43.737077570390376" lon="11.815479440499319"><ele>400.0</ele><time>2026-05-02T08:21:41Z</time></trkpt><trkpt lat="43.737010568077366" lon="11.815460515080634"><ele>400.0</ele><time>2026-05-02T08:21:44Z</time></trkpt><trkpt lat="43.73692819995904" lon="11.815626764425584"><ele>400.0</ele><time>2026-05-02T08:21:49Z</time></trkpt><trkpt lat="43.73689200431179" lon="11.815747312274416"><ele>400.0</ele><time>2026-05-02T08:21:51Z</time></trkpt><trkpt lat="43.73683677514055" lon="11.815827007546943"><ele>400.0</ele><time>2026-05-02T08:21:53Z</time></trkpt><trkpt lat="43.73668991945101" lon="11.815804089281004"><ele>399.42857142857144</ele><time>2026-05-02T08:21:55Z</time></trkpt><trkpt lat="43.736627514517735" lon="11.815790648105578"><ele>398.8571428571429</ele><time>2026-05-02T08:21:56Z</time></trkpt><trkpt lat="43.736558821300825" lon="11.815752850351704"><ele>398.28571428571433</ele><time>2026-05-02T08:21:57Z</time></trkpt><trkpt lat="43.73649058733683" lon="11.815758251744247"><ele>397.7142857142857</ele><time>2026-05-02T08:21:58Z</time></trkpt><trkpt lat="43.73641191029014" lon="11.815741073962377"><ele>397.1428571428571</ele><time>2026-05-02T08:21:59Z</time></trkpt><trkpt lat="43.73633863256732" lon="11.81572282625162"><ele>396.5714285714286</ele><time>2026-05-02T08:22:00Z</time></trkpt><trkpt lat="43.736269489299" lon="11.815704383635993"><ele>396.0</ele><time>2026-05-02T08:22:01Z</time></trkpt><trkpt lat="43.7361942634481" lon="11.81568574042435"><ele>396.0</ele><time>2026-05-02T08:22:02Z</time></trkpt><trkpt lat="43.73612298563308" lon="11.815661769063293"><ele>396.0</ele><time>2026-05-02T08:22:03Z</time></trkpt><trkpt lat="43.73605039049876" lon="11.81564990368467"><ele>396.0</ele><time>2026-05-02T08:22:04Z</time></trkpt><trkpt lat="43.73598379853713" lon="11.81563308649631"><ele>396.0</ele><time>2026-05-02T08:22:05Z</time></trkpt><trkpt lat="43.73588857043477" lon="11.815614893392533"><ele>396.0</ele><time>2026-05-02T08:22:07Z</time></trkpt><trkpt lat="43.735811850716544" lon="11.815577293910485"><ele>396.0</ele><time>2026-05-02T08:22:12Z</time></trkpt><trkpt lat="43.73579405163446" lon="11.815754728621869"><ele>396.0</ele><time>2026-05-02T08:22:13Z</time></trkpt><trkpt lat="43.73578453133554" lon="11.815864431800604"><ele>396.0</ele><time>2026-05-02T08:22:14Z</time></trkpt><trkpt lat="43.73578464223292" lon="11.815967558583148"><ele>396.0</ele><time>2026-05-02T08:22:15Z</time></trkpt><trkpt lat="43.735770610460996" lon="11.816082719052947"><ele>396.0</ele><time>2026-05-02T08:22:16Z</time></trkpt><trkpt lat="43.735754227332166" lon="11.816206270653046"><ele>396.0</ele><time>2026-05-02T08:22:17Z</time></trkpt><trkpt lat="43.735738936295476" lon="11.816336628854978"><ele>396.0</ele><time>2026-05-02T08:22:18Z</time></trkpt><trkpt lat="43.73572319829841" lon="11.81645960048779"><ele>395.8</ele><time>2026-05-02T08:22:19Z</time></trkpt><trkpt lat="43.73570521443732" lon="11.816590940282124"><ele>395.6</ele><time>2026-05-02T08:22:20Z</time></trkpt><trkpt lat="43.73569004857435" lon="11.816719436859108"><ele>395.4</ele><time>2026-05-02T08:22:21Z</time></trkpt><trkpt lat="43.73565648912198" lon="11.816846609665866"><ele>395.2</ele><time>2026-05-02T08:22:22Z</time></trkpt><trkpt lat="43.735655469043515" lon="11.816979649132183"><ele>395.0</ele><time>2026-05-02T08:22:23Z</time></trkpt><trkpt lat="43.7356369508655" lon="11.817111298939476"><ele>394.75</ele><time>2026-05-02T08:22:24Z</time></trkpt><trkpt lat="43.73561684050282" lon="11.817257826642507"><ele>394.5</ele><time>2026-05-02T08:22:25Z</time></trkpt><trkpt lat="43.73559467514175" lon="11.817428892830295"><ele>394.25</ele><time>2026-05-02T08:22:26Z</time></trkpt><trkpt lat="43.73557167307842" lon="11.817592729074194"><ele>394.0</ele><time>2026-05-02T08:22:27Z</time></trkpt><trkpt lat="43.73553586712238" lon="11.817754810810934"><ele>394.0</ele><time>2026-05-02T08:22:28Z</time></trkpt><trkpt lat="43.73551411443933" lon="11.81791859363523"><ele>394.0</ele><time>2026-05-02T08:22:29Z</time></trkpt><trkpt lat="43.73549343196908" lon="11.81807431849832"><ele>394.0</ele><time>2026-05-02T08:22:30Z</time></trkpt><trkpt lat="43.735472542181014" lon="11.818231603572418"><ele>394.0</ele><time>2026-05-02T08:22:31Z</time></trkpt><trkpt lat="43.735468992469634" lon="11.818385363242736"><ele>394.25</ele><time>2026-05-02T08:22:32Z</time></trkpt><trkpt lat="43.7354503929309" lon="11.818532124054506"><ele>394.5</ele><time>2026-05-02T08:22:33Z</time></trkpt><trkpt lat="43.735429970312225" lon="11.818684783097382"><ele>394.75</ele><time>2026-05-02T08:22:34Z</time></trkpt><trkpt lat="43.73541064534395" lon="11.818838016841552"><ele>395.0</ele><time>2026-05-02T08:22:35Z</time></trkpt><trkpt lat="43.73538864530426" lon="11.819002610360013"><ele>395.0</ele><time>2026-05-02T08:22:36Z</time></trkpt><trkpt lat="43.73536700831826" lon="11.819163503927992"><ele>395.0</ele><time>2026-05-02T08:22:37Z</time></trkpt><trkpt lat="43.73534696719683" lon="11.81931846358925"><ele>395.0</ele><time>2026-05-02T08:22:38Z</time></trkpt><trkpt lat="43.73532567677577" lon="11.81947171605971"><ele>395.0</ele><time>2026-05-02T08:22:39Z</time></trkpt><trkpt lat="43.735303664168796" lon="11.819627887597768"><ele>394.75</ele><time>2026-05-02T08:22:40Z</time></trkpt><trkpt lat="43.73528608356672" lon="11.819789438414476"><ele>394.5</ele><time>2026-05-02T08:22:41Z</time></trkpt><trkpt lat="43.73526368464458" lon="11.819951003496236"><ele>394.25</ele><time>2026-05-02T08:22:42Z</time></trkpt><trkpt lat="43.73524237871815" lon="11.820112099720724"><ele>394.0</ele><time>2026-05-02T08:22:43Z</time></trkpt><trkpt lat="43.73521751735428" lon="11.820275314291521"><ele>394.0</ele><time>2026-05-02T08:22:44Z</time></trkpt><trkpt lat="43.73519302097781" lon="11.820437983518591"><ele>394.0</ele><time>2026-05-02T08:22:45Z</time></trkpt><trkpt lat="43.73517346605967" lon="11.820598242339248"><ele>394.0</ele><time>2026-05-02T08:22:46Z</time></trkpt><trkpt lat="43.73515588381389" lon="11.82074809224515"><ele>394.0</ele><time>2026-05-02T08:22:47Z</time></trkpt><trkpt lat="43.73513904546611" lon="11.820879051989365"><ele>394.0</ele><time>2026-05-02T08:22:48Z</time></trkpt><trkpt lat="43.73511362428105" lon="11.820991014777379"><ele>394.00000000000006</ele><time>2026-05-02T08:22:49Z</time></trkpt><trkpt lat="43.73507812469819" lon="11.821077920629323"><ele>394.0</ele><time>2026-05-02T08:22:50Z</time></trkpt><trkpt lat="43.73503216765688" lon="11.82115963297593"><ele>394.0</ele><time>2026-05-02T08:22:51Z</time></trkpt><trkpt lat="43.734975685548534" lon="11.821237831897466"><ele>394.0</ele><time>2026-05-02T08:22:52Z</time></trkpt><trkpt lat="43.73493142088565" lon="11.821326801302925"><ele>394.00000000000006</ele><time>2026-05-02T08:22:53Z</time></trkpt><trkpt lat="43.7349084532114" lon="11.82143741674477"><ele>394.0</ele><time>2026-05-02T08:22:54Z</time></trkpt><trkpt lat="43.73489270074783" lon="11.821564189451072"><ele>394.00000000000006</ele><time>2026-05-02T08:22:55Z</time></trkpt><trkpt lat="43.73487474480856" lon="11.821699225541657"><ele>394.0</ele><time>2026-05-02T08:22:56Z</time></trkpt><trkpt lat="43.734862591070794" lon="11.821833439058071"><ele>394.0</ele><time>2026-05-02T08:22:57Z</time></trkpt><trkpt lat="43.73485827360948" lon="11.82196406220133"><ele>394.0</ele><time>2026-05-02T08:22:58Z</time></trkpt><trkpt lat="43.73486226313728" lon="11.822066366666151"><ele>394.00000000000006</ele><time>2026-05-02T08:22:59Z</time></trkpt><trkpt lat="43.734882068873134" lon="11.822172933913528"><ele>394.0</ele><time>2026-05-02T08:23:00Z</time></trkpt><trkpt lat="43.734912304695946" lon="11.82227034513648"><ele>395.1666666666667</ele><time>2026-05-02T08:23:01Z</time></trkpt><trkpt lat="43.73493955545103" lon="11.822364393620742"><ele>396.33333333333337</ele><time>2026-05-02T08:23:02Z</time></trkpt><trkpt lat="43.73495339038138" lon="11.822480985467863"><ele>397.5</ele><time>2026-05-02T08:23:03Z</time></trkpt><trkpt lat="43.73494470969465" lon="11.822601212616101"><ele>398.66666666666663</ele><time>2026-05-02T08:23:04Z</time></trkpt><trkpt lat="43.73492465304044" lon="11.822736517642097"><ele>399.8333333333333</ele><time>2026-05-02T08:23:05Z</time></trkpt><trkpt lat="43.73490391978246" lon="11.82287241755561"><ele>401.0</ele><time>2026-05-02T08:23:06Z</time></trkpt><trkpt lat="43.73487644161728" lon="11.823004399587628"><ele>402.6</ele><time>2026-05-02T08:23:07Z</time></trkpt><trkpt lat="43.73485152553066" lon="11.823141139509161"><ele>404.20000000000005</ele><time>2026-05-02T08:23:08Z</time></trkpt><trkpt lat="43.73483224890015" lon="11.82328209638925"><ele>405.79999999999995</ele><time>2026-05-02T08:23:09Z</time></trkpt><trkpt lat="43.73481000378601" lon="11.823425321009198"><ele>407.4</ele><time>2026-05-02T08:23:10Z</time></trkpt><trkpt lat="43.73479014047712" lon="11.82357093306721"><ele>409.0</ele><time>2026-05-02T08:23:11Z</time></trkpt><trkpt lat="43.734769551183376" lon="11.823742004682662"><ele>410.75</ele><time>2026-05-02T08:23:12Z</time></trkpt><trkpt lat="43.734746474508526" lon="11.823923990788469"><ele>412.5</ele><time>2026-05-02T08:23:13Z</time></trkpt><trkpt lat="43.73472410295977" lon="11.824106659164263"><ele>414.25</ele><time>2026-05-02T08:23:14Z</time></trkpt><trkpt lat="43.7347021117589" lon="11.824286471624049"><ele>416.0</ele><time>2026-05-02T08:23:15Z</time></trkpt><trkpt lat="43.734677727055406" lon="11.824463201348166"><ele>418.75</ele><time>2026-05-02T08:23:16Z</time></trkpt><trkpt lat="43.734651032889" lon="11.824642520358436"><ele>421.5</ele><time>2026-05-02T08:23:17Z</time></trkpt><trkpt lat="43.73462714003729" lon="11.824827214280091"><ele>424.25</ele><time>2026-05-02T08:23:18Z</time></trkpt><trkpt lat="43.73460405583929" lon="11.825008289326941"><ele>427.0</ele><time>2026-05-02T08:23:19Z</time></trkpt><trkpt lat="43.73458029945068" lon="11.825167738763316"><ele>428.8</ele><time>2026-05-02T08:23:20Z</time></trkpt><trkpt lat="43.73456353834995" lon="11.825295936930662"><ele>430.6</ele><time>2026-05-02T08:23:21Z</time></trkpt><trkpt lat="43.73454617977287" lon="11.82541878156992"><ele>432.40000000000003</ele><time>2026-05-02T08:23:22Z</time></trkpt><trkpt lat="43.734531744306736" lon="11.825518100799643"><ele>434.20000000000005</ele><time>2026-05-02T08:23:23Z</time></trkpt><trkpt lat="43.734527230148416" lon="11.825607791059781"><ele>436.0</ele><time>2026-05-02T08:23:24Z</time></trkpt><trkpt lat="43.734599760323476" lon="11.825761774736721"><ele>436.0</ele><time>2026-05-02T08:23:26Z</time></trkpt><trkpt lat="43.73467827745168" lon="11.825821532635207"><ele>436.0</ele><time>2026-05-02T08:23:27Z</time></trkpt><trkpt lat="43.73477744317508" lon="11.825866141576823"><ele>436.0</ele><time>2026-05-02T08:23:28Z</time></trkpt><trkpt lat="43.73488289751886" lon="11.825904089456944"><ele>436.0</ele><time>2026-05-02T08:23:29Z</time></trkpt><trkpt lat="43.734995803515226" lon="11.825947450641147"><ele>436.0</ele><time>2026-05-02T08:23:30Z</time></trkpt><trkpt lat="43.73510352946788" lon="11.825993116891905"><ele>438.0</ele><time>2026-05-02T08:23:31Z</time></trkpt><trkpt lat="43.73521449070244" lon="11.826040475399276"><ele>440.0</ele><time>2026-05-02T08:23:32Z</time></trkpt><trkpt lat="43.73532804671111" lon="11.826081186348041"><ele>442.0</ele><time>2026-05-02T08:23:33Z</time></trkpt><trkpt lat="43.73543603530491" lon="11.826102014956849"><ele>444.0</ele><time>2026-05-02T08:23:34Z</time></trkpt><trkpt lat="43.73553289697655" lon="11.826113415315758"><ele>446.0</ele><time>2026-05-02T08:23:35Z</time></trkpt><trkpt lat="43.73561924201198" lon="11.826130371864494"><ele>446.6</ele><time>2026-05-02T08:23:36Z</time></trkpt><trkpt lat="43.73569782146297" lon="11.826154236584328"><ele>447.20000000000005</ele><time>2026-05-02T08:23:37Z</time></trkpt><trkpt lat="43.73577696884094" lon="11.826223197154878"><ele>447.79999999999995</ele><time>2026-05-02T08:23:38Z</time></trkpt><trkpt lat="43.73584554484473" lon="11.82632531381274"><ele>448.4</ele><time>2026-05-02T08:23:39Z</time></trkpt><trkpt lat="43.735913741675766" lon="11.826442652037953"><ele>449.0</ele><time>2026-05-02T08:23:40Z</time></trkpt><trkpt lat="43.73598444366817" lon="11.8265723257765"><ele>449.16666666666663</ele><time>2026-05-02T08:23:41Z</time></trkpt><trkpt lat="43.7360544184342" lon="11.826705426868852"><ele>449.3333333333333</ele><time>2026-05-02T08:23:42Z</time></trkpt><trkpt lat="43.73611472042116" lon="11.826816028496104"><ele>449.5</ele><time>2026-05-02T08:23:43Z</time></trkpt><trkpt lat="43.73615370932753" lon="11.826911958053289"><ele>449.66666666666663</ele><time>2026-05-02T08:23:44Z</time></trkpt><trkpt lat="43.736167474548004" lon="11.82700395565995"><ele>449.8333333333333</ele><time>2026-05-02T08:23:45Z</time></trkpt><trkpt lat="43.736138674992304" lon="11.82710152230126"><ele>450.0</ele><time>2026-05-02T08:23:46Z</time></trkpt><trkpt lat="43.736075716744466" lon="11.827194429832637"><ele>452.4</ele><time>2026-05-02T08:23:47Z</time></trkpt><trkpt lat="43.73598831237155" lon="11.827240169472601"><ele>454.8</ele><time>2026-05-02T08:23:48Z</time></trkpt><trkpt lat="43.73589405956209" lon="11.827274581111256"><ele>457.20000000000005</ele><time>2026-05-02T08:23:49Z</time></trkpt><trkpt lat="43.73581242786628" lon="11.82731378632055"><ele>459.6</ele><time>2026-05-02T08:23:50Z</time></trkpt><trkpt lat="43.735758395200236" lon="11.827366314501889"><ele>462.0</ele><time>2026-05-02T08:23:51Z</time></trkpt><trkpt lat="43.735707106945426" lon="11.827528401851106"><ele>462.0</ele><time>2026-05-02T08:23:53Z</time></trkpt><trkpt lat="43.73572367743687" lon="11.827633583854292"><ele>462.00000000000006</ele><time>2026-05-02T08:23:54Z</time></trkpt><trkpt lat="43.73576917780323" lon="11.827730137431645"><ele>462.00000000000006</ele><time>2026-05-02T08:23:55Z</time></trkpt><trkpt lat="43.73583447776365" lon="11.82782328939674"><ele>462.0</ele><time>2026-05-02T08:23:56Z</time></trkpt><trkpt lat="43.73590880095575" lon="11.82792886186233"><ele>462.0</ele><time>2026-05-02T08:23:57Z</time></trkpt><trkpt lat="43.73599108026365" lon="11.82803591449455"><ele>463.6</ele><time>2026-05-02T08:23:58Z</time></trkpt><trkpt lat="43.7360630867793" lon="11.828138193701575"><ele>465.20000000000005</ele><time>2026-05-02T08:23:59Z</time></trkpt><trkpt lat="43.736118547217934" lon="11.828247144704893"><ele>466.8</ele><time>2026-05-02T08:24:00Z</time></trkpt><trkpt lat="43.73616525351339" lon="11.828378359901473"><ele>468.4</ele><time>2026-05-02T08:24:01Z</time></trkpt><trkpt lat="43.73620399235921" lon="11.828522723937247"><ele>470.0</ele><time>2026-05-02T08:24:02Z</time></trkpt><trkpt lat="43.73623883235213" lon="11.828680326552874"><ele>470.8</ele><time>2026-05-02T08:24:03Z</time></trkpt><trkpt lat="43.73627367553294" lon="11.828836585388377"><ele>471.6</ele><time>2026-05-02T08:24:04Z</time></trkpt><trkpt lat="43.73630827366713" lon="11.8289792072975"><ele>472.4</ele><time>2026-05-02T08:24:05Z</time></trkpt><trkpt lat="43.73635038213984" lon="11.829104915460253"><ele>473.2</ele><time>2026-05-02T08:24:06Z</time></trkpt><trkpt lat="43.736408605262056" lon="11.82922154301567"><ele>474.0</ele><time>2026-05-02T08:24:07Z</time></trkpt><trkpt lat="43.73647499950994" lon="11.829316742205819"><ele>474.6</ele><time>2026-05-02T08:24:08Z</time></trkpt><trkpt lat="43.73654475578037" lon="11.829402035402262"><ele>475.2</ele><time>2026-05-02T08:24:09Z</time></trkpt><trkpt lat="43.73661303914566" lon="11.829491660883454"><ele>475.80000000000007</ele><time>2026-05-02T08:24:10Z</time></trkpt><trkpt lat="43.73668310980408" lon="11.829585300469562"><ele>476.40000000000003</ele><time>2026-05-02T08:24:11Z</time></trkpt><trkpt lat="43.7367601316184" lon="11.829694113174599"><ele>477.0</ele><time>2026-05-02T08:24:12Z</time></trkpt><trkpt lat="43.7368392522343" lon="11.829795658773483"><ele>478.40000000000003</ele><time>2026-05-02T08:24:13Z</time></trkpt><trkpt lat="43.73691306255409" lon="11.829902193363367"><ele>479.80000000000007</ele><time>2026-05-02T08:24:14Z</time></trkpt><trkpt lat="43.73699098910013" lon="11.830006899969963"><ele>481.2</ele><time>2026-05-02T08:24:15Z</time></trkpt><trkpt lat="43.73706591122932" lon="11.83011499103179"><ele>482.6</ele><time>2026-05-02T08:24:16Z</time></trkpt><trkpt lat="43.73714141920784" lon="11.830219744577947"><ele>484.0</ele><time>2026-05-02T08:24:17Z</time></trkpt><trkpt lat="43.73721472291887" lon="11.830322214112488"><ele>485.6</ele><time>2026-05-02T08:24:18Z</time></trkpt><trkpt lat="43.7372865913317" lon="11.830416117615346"><ele>487.2</ele><time>2026-05-02T08:24:19Z</time></trkpt><trkpt lat="43.73735733911938" lon="11.830511114724242"><ele>488.80000000000007</ele><time>2026-05-02T08:24:20Z</time></trkpt><trkpt lat="43.73742629033068" lon="11.830598057995068"><ele>490.40000000000003</ele><time>2026-05-02T08:24:21Z</time></trkpt><trkpt lat="43.737498881649344" lon="11.830673303275903"><ele>492.0</ele><time>2026-05-02T08:24:22Z</time></trkpt><trkpt lat="43.73758162101441" lon="11.83074119487687"><ele>492.0</ele><time>2026-05-02T08:24:23Z</time></trkpt><trkpt lat="43.737663614524585" lon="11.830798889378128"><ele>492.0</ele><time>2026-05-02T08:24:24Z</time></trkpt><trkpt lat="43.73774998631228" lon="11.830869880002373"><ele>492.0</ele><time>2026-05-02T08:24:25Z</time></trkpt><trkpt lat="43.737817540375666" lon="11.830938367483844"><ele>492.0</ele><time>2026-05-02T08:24:26Z</time></trkpt><trkpt lat="43.737875924788355" lon="11.831017981818242"><ele>492.0</ele><time>2026-05-02T08:24:27Z</time></trkpt><trkpt lat="43.73793882351448" lon="11.831102279590484"><ele>492.0</ele><time>2026-05-02T08:24:28Z</time></trkpt><trkpt lat="43.73800028536702" lon="11.831181000634091"><ele>493.8333333333333</ele><time>2026-05-02T08:24:29Z</time></trkpt><trkpt lat="43.73806723140481" lon="11.831256757273138"><ele>495.66666666666663</ele><time>2026-05-02T08:24:30Z</time></trkpt><trkpt lat="43.73813155040875" lon="11.831316265260032"><ele>497.5</ele><time>2026-05-02T08:24:31Z</time></trkpt><trkpt lat="43.738203224877765" lon="11.83137526406056"><ele>499.3333333333333</ele><time>2026-05-02T08:24:32Z</time></trkpt><trkpt lat="43.738279559225724" lon="11.831423922283033"><ele>501.16666666666663</ele><time>2026-05-02T08:24:33Z</time></trkpt><trkpt lat="43.73835863605214" lon="11.831487275059574"><ele>503.0</ele><time>2026-05-02T08:24:34Z</time></trkpt><trkpt lat="43.73844136341197" lon="11.83157015383521"><ele>503.0</ele><time>2026-05-02T08:24:35Z</time></trkpt><trkpt lat="43.73851882586643" lon="11.831660966796049"><ele>502.99999999999994</ele><time>2026-05-02T08:24:36Z</time></trkpt><trkpt lat="43.73859516254417" lon="11.831750102269439"><ele>502.99999999999994</ele><time>2026-05-02T08:24:37Z</time></trkpt><trkpt lat="43.73866755573562" lon="11.8318383972213"><ele>503.0</ele><time>2026-05-02T08:24:38Z</time></trkpt><trkpt lat="43.73873707394319" lon="11.831933381811186"><ele>503.0</ele><time>2026-05-02T08:24:39Z</time></trkpt><trkpt lat="43.73881363979607" lon="11.832038740596685"><ele>504.5</ele><time>2026-05-02T08:24:40Z</time></trkpt><trkpt lat="43.73889441961031" lon="11.832151509038928"><ele>506.0</ele><time>2026-05-02T08:24:41Z</time></trkpt><trkpt lat="43.73898323105297" lon="11.832265415013786"><ele>507.5</ele><time>2026-05-02T08:24:42Z</time></trkpt><trkpt lat="43.73907840640981" lon="11.832374940152725"><ele>509.0</ele><time>2026-05-02T08:24:43Z</time></trkpt><trkpt lat="43.739173735163575" lon="11.832484887699598"><ele>508.99999999999994</ele><time>2026-05-02T08:24:44Z</time></trkpt><trkpt lat="43.73926056539864" lon="11.832590887876206"><ele>509.0</ele><time>2026-05-02T08:24:45Z</time></trkpt><trkpt lat="43.73933713454995" lon="11.832685347993932"><ele>509.0</ele><time>2026-05-02T08:24:46Z</time></trkpt><trkpt lat="43.73940232630417" lon="11.832764415984979"><ele>509.0</ele><time>2026-05-02T08:24:47Z</time></trkpt><trkpt lat="43.73946128752362" lon="11.832827396859745"><ele>508.99999999999994</ele><time>2026-05-02T08:24:48Z</time></trkpt><trkpt lat="43.73951870247995" lon="11.832872870477694"><ele>509.0</ele><time>2026-05-02T08:24:49Z</time></trkpt><trkpt lat="43.739586807279316" lon="11.832893553527533"><ele>510.16666666666663</ele><time>2026-05-02T08:24:50Z</time></trkpt><trkpt lat="43.73965781492391" lon="11.832875505738604"><ele>511.3333333333333</ele><time>2026-05-02T08:24:51Z</time></trkpt><trkpt lat="43.739726074850324" lon="11.832812678650825"><ele>512.5</ele><time>2026-05-02T08:24:52Z</time></trkpt><trkpt lat="43.73978822969958" lon="11.832709096958578"><ele>513.6666666666666</ele><time>2026-05-02T08:24:53Z</time></trkpt><trkpt lat="43.73983915510523" lon="11.832582309824696"><ele>514.8333333333334</ele><time>2026-05-02T08:24:54Z</time></trkpt><trkpt lat="43.739884843836776" lon="11.832471053983573"><ele>516.0</ele><time>2026-05-02T08:24:55Z</time></trkpt><trkpt lat="43.73993911706432" lon="11.832388976140983"><ele>516.0</ele><time>2026-05-02T08:24:56Z</time></trkpt><trkpt lat="43.74000387733339" lon="11.83232072718751"><ele>516.0</ele><time>2026-05-02T08:24:57Z</time></trkpt><trkpt lat="43.74007424562025" lon="11.832275236569252"><ele>516.0</ele><time>2026-05-02T08:24:58Z</time></trkpt><trkpt lat="43.74014021730895" lon="11.832260133431127"><ele>516.0</ele><time>2026-05-02T08:24:59Z</time></trkpt><trkpt lat="43.74020977866545" lon="11.832286081726494"><ele>516.0</ele><time>2026-05-02T08:25:00Z</time></trkpt><trkpt lat="43.740268480659346" lon="11.83235175364332"><ele>516.0</ele><time>2026-05-02T08:25:01Z</time></trkpt><trkpt lat="43.740308256694256" lon="11.832450390198485"><ele>518.8333333333334</ele><time>2026-05-02T08:25:02Z</time></trkpt><trkpt lat="43.740308741443535" lon="11.832563011079008"><ele>521.6666666666666</ele><time>2026-05-02T08:25:03Z</time></trkpt><trkpt lat="43.74028115652623" lon="11.83267971965067"><ele>524.5</ele><time>2026-05-02T08:25:04Z</time></trkpt><trkpt lat="43.74023250881901" lon="11.832788051699778"><ele>527.3333333333333</ele><time>2026-05-02T08:25:05Z</time></trkpt><trkpt lat="43.740175571457925" lon="11.832896843921864"><ele>530.1666666666666</ele><time>2026-05-02T08:25:06Z</time></trkpt><trkpt lat="43.74013234992397" lon="11.83300375349018"><ele>533.0</ele><time>2026-05-02T08:25:07Z</time></trkpt><trkpt lat="43.74010400890006" lon="11.833112950832371"><ele>533.0</ele><time>2026-05-02T08:25:08Z</time></trkpt><trkpt lat="43.74008958363902" lon="11.833243580164758"><ele>533.0</ele><time>2026-05-02T08:25:09Z</time></trkpt><trkpt lat="43.74007921646599" lon="11.833365688617796"><ele>533.0</ele><time>2026-05-02T08:25:10Z</time></trkpt><trkpt lat="43.74006778659141" lon="11.833508761033912"><ele>533.0</ele><time>2026-05-02T08:25:11Z</time></trkpt><trkpt lat="43.740048739644514" lon="11.833646567466188"><ele>533.0</ele><time>2026-05-02T08:25:12Z</time></trkpt><trkpt lat="43.74001192840241" lon="11.833774036505755"><ele>534.5</ele><time>2026-05-02T08:25:13Z</time></trkpt><trkpt lat="43.739959429192886" lon="11.833883187429347"><ele>536.0</ele><time>2026-05-02T08:25:14Z</time></trkpt><trkpt lat="43.739894378886085" lon="11.833970111235022"><ele>537.5</ele><time>2026-05-02T08:25:15Z</time></trkpt><trkpt lat="43.73981933013731" lon="11.834039173771085"><ele>539.0</ele><time>2026-05-02T08:25:16Z</time></trkpt><trkpt lat="43.739749829013014" lon="11.834106579942723"><ele>540.5</ele><time>2026-05-02T08:25:17Z</time></trkpt><trkpt lat="43.73969654524433" lon="11.834174035878943"><ele>542.0</ele><time>2026-05-02T08:25:18Z</time></trkpt><trkpt lat="43.73965962985551" lon="11.83424780100282"><ele>542.1666666666666</ele><time>2026-05-02T08:25:19Z</time></trkpt><trkpt lat="43.73964103018062" lon="11.834333898750865"><ele>542.3333333333333</ele><time>2026-05-02T08:25:20Z</time></trkpt><trkpt lat="43.73969035668394" lon="11.834486709067125"><ele>542.5</ele><time>2026-05-02T08:25:22Z</time></trkpt><trkpt lat="43.73974985198833" lon="11.834554662508044"><ele>542.6666666666666</ele><time>2026-05-02T08:25:23Z</time></trkpt><trkpt lat="43.73981552268215" lon="11.834625697707784"><ele>542.8333333333334</ele><time>2026-05-02T08:25:24Z</time></trkpt><trkpt lat="43.73988429858133" lon="11.834695028516178"><ele>543.0</ele><time>2026-05-02T08:25:25Z</time></trkpt><trkpt lat="43.739953763670876" lon="11.834773590592198"><ele>543.0</ele><time>2026-05-02T08:25:26Z</time></trkpt><trkpt lat="43.740027982415754" lon="11.834854453494383"><ele>543.0</ele><time>2026-05-02T08:25:27Z</time></trkpt><trkpt lat="43.74010712494592" lon="11.834941363136664"><ele>543.0</ele><time>2026-05-02T08:25:28Z</time></trkpt><trkpt lat="43.74018739268795" lon="11.835030138596855"><ele>543.0</ele><time>2026-05-02T08:25:29Z</time></trkpt><trkpt lat="43.74026711322889" lon="11.835116257761756"><ele>543.0</ele><time>2026-05-02T08:25:30Z</time></trkpt><trkpt lat="43.74034552532494" lon="11.835204129770593"><ele>544.8333333333334</ele><time>2026-05-02T08:25:31Z</time></trkpt><trkpt lat="43.740431799289375" lon="11.83529380884311"><ele>546.6666666666666</ele><time>2026-05-02T08:25:32Z</time></trkpt><trkpt lat="43.74051270983117" lon="11.835382909517094"><ele>548.5</ele><time>2026-05-02T08:25:33Z</time></trkpt><trkpt lat="43.74057991665256" lon="11.835453599016832"><ele>550.3333333333333</ele><time>2026-05-02T08:25:34Z</time></trkpt><trkpt lat="43.74063140157012" lon="11.835506646862942"><ele>552.1666666666666</ele><time>2026-05-02T08:25:35Z</time></trkpt><trkpt lat="43.740685325395" lon="11.835578456620224"><ele>554.0</ele><time>2026-05-02T08:25:37Z</time></trkpt><trkpt lat="43.74060235991126" lon="11.835668348944743"><ele>554.0</ele><time>2026-05-02T08:25:40Z</time></trkpt><trkpt lat="43.74053487637281" lon="11.835690604957213"><ele>554.0</ele><time>2026-05-02T08:25:41Z</time></trkpt><trkpt lat="43.740457551688" lon="11.83572065052575"><ele>554.0</ele><time>2026-05-02T08:25:42Z</time></trkpt><trkpt lat="43.74037996624754" lon="11.835761287835227"><ele>554.0</ele><time>2026-05-02T08:25:43Z</time></trkpt><trkpt lat="43.74030826143056" lon="11.83580506359301"><ele>554.0</ele><time>2026-05-02T08:25:44Z</time></trkpt><trkpt lat="43.74023302229839" lon="11.835847596147628"><ele>554.0</ele><time>2026-05-02T08:25:45Z</time></trkpt><trkpt lat="43.7401640574111" lon="11.835892310426447"><ele>553.3333333333333</ele><time>2026-05-02T08:25:46Z</time></trkpt><trkpt lat="43.74009757314317" lon="11.835946832802323"><ele>552.6666666666666</ele><time>2026-05-02T08:25:47Z</time></trkpt><trkpt lat="43.74003691826464" lon="11.836021764594"><ele>552.0</ele><time>2026-05-02T08:25:48Z</time></trkpt><trkpt lat="43.73998376668637" lon="11.836098168335251"><ele>551.3333333333334</ele><time>2026-05-02T08:25:49Z</time></trkpt><trkpt lat="43.73992067347994" lon="11.836182877078917"><ele>550.6666666666667</ele><time>2026-05-02T08:25:50Z</time></trkpt><trkpt lat="43.739847208019384" lon="11.836261687217563"><ele>550.0</ele><time>2026-05-02T08:25:51Z</time></trkpt><trkpt lat="43.73977711603314" lon="11.836337179866513"><ele>550.0</ele><time>2026-05-02T08:25:52Z</time></trkpt><trkpt lat="43.73969336750994" lon="11.836400155988205"><ele>550.0</ele><time>2026-05-02T08:25:53Z</time></trkpt><trkpt lat="43.73960000417471" lon="11.836459384076049"><ele>550.0</ele><time>2026-05-02T08:25:54Z</time></trkpt><trkpt lat="43.73950279400763" lon="11.83651198377586"><ele>550.0</ele><time>2026-05-02T08:25:55Z</time></trkpt><trkpt lat="43.73942171748554" lon="11.836567936410514"><ele>550.0</ele><time>2026-05-02T08:25:56Z</time></trkpt><trkpt lat="43.73931522435838" lon="11.836617042500565"><ele>550.6</ele><time>2026-05-02T08:25:57Z</time></trkpt><trkpt lat="43.739219657936424" lon="11.836663694621219"><ele>551.2</ele><time>2026-05-02T08:25:58Z</time></trkpt><trkpt lat="43.739138840574796" lon="11.836701244378451"><ele>551.8</ele><time>2026-05-02T08:25:59Z</time></trkpt><trkpt lat="43.73904537570249" lon="11.83675105593867"><ele>552.4</ele><time>2026-05-02T08:26:00Z</time></trkpt><trkpt lat="43.73894438702424" lon="11.836801310284562"><ele>553.0</ele><time>2026-05-02T08:26:01Z</time></trkpt><trkpt lat="43.73884654951855" lon="11.836858411883492"><ele>553.0</ele><time>2026-05-02T08:26:02Z</time></trkpt><trkpt lat="43.73875360869483" lon="11.836907776941697"><ele>553.0</ele><time>2026-05-02T08:26:03Z</time></trkpt><trkpt lat="43.738666447600316" lon="11.836952725623233"><ele>553.0</ele><time>2026-05-02T08:26:04Z</time></trkpt><trkpt lat="43.73857374114135" lon="11.836998349690099"><ele>553.0</ele><time>2026-05-02T08:26:05Z</time></trkpt><trkpt lat="43.73848794573585" lon="11.837034620922198"><ele>553.0</ele><time>2026-05-02T08:26:06Z</time></trkpt><trkpt lat="43.738405194965615" lon="11.837066804548696"><ele>552.5</ele><time>2026-05-02T08:26:07Z</time></trkpt><trkpt lat="43.73833410513217" lon="11.837098369983904"><ele>552.0</ele><time>2026-05-02T08:26:08Z</time></trkpt><trkpt lat="43.738274179538685" lon="11.837138106271786"><ele>551.5</ele><time>2026-05-02T08:26:09Z</time></trkpt><trkpt lat="43.73821714755862" lon="11.837191126154242"><ele>551.0</ele><time>2026-05-02T08:26:10Z</time></trkpt><trkpt lat="43.73815288125345" lon="11.837268640910988"><ele>550.5</ele><time>2026-05-02T08:26:11Z</time></trkpt><trkpt lat="43.73810627396669" lon="11.83735417628754"><ele>550.0</ele><time>2026-05-02T08:26:12Z</time></trkpt><trkpt lat="43.73806283330775" lon="11.837453745284884"><ele>550.0</ele><time>2026-05-02T08:26:13Z</time></trkpt><trkpt lat="43.738018021810696" lon="11.837562163064616"><ele>550.0</ele><time>2026-05-02T08:26:14Z</time></trkpt><trkpt lat="43.73797373065123" lon="11.837660685811885"><ele>550.0</ele><time>2026-05-02T08:26:15Z</time></trkpt><trkpt lat="43.73793211768102" lon="11.837755960954425"><ele>550.0</ele><time>2026-05-02T08:26:16Z</time></trkpt><trkpt lat="43.73789433284871" lon="11.837835651133542"><ele>550.0</ele><time>2026-05-02T08:26:17Z</time></trkpt><trkpt lat="43.73784275206986" lon="11.837913474498249"><ele>550.0</ele><time>2026-05-02T08:26:18Z</time></trkpt><trkpt lat="43.737791868727555" lon="11.837987064556247"><ele>550.0</ele><time>2026-05-02T08:26:19Z</time></trkpt><trkpt lat="43.737727444099775" lon="11.838057888367656"><ele>550.0</ele><time>2026-05-02T08:26:20Z</time></trkpt><trkpt lat="43.73764665378297" lon="11.838127626790033"><ele>550.0</ele><time>2026-05-02T08:26:21Z</time></trkpt><trkpt lat="43.73756203338834" lon="11.838203492340385"><ele>550.0</ele><time>2026-05-02T08:26:22Z</time></trkpt><trkpt lat="43.73748045286188" lon="11.838290686965658"><ele>550.0</ele><time>2026-05-02T08:26:23Z</time></trkpt><trkpt lat="43.73740134041946" lon="11.83838813462122"><ele>551.0</ele><time>2026-05-02T08:26:24Z</time></trkpt><trkpt lat="43.737322153604055" lon="11.838477478785618"><ele>552.0</ele><time>2026-05-02T08:26:25Z</time></trkpt><trkpt lat="43.737253067848734" lon="11.838579567511996"><ele>553.0</ele><time>2026-05-02T08:26:26Z</time></trkpt><trkpt lat="43.73718068120979" lon="11.838685035766161"><ele>554.0</ele><time>2026-05-02T08:26:27Z</time></trkpt><trkpt lat="43.7371063904742" lon="11.838787469484986"><ele>555.0</ele><time>2026-05-02T08:26:28Z</time></trkpt><trkpt lat="43.737027253120566" lon="11.838895377409917"><ele>555.0</ele><time>2026-05-02T08:26:29Z</time></trkpt><trkpt lat="43.736946685437765" lon="11.83900158009001"><ele>555.0</ele><time>2026-05-02T08:26:30Z</time></trkpt><trkpt lat="43.736874799768984" lon="11.839105114139878"><ele>555.0</ele><time>2026-05-02T08:26:31Z</time></trkpt><trkpt lat="43.736798358524155" lon="11.83921211218479"><ele>555.0</ele><time>2026-05-02T08:26:32Z</time></trkpt><trkpt lat="43.73672396807681" lon="11.839309536243434"><ele>555.0</ele><time>2026-05-02T08:26:33Z</time></trkpt><trkpt lat="43.73664934163337" lon="11.83940838389645"><ele>555.0</ele><time>2026-05-02T08:26:34Z</time></trkpt><trkpt lat="43.73656503203988" lon="11.839514839838774"><ele>555.0</ele><time>2026-05-02T08:26:35Z</time></trkpt><trkpt lat="43.736477064362056" lon="11.839627677000825"><ele>555.0</ele><time>2026-05-02T08:26:36Z</time></trkpt><trkpt lat="43.7363958212363" lon="11.839736420325726"><ele>555.0</ele><time>2026-05-02T08:26:37Z</time></trkpt><trkpt lat="43.73632916006441" lon="11.839828972588188"><ele>555.0</ele><time>2026-05-02T08:26:38Z</time></trkpt><trkpt lat="43.73626751464419" lon="11.839910716986271"><ele>555.0</ele><time>2026-05-02T08:26:39Z</time></trkpt><trkpt lat="43.73620564525816" lon="11.84000924222797"><ele>555.0</ele><time>2026-05-02T08:26:40Z</time></trkpt><trkpt lat="43.73615027515504" lon="11.840113856662464"><ele>555.0</ele><time>2026-05-02T08:26:41Z</time></trkpt><trkpt lat="43.73612377144584" lon="11.840210402244336"><ele>555.0</ele><time>2026-05-02T08:26:42Z</time></trkpt><trkpt lat="43.736107222423485" lon="11.840346504986691"><ele>555.0</ele><time>2026-05-02T08:26:43Z</time></trkpt><trkpt lat="43.73610615639916" lon="11.84044237324281"><ele>555.0</ele><time>2026-05-02T08:26:44Z</time></trkpt><trkpt lat="43.73610592098944" lon="11.840548453397048"><ele>556.1666666666666</ele><time>2026-05-02T08:26:47Z</time></trkpt><trkpt lat="43.73610843490788" lon="11.840668487234534"><ele>557.3333333333334</ele><time>2026-05-02T08:27:20Z</time></trkpt><trkpt lat="43.7360983788097" lon="11.840773656566508"><ele>558.5</ele><time>2026-05-02T08:27:22Z</time></trkpt><trkpt lat="43.73609224395236" lon="11.840885719223921"><ele>559.6666666666667</ele><time>2026-05-02T08:27:24Z</time></trkpt><trkpt lat="43.7360870230785" lon="11.841015581553554"><ele>560.8333333333334</ele><time>2026-05-02T08:27:26Z</time></trkpt><trkpt lat="43.73607551660392" lon="11.841148780810782"><ele>562.0</ele><time>2026-05-02T08:27:28Z</time></trkpt><trkpt lat="43.73607836792866" lon="11.841289624434431"><ele>564.0</ele><time>2026-05-02T08:27:30Z</time></trkpt><trkpt lat="43.736082272663964" lon="11.841440538586077"><ele>566.0</ele><time>2026-05-02T08:27:32Z</time></trkpt><trkpt lat="43.73609979859726" lon="11.84159679898216"><ele>568.0</ele><time>2026-05-02T08:27:34Z</time></trkpt><trkpt lat="43.73612100817454" lon="11.841743179629722"><ele>570.0</ele><time>2026-05-02T08:27:36Z</time></trkpt><trkpt lat="43.73614010501867" lon="11.841890274468561"><ele>572.0</ele><time>2026-05-02T08:27:38Z</time></trkpt><trkpt lat="43.736164343591206" lon="11.842036790779817"><ele>572.6</ele><time>2026-05-02T08:27:40Z</time></trkpt><trkpt lat="43.73618472891319" lon="11.842176665032271"><ele>573.2</ele><time>2026-05-02T08:27:42Z</time></trkpt><trkpt lat="43.73622938732142" lon="11.842301706320017"><ele>573.8</ele><time>2026-05-02T08:27:44Z</time></trkpt><trkpt lat="43.73630663636081" lon="11.842370236145213"><ele>574.4</ele><time>2026-05-02T08:27:46Z</time></trkpt><trkpt lat="43.73641171757215" lon="11.842386121205346"><ele>575.0</ele><time>2026-05-02T08:27:48Z</time></trkpt><trkpt lat="43.73651853474412" lon="11.842422855814272"><ele>575.0</ele><time>2026-05-02T08:27:50Z</time></trkpt><trkpt lat="43.73662265774568" lon="11.84245958328491"><ele>575.0</ele><time>2026-05-02T08:27:52Z</time></trkpt><trkpt lat="43.736720092016604" lon="11.842498231093709"><ele>575.0</ele><time>2026-05-02T08:27:54Z</time></trkpt><trkpt lat="43.73682305011115" lon="11.842531255932531"><ele>575.0</ele><time>2026-05-02T08:27:56Z</time></trkpt><trkpt lat="43.73691478916577" lon="11.842568197436595"><ele>575.0</ele><time>2026-05-02T08:27:58Z</time></trkpt><trkpt lat="43.737012367321135" lon="11.842599686492244"><ele>577.5</ele><time>2026-05-02T08:28:00Z</time></trkpt><trkpt lat="43.737106004961916" lon="11.842641869108714"><ele>580.0</ele><time>2026-05-02T08:28:02Z</time></trkpt><trkpt lat="43.737201567165634" lon="11.842681118317186"><ele>582.5</ele><time>2026-05-02T08:28:04Z</time></trkpt><trkpt lat="43.73728681442344" lon="11.842733338765852"><ele>585.0</ele><time>2026-05-02T08:28:06Z</time></trkpt><trkpt lat="43.73736040204608" lon="11.842780429703906"><ele>587.5</ele><time>2026-05-02T08:28:09Z</time></trkpt><trkpt lat="43.73743332805805" lon="11.842783810789284"><ele>590.0</ele><time>2026-05-02T08:28:11Z</time></trkpt><trkpt lat="43.73750269622217" lon="11.842769176813851"><ele>590.0</ele><time>2026-05-02T08:28:13Z</time></trkpt><trkpt lat="43.73757014852024" lon="11.842764835638624"><ele>590.0</ele><time>2026-05-02T08:28:15Z</time></trkpt><trkpt lat="43.737642602209235" lon="11.842768614166099"><ele>590.0</ele><time>2026-05-02T08:28:17Z</time></trkpt><trkpt lat="43.73772080168509" lon="11.842819274749258"><ele>590.0</ele><time>2026-05-02T08:28:19Z</time></trkpt><trkpt lat="43.73784434364468" lon="11.842929201706653"><ele>590.0</ele><time>2026-05-02T08:28:22Z</time></trkpt><trkpt lat="43.73793496176965" lon="11.84296612553053"><ele>593.5</ele><time>2026-05-02T08:28:25Z</time></trkpt><trkpt lat="43.738001242745554" lon="11.842967769301106"><ele>597.0</ele><time>2026-05-02T08:28:27Z</time></trkpt><trkpt lat="43.738067960875206" lon="11.842967517084714"><ele>600.5</ele><time>2026-05-02T08:28:34Z</time></trkpt><trkpt lat="43.73812047470159" lon="11.84286266014658"><ele>604.0</ele><time>2026-05-02T08:28:37Z</time></trkpt><trkpt lat="43.73819106995431" lon="11.842808214370583"><ele>607.5</ele><time>2026-05-02T08:28:39Z</time></trkpt><trkpt lat="43.73825396579828" lon="11.842731744456788"><ele>611.0</ele><time>2026-05-02T08:28:41Z</time></trkpt><trkpt lat="43.73830400947716" lon="11.842649830688288"><ele>609.6</ele><time>2026-05-02T08:28:43Z</time></trkpt><trkpt lat="43.738362510302146" lon="11.842553275048932"><ele>608.2</ele><time>2026-05-02T08:28:45Z</time></trkpt><trkpt lat="43.738426500843765" lon="11.842466509821906"><ele>606.8</ele><time>2026-05-02T08:28:47Z</time></trkpt><trkpt lat="43.738490622859004" lon="11.842380555868338"><ele>605.4</ele><time>2026-05-02T08:28:49Z</time></trkpt><trkpt lat="43.738558672781856" lon="11.84227069434212"><ele>604.0</ele><time>2026-05-02T08:28:51Z</time></trkpt><trkpt lat="43.73858907924657" lon="11.84212059071666"><ele>606.5</ele><time>2026-05-02T08:28:53Z</time></trkpt><trkpt lat="43.73859424620066" lon="11.841977301962897"><ele>609.0</ele><time>2026-05-02T08:28:55Z</time></trkpt><trkpt lat="43.738611997623785" lon="11.841817349488405"><ele>611.5</ele><time>2026-05-02T08:28:57Z</time></trkpt><trkpt lat="43.73864246511485" lon="11.84166027443935"><ele>614.0</ele><time>2026-05-02T08:28:59Z</time></trkpt><trkpt lat="43.73869062357385" lon="11.841500004809895"><ele>614.0</ele><time>2026-05-02T08:29:01Z</time></trkpt><trkpt lat="43.73875118980537" lon="11.841369878143238"><ele>614.0</ele><time>2026-05-02T08:29:03Z</time></trkpt><trkpt lat="43.738817542971816" lon="11.841252167396682"><ele>614.0</ele><time>2026-05-02T08:29:05Z</time></trkpt><trkpt lat="43.73887585623327" lon="11.84115257789131"><ele>614.0</ele><time>2026-05-02T08:29:07Z</time></trkpt><trkpt lat="43.738919605208224" lon="11.8410568228058"><ele>614.0</ele><time>2026-05-02T08:29:10Z</time></trkpt><trkpt lat="43.73897123790192" lon="11.840997034054366"><ele>612.5714285714286</ele><time>2026-05-02T08:29:13Z</time></trkpt><trkpt lat="43.73899700640472" lon="11.840900836033406"><ele>611.1428571428571</ele><time>2026-05-02T08:29:15Z</time></trkpt><trkpt lat="43.73903513824452" lon="11.84081908296026"><ele>609.7142857142858</ele><time>2026-05-02T08:29:20Z</time></trkpt><trkpt lat="43.73904556844243" lon="11.840731388806262"><ele>608.2857142857142</ele><time>2026-05-02T08:29:24Z</time></trkpt><trkpt lat="43.73903598954343" lon="11.840643422383629"><ele>606.8571428571429</ele><time>2026-05-02T08:29:34Z</time></trkpt><trkpt lat="43.739040162578625" lon="11.840550675660637"><ele>605.4285714285714</ele><time>2026-05-02T08:29:37Z</time></trkpt><trkpt lat="43.739036187040234" lon="11.840454595555576"><ele>604.0</ele><time>2026-05-02T08:29:39Z</time></trkpt><trkpt lat="43.739045064647975" lon="11.840335058144609"><ele>604.0</ele><time>2026-05-02T08:29:42Z</time></trkpt><trkpt lat="43.73907620145765" lon="11.840252071618034"><ele>604.0</ele><time>2026-05-02T08:29:44Z</time></trkpt><trkpt lat="43.73907463062958" lon="11.840127145748637"><ele>604.0</ele><time>2026-05-02T08:29:47Z</time></trkpt><trkpt lat="43.73906241088119" lon="11.840019640400133"><ele>604.0</ele><time>2026-05-02T08:29:49Z</time></trkpt><trkpt lat="43.73906250284177" lon="11.839929383903572"><ele>604.0</ele><time>2026-05-02T08:29:51Z</time></trkpt><trkpt lat="43.73908757033731" lon="11.839838221978054"><ele>604.0</ele><time>2026-05-02T08:29:53Z</time></trkpt><trkpt lat="43.7391483205698" lon="11.839771560329154"><ele>602.0</ele><time>2026-05-02T08:29:55Z</time></trkpt><trkpt lat="43.7392098804616" lon="11.839717435363212"><ele>600.0</ele><time>2026-05-02T08:29:57Z</time></trkpt><trkpt lat="43.73927963734745" lon="11.8397004108053"><ele>598.0</ele><time>2026-05-02T08:29:59Z</time></trkpt><trkpt lat="43.73935207667128" lon="11.839663311560697"><ele>596.0</ele><time>2026-05-02T08:30:01Z</time></trkpt><trkpt lat="43.739444626732414" lon="11.839645739534065"><ele>594.0</ele><time>2026-05-02T08:30:03Z</time></trkpt><trkpt lat="43.739527327795095" lon="11.839576813209291"><ele>592.0</ele><time>2026-05-02T08:30:05Z</time></trkpt><trkpt lat="43.73960782184344" lon="11.839527543899681"><ele>591.6666666666667</ele><time>2026-05-02T08:30:07Z</time></trkpt><trkpt lat="43.73968995290331" lon="11.839475660938241"><ele>591.3333333333334</ele><time>2026-05-02T08:30:09Z</time></trkpt><trkpt lat="43.7397574551261" lon="11.83939028932173"><ele>591.0</ele><time>2026-05-02T08:30:11Z</time></trkpt><trkpt lat="43.739825078958425" lon="11.839339512942601"><ele>590.6666666666666</ele><time>2026-05-02T08:30:13Z</time></trkpt><trkpt lat="43.73988363160751" lon="11.839275789768099"><ele>590.3333333333333</ele><time>2026-05-02T08:30:15Z</time></trkpt><trkpt lat="43.73994817738615" lon="11.839197275861077"><ele>590.0</ele><time>2026-05-02T08:30:17Z</time></trkpt><trkpt lat="43.74001517246991" lon="11.839124233699762"><ele>589.2</ele><time>2026-05-02T08:30:19Z</time></trkpt><trkpt lat="43.74009922496735" lon="11.839041377551824"><ele>588.4</ele><time>2026-05-02T08:30:21Z</time></trkpt><trkpt lat="43.74017169014782" lon="11.838963422046653"><ele>587.6</ele><time>2026-05-02T08:30:23Z</time></trkpt><trkpt lat="43.74025348255766" lon="11.838867388055188"><ele>586.8</ele><time>2026-05-02T08:30:25Z</time></trkpt><trkpt lat="43.74033678207154" lon="11.838862354870557"><ele>586.0</ele><time>2026-05-02T08:30:27Z</time></trkpt><trkpt lat="43.74039916097851" lon="11.838897028082418"><ele>586.0</ele><time>2026-05-02T08:30:29Z</time></trkpt><trkpt lat="43.74045123342415" lon="11.838837095361253"><ele>586.0</ele><time>2026-05-02T08:30:37Z</time></trkpt><trkpt lat="43.74050987879269" lon="11.838744673635818"><ele>586.0</ele><time>2026-05-02T08:30:40Z</time></trkpt><trkpt lat="43.74055440802633" lon="11.838676509668227"><ele>586.0</ele><time>2026-05-02T08:30:43Z</time></trkpt><trkpt lat="43.740635785085324" lon="11.838588062710464"><ele>586.0</ele><time>2026-05-02T08:30:46Z</time></trkpt><trkpt lat="43.74073422488425" lon="11.838522245874005"><ele>586.0</ele><time>2026-05-02T08:30:48Z</time></trkpt><trkpt lat="43.74081514398262" lon="11.838442765853477"><ele>587.4</ele><time>2026-05-02T08:30:50Z</time></trkpt><trkpt lat="43.74087282544951" lon="11.83839161396485"><ele>588.8</ele><time>2026-05-02T08:30:51Z</time></trkpt><trkpt lat="43.74097328762091" lon="11.838303368236124"><ele>590.1999999999999</ele><time>2026-05-02T08:30:53Z</time></trkpt><trkpt lat="43.74107356825456" lon="11.838212262904092"><ele>591.6</ele><time>2026-05-02T08:30:55Z</time></trkpt><trkpt lat="43.74117790506423" lon="11.838125745334619"><ele>593.0</ele><time>2026-05-02T08:30:57Z</time></trkpt><trkpt lat="43.741276290938714" lon="11.838051741335775"><ele>593.0</ele><time>2026-05-02T08:30:59Z</time></trkpt><trkpt lat="43.741366034940775" lon="11.83796602904653"><ele>593.0</ele><time>2026-05-02T08:31:01Z</time></trkpt><trkpt lat="43.74144372179926" lon="11.837849798631535"><ele>593.0</ele><time>2026-05-02T08:31:03Z</time></trkpt><trkpt lat="43.74148248550035" lon="11.837709416185943"><ele>593.0</ele><time>2026-05-02T08:31:05Z</time></trkpt><trkpt lat="43.74151172835228" lon="11.837619912382351"><ele>593.0</ele><time>2026-05-02T08:31:06Z</time></trkpt><trkpt lat="43.74155852318559" lon="11.83748818985157"><ele>591.4</ele><time>2026-05-02T08:31:08Z</time></trkpt><trkpt lat="43.74160852448602" lon="11.837371828459384"><ele>589.8</ele><time>2026-05-02T08:31:10Z</time></trkpt><trkpt lat="43.741619790841526" lon="11.837245648423023"><ele>588.2</ele><time>2026-05-02T08:31:12Z</time></trkpt><trkpt lat="43.74166279235622" lon="11.837109570105294"><ele>586.6</ele><time>2026-05-02T08:31:14Z</time></trkpt><trkpt lat="43.741700039398474" lon="11.836959579788667"><ele>585.0</ele><time>2026-05-02T08:31:16Z</time></trkpt><trkpt lat="43.74173375411162" lon="11.836808234648545"><ele>584.8</ele><time>2026-05-02T08:31:18Z</time></trkpt><trkpt lat="43.74177476759835" lon="11.836656471876292"><ele>584.6</ele><time>2026-05-02T08:31:20Z</time></trkpt><trkpt lat="43.74181750804158" lon="11.83652844240603"><ele>584.4</ele><time>2026-05-02T08:31:22Z</time></trkpt><trkpt lat="43.7418536198316" lon="11.836381544048793"><ele>584.2</ele><time>2026-05-02T08:31:24Z</time></trkpt><trkpt lat="43.74189409435337" lon="11.836242048144111"><ele>584.0</ele><time>2026-05-02T08:31:26Z</time></trkpt><trkpt lat="43.741940279016916" lon="11.836132635559855"><ele>584.0</ele><time>2026-05-02T08:31:28Z</time></trkpt><trkpt lat="43.74196076858896" lon="11.836026217980764"><ele>584.0</ele><time>2026-05-02T08:31:30Z</time></trkpt><trkpt lat="43.7419392714529" lon="11.835917143654656"><ele>584.0</ele><time>2026-05-02T08:31:33Z</time></trkpt><trkpt lat="43.741903306437244" lon="11.835817147610127"><ele>584.0</ele><time>2026-05-02T08:31:37Z</time></trkpt><trkpt lat="43.7419010869461" lon="11.83570697056917"><ele>584.0</ele><time>2026-05-02T08:31:40Z</time></trkpt><trkpt lat="43.74190311378225" lon="11.835612711494955"><ele>584.0</ele><time>2026-05-02T08:31:43Z</time></trkpt><trkpt lat="43.741915886890915" lon="11.835735426866037"><ele>584.0</ele><time>2026-05-02T08:31:53Z</time></trkpt><trkpt lat="43.74193244663032" lon="11.835850201974335"><ele>584.0</ele><time>2026-05-02T08:31:55Z</time></trkpt><trkpt lat="43.7419556927369" lon="11.835958666851088"><ele>584.0</ele><time>2026-05-02T08:31:58Z</time></trkpt><trkpt lat="43.7419722960305" lon="11.836093024688406"><ele>584.0</ele><time>2026-05-02T08:32:01Z</time></trkpt><trkpt lat="43.74199576145012" lon="11.8361745277599"><ele>584.0</ele><time>2026-05-02T08:32:03Z</time></trkpt><trkpt lat="43.742004393828694" lon="11.836275413977141"><ele>584.0</ele><time>2026-05-02T08:32:05Z</time></trkpt><trkpt lat="43.7420452982713" lon="11.836399502372924"><ele>584.0</ele><time>2026-05-02T08:32:07Z</time></trkpt><trkpt lat="43.74207578784158" lon="11.836528316738658"><ele>584.0</ele><time>2026-05-02T08:32:09Z</time></trkpt><trkpt lat="43.742088971393926" lon="11.83665136449836"><ele>584.0</ele><time>2026-05-02T08:32:11Z</time></trkpt><trkpt lat="43.74210881925813" lon="11.836794378562676"><ele>584.0</ele><time>2026-05-02T08:32:13Z</time></trkpt><trkpt lat="43.742109497242026" lon="11.836887662961733"><ele>584.0</ele><time>2026-05-02T08:32:14Z</time></trkpt><trkpt lat="43.742108910080795" lon="11.836983217653772"><ele>584.0</ele><time>2026-05-02T08:32:15Z</time></trkpt><trkpt lat="43.74204774272567" lon="11.837111355524923"><ele>587.2</ele><time>2026-05-02T08:32:17Z</time></trkpt><trkpt lat="43.74205475440499" lon="11.837243500431804"><ele>590.4</ele><time>2026-05-02T08:32:19Z</time></trkpt><trkpt lat="43.742065201367794" lon="11.837399038505744"><ele>593.6</ele><time>2026-05-02T08:32:21Z</time></trkpt><trkpt lat="43.74207400805828" lon="11.837562762361397"><ele>596.8</ele><time>2026-05-02T08:32:23Z</time></trkpt><trkpt lat="43.7420856566726" lon="11.837713736730375"><ele>600.0</ele><time>2026-05-02T08:32:25Z</time></trkpt><trkpt lat="43.742124430164054" lon="11.837815379019512"><ele>602.6</ele><time>2026-05-02T08:32:27Z</time></trkpt><trkpt lat="43.742159459825174" lon="11.837953976794726"><ele>605.2</ele><time>2026-05-02T08:32:29Z</time></trkpt><trkpt lat="43.74215787201006" lon="11.838042128184169"><ele>607.8</ele><time>2026-05-02T08:32:31Z</time></trkpt><trkpt lat="43.74217652932026" lon="11.838158153870525"><ele>610.4</ele><time>2026-05-02T08:32:33Z</time></trkpt><trkpt lat="43.74222351714579" lon="11.83832112306612"><ele>613.0</ele><time>2026-05-02T08:32:35Z</time></trkpt><trkpt lat="43.742232208653434" lon="11.838462781778514"><ele>614.0</ele><time>2026-05-02T08:32:37Z</time></trkpt><trkpt lat="43.74229132627869" lon="11.83859607930016"><ele>615.0</ele><time>2026-05-02T08:32:39Z</time></trkpt><trkpt lat="43.74235789843391" lon="11.838733378721594"><ele>616.0</ele><time>2026-05-02T08:32:41Z</time></trkpt><trkpt lat="43.742365654436306" lon="11.838880511280362"><ele>617.0</ele><time>2026-05-02T08:32:43Z</time></trkpt><trkpt lat="43.74235084137205" lon="11.839007907632586"><ele>618.0</ele><time>2026-05-02T08:32:45Z</time></trkpt><trkpt lat="43.742294524973474" lon="11.839110387554634"><ele>618.0</ele><time>2026-05-02T08:32:47Z</time></trkpt><trkpt lat="43.742224712095464" lon="11.839201954457682"><ele>618.0</ele><time>2026-05-02T08:32:49Z</time></trkpt><trkpt lat="43.742153003469014" lon="11.839280017404032"><ele>618.0</ele><time>2026-05-02T08:32:51Z</time></trkpt><trkpt lat="43.742161545541876" lon="11.839417267750482"><ele>618.0</ele><time>2026-05-02T08:32:53Z</time></trkpt><trkpt lat="43.742170752469356" lon="11.839528926462656"><ele>618.0</ele><time>2026-05-02T08:32:55Z</time></trkpt><trkpt lat="43.74217871341127" lon="11.839650408513336"><ele>618.8333333333334</ele><time>2026-05-02T08:32:57Z</time></trkpt><trkpt lat="43.74219167959049" lon="11.839767673268133"><ele>619.6666666666666</ele><time>2026-05-02T08:32:59Z</time></trkpt><trkpt lat="43.74219693128487" lon="11.839921389483013"><ele>620.5</ele><time>2026-05-02T08:33:01Z</time></trkpt><trkpt lat="43.74223680146726" lon="11.839993718633806"><ele>621.3333333333333</ele><time>2026-05-02T08:33:04Z</time></trkpt><trkpt lat="43.74230697538524" lon="11.840065757431894"><ele>622.1666666666666</ele><time>2026-05-02T08:33:06Z</time></trkpt><trkpt lat="43.74237972651965" lon="11.840106580716506"><ele>623.0</ele><time>2026-05-02T08:33:08Z</time></trkpt><trkpt lat="43.74243230209371" lon="11.840164303852509"><ele>624.3333333333333</ele><time>2026-05-02T08:33:10Z</time></trkpt><trkpt lat="43.74246591659111" lon="11.840271105955265"><ele>625.6666666666666</ele><time>2026-05-02T08:33:12Z</time></trkpt><trkpt lat="43.74244064516911" lon="11.84038203444433"><ele>627.0</ele><time>2026-05-02T08:33:14Z</time></trkpt><trkpt lat="43.74236366274832" lon="11.840454338680377"><ele>628.3333333333334</ele><time>2026-05-02T08:33:16Z</time></trkpt><trkpt lat="43.742300612114235" lon="11.840473952323055"><ele>629.6666666666667</ele><time>2026-05-02T08:33:17Z</time></trkpt><trkpt lat="43.742236244339566" lon="11.840497810359683"><ele>631.0</ele><time>2026-05-02T08:33:18Z</time></trkpt><trkpt lat="43.74215055382209" lon="11.840542995883688"><ele>631.0</ele><time>2026-05-02T08:33:20Z</time></trkpt><trkpt lat="43.74214114972973" lon="11.840659741331883"><ele>631.0</ele><time>2026-05-02T08:33:22Z</time></trkpt><trkpt lat="43.742191691731" lon="11.84077342688581"><ele>631.0</ele><time>2026-05-02T08:33:24Z</time></trkpt><trkpt lat="43.74217871182086" lon="11.84090927961246"><ele>631.0</ele><time>2026-05-02T08:33:26Z</time></trkpt><trkpt lat="43.74213464777248" lon="11.84098255581834"><ele>631.0</ele><time>2026-05-02T08:33:28Z</time></trkpt><trkpt lat="43.74208293025849" lon="11.841111574065803"><ele>632.6666666666667</ele><time>2026-05-02T08:33:49Z</time></trkpt><trkpt lat="43.742068777302904" lon="11.841226498303158"><ele>634.3333333333334</ele><time>2026-05-02T08:33:51Z</time></trkpt><trkpt lat="43.74209432832928" lon="11.841319991881186"><ele>636.0</ele><time>2026-05-02T08:33:53Z</time></trkpt><trkpt lat="43.74215233467693" lon="11.84141089859626"><ele>637.6666666666666</ele><time>2026-05-02T08:33:55Z</time></trkpt><trkpt lat="43.74221386923193" lon="11.841432495757472"><ele>639.3333333333333</ele><time>2026-05-02T08:33:57Z</time></trkpt><trkpt lat="43.742282475313324" lon="11.841391121832418"><ele>641.0</ele><time>2026-05-02T08:33:59Z</time></trkpt><trkpt lat="43.74231678779665" lon="11.841299836429572"><ele>641.0</ele><time>2026-05-02T08:34:01Z</time></trkpt><trkpt lat="43.74238365824183" lon="11.841215694935194"><ele>641.0</ele><time>2026-05-02T08:34:03Z</time></trkpt><trkpt lat="43.74248549357077" lon="11.841174227280383"><ele>641.0</ele><time>2026-05-02T08:34:05Z</time></trkpt><trkpt lat="43.742540583448545" lon="11.841131313351589"><ele>641.0</ele><time>2026-05-02T08:34:06Z</time></trkpt><trkpt lat="43.742620468140615" lon="11.84105702491917"><ele>641.0</ele><time>2026-05-02T08:34:08Z</time></trkpt><trkpt lat="43.7426837897837" lon="11.841051948332716"><ele>641.0</ele><time>2026-05-02T08:34:10Z</time></trkpt><trkpt lat="43.74274419878999" lon="11.841150418490924"><ele>641.0</ele><time>2026-05-02T08:34:12Z</time></trkpt><trkpt lat="43.74279786948242" lon="11.841261973958815"><ele>641.0</ele><time>2026-05-02T08:34:14Z</time></trkpt><trkpt lat="43.74283519364107" lon="11.841363711062883"><ele>641.0</ele><time>2026-05-02T08:34:16Z</time></trkpt><trkpt lat="43.7428039665007" lon="11.841487794552952"><ele>641.0</ele><time>2026-05-02T08:34:19Z</time></trkpt><trkpt lat="43.74269290869587" lon="11.841511209399826"><ele>641.0</ele><time>2026-05-02T08:34:21Z</time></trkpt><trkpt lat="43.74259051959164" lon="11.841537366529627"><ele>641.0</ele><time>2026-05-02T08:34:23Z</time></trkpt><trkpt lat="43.74252570757001" lon="11.841559503673734"><ele>641.0</ele><time>2026-05-02T08:34:25Z</time></trkpt><trkpt lat="43.74260463853205" lon="11.841556006492922"><ele>641.0</ele><time>2026-05-02T08:34:41Z</time></trkpt><trkpt lat="43.742676598001175" lon="11.841520173807549"><ele>641.0</ele><time>2026-05-02T08:34:43Z</time></trkpt><trkpt lat="43.74276411816082" lon="11.841478893861225"><ele>641.0</ele><time>2026-05-02T08:34:46Z</time></trkpt><trkpt lat="43.74282099259259" lon="11.841427696006289"><ele>641.0</ele><time>2026-05-02T08:34:48Z</time></trkpt><trkpt lat="43.742863313640655" lon="11.841357669526356"><ele>641.0</ele><time>2026-05-02T08:34:52Z</time></trkpt><trkpt lat="43.74291084862772" lon="11.841433639051036"><ele>643.4285714285714</ele><time>2026-05-02T08:34:55Z</time></trkpt><trkpt lat="43.74289452903608" lon="11.841547893203456"><ele>645.8571428571429</ele><time>2026-05-02T08:34:57Z</time></trkpt><trkpt lat="43.74288481552448" lon="11.841646105503411"><ele>648.2857142857142</ele><time>2026-05-02T08:34:59Z</time></trkpt><trkpt lat="43.74287267115222" lon="11.84174572603842"><ele>650.7142857142858</ele><time>2026-05-02T08:35:01Z</time></trkpt><trkpt lat="43.742836904225626" lon="11.841837322425517"><ele>653.1428571428571</ele><time>2026-05-02T08:35:03Z</time></trkpt><trkpt lat="43.7428211445832" lon="11.84192633928215"><ele>655.5714285714286</ele><time>2026-05-02T08:35:05Z</time></trkpt><trkpt lat="43.74280649205799" lon="11.842019416927611"><ele>658.0</ele><time>2026-05-02T08:36:12Z</time></trkpt><trkpt lat="43.74277572276723" lon="11.842107297949344"><ele>657.5999999999999</ele><time>2026-05-02T08:36:18Z</time></trkpt><trkpt lat="43.74274170767041" lon="11.842215695847795"><ele>657.1999999999999</ele><time>2026-05-02T08:36:22Z</time></trkpt><trkpt lat="43.742700728459475" lon="11.842284876460862"><ele>656.8</ele><time>2026-05-02T08:36:25Z</time></trkpt><trkpt lat="43.74272804699314" lon="11.842416607033076"><ele>656.4</ele><time>2026-05-02T08:37:27Z</time></trkpt><trkpt lat="43.74268579070298" lon="11.84256203301929"><ele>656.0</ele><time>2026-05-02T08:37:30Z</time></trkpt><trkpt lat="43.74263330496225" lon="11.842665684750335"><ele>659.4</ele><time>2026-05-02T08:37:32Z</time></trkpt><trkpt lat="43.74258349113701" lon="11.842789143139624"><ele>662.8</ele><time>2026-05-02T08:37:34Z</time></trkpt><trkpt lat="43.742544378046546" lon="11.842881161040125"><ele>666.1999999999999</ele><time>2026-05-02T08:37:36Z</time></trkpt><trkpt lat="43.742479009107925" lon="11.842971724031136"><ele>669.5999999999999</ele><time>2026-05-02T08:37:38Z</time></trkpt><trkpt lat="43.74239068570527" lon="11.843033799309707"><ele>673.0</ele><time>2026-05-02T08:37:40Z</time></trkpt><trkpt lat="43.74233099460289" lon="11.843124871428392"><ele>673.0</ele><time>2026-05-02T08:37:42Z</time></trkpt><trkpt lat="43.7422944005183" lon="11.84326210194661"><ele>673.0</ele><time>2026-05-02T08:37:44Z</time></trkpt><trkpt lat="43.742296056898965" lon="11.843392253411414"><ele>673.0</ele><time>2026-05-02T08:37:46Z</time></trkpt><trkpt lat="43.74230465588121" lon="11.843530520607958"><ele>673.0</ele><time>2026-05-02T08:37:49Z</time></trkpt><trkpt lat="43.74233264176889" lon="11.843633168969575"><ele>673.0</ele><time>2026-05-02T08:37:52Z</time></trkpt><trkpt lat="43.74235954243394" lon="11.843723087254707"><ele>676.2</ele><time>2026-05-02T08:37:54Z</time></trkpt><trkpt lat="43.74244254422996" lon="11.843851052310814"><ele>679.4</ele><time>2026-05-02T08:37:56Z</time></trkpt><trkpt lat="43.74252967218436" lon="11.843966692556087"><ele>682.6</ele><time>2026-05-02T08:37:58Z</time></trkpt><trkpt lat="43.742610723498814" lon="11.84405698622189"><ele>685.8000000000001</ele><time>2026-05-02T08:38:00Z</time></trkpt><trkpt lat="43.74263601943227" lon="11.844174575062274"><ele>689.0</ele><time>2026-05-02T08:38:02Z</time></trkpt><trkpt lat="43.742648874618915" lon="11.844289499705262"><ele>692.2</ele><time>2026-05-02T08:38:04Z</time></trkpt><trkpt lat="43.74262625239863" lon="11.844410593532295"><ele>695.4000000000001</ele><time>2026-05-02T08:38:06Z</time></trkpt><trkpt lat="43.74252499974139" lon="11.844462022119894"><ele>698.6</ele><time>2026-05-02T08:38:08Z</time></trkpt><trkpt lat="43.74244504609445" lon="11.84445603389994"><ele>701.8</ele><time>2026-05-02T08:38:10Z</time></trkpt><trkpt lat="43.74235730790704" lon="11.844420045476342"><ele>705.0</ele><time>2026-05-02T08:38:12Z</time></trkpt><trkpt lat="43.7422500275962" lon="11.844375261727539"><ele>705.0</ele><time>2026-05-02T08:38:14Z</time></trkpt><trkpt lat="43.742173952372674" lon="11.84438629844901"><ele>705.0</ele><time>2026-05-02T08:38:16Z</time></trkpt><trkpt lat="43.742120373788936" lon="11.84446937357328"><ele>705.0</ele><time>2026-05-02T08:38:20Z</time></trkpt><trkpt lat="43.74210250758292" lon="11.844564580813689"><ele>705.0</ele><time>2026-05-02T08:38:22Z</time></trkpt><trkpt lat="43.742078125585344" lon="11.84465327540887"><ele>705.0</ele><time>2026-05-02T08:38:25Z</time></trkpt><trkpt lat="43.74206704717467" lon="11.84477044242133"><ele>705.0</ele><time>2026-05-02T08:38:34Z</time></trkpt><trkpt lat="43.74202602879511" lon="11.844874849662226"><ele>705.0</ele><time>2026-05-02T08:38:56Z</time></trkpt><trkpt lat="43.74201364314269" lon="11.844970868854704"><ele>705.0</ele><time>2026-05-02T08:38:58Z</time></trkpt><trkpt lat="43.74198089936541" lon="11.845096864962626"><ele>705.0</ele><time>2026-05-02T08:39:00Z</time></trkpt><trkpt lat="43.7420249628432" lon="11.845237890292307"><ele>705.0</ele><time>2026-05-02T08:39:03Z</time></trkpt><trkpt lat="43.742041955684044" lon="11.845339853974851"><ele>705.0</ele><time>2026-05-02T08:39:05Z</time></trkpt><trkpt lat="43.74204663632496" lon="11.8454744943875"><ele>707.6</ele><time>2026-05-02T08:39:08Z</time></trkpt><trkpt lat="43.742015696774644" lon="11.845625666965628"><ele>710.2</ele><time>2026-05-02T08:39:10Z</time></trkpt><trkpt lat="43.7419982702203" lon="11.845715355584575"><ele>712.8</ele><time>2026-05-02T08:39:11Z</time></trkpt><trkpt lat="43.74197439457386" lon="11.845852289252205"><ele>715.4</ele><time>2026-05-02T08:39:13Z</time></trkpt><trkpt lat="43.7419366241025" lon="11.845994000726805"><ele>718.0</ele><time>2026-05-02T08:39:15Z</time></trkpt><trkpt lat="43.74192867493693" lon="11.846096178420634"><ele>718.0</ele><time>2026-05-02T08:39:17Z</time></trkpt><trkpt lat="43.74187795677899" lon="11.846217576686882"><ele>718.0</ele><time>2026-05-02T08:39:19Z</time></trkpt><trkpt lat="43.7418315035532" lon="11.846351972072075"><ele>718.0</ele><time>2026-05-02T08:39:21Z</time></trkpt><trkpt lat="43.74177152965862" lon="11.846482784280699"><ele>718.0</ele><time>2026-05-02T08:39:23Z</time></trkpt><trkpt lat="43.74176832997316" lon="11.846618142857356"><ele>718.0</ele><time>2026-05-02T08:39:25Z</time></trkpt><trkpt lat="43.74179478816025" lon="11.846751601530332"><ele>721.1666666666667</ele><time>2026-05-02T08:39:28Z</time></trkpt><trkpt lat="43.74177767030477" lon="11.846849662759857"><ele>724.3333333333334</ele><time>2026-05-02T08:39:30Z</time></trkpt><trkpt lat="43.741749464274186" lon="11.846967573798459"><ele>727.5</ele><time>2026-05-02T08:39:32Z</time></trkpt><trkpt lat="43.74167662992515" lon="11.846957486268105"><ele>730.6666666666666</ele><time>2026-05-02T08:39:34Z</time></trkpt><trkpt lat="43.74157921873946" lon="11.846887961260444"><ele>733.8333333333333</ele><time>2026-05-02T08:39:36Z</time></trkpt><trkpt lat="43.74150898166899" lon="11.846933036397985"><ele>737.0</ele><time>2026-05-02T08:39:38Z</time></trkpt><trkpt lat="43.74144358750296" lon="11.847025600659505"><ele>737.0</ele><time>2026-05-02T08:39:40Z</time></trkpt><trkpt lat="43.74137697741591" lon="11.84711956170714"><ele>737.0</ele><time>2026-05-02T08:39:42Z</time></trkpt><trkpt lat="43.74129577865887" lon="11.84719876948955"><ele>737.0</ele><time>2026-05-02T08:39:44Z</time></trkpt><trkpt lat="43.74123680842694" lon="11.8472855648641"><ele>737.0</ele><time>2026-05-02T08:39:46Z</time></trkpt><trkpt lat="43.741152256193665" lon="11.847324949981855"><ele>737.0</ele><time>2026-05-02T08:39:48Z</time></trkpt><trkpt lat="43.74110209133048" lon="11.847383288016294"><ele>737.0</ele><time>2026-05-02T08:39:50Z</time></trkpt><trkpt lat="43.74106992963028" lon="11.84746319550494"><ele>736.8333333333333</ele><time>2026-05-02T08:39:52Z</time></trkpt><trkpt lat="43.741023988194335" lon="11.847558531178255"><ele>736.6666666666666</ele><time>2026-05-02T08:39:54Z</time></trkpt><trkpt lat="43.74097427592959" lon="11.84765262811938"><ele>736.5</ele><time>2026-05-02T08:39:56Z</time></trkpt><trkpt lat="43.74093311430985" lon="11.847774034212105"><ele>736.3333333333334</ele><time>2026-05-02T08:39:58Z</time></trkpt><trkpt lat="43.74091990161192" lon="11.847888895833613"><ele>736.1666666666667</ele><time>2026-05-02T08:40:00Z</time></trkpt><trkpt lat="43.74086361054316" lon="11.847987865461585"><ele>736.0</ele><time>2026-05-02T08:40:02Z</time></trkpt><trkpt lat="43.74081074899804" lon="11.848094085374303"><ele>736.0</ele><time>2026-05-02T08:40:04Z</time></trkpt><trkpt lat="43.74078275152762" lon="11.848191223543814"><ele>736.0</ele><time>2026-05-02T08:40:06Z</time></trkpt><trkpt lat="43.74074465540343" lon="11.848280373171708"><ele>736.0</ele><time>2026-05-02T08:40:08Z</time></trkpt><trkpt lat="43.74070567107456" lon="11.848378170666672"><ele>736.0</ele><time>2026-05-02T08:40:10Z</time></trkpt><trkpt lat="43.740637585649175" lon="11.84845873229871"><ele>736.0</ele><time>2026-05-02T08:40:12Z</time></trkpt><trkpt lat="43.740605683528344" lon="11.848545333043404"><ele>736.0</ele><time>2026-05-02T08:40:14Z</time></trkpt><trkpt lat="43.740612745347384" lon="11.848643783115978"><ele>738.0</ele><time>2026-05-02T08:40:16Z</time></trkpt><trkpt lat="43.74059961262495" lon="11.848734166562881"><ele>740.0</ele><time>2026-05-02T08:40:18Z</time></trkpt><trkpt lat="43.74061596327031" lon="11.84881940758933"><ele>742.0</ele><time>2026-05-02T08:40:20Z</time></trkpt><trkpt lat="43.740606935742726" lon="11.848930435426585"><ele>744.0</ele><time>2026-05-02T08:40:22Z</time></trkpt><trkpt lat="43.74057733086639" lon="11.849038436182571"><ele>746.0</ele><time>2026-05-02T08:40:24Z</time></trkpt><trkpt lat="43.74054540898988" lon="11.849160585090061"><ele>748.0</ele><time>2026-05-02T08:40:26Z</time></trkpt><trkpt lat="43.74048794114982" lon="11.849261270209391"><ele>749.6666666666667</ele><time>2026-05-02T08:40:28Z</time></trkpt><trkpt lat="43.74043211825466" lon="11.849326061831357"><ele>751.3333333333334</ele><time>2026-05-02T08:40:30Z</time></trkpt><trkpt lat="43.740406875735374" lon="11.849411305318558"><ele>753.0</ele><time>2026-05-02T08:40:32Z</time></trkpt><trkpt lat="43.74036170989134" lon="11.8495239909225"><ele>754.6666666666666</ele><time>2026-05-02T08:40:34Z</time></trkpt><trkpt lat="43.74031195932528" lon="11.849630291403082"><ele>756.3333333333333</ele><time>2026-05-02T08:40:36Z</time></trkpt><trkpt lat="43.74029204661837" lon="11.849747890878993"><ele>758.0</ele><time>2026-05-02T08:40:38Z</time></trkpt><trkpt lat="43.74029206298823" lon="11.849910453034111"><ele>758.0000000000001</ele><time>2026-05-02T08:40:40Z</time></trkpt><trkpt lat="43.74025301046407" lon="11.85000958645846"><ele>758.0</ele><time>2026-05-02T08:40:42Z</time></trkpt><trkpt lat="43.74024790696925" lon="11.850125546888334"><ele>758.0</ele><time>2026-05-02T08:40:44Z</time></trkpt><trkpt lat="43.740252901343084" lon="11.850231026516935"><ele>758.0</ele><time>2026-05-02T08:40:46Z</time></trkpt><trkpt lat="43.74024698999676" lon="11.850324953870215"><ele>758.0</ele><time>2026-05-02T08:40:48Z</time></trkpt><trkpt lat="43.740247591533766" lon="11.850416085579704"><ele>758.0000000000001</ele><time>2026-05-02T08:40:50Z</time></trkpt><trkpt lat="43.740259329269286" lon="11.850511686427508"><ele>758.0</ele><time>2026-05-02T08:40:53Z</time></trkpt><trkpt lat="43.740269836283915" lon="11.850611546717513"><ele>758.5</ele><time>2026-05-02T08:40:55Z</time></trkpt><trkpt lat="43.74027854650807" lon="11.85074717188488"><ele>759.0</ele><time>2026-05-02T08:40:57Z</time></trkpt><trkpt lat="43.740246595211914" lon="11.850874068938234"><ele>759.5</ele><time>2026-05-02T08:40:59Z</time></trkpt><trkpt lat="43.74022536047914" lon="11.850982458851945"><ele>760.0</ele><time>2026-05-02T08:41:01Z</time></trkpt><trkpt lat="43.740212476914195" lon="11.851082320620463"><ele>760.5</ele><time>2026-05-02T08:41:03Z</time></trkpt><trkpt lat="43.74016796109477" lon="11.851145256004605"><ele>761.0</ele><time>2026-05-02T08:41:05Z</time></trkpt><trkpt lat="43.74010378303934" lon="11.851237877280017"><ele>761.5999999999999</ele><time>2026-05-02T08:41:07Z</time></trkpt><trkpt lat="43.740097463510025" lon="11.851353976136629"><ele>762.2</ele><time>2026-05-02T08:41:09Z</time></trkpt><trkpt lat="43.74013805783719" lon="11.85145013901555"><ele>762.8</ele><time>2026-05-02T08:41:11Z</time></trkpt><trkpt lat="43.74018199202572" lon="11.85151971192835"><ele>763.4000000000001</ele><time>2026-05-02T08:41:13Z</time></trkpt><trkpt lat="43.740180465128944" lon="11.851682431778466"><ele>764.0</ele><time>2026-05-02T08:41:15Z</time></trkpt><trkpt lat="43.740220557547055" lon="11.85182039832623"><ele>764.0</ele><time>2026-05-02T08:41:17Z</time></trkpt><trkpt lat="43.740296475986156" lon="11.851903433291817"><ele>764.0</ele><time>2026-05-02T08:41:19Z</time></trkpt><trkpt lat="43.74040486610854" lon="11.85193099249838"><ele>764.0</ele><time>2026-05-02T08:41:21Z</time></trkpt><trkpt lat="43.74045506180744" lon="11.852015819062844"><ele>764.0</ele><time>2026-05-02T08:41:23Z</time></trkpt><trkpt lat="43.74045522553977" lon="11.852121598961022"><ele>764.0</ele><time>2026-05-02T08:41:25Z</time></trkpt><trkpt lat="43.740436623714146" lon="11.852212442032782"><ele>764.0</ele><time>2026-05-02T08:41:27Z</time></trkpt><trkpt lat="43.74046987758366" lon="11.852345849237553"><ele>764.0</ele><time>2026-05-02T08:41:29Z</time></trkpt><trkpt lat="43.74046310342859" lon="11.852502216486535"><ele>764.0</ele><time>2026-05-02T08:41:31Z</time></trkpt><trkpt lat="43.740479402703755" lon="11.852644199778283"><ele>764.0</ele><time>2026-05-02T08:41:33Z</time></trkpt><trkpt lat="43.74054717389887" lon="11.85279765703545"><ele>764.0</ele><time>2026-05-02T08:41:35Z</time></trkpt><trkpt lat="43.74058949358867" lon="11.85291469968831"><ele>764.0</ele><time>2026-05-02T08:41:37Z</time></trkpt><trkpt lat="43.74062651161316" lon="11.853007290989522"><ele>765.4000000000001</ele><time>2026-05-02T08:41:39Z</time></trkpt><trkpt lat="43.740581945758635" lon="11.853101285709133"><ele>766.8</ele><time>2026-05-02T08:41:40Z</time></trkpt><trkpt lat="43.74060393670334" lon="11.853258205757323"><ele>768.2</ele><time>2026-05-02T08:41:43Z</time></trkpt><trkpt lat="43.74064580964248" lon="11.853392550275586"><ele>769.5999999999999</ele><time>2026-05-02T08:41:45Z</time></trkpt><trkpt lat="43.74061845641487" lon="11.853484963706974"><ele>771.0</ele><time>2026-05-02T08:41:47Z</time></trkpt><trkpt lat="43.740696294194855" lon="11.853574177889898"><ele>772.1999999999999</ele><time>2026-05-02T08:41:50Z</time></trkpt><trkpt lat="43.74073486636114" lon="11.853682793845376"><ele>773.4</ele><time>2026-05-02T08:41:52Z</time></trkpt><trkpt lat="43.74074231595785" lon="11.85380062154665"><ele>774.6</ele><time>2026-05-02T08:41:54Z</time></trkpt><trkpt lat="43.740735139885274" lon="11.853956029886742"><ele>775.8</ele><time>2026-05-02T08:41:56Z</time></trkpt><trkpt lat="43.74072329735686" lon="11.854096786555914"><ele>777.0</ele><time>2026-05-02T08:41:58Z</time></trkpt><trkpt lat="43.74070431903357" lon="11.854231121356143"><ele>779.0</ele><time>2026-05-02T08:42:00Z</time></trkpt><trkpt lat="43.74073239273349" lon="11.854370770661246"><ele>781.0</ele><time>2026-05-02T08:42:02Z</time></trkpt><trkpt lat="43.74074648088235" lon="11.854460586660794"><ele>783.0</ele><time>2026-05-02T08:42:03Z</time></trkpt><trkpt lat="43.740709859050355" lon="11.854591053828544"><ele>785.0</ele><time>2026-05-02T08:42:05Z</time></trkpt><trkpt lat="43.74066317231175" lon="11.854718798260157"><ele>787.0</ele><time>2026-05-02T08:42:07Z</time></trkpt><trkpt lat="43.74062006196803" lon="11.854869060183862"><ele>786.9999999999999</ele><time>2026-05-02T08:42:09Z</time></trkpt><trkpt lat="43.74061380113106" lon="11.854997256073856"><ele>787.0</ele><time>2026-05-02T08:42:11Z</time></trkpt><trkpt lat="43.74057311459125" lon="11.855074978985627"><ele>787.0</ele><time>2026-05-02T08:42:13Z</time></trkpt><trkpt lat="43.7405578991863" lon="11.855184592937453"><ele>787.0</ele><time>2026-05-02T08:42:15Z</time></trkpt><trkpt lat="43.740527796133925" lon="11.855275585614057"><ele>786.9999999999999</ele><time>2026-05-02T08:42:17Z</time></trkpt><trkpt lat="43.740475341971646" lon="11.855336472946115"><ele>787.0</ele><time>2026-05-02T08:42:18Z</time></trkpt><trkpt lat="43.74039859106339" lon="11.85543137936486"><ele>787.4000000000001</ele><time>2026-05-02T08:42:21Z</time></trkpt><trkpt lat="43.74037702968696" lon="11.855560484034955"><ele>787.8000000000001</ele><time>2026-05-02T08:42:23Z</time></trkpt><trkpt lat="43.74038469367883" lon="11.855677812024396"><ele>788.2</ele><time>2026-05-02T08:42:25Z</time></trkpt><trkpt lat="43.740337301293536" lon="11.8558175876258"><ele>788.6</ele><time>2026-05-02T08:42:27Z</time></trkpt><trkpt lat="43.74034093777507" lon="11.855928285129155"><ele>789.0</ele><time>2026-05-02T08:42:29Z</time></trkpt><trkpt lat="43.74043656983362" lon="11.85596767886847"><ele>784.6666666666666</ele><time>2026-05-02T08:42:32Z</time></trkpt><trkpt lat="43.74050958921882" lon="11.855959367963743"><ele>780.3333333333334</ele><time>2026-05-02T08:42:35Z</time></trkpt><trkpt lat="43.74058197524925" lon="11.855973144949655"><ele>776.0</ele><time>2026-05-02T08:44:00Z</time></trkpt><trkpt lat="43.740668681596" lon="11.85599320862537"><ele>771.6666666666667</ele><time>2026-05-02T08:44:03Z</time></trkpt><trkpt lat="43.740755639569755" lon="11.855983639868073"><ele>767.3333333333334</ele><time>2026-05-02T08:44:05Z</time></trkpt><trkpt lat="43.7408228801894" lon="11.855975279694794"><ele>763.0</ele><time>2026-05-02T08:44:08Z</time></trkpt><trkpt lat="43.740912554558264" lon="11.855985173815355"><ele>763.0</ele><time>2026-05-02T08:44:17Z</time></trkpt><trkpt lat="43.74099670072527" lon="11.856007094255562"><ele>763.0</ele><time>2026-05-02T08:44:19Z</time></trkpt><trkpt lat="43.74107540730896" lon="11.856002814560009"><ele>763.0</ele><time>2026-05-02T08:44:21Z</time></trkpt><trkpt lat="43.74115181774807" lon="11.855989627229038"><ele>763.0</ele><time>2026-05-02T08:44:23Z</time></trkpt><trkpt lat="43.74124209025707" lon="11.85599564808836"><ele>763.0</ele><time>2026-05-02T08:44:25Z</time></trkpt><trkpt lat="43.74134847945401" lon="11.856036331082136"><ele>763.0</ele><time>2026-05-02T08:44:27Z</time></trkpt><trkpt lat="43.74143965183421" lon="11.856087104573863"><ele>764.4</ele><time>2026-05-02T08:44:29Z</time></trkpt><trkpt lat="43.7415511571676" lon="11.856109444437202"><ele>765.8</ele><time>2026-05-02T08:44:31Z</time></trkpt><trkpt lat="43.7416397203003" lon="11.856132063334616"><ele>767.2</ele><time>2026-05-02T08:44:33Z</time></trkpt><trkpt lat="43.74171943986436" lon="11.856152784390938"><ele>768.6</ele><time>2026-05-02T08:44:35Z</time></trkpt><trkpt lat="43.74181445761812" lon="11.856171117874647"><ele>770.0</ele><time>2026-05-02T08:44:37Z</time></trkpt><trkpt lat="43.74188221539748" lon="11.856226071610417"><ele>773.3333333333334</ele><time>2026-05-02T08:44:39Z</time></trkpt><trkpt lat="43.74194245011434" lon="11.856336895228049"><ele>776.6666666666667</ele><time>2026-05-02T08:44:42Z</time></trkpt><trkpt lat="43.74199538635121" lon="11.856388234482862"><ele>780.0</ele><time>2026-05-02T08:44:44Z</time></trkpt><trkpt lat="43.742088104485774" lon="11.856386902063441"><ele>783.3333333333333</ele><time>2026-05-02T08:44:47Z</time></trkpt><trkpt lat="43.742172824670256" lon="11.856389479296421"><ele>786.6666666666666</ele><time>2026-05-02T08:44:49Z</time></trkpt><trkpt lat="43.7422655876209" lon="11.856389493818236"><ele>790.0</ele><time>2026-05-02T08:44:51Z</time></trkpt><trkpt lat="43.742332677476604" lon="11.856394422606991"><ele>790.0</ele><time>2026-05-02T08:44:53Z</time></trkpt><trkpt lat="43.742364354689386" lon="11.856501367728907"><ele>790.0</ele><time>2026-05-02T08:44:55Z</time></trkpt><trkpt lat="43.74239527319017" lon="11.856638738279148"><ele>790.0</ele><time>2026-05-02T08:44:57Z</time></trkpt><trkpt lat="43.74246563288023" lon="11.856732729787348"><ele>790.0</ele><time>2026-05-02T08:44:59Z</time></trkpt><trkpt lat="43.742561835658144" lon="11.85680350646924"><ele>790.0</ele><time>2026-05-02T08:45:01Z</time></trkpt><trkpt lat="43.74262550140657" lon="11.856884966730805"><ele>791.0</ele><time>2026-05-02T08:45:03Z</time></trkpt><trkpt lat="43.74272213557636" lon="11.856964673001785"><ele>792.0</ele><time>2026-05-02T08:45:05Z</time></trkpt><trkpt lat="43.742816702796915" lon="11.85706653386898"><ele>793.0</ele><time>2026-05-02T08:45:07Z</time></trkpt><trkpt lat="43.742887908983356" lon="11.857156790337356"><ele>794.0</ele><time>2026-05-02T08:45:09Z</time></trkpt><trkpt lat="43.742914017142056" lon="11.857262539864575"><ele>795.0</ele><time>2026-05-02T08:45:11Z</time></trkpt><trkpt lat="43.742913953076766" lon="11.857362900028212"><ele>795.0</ele><time>2026-05-02T08:45:14Z</time></trkpt><trkpt lat="43.74286474570331" lon="11.857456731996418"><ele>795.0</ele><time>2026-05-02T08:45:17Z</time></trkpt><trkpt lat="43.742817621734254" lon="11.857596677620172"><ele>795.0</ele><time>2026-05-02T08:45:21Z</time></trkpt><trkpt lat="43.74280159380598" lon="11.857705453271116"><ele>795.0</ele><time>2026-05-02T08:45:23Z</time></trkpt><trkpt lat="43.74282868019711" lon="11.857826617400816"><ele>795.0</ele><time>2026-05-02T08:45:28Z</time></trkpt><trkpt lat="43.742833629962185" lon="11.857914013468834"><ele>795.0</ele><time>2026-05-02T08:45:30Z</time></trkpt><trkpt lat="43.74282595509115" lon="11.858015624970102"><ele>795.1666666666666</ele><time>2026-05-02T08:45:33Z</time></trkpt><trkpt lat="43.74281606790023" lon="11.858117876153987"><ele>795.3333333333333</ele><time>2026-05-02T08:45:44Z</time></trkpt><trkpt lat="43.74287318717009" lon="11.858161987909563"><ele>795.5</ele><time>2026-05-02T08:45:49Z</time></trkpt><trkpt lat="43.74291038358748" lon="11.858257195171984"><ele>795.6666666666666</ele><time>2026-05-02T08:47:27Z</time></trkpt><trkpt lat="43.74292727783625" lon="11.85837578050893"><ele>795.8333333333333</ele><time>2026-05-02T08:47:30Z</time></trkpt><trkpt lat="43.742918262493035" lon="11.858495725017766"><ele>796.0</ele><time>2026-05-02T08:47:32Z</time></trkpt><trkpt lat="43.74290530688644" lon="11.858611114982045"><ele>796.6666666666666</ele><time>2026-05-02T08:47:34Z</time></trkpt><trkpt lat="43.742873369824444" lon="11.85869717096133"><ele>797.3333333333333</ele><time>2026-05-02T08:47:36Z</time></trkpt><trkpt lat="43.742886179818456" lon="11.858819111162514"><ele>798.0</ele><time>2026-05-02T08:47:39Z</time></trkpt><trkpt lat="43.74292407231962" lon="11.85890521803604"><ele>798.6666666666667</ele><time>2026-05-02T08:47:41Z</time></trkpt><trkpt lat="43.74294610290827" lon="11.859005272271158"><ele>799.3333333333334</ele><time>2026-05-02T08:47:43Z</time></trkpt><trkpt lat="43.74300618972732" lon="11.859121020808194"><ele>800.0</ele><time>2026-05-02T08:47:46Z</time></trkpt><trkpt lat="43.74305893190036" lon="11.85918857428526"><ele>800.0000000000001</ele><time>2026-05-02T08:47:48Z</time></trkpt><trkpt lat="43.7431292620133" lon="11.859211513569493"><ele>800.0</ele><time>2026-05-02T08:47:50Z</time></trkpt><trkpt lat="43.743226669460135" lon="11.8592120124886"><ele>800.0</ele><time>2026-05-02T08:47:52Z</time></trkpt><trkpt lat="43.743311088767854" lon="11.85925231964794"><ele>800.0</ele><time>2026-05-02T08:47:54Z</time></trkpt><trkpt lat="43.743396437492386" lon="11.859312385217326"><ele>800.0000000000001</ele><time>2026-05-02T08:47:56Z</time></trkpt><trkpt lat="43.743448944586994" lon="11.85937931214427"><ele>800.0</ele><time>2026-05-02T08:47:58Z</time></trkpt><trkpt lat="43.743493216734336" lon="11.859453237267596"><ele>800.4285714285714</ele><time>2026-05-02T08:48:00Z</time></trkpt><trkpt lat="43.74352872070639" lon="11.859528760015206"><ele>800.8571428571429</ele><time>2026-05-02T08:48:02Z</time></trkpt><trkpt lat="43.74355716750705" lon="11.8596082904309"><ele>801.2857142857142</ele><time>2026-05-02T08:48:04Z</time></trkpt><trkpt lat="43.743580146086636" lon="11.859724489913095"><ele>801.7142857142858</ele><time>2026-05-02T08:48:07Z</time></trkpt><trkpt lat="43.74359668021644" lon="11.859814350528227"><ele>802.1428571428571</ele><time>2026-05-02T08:48:12Z</time></trkpt><trkpt lat="43.743608147778744" lon="11.859929239426187"><ele>802.5714285714286</ele><time>2026-05-02T08:48:15Z</time></trkpt><trkpt lat="43.74361360304823" lon="11.860042238217169"><ele>803.0</ele><time>2026-05-02T08:48:17Z</time></trkpt><trkpt lat="43.74360634835536" lon="11.860167348658521"><ele>803.0</ele><time>2026-05-02T08:48:19Z</time></trkpt><trkpt lat="43.743600911117" lon="11.860285316423983"><ele>803.0</ele><time>2026-05-02T08:48:21Z</time></trkpt><trkpt lat="43.74360862706921" lon="11.860426218196608"><ele>803.0</ele><time>2026-05-02T08:48:23Z</time></trkpt><trkpt lat="43.74363703526031" lon="11.860565478337078"><ele>803.0</ele><time>2026-05-02T08:48:25Z</time></trkpt><trkpt lat="43.74364908901266" lon="11.86068495518672"><ele>803.0</ele><time>2026-05-02T08:48:27Z</time></trkpt><trkpt lat="43.743624629584914" lon="11.86081978910024"><ele>803.0</ele><time>2026-05-02T08:48:29Z</time></trkpt><trkpt lat="43.743621217885575" lon="11.860943214924527"><ele>803.0</ele><time>2026-05-02T08:48:31Z</time></trkpt><trkpt lat="43.74361773951122" lon="11.861069560683143"><ele>803.0</ele><time>2026-05-02T08:48:33Z</time></trkpt><trkpt lat="43.74364166596957" lon="11.861210771784188"><ele>803.0</ele><time>2026-05-02T08:48:35Z</time></trkpt><trkpt lat="43.74366689295767" lon="11.86134559895029"><ele>803.0</ele><time>2026-05-02T08:48:37Z</time></trkpt><trkpt lat="43.74369582669276" lon="11.861466726207333"><ele>802.3333333333334</ele><time>2026-05-02T08:48:39Z</time></trkpt><trkpt lat="43.74368070256994" lon="11.861593466677135"><ele>801.6666666666667</ele><time>2026-05-02T08:48:41Z</time></trkpt><trkpt lat="43.74366094143149" lon="11.86171695587775"><ele>801.0</ele><time>2026-05-02T08:48:43Z</time></trkpt><trkpt lat="43.743685669193106" lon="11.861810907446952"><ele>800.3333333333333</ele><time>2026-05-02T08:48:46Z</time></trkpt><trkpt lat="43.7436826533498" lon="11.861919519354219"><ele>799.6666666666666</ele><time>2026-05-02T08:48:49Z</time></trkpt><trkpt lat="43.7436156571022" lon="11.861947735562973"><ele>799.0</ele><time>2026-05-02T08:48:51Z</time></trkpt><trkpt lat="43.74352589329035" lon="11.861911481502675"><ele>798.9999999999999</ele><time>2026-05-02T08:48:53Z</time></trkpt><trkpt lat="43.74344900174796" lon="11.861835538604"><ele>799.0</ele><time>2026-05-02T08:48:55Z</time></trkpt><trkpt lat="43.743388376402805" lon="11.861738231683923"><ele>799.0</ele><time>2026-05-02T08:48:57Z</time></trkpt><trkpt lat="43.74332523227447" lon="11.861675849653976"><ele>799.0</ele><time>2026-05-02T08:48:59Z</time></trkpt><trkpt lat="43.7432403368015" lon="11.861638765423486"><ele>798.9999999999999</ele><time>2026-05-02T08:49:01Z</time></trkpt><trkpt lat="43.7431456402761" lon="11.86162168842812"><ele>799.0</ele><time>2026-05-02T08:49:03Z</time></trkpt><trkpt lat="43.743040202137244" lon="11.86160203303936"><ele>795.2</ele><time>2026-05-02T08:49:05Z</time></trkpt><trkpt lat="43.7429648635025" lon="11.861521607744937"><ele>791.4000000000001</ele><time>2026-05-02T08:49:07Z</time></trkpt><trkpt lat="43.742899420082" lon="11.861448856471858"><ele>787.6</ele><time>2026-05-02T08:49:09Z</time></trkpt><trkpt lat="43.74281752382684" lon="11.861471083461833"><ele>783.8</ele><time>2026-05-02T08:49:11Z</time></trkpt><trkpt lat="43.742717828769244" lon="11.861554980095276"><ele>780.0</ele><time>2026-05-02T08:49:13Z</time></trkpt><trkpt lat="43.742633165976116" lon="11.861693965975434"><ele>782.4</ele><time>2026-05-02T08:49:15Z</time></trkpt><trkpt lat="43.7425664028832" lon="11.861812082135762"><ele>784.8</ele><time>2026-05-02T08:49:17Z</time></trkpt><trkpt lat="43.742542024560706" lon="11.861934756457064"><ele>787.2</ele><time>2026-05-02T08:49:19Z</time></trkpt><trkpt lat="43.74254904072438" lon="11.862040890400705"><ele>789.6</ele><time>2026-05-02T08:49:21Z</time></trkpt><trkpt lat="43.74247077107236" lon="11.862098454889088"><ele>792.0</ele><time>2026-05-02T08:49:23Z</time></trkpt><trkpt lat="43.7423620828531" lon="11.862042919115543"><ele>792.0</ele><time>2026-05-02T08:49:25Z</time></trkpt><trkpt lat="43.74227270400141" lon="11.862021751131152"><ele>792.0</ele><time>2026-05-02T08:49:27Z</time></trkpt><trkpt lat="43.742209495699505" lon="11.862042092270766"><ele>792.0</ele><time>2026-05-02T08:49:28Z</time></trkpt><trkpt lat="43.74214737609085" lon="11.862065471420163"><ele>792.0</ele><time>2026-05-02T08:49:29Z</time></trkpt><trkpt lat="43.74204370300916" lon="11.862015007929765"><ele>792.0</ele><time>2026-05-02T08:49:31Z</time></trkpt><trkpt lat="43.74192602638086" lon="11.86196593206067"><ele>792.4000000000001</ele><time>2026-05-02T08:49:33Z</time></trkpt><trkpt lat="43.74183574894443" lon="11.861924177580383"><ele>792.8000000000001</ele><time>2026-05-02T08:49:35Z</time></trkpt><trkpt lat="43.74177226278462" lon="11.861812718303792"><ele>793.2</ele><time>2026-05-02T08:49:37Z</time></trkpt><trkpt lat="43.74167787904775" lon="11.86180949703785"><ele>793.6</ele><time>2026-05-02T08:49:39Z</time></trkpt><trkpt lat="43.74159293584515" lon="11.861843908643356"><ele>794.0</ele><time>2026-05-02T08:49:41Z</time></trkpt><trkpt lat="43.74150024241709" lon="11.861896160832332"><ele>794.0</ele><time>2026-05-02T08:49:43Z</time></trkpt><trkpt lat="43.741423215109286" lon="11.861803566991762"><ele>794.0</ele><time>2026-05-02T08:49:45Z</time></trkpt><trkpt lat="43.74136760617781" lon="11.861718047395428"><ele>794.0</ele><time>2026-05-02T08:49:47Z</time></trkpt><trkpt lat="43.74127185172388" lon="11.861613947816423"><ele>794.0</ele><time>2026-05-02T08:49:49Z</time></trkpt><trkpt lat="43.74121422177293" lon="11.861485374877605"><ele>794.0</ele><time>2026-05-02T08:49:51Z</time></trkpt><trkpt lat="43.74114451012687" lon="11.861393855259747"><ele>793.4000000000001</ele><time>2026-05-02T08:49:53Z</time></trkpt><trkpt lat="43.74108037523737" lon="11.861281879792323"><ele>792.8</ele><time>2026-05-02T08:49:55Z</time></trkpt><trkpt lat="43.741044764179634" lon="11.861153525541113"><ele>792.2</ele><time>2026-05-02T08:49:57Z</time></trkpt><trkpt lat="43.74096781228432" lon="11.86102720915509"><ele>791.5999999999999</ele><time>2026-05-02T08:49:59Z</time></trkpt><trkpt lat="43.740885195635585" lon="11.860921845814943"><ele>791.0</ele><time>2026-05-02T08:50:01Z</time></trkpt><trkpt lat="43.740800987791204" lon="11.860835008979219"><ele>786.4</ele><time>2026-05-02T08:50:03Z</time></trkpt><trkpt lat="43.74068953690974" lon="11.860796080205157"><ele>781.8</ele><time>2026-05-02T08:50:05Z</time></trkpt><trkpt lat="43.74058051499381" lon="11.860794329844206"><ele>777.1999999999999</ele><time>2026-05-02T08:50:07Z</time></trkpt><trkpt lat="43.740510684943956" lon="11.86077845476131"><ele>772.5999999999999</ele><time>2026-05-02T08:50:09Z</time></trkpt><trkpt lat="43.74043269966094" lon="11.860806239786996"><ele>768.0</ele><time>2026-05-02T08:50:11Z</time></trkpt><trkpt lat="43.740349049771986" lon="11.860797911803102"><ele>768.0</ele><time>2026-05-02T08:50:13Z</time></trkpt><trkpt lat="43.74027397619371" lon="11.860733701536"><ele>768.0</ele><time>2026-05-02T08:50:15Z</time></trkpt><trkpt lat="43.7402311749621" lon="11.860597693964316"><ele>768.0</ele><time>2026-05-02T08:50:17Z</time></trkpt><trkpt lat="43.74019769685157" lon="11.860520768407246"><ele>768.0</ele><time>2026-05-02T08:50:18Z</time></trkpt><trkpt lat="43.74014465969173" lon="11.86041356086937"><ele>768.0</ele><time>2026-05-02T08:50:20Z</time></trkpt><trkpt lat="43.74008755508182" lon="11.860362644361583"><ele>768.0</ele><time>2026-05-02T08:50:21Z</time></trkpt><trkpt lat="43.74001323325121" lon="11.86033143875348"><ele>770.8333333333334</ele><time>2026-05-02T08:50:22Z</time></trkpt><trkpt lat="43.73995147480789" lon="11.860312328414201"><ele>773.6666666666667</ele><time>2026-05-02T08:50:23Z</time></trkpt><trkpt lat="43.739848674941044" lon="11.860313781996188"><ele>776.5</ele><time>2026-05-02T08:50:25Z</time></trkpt><trkpt lat="43.7397306081509" lon="11.860367254626318"><ele>779.3333333333334</ele><time>2026-05-02T08:50:27Z</time></trkpt><trkpt lat="43.73965733482974" lon="11.860367082638245"><ele>782.1666666666667</ele><time>2026-05-02T08:50:28Z</time></trkpt><trkpt lat="43.73957689469871" lon="11.86037177912405"><ele>785.0</ele><time>2026-05-02T08:50:29Z</time></trkpt><trkpt lat="43.73950870114207" lon="11.860376626019972"><ele>785.0</ele><time>2026-05-02T08:50:30Z</time></trkpt><trkpt lat="43.73939689717295" lon="11.860401959833888"><ele>785.0</ele><time>2026-05-02T08:50:32Z</time></trkpt><trkpt lat="43.739332196424286" lon="11.860415386119708"><ele>785.0</ele><time>2026-05-02T08:50:33Z</time></trkpt><trkpt lat="43.73921275096702" lon="11.860412521871554"><ele>785.0</ele><time>2026-05-02T08:50:35Z</time></trkpt><trkpt lat="43.73909253960641" lon="11.86045101458123"><ele>785.0</ele><time>2026-05-02T08:50:37Z</time></trkpt><trkpt lat="43.739020716236865" lon="11.860481834042949"><ele>785.5000000000001</ele><time>2026-05-02T08:50:38Z</time></trkpt><trkpt lat="43.73891391296554" lon="11.8604859484209"><ele>786.0</ele><time>2026-05-02T08:50:40Z</time></trkpt><trkpt lat="43.738806755933076" lon="11.860535464361217"><ele>786.5</ele><time>2026-05-02T08:50:42Z</time></trkpt><trkpt lat="43.738727425438874" lon="11.860543041396893"><ele>787.0</ele><time>2026-05-02T08:50:43Z</time></trkpt><trkpt lat="43.738645800036366" lon="11.860546865738565"><ele>787.5000000000001</ele><time>2026-05-02T08:50:44Z</time></trkpt><trkpt lat="43.73857882416968" lon="11.860559011739808"><ele>788.0</ele><time>2026-05-02T08:50:45Z</time></trkpt><trkpt lat="43.738507252900874" lon="11.860573917396808"><ele>788.0</ele><time>2026-05-02T08:50:46Z</time></trkpt><trkpt lat="43.73843783964615" lon="11.860577365891299"><ele>788.0</ele><time>2026-05-02T08:50:47Z</time></trkpt><trkpt lat="43.73831522205963" lon="11.860551512678141"><ele>788.0</ele><time>2026-05-02T08:50:49Z</time></trkpt><trkpt lat="43.73824240678816" lon="11.8605502137717"><ele>788.0</ele><time>2026-05-02T08:50:50Z</time></trkpt><trkpt lat="43.738116184756265" lon="11.8605033823913"><ele>788.0</ele><time>2026-05-02T08:50:52Z</time></trkpt><trkpt lat="43.73804862126459" lon="11.860476925585813"><ele>788.0</ele><time>2026-05-02T08:50:53Z</time></trkpt><trkpt lat="43.7379749847943" lon="11.860449881363722"><ele>788.0</ele><time>2026-05-02T08:50:54Z</time></trkpt><trkpt lat="43.73790626298079" lon="11.860424695954892"><ele>788.0</ele><time>2026-05-02T08:50:55Z</time></trkpt><trkpt lat="43.73777577520908" lon="11.860445200968272"><ele>788.0</ele><time>2026-05-02T08:50:57Z</time></trkpt><trkpt lat="43.73764897659608" lon="11.86053698850218"><ele>788.0</ele><time>2026-05-02T08:50:59Z</time></trkpt><trkpt lat="43.737590837456665" lon="11.860612322845906"><ele>790.2</ele><time>2026-05-02T08:51:00Z</time></trkpt><trkpt lat="43.73752570788747" lon="11.860757703021905"><ele>792.4</ele><time>2026-05-02T08:51:02Z</time></trkpt><trkpt lat="43.73748454677275" lon="11.860902978308996"><ele>794.6</ele><time>2026-05-02T08:51:04Z</time></trkpt><trkpt lat="43.73746356062416" lon="11.861037535589372"><ele>796.8000000000001</ele><time>2026-05-02T08:51:06Z</time></trkpt><trkpt lat="43.73739713450821" lon="11.861124380112694"><ele>799.0</ele><time>2026-05-02T08:51:08Z</time></trkpt><trkpt lat="43.73729939097261" lon="11.861156369630962"><ele>798.9999999999999</ele><time>2026-05-02T08:51:10Z</time></trkpt><trkpt lat="43.73717741257665" lon="11.861183349206492"><ele>799.0</ele><time>2026-05-02T08:51:12Z</time></trkpt><trkpt lat="43.73712201585118" lon="11.861239166832206"><ele>799.0</ele><time>2026-05-02T08:51:14Z</time></trkpt><trkpt lat="43.73714265491569" lon="11.861349984849983"><ele>799.0</ele><time>2026-05-02T08:51:17Z</time></trkpt><trkpt lat="43.737113321825255" lon="11.861473712277142"><ele>798.9999999999999</ele><time>2026-05-02T08:51:19Z</time></trkpt><trkpt lat="43.737074756752726" lon="11.861546880237855"><ele>799.0</ele><time>2026-05-02T08:51:20Z</time></trkpt><trkpt lat="43.73697100484233" lon="11.861633274546191"><ele>799.0</ele><time>2026-05-02T08:51:22Z</time></trkpt><trkpt lat="43.736899861839646" lon="11.861650586696154"><ele>799.0</ele><time>2026-05-02T08:51:23Z</time></trkpt><trkpt lat="43.73683684786831" lon="11.861654033891304"><ele>799.0</ele><time>2026-05-02T08:51:24Z</time></trkpt><trkpt lat="43.73675622676467" lon="11.861699480921564"><ele>799.0</ele><time>2026-05-02T08:51:26Z</time></trkpt><trkpt lat="43.7366976127216" lon="11.861744984972013"><ele>799.0</ele><time>2026-05-02T08:51:27Z</time></trkpt><trkpt lat="43.736650224435664" lon="11.861809977425622"><ele>799.0</ele><time>2026-05-02T08:51:28Z</time></trkpt><trkpt lat="43.736609742741805" lon="11.861885746548763"><ele>799.0</ele><time>2026-05-02T08:51:29Z</time></trkpt><trkpt lat="43.73653207529056" lon="11.861993394957132"><ele>800.8000000000001</ele><time>2026-05-02T08:51:31Z</time></trkpt><trkpt lat="43.73643287335442" lon="11.861994333108942"><ele>802.6</ele><time>2026-05-02T08:51:33Z</time></trkpt><trkpt lat="43.73637578613402" lon="11.86195241307944"><ele>804.4</ele><time>2026-05-02T08:51:34Z</time></trkpt><trkpt lat="43.736293919594004" lon="11.861845581321004"><ele>806.2</ele><time>2026-05-02T08:51:36Z</time></trkpt><trkpt lat="43.736207113858974" lon="11.861766967249139"><ele>808.0</ele><time>2026-05-02T08:51:38Z</time></trkpt><trkpt lat="43.73614168216142" lon="11.861641906506168"><ele>808.4</ele><time>2026-05-02T08:51:40Z</time></trkpt><trkpt lat="43.73608897400855" lon="11.861523643849022"><ele>808.8</ele><time>2026-05-02T08:51:42Z</time></trkpt><trkpt lat="43.736013270431926" lon="11.861397547796702"><ele>809.2</ele><time>2026-05-02T08:51:44Z</time></trkpt><trkpt lat="43.73594836723095" lon="11.86125116419583"><ele>809.6</ele><time>2026-05-02T08:51:46Z</time></trkpt><trkpt lat="43.73590371681495" lon="11.861184582571243"><ele>810.0</ele><time>2026-05-02T08:51:47Z</time></trkpt><trkpt lat="43.73586013745116" lon="11.861092833793231"><ele>810.0</ele><time>2026-05-02T08:51:49Z</time></trkpt><trkpt lat="43.73581670250881" lon="11.860991849241804"><ele>810.0</ele><time>2026-05-02T08:51:51Z</time></trkpt><trkpt lat="43.73577740115304" lon="11.86091062245315"><ele>810.0</ele><time>2026-05-02T08:51:52Z</time></trkpt><trkpt lat="43.73573840350022" lon="11.86083066347141"><ele>810.0</ele><time>2026-05-02T08:51:53Z</time></trkpt><trkpt lat="43.73566080375451" lon="11.860704436490938"><ele>810.0</ele><time>2026-05-02T08:51:55Z</time></trkpt><trkpt lat="43.7355719177143" lon="11.860579239098474"><ele>809.6666666666666</ele><time>2026-05-02T08:51:57Z</time></trkpt><trkpt lat="43.73552699611365" lon="11.860514838370397"><ele>809.3333333333333</ele><time>2026-05-02T08:51:58Z</time></trkpt><trkpt lat="43.73546761966115" lon="11.860461490213757"><ele>809.0</ele><time>2026-05-02T08:51:59Z</time></trkpt><trkpt lat="43.73541113498597" lon="11.86040842140226"><ele>808.6666666666666</ele><time>2026-05-02T08:52:00Z</time></trkpt><trkpt lat="43.735330508300386" lon="11.860316234176917"><ele>808.3333333333333</ele><time>2026-05-02T08:52:02Z</time></trkpt><trkpt lat="43.735230520786175" lon="11.860242085015871"><ele>808.0</ele><time>2026-05-02T08:52:04Z</time></trkpt><trkpt lat="43.73516166393872" lon="11.860204689798849"><ele>807.9999999999999</ele><time>2026-05-02T08:52:05Z</time></trkpt><trkpt lat="43.73509112967223" lon="11.860165860491808"><ele>808.0</ele><time>2026-05-02T08:52:06Z</time></trkpt><trkpt lat="43.73502201241416" lon="11.860128660991556"><ele>808.0</ele><time>2026-05-02T08:52:07Z</time></trkpt><trkpt lat="43.734941938847875" lon="11.860109399623088"><ele>808.0</ele><time>2026-05-02T08:52:08Z</time></trkpt><trkpt lat="43.73487373381215" lon="11.860090118791932"><ele>807.9999999999999</ele><time>2026-05-02T08:52:09Z</time></trkpt><trkpt lat="43.734810104173505" lon="11.860087401776969"><ele>808.0</ele><time>2026-05-02T08:52:10Z</time></trkpt><trkpt lat="43.73471467669532" lon="11.860160131226731"><ele>807.9999999999999</ele><time>2026-05-02T08:52:12Z</time></trkpt><trkpt lat="43.73464448675832" lon="11.860269869800398"><ele>808.0</ele><time>2026-05-02T08:52:14Z</time></trkpt><trkpt lat="43.7345955657004" lon="11.860339570993775"><ele>808.0</ele><time>2026-05-02T08:52:16Z</time></trkpt><trkpt lat="43.734659468497306" lon="11.860401357769472"><ele>808.0</ele><time>2026-05-02T08:52:34Z</time></trkpt><trkpt lat="43.73472665817543" lon="11.86038641665182"><ele>807.9999999999999</ele><time>2026-05-02T08:52:38Z</time></trkpt><trkpt lat="43.7347936752961" lon="11.86051907714114"><ele>808.0</ele><time>2026-05-02T08:52:41Z</time></trkpt><trkpt lat="43.734868566965076" lon="11.860639359039537"><ele>808.0</ele><time>2026-05-02T08:52:43Z</time></trkpt><trkpt lat="43.73492916787828" lon="11.860696850342974"><ele>808.0</ele><time>2026-05-02T08:52:44Z</time></trkpt><trkpt lat="43.73492987933998" lon="11.860819907967173"><ele>808.0</ele><time>2026-05-02T08:52:48Z</time></trkpt><trkpt lat="43.73497996798511" lon="11.860886114506364"><ele>808.0</ele><time>2026-05-02T08:52:50Z</time></trkpt><trkpt lat="43.73502415487613" lon="11.860951286419601"><ele>808.0</ele><time>2026-05-02T08:52:57Z</time></trkpt><trkpt lat="43.73505404466854" lon="11.861046836763153"><ele>808.0</ele><time>2026-05-02T08:53:00Z</time></trkpt><trkpt lat="43.73509681326119" lon="11.861124856084404"><ele>808.0</ele><time>2026-05-02T08:53:02Z</time></trkpt><trkpt lat="43.73517398389982" lon="11.861174527510476"><ele>808.3333333333333</ele><time>2026-05-02T08:53:04Z</time></trkpt><trkpt lat="43.73523559425443" lon="11.861243385595785"><ele>808.6666666666666</ele><time>2026-05-02T08:53:06Z</time></trkpt><trkpt lat="43.735248385398485" lon="11.861345621323197"><ele>809.0</ele><time>2026-05-02T08:53:08Z</time></trkpt><trkpt lat="43.73528305421159" lon="11.861445288243235"><ele>809.3333333333333</ele><time>2026-05-02T08:53:10Z</time></trkpt><trkpt lat="43.7353329981907" lon="11.861563347064532"><ele>809.6666666666666</ele><time>2026-05-02T08:53:13Z</time></trkpt><trkpt lat="43.73533729352663" lon="11.861710589539811"><ele>810.0</ele><time>2026-05-02T08:53:16Z</time></trkpt><trkpt lat="43.735313518033855" lon="11.861806468138631"><ele>812.6666666666666</ele><time>2026-05-02T08:53:19Z</time></trkpt><trkpt lat="43.73525791892545" lon="11.861897651410585"><ele>815.3333333333333</ele><time>2026-05-02T08:53:22Z</time></trkpt><trkpt lat="43.73523727451164" lon="11.861985745140046"><ele>818.0</ele><time>2026-05-02T08:53:26Z</time></trkpt><trkpt lat="43.73521013481071" lon="11.862090873755712"><ele>820.6666666666666</ele><time>2026-05-02T08:54:21Z</time></trkpt><trkpt lat="43.73519459900722" lon="11.862195399361758"><ele>823.3333333333333</ele><time>2026-05-02T08:54:23Z</time></trkpt><trkpt lat="43.73521164051999" lon="11.8623275405912"><ele>826.0</ele><time>2026-05-02T08:54:25Z</time></trkpt><trkpt lat="43.73522562449694" lon="11.862424502259818"><ele>828.8333333333333</ele><time>2026-05-02T08:54:27Z</time></trkpt><trkpt lat="43.73515276403871" lon="11.862502832764372"><ele>831.6666666666666</ele><time>2026-05-02T08:54:29Z</time></trkpt><trkpt lat="43.735109379875965" lon="11.862569634764023"><ele>834.5</ele><time>2026-05-02T08:54:31Z</time></trkpt><trkpt lat="43.735046314457946" lon="11.862616039510856"><ele>837.3333333333333</ele><time>2026-05-02T08:54:33Z</time></trkpt><trkpt lat="43.73498708252916" lon="11.862651263255511"><ele>840.1666666666666</ele><time>2026-05-02T08:54:41Z</time></trkpt><trkpt lat="43.73491962671511" lon="11.86271021909976"><ele>843.0</ele><time>2026-05-02T08:55:57Z</time></trkpt><trkpt lat="43.73487598453224" lon="11.862813720902954"><ele>845.5</ele><time>2026-05-02T08:55:59Z</time></trkpt><trkpt lat="43.73490781242012" lon="11.862896074399917"><ele>848.0</ele><time>2026-05-02T08:56:02Z</time></trkpt><trkpt lat="43.73492039704045" lon="11.863017705394205"><ele>850.5</ele><time>2026-05-02T08:56:05Z</time></trkpt><trkpt lat="43.73488768471566" lon="11.863130606659253"><ele>853.0</ele><time>2026-05-02T08:56:08Z</time></trkpt><trkpt lat="43.734933127140245" lon="11.86323784088307"><ele>855.5</ele><time>2026-05-02T08:56:11Z</time></trkpt><trkpt lat="43.73497216880231" lon="11.863332087142057"><ele>858.0</ele><time>2026-05-02T08:56:13Z</time></trkpt><trkpt lat="43.73496185220023" lon="11.863457527002494"><ele>860.2</ele><time>2026-05-02T08:56:17Z</time></trkpt><trkpt lat="43.73495338335194" lon="11.863577167838246"><ele>862.4</ele><time>2026-05-02T08:56:45Z</time></trkpt><trkpt lat="43.73496789054274" lon="11.86368091830174"><ele>864.6000000000001</ele><time>2026-05-02T08:56:47Z</time></trkpt><trkpt lat="43.73499832967134" lon="11.863818770099455"><ele>866.8000000000001</ele><time>2026-05-02T08:56:49Z</time></trkpt><trkpt lat="43.73501640585783" lon="11.863943179432436"><ele>869.0</ele><time>2026-05-02T08:56:51Z</time></trkpt><trkpt lat="43.735042001571344" lon="11.864082239595982"><ele>869.0</ele><time>2026-05-02T08:56:53Z</time></trkpt><trkpt lat="43.735067652852" lon="11.864213115487395"><ele>869.0000000000001</ele><time>2026-05-02T08:56:55Z</time></trkpt><trkpt lat="43.73507226548107" lon="11.864329410631996"><ele>869.0000000000001</ele><time>2026-05-02T08:56:57Z</time></trkpt><trkpt lat="43.734999666208445" lon="11.864458122890026"><ele>869.0</ele><time>2026-05-02T08:56:59Z</time></trkpt><trkpt lat="43.73496195753365" lon="11.864620593736154"><ele>869.0</ele><time>2026-05-02T08:57:01Z</time></trkpt><trkpt lat="43.73493384895692" lon="11.864752414143394"><ele>870.2</ele><time>2026-05-02T08:57:03Z</time></trkpt><trkpt lat="43.7348897419082" lon="11.864850808822982"><ele>871.4000000000001</ele><time>2026-05-02T08:57:05Z</time></trkpt><trkpt lat="43.73484903443448" lon="11.864979772223377"><ele>872.6</ele><time>2026-05-02T08:57:07Z</time></trkpt><trkpt lat="43.73482520531107" lon="11.865120851995663"><ele>873.8</ele><time>2026-05-02T08:57:09Z</time></trkpt><trkpt lat="43.734867333330364" lon="11.865263994124934"><ele>875.0</ele><time>2026-05-02T08:57:11Z</time></trkpt><trkpt lat="43.73493419477098" lon="11.865409327521322"><ele>876.4</ele><time>2026-05-02T08:57:13Z</time></trkpt><trkpt lat="43.73496518028058" lon="11.86555064170827"><ele>877.8</ele><time>2026-05-02T08:57:15Z</time></trkpt><trkpt lat="43.73501569571477" lon="11.865620922755792"><ele>879.2</ele><time>2026-05-02T08:57:17Z</time></trkpt><trkpt lat="43.734936905547116" lon="11.865696015868682"><ele>880.6</ele><time>2026-05-02T08:57:21Z</time></trkpt><trkpt lat="43.73482287881881" lon="11.865759079128114"><ele>882.0</ele><time>2026-05-02T08:57:23Z</time></trkpt><trkpt lat="43.73472912524078" lon="11.865793662052749"><ele>882.0</ele><time>2026-05-02T08:57:25Z</time></trkpt><trkpt lat="43.73465280662106" lon="11.865821630016901"><ele>882.0</ele><time>2026-05-02T08:57:28Z</time></trkpt><trkpt lat="43.73456901565422" lon="11.865880977194658"><ele>882.0</ele><time>2026-05-02T08:57:29Z</time></trkpt><trkpt lat="43.73450234826332" lon="11.865943557038246"><ele>882.0</ele><time>2026-05-02T08:57:31Z</time></trkpt><trkpt lat="43.73437943489687" lon="11.86605334222742"><ele>882.0</ele><time>2026-05-02T08:57:33Z</time></trkpt><trkpt lat="43.73430348738269" lon="11.866119495077205"><ele>879.0</ele><time>2026-05-02T08:57:34Z</time></trkpt><trkpt lat="43.734230733805965" lon="11.866187056270745"><ele>876.0</ele><time>2026-05-02T08:57:37Z</time></trkpt><trkpt lat="43.73417717434138" lon="11.866264280569661"><ele>873.0</ele><time>2026-05-02T08:57:39Z</time></trkpt><trkpt lat="43.7341259542737" lon="11.866327965603437"><ele>870.0</ele><time>2026-05-02T08:57:42Z</time></trkpt><trkpt lat="43.73419052748464" lon="11.866425782747436"><ele>867.0</ele><time>2026-05-02T08:57:46Z</time></trkpt><trkpt lat="43.73429829240663" lon="11.866442874896737"><ele>864.0</ele><time>2026-05-02T08:57:48Z</time></trkpt><trkpt lat="43.73438402342229" lon="11.866475429791224"><ele>865.8333333333334</ele><time>2026-05-02T08:57:52Z</time></trkpt><trkpt lat="43.73446280790089" lon="11.86648974661047"><ele>867.6666666666667</ele><time>2026-05-02T08:57:55Z</time></trkpt><trkpt lat="43.734568153244076" lon="11.866528857225694"><ele>869.5</ele><time>2026-05-02T08:57:56Z</time></trkpt><trkpt lat="43.73462675455145" lon="11.866566932880394"><ele>871.3333333333334</ele><time>2026-05-02T08:57:58Z</time></trkpt><trkpt lat="43.73470984002804" lon="11.866663901392931"><ele>873.1666666666667</ele><time>2026-05-02T08:58:00Z</time></trkpt><trkpt lat="43.73477923922224" lon="11.866722492342518"><ele>875.0</ele><time>2026-05-02T08:58:01Z</time></trkpt><trkpt lat="43.73483323133847" lon="11.866767642867416"><ele>872.1666666666667</ele><time>2026-05-02T08:58:02Z</time></trkpt><trkpt lat="43.73487635022267" lon="11.866833694365198"><ele>869.3333333333334</ele><time>2026-05-02T08:58:03Z</time></trkpt><trkpt lat="43.73494003894836" lon="11.86694783978358"><ele>866.5</ele><time>2026-05-02T08:58:05Z</time></trkpt><trkpt lat="43.7349841562972" lon="11.86702485994422"><ele>863.6666666666667</ele><time>2026-05-02T08:58:06Z</time></trkpt><trkpt lat="43.73499764107084" lon="11.86712914643996"><ele>860.8333333333334</ele><time>2026-05-02T08:58:07Z</time></trkpt><trkpt lat="43.735014084185785" lon="11.86722971641429"><ele>858.0</ele><time>2026-05-02T08:58:08Z</time></trkpt><trkpt lat="43.73502973811726" lon="11.867328949797411"><ele>858.0</ele><time>2026-05-02T08:58:09Z</time></trkpt><trkpt lat="43.73505325613142" lon="11.867477046485906"><ele>858.0</ele><time>2026-05-02T08:58:11Z</time></trkpt><trkpt lat="43.73504893272364" lon="11.867572157423444"><ele>858.0</ele><time>2026-05-02T08:58:12Z</time></trkpt><trkpt lat="43.73504654563492" lon="11.867667589168038"><ele>858.0</ele><time>2026-05-02T08:58:13Z</time></trkpt><trkpt lat="43.7350570937347" lon="11.867758974877834"><ele>858.0</ele><time>2026-05-02T08:58:14Z</time></trkpt><trkpt lat="43.73508593060115" lon="11.867940234779654"><ele>858.0</ele><time>2026-05-02T08:58:16Z</time></trkpt><trkpt lat="43.735088574637814" lon="11.868033854922299"><ele>855.6666666666666</ele><time>2026-05-02T08:58:17Z</time></trkpt><trkpt lat="43.73509179079121" lon="11.86812461195423"><ele>853.3333333333333</ele><time>2026-05-02T08:58:18Z</time></trkpt><trkpt lat="43.73509674995415" lon="11.868230985884427"><ele>851.0</ele><time>2026-05-02T08:58:19Z</time></trkpt><trkpt lat="43.73509966938237" lon="11.86833767301931"><ele>848.6666666666666</ele><time>2026-05-02T08:58:20Z</time></trkpt><trkpt lat="43.73510222480095" lon="11.86848111494749"><ele>846.3333333333333</ele><time>2026-05-02T08:58:22Z</time></trkpt><trkpt lat="43.73512396766452" lon="11.868610229571223"><ele>844.0</ele><time>2026-05-02T08:58:24Z</time></trkpt><trkpt lat="43.735129815966474" lon="11.868699956165901"><ele>843.8000000000001</ele><time>2026-05-02T08:58:26Z</time></trkpt><trkpt lat="43.735112091956736" lon="11.868820515945243"><ele>843.6</ele><time>2026-05-02T08:58:28Z</time></trkpt><trkpt lat="43.73515963774462" lon="11.868939585715912"><ele>843.4</ele><time>2026-05-02T08:58:30Z</time></trkpt><trkpt lat="43.73523632247166" lon="11.868968692998553"><ele>843.2</ele><time>2026-05-02T08:58:32Z</time></trkpt><trkpt lat="43.7353374636816" lon="11.868945094402306"><ele>843.0</ele><time>2026-05-02T08:58:34Z</time></trkpt><trkpt lat="43.73543901086636" lon="11.868954239558965"><ele>843.0</ele><time>2026-05-02T08:58:36Z</time></trkpt><trkpt lat="43.73554285787936" lon="11.868981993822317"><ele>843.0</ele><time>2026-05-02T08:58:38Z</time></trkpt><trkpt lat="43.73561407827376" lon="11.869010901242929"><ele>843.0</ele><time>2026-05-02T08:58:40Z</time></trkpt><trkpt lat="43.73568407620918" lon="11.86905854963573"><ele>843.0</ele><time>2026-05-02T08:58:42Z</time></trkpt><trkpt lat="43.7357636336541" lon="11.86913203799905"><ele>843.0</ele><time>2026-05-02T08:58:44Z</time></trkpt><trkpt lat="43.73585032676645" lon="11.869185455843764"><ele>843.0</ele><time>2026-05-02T08:58:46Z</time></trkpt><trkpt lat="43.735910542091126" lon="11.869275376685925"><ele>844.4</ele><time>2026-05-02T08:58:48Z</time></trkpt><trkpt lat="43.73596633475264" lon="11.869363337075457"><ele>845.8</ele><time>2026-05-02T08:58:50Z</time></trkpt><trkpt lat="43.73603631528078" lon="11.869494050737925"><ele>847.2</ele><time>2026-05-02T08:58:52Z</time></trkpt><trkpt lat="43.736083093263424" lon="11.86963919327899"><ele>848.6</ele><time>2026-05-02T08:58:54Z</time></trkpt><trkpt lat="43.736112257589625" lon="11.869726406955921"><ele>850.0</ele><time>2026-05-02T08:58:55Z</time></trkpt><trkpt lat="43.7361410349821" lon="11.869893633100185"><ele>850.0</ele><time>2026-05-02T08:58:57Z</time></trkpt><trkpt lat="43.73615434969401" lon="11.86997938787869"><ele>850.0</ele><time>2026-05-02T08:58:59Z</time></trkpt><trkpt lat="43.73615612917511" lon="11.870114497286133"><ele>850.0</ele><time>2026-05-02T08:59:02Z</time></trkpt><trkpt lat="43.73612707915057" lon="11.870292179538515"><ele>850.0</ele><time>2026-05-02T08:59:04Z</time></trkpt><trkpt lat="43.736081849442044" lon="11.870440364667157"><ele>850.0</ele><time>2026-05-02T08:59:06Z</time></trkpt><trkpt lat="43.73611576299929" lon="11.870542852855584"><ele>850.1428571428571</ele><time>2026-05-02T08:59:08Z</time></trkpt><trkpt lat="43.73619259990615" lon="11.870580485575642"><ele>850.2857142857142</ele><time>2026-05-02T08:59:10Z</time></trkpt><trkpt lat="43.73625492235931" lon="11.87062693437193"><ele>850.4285714285714</ele><time>2026-05-02T08:59:13Z</time></trkpt><trkpt lat="43.7363346956827" lon="11.870647530298305"><ele>850.5714285714286</ele><time>2026-05-02T09:02:18Z</time></trkpt><trkpt lat="43.73641163249873" lon="11.870668682570306"><ele>850.7142857142858</ele><time>2026-05-02T09:03:00Z</time></trkpt><trkpt lat="43.7364124496611" lon="11.870760081198224"><ele>850.8571428571429</ele><time>2026-05-02T09:03:36Z</time></trkpt><trkpt lat="43.736453700200144" lon="11.870834246046192"><ele>851.0</ele><time>2026-05-02T09:03:41Z</time></trkpt><trkpt lat="43.73640444013345" lon="11.870962210691664"><ele>851.0</ele><time>2026-05-02T09:03:44Z</time></trkpt><trkpt lat="43.73636260235256" lon="11.871099865042664"><ele>851.0</ele><time>2026-05-02T09:03:46Z</time></trkpt><trkpt lat="43.73629838364998" lon="11.871203729608856"><ele>851.0</ele><time>2026-05-02T09:03:48Z</time></trkpt><trkpt lat="43.73623879311059" lon="11.871335126753841"><ele>851.0</ele><time>2026-05-02T09:03:50Z</time></trkpt><trkpt lat="43.73622241414063" lon="11.871430593336592"><ele>851.0</ele><time>2026-05-02T09:03:52Z</time></trkpt><trkpt lat="43.7361997121165" lon="11.871525771595287"><ele>851.0000000000001</ele><time>2026-05-02T09:03:53Z</time></trkpt><trkpt lat="43.73617968178682" lon="11.871609562013079"><ele>851.0</ele><time>2026-05-02T09:03:54Z</time></trkpt><trkpt lat="43.73613462494708" lon="11.871725208148337"><ele>851.0</ele><time>2026-05-02T09:03:56Z</time></trkpt><trkpt lat="43.736125354373605" lon="11.871883479908089"><ele>851.0</ele><time>2026-05-02T09:03:58Z</time></trkpt><trkpt lat="43.73607324033684" lon="11.872006561094041"><ele>851.0000000000001</ele><time>2026-05-02T09:04:00Z</time></trkpt><trkpt lat="43.7360313065713" lon="11.872087042125974"><ele>851.0</ele><time>2026-05-02T09:04:01Z</time></trkpt><trkpt lat="43.73598666326534" lon="11.87215762014431"><ele>845.8</ele><time>2026-05-02T09:04:02Z</time></trkpt><trkpt lat="43.73588697258358" lon="11.872242874566398"><ele>840.5999999999999</ele><time>2026-05-02T09:04:04Z</time></trkpt><trkpt lat="43.73581036977923" lon="11.872345876308131"><ele>835.4</ele><time>2026-05-02T09:04:06Z</time></trkpt><trkpt lat="43.735769295864756" lon="11.872441408953813"><ele>830.2</ele><time>2026-05-02T09:04:08Z</time></trkpt><trkpt lat="43.735700462231826" lon="11.87259118582579"><ele>825.0</ele><time>2026-05-02T09:04:10Z</time></trkpt><trkpt lat="43.73568866320747" lon="11.87271813258881"><ele>823.6</ele><time>2026-05-02T09:04:12Z</time></trkpt><trkpt lat="43.73567335958942" lon="11.872833511427123"><ele>822.2</ele><time>2026-05-02T09:04:13Z</time></trkpt><trkpt lat="43.735643903402355" lon="11.872983023483878"><ele>820.8</ele><time>2026-05-02T09:04:15Z</time></trkpt><trkpt lat="43.73563255540669" lon="11.873131142699199"><ele>819.4</ele><time>2026-05-02T09:04:17Z</time></trkpt><trkpt lat="43.735660516667636" lon="11.873269770665384"><ele>818.0</ele><time>2026-05-02T09:04:19Z</time></trkpt><trkpt lat="43.73573577263683" lon="11.873352773870558"><ele>818.0</ele><time>2026-05-02T09:04:21Z</time></trkpt><trkpt lat="43.73581886302541" lon="11.873386789867727"><ele>818.0</ele><time>2026-05-02T09:04:23Z</time></trkpt><trkpt lat="43.73594219165323" lon="11.873443671808317"><ele>818.0</ele><time>2026-05-02T09:04:25Z</time></trkpt><trkpt lat="43.7360055526556" lon="11.87347143203913"><ele>818.0</ele><time>2026-05-02T09:04:26Z</time></trkpt><trkpt lat="43.73607871044385" lon="11.873480337531046"><ele>818.0</ele><time>2026-05-02T09:04:27Z</time></trkpt><trkpt lat="43.736173295209475" lon="11.873552702769542"><ele>818.5999999999999</ele><time>2026-05-02T09:04:29Z</time></trkpt><trkpt lat="43.73623127370481" lon="11.873601726257442"><ele>819.1999999999999</ele><time>2026-05-02T09:04:30Z</time></trkpt><trkpt lat="43.73628105899746" lon="11.87370911129135"><ele>819.8</ele><time>2026-05-02T09:04:32Z</time></trkpt><trkpt lat="43.736348162984065" lon="11.87383041526736"><ele>820.4</ele><time>2026-05-02T09:04:34Z</time></trkpt><trkpt lat="43.73643974550012" lon="11.873943670612803"><ele>821.0</ele><time>2026-05-02T09:04:36Z</time></trkpt><trkpt lat="43.73652571544408" lon="11.874064330005073"><ele>821.0000000000001</ele><time>2026-05-02T09:04:38Z</time></trkpt><trkpt lat="43.736615373238934" lon="11.874150418698141"><ele>821.0</ele><time>2026-05-02T09:04:40Z</time></trkpt><trkpt lat="43.73669075531905" lon="11.874205606956174"><ele>821.0</ele><time>2026-05-02T09:04:42Z</time></trkpt><trkpt lat="43.736675717844804" lon="11.874307275632688"><ele>821.0</ele><time>2026-05-02T09:04:44Z</time></trkpt><trkpt lat="43.73662996022252" lon="11.87438695262297"><ele>821.0000000000001</ele><time>2026-05-02T09:04:45Z</time></trkpt><trkpt lat="43.73658545760707" lon="11.874455375931449"><ele>821.0</ele><time>2026-05-02T09:04:46Z</time></trkpt><trkpt lat="43.73653725046474" lon="11.874532776124711"><ele>820.0000000000001</ele><time>2026-05-02T09:04:48Z</time></trkpt><trkpt lat="43.736516882302" lon="11.874664214976413"><ele>819.0</ele><time>2026-05-02T09:04:50Z</time></trkpt><trkpt lat="43.736529757392034" lon="11.874757409397315"><ele>818.0</ele><time>2026-05-02T09:05:13Z</time></trkpt><trkpt lat="43.736525286224094" lon="11.874854528093143"><ele>817.0</ele><time>2026-05-02T09:05:19Z</time></trkpt><trkpt lat="43.73650409242344" lon="11.87494359643354"><ele>816.0000000000001</ele><time>2026-05-02T09:05:21Z</time></trkpt><trkpt lat="43.736542704219154" lon="11.875084011337012"><ele>815.0</ele><time>2026-05-02T09:05:23Z</time></trkpt><trkpt lat="43.736537105162256" lon="11.875171833544838"><ele>814.0</ele><time>2026-05-02T09:05:24Z</time></trkpt><trkpt lat="43.73652406687214" lon="11.87527269208212"><ele>813.0</ele><time>2026-05-02T09:05:25Z</time></trkpt><trkpt lat="43.736502845416204" lon="11.87545230273255"><ele>812.0</ele><time>2026-05-02T09:05:27Z</time></trkpt><trkpt lat="43.73647644089704" lon="11.875553773919634"><ele>811.0</ele><time>2026-05-02T09:05:28Z</time></trkpt><trkpt lat="43.73644845121841" lon="11.875650652637642"><ele>810.0</ele><time>2026-05-02T09:05:29Z</time></trkpt><trkpt lat="43.736411913821314" lon="11.875796053871381"><ele>810.0</ele><time>2026-05-02T09:05:31Z</time></trkpt><trkpt lat="43.736393025846276" lon="11.875919968510223"><ele>810.0</ele><time>2026-05-02T09:05:33Z</time></trkpt><trkpt lat="43.736436288085294" lon="11.876050439511724"><ele>810.0</ele><time>2026-05-02T09:05:35Z</time></trkpt><trkpt lat="43.73643822541898" lon="11.876141346357924"><ele>810.0</ele><time>2026-05-02T09:05:36Z</time></trkpt><trkpt lat="43.7364830339712" lon="11.876297605982442"><ele>810.0</ele><time>2026-05-02T09:05:38Z</time></trkpt><trkpt lat="43.7365355963161" lon="11.876450856365382"><ele>808.2</ele><time>2026-05-02T09:05:40Z</time></trkpt><trkpt lat="43.73657542139812" lon="11.876586639899438"><ele>806.4</ele><time>2026-05-02T09:05:42Z</time></trkpt><trkpt lat="43.73655929912154" lon="11.876689611366768"><ele>804.5999999999999</ele><time>2026-05-02T09:06:21Z</time></trkpt><trkpt lat="43.73649909998135" lon="11.876768555401785"><ele>802.8</ele><time>2026-05-02T09:06:26Z</time></trkpt><trkpt lat="43.736427143524395" lon="11.876838431094889"><ele>801.0</ele><time>2026-05-02T09:06:28Z</time></trkpt><trkpt lat="43.736349019219624" lon="11.876949600521245"><ele>797.5999999999999</ele><time>2026-05-02T09:06:30Z</time></trkpt><trkpt lat="43.736275804305095" lon="11.877041914308736"><ele>794.2</ele><time>2026-05-02T09:06:32Z</time></trkpt><trkpt lat="43.736188058379426" lon="11.877110707150656"><ele>790.8</ele><time>2026-05-02T09:06:34Z</time></trkpt><trkpt lat="43.73609470071705" lon="11.877148327017386"><ele>787.4000000000001</ele><time>2026-05-02T09:06:36Z</time></trkpt><trkpt lat="43.736020694918494" lon="11.877203251652675"><ele>784.0</ele><time>2026-05-02T09:06:38Z</time></trkpt><trkpt lat="43.73594856591623" lon="11.877291757299739"><ele>783.9999999999999</ele><time>2026-05-02T09:06:40Z</time></trkpt><trkpt lat="43.73589441408368" lon="11.877350594349153"><ele>784.0</ele><time>2026-05-02T09:06:42Z</time></trkpt><trkpt lat="43.735900826645576" lon="11.877460347415726"><ele>784.0</ele><time>2026-05-02T09:06:46Z</time></trkpt><trkpt lat="43.735972320370436" lon="11.877473509923954"><ele>784.0</ele><time>2026-05-02T09:06:48Z</time></trkpt><trkpt lat="43.73605279834655" lon="11.877444721394184"><ele>783.9999999999999</ele><time>2026-05-02T09:06:50Z</time></trkpt><trkpt lat="43.73613884314335" lon="11.877396989182035"><ele>784.0</ele><time>2026-05-02T09:06:52Z</time></trkpt><trkpt lat="43.73620343614916" lon="11.877396390673288"><ele>783.8000000000001</ele><time>2026-05-02T09:06:53Z</time></trkpt><trkpt lat="43.7363106252887" lon="11.877405596196201"><ele>783.6</ele><time>2026-05-02T09:06:55Z</time></trkpt><trkpt lat="43.73641235925338" lon="11.877399113078662"><ele>783.4</ele><time>2026-05-02T09:06:57Z</time></trkpt><trkpt lat="43.73651191421153" lon="11.877398110346478"><ele>783.2</ele><time>2026-05-02T09:06:59Z</time></trkpt><trkpt lat="43.73663751039981" lon="11.877396653297618"><ele>783.0</ele><time>2026-05-02T09:07:01Z</time></trkpt><trkpt lat="43.73670391815015" lon="11.877383825341973"><ele>783.0</ele><time>2026-05-02T09:07:02Z</time></trkpt><trkpt lat="43.73677145190131" lon="11.877357661563131"><ele>783.0</ele><time>2026-05-02T09:07:03Z</time></trkpt><trkpt lat="43.736850156764866" lon="11.877347937354541"><ele>783.0</ele><time>2026-05-02T09:07:04Z</time></trkpt><trkpt lat="43.73693003855639" lon="11.877344723181677"><ele>783.0</ele><time>2026-05-02T09:07:05Z</time></trkpt><trkpt lat="43.737006596121844" lon="11.877330065113044"><ele>783.0</ele><time>2026-05-02T09:07:06Z</time></trkpt><trkpt lat="43.73708073388623" lon="11.877335460358163"><ele>783.0</ele><time>2026-05-02T09:07:07Z</time></trkpt><trkpt lat="43.73714388914111" lon="11.877335879540786"><ele>783.0</ele><time>2026-05-02T09:07:08Z</time></trkpt><trkpt lat="43.73721390346063" lon="11.877368302263866"><ele>782.0</ele><time>2026-05-02T09:07:09Z</time></trkpt><trkpt lat="43.737271636577404" lon="11.87742155192432"><ele>781.0</ele><time>2026-05-02T09:07:10Z</time></trkpt><trkpt lat="43.73733738287171" lon="11.877505951802577"><ele>780.0</ele><time>2026-05-02T09:07:11Z</time></trkpt><trkpt lat="43.73742297176931" lon="11.877542179774878"><ele>779.0</ele><time>2026-05-02T09:07:12Z</time></trkpt><trkpt lat="43.737535149311334" lon="11.877568536018682"><ele>778.0</ele><time>2026-05-02T09:07:14Z</time></trkpt><trkpt lat="43.737649293197336" lon="11.87755931499162"><ele>777.2</ele><time>2026-05-02T09:07:16Z</time></trkpt><trkpt lat="43.73773487553806" lon="11.877459327516874"><ele>776.4</ele><time>2026-05-02T09:07:18Z</time></trkpt><trkpt lat="43.73782394286607" lon="11.877426177206107"><ele>775.6</ele><time>2026-05-02T09:07:19Z</time></trkpt><trkpt lat="43.737892054883126" lon="11.877391446132144"><ele>774.8000000000001</ele><time>2026-05-02T09:07:20Z</time></trkpt><trkpt lat="43.738011491354285" lon="11.877304253553971"><ele>774.0</ele><time>2026-05-02T09:07:22Z</time></trkpt><trkpt lat="43.738089046043896" lon="11.87727401208002"><ele>774.0</ele><time>2026-05-02T09:07:23Z</time></trkpt><trkpt lat="43.73817479586686" lon="11.87727621000536"><ele>774.0</ele><time>2026-05-02T09:07:24Z</time></trkpt><trkpt lat="43.738240955023265" lon="11.877281611340349"><ele>774.0</ele><time>2026-05-02T09:07:25Z</time></trkpt><trkpt lat="43.73831969942477" lon="11.877329616357567"><ele>774.0</ele><time>2026-05-02T09:07:27Z</time></trkpt><trkpt lat="43.738356240085814" lon="11.877457882868365"><ele>774.0</ele><time>2026-05-02T09:07:29Z</time></trkpt><trkpt lat="43.7383914760563" lon="11.877591594893968"><ele>774.0</ele><time>2026-05-02T09:07:31Z</time></trkpt><trkpt lat="43.738371401986576" lon="11.877738527526837"><ele>771.5</ele><time>2026-05-02T09:07:36Z</time></trkpt><trkpt lat="43.73835538764171" lon="11.877858087770333"><ele>769.0</ele><time>2026-05-02T09:07:38Z</time></trkpt><trkpt lat="43.738328481035126" lon="11.877953915580196"><ele>766.5</ele><time>2026-05-02T09:07:40Z</time></trkpt><trkpt lat="43.738295949158704" lon="11.878056937352625"><ele>764.0</ele><time>2026-05-02T09:07:42Z</time></trkpt><trkpt lat="43.73826442873642" lon="11.878161580572485"><ele>761.5</ele><time>2026-05-02T09:07:44Z</time></trkpt><trkpt lat="43.738245656995446" lon="11.878257922468737"><ele>759.0</ele><time>2026-05-02T09:07:46Z</time></trkpt><trkpt lat="43.73822319151394" lon="11.87838524544713"><ele>758.1666666666666</ele><time>2026-05-02T09:07:48Z</time></trkpt><trkpt lat="43.73820290677375" lon="11.878536236905267"><ele>757.3333333333334</ele><time>2026-05-02T09:07:50Z</time></trkpt><trkpt lat="43.73820709860538" lon="11.87863685164766"><ele>756.5</ele><time>2026-05-02T09:07:51Z</time></trkpt><trkpt lat="43.738211613260994" lon="11.878726096798129"><ele>755.6666666666667</ele><time>2026-05-02T09:07:52Z</time></trkpt><trkpt lat="43.73823629835441" lon="11.878849225430237"><ele>754.8333333333334</ele><time>2026-05-02T09:07:54Z</time></trkpt><trkpt lat="43.738276685301784" lon="11.878970488591486"><ele>754.0</ele><time>2026-05-02T09:07:56Z</time></trkpt><trkpt lat="43.738304477646444" lon="11.87912016101203"><ele>754.0</ele><time>2026-05-02T09:07:58Z</time></trkpt><trkpt lat="43.738311725839516" lon="11.879230701608652"><ele>754.0</ele><time>2026-05-02T09:07:59Z</time></trkpt><trkpt lat="43.73834187399786" lon="11.879345377673271"><ele>754.0</ele><time>2026-05-02T09:08:00Z</time></trkpt><trkpt lat="43.73836323547569" lon="11.879439703242689"><ele>754.0</ele><time>2026-05-02T09:08:01Z</time></trkpt><trkpt lat="43.73838378396237" lon="11.879534006461371"><ele>754.0</ele><time>2026-05-02T09:08:02Z</time></trkpt><trkpt lat="43.73840947738999" lon="11.879629984722"><ele>754.0</ele><time>2026-05-02T09:08:03Z</time></trkpt><trkpt lat="43.73844667589623" lon="11.879734113838973"><ele>753.0</ele><time>2026-05-02T09:08:04Z</time></trkpt><trkpt lat="43.738488008691405" lon="11.879878631483434"><ele>752.0</ele><time>2026-05-02T09:08:06Z</time></trkpt><trkpt lat="43.738463974676165" lon="11.879961108290177"><ele>751.0</ele><time>2026-05-02T09:08:08Z</time></trkpt><trkpt lat="43.738460809720095" lon="11.880124557579274"><ele>750.0</ele><time>2026-05-02T09:08:16Z</time></trkpt><trkpt lat="43.738439740351716" lon="11.880256121568898"><ele>749.0</ele><time>2026-05-02T09:08:18Z</time></trkpt><trkpt lat="43.738413020603545" lon="11.880370558448467"><ele>748.6</ele><time>2026-05-02T09:08:20Z</time></trkpt><trkpt lat="43.738393220731254" lon="11.880488911556503"><ele>748.2</ele><time>2026-05-02T09:08:22Z</time></trkpt><trkpt lat="43.73836937134002" lon="11.880628104226487"><ele>747.8000000000001</ele><time>2026-05-02T09:08:24Z</time></trkpt><trkpt lat="43.73832027609178" lon="11.880761605209187"><ele>747.4000000000001</ele><time>2026-05-02T09:08:26Z</time></trkpt><trkpt lat="43.73831215566229" lon="11.880851708809008"><ele>747.0</ele><time>2026-05-02T09:08:27Z</time></trkpt><trkpt lat="43.73825837881629" lon="11.881009939634305"><ele>745.3333333333334</ele><time>2026-05-02T09:08:29Z</time></trkpt><trkpt lat="43.73825846980884" lon="11.881100352436551"><ele>743.6666666666666</ele><time>2026-05-02T09:08:30Z</time></trkpt><trkpt lat="43.7382406817611" lon="11.881184152022218"><ele>742.0</ele><time>2026-05-02T09:08:31Z</time></trkpt><trkpt lat="43.73821202297314" lon="11.881327903531824"><ele>740.3333333333333</ele><time>2026-05-02T09:08:33Z</time></trkpt><trkpt lat="43.73819212927573" lon="11.881447782060985"><ele>738.6666666666666</ele><time>2026-05-02T09:08:35Z</time></trkpt><trkpt lat="43.73810518105716" lon="11.881552709852855"><ele>737.0</ele><time>2026-05-02T09:08:37Z</time></trkpt><trkpt lat="43.73803714174641" lon="11.88165843982981"><ele>737.0</ele><time>2026-05-02T09:08:39Z</time></trkpt><trkpt lat="43.73797303577988" lon="11.881737609588892"><ele>737.0</ele><time>2026-05-02T09:08:41Z</time></trkpt><trkpt lat="43.73789911464494" lon="11.881784659441278"><ele>737.0</ele><time>2026-05-02T09:08:43Z</time></trkpt><trkpt lat="43.73781692513246" lon="11.881835067226932"><ele>737.0</ele><time>2026-05-02T09:08:46Z</time></trkpt><trkpt lat="43.73778301321738" lon="11.881933410770202"><ele>737.0</ele><time>2026-05-02T09:08:49Z</time></trkpt><trkpt lat="43.737720342672134" lon="11.882010129929458"><ele>737.0</ele><time>2026-05-02T09:08:51Z</time></trkpt><trkpt lat="43.73763663764217" lon="11.882031043001637"><ele>732.2</ele><time>2026-05-02T09:08:53Z</time></trkpt><trkpt lat="43.73752699970613" lon="11.882102619392157"><ele>727.4000000000001</ele><time>2026-05-02T09:08:55Z</time></trkpt><trkpt lat="43.73741618167905" lon="11.882163715246428"><ele>722.5999999999999</ele><time>2026-05-02T09:08:57Z</time></trkpt><trkpt lat="43.737323147574024" lon="11.882233450008064"><ele>717.8</ele><time>2026-05-02T09:08:59Z</time></trkpt><trkpt lat="43.73724549300114" lon="11.882294320879248"><ele>713.0</ele><time>2026-05-02T09:09:01Z</time></trkpt><trkpt lat="43.73719783601673" lon="11.882352695785146"><ele>713.0</ele><time>2026-05-02T09:09:02Z</time></trkpt><trkpt lat="43.73715193976093" lon="11.882428652709807"><ele>713.0</ele><time>2026-05-02T09:09:03Z</time></trkpt><trkpt lat="43.73709248060584" lon="11.882578309925846"><ele>713.0</ele><time>2026-05-02T09:09:05Z</time></trkpt><trkpt lat="43.73702851632941" lon="11.882711473309312"><ele>713.0</ele><time>2026-05-02T09:09:07Z</time></trkpt><trkpt lat="43.73692891020691" lon="11.882785586953203"><ele>713.0</ele><time>2026-05-02T09:09:09Z</time></trkpt><trkpt lat="43.736862414094055" lon="11.882809765726861"><ele>710.1666666666666</ele><time>2026-05-02T09:09:10Z</time></trkpt><trkpt lat="43.73677762750241" lon="11.88283742000113"><ele>707.3333333333333</ele><time>2026-05-02T09:09:11Z</time></trkpt><trkpt lat="43.736701698565504" lon="11.882889692633158"><ele>704.5</ele><time>2026-05-02T09:09:12Z</time></trkpt><trkpt lat="43.736630536110724" lon="11.88291661851537"><ele>701.6666666666666</ele><time>2026-05-02T09:09:13Z</time></trkpt><trkpt lat="43.73658257315849" lon="11.882977854543382"><ele>698.8333333333334</ele><time>2026-05-02T09:09:14Z</time></trkpt><trkpt lat="43.73651529007744" lon="11.883025554971393"><ele>696.0</ele><time>2026-05-02T09:09:15Z</time></trkpt><trkpt lat="43.7364572840715" lon="11.883097278460921"><ele>696.0</ele><time>2026-05-02T09:09:16Z</time></trkpt><trkpt lat="43.736383586656174" lon="11.883139234774323"><ele>696.0</ele><time>2026-05-02T09:09:17Z</time></trkpt><trkpt lat="43.73632977999151" lon="11.88319033170156"><ele>696.0</ele><time>2026-05-02T09:09:18Z</time></trkpt><trkpt lat="43.73623386736569" lon="11.88330227724768"><ele>696.0</ele><time>2026-05-02T09:09:20Z</time></trkpt><trkpt lat="43.73616374584574" lon="11.883321468386326"><ele>696.0</ele><time>2026-05-02T09:09:21Z</time></trkpt><trkpt lat="43.73612101123453" lon="11.883389468123118"><ele>696.0</ele><time>2026-05-02T09:09:22Z</time></trkpt><trkpt lat="43.73606372027664" lon="11.883464222140951"><ele>691.8</ele><time>2026-05-02T09:09:23Z</time></trkpt><trkpt lat="43.73599832765262" lon="11.883560727735027"><ele>687.5999999999999</ele><time>2026-05-02T09:09:25Z</time></trkpt><trkpt lat="43.735939548175814" lon="11.883703527436934"><ele>683.4</ele><time>2026-05-02T09:09:27Z</time></trkpt><trkpt lat="43.73586846149052" lon="11.88382170896554"><ele>679.2</ele><time>2026-05-02T09:09:29Z</time></trkpt><trkpt lat="43.73579317185712" lon="11.883935178541599"><ele>675.0</ele><time>2026-05-02T09:09:31Z</time></trkpt><trkpt lat="43.73571687467854" lon="11.884037195310091"><ele>675.0</ele><time>2026-05-02T09:09:33Z</time></trkpt><trkpt lat="43.735624609506836" lon="11.884126483389181"><ele>675.0</ele><time>2026-05-02T09:09:35Z</time></trkpt><trkpt lat="43.735546804562084" lon="11.884208758905853"><ele>675.0</ele><time>2026-05-02T09:09:37Z</time></trkpt><trkpt lat="43.73550492950576" lon="11.884275716701138"><ele>675.0</ele><time>2026-05-02T09:09:38Z</time></trkpt><trkpt lat="43.735476611932036" lon="11.884419794872136"><ele>675.0</ele><time>2026-05-02T09:09:40Z</time></trkpt><trkpt lat="43.73548205145624" lon="11.88457321077611"><ele>670.1666666666666</ele><time>2026-05-02T09:09:42Z</time></trkpt><trkpt lat="43.73545960616961" lon="11.884660864838098"><ele>665.3333333333334</ele><time>2026-05-02T09:09:43Z</time></trkpt><trkpt lat="43.735411771013325" lon="11.88476469970773"><ele>660.5</ele><time>2026-05-02T09:09:45Z</time></trkpt><trkpt lat="43.73536719748118" lon="11.884832096556492"><ele>655.6666666666667</ele><time>2026-05-02T09:09:47Z</time></trkpt><trkpt lat="43.73532273142074" lon="11.884921591522094"><ele>650.8333333333334</ele><time>2026-05-02T09:09:49Z</time></trkpt><trkpt lat="43.73538666744665" lon="11.885008970308878"><ele>646.0</ele><time>2026-05-02T09:09:50Z</time></trkpt><trkpt lat="43.735355587809096" lon="11.885099157152716"><ele>646.0</ele><time>2026-05-02T09:09:53Z</time></trkpt><trkpt lat="43.73531159414085" lon="11.885204043227311"><ele>646.0</ele><time>2026-05-02T09:09:55Z</time></trkpt><trkpt lat="43.73526028958797" lon="11.885284844269977"><ele>646.0</ele><time>2026-05-02T09:09:57Z</time></trkpt><trkpt lat="43.73533104021467" lon="11.885305130353375"><ele>646.0</ele><time>2026-05-02T09:10:04Z</time></trkpt><trkpt lat="43.73539835192266" lon="11.88522529539714"><ele>646.0</ele><time>2026-05-02T09:10:06Z</time></trkpt><trkpt lat="43.73545903793357" lon="11.885134890866617"><ele>646.0</ele><time>2026-05-02T09:10:08Z</time></trkpt><trkpt lat="43.73553305753192" lon="11.885059162587707"><ele>646.0</ele><time>2026-05-02T09:10:10Z</time></trkpt><trkpt lat="43.735599044197976" lon="11.885011234117991"><ele>646.0</ele><time>2026-05-02T09:10:12Z</time></trkpt><trkpt lat="43.735667761621485" lon="11.88496558879736"><ele>646.0</ele><time>2026-05-02T09:10:13Z</time></trkpt><trkpt lat="43.735761624939805" lon="11.88488699831189"><ele>646.0</ele><time>2026-05-02T09:10:15Z</time></trkpt><trkpt lat="43.73582256534633" lon="11.88485052224605"><ele>646.0</ele><time>2026-05-02T09:10:16Z</time></trkpt><trkpt lat="43.735885652084576" lon="11.884834083726306"><ele>646.0</ele><time>2026-05-02T09:10:17Z</time></trkpt><trkpt lat="43.73598244275554" lon="11.88473584594485"><ele>646.0</ele><time>2026-05-02T09:10:19Z</time></trkpt><trkpt lat="43.73603297985698" lon="11.8846835750773"><ele>646.0</ele><time>2026-05-02T09:10:20Z</time></trkpt><trkpt lat="43.73609512541917" lon="11.884642830400287"><ele>646.0</ele><time>2026-05-02T09:10:21Z</time></trkpt><trkpt lat="43.73618042404432" lon="11.884582261072298"><ele>646.0</ele><time>2026-05-02T09:10:22Z</time></trkpt><trkpt lat="43.73624773791304" lon="11.884548138572171"><ele>646.0</ele><time>2026-05-02T09:10:23Z</time></trkpt><trkpt lat="43.73634330035708" lon="11.88446006944428"><ele>646.0</ele><time>2026-05-02T09:10:25Z</time></trkpt><trkpt lat="43.73639770377337" lon="11.88439668706628"><ele>647.1428571428572</ele><time>2026-05-02T09:10:26Z</time></trkpt><trkpt lat="43.73644272794305" lon="11.884334761604025"><ele>648.2857142857143</ele><time>2026-05-02T09:10:27Z</time></trkpt><trkpt lat="43.736477238716404" lon="11.884259478142608"><ele>649.4285714285714</ele><time>2026-05-02T09:10:28Z</time></trkpt><trkpt lat="43.73653527794137" lon="11.884191149534027"><ele>650.5714285714287</ele><time>2026-05-02T09:10:29Z</time></trkpt><trkpt lat="43.73661456349999" lon="11.884178276030818"><ele>651.7142857142858</ele><time>2026-05-02T09:10:30Z</time></trkpt><trkpt lat="43.736676954383086" lon="11.88414367746298"><ele>652.8571428571429</ele><time>2026-05-02T09:10:31Z</time></trkpt><trkpt lat="43.73674088506814" lon="11.884122466386287"><ele>654.0</ele><time>2026-05-02T09:10:32Z</time></trkpt><trkpt lat="43.73680917861141" lon="11.884121957093946"><ele>654.0</ele><time>2026-05-02T09:10:33Z</time></trkpt><trkpt lat="43.736879701605474" lon="11.8841012195975"><ele>654.0</ele><time>2026-05-02T09:10:34Z</time></trkpt><trkpt lat="43.736949038433835" lon="11.884043621082338"><ele>654.0</ele><time>2026-05-02T09:10:35Z</time></trkpt><trkpt lat="43.73703354723434" lon="11.884005021538345"><ele>654.0</ele><time>2026-05-02T09:10:36Z</time></trkpt><trkpt lat="43.73710162165927" lon="11.883986204641467"><ele>654.0</ele><time>2026-05-02T09:10:37Z</time></trkpt><trkpt lat="43.73722156035909" lon="11.883966872084116"><ele>654.0</ele><time>2026-05-02T09:10:39Z</time></trkpt><trkpt lat="43.73730345033536" lon="11.883948558983535"><ele>652.3333333333334</ele><time>2026-05-02T09:10:40Z</time></trkpt><trkpt lat="43.73736733401643" lon="11.883949747384248"><ele>650.6666666666666</ele><time>2026-05-02T09:10:41Z</time></trkpt><trkpt lat="43.73743621599685" lon="11.883938827443194"><ele>649.0</ele><time>2026-05-02T09:10:42Z</time></trkpt><trkpt lat="43.73753819306977" lon="11.883967383865178"><ele>647.3333333333333</ele><time>2026-05-02T09:10:44Z</time></trkpt><trkpt lat="43.737622006581674" lon="11.883970807881319"><ele>645.6666666666666</ele><time>2026-05-02T09:10:46Z</time></trkpt><trkpt lat="43.73769653633356" lon="11.883971555757391"><ele>644.0</ele><time>2026-05-02T09:10:48Z</time></trkpt><trkpt lat="43.73776327339441" lon="11.883946420532453"><ele>644.0</ele><time>2026-05-02T09:10:57Z</time></trkpt><trkpt lat="43.73786419514075" lon="11.88395354462049"><ele>644.0</ele><time>2026-05-02T09:10:59Z</time></trkpt><trkpt lat="43.737966729422006" lon="11.88395950199734"><ele>644.0</ele><time>2026-05-02T09:11:01Z</time></trkpt><trkpt lat="43.73806154272349" lon="11.883955886371508"><ele>644.0</ele><time>2026-05-02T09:11:03Z</time></trkpt><trkpt lat="43.73823509058638" lon="11.883961618379383"><ele>644.0</ele><time>2026-05-02T09:11:06Z</time></trkpt><trkpt lat="43.738332130691525" lon="11.883955792979368"><ele>644.0</ele><time>2026-05-02T09:11:07Z</time></trkpt><trkpt lat="43.738399651643086" lon="11.883958172845686"><ele>644.0</ele><time>2026-05-02T09:11:08Z</time></trkpt><trkpt lat="43.738483041185866" lon="11.883967386370422"><ele>644.0</ele><time>2026-05-02T09:11:09Z</time></trkpt><trkpt lat="43.73854758714278" lon="11.883999249530518"><ele>644.0</ele><time>2026-05-02T09:11:10Z</time></trkpt><trkpt lat="43.738608620382" lon="11.884034773956413"><ele>644.0</ele><time>2026-05-02T09:11:11Z</time></trkpt><trkpt lat="43.738685817035865" lon="11.884055194264025"><ele>645.0</ele><time>2026-05-02T09:11:12Z</time></trkpt><trkpt lat="43.73875873574356" lon="11.884079934994547"><ele>646.0</ele><time>2026-05-02T09:11:14Z</time></trkpt><trkpt lat="43.738879380499995" lon="11.884043807772361"><ele>647.0</ele><time>2026-05-02T09:12:14Z</time></trkpt><trkpt lat="43.73896302202011" lon="11.884026251955017"><ele>648.0</ele><time>2026-05-02T09:12:16Z</time></trkpt><trkpt lat="43.73905547938712" lon="11.884041692677501"><ele>649.0</ele><time>2026-05-02T09:12:18Z</time></trkpt><trkpt lat="43.73911336009775" lon="11.884086749983307"><ele>650.0</ele><time>2026-05-02T09:12:20Z</time></trkpt><trkpt lat="43.73928247429272" lon="11.884074998178782"><ele>650.0</ele><time>2026-05-02T09:12:23Z</time></trkpt><trkpt lat="43.73915210688721" lon="11.884189874081656"><ele>650.0</ele><time>2026-05-02T09:12:31Z</time></trkpt><trkpt lat="43.739079449366514" lon="11.884180020143903"><ele>650.0</ele><time>2026-05-02T09:12:33Z</time></trkpt><trkpt lat="43.739017458640404" lon="11.884205183565554"><ele>650.0</ele><time>2026-05-02T09:12:35Z</time></trkpt><trkpt lat="43.7389319326758" lon="11.884271329004509"><ele>650.0</ele><time>2026-05-02T09:12:37Z</time></trkpt><trkpt lat="43.73887722159886" lon="11.884322789327314"><ele>646.2</ele><time>2026-05-02T09:12:38Z</time></trkpt><trkpt lat="43.73879082807076" lon="11.884417931509155"><ele>642.4</ele><time>2026-05-02T09:12:40Z</time></trkpt><trkpt lat="43.73869585791099" lon="11.884520799182571"><ele>638.6</ele><time>2026-05-02T09:12:42Z</time></trkpt><trkpt lat="43.73858311545086" lon="11.884581040211323"><ele>634.8</ele><time>2026-05-02T09:12:44Z</time></trkpt><trkpt lat="43.73854107257853" lon="11.884649249835721"><ele>631.0</ele><time>2026-05-02T09:12:45Z</time></trkpt><trkpt lat="43.7384349578749" lon="11.884724311692619"><ele>629.6</ele><time>2026-05-02T09:12:47Z</time></trkpt><trkpt lat="43.738351974597606" lon="11.8847864764052"><ele>628.2</ele><time>2026-05-02T09:12:49Z</time></trkpt><trkpt lat="43.73827792391522" lon="11.884863282912514"><ele>626.8</ele><time>2026-05-02T09:12:51Z</time></trkpt><trkpt lat="43.738170177825005" lon="11.884944009504322"><ele>625.4</ele><time>2026-05-02T09:12:53Z</time></trkpt><trkpt lat="43.73809790069304" lon="11.885032935123965"><ele>624.0</ele><time>2026-05-02T09:12:56Z</time></trkpt><trkpt lat="43.73804893819796" lon="11.88514251805235"><ele>620.1666666666666</ele><time>2026-05-02T09:12:58Z</time></trkpt><trkpt lat="43.73798118846547" lon="11.885237357972157"><ele>616.3333333333334</ele><time>2026-05-02T09:12:59Z</time></trkpt><trkpt lat="43.737920989154496" lon="11.885292924829267"><ele>612.5</ele><time>2026-05-02T09:13:00Z</time></trkpt><trkpt lat="43.73785316212515" lon="11.885320714238318"><ele>608.6666666666667</ele><time>2026-05-02T09:13:02Z</time></trkpt><trkpt lat="43.737786037449226" lon="11.885328726683824"><ele>604.8333333333334</ele><time>2026-05-02T09:13:04Z</time></trkpt><trkpt lat="43.73772138926382" lon="11.885333489981786"><ele>601.0</ele><time>2026-05-02T09:13:06Z</time></trkpt><trkpt lat="43.737575196453214" lon="11.885318327465766"><ele>600.0</ele><time>2026-05-02T09:13:08Z</time></trkpt><trkpt lat="43.73751088482558" lon="11.885323192041202"><ele>599.0</ele><time>2026-05-02T09:13:09Z</time></trkpt><trkpt lat="43.73738700814856" lon="11.88533216005624"><ele>598.0</ele><time>2026-05-02T09:13:11Z</time></trkpt><trkpt lat="43.73731388500808" lon="11.885307022281495"><ele>597.0</ele><time>2026-05-02T09:13:12Z</time></trkpt><trkpt lat="43.737208332271315" lon="11.885254636981069"><ele>596.0</ele><time>2026-05-02T09:13:14Z</time></trkpt><trkpt lat="43.737099164366676" lon="11.885204092661814"><ele>596.0</ele><time>2026-05-02T09:13:16Z</time></trkpt><trkpt lat="43.7369925159081" lon="11.885199594017847"><ele>596.0</ele><time>2026-05-02T09:13:18Z</time></trkpt><trkpt lat="43.73692608205121" lon="11.885230360602"><ele>596.0</ele><time>2026-05-02T09:13:19Z</time></trkpt><trkpt lat="43.736851974460265" lon="11.885206779982925"><ele>596.0</ele><time>2026-05-02T09:13:20Z</time></trkpt><trkpt lat="43.73674283394288" lon="11.885250432622186"><ele>596.0</ele><time>2026-05-02T09:13:22Z</time></trkpt><trkpt lat="43.73663815573282" lon="11.885287572783918"><ele>594.6</ele><time>2026-05-02T09:13:24Z</time></trkpt><trkpt lat="43.73652949278757" lon="11.885336783036156"><ele>593.2</ele><time>2026-05-02T09:13:26Z</time></trkpt><trkpt lat="43.73643301910868" lon="11.885363466544007"><ele>591.8</ele><time>2026-05-02T09:13:28Z</time></trkpt><trkpt lat="43.73634289886762" lon="11.88541445633633"><ele>590.4</ele><time>2026-05-02T09:13:30Z</time></trkpt><trkpt lat="43.736331614539594" lon="11.885511818310915"><ele>589.0</ele><time>2026-05-02T09:13:32Z</time></trkpt><trkpt lat="43.7363945675272" lon="11.885569414431318"><ele>589.0</ele><time>2026-05-02T09:13:34Z</time></trkpt><trkpt lat="43.73648523509153" lon="11.885513313601669"><ele>589.0</ele><time>2026-05-02T09:13:36Z</time></trkpt><trkpt lat="43.73660330940816" lon="11.885499099073877"><ele>589.0</ele><time>2026-05-02T09:13:39Z</time></trkpt><trkpt lat="43.73668415246182" lon="11.885507422406917"><ele>589.0</ele><time>2026-05-02T09:13:41Z</time></trkpt><trkpt lat="43.73677620255405" lon="11.885546835592748"><ele>589.0</ele><time>2026-05-02T09:13:43Z</time></trkpt><trkpt lat="43.736836906698066" lon="11.885573816850318"><ele>590.1666666666667</ele><time>2026-05-02T09:13:44Z</time></trkpt><trkpt lat="43.736923463734726" lon="11.885620910913252"><ele>591.3333333333334</ele><time>2026-05-02T09:13:46Z</time></trkpt><trkpt lat="43.73696050677538" lon="11.885710289446525"><ele>592.5</ele><time>2026-05-02T09:13:48Z</time></trkpt><trkpt lat="43.737008758815975" lon="11.885773772671008"><ele>593.6666666666666</ele><time>2026-05-02T09:13:49Z</time></trkpt><trkpt lat="43.73705475427132" lon="11.885868863237542"><ele>594.8333333333333</ele><time>2026-05-02T09:13:51Z</time></trkpt><trkpt lat="43.73710884940787" lon="11.885963575522723"><ele>596.0</ele><time>2026-05-02T09:13:54Z</time></trkpt><trkpt lat="43.73717291765079" lon="11.886030911124385"><ele>590.6</ele><time>2026-05-02T09:13:56Z</time></trkpt><trkpt lat="43.737220236775826" lon="11.886109718805129"><ele>585.2</ele><time>2026-05-02T09:13:58Z</time></trkpt><trkpt lat="43.73731962639492" lon="11.886186327559054"><ele>579.8</ele><time>2026-05-02T09:14:00Z</time></trkpt><trkpt lat="43.73740755287095" lon="11.886263606302165"><ele>574.4</ele><time>2026-05-02T09:14:02Z</time></trkpt><trkpt lat="43.737488916162825" lon="11.886295612087054"><ele>569.0</ele><time>2026-05-02T09:14:04Z</time></trkpt><trkpt lat="43.73757508252922" lon="11.886299296748568"><ele>569.0</ele><time>2026-05-02T09:14:06Z</time></trkpt><trkpt lat="43.73764997537731" lon="11.886293820295798"><ele>569.0</ele><time>2026-05-02T09:14:08Z</time></trkpt><trkpt lat="43.73772004836889" lon="11.88628048976415"><ele>569.0</ele><time>2026-05-02T09:14:10Z</time></trkpt><trkpt lat="43.73774145380238" lon="11.886369600575433"><ele>569.0</ele><time>2026-05-02T09:14:12Z</time></trkpt><trkpt lat="43.73766081152484" lon="11.886441482436462"><ele>569.0</ele><time>2026-05-02T09:14:14Z</time></trkpt><trkpt lat="43.73755712424789" lon="11.88648705842899"><ele>569.0</ele><time>2026-05-02T09:14:16Z</time></trkpt><trkpt lat="43.737477754390106" lon="11.886545942800478"><ele>569.0</ele><time>2026-05-02T09:14:18Z</time></trkpt><trkpt lat="43.737401168210575" lon="11.886586768039193"><ele>569.0</ele><time>2026-05-02T09:14:20Z</time></trkpt><trkpt lat="43.737310480251445" lon="11.886656333229402"><ele>569.0</ele><time>2026-05-02T09:14:22Z</time></trkpt><trkpt lat="43.73721821369722" lon="11.886718842714163"><ele>569.0</ele><time>2026-05-02T09:14:24Z</time></trkpt><trkpt lat="43.737134846858005" lon="11.886728946614207"><ele>569.0</ele><time>2026-05-02T09:14:26Z</time></trkpt><trkpt lat="43.73702820878384" lon="11.886756044619265"><ele>569.0</ele><time>2026-05-02T09:14:29Z</time></trkpt><trkpt lat="43.73695936701051" lon="11.886713690666893"><ele>569.0</ele><time>2026-05-02T09:14:31Z</time></trkpt><trkpt lat="43.736861365706986" lon="11.886676167198452"><ele>569.0</ele><time>2026-05-02T09:14:33Z</time></trkpt><trkpt lat="43.73676964875146" lon="11.88659474741234"><ele>569.0</ele><time>2026-05-02T09:14:35Z</time></trkpt><trkpt lat="43.73670246169314" lon="11.88648778901877"><ele>569.0</ele><time>2026-05-02T09:14:37Z</time></trkpt><trkpt lat="43.736600803903" lon="11.886514809722108"><ele>568.6666666666666</ele><time>2026-05-02T09:14:40Z</time></trkpt><trkpt lat="43.736536496557896" lon="11.886584070227173"><ele>568.3333333333333</ele><time>2026-05-02T09:14:42Z</time></trkpt><trkpt lat="43.73646456169801" lon="11.88666988026122"><ele>568.0</ele><time>2026-05-02T09:14:44Z</time></trkpt><trkpt lat="43.73643028777853" lon="11.886793825320982"><ele>567.6666666666666</ele><time>2026-05-02T09:14:48Z</time></trkpt><trkpt lat="43.73637694636794" lon="11.886844457624488"><ele>567.3333333333334</ele><time>2026-05-02T09:14:49Z</time></trkpt><trkpt lat="43.73638652031763" lon="11.886967836047374"><ele>567.0</ele><time>2026-05-02T09:14:51Z</time></trkpt><trkpt lat="43.73633637670471" lon="11.88706551610264"><ele>560.5</ele><time>2026-05-02T09:14:54Z</time></trkpt><trkpt lat="43.73629113172997" lon="11.887142053691289"><ele>554.0</ele><time>2026-05-02T09:14:57Z</time></trkpt><trkpt lat="43.73618222075601" lon="11.88727981895524"><ele>547.5</ele><time>2026-05-02T09:14:59Z</time></trkpt><trkpt lat="43.73610711291731" lon="11.88734442680713"><ele>541.0</ele><time>2026-05-02T09:15:00Z</time></trkpt><trkpt lat="43.73615624549888" lon="11.887660292651866"><ele>539.0</ele><time>2026-05-02T09:15:01Z</time></trkpt><trkpt lat="43.73609832708876" lon="11.887718422234194"><ele>537.0</ele><time>2026-05-02T09:15:02Z</time></trkpt><trkpt lat="43.736001407357044" lon="11.887802273671292"><ele>535.0</ele><time>2026-05-02T09:15:03Z</time></trkpt><trkpt lat="43.73593752723386" lon="11.887848185214825"><ele>533.0</ele><time>2026-05-02T09:15:04Z</time></trkpt><trkpt lat="43.73586895038628" lon="11.887891439620873"><ele>531.0</ele><time>2026-05-02T09:15:05Z</time></trkpt><trkpt lat="43.73578555676883" lon="11.887938069062985"><ele>529.0</ele><time>2026-05-02T09:15:06Z</time></trkpt><trkpt lat="43.7356862062762" lon="11.887975507103448"><ele>528.8</ele><time>2026-05-02T09:15:08Z</time></trkpt><trkpt lat="43.73560200246016" lon="11.887995341593966"><ele>528.5999999999999</ele><time>2026-05-02T09:15:10Z</time></trkpt><trkpt lat="43.735503623182446" lon="11.887999973298424"><ele>528.4</ele><time>2026-05-02T09:15:12Z</time></trkpt><trkpt lat="43.735404570437275" lon="11.888036120711337"><ele>528.1999999999999</ele><time>2026-05-02T09:15:14Z</time></trkpt><trkpt lat="43.735298858004164" lon="11.888129757655062"><ele>528.0</ele><time>2026-05-02T09:15:16Z</time></trkpt><trkpt lat="43.73524258583366" lon="11.888211867139297"><ele>528.0</ele><time>2026-05-02T09:15:18Z</time></trkpt><trkpt lat="43.73538920663758" lon="11.888130949024227"><ele>528.0</ele><time>2026-05-02T09:15:27Z</time></trkpt><trkpt lat="43.73549655906826" lon="11.888076165545701"><ele>528.0</ele><time>2026-05-02T09:15:29Z</time></trkpt><trkpt lat="43.73562535850085" lon="11.888060672033543"><ele>528.0</ele><time>2026-05-02T09:15:31Z</time></trkpt><trkpt lat="43.735691646696004" lon="11.888047516962642"><ele>528.0</ele><time>2026-05-02T09:15:32Z</time></trkpt><trkpt lat="43.735761900710344" lon="11.888019759775503"><ele>528.0</ele><time>2026-05-02T09:15:33Z</time></trkpt><trkpt lat="43.73583205157298" lon="11.88801720557189"><ele>528.0</ele><time>2026-05-02T09:15:34Z</time></trkpt><trkpt lat="43.73589613243589" lon="11.887985798664568"><ele>528.0</ele><time>2026-05-02T09:15:35Z</time></trkpt><trkpt lat="43.735948321988786" lon="11.887932147486133"><ele>528.0</ele><time>2026-05-02T09:15:36Z</time></trkpt><trkpt lat="43.7360177926269" lon="11.887868113947219"><ele>528.0</ele><time>2026-05-02T09:15:37Z</time></trkpt><trkpt lat="43.73609288018206" lon="11.88779747541947"><ele>528.1666666666666</ele><time>2026-05-02T09:15:38Z</time></trkpt><trkpt lat="43.73617467087204" lon="11.887721806812046"><ele>528.3333333333334</ele><time>2026-05-02T09:15:39Z</time></trkpt><trkpt lat="43.736256280470315" lon="11.887660068068962"><ele>528.5</ele><time>2026-05-02T09:15:40Z</time></trkpt><trkpt lat="43.73632983814394" lon="11.887603977463726"><ele>528.6666666666667</ele><time>2026-05-02T09:15:41Z</time></trkpt><trkpt lat="43.736400132752834" lon="11.88757279402088"><ele>528.8333333333334</ele><time>2026-05-02T09:15:42Z</time></trkpt><trkpt lat="43.73647175575011" lon="11.887551549573566"><ele>529.0</ele><time>2026-05-02T09:15:43Z</time></trkpt><trkpt lat="43.736559262637094" lon="11.887595631868072"><ele>529.0</ele><time>2026-05-02T09:15:44Z</time></trkpt><trkpt lat="43.73663444043938" lon="11.887666353588111"><ele>529.0</ele><time>2026-05-02T09:15:45Z</time></trkpt><trkpt lat="43.73671672631301" lon="11.887765581139798"><ele>529.0</ele><time>2026-05-02T09:15:46Z</time></trkpt><trkpt lat="43.73679570950071" lon="11.887835018549321"><ele>529.0</ele><time>2026-05-02T09:15:47Z</time></trkpt><trkpt lat="43.73686564530146" lon="11.887892672879905"><ele>529.0</ele><time>2026-05-02T09:15:48Z</time></trkpt><trkpt lat="43.73694795461323" lon="11.887924542475332"><ele>531.5</ele><time>2026-05-02T09:15:49Z</time></trkpt><trkpt lat="43.73703152631954" lon="11.887927633357743"><ele>534.0</ele><time>2026-05-02T09:15:50Z</time></trkpt><trkpt lat="43.737110689112846" lon="11.887945779858514"><ele>536.5</ele><time>2026-05-02T09:15:51Z</time></trkpt><trkpt lat="43.73717646779828" lon="11.887975856981937"><ele>539.0</ele><time>2026-05-02T09:15:52Z</time></trkpt><trkpt lat="43.73721835946986" lon="11.888054410042036"><ele>541.5</ele><time>2026-05-02T09:15:53Z</time></trkpt><trkpt lat="43.73724849517646" lon="11.888149977009986"><ele>544.0</ele><time>2026-05-02T09:15:54Z</time></trkpt><trkpt lat="43.73723098481493" lon="11.888268061146698"><ele>544.0</ele><time>2026-05-02T09:15:55Z</time></trkpt><trkpt lat="43.73718546815072" lon="11.88834289443748"><ele>544.0</ele><time>2026-05-02T09:15:56Z</time></trkpt><trkpt lat="43.737104997511956" lon="11.88844093396248"><ele>544.0</ele><time>2026-05-02T09:15:58Z</time></trkpt><trkpt lat="43.73703375320623" lon="11.888515550393544"><ele>544.0</ele><time>2026-05-02T09:16:00Z</time></trkpt><trkpt lat="43.73697771511394" lon="11.888598102464243"><ele>544.0</ele><time>2026-05-02T09:16:03Z</time></trkpt><trkpt lat="43.73679795553604" lon="11.888749271100542"><ele>542.1666666666667</ele><time>2026-05-02T09:16:29Z</time></trkpt><trkpt lat="43.73675212934863" lon="11.888838369025306"><ele>540.3333333333334</ele><time>2026-05-02T09:16:30Z</time></trkpt><trkpt lat="43.736721304490985" lon="11.888926650610367"><ele>538.5</ele><time>2026-05-02T09:16:31Z</time></trkpt><trkpt lat="43.73669315347516" lon="11.889033109942973"><ele>536.6666666666666</ele><time>2026-05-02T09:16:32Z</time></trkpt><trkpt lat="43.73666931047481" lon="11.889144292773722"><ele>534.8333333333333</ele><time>2026-05-02T09:16:33Z</time></trkpt><trkpt lat="43.736643307404215" lon="11.889252940455085"><ele>533.0</ele><time>2026-05-02T09:16:34Z</time></trkpt><trkpt lat="43.7366123139106" lon="11.889364013140574"><ele>533.0</ele><time>2026-05-02T09:16:35Z</time></trkpt><trkpt lat="43.73657726597831" lon="11.889471452810978"><ele>533.0</ele><time>2026-05-02T09:16:36Z</time></trkpt><trkpt lat="43.73654924796581" lon="11.889576570659235"><ele>533.0</ele><time>2026-05-02T09:16:37Z</time></trkpt><trkpt lat="43.73651717703793" lon="11.88966630223826"><ele>533.0</ele><time>2026-05-02T09:16:38Z</time></trkpt><trkpt lat="43.73658075230666" lon="11.889523739533276"><ele>533.0</ele><time>2026-05-02T09:16:39Z</time></trkpt><trkpt lat="43.73649175543371" lon="11.889852112570075"><ele>533.0</ele><time>2026-05-02T09:16:40Z</time></trkpt><trkpt lat="43.73649909912538" lon="11.8899528612824"><ele>533.0</ele><time>2026-05-02T09:16:41Z</time></trkpt><trkpt lat="43.73653266396373" lon="11.890062595964793"><ele>533.0</ele><time>2026-05-02T09:16:42Z</time></trkpt><trkpt lat="43.73657159804705" lon="11.890166314360314"><ele>533.0</ele><time>2026-05-02T09:16:43Z</time></trkpt><trkpt lat="43.73663303521569" lon="11.890257113203216"><ele>533.0</ele><time>2026-05-02T09:16:44Z</time></trkpt><trkpt lat="43.736695684656375" lon="11.890360763942747"><ele>533.0</ele><time>2026-05-02T09:16:45Z</time></trkpt><trkpt lat="43.73676606237599" lon="11.890455385067984"><ele>533.3333333333333</ele><time>2026-05-02T09:16:46Z</time></trkpt><trkpt lat="43.73681851306349" lon="11.890547359636281"><ele>533.6666666666666</ele><time>2026-05-02T09:16:47Z</time></trkpt><trkpt lat="43.736873251602475" lon="11.890637372453632"><ele>534.0</ele><time>2026-05-02T09:16:48Z</time></trkpt><trkpt lat="43.73692242983178" lon="11.89072864441093"><ele>534.3333333333334</ele><time>2026-05-02T09:16:49Z</time></trkpt><trkpt lat="43.73698392758497" lon="11.890803952674439"><ele>534.6666666666667</ele><time>2026-05-02T09:16:50Z</time></trkpt><trkpt lat="43.73705060589532" lon="11.890848764364563"><ele>535.0</ele><time>2026-05-02T09:16:51Z</time></trkpt><trkpt lat="43.73713580350443" lon="11.890863806222855"><ele>535.0</ele><time>2026-05-02T09:16:52Z</time></trkpt><trkpt lat="43.73724290574331" lon="11.890856736275458"><ele>535.0</ele><time>2026-05-02T09:16:53Z</time></trkpt><trkpt lat="43.737341506568846" lon="11.890830237862293"><ele>535.0</ele><time>2026-05-02T09:16:54Z</time></trkpt><trkpt lat="43.73743891747985" lon="11.890797741112646"><ele>535.0</ele><time>2026-05-02T09:16:55Z</time></trkpt><trkpt lat="43.7375237758477" lon="11.890786595602371"><ele>535.0</ele><time>2026-05-02T09:16:56Z</time></trkpt><trkpt lat="43.73762013009951" lon="11.890835964866065"><ele>536.5</ele><time>2026-05-02T09:16:57Z</time></trkpt><trkpt lat="43.73772725293921" lon="11.890900018993069"><ele>538.0</ele><time>2026-05-02T09:16:58Z</time></trkpt><trkpt lat="43.73782526793236" lon="11.89094350906065"><ele>539.5</ele><time>2026-05-02T09:16:59Z</time></trkpt><trkpt lat="43.737918755548414" lon="11.891045986603787"><ele>541.0</ele><time>2026-05-02T09:17:00Z</time></trkpt><trkpt lat="43.73800976939851" lon="11.89113759361399"><ele>541.0</ele><time>2026-05-02T09:17:01Z</time></trkpt><trkpt lat="43.738092881884285" lon="11.891246118554012"><ele>541.0</ele><time>2026-05-02T09:17:02Z</time></trkpt><trkpt lat="43.738174886028446" lon="11.891358577260947"><ele>541.0</ele><time>2026-05-02T09:17:03Z</time></trkpt><trkpt lat="43.738262611402824" lon="11.891452067921024"><ele>541.0</ele><time>2026-05-02T09:17:04Z</time></trkpt><trkpt lat="43.73834342430382" lon="11.891537129207329"><ele>541.0</ele><time>2026-05-02T09:17:05Z</time></trkpt><trkpt lat="43.73841452770276" lon="11.891628350723131"><ele>541.0</ele><time>2026-05-02T09:17:06Z</time></trkpt><trkpt lat="43.73847528834994" lon="11.891739003088592"><ele>541.0</ele><time>2026-05-02T09:17:07Z</time></trkpt><trkpt lat="43.738517459998" lon="11.891865421213586"><ele>541.0</ele><time>2026-05-02T09:17:08Z</time></trkpt><trkpt lat="43.73857900729674" lon="11.891995236183993"><ele>541.0</ele><time>2026-05-02T09:17:09Z</time></trkpt><trkpt lat="43.73859699682539" lon="11.892160020245196"><ele>541.0</ele><time>2026-05-02T09:17:10Z</time></trkpt><trkpt lat="43.73864030003615" lon="11.892318020234468"><ele>542.0</ele><time>2026-05-02T09:17:11Z</time></trkpt><trkpt lat="43.73866094937974" lon="11.89246852648834"><ele>543.0</ele><time>2026-05-02T09:17:12Z</time></trkpt><trkpt lat="43.738694869527244" lon="11.892622263073433"><ele>544.0</ele><time>2026-05-02T09:17:13Z</time></trkpt><trkpt lat="43.738724136090916" lon="11.892778924645311"><ele>545.0</ele><time>2026-05-02T09:17:14Z</time></trkpt><trkpt lat="43.7387798568418" lon="11.892929825482234"><ele>545.0</ele><time>2026-05-02T09:17:15Z</time></trkpt><trkpt lat="43.738845431809914" lon="11.893069464759652"><ele>545.0</ele><time>2026-05-02T09:17:16Z</time></trkpt><trkpt lat="43.7389023125642" lon="11.893208387297543"><ele>545.0</ele><time>2026-05-02T09:17:17Z</time></trkpt><trkpt lat="43.738950666625215" lon="11.893342936974447"><ele>545.0</ele><time>2026-05-02T09:17:18Z</time></trkpt><trkpt lat="43.73900451215366" lon="11.89346906808009"><ele>540.4</ele><time>2026-05-02T09:17:19Z</time></trkpt><trkpt lat="43.73906113049617" lon="11.893605002174764"><ele>535.8</ele><time>2026-05-02T09:17:20Z</time></trkpt><trkpt lat="43.739121002411366" lon="11.893716628857335"><ele>531.2</ele><time>2026-05-02T09:17:21Z</time></trkpt><trkpt lat="43.739175621678214" lon="11.893823509412234"><ele>526.6</ele><time>2026-05-02T09:17:22Z</time></trkpt><trkpt lat="43.73923704211427" lon="11.893921646011867"><ele>522.0</ele><time>2026-05-02T09:17:23Z</time></trkpt><trkpt lat="43.73931579251523" lon="11.893996387560861"><ele>520.8000000000001</ele><time>2026-05-02T09:17:24Z</time></trkpt><trkpt lat="43.73940963595143" lon="11.894047032423025"><ele>519.6</ele><time>2026-05-02T09:17:25Z</time></trkpt><trkpt lat="43.73950551428219" lon="11.894114464854727"><ele>518.4000000000001</ele><time>2026-05-02T09:17:26Z</time></trkpt><trkpt lat="43.739604794670534" lon="11.894178613323925"><ele>517.2</ele><time>2026-05-02T09:17:27Z</time></trkpt><trkpt lat="43.73970233970916" lon="11.894255605463322"><ele>516.0</ele><time>2026-05-02T09:17:28Z</time></trkpt><trkpt lat="43.739797223371085" lon="11.894342993010397"><ele>516.0</ele><time>2026-05-02T09:17:29Z</time></trkpt><trkpt lat="43.7398889397505" lon="11.894444319176987"><ele>516.0</ele><time>2026-05-02T09:17:30Z</time></trkpt><trkpt lat="43.73999344600382" lon="11.894530015967941"><ele>516.0</ele><time>2026-05-02T09:17:31Z</time></trkpt><trkpt lat="43.740085551922846" lon="11.894624467173102"><ele>516.0</ele><time>2026-05-02T09:17:32Z</time></trkpt><trkpt lat="43.7401923137633" lon="11.894688078450509"><ele>522.0</ele><time>2026-05-02T09:17:33Z</time></trkpt><trkpt lat="43.740296506662226" lon="11.894742472654196"><ele>528.0</ele><time>2026-05-02T09:17:34Z</time></trkpt><trkpt lat="43.74039331781499" lon="11.894795146674646"><ele>534.0</ele><time>2026-05-02T09:17:35Z</time></trkpt><trkpt lat="43.74048044753413" lon="11.894857941407457"><ele>540.0</ele><time>2026-05-02T09:17:36Z</time></trkpt><trkpt lat="43.74055780511289" lon="11.894940674798711"><ele>546.0</ele><time>2026-05-02T09:17:37Z</time></trkpt><trkpt lat="43.74063374034433" lon="11.895039768237055"><ele>542.0</ele><time>2026-05-02T09:17:38Z</time></trkpt><trkpt lat="43.74069871661737" lon="11.89514305823456"><ele>538.0</ele><time>2026-05-02T09:17:39Z</time></trkpt><trkpt lat="43.740759982005336" lon="11.89523337717008"><ele>534.0</ele><time>2026-05-02T09:17:40Z</time></trkpt><trkpt lat="43.740832572139276" lon="11.895325017943973"><ele>530.0</ele><time>2026-05-02T09:17:42Z</time></trkpt><trkpt lat="43.74078376548101" lon="11.895211101531608"><ele>526.0</ele><time>2026-05-02T09:25:11Z</time></trkpt><trkpt lat="43.74073028793641" lon="11.895138881039367"><ele>528.8571428571429</ele><time>2026-05-02T09:25:12Z</time></trkpt><trkpt lat="43.74068611257929" lon="11.895061678486133"><ele>531.7142857142857</ele><time>2026-05-02T09:25:13Z</time></trkpt><trkpt lat="43.740638027994386" lon="11.894996598406124"><ele>534.5714285714286</ele><time>2026-05-02T09:25:14Z</time></trkpt><trkpt lat="43.74059730938229" lon="11.894924341315683"><ele>537.4285714285714</ele><time>2026-05-02T09:25:15Z</time></trkpt><trkpt lat="43.74052632690139" lon="11.8948681283878"><ele>540.2857142857142</ele><time>2026-05-02T09:25:16Z</time></trkpt><trkpt lat="43.74045327749999" lon="11.89483982600182"><ele>543.1428571428571</ele><time>2026-05-02T09:25:17Z</time></trkpt><trkpt lat="43.74038902783676" lon="11.894790330969268"><ele>546.0</ele><time>2026-05-02T09:25:18Z</time></trkpt><trkpt lat="43.74033462072786" lon="11.894736734383242"><ele>546.0</ele><time>2026-05-02T09:25:19Z</time></trkpt><trkpt lat="43.740253261797044" lon="11.89469713711926"><ele>546.0</ele><time>2026-05-02T09:25:20Z</time></trkpt><trkpt lat="43.74017000969663" lon="11.894639726590224"><ele>546.0</ele><time>2026-05-02T09:25:21Z</time></trkpt><trkpt lat="43.740083361115495" lon="11.894583550590754"><ele>546.0</ele><time>2026-05-02T09:25:22Z</time></trkpt><trkpt lat="43.73999742303816" lon="11.894527245223967"><ele>546.0</ele><time>2026-05-02T09:25:23Z</time></trkpt><trkpt lat="43.73990484168873" lon="11.894463056160896"><ele>547.2</ele><time>2026-05-02T09:25:24Z</time></trkpt><trkpt lat="43.739819937022" lon="11.894397466850505"><ele>548.4000000000001</ele><time>2026-05-02T09:25:25Z</time></trkpt><trkpt lat="43.739737529775425" lon="11.894308640896485"><ele>549.6</ele><time>2026-05-02T09:25:26Z</time></trkpt><trkpt lat="43.73964332442573" lon="11.894222709555748"><ele>550.8000000000001</ele><time>2026-05-02T09:25:27Z</time></trkpt><trkpt lat="43.7395557090723" lon="11.894143357458903"><ele>552.0</ele><time>2026-05-02T09:25:28Z</time></trkpt><trkpt lat="43.739472614612865" lon="11.894070200351571"><ele>546.0</ele><time>2026-05-02T09:25:29Z</time></trkpt><trkpt lat="43.73938157021699" lon="11.894021277231127"><ele>540.0</ele><time>2026-05-02T09:25:30Z</time></trkpt><trkpt lat="43.73930101616478" lon="11.893953630570659"><ele>534.0</ele><time>2026-05-02T09:25:31Z</time></trkpt><trkpt lat="43.73920730599987" lon="11.893899313586903"><ele>528.0</ele><time>2026-05-02T09:25:32Z</time></trkpt><trkpt lat="43.73915182328009" lon="11.89378902682921"><ele>522.0</ele><time>2026-05-02T09:25:33Z</time></trkpt><trkpt lat="43.73909302549944" lon="11.893658441730704"><ele>522.0</ele><time>2026-05-02T09:25:34Z</time></trkpt><trkpt lat="43.739034136570474" lon="11.893519169319836"><ele>522.0</ele><time>2026-05-02T09:25:35Z</time></trkpt><trkpt lat="43.73897927416947" lon="11.893353712106125"><ele>522.0</ele><time>2026-05-02T09:25:36Z</time></trkpt><trkpt lat="43.738937193769736" lon="11.893186875373708"><ele>522.0</ele><time>2026-05-02T09:25:37Z</time></trkpt><trkpt lat="43.73888426751838" lon="11.893033013952506"><ele>527.75</ele><time>2026-05-02T09:25:38Z</time></trkpt><trkpt lat="43.73882191031366" lon="11.892904759822626"><ele>533.5</ele><time>2026-05-02T09:25:39Z</time></trkpt><trkpt lat="43.738758339784276" lon="11.892765063493686"><ele>539.25</ele><time>2026-05-02T09:25:40Z</time></trkpt><trkpt lat="43.73871716838937" lon="11.892622129756393"><ele>545.0</ele><time>2026-05-02T09:25:41Z</time></trkpt><trkpt lat="43.738685315283426" lon="11.892471412825193"><ele>550.5</ele><time>2026-05-02T09:25:42Z</time></trkpt><trkpt lat="43.738652760114185" lon="11.89230851450161"><ele>556.0</ele><time>2026-05-02T09:25:43Z</time></trkpt><trkpt lat="43.73863989545832" lon="11.892158242280932"><ele>561.5</ele><time>2026-05-02T09:25:44Z</time></trkpt><trkpt lat="43.73860862192054" lon="11.89200404844876"><ele>567.0</ele><time>2026-05-02T09:25:45Z</time></trkpt><trkpt lat="43.738571719359086" lon="11.891861522523358"><ele>560.5</ele><time>2026-05-02T09:25:46Z</time></trkpt><trkpt lat="43.73852782817605" lon="11.891738611071272"><ele>554.0</ele><time>2026-05-02T09:25:47Z</time></trkpt><trkpt lat="43.73845774654823" lon="11.891598031637821"><ele>547.5</ele><time>2026-05-02T09:25:48Z</time></trkpt><trkpt lat="43.7383735319423" lon="11.891501010788234"><ele>541.0</ele><time>2026-05-02T09:25:49Z</time></trkpt><trkpt lat="43.73827719276171" lon="11.891401253841273"><ele>541.0</ele><time>2026-05-02T09:25:50Z</time></trkpt><trkpt lat="43.73818328571721" lon="11.891313582545218"><ele>541.0</ele><time>2026-05-02T09:25:51Z</time></trkpt><trkpt lat="43.73809442382896" lon="11.891207278920579"><ele>541.0</ele><time>2026-05-02T09:25:52Z</time></trkpt><trkpt lat="43.7380024276714" lon="11.89109843484685"><ele>541.0</ele><time>2026-05-02T09:25:53Z</time></trkpt><trkpt lat="43.7379127215701" lon="11.890988854775122"><ele>539.8</ele><time>2026-05-02T09:25:54Z</time></trkpt><trkpt lat="43.73781221705763" lon="11.890896651358778"><ele>538.6</ele><time>2026-05-02T09:25:55Z</time></trkpt><trkpt lat="43.737709992294825" lon="11.890825970690793"><ele>537.4</ele><time>2026-05-02T09:25:56Z</time></trkpt><trkpt lat="43.737612523202706" lon="11.890769588600623"><ele>536.2</ele><time>2026-05-02T09:25:57Z</time></trkpt><trkpt lat="43.73750976104976" lon="11.890748551269892"><ele>535.0</ele><time>2026-05-02T09:25:58Z</time></trkpt><trkpt lat="43.73739765314003" lon="11.890747514320772"><ele>535.0</ele><time>2026-05-02T09:25:59Z</time></trkpt><trkpt lat="43.73728641617776" lon="11.890781082356282"><ele>535.0</ele><time>2026-05-02T09:26:00Z</time></trkpt><trkpt lat="43.737188619751784" lon="11.890803476585056"><ele>535.0</ele><time>2026-05-02T09:26:01Z</time></trkpt><trkpt lat="43.73709184405208" lon="11.890801126571573"><ele>535.0</ele><time>2026-05-02T09:26:02Z</time></trkpt><trkpt lat="43.73701802611532" lon="11.890765412612149"><ele>535.0</ele><time>2026-05-02T09:26:03Z</time></trkpt><trkpt lat="43.736947925051005" lon="11.890700183537367"><ele>535.0</ele><time>2026-05-02T09:26:04Z</time></trkpt><trkpt lat="43.73688603774692" lon="11.89059733177363"><ele>535.0</ele><time>2026-05-02T09:26:05Z</time></trkpt><trkpt lat="43.7368208537135" lon="11.890481057420994"><ele>535.0</ele><time>2026-05-02T09:26:06Z</time></trkpt><trkpt lat="43.73674296723759" lon="11.890363476919081"><ele>535.0</ele><time>2026-05-02T09:26:07Z</time></trkpt><trkpt lat="43.73666691418715" lon="11.890249775377594"><ele>535.0</ele><time>2026-05-02T09:26:08Z</time></trkpt><trkpt lat="43.73660987574757" lon="11.89012593238468"><ele>534.6</ele><time>2026-05-02T09:26:09Z</time></trkpt><trkpt lat="43.73655780075894" lon="11.889999930831609"><ele>534.2</ele><time>2026-05-02T09:26:10Z</time></trkpt><trkpt lat="43.73653937076097" lon="11.88987353556219"><ele>533.8</ele><time>2026-05-02T09:26:11Z</time></trkpt><trkpt lat="43.73654482203692" lon="11.889739707889538"><ele>533.4</ele><time>2026-05-02T09:26:12Z</time></trkpt><trkpt lat="43.736577057589685" lon="11.889597443115807"><ele>533.0</ele><time>2026-05-02T09:26:13Z</time></trkpt><trkpt lat="43.736626690676935" lon="11.889430971232816"><ele>533.0</ele><time>2026-05-02T09:26:14Z</time></trkpt><trkpt lat="43.73666916187941" lon="11.889273996325922"><ele>533.0</ele><time>2026-05-02T09:26:15Z</time></trkpt><trkpt lat="43.736707106453736" lon="11.889123156089504"><ele>533.0</ele><time>2026-05-02T09:26:16Z</time></trkpt><trkpt lat="43.736739552989945" lon="11.888983189131507"><ele>533.0</ele><time>2026-05-02T09:26:17Z</time></trkpt><trkpt lat="43.73678103791764" lon="11.888863570163322"><ele>533.0</ele><time>2026-05-02T09:26:18Z</time></trkpt><trkpt lat="43.73684658412083" lon="11.888760318151654"><ele>535.1999999999999</ele><time>2026-05-02T09:26:19Z</time></trkpt><trkpt lat="43.73691651717124" lon="11.88867599099244"><ele>537.4</ele><time>2026-05-02T09:26:20Z</time></trkpt><trkpt lat="43.73699821294167" lon="11.888599333453168"><ele>539.5999999999999</ele><time>2026-05-02T09:26:21Z</time></trkpt><trkpt lat="43.737077014806836" lon="11.888518846023628"><ele>541.8</ele><time>2026-05-02T09:26:22Z</time></trkpt><trkpt lat="43.73715210983929" lon="11.888443376929823"><ele>544.0</ele><time>2026-05-02T09:26:23Z</time></trkpt><trkpt lat="43.737209976257816" lon="11.888365186270928"><ele>544.0</ele><time>2026-05-02T09:26:24Z</time></trkpt><trkpt lat="43.73724754876025" lon="11.888278529615942"><ele>544.0</ele><time>2026-05-02T09:26:25Z</time></trkpt><trkpt lat="43.73725458246312" lon="11.888187198215991"><ele>544.0</ele><time>2026-05-02T09:26:26Z</time></trkpt><trkpt lat="43.73723126311501" lon="11.888076304531578"><ele>544.0</ele><time>2026-05-02T09:26:27Z</time></trkpt><trkpt lat="43.73718824327201" lon="11.887976091282411"><ele>544.0</ele><time>2026-05-02T09:26:28Z</time></trkpt><trkpt lat="43.73712458258579" lon="11.88791231211027"><ele>544.0</ele><time>2026-05-02T09:26:29Z</time></trkpt><trkpt lat="43.73705144664731" lon="11.887881515490719"><ele>544.0</ele><time>2026-05-02T09:26:30Z</time></trkpt><trkpt lat="43.73694730800441" lon="11.88787167203466"><ele>544.0</ele><time>2026-05-02T09:26:32Z</time></trkpt><trkpt lat="43.736884573634455" lon="11.887883643458315"><ele>544.0</ele><time>2026-05-02T09:26:45Z</time></trkpt><trkpt lat="43.73682990667038" lon="11.887948528233167"><ele>544.0</ele><time>2026-05-02T09:26:50Z</time></trkpt><trkpt lat="43.736746972649726" lon="11.887925189238945"><ele>544.0</ele><time>2026-05-02T09:26:53Z</time></trkpt><trkpt lat="43.73667477838548" lon="11.887897234000782"><ele>544.0</ele><time>2026-05-02T09:26:55Z</time></trkpt><trkpt lat="43.73659723787967" lon="11.887888898172372"><ele>541.5</ele><time>2026-05-02T09:26:57Z</time></trkpt><trkpt lat="43.736534418286766" lon="11.887820465683276"><ele>539.0</ele><time>2026-05-02T09:26:59Z</time></trkpt><trkpt lat="43.73646020688304" lon="11.887806870261457"><ele>536.5</ele><time>2026-05-02T09:27:01Z</time></trkpt><trkpt lat="43.73638003758603" lon="11.887875369417799"><ele>534.0</ele><time>2026-05-02T09:27:04Z</time></trkpt><trkpt lat="43.73631867480409" lon="11.887922343749466"><ele>531.5</ele><time>2026-05-02T09:27:07Z</time></trkpt><trkpt lat="43.73626386492458" lon="11.887988971370646"><ele>529.0</ele><time>2026-05-02T09:27:10Z</time></trkpt><trkpt lat="43.736190357985095" lon="11.888062719818771"><ele>529.0</ele><time>2026-05-02T09:27:13Z</time></trkpt><trkpt lat="43.73614587921476" lon="11.888169136724493"><ele>529.0</ele><time>2026-05-02T09:27:15Z</time></trkpt><trkpt lat="43.73614254163844" lon="11.888291006219593"><ele>529.0</ele><time>2026-05-02T09:27:18Z</time></trkpt><trkpt lat="43.73611247520287" lon="11.888379960528658"><ele>529.0</ele><time>2026-05-02T09:27:21Z</time></trkpt><trkpt lat="43.73608615702899" lon="11.888476093867725"><ele>529.0</ele><time>2026-05-02T09:27:24Z</time></trkpt><trkpt lat="43.73605103300989" lon="11.888604068588435"><ele>529.0</ele><time>2026-05-02T09:27:26Z</time></trkpt><trkpt lat="43.735983374310194" lon="11.888654082774481"><ele>525.5</ele><time>2026-05-02T09:27:28Z</time></trkpt><trkpt lat="43.73591381998241" lon="11.888686676739606"><ele>522.0</ele><time>2026-05-02T09:27:30Z</time></trkpt><trkpt lat="43.7358500006563" lon="11.888738022993511"><ele>518.5</ele><time>2026-05-02T09:27:32Z</time></trkpt><trkpt lat="43.735797628638835" lon="11.888803816329878"><ele>515.0</ele><time>2026-05-02T09:27:34Z</time></trkpt><trkpt lat="43.73574425221178" lon="11.888886769403115"><ele>511.50000000000006</ele><time>2026-05-02T09:27:36Z</time></trkpt><trkpt lat="43.73567518751252" lon="11.888964861688535"><ele>508.0</ele><time>2026-05-02T09:27:38Z</time></trkpt><trkpt lat="43.735625286327696" lon="11.889035296641044"><ele>508.00000000000006</ele><time>2026-05-02T09:27:40Z</time></trkpt><trkpt lat="43.735563389799566" lon="11.889113693852474"><ele>508.0</ele><time>2026-05-02T09:27:42Z</time></trkpt><trkpt lat="43.73550327677719" lon="11.889156493253935"><ele>508.0</ele><time>2026-05-02T09:27:44Z</time></trkpt><trkpt lat="43.73548554174369" lon="11.889247496469517"><ele>508.0</ele><time>2026-05-02T09:27:46Z</time></trkpt><trkpt lat="43.73543848614945" lon="11.889332342239765"><ele>508.00000000000006</ele><time>2026-05-02T09:27:48Z</time></trkpt><trkpt lat="43.735390644072346" lon="11.889432882337163"><ele>508.0</ele><time>2026-05-02T09:27:50Z</time></trkpt><trkpt lat="43.735352184473776" lon="11.88956796012282"><ele>507.00000000000006</ele><time>2026-05-02T09:27:52Z</time></trkpt><trkpt lat="43.73532146236358" lon="11.889649514334941"><ele>506.0</ele><time>2026-05-02T09:27:54Z</time></trkpt><trkpt lat="43.7352809582113" lon="11.889755739811369"><ele>505.0</ele><time>2026-05-02T09:27:56Z</time></trkpt><trkpt lat="43.73526946154404" lon="11.889871369806382"><ele>504.0</ele><time>2026-05-02T09:27:58Z</time></trkpt><trkpt lat="43.73521586134555" lon="11.889997722605184"><ele>503.00000000000006</ele><time>2026-05-02T09:28:00Z</time></trkpt><trkpt lat="43.73514439335063" lon="11.890082147243191"><ele>502.0</ele><time>2026-05-02T09:28:02Z</time></trkpt><trkpt lat="43.735109889319325" lon="11.890171947893807"><ele>499.50000000000006</ele><time>2026-05-02T09:28:04Z</time></trkpt><trkpt lat="43.735079460782345" lon="11.890254692287408"><ele>497.0</ele><time>2026-05-02T09:28:06Z</time></trkpt><trkpt lat="43.7350642610011" lon="11.89039806394752"><ele>494.5</ele><time>2026-05-02T09:28:08Z</time></trkpt><trkpt lat="43.73505249440964" lon="11.890519510292624"><ele>492.0</ele><time>2026-05-02T09:28:10Z</time></trkpt><trkpt lat="43.735019202132506" lon="11.890642273330602"><ele>489.50000000000006</ele><time>2026-05-02T09:28:12Z</time></trkpt><trkpt lat="43.734979810044365" lon="11.890719897497346"><ele>487.0</ele><time>2026-05-02T09:28:14Z</time></trkpt><trkpt lat="43.734938628957536" lon="11.890786379753898"><ele>487.00000000000006</ele><time>2026-05-02T09:28:16Z</time></trkpt><trkpt lat="43.73490077220711" lon="11.890873073308455"><ele>487.0</ele><time>2026-05-02T09:28:18Z</time></trkpt><trkpt lat="43.734816356805645" lon="11.890875876717212"><ele>487.0</ele><time>2026-05-02T09:28:21Z</time></trkpt><trkpt lat="43.73473262419692" lon="11.890803792890486"><ele>487.0</ele><time>2026-05-02T09:28:24Z</time></trkpt><trkpt lat="43.7346706593837" lon="11.890720157040473"><ele>487.00000000000006</ele><time>2026-05-02T09:28:26Z</time></trkpt><trkpt lat="43.734609820809695" lon="11.890608106559158"><ele>487.0</ele><time>2026-05-02T09:28:28Z</time></trkpt><trkpt lat="43.73453358832094" lon="11.890563310099143"><ele>487.00000000000006</ele><time>2026-05-02T09:28:30Z</time></trkpt><trkpt lat="43.73446441653303" lon="11.890545747124438"><ele>487.0</ele><time>2026-05-02T09:28:32Z</time></trkpt><trkpt lat="43.73439870255383" lon="11.890506777928774"><ele>487.0</ele><time>2026-05-02T09:28:33Z</time></trkpt><trkpt lat="43.73430521574563" lon="11.890474463018712"><ele>487.0</ele><time>2026-05-02T09:28:35Z</time></trkpt><trkpt lat="43.73422754205345" lon="11.89046195361673"><ele>487.00000000000006</ele><time>2026-05-02T09:28:38Z</time></trkpt><trkpt lat="43.73413351962331" lon="11.890504585360494"><ele>487.0</ele><time>2026-05-02T09:28:40Z</time></trkpt><trkpt lat="43.73404141544597" lon="11.890580016807736"><ele>486.00000000000006</ele><time>2026-05-02T09:28:42Z</time></trkpt><trkpt lat="43.733988524020326" lon="11.890635020571295"><ele>485.0</ele><time>2026-05-02T09:28:44Z</time></trkpt><trkpt lat="43.7339241764702" lon="11.89067941782326"><ele>484.0</ele><time>2026-05-02T09:28:46Z</time></trkpt><trkpt lat="43.73383977143038" lon="11.890743819112922"><ele>483.0</ele><time>2026-05-02T09:28:48Z</time></trkpt><trkpt lat="43.73377580683319" lon="11.890718049017671"><ele>482.00000000000006</ele><time>2026-05-02T09:28:56Z</time></trkpt><trkpt lat="43.73372907988766" lon="11.890646069841885"><ele>481.0</ele><time>2026-05-02T09:29:18Z</time></trkpt><trkpt lat="43.73366184798365" lon="11.89058203897874"><ele>480.99999999999994</ele><time>2026-05-02T09:29:21Z</time></trkpt><trkpt lat="43.73360121288386" lon="11.890554303673882"><ele>481.0</ele><time>2026-05-02T09:29:23Z</time></trkpt><trkpt lat="43.73355225114959" lon="11.89049509242376"><ele>480.99999999999994</ele><time>2026-05-02T09:29:25Z</time></trkpt><trkpt lat="43.73352072111203" lon="11.890412816045144"><ele>480.99999999999994</ele><time>2026-05-02T09:29:29Z</time></trkpt><trkpt lat="43.73347514331298" lon="11.890316168584807"><ele>481.0</ele><time>2026-05-02T09:29:32Z</time></trkpt><trkpt lat="43.73346421924659" lon="11.890226663480947"><ele>480.99999999999994</ele><time>2026-05-02T09:30:17Z</time></trkpt><trkpt lat="43.73339577604639" lon="11.89018261690564"><ele>480.99999999999994</ele><time>2026-05-02T09:30:40Z</time></trkpt><trkpt lat="43.73337357115445" lon="11.890100322752364"><ele>480.42857142857133</ele><time>2026-05-02T09:32:42Z</time></trkpt><trkpt lat="43.73332605357543" lon="11.890030699728932"><ele>479.85714285714283</ele><time>2026-05-02T09:32:46Z</time></trkpt><trkpt lat="43.73326419988143" lon="11.890003582114616"><ele>479.2857142857142</ele><time>2026-05-02T09:33:27Z</time></trkpt><trkpt lat="43.73319557797832" lon="11.889971027573011"><ele>478.71428571428567</ele><time>2026-05-02T09:33:30Z</time></trkpt><trkpt lat="43.733145163908226" lon="11.889897207841315"><ele>478.1428571428571</ele><time>2026-05-02T09:33:33Z</time></trkpt><trkpt lat="43.73310654283534" lon="11.889813000706166"><ele>477.57142857142856</ele><time>2026-05-02T09:33:36Z</time></trkpt><trkpt lat="43.7330588120671" lon="11.889752050218238"><ele>477.0</ele><time>2026-05-02T09:33:40Z</time></trkpt><trkpt lat="43.73300022168984" lon="11.889706483267531"><ele>477.0</ele><time>2026-05-02T09:33:49Z</time></trkpt><trkpt lat="43.732935714023355" lon="11.889735374567216"><ele>476.99999999999994</ele><time>2026-05-02T09:33:58Z</time></trkpt><trkpt lat="43.73286876411624" lon="11.889750157225054"><ele>477.0</ele><time>2026-05-02T09:34:02Z</time></trkpt><trkpt lat="43.73280772395634" lon="11.889677966163276"><ele>477.0</ele><time>2026-05-02T09:34:06Z</time></trkpt><trkpt lat="43.732735995636915" lon="11.889639300678041"><ele>476.99999999999994</ele><time>2026-05-02T09:34:10Z</time></trkpt><trkpt lat="43.73268387654201" lon="11.889584828838471"><ele>477.0</ele><time>2026-05-02T09:34:15Z</time></trkpt><trkpt lat="43.73262602813575" lon="11.88953927644218"><ele>477.0</ele><time>2026-05-02T09:34:25Z</time></trkpt><trkpt lat="43.73256276654113" lon="11.889517826513895"><ele>477.0</ele><time>2026-05-02T09:34:36Z</time></trkpt><trkpt lat="43.73263579576957" lon="11.889527369891859"><ele>476.99999999999994</ele><time>2026-05-02T09:37:40Z</time></trkpt><trkpt lat="43.73268759698446" lon="11.889584226042986"><ele>477.0</ele><time>2026-05-02T09:37:48Z</time></trkpt><trkpt lat="43.73276163621488" lon="11.889647236433131"><ele>477.0</ele><time>2026-05-02T09:37:51Z</time></trkpt><trkpt lat="43.73282214668071" lon="11.889674285845487"><ele>476.99999999999994</ele><time>2026-05-02T09:37:54Z</time></trkpt><trkpt lat="43.73276221890725" lon="11.889625734402955"><ele>477.0</ele><time>2026-05-02T09:39:41Z</time></trkpt><trkpt lat="43.73269876475029" lon="11.889593905267274"><ele>477.0</ele><time>2026-05-02T09:39:55Z</time></trkpt><trkpt lat="43.7326404847924" lon="11.889550869973556"><ele>475.5</ele><time>2026-05-02T09:40:07Z</time></trkpt><trkpt lat="43.73258173036549" lon="11.88950740361388"><ele>474.0</ele><time>2026-05-02T09:40:35Z</time></trkpt><trkpt lat="43.73251380885518" lon="11.88952721369524"><ele>472.5</ele><time>2026-05-02T09:40:47Z</time></trkpt><trkpt lat="43.73242353941853" lon="11.889536662870826"><ele>471.0</ele><time>2026-05-02T09:41:16Z</time></trkpt><trkpt lat="43.73251681730695" lon="11.889536177730129"><ele>469.5</ele><time>2026-05-02T09:50:19Z</time></trkpt><trkpt lat="43.732640853993225" lon="11.889533870039585"><ele>468.0</ele><time>2026-05-02T09:50:55Z</time></trkpt><trkpt lat="43.73269431273049" lon="11.889584463749191"><ele>469.5</ele><time>2026-05-02T09:51:12Z</time></trkpt><trkpt lat="43.73275811990143" lon="11.889625573391688"><ele>471.0</ele><time>2026-05-02T09:51:18Z</time></trkpt><trkpt lat="43.73281840907939" lon="11.88966120103381"><ele>472.5</ele><time>2026-05-02T09:52:14Z</time></trkpt><trkpt lat="43.73281634716069" lon="11.889759558506523"><ele>474.0</ele><time>2026-05-02T09:52:34Z</time></trkpt><trkpt lat="43.732885311523866" lon="11.88979581456631"><ele>475.5</ele><time>2026-05-02T09:52:37Z</time></trkpt><trkpt lat="43.7329646372017" lon="11.889776191842312"><ele>477.0</ele><time>2026-05-02T09:52:40Z</time></trkpt><trkpt lat="43.7330916304726" lon="11.889751978319302"><ele>477.0</ele><time>2026-05-02T09:52:48Z</time></trkpt><trkpt lat="43.73320295261315" lon="11.889966731798335"><ele>477.00000000000006</ele><time>2026-05-02T09:52:54Z</time></trkpt><trkpt lat="43.73325868453821" lon="11.890008831021586"><ele>477.00000000000006</ele><time>2026-05-02T09:52:57Z</time></trkpt><trkpt lat="43.73331711258185" lon="11.89005230238815"><ele>477.0</ele><time>2026-05-02T09:52:59Z</time></trkpt><trkpt lat="43.733369645714774" lon="11.890147656569331"><ele>477.0</ele><time>2026-05-02T09:53:03Z</time></trkpt><trkpt lat="43.73341549948903" lon="11.890208595481441"><ele>477.6666666666667</ele><time>2026-05-02T09:53:34Z</time></trkpt><trkpt lat="43.733468814798755" lon="11.890288648743356"><ele>478.33333333333337</ele><time>2026-05-02T09:53:38Z</time></trkpt><trkpt lat="43.73350964550809" lon="11.890402253192596"><ele>479.0</ele><time>2026-05-02T09:53:41Z</time></trkpt><trkpt lat="43.73354838923676" lon="11.890485750686995"><ele>479.6666666666667</ele><time>2026-05-02T09:53:44Z</time></trkpt><trkpt lat="43.733627131525814" lon="11.890551086267655"><ele>480.33333333333337</ele><time>2026-05-02T09:53:47Z</time></trkpt><trkpt lat="43.73369236578486" lon="11.890577188484414"><ele>481.0</ele><time>2026-05-02T09:53:49Z</time></trkpt><trkpt lat="43.73376908264228" lon="11.89062372074474"><ele>481.0</ele><time>2026-05-02T09:53:52Z</time></trkpt><trkpt lat="43.73382568853899" lon="11.890697590919922"><ele>481.0</ele><time>2026-05-02T09:53:55Z</time></trkpt><trkpt lat="43.73391939577114" lon="11.89074541339709"><ele>481.0</ele><time>2026-05-02T09:54:46Z</time></trkpt><trkpt lat="43.73398528680764" lon="11.890643106095542"><ele>481.0</ele><time>2026-05-02T09:54:48Z</time></trkpt><trkpt lat="43.73404812685349" lon="11.890546718360401"><ele>481.0</ele><time>2026-05-02T09:54:50Z</time></trkpt><trkpt lat="43.73411258765101" lon="11.890471056520111"><ele>481.00000000000006</ele><time>2026-05-02T09:54:52Z</time></trkpt><trkpt lat="43.73417528193986" lon="11.890439553686905"><ele>481.0</ele><time>2026-05-02T09:54:54Z</time></trkpt><trkpt lat="43.734240752645654" lon="11.890431889907891"><ele>481.0</ele><time>2026-05-02T09:54:56Z</time></trkpt><trkpt lat="43.73432947142526" lon="11.890493282320788"><ele>481.0</ele><time>2026-05-02T09:54:58Z</time></trkpt><trkpt lat="43.73441637804244" lon="11.890526134475316"><ele>481.00000000000006</ele><time>2026-05-02T09:55:00Z</time></trkpt><trkpt lat="43.734512721454834" lon="11.890574053304084"><ele>481.0</ele><time>2026-05-02T09:55:02Z</time></trkpt><trkpt lat="43.73459289569994" lon="11.890659413134932"><ele>480.83333333333337</ele><time>2026-05-02T09:55:04Z</time></trkpt><trkpt lat="43.73465371417564" lon="11.890725031635142"><ele>480.6666666666667</ele><time>2026-05-02T09:55:06Z</time></trkpt><trkpt lat="43.73469615719395" lon="11.890793435225204"><ele>480.5</ele><time>2026-05-02T09:55:08Z</time></trkpt><trkpt lat="43.7347550632125" lon="11.890873961987602"><ele>480.33333333333337</ele><time>2026-05-02T09:55:10Z</time></trkpt><trkpt lat="43.73483344633266" lon="11.890929989021654"><ele>480.1666666666667</ele><time>2026-05-02T09:55:12Z</time></trkpt><trkpt lat="43.734898017498296" lon="11.890941323168182"><ele>480.0</ele><time>2026-05-02T09:55:14Z</time></trkpt><trkpt lat="43.73494038198434" lon="11.890830553398658"><ele>481.4</ele><time>2026-05-02T09:55:16Z</time></trkpt><trkpt lat="43.73499331095669" lon="11.890713925284048"><ele>482.8</ele><time>2026-05-02T09:55:18Z</time></trkpt><trkpt lat="43.73504297044663" lon="11.890602532037002"><ele>484.20000000000005</ele><time>2026-05-02T09:55:20Z</time></trkpt><trkpt lat="43.735077945407575" lon="11.89049907233882"><ele>485.6</ele><time>2026-05-02T09:55:22Z</time></trkpt><trkpt lat="43.735082203558164" lon="11.8903420278339"><ele>487.0</ele><time>2026-05-02T09:55:24Z</time></trkpt><trkpt lat="43.73509625919813" lon="11.890216093083964"><ele>487.0</ele><time>2026-05-02T09:55:26Z</time></trkpt><trkpt lat="43.73513637074186" lon="11.890131132627486"><ele>487.00000000000006</ele><time>2026-05-02T09:55:28Z</time></trkpt><trkpt lat="43.73519995056936" lon="11.890026003593482"><ele>487.00000000000006</ele><time>2026-05-02T09:55:30Z</time></trkpt><trkpt lat="43.735274913350075" lon="11.889945335680782"><ele>487.0</ele><time>2026-05-02T09:55:32Z</time></trkpt><trkpt lat="43.735297466478684" lon="11.889810941676457"><ele>487.0</ele><time>2026-05-02T09:55:34Z</time></trkpt><trkpt lat="43.73531670475901" lon="11.88967519253103"><ele>490.0</ele><time>2026-05-02T09:55:36Z</time></trkpt><trkpt lat="43.735362807917426" lon="11.889590454241239"><ele>493.00000000000006</ele><time>2026-05-02T09:55:38Z</time></trkpt><trkpt lat="43.73540673152926" lon="11.88947020127273"><ele>496.00000000000006</ele><time>2026-05-02T09:55:40Z</time></trkpt><trkpt lat="43.73542401165808" lon="11.889337105070645"><ele>499.0</ele><time>2026-05-02T09:55:42Z</time></trkpt><trkpt lat="43.73550702074393" lon="11.88922054327971"><ele>502.0</ele><time>2026-05-02T09:55:45Z</time></trkpt><trkpt lat="43.73553967830654" lon="11.889111382424971"><ele>503.00000000000006</ele><time>2026-05-02T09:55:47Z</time></trkpt><trkpt lat="43.73560403730342" lon="11.889053517884552"><ele>504.0</ele><time>2026-05-02T09:55:49Z</time></trkpt><trkpt lat="43.73568840562524" lon="11.888968789022165"><ele>505.0</ele><time>2026-05-02T09:55:51Z</time></trkpt><trkpt lat="43.73576391946361" lon="11.888898354485676"><ele>506.0</ele><time>2026-05-02T09:55:53Z</time></trkpt><trkpt lat="43.73583435358806" lon="11.888801806895257"><ele>507.00000000000006</ele><time>2026-05-02T09:55:55Z</time></trkpt><trkpt lat="43.73587277395955" lon="11.888727550781104"><ele>508.0</ele><time>2026-05-02T09:55:57Z</time></trkpt><trkpt lat="43.73597724187963" lon="11.888702630142742"><ele>512.1999999999999</ele><time>2026-05-02T09:56:00Z</time></trkpt><trkpt lat="43.73606596059163" lon="11.888632669238419"><ele>516.4</ele><time>2026-05-02T09:56:02Z</time></trkpt><trkpt lat="43.736108400160546" lon="11.88853412300131"><ele>520.5999999999999</ele><time>2026-05-02T09:56:04Z</time></trkpt><trkpt lat="43.736134570696095" lon="11.888412439865098"><ele>524.8</ele><time>2026-05-02T09:56:07Z</time></trkpt><trkpt lat="43.73614969000428" lon="11.888274091287311"><ele>529.0</ele><time>2026-05-02T09:56:09Z</time></trkpt><trkpt lat="43.73615326165904" lon="11.888135298337698"><ele>529.0</ele><time>2026-05-02T09:56:11Z</time></trkpt><trkpt lat="43.73621733854586" lon="11.888041841174372"><ele>529.0</ele><time>2026-05-02T09:56:13Z</time></trkpt><trkpt lat="43.73627914962519" lon="11.887981457906603"><ele>529.0</ele><time>2026-05-02T09:56:15Z</time></trkpt><trkpt lat="43.736323951080074" lon="11.887916247099906"><ele>529.0</ele><time>2026-05-02T09:56:17Z</time></trkpt><trkpt lat="43.73640188692577" lon="11.887858398956082"><ele>529.0</ele><time>2026-05-02T09:56:19Z</time></trkpt><trkpt lat="43.736474427658706" lon="11.88781373054514"><ele>529.0</ele><time>2026-05-02T09:56:21Z</time></trkpt><trkpt lat="43.73654011172252" lon="11.887827235599985"><ele>529.0</ele><time>2026-05-02T09:56:23Z</time></trkpt><trkpt lat="43.73662448163013" lon="11.887900983953442"><ele>529.0</ele><time>2026-05-02T09:56:25Z</time></trkpt><trkpt lat="43.73672362644945" lon="11.887959268795425"><ele>529.0</ele><time>2026-05-02T09:56:27Z</time></trkpt><trkpt lat="43.73680918536552" lon="11.887987717456507"><ele>529.0</ele><time>2026-05-02T09:56:29Z</time></trkpt><trkpt lat="43.73688890213665" lon="11.88798156648209"><ele>529.0</ele><time>2026-05-02T09:56:31Z</time></trkpt><trkpt lat="43.73689010481625" lon="11.887893014611235"><ele>529.0</ele><time>2026-05-02T09:56:35Z</time></trkpt><trkpt lat="43.73680457472616" lon="11.887842581587659"><ele>529.0</ele><time>2026-05-02T09:56:37Z</time></trkpt><trkpt lat="43.736689076641525" lon="11.887755170919625"><ele>529.0</ele><time>2026-05-02T09:56:39Z</time></trkpt><trkpt lat="43.73664427287211" lon="11.887687933922646"><ele>529.0</ele><time>2026-05-02T09:56:40Z</time></trkpt><trkpt lat="43.736550468858745" lon="11.887572256090536"><ele>529.0</ele><time>2026-05-02T09:56:42Z</time></trkpt><trkpt lat="43.73647887411638" lon="11.887547597140365"><ele>529.0</ele><time>2026-05-02T09:56:43Z</time></trkpt><trkpt lat="43.736394947632355" lon="11.887556626102487"><ele>529.0</ele><time>2026-05-02T09:56:44Z</time></trkpt><trkpt lat="43.73631900177007" lon="11.88758857662345"><ele>529.0</ele><time>2026-05-02T09:56:45Z</time></trkpt><trkpt lat="43.73624285457591" lon="11.887637243540421"><ele>529.0</ele><time>2026-05-02T09:56:46Z</time></trkpt><trkpt lat="43.736167498861725" lon="11.88770025939636"><ele>529.0</ele><time>2026-05-02T09:56:47Z</time></trkpt><trkpt lat="43.736099691946336" lon="11.887765929164873"><ele>529.0</ele><time>2026-05-02T09:56:48Z</time></trkpt><trkpt lat="43.73603346783562" lon="11.88783227731986"><ele>529.0</ele><time>2026-05-02T09:56:49Z</time></trkpt><trkpt lat="43.73596518281602" lon="11.887907253107764"><ele>528.8333333333334</ele><time>2026-05-02T09:56:50Z</time></trkpt><trkpt lat="43.73588899268469" lon="11.887955956885522"><ele>528.6666666666667</ele><time>2026-05-02T09:56:51Z</time></trkpt><trkpt lat="43.73580555591056" lon="11.88799458957574"><ele>528.5</ele><time>2026-05-02T09:56:52Z</time></trkpt><trkpt lat="43.73572066079094" lon="11.888015256901117"><ele>528.3333333333334</ele><time>2026-05-02T09:56:53Z</time></trkpt><trkpt lat="43.735626172541025" lon="11.888034899218468"><ele>528.1666666666666</ele><time>2026-05-02T09:56:54Z</time></trkpt><trkpt lat="43.73554210812603" lon="11.88804465754783"><ele>528.0</ele><time>2026-05-02T09:56:55Z</time></trkpt><trkpt lat="43.73545822882133" lon="11.888049961209276"><ele>528.0</ele><time>2026-05-02T09:56:56Z</time></trkpt><trkpt lat="43.7353836588224" lon="11.888084444991229"><ele>528.0</ele><time>2026-05-02T09:56:57Z</time></trkpt><trkpt lat="43.73530626336414" lon="11.888148076354149"><ele>528.0</ele><time>2026-05-02T09:56:58Z</time></trkpt><trkpt lat="43.73524110605508" lon="11.8882320934096"><ele>528.0</ele><time>2026-05-02T09:56:59Z</time></trkpt><trkpt lat="43.73517899488825" lon="11.888330788617498"><ele>528.0</ele><time>2026-05-02T09:57:00Z</time></trkpt><trkpt lat="43.735112634385075" lon="11.888438518606911"><ele>527.4</ele><time>2026-05-02T09:57:01Z</time></trkpt><trkpt lat="43.73504024957543" lon="11.888547712024579"><ele>526.8</ele><time>2026-05-02T09:57:02Z</time></trkpt><trkpt lat="43.73496927756542" lon="11.888661672375298"><ele>526.2</ele><time>2026-05-02T09:57:03Z</time></trkpt><trkpt lat="43.734906654476355" lon="11.888778524326055"><ele>525.6</ele><time>2026-05-02T09:57:04Z</time></trkpt><trkpt lat="43.73484538443719" lon="11.888891609204222"><ele>525.0</ele><time>2026-05-02T09:57:05Z</time></trkpt><trkpt lat="43.73478968957521" lon="11.888999581808491"><ele>525.0</ele><time>2026-05-02T09:57:06Z</time></trkpt><trkpt lat="43.73471987043293" lon="11.889089185839982"><ele>525.0</ele><time>2026-05-02T09:57:07Z</time></trkpt><trkpt lat="43.73466350454333" lon="11.889186226006817"><ele>525.0</ele><time>2026-05-02T09:57:08Z</time></trkpt><trkpt lat="43.734614560177356" lon="11.889261839338527"><ele>525.0</ele><time>2026-05-02T09:57:09Z</time></trkpt><trkpt lat="43.73456121084828" lon="11.889309247194916"><ele>525.0</ele><time>2026-05-02T09:57:10Z</time></trkpt><trkpt lat="43.73442243976643" lon="11.889310780651686"><ele>526.1666666666666</ele><time>2026-05-02T09:57:12Z</time></trkpt><trkpt lat="43.734341794496004" lon="11.88926822296837"><ele>527.3333333333334</ele><time>2026-05-02T09:57:13Z</time></trkpt><trkpt lat="43.73425728339545" lon="11.88922945004497"><ele>528.5</ele><time>2026-05-02T09:57:14Z</time></trkpt><trkpt lat="43.734186468735906" lon="11.889191165169684"><ele>529.6666666666667</ele><time>2026-05-02T09:57:15Z</time></trkpt><trkpt lat="43.73412766131928" lon="11.88913431399314"><ele>530.8333333333334</ele><time>2026-05-02T09:57:16Z</time></trkpt><trkpt lat="43.734074247038315" lon="11.889050404365017"><ele>532.0</ele><time>2026-05-02T09:57:17Z</time></trkpt><trkpt lat="43.7340179054319" lon="11.88894928080113"><ele>532.0</ele><time>2026-05-02T09:57:18Z</time></trkpt><trkpt lat="43.73396082274789" lon="11.888850455043313"><ele>532.0</ele><time>2026-05-02T09:57:19Z</time></trkpt><trkpt lat="43.73388859311929" lon="11.888767190093624"><ele>532.0</ele><time>2026-05-02T09:57:20Z</time></trkpt><trkpt lat="43.733811528592945" lon="11.888692559780061"><ele>532.0</ele><time>2026-05-02T09:57:21Z</time></trkpt><trkpt lat="43.733736514273815" lon="11.888602843250098"><ele>532.0</ele><time>2026-05-02T09:57:22Z</time></trkpt><trkpt lat="43.73366828984884" lon="11.88851046483605"><ele>531.4</ele><time>2026-05-02T09:57:23Z</time></trkpt><trkpt lat="43.73360012810982" lon="11.888413669794089"><ele>530.8000000000001</ele><time>2026-05-02T09:57:24Z</time></trkpt><trkpt lat="43.733537865550744" lon="11.88831753777915"><ele>530.2</ele><time>2026-05-02T09:57:25Z</time></trkpt><trkpt lat="43.733476303051106" lon="11.888216272389188"><ele>529.6</ele><time>2026-05-02T09:57:26Z</time></trkpt><trkpt lat="43.73342308564452" lon="11.888110207242038"><ele>529.0</ele><time>2026-05-02T09:57:27Z</time></trkpt><trkpt lat="43.73337330252201" lon="11.88799685273669"><ele>529.0</ele><time>2026-05-02T09:57:28Z</time></trkpt><trkpt lat="43.73331418673177" lon="11.88790144885161"><ele>529.0</ele><time>2026-05-02T09:57:29Z</time></trkpt><trkpt lat="43.73324530903758" lon="11.887817802751302"><ele>529.0</ele><time>2026-05-02T09:57:30Z</time></trkpt><trkpt lat="43.73317292086234" lon="11.887726849036461"><ele>529.0</ele><time>2026-05-02T09:57:31Z</time></trkpt><trkpt lat="43.7330685187876" lon="11.887716583839387"><ele>529.0</ele><time>2026-05-02T09:57:32Z</time></trkpt><trkpt lat="43.73297152879952" lon="11.88769803599985"><ele>529.0</ele><time>2026-05-02T09:57:33Z</time></trkpt><trkpt lat="43.732873252403245" lon="11.887678856755818"><ele>529.0</ele><time>2026-05-02T09:57:34Z</time></trkpt><trkpt lat="43.73277759824079" lon="11.887646725027892"><ele>529.0</ele><time>2026-05-02T09:57:35Z</time></trkpt><trkpt lat="43.7326844878262" lon="11.887597862934522"><ele>529.0</ele><time>2026-05-02T09:57:36Z</time></trkpt><trkpt lat="43.73258617411559" lon="11.88754283785855"><ele>529.0</ele><time>2026-05-02T09:57:37Z</time></trkpt><trkpt lat="43.732490145883595" lon="11.887496831035369"><ele>531.2</ele><time>2026-05-02T09:57:38Z</time></trkpt><trkpt lat="43.73239000799986" lon="11.887463213066818"><ele>533.4</ele><time>2026-05-02T09:57:39Z</time></trkpt><trkpt lat="43.73229264794784" lon="11.887439961650012"><ele>535.6</ele><time>2026-05-02T09:57:40Z</time></trkpt><trkpt lat="43.73220143545253" lon="11.887410295710266"><ele>537.8</ele><time>2026-05-02T09:57:41Z</time></trkpt><trkpt lat="43.73212288450324" lon="11.887360948934571"><ele>540.0</ele><time>2026-05-02T09:57:42Z</time></trkpt><trkpt lat="43.732060059651346" lon="11.887285897886207"><ele>540.0</ele><time>2026-05-02T09:57:43Z</time></trkpt><trkpt lat="43.732003232309786" lon="11.887190244736193"><ele>540.0</ele><time>2026-05-02T09:57:44Z</time></trkpt><trkpt lat="43.73194549765246" lon="11.887081783346868"><ele>540.0</ele><time>2026-05-02T09:57:45Z</time></trkpt><trkpt lat="43.73188543322168" lon="11.886980222014467"><ele>540.0</ele><time>2026-05-02T09:57:46Z</time></trkpt><trkpt lat="43.731828248256946" lon="11.886895188593309"><ele>540.0</ele><time>2026-05-02T09:57:47Z</time></trkpt><trkpt lat="43.73178230664137" lon="11.886802911145471"><ele>540.0</ele><time>2026-05-02T09:57:48Z</time></trkpt><trkpt lat="43.73174828428467" lon="11.886695598820674"><ele>537.4</ele><time>2026-05-02T09:57:49Z</time></trkpt><trkpt lat="43.73173126150934" lon="11.886573608514324"><ele>534.8</ele><time>2026-05-02T09:57:50Z</time></trkpt><trkpt lat="43.73171913905381" lon="11.886437205976831"><ele>532.2</ele><time>2026-05-02T09:57:51Z</time></trkpt><trkpt lat="43.73171511960879" lon="11.886301531710162"><ele>529.6</ele><time>2026-05-02T09:57:52Z</time></trkpt><trkpt lat="43.73170940827278" lon="11.886167678864428"><ele>527.0</ele><time>2026-05-02T09:57:53Z</time></trkpt><trkpt lat="43.73171411104465" lon="11.886042713375817"><ele>529.0</ele><time>2026-05-02T09:57:54Z</time></trkpt><trkpt lat="43.73172670335937" lon="11.8859227813781"><ele>531.0</ele><time>2026-05-02T09:57:55Z</time></trkpt><trkpt lat="43.73173732107214" lon="11.885808066960097"><ele>533.0</ele><time>2026-05-02T09:57:56Z</time></trkpt><trkpt lat="43.731750077731824" lon="11.885703331737824"><ele>535.0</ele><time>2026-05-02T09:57:57Z</time></trkpt><trkpt lat="43.73173796653086" lon="11.885607363244185"><ele>537.0</ele><time>2026-05-02T09:57:58Z</time></trkpt><trkpt lat="43.731692521870556" lon="11.885513437469527"><ele>539.0</ele><time>2026-05-02T09:57:59Z</time></trkpt><trkpt lat="43.73161992068886" lon="11.885439831668025"><ele>539.0</ele><time>2026-05-02T09:58:00Z</time></trkpt><trkpt lat="43.73156175121222" lon="11.88535124054441"><ele>539.0</ele><time>2026-05-02T09:58:01Z</time></trkpt><trkpt lat="43.731504725302706" lon="11.885280960557296"><ele>539.0</ele><time>2026-05-02T09:58:02Z</time></trkpt><trkpt lat="43.73129717270138" lon="11.88538248565699"><ele>539.0</ele><time>2026-05-02T09:58:04Z</time></trkpt><trkpt lat="43.731238275248764" lon="11.885445283326076"><ele>539.0</ele><time>2026-05-02T09:58:05Z</time></trkpt><trkpt lat="43.73118773766518" lon="11.885541131713314"><ele>539.0</ele><time>2026-05-02T09:58:06Z</time></trkpt><trkpt lat="43.73115192763966" lon="11.885654617732445"><ele>539.0</ele><time>2026-05-02T09:58:07Z</time></trkpt><trkpt lat="43.73112390479414" lon="11.885766600526255"><ele>539.0</ele><time>2026-05-02T09:58:08Z</time></trkpt><trkpt lat="43.73109055496267" lon="11.885876772844446"><ele>539.0</ele><time>2026-05-02T09:58:09Z</time></trkpt><trkpt lat="43.731046226009695" lon="11.886001660313704"><ele>539.0</ele><time>2026-05-02T09:58:10Z</time></trkpt><trkpt lat="43.73100352910777" lon="11.886117082060977"><ele>536.8</ele><time>2026-05-02T09:58:11Z</time></trkpt><trkpt lat="43.730951132877365" lon="11.886233108314215"><ele>534.5999999999999</ele><time>2026-05-02T09:58:12Z</time></trkpt><trkpt lat="43.73090017732953" lon="11.886342253064452"><ele>532.4</ele><time>2026-05-02T09:58:13Z</time></trkpt><trkpt lat="43.73084709874711" lon="11.886446828786667"><ele>530.1999999999999</ele><time>2026-05-02T09:58:14Z</time></trkpt><trkpt lat="43.73079723641186" lon="11.886549898531754"><ele>528.0</ele><time>2026-05-02T09:58:15Z</time></trkpt><trkpt lat="43.73075384022116" lon="11.886638596217471"><ele>528.0</ele><time>2026-05-02T09:58:16Z</time></trkpt><trkpt lat="43.7306605267348" lon="11.88673117647617"><ele>528.0</ele><time>2026-05-02T09:58:18Z</time></trkpt><trkpt lat="43.73053596567139" lon="11.886696642429277"><ele>528.0</ele><time>2026-05-02T09:58:20Z</time></trkpt><trkpt lat="43.730487623615794" lon="11.886605568934248"><ele>528.0</ele><time>2026-05-02T09:58:21Z</time></trkpt><trkpt lat="43.7304450860869" lon="11.886498049679007"><ele>528.0</ele><time>2026-05-02T09:58:22Z</time></trkpt><trkpt lat="43.730401033456914" lon="11.886390760464794"><ele>528.0</ele><time>2026-05-02T09:58:23Z</time></trkpt><trkpt lat="43.73033966445131" lon="11.886297125933"><ele>528.0</ele><time>2026-05-02T09:58:24Z</time></trkpt><trkpt lat="43.73026579037352" lon="11.886217672923097"><ele>528.0</ele><time>2026-05-02T09:58:25Z</time></trkpt><trkpt lat="43.73018749684724" lon="11.88616032910702"><ele>528.0</ele><time>2026-05-02T09:58:26Z</time></trkpt><trkpt lat="43.73011241111538" lon="11.886118191611326"><ele>528.0</ele><time>2026-05-02T09:58:27Z</time></trkpt><trkpt lat="43.73004378899845" lon="11.886072394613263"><ele>528.0</ele><time>2026-05-02T09:58:28Z</time></trkpt><trkpt lat="43.72998540390335" lon="11.886001320201913"><ele>529.0</ele><time>2026-05-02T09:58:29Z</time></trkpt><trkpt lat="43.72993831610732" lon="11.885905014512156"><ele>530.0</ele><time>2026-05-02T09:58:30Z</time></trkpt><trkpt lat="43.72989096695343" lon="11.885795796822984"><ele>531.0</ele><time>2026-05-02T09:58:31Z</time></trkpt><trkpt lat="43.729836966676956" lon="11.88568913012123"><ele>532.0</ele><time>2026-05-02T09:58:32Z</time></trkpt><trkpt lat="43.729778123818235" lon="11.885594093024453"><ele>533.0</ele><time>2026-05-02T09:58:33Z</time></trkpt><trkpt lat="43.72973299023028" lon="11.885502225460046"><ele>534.0</ele><time>2026-05-02T09:58:34Z</time></trkpt><trkpt lat="43.729713236573744" lon="11.885411786027083"><ele>534.0</ele><time>2026-05-02T09:58:35Z</time></trkpt><trkpt lat="43.729710572601086" lon="11.885319681289578"><ele>534.0</ele><time>2026-05-02T09:58:36Z</time></trkpt><trkpt lat="43.72974664837227" lon="11.88521547242349"><ele>534.0</ele><time>2026-05-02T09:58:37Z</time></trkpt><trkpt lat="43.72979938208488" lon="11.885123457852316"><ele>534.0</ele><time>2026-05-02T09:58:38Z</time></trkpt><trkpt lat="43.729861383782875" lon="11.885038830558406"><ele>534.0</ele><time>2026-05-02T09:58:39Z</time></trkpt><trkpt lat="43.72991312745447" lon="11.884943838112292"><ele>534.0</ele><time>2026-05-02T09:58:40Z</time></trkpt><trkpt lat="43.72994125988882" lon="11.884843596314662"><ele>533.8333333333334</ele><time>2026-05-02T09:58:41Z</time></trkpt><trkpt lat="43.72993741263762" lon="11.884741535424334"><ele>533.6666666666666</ele><time>2026-05-02T09:58:42Z</time></trkpt><trkpt lat="43.729902983815364" lon="11.884657180591642"><ele>533.5</ele><time>2026-05-02T09:58:43Z</time></trkpt><trkpt lat="43.729843913922934" lon="11.884586286186583"><ele>533.3333333333333</ele><time>2026-05-02T09:58:44Z</time></trkpt><trkpt lat="43.7297493187889" lon="11.884544941487263"><ele>533.1666666666666</ele><time>2026-05-02T09:58:45Z</time></trkpt><trkpt lat="43.72966146266505" lon="11.884503681188857"><ele>533.0</ele><time>2026-05-02T09:58:46Z</time></trkpt><trkpt lat="43.72957473190407" lon="11.884451146511719"><ele>533.0</ele><time>2026-05-02T09:58:47Z</time></trkpt><trkpt lat="43.72949315603238" lon="11.884383579821037"><ele>533.0</ele><time>2026-05-02T09:58:48Z</time></trkpt><trkpt lat="43.729414335452184" lon="11.884297902018501"><ele>533.0</ele><time>2026-05-02T09:58:49Z</time></trkpt><trkpt lat="43.729351759806065" lon="11.884202161134537"><ele>533.0</ele><time>2026-05-02T09:58:50Z</time></trkpt><trkpt lat="43.72930102920131" lon="11.88409312578561"><ele>533.0</ele><time>2026-05-02T09:58:51Z</time></trkpt><trkpt lat="43.72925888578147" lon="11.883968366195475"><ele>530.8</ele><time>2026-05-02T09:58:52Z</time></trkpt><trkpt lat="43.72923001361417" lon="11.883829331050254"><ele>528.5999999999999</ele><time>2026-05-02T09:58:53Z</time></trkpt><trkpt lat="43.729220716170005" lon="11.883687386636922"><ele>526.4000000000001</ele><time>2026-05-02T09:58:54Z</time></trkpt><trkpt lat="43.72923278004131" lon="11.883540254333782"><ele>524.2</ele><time>2026-05-02T09:58:55Z</time></trkpt><trkpt lat="43.72925154163662" lon="11.883382155998964"><ele>522.0</ele><time>2026-05-02T09:58:56Z</time></trkpt><trkpt lat="43.72927930523912" lon="11.883227331691028"><ele>522.0</ele><time>2026-05-02T09:58:57Z</time></trkpt><trkpt lat="43.72930615730293" lon="11.883085459051289"><ele>522.0</ele><time>2026-05-02T09:58:58Z</time></trkpt><trkpt lat="43.729324460462784" lon="11.882946011232463"><ele>522.0</ele><time>2026-05-02T09:58:59Z</time></trkpt><trkpt lat="43.72933965840656" lon="11.882811901672282"><ele>522.0</ele><time>2026-05-02T09:59:00Z</time></trkpt><trkpt lat="43.72934597319355" lon="11.88268646825305"><ele>522.0</ele><time>2026-05-02T09:59:01Z</time></trkpt><trkpt lat="43.72932519325494" lon="11.882591591281798"><ele>522.8333333333334</ele><time>2026-05-02T09:59:02Z</time></trkpt><trkpt lat="43.72928320474733" lon="11.882516776454915"><ele>523.6666666666666</ele><time>2026-05-02T09:59:03Z</time></trkpt><trkpt lat="43.72920960868096" lon="11.882463462738768"><ele>524.5</ele><time>2026-05-02T09:59:04Z</time></trkpt><trkpt lat="43.72911968632084" lon="11.882451262738591"><ele>525.3333333333333</ele><time>2026-05-02T09:59:05Z</time></trkpt><trkpt lat="43.72902488157468" lon="11.882438856947374"><ele>526.1666666666666</ele><time>2026-05-02T09:59:06Z</time></trkpt><trkpt lat="43.728930565920514" lon="11.88242483744141"><ele>527.0</ele><time>2026-05-02T09:59:07Z</time></trkpt><trkpt lat="43.728839620258164" lon="11.882405047648241"><ele>527.0</ele><time>2026-05-02T09:59:08Z</time></trkpt><trkpt lat="43.72873875714841" lon="11.882377526923003"><ele>527.0</ele><time>2026-05-02T09:59:09Z</time></trkpt><trkpt lat="43.728647572129184" lon="11.882327564769122"><ele>527.0</ele><time>2026-05-02T09:59:10Z</time></trkpt><trkpt lat="43.72855877341946" lon="11.882279434070881"><ele>527.0</ele><time>2026-05-02T09:59:11Z</time></trkpt><trkpt lat="43.72847580486598" lon="11.882219244029898"><ele>527.0</ele><time>2026-05-02T09:59:12Z</time></trkpt><trkpt lat="43.728409039282276" lon="11.882136777090716"><ele>527.3333333333333</ele><time>2026-05-02T09:59:13Z</time></trkpt><trkpt lat="43.72835421011497" lon="11.882025282710998"><ele>527.6666666666666</ele><time>2026-05-02T09:59:14Z</time></trkpt><trkpt lat="43.72830189266372" lon="11.88191887994727"><ele>528.0</ele><time>2026-05-02T09:59:15Z</time></trkpt><trkpt lat="43.728253564436834" lon="11.881814193386681"><ele>528.3333333333334</ele><time>2026-05-02T09:59:16Z</time></trkpt><trkpt lat="43.72820313780841" lon="11.881721508225574"><ele>528.6666666666667</ele><time>2026-05-02T09:59:17Z</time></trkpt><trkpt lat="43.72814645745862" lon="11.88164492907991"><ele>529.0</ele><time>2026-05-02T09:59:18Z</time></trkpt><trkpt lat="43.72807655063513" lon="11.88160473404158"><ele>529.0</ele><time>2026-05-02T09:59:19Z</time></trkpt><trkpt lat="43.728011718715166" lon="11.881595337577078"><ele>529.0</ele><time>2026-05-02T09:59:20Z</time></trkpt><trkpt lat="43.727944995575804" lon="11.881619609724734"><ele>529.0</ele><time>2026-05-02T09:59:21Z</time></trkpt><trkpt lat="43.727882183378846" lon="11.881698638267839"><ele>529.0</ele><time>2026-05-02T09:59:22Z</time></trkpt><trkpt lat="43.72782397966139" lon="11.881800688016659"><ele>529.0</ele><time>2026-05-02T09:59:23Z</time></trkpt><trkpt lat="43.727770165909845" lon="11.881919432836757"><ele>529.0</ele><time>2026-05-02T09:59:24Z</time></trkpt><trkpt lat="43.72771976149268" lon="11.88203846481328"><ele>524.4285714285714</ele><time>2026-05-02T09:59:25Z</time></trkpt><trkpt lat="43.72767604859646" lon="11.882145016667796"><ele>519.8571428571429</ele><time>2026-05-02T09:59:26Z</time></trkpt><trkpt lat="43.727627702533525" lon="11.882234343411431"><ele>515.2857142857142</ele><time>2026-05-02T09:59:27Z</time></trkpt><trkpt lat="43.727577138326694" lon="11.88230313446198"><ele>510.7142857142857</ele><time>2026-05-02T09:59:28Z</time></trkpt><trkpt lat="43.72751954602254" lon="11.88234313568589"><ele>506.1428571428571</ele><time>2026-05-02T09:59:29Z</time></trkpt><trkpt lat="43.72745372934196" lon="11.882347242802107"><ele>501.57142857142856</ele><time>2026-05-02T09:59:30Z</time></trkpt><trkpt lat="43.727380823992625" lon="11.882307184694726"><ele>497.0</ele><time>2026-05-02T09:59:31Z</time></trkpt><trkpt lat="43.727320759253125" lon="11.882235838687519"><ele>496.99999999999994</ele><time>2026-05-02T09:59:32Z</time></trkpt><trkpt lat="43.72727277753409" lon="11.882154407974712"><ele>497.0</ele><time>2026-05-02T09:59:33Z</time></trkpt><trkpt lat="43.72723797125903" lon="11.882037704633369"><ele>497.0</ele><time>2026-05-02T09:59:34Z</time></trkpt><trkpt lat="43.727208063442035" lon="11.88191848586335"><ele>497.0</ele><time>2026-05-02T09:59:35Z</time></trkpt><trkpt lat="43.7271559062487" lon="11.881841182638356"><ele>496.99999999999994</ele><time>2026-05-02T09:59:36Z</time></trkpt><trkpt lat="43.72708367210781" lon="11.881780078151605"><ele>497.0</ele><time>2026-05-02T09:59:37Z</time></trkpt><trkpt lat="43.72700173361124" lon="11.88175887680885"><ele>497.99999999999994</ele><time>2026-05-02T09:59:38Z</time></trkpt><trkpt lat="43.72692267121741" lon="11.881759548590535"><ele>499.0</ele><time>2026-05-02T09:59:39Z</time></trkpt><trkpt lat="43.726848278477796" lon="11.881774893873683"><ele>500.0</ele><time>2026-05-02T09:59:40Z</time></trkpt><trkpt lat="43.72677956173881" lon="11.881760533081732"><ele>501.0</ele><time>2026-05-02T09:59:41Z</time></trkpt><trkpt lat="43.72671386508912" lon="11.881706753827656"><ele>501.99999999999994</ele><time>2026-05-02T09:59:42Z</time></trkpt><trkpt lat="43.72663534866066" lon="11.881635667283515"><ele>503.0</ele><time>2026-05-02T09:59:43Z</time></trkpt><trkpt lat="43.72655057766995" lon="11.881569716785583"><ele>502.99999999999994</ele><time>2026-05-02T09:59:44Z</time></trkpt><trkpt lat="43.726466626042956" lon="11.881522603753378"><ele>503.0</ele><time>2026-05-02T09:59:45Z</time></trkpt><trkpt lat="43.72638739952802" lon="11.881476452156031"><ele>503.0</ele><time>2026-05-02T09:59:46Z</time></trkpt><trkpt lat="43.72631573775278" lon="11.881423996198208"><ele>503.0</ele><time>2026-05-02T09:59:47Z</time></trkpt><trkpt lat="43.726249408728314" lon="11.881350160266667"><ele>502.99999999999994</ele><time>2026-05-02T09:59:48Z</time></trkpt><trkpt lat="43.72618935942744" lon="11.881251478266277"><ele>503.0</ele><time>2026-05-02T09:59:49Z</time></trkpt><trkpt lat="43.72613036047505" lon="11.881138412422144"><ele>503.0</ele><time>2026-05-02T09:59:50Z</time></trkpt><trkpt lat="43.72607684375256" lon="11.881012798579437"><ele>502.99999999999994</ele><time>2026-05-02T09:59:51Z</time></trkpt><trkpt lat="43.72603387163397" lon="11.880882508152874"><ele>502.99999999999994</ele><time>2026-05-02T09:59:52Z</time></trkpt><trkpt lat="43.726006107263736" lon="11.880759966716253"><ele>503.0</ele><time>2026-05-02T09:59:53Z</time></trkpt><trkpt lat="43.72599337212776" lon="11.880637499227484"><ele>503.0</ele><time>2026-05-02T09:59:54Z</time></trkpt><trkpt lat="43.72599072437312" lon="11.880519319922094"><ele>500.3333333333333</ele><time>2026-05-02T09:59:55Z</time></trkpt><trkpt lat="43.72599516839035" lon="11.880421723424663"><ele>497.66666666666663</ele><time>2026-05-02T09:59:56Z</time></trkpt><trkpt lat="43.72596663103087" lon="11.880328818963237"><ele>495.0</ele><time>2026-05-02T09:59:57Z</time></trkpt><trkpt lat="43.725913216809104" lon="11.880248147170335"><ele>492.33333333333337</ele><time>2026-05-02T09:59:58Z</time></trkpt><trkpt lat="43.725831980726866" lon="11.880190624444372"><ele>489.6666666666667</ele><time>2026-05-02T09:59:59Z</time></trkpt><trkpt lat="43.72573839357435" lon="11.880158245808943"><ele>487.0</ele><time>2026-05-02T10:00:00Z</time></trkpt><trkpt lat="43.72565161215405" lon="11.880124932766371"><ele>490.1666666666667</ele><time>2026-05-02T10:00:01Z</time></trkpt><trkpt lat="43.72557842746811" lon="11.88006849972994"><ele>493.33333333333337</ele><time>2026-05-02T10:00:02Z</time></trkpt><trkpt lat="43.7255194829069" lon="11.879988099649117"><ele>496.5</ele><time>2026-05-02T10:00:03Z</time></trkpt><trkpt lat="43.72546822523742" lon="11.879894583663603"><ele>499.66666666666663</ele><time>2026-05-02T10:00:04Z</time></trkpt><trkpt lat="43.72542615839431" lon="11.87979256525079"><ele>502.8333333333333</ele><time>2026-05-02T10:00:05Z</time></trkpt><trkpt lat="43.72539554702636" lon="11.879676519947743"><ele>506.0</ele><time>2026-05-02T10:00:06Z</time></trkpt><trkpt lat="43.725374469032936" lon="11.87953973583948"><ele>506.0</ele><time>2026-05-02T10:00:07Z</time></trkpt><trkpt lat="43.725347679307916" lon="11.8794021756404"><ele>506.0</ele><time>2026-05-02T10:00:08Z</time></trkpt><trkpt lat="43.725304360771" lon="11.879258637269347"><ele>506.0</ele><time>2026-05-02T10:00:09Z</time></trkpt><trkpt lat="43.725244677810885" lon="11.879132349750831"><ele>506.0</ele><time>2026-05-02T10:00:10Z</time></trkpt><trkpt lat="43.725190404516994" lon="11.878999953977289"><ele>506.0</ele><time>2026-05-02T10:00:11Z</time></trkpt><trkpt lat="43.72514020068451" lon="11.878867501555852"><ele>507.8</ele><time>2026-05-02T10:00:12Z</time></trkpt><trkpt lat="43.72507862222066" lon="11.878741163705644"><ele>509.6</ele><time>2026-05-02T10:00:13Z</time></trkpt><trkpt lat="43.725001900589135" lon="11.878625862328043"><ele>511.4</ele><time>2026-05-02T10:00:14Z</time></trkpt><trkpt lat="43.724921793853035" lon="11.87852825767216"><ele>513.2</ele><time>2026-05-02T10:00:15Z</time></trkpt><trkpt lat="43.72483985910928" lon="11.87842101662647"><ele>515.0</ele><time>2026-05-02T10:00:16Z</time></trkpt><trkpt lat="43.72475981121099" lon="11.87831598639636"><ele>515.0</ele><time>2026-05-02T10:00:17Z</time></trkpt><trkpt lat="43.7246754981076" lon="11.878213432586977"><ele>515.0</ele><time>2026-05-02T10:00:18Z</time></trkpt><trkpt lat="43.72459897395414" lon="11.878118285344959"><ele>515.0</ele><time>2026-05-02T10:00:19Z</time></trkpt><trkpt lat="43.72453562446602" lon="11.878017658452645"><ele>515.0</ele><time>2026-05-02T10:00:20Z</time></trkpt><trkpt lat="43.72447858415203" lon="11.877920128380842"><ele>515.0</ele><time>2026-05-02T10:00:21Z</time></trkpt><trkpt lat="43.724417313184865" lon="11.877831636813516"><ele>507.0</ele><time>2026-05-02T10:00:22Z</time></trkpt><trkpt lat="43.72434218542652" lon="11.877764892518124"><ele>499.0</ele><time>2026-05-02T10:00:23Z</time></trkpt><trkpt lat="43.72425435457379" lon="11.877735615044298"><ele>491.0</ele><time>2026-05-02T10:00:24Z</time></trkpt><trkpt lat="43.724158084116034" lon="11.877736052011127"><ele>483.0</ele><time>2026-05-02T10:00:25Z</time></trkpt><trkpt lat="43.72406070914305" lon="11.877758203430556"><ele>475.0</ele><time>2026-05-02T10:00:26Z</time></trkpt><trkpt lat="43.72397941455965" lon="11.877761899037521"><ele>475.0</ele><time>2026-05-02T10:00:27Z</time></trkpt><trkpt lat="43.72389941716632" lon="11.877719805775142"><ele>475.0</ele><time>2026-05-02T10:00:28Z</time></trkpt><trkpt lat="43.723813280415825" lon="11.87764450593321"><ele>475.0</ele><time>2026-05-02T10:00:29Z</time></trkpt><trkpt lat="43.72372908355375" lon="11.877556777592195"><ele>475.0</ele><time>2026-05-02T10:00:30Z</time></trkpt><trkpt lat="43.723643944301365" lon="11.877452626930735"><ele>475.0</ele><time>2026-05-02T10:00:31Z</time></trkpt><trkpt lat="43.72355669970978" lon="11.87733062387296"><ele>475.75</ele><time>2026-05-02T10:00:32Z</time></trkpt><trkpt lat="43.72347028650558" lon="11.877187510448746"><ele>476.5</ele><time>2026-05-02T10:00:33Z</time></trkpt><trkpt lat="43.72339517848343" lon="11.877046732853827"><ele>477.25</ele><time>2026-05-02T10:00:34Z</time></trkpt><trkpt lat="43.723322154815634" lon="11.876922306590371"><ele>478.0</ele><time>2026-05-02T10:00:35Z</time></trkpt><trkpt lat="43.7232404106805" lon="11.876816051289204"><ele>485.75</ele><time>2026-05-02T10:00:36Z</time></trkpt><trkpt lat="43.72315608671776" lon="11.876724149164245"><ele>493.5</ele><time>2026-05-02T10:00:37Z</time></trkpt><trkpt lat="43.723069738102794" lon="11.876623340146667"><ele>501.25</ele><time>2026-05-02T10:00:38Z</time></trkpt><trkpt lat="43.72297238979883" lon="11.876532118426173"><ele>509.0</ele><time>2026-05-02T10:00:39Z</time></trkpt><trkpt lat="43.722860466417025" lon="11.876455982854573"><ele>509.0</ele><time>2026-05-02T10:00:40Z</time></trkpt><trkpt lat="43.72273955363289" lon="11.876382595805765"><ele>509.0</ele><time>2026-05-02T10:00:41Z</time></trkpt><trkpt lat="43.72262731420445" lon="11.8763278499435"><ele>509.0</ele><time>2026-05-02T10:00:42Z</time></trkpt><trkpt lat="43.722526232916266" lon="11.87626299123379"><ele>509.0</ele><time>2026-05-02T10:00:43Z</time></trkpt><trkpt lat="43.72242793114827" lon="11.87620229945811"><ele>502.4</ele><time>2026-05-02T10:00:44Z</time></trkpt><trkpt lat="43.72233175028096" lon="11.87614311009351"><ele>495.79999999999995</ele><time>2026-05-02T10:00:45Z</time></trkpt><trkpt lat="43.722235855176685" lon="11.876084351616129"><ele>489.20000000000005</ele><time>2026-05-02T10:00:46Z</time></trkpt><trkpt lat="43.722141866146195" lon="11.87603603811623"><ele>482.6</ele><time>2026-05-02T10:00:47Z</time></trkpt><trkpt lat="43.72205458372692" lon="11.875999143369858"><ele>476.0</ele><time>2026-05-02T10:00:48Z</time></trkpt><trkpt lat="43.72197806967619" lon="11.87596226010802"><ele>475.8333333333333</ele><time>2026-05-02T10:00:49Z</time></trkpt><trkpt lat="43.7219088211138" lon="11.87591692006298"><ele>475.66666666666663</ele><time>2026-05-02T10:00:50Z</time></trkpt><trkpt lat="43.721841852280804" lon="11.875860362446032"><ele>475.5</ele><time>2026-05-02T10:00:51Z</time></trkpt><trkpt lat="43.72178454564737" lon="11.875782338179196"><ele>475.33333333333337</ele><time>2026-05-02T10:00:52Z</time></trkpt><trkpt lat="43.72173855267455" lon="11.875691902526638"><ele>475.1666666666667</ele><time>2026-05-02T10:00:53Z</time></trkpt><trkpt lat="43.72169529516134" lon="11.875598902327965"><ele>475.0</ele><time>2026-05-02T10:00:54Z</time></trkpt><trkpt lat="43.721653939291144" lon="11.875506910020182"><ele>475.0</ele><time>2026-05-02T10:00:55Z</time></trkpt><trkpt lat="43.721630329578076" lon="11.8754117819377"><ele>475.0</ele><time>2026-05-02T10:00:56Z</time></trkpt><trkpt lat="43.72160414121568" lon="11.875324784993227"><ele>475.0</ele><time>2026-05-02T10:00:57Z</time></trkpt><trkpt lat="43.721584006023605" lon="11.87515853963245"><ele>475.0</ele><time>2026-05-02T10:00:59Z</time></trkpt><trkpt lat="43.721589256619254" lon="11.874984279979227"><ele>475.0</ele><time>2026-05-02T10:01:01Z</time></trkpt><trkpt lat="43.721608048311566" lon="11.874882540307308"><ele>476.1666666666667</ele><time>2026-05-02T10:01:02Z</time></trkpt><trkpt lat="43.721625206287754" lon="11.874795453831293"><ele>477.33333333333337</ele><time>2026-05-02T10:01:03Z</time></trkpt><trkpt lat="43.72166772564642" lon="11.874712605020317"><ele>478.5</ele><time>2026-05-02T10:01:04Z</time></trkpt><trkpt lat="43.72173474833945" lon="11.874651068535982"><ele>479.66666666666663</ele><time>2026-05-02T10:01:05Z</time></trkpt><trkpt lat="43.721814097807275" lon="11.87460223667971"><ele>480.8333333333333</ele><time>2026-05-02T10:01:06Z</time></trkpt><trkpt lat="43.721885760945426" lon="11.87453290625821"><ele>482.0</ele><time>2026-05-02T10:01:07Z</time></trkpt><trkpt lat="43.721945388174454" lon="11.8744485659789"><ele>487.8</ele><time>2026-05-02T10:01:08Z</time></trkpt><trkpt lat="43.72199316900624" lon="11.87434466457025"><ele>493.6</ele><time>2026-05-02T10:01:09Z</time></trkpt><trkpt lat="43.722031542641275" lon="11.874239015780091"><ele>499.40000000000003</ele><time>2026-05-02T10:01:10Z</time></trkpt><trkpt lat="43.72206180083674" lon="11.8741477970236"><ele>505.20000000000005</ele><time>2026-05-02T10:01:11Z</time></trkpt><trkpt lat="43.72203856136345" lon="11.8739679815058"><ele>511.0</ele><time>2026-05-02T10:01:13Z</time></trkpt><trkpt lat="43.721994453047415" lon="11.873891117988578"><ele>511.0</ele><time>2026-05-02T10:01:14Z</time></trkpt><trkpt lat="43.72191536800444" lon="11.873833882101199"><ele>511.0</ele><time>2026-05-02T10:01:15Z</time></trkpt><trkpt lat="43.72181370765086" lon="11.87379890049711"><ele>511.0</ele><time>2026-05-02T10:01:16Z</time></trkpt><trkpt lat="43.72172193446909" lon="11.873768824634334"><ele>511.0</ele><time>2026-05-02T10:01:17Z</time></trkpt><trkpt lat="43.721634653780264" lon="11.873720240723891"><ele>511.0</ele><time>2026-05-02T10:01:18Z</time></trkpt><trkpt lat="43.72155947486489" lon="11.873649167513467"><ele>506.20000000000005</ele><time>2026-05-02T10:01:19Z</time></trkpt><trkpt lat="43.72150221306209" lon="11.873547219676373"><ele>501.40000000000003</ele><time>2026-05-02T10:01:20Z</time></trkpt><trkpt lat="43.721451378134695" lon="11.87342898436062"><ele>496.6</ele><time>2026-05-02T10:01:21Z</time></trkpt><trkpt lat="43.72140168157829" lon="11.873302449093693"><ele>491.8</ele><time>2026-05-02T10:01:22Z</time></trkpt><trkpt lat="43.72135123147607" lon="11.873179546709116"><ele>487.0</ele><time>2026-05-02T10:01:23Z</time></trkpt><trkpt lat="43.72130871539134" lon="11.873039446918082"><ele>487.0</ele><time>2026-05-02T10:01:24Z</time></trkpt><trkpt lat="43.72126832332559" lon="11.87290745361118"><ele>487.00000000000006</ele><time>2026-05-02T10:01:25Z</time></trkpt><trkpt lat="43.72123250399016" lon="11.87277478180508"><ele>487.00000000000006</ele><time>2026-05-02T10:01:26Z</time></trkpt><trkpt lat="43.72119480290047" lon="11.87264864630056"><ele>487.0</ele><time>2026-05-02T10:01:27Z</time></trkpt><trkpt lat="43.72116244604055" lon="11.872535099226251"><ele>487.0</ele><time>2026-05-02T10:01:28Z</time></trkpt><trkpt lat="43.72114830364213" lon="11.872428166604472"><ele>488.6666666666667</ele><time>2026-05-02T10:01:29Z</time></trkpt><trkpt lat="43.721153993961444" lon="11.872312610097733"><ele>490.33333333333337</ele><time>2026-05-02T10:01:30Z</time></trkpt><trkpt lat="43.72117138032346" lon="11.872198300645776"><ele>492.0</ele><time>2026-05-02T10:01:31Z</time></trkpt><trkpt lat="43.7211945317916" lon="11.872060838052768"><ele>493.66666666666663</ele><time>2026-05-02T10:01:32Z</time></trkpt><trkpt lat="43.72119965259729" lon="11.871935863171167"><ele>495.3333333333333</ele><time>2026-05-02T10:01:33Z</time></trkpt><trkpt lat="43.72115182848146" lon="11.871833680397685"><ele>497.0</ele><time>2026-05-02T10:01:34Z</time></trkpt><trkpt lat="43.72107803343548" lon="11.871735289261004"><ele>492.8333333333333</ele><time>2026-05-02T10:01:35Z</time></trkpt><trkpt lat="43.721023681661904" lon="11.871640047274154"><ele>488.66666666666663</ele><time>2026-05-02T10:01:36Z</time></trkpt><trkpt lat="43.72100094617608" lon="11.871547063517813"><ele>484.5</ele><time>2026-05-02T10:01:37Z</time></trkpt><trkpt lat="43.72097414730458" lon="11.871450553077349"><ele>480.33333333333337</ele><time>2026-05-02T10:01:38Z</time></trkpt><trkpt lat="43.72093814900754" lon="11.871359480014451"><ele>476.1666666666667</ele><time>2026-05-02T10:01:39Z</time></trkpt><trkpt lat="43.720888346814355" lon="11.871286300064547"><ele>472.0</ele><time>2026-05-02T10:01:40Z</time></trkpt><trkpt lat="43.7208152421724" lon="11.871239263920726"><ele>472.0</ele><time>2026-05-02T10:01:41Z</time></trkpt><trkpt lat="43.720737539895964" lon="11.871265501334566"><ele>472.00000000000006</ele><time>2026-05-02T10:01:42Z</time></trkpt><trkpt lat="43.72066071240414" lon="11.871341700361256"><ele>472.00000000000006</ele><time>2026-05-02T10:01:43Z</time></trkpt><trkpt lat="43.72058883647201" lon="11.871440224837595"><ele>472.0</ele><time>2026-05-02T10:01:44Z</time></trkpt><trkpt lat="43.72051316958441" lon="11.871516398080944"><ele>472.0</ele><time>2026-05-02T10:01:45Z</time></trkpt><trkpt lat="43.720426051177995" lon="11.871575113709914"><ele>472.00000000000006</ele><time>2026-05-02T10:01:46Z</time></trkpt><trkpt lat="43.72034322689436" lon="11.871636741327432"><ele>472.0</ele><time>2026-05-02T10:01:47Z</time></trkpt><trkpt lat="43.720248517767345" lon="11.871684323666953"><ele>472.0</ele><time>2026-05-02T10:01:48Z</time></trkpt><trkpt lat="43.72016258194026" lon="11.871709798354603"><ele>472.0</ele><time>2026-05-02T10:01:49Z</time></trkpt><trkpt lat="43.72008910553879" lon="11.871721877525891"><ele>472.00000000000006</ele><time>2026-05-02T10:01:50Z</time></trkpt><trkpt lat="43.720014690343255" lon="11.871696177980342"><ele>472.0</ele><time>2026-05-02T10:01:51Z</time></trkpt><trkpt lat="43.719942564617575" lon="11.871641288080932"><ele>469.8</ele><time>2026-05-02T10:01:52Z</time></trkpt><trkpt lat="43.719859104173956" lon="11.871557932078924"><ele>467.6</ele><time>2026-05-02T10:01:53Z</time></trkpt><trkpt lat="43.719779521828634" lon="11.87149290879478"><ele>465.40000000000003</ele><time>2026-05-02T10:01:54Z</time></trkpt><trkpt lat="43.71968571884831" lon="11.871459457322715"><ele>463.20000000000005</ele><time>2026-05-02T10:01:55Z</time></trkpt><trkpt lat="43.71959260126268" lon="11.871462034185202"><ele>461.0</ele><time>2026-05-02T10:01:56Z</time></trkpt><trkpt lat="43.719496610601524" lon="11.871494545385822"><ele>461.0</ele><time>2026-05-02T10:01:57Z</time></trkpt><trkpt lat="43.71940915215053" lon="11.871495117763075"><ele>461.0</ele><time>2026-05-02T10:01:58Z</time></trkpt><trkpt lat="43.71932194828023" lon="11.871482000711918"><ele>461.0</ele><time>2026-05-02T10:01:59Z</time></trkpt><trkpt lat="43.71923392419029" lon="11.871439207073045"><ele>461.0</ele><time>2026-05-02T10:02:00Z</time></trkpt><trkpt lat="43.71915325220833" lon="11.871371172378357"><ele>461.0</ele><time>2026-05-02T10:02:01Z</time></trkpt><trkpt lat="43.71908592115947" lon="11.871276032935565"><ele>460.8</ele><time>2026-05-02T10:02:02Z</time></trkpt><trkpt lat="43.71901990999385" lon="11.871161538512936"><ele>460.6</ele><time>2026-05-02T10:02:03Z</time></trkpt><trkpt lat="43.718960052774094" lon="11.87104137646498"><ele>460.4</ele><time>2026-05-02T10:02:04Z</time></trkpt><trkpt lat="43.71890284408385" lon="11.870921956271868"><ele>460.2</ele><time>2026-05-02T10:02:05Z</time></trkpt><trkpt lat="43.71885192703486" lon="11.870808130129047"><ele>460.0</ele><time>2026-05-02T10:02:06Z</time></trkpt><trkpt lat="43.71880874623654" lon="11.870689694383799"><ele>460.00000000000006</ele><time>2026-05-02T10:02:07Z</time></trkpt><trkpt lat="43.71878266308036" lon="11.870567315871632"><ele>460.0</ele><time>2026-05-02T10:02:08Z</time></trkpt><trkpt lat="43.71876386195054" lon="11.8704397388006"><ele>460.0</ele><time>2026-05-02T10:02:09Z</time></trkpt><trkpt lat="43.71874700400169" lon="11.87031567488813"><ele>460.0</ele><time>2026-05-02T10:02:10Z</time></trkpt><trkpt lat="43.71873135221307" lon="11.870198510047132"><ele>460.00000000000006</ele><time>2026-05-02T10:02:11Z</time></trkpt><trkpt lat="43.71870883276437" lon="11.87009432734659"><ele>460.0</ele><time>2026-05-02T10:02:12Z</time></trkpt><trkpt lat="43.718666238844484" lon="11.870014969490336"><ele>460.2</ele><time>2026-05-02T10:02:13Z</time></trkpt><trkpt lat="43.718599230742925" lon="11.869967796455274"><ele>460.4</ele><time>2026-05-02T10:02:14Z</time></trkpt><trkpt lat="43.7185166924728" lon="11.869957531064362"><ele>460.6</ele><time>2026-05-02T10:02:15Z</time></trkpt><trkpt lat="43.71842560598619" lon="11.869962902431899"><ele>460.8</ele><time>2026-05-02T10:02:16Z</time></trkpt><trkpt lat="43.71832311405497" lon="11.869974972448372"><ele>461.0</ele><time>2026-05-02T10:02:17Z</time></trkpt><trkpt lat="43.71821590402129" lon="11.869981014841871"><ele>461.0</ele><time>2026-05-02T10:02:18Z</time></trkpt><trkpt lat="43.718110251934604" lon="11.869981425636476"><ele>461.0</ele><time>2026-05-02T10:02:19Z</time></trkpt><trkpt lat="43.7180082078974" lon="11.869993269753099"><ele>461.0</ele><time>2026-05-02T10:02:20Z</time></trkpt><trkpt lat="43.71791019365276" lon="11.870027464068729"><ele>461.0</ele><time>2026-05-02T10:02:21Z</time></trkpt><trkpt lat="43.71781402156653" lon="11.870071154441208"><ele>461.0</ele><time>2026-05-02T10:02:22Z</time></trkpt><trkpt lat="43.717715565325996" lon="11.870115774035185"><ele>459.4</ele><time>2026-05-02T10:02:23Z</time></trkpt><trkpt lat="43.71761675119408" lon="11.870141970446282"><ele>457.8</ele><time>2026-05-02T10:02:24Z</time></trkpt><trkpt lat="43.71751650351961" lon="11.870140349195648"><ele>456.19999999999993</ele><time>2026-05-02T10:02:25Z</time></trkpt><trkpt lat="43.71740804538753" lon="11.8701079483829"><ele>454.59999999999997</ele><time>2026-05-02T10:02:26Z</time></trkpt><trkpt lat="43.717304436265195" lon="11.870099280204927"><ele>453.0</ele><time>2026-05-02T10:02:27Z</time></trkpt><trkpt lat="43.71720664295113" lon="11.870098255578649"><ele>453.0</ele><time>2026-05-02T10:02:28Z</time></trkpt><trkpt lat="43.7171194194547" lon="11.870075081925775"><ele>452.99999999999994</ele><time>2026-05-02T10:02:29Z</time></trkpt><trkpt lat="43.717033151246035" lon="11.870015574619732"><ele>452.99999999999994</ele><time>2026-05-02T10:02:30Z</time></trkpt><trkpt lat="43.716949022573786" lon="11.869926052648271"><ele>453.0</ele><time>2026-05-02T10:02:31Z</time></trkpt><trkpt lat="43.716868471810656" lon="11.86982690554458"><ele>453.0</ele><time>2026-05-02T10:02:32Z</time></trkpt><trkpt lat="43.716795190354276" lon="11.869725383715046"><ele>451.0</ele><time>2026-05-02T10:02:33Z</time></trkpt><trkpt lat="43.716741043537894" lon="11.869609824585794"><ele>448.99999999999994</ele><time>2026-05-02T10:02:34Z</time></trkpt><trkpt lat="43.71670463578006" lon="11.869474342459856"><ele>446.99999999999994</ele><time>2026-05-02T10:02:35Z</time></trkpt><trkpt lat="43.71667781195018" lon="11.869330593464419"><ele>445.0</ele><time>2026-05-02T10:02:36Z</time></trkpt><trkpt lat="43.7166593907652" lon="11.869185422086014"><ele>443.0</ele><time>2026-05-02T10:02:37Z</time></trkpt><trkpt lat="43.71664739308847" lon="11.869044462611871"><ele>443.0</ele><time>2026-05-02T10:02:38Z</time></trkpt><trkpt lat="43.716650378324935" lon="11.86891198781265"><ele>442.99999999999994</ele><time>2026-05-02T10:02:39Z</time></trkpt><trkpt lat="43.71666038135499" lon="11.86879369444658"><ele>442.99999999999994</ele><time>2026-05-02T10:02:40Z</time></trkpt><trkpt lat="43.71666657375569" lon="11.868692692705922"><ele>443.0</ele><time>2026-05-02T10:02:41Z</time></trkpt><trkpt lat="43.71659811134273" lon="11.8685434237567"><ele>443.0</ele><time>2026-05-02T10:02:43Z</time></trkpt><trkpt lat="43.716514988036835" lon="11.86849967682747"><ele>442.99999999999994</ele><time>2026-05-02T10:02:44Z</time></trkpt><trkpt lat="43.71642769797388" lon="11.868457905952564"><ele>443.0</ele><time>2026-05-02T10:02:45Z</time></trkpt><trkpt lat="43.716369422546975" lon="11.868378569171293"><ele>443.0</ele><time>2026-05-02T10:02:46Z</time></trkpt><trkpt lat="43.71631804797072" lon="11.868288774270153"><ele>443.0</ele><time>2026-05-02T10:02:47Z</time></trkpt><trkpt lat="43.71627752282544" lon="11.86821213446847"><ele>442.99999999999994</ele><time>2026-05-02T10:02:48Z</time></trkpt><trkpt lat="43.71625885346067" lon="11.868122885976906"><ele>443.0</ele><time>2026-05-02T10:02:49Z</time></trkpt><trkpt lat="43.71626656469819" lon="11.868007465465508"><ele>443.66666666666663</ele><time>2026-05-02T10:02:50Z</time></trkpt><trkpt lat="43.71628333601201" lon="11.867889801180793"><ele>444.3333333333333</ele><time>2026-05-02T10:02:51Z</time></trkpt><trkpt lat="43.71629531908865" lon="11.867770940734653"><ele>445.0</ele><time>2026-05-02T10:02:52Z</time></trkpt><trkpt lat="43.71630624752948" lon="11.86765136423304"><ele>445.66666666666663</ele><time>2026-05-02T10:02:53Z</time></trkpt><trkpt lat="43.71631700084963" lon="11.867533096353014"><ele>446.3333333333333</ele><time>2026-05-02T10:02:54Z</time></trkpt><trkpt lat="43.71633177988868" lon="11.86743141569908"><ele>447.0</ele><time>2026-05-02T10:02:55Z</time></trkpt><trkpt lat="43.71639509306556" lon="11.86729904467573"><ele>447.0</ele><time>2026-05-02T10:02:57Z</time></trkpt><trkpt lat="43.7164641386684" lon="11.867233290319732"><ele>447.0</ele><time>2026-05-02T10:02:59Z</time></trkpt><trkpt lat="43.71646944021833" lon="11.867119028741778"><ele>447.0</ele><time>2026-05-02T10:03:03Z</time></trkpt><trkpt lat="43.71635842571498" lon="11.867140740170415"><ele>447.0</ele><time>2026-05-02T10:03:05Z</time></trkpt><trkpt lat="43.71630461977729" lon="11.867214911409617"><ele>447.0</ele><time>2026-05-02T10:03:06Z</time></trkpt><trkpt lat="43.71625895649695" lon="11.867287248411552"><ele>447.0</ele><time>2026-05-02T10:03:07Z</time></trkpt><trkpt lat="43.716222717163056" lon="11.867374566603962"><ele>447.0</ele><time>2026-05-02T10:03:08Z</time></trkpt><trkpt lat="43.71619715672176" lon="11.867476734612993"><ele>447.0</ele><time>2026-05-02T10:03:09Z</time></trkpt><trkpt lat="43.71617246922799" lon="11.86757577584087"><ele>447.0</ele><time>2026-05-02T10:03:10Z</time></trkpt><trkpt lat="43.71614586037389" lon="11.867672208202139"><ele>447.0</ele><time>2026-05-02T10:03:11Z</time></trkpt><trkpt lat="43.71611110027712" lon="11.867777916980565"><ele>447.0</ele><time>2026-05-02T10:03:12Z</time></trkpt><trkpt lat="43.71607010573215" lon="11.86787945122937"><ele>447.0</ele><time>2026-05-02T10:03:13Z</time></trkpt><trkpt lat="43.71602631220025" lon="11.867972169681355"><ele>446.3333333333333</ele><time>2026-05-02T10:03:14Z</time></trkpt><trkpt lat="43.71599011097563" lon="11.868066011372717"><ele>445.66666666666663</ele><time>2026-05-02T10:03:15Z</time></trkpt><trkpt lat="43.715974708577846" lon="11.868165552370064"><ele>445.0</ele><time>2026-05-02T10:03:16Z</time></trkpt><trkpt lat="43.715992636961694" lon="11.868270122108711"><ele>444.3333333333333</ele><time>2026-05-02T10:03:17Z</time></trkpt><trkpt lat="43.716036969410474" lon="11.868370129800315"><ele>443.66666666666663</ele><time>2026-05-02T10:03:18Z</time></trkpt><trkpt lat="43.716098664293874" lon="11.868468913101433"><ele>443.0</ele><time>2026-05-02T10:03:19Z</time></trkpt><trkpt lat="43.71616477302928" lon="11.868555491180665"><ele>442.99999999999994</ele><time>2026-05-02T10:03:20Z</time></trkpt><trkpt lat="43.7162200010918" lon="11.868635639993615"><ele>443.0</ele><time>2026-05-02T10:03:21Z</time></trkpt><trkpt lat="43.71625640331598" lon="11.868735707615695"><ele>443.0</ele><time>2026-05-02T10:03:22Z</time></trkpt><trkpt lat="43.716267473361384" lon="11.86885420401923"><ele>443.0</ele><time>2026-05-02T10:03:23Z</time></trkpt><trkpt lat="43.7162593309336" lon="11.868990424911047"><ele>442.99999999999994</ele><time>2026-05-02T10:03:24Z</time></trkpt><trkpt lat="43.716232032807746" lon="11.869128014364415"><ele>443.0</ele><time>2026-05-02T10:03:25Z</time></trkpt><trkpt lat="43.7161959692415" lon="11.86925282281257"><ele>441.2</ele><time>2026-05-02T10:03:26Z</time></trkpt><trkpt lat="43.71617279182271" lon="11.869377649658574"><ele>439.4</ele><time>2026-05-02T10:03:27Z</time></trkpt><trkpt lat="43.716172524495875" lon="11.869506424186312"><ele>437.59999999999997</ele><time>2026-05-02T10:03:28Z</time></trkpt><trkpt lat="43.71619671515801" lon="11.869638668890271"><ele>435.79999999999995</ele><time>2026-05-02T10:03:29Z</time></trkpt><trkpt lat="43.716231807218506" lon="11.869766936617575"><ele>434.0</ele><time>2026-05-02T10:03:30Z</time></trkpt><trkpt lat="43.71627548271624" lon="11.869898458239257"><ele>434.0</ele><time>2026-05-02T10:03:31Z</time></trkpt><trkpt lat="43.71631958032245" lon="11.8700375449955"><ele>434.0</ele><time>2026-05-02T10:03:32Z</time></trkpt><trkpt lat="43.71635970285973" lon="11.870179858244942"><ele>434.0</ele><time>2026-05-02T10:03:33Z</time></trkpt><trkpt lat="43.71640043318615" lon="11.870316798364778"><ele>434.0</ele><time>2026-05-02T10:03:34Z</time></trkpt><trkpt lat="43.71645235912893" lon="11.870452099568794"><ele>434.0</ele><time>2026-05-02T10:03:35Z</time></trkpt><trkpt lat="43.71650684748174" lon="11.870572526779952"><ele>430.2</ele><time>2026-05-02T10:03:36Z</time></trkpt><trkpt lat="43.71656513194388" lon="11.870672826592244"><ele>426.4</ele><time>2026-05-02T10:03:37Z</time></trkpt><trkpt lat="43.71662343205324" lon="11.870772764377021"><ele>422.6</ele><time>2026-05-02T10:03:38Z</time></trkpt><trkpt lat="43.71668546752369" lon="11.870854818898685"><ele>418.8</ele><time>2026-05-02T10:03:39Z</time></trkpt><trkpt lat="43.716739387206026" lon="11.870938295340924"><ele>415.0</ele><time>2026-05-02T10:03:40Z</time></trkpt><trkpt lat="43.71680142674602" lon="11.871111589471555"><ele>413.4</ele><time>2026-05-02T10:03:42Z</time></trkpt><trkpt lat="43.71680150891595" lon="11.871231037199975"><ele>411.8</ele><time>2026-05-02T10:03:43Z</time></trkpt><trkpt lat="43.71678371038203" lon="11.871356450460198"><ele>410.20000000000005</ele><time>2026-05-02T10:03:44Z</time></trkpt><trkpt lat="43.71676945600891" lon="11.871472408134045"><ele>408.6</ele><time>2026-05-02T10:03:45Z</time></trkpt><trkpt lat="43.7167784196599" lon="11.871597980777787"><ele>407.0</ele><time>2026-05-02T10:03:46Z</time></trkpt><trkpt lat="43.71679902504658" lon="11.871732802592078"><ele>406.8</ele><time>2026-05-02T10:03:47Z</time></trkpt><trkpt lat="43.71682430843718" lon="11.87186545409982"><ele>406.6</ele><time>2026-05-02T10:03:48Z</time></trkpt><trkpt lat="43.716849333347284" lon="11.87199459284352"><ele>406.40000000000003</ele><time>2026-05-02T10:03:49Z</time></trkpt><trkpt lat="43.71687326590344" lon="11.872121191026958"><ele>406.20000000000005</ele><time>2026-05-02T10:03:50Z</time></trkpt><trkpt lat="43.716896797498954" lon="11.872246810922393"><ele>406.0</ele><time>2026-05-02T10:03:51Z</time></trkpt><trkpt lat="43.71692081251656" lon="11.872369771724172"><ele>406.00000000000006</ele><time>2026-05-02T10:03:52Z</time></trkpt><trkpt lat="43.71694331274746" lon="11.872488030530235"><ele>406.0</ele><time>2026-05-02T10:03:53Z</time></trkpt><trkpt lat="43.716962278247806" lon="11.872604328383597"><ele>406.0</ele><time>2026-05-02T10:03:54Z</time></trkpt><trkpt lat="43.71697753433498" lon="11.872706908649292"><ele>406.0</ele><time>2026-05-02T10:03:55Z</time></trkpt><trkpt lat="43.71698929119464" lon="11.872840687566198"><ele>406.00000000000006</ele><time>2026-05-02T10:03:57Z</time></trkpt><trkpt lat="43.71699708775362" lon="11.872943219110557"><ele>406.0</ele><time>2026-05-02T10:03:59Z</time></trkpt><trkpt lat="43.71698590462419" lon="11.873068977615088"><ele>406.0</ele><time>2026-05-02T10:04:01Z</time></trkpt><trkpt lat="43.71693675962646" lon="11.873232355944436"><ele>406.0</ele><time>2026-05-02T10:04:03Z</time></trkpt><trkpt lat="43.71689600988056" lon="11.873322648879691"><ele>406.0</ele><time>2026-05-02T10:04:04Z</time></trkpt><trkpt lat="43.71683548103763" lon="11.873408377210959"><ele>406.0</ele><time>2026-05-02T10:04:05Z</time></trkpt><trkpt lat="43.71675372141306" lon="11.873474413708534"><ele>406.0</ele><time>2026-05-02T10:04:06Z</time></trkpt><trkpt lat="43.716662366746974" lon="11.873519765391343"><ele>409.0</ele><time>2026-05-02T10:04:07Z</time></trkpt><trkpt lat="43.71655978531931" lon="11.873559895667468"><ele>412.0</ele><time>2026-05-02T10:04:08Z</time></trkpt><trkpt lat="43.716456356883214" lon="11.873600484657057"><ele>415.0</ele><time>2026-05-02T10:04:09Z</time></trkpt><trkpt lat="43.71635431570621" lon="11.873649808926901"><ele>418.0</ele><time>2026-05-02T10:04:10Z</time></trkpt><trkpt lat="43.716262960356474" lon="11.873711473715776"><ele>421.0</ele><time>2026-05-02T10:04:11Z</time></trkpt><trkpt lat="43.71617616279571" lon="11.87377666582425"><ele>421.0</ele><time>2026-05-02T10:04:12Z</time></trkpt><trkpt lat="43.71610380318479" lon="11.873832563597732"><ele>421.0</ele><time>2026-05-02T10:04:13Z</time></trkpt><trkpt lat="43.71604133825594" lon="11.873899490357072"><ele>421.0</ele><time>2026-05-02T10:04:15Z</time></trkpt><trkpt lat="43.716036675716964" lon="11.874015373769959"><ele>421.0</ele><time>2026-05-02T10:04:17Z</time></trkpt><trkpt lat="43.716063327923386" lon="11.874156038767014"><ele>421.0</ele><time>2026-05-02T10:04:19Z</time></trkpt><trkpt lat="43.71604790980269" lon="11.874290905024386"><ele>420.8</ele><time>2026-05-02T10:04:21Z</time></trkpt><trkpt lat="43.71605672081792" lon="11.874425015907626"><ele>420.6</ele><time>2026-05-02T10:04:23Z</time></trkpt><trkpt lat="43.71611548715159" lon="11.874568319038383"><ele>420.4</ele><time>2026-05-02T10:04:25Z</time></trkpt><trkpt lat="43.71614869280565" lon="11.874653403813964"><ele>420.2</ele><time>2026-05-02T10:04:26Z</time></trkpt><trkpt lat="43.71618912387845" lon="11.874804429793937"><ele>420.0</ele><time>2026-05-02T10:04:28Z</time></trkpt><trkpt lat="43.716220058187105" lon="11.874909678815747"><ele>422.0</ele><time>2026-05-02T10:04:30Z</time></trkpt><trkpt lat="43.71627573094326" lon="11.874993329163859"><ele>424.0</ele><time>2026-05-02T10:04:32Z</time></trkpt><trkpt lat="43.71634419277696" lon="11.875080504839127"><ele>426.0</ele><time>2026-05-02T10:04:34Z</time></trkpt><trkpt lat="43.71640591715223" lon="11.875136949970726"><ele>428.0</ele><time>2026-05-02T10:04:35Z</time></trkpt><trkpt lat="43.716464768258454" lon="11.875207102093373"><ele>430.0</ele><time>2026-05-02T10:04:36Z</time></trkpt><trkpt lat="43.71652454643677" lon="11.875263731679157"><ele>432.0</ele><time>2026-05-02T10:04:37Z</time></trkpt><trkpt lat="43.71658835992778" lon="11.875303351953411"><ele>435.0</ele><time>2026-05-02T10:04:38Z</time></trkpt><trkpt lat="43.716720302420455" lon="11.875321597692231"><ele>438.00000000000006</ele><time>2026-05-02T10:04:40Z</time></trkpt><trkpt lat="43.7168320208661" lon="11.875267101641134"><ele>441.00000000000006</ele><time>2026-05-02T10:04:42Z</time></trkpt><trkpt lat="43.716898105139194" lon="11.875242472288896"><ele>444.0</ele><time>2026-05-02T10:04:43Z</time></trkpt><trkpt lat="43.71695979461991" lon="11.875221249031874"><ele>447.0</ele><time>2026-05-02T10:04:44Z</time></trkpt><trkpt lat="43.717030550819686" lon="11.875110898671817"><ele>448.20000000000005</ele><time>2026-05-02T10:04:46Z</time></trkpt><trkpt lat="43.71705797849404" lon="11.874959036016449"><ele>449.40000000000003</ele><time>2026-05-02T10:04:48Z</time></trkpt><trkpt lat="43.71707640872585" lon="11.874806214908357"><ele>450.59999999999997</ele><time>2026-05-02T10:04:50Z</time></trkpt><trkpt lat="43.7171862299651" lon="11.874702400072012"><ele>451.79999999999995</ele><time>2026-05-02T10:04:52Z</time></trkpt><trkpt lat="43.71725147753499" lon="11.874739729530319"><ele>453.0</ele><time>2026-05-02T10:04:53Z</time></trkpt><trkpt lat="43.71732488271551" lon="11.874786273837604"><ele>453.0</ele><time>2026-05-02T10:04:55Z</time></trkpt><trkpt lat="43.717378663290695" lon="11.874850658134108"><ele>452.99999999999994</ele><time>2026-05-02T10:04:57Z</time></trkpt><trkpt lat="43.71741583776142" lon="11.8749349701591"><ele>452.99999999999994</ele><time>2026-05-02T10:04:59Z</time></trkpt><trkpt lat="43.71745081365357" lon="11.875051329161536"><ele>453.0</ele><time>2026-05-02T10:05:01Z</time></trkpt><trkpt lat="43.71750558646759" lon="11.87515253247789"><ele>453.0</ele><time>2026-05-02T10:05:03Z</time></trkpt><trkpt lat="43.717558580013765" lon="11.875320126351314"><ele>455.0</ele><time>2026-05-02T10:05:05Z</time></trkpt><trkpt lat="43.71760689221227" lon="11.875405630771542"><ele>456.99999999999994</ele><time>2026-05-02T10:05:06Z</time></trkpt><trkpt lat="43.717644381305966" lon="11.87549472272614"><ele>458.99999999999994</ele><time>2026-05-02T10:05:07Z</time></trkpt><trkpt lat="43.71767866440836" lon="11.875592873784532"><ele>461.0</ele><time>2026-05-02T10:05:08Z</time></trkpt><trkpt lat="43.71770536037624" lon="11.875756220681435"><ele>463.0</ele><time>2026-05-02T10:05:10Z</time></trkpt><trkpt lat="43.717726853926" lon="11.87591916176689"><ele>466.83333333333337</ele><time>2026-05-02T10:05:12Z</time></trkpt><trkpt lat="43.717720650563926" lon="11.876046881661605"><ele>470.6666666666667</ele><time>2026-05-02T10:05:14Z</time></trkpt><trkpt lat="43.71770083814311" lon="11.876147987096541"><ele>474.5</ele><time>2026-05-02T10:05:16Z</time></trkpt><trkpt lat="43.71766738014185" lon="11.876237897830395"><ele>478.33333333333337</ele><time>2026-05-02T10:05:18Z</time></trkpt><trkpt lat="43.717628211033414" lon="11.87636788509075"><ele>482.1666666666667</ele><time>2026-05-02T10:05:20Z</time></trkpt><trkpt lat="43.71755940832912" lon="11.876462707734857"><ele>486.0</ele><time>2026-05-02T10:05:22Z</time></trkpt><trkpt lat="43.71748599322429" lon="11.876584185805026"><ele>486.0</ele><time>2026-05-02T10:05:24Z</time></trkpt><trkpt lat="43.71741704607619" lon="11.876697077323115"><ele>486.0</ele><time>2026-05-02T10:05:26Z</time></trkpt><trkpt lat="43.71734585303778" lon="11.876813646293517"><ele>486.0</ele><time>2026-05-02T10:05:28Z</time></trkpt><trkpt lat="43.71726950540819" lon="11.876948472244177"><ele>486.0</ele><time>2026-05-02T10:05:30Z</time></trkpt><trkpt lat="43.71722846961377" lon="11.877020169623329"><ele>486.0</ele><time>2026-05-02T10:05:31Z</time></trkpt><trkpt lat="43.71715144914542" lon="11.877154557065243"><ele>484.8</ele><time>2026-05-02T10:05:33Z</time></trkpt><trkpt lat="43.716964143184455" lon="11.87710301204689"><ele>483.6</ele><time>2026-05-02T10:05:35Z</time></trkpt><trkpt lat="43.716935420959565" lon="11.877191487223254"><ele>482.4</ele><time>2026-05-02T10:05:38Z</time></trkpt><trkpt lat="43.71689878686841" lon="11.877278262872347"><ele>481.2</ele><time>2026-05-02T10:05:40Z</time></trkpt><trkpt lat="43.71690207241272" lon="11.877401641672883"><ele>480.0</ele><time>2026-05-02T10:05:42Z</time></trkpt><trkpt lat="43.71690110366667" lon="11.877508407000585"><ele>482.1666666666667</ele><time>2026-05-02T10:05:43Z</time></trkpt><trkpt lat="43.71689794260044" lon="11.877606183271025"><ele>484.33333333333337</ele><time>2026-05-02T10:05:44Z</time></trkpt><trkpt lat="43.716887199059315" lon="11.877707051138978"><ele>486.5</ele><time>2026-05-02T10:05:45Z</time></trkpt><trkpt lat="43.71685186379302" lon="11.877789328084898"><ele>488.6666666666667</ele><time>2026-05-02T10:05:46Z</time></trkpt><trkpt lat="43.71681059012466" lon="11.877862184114816"><ele>490.83333333333337</ele><time>2026-05-02T10:05:47Z</time></trkpt><trkpt lat="43.71676981616041" lon="11.877943816624573"><ele>493.0</ele><time>2026-05-02T10:05:48Z</time></trkpt><trkpt lat="43.71673893874015" lon="11.878131715927534"><ele>493.0</ele><time>2026-05-02T10:05:50Z</time></trkpt><trkpt lat="43.71673206109253" lon="11.878242446796095"><ele>493.0</ele><time>2026-05-02T10:05:51Z</time></trkpt><trkpt lat="43.71672730549187" lon="11.878342690407575"><ele>493.0</ele><time>2026-05-02T10:05:52Z</time></trkpt><trkpt lat="43.71672495933493" lon="11.878435822987223"><ele>493.0</ele><time>2026-05-02T10:05:53Z</time></trkpt><trkpt lat="43.71672300488854" lon="11.878524744015863"><ele>493.0</ele><time>2026-05-02T10:05:54Z</time></trkpt><trkpt lat="43.71670446979437" lon="11.878613760145013"><ele>493.0</ele><time>2026-05-02T10:05:55Z</time></trkpt><trkpt lat="43.71669008412917" lon="11.878714544635288"><ele>493.0</ele><time>2026-05-02T10:05:56Z</time></trkpt><trkpt lat="43.71667662474743" lon="11.878805670969424"><ele>494.1666666666667</ele><time>2026-05-02T10:05:57Z</time></trkpt><trkpt lat="43.71667054791519" lon="11.878897357958277"><ele>495.33333333333337</ele><time>2026-05-02T10:05:58Z</time></trkpt><trkpt lat="43.716665431948606" lon="11.87900184266539"><ele>496.5</ele><time>2026-05-02T10:05:59Z</time></trkpt><trkpt lat="43.716667754387885" lon="11.879112843293502"><ele>497.66666666666663</ele><time>2026-05-02T10:06:00Z</time></trkpt><trkpt lat="43.71668018739518" lon="11.87922640738866"><ele>498.8333333333333</ele><time>2026-05-02T10:06:01Z</time></trkpt><trkpt lat="43.71669248254506" lon="11.879321336110847"><ele>500.0</ele><time>2026-05-02T10:06:02Z</time></trkpt><trkpt lat="43.716707746839525" lon="11.87947686073238"><ele>500.16666666666663</ele><time>2026-05-02T10:06:04Z</time></trkpt><trkpt lat="43.71676216456583" lon="11.879556385419603"><ele>500.3333333333333</ele><time>2026-05-02T10:06:06Z</time></trkpt><trkpt lat="43.716832844813894" lon="11.87950607560827"><ele>500.5</ele><time>2026-05-02T10:06:08Z</time></trkpt><trkpt lat="43.716908351154686" lon="11.879366605393624"><ele>500.66666666666663</ele><time>2026-05-02T10:06:10Z</time></trkpt><trkpt lat="43.71695379492123" lon="11.879297076835371"><ele>500.8333333333333</ele><time>2026-05-02T10:06:11Z</time></trkpt><trkpt lat="43.71699422375987" lon="11.879222035525506"><ele>501.0</ele><time>2026-05-02T10:06:12Z</time></trkpt><trkpt lat="43.71703765745881" lon="11.879126667509802"><ele>506.0</ele><time>2026-05-02T10:06:13Z</time></trkpt><trkpt lat="43.7170624482696" lon="11.879045952537693"><ele>511.0</ele><time>2026-05-02T10:06:14Z</time></trkpt><trkpt lat="43.71710698194242" lon="11.878962287601519"><ele>516.0</ele><time>2026-05-02T10:06:16Z</time></trkpt><trkpt lat="43.71717036228104" lon="11.878978338124265"><ele>521.0</ele><time>2026-05-02T10:06:18Z</time></trkpt><trkpt lat="43.71722712088547" lon="11.8790820697518"><ele>526.0</ele><time>2026-05-02T10:06:20Z</time></trkpt><trkpt lat="43.717268356318755" lon="11.879191217322585"><ele>531.0</ele><time>2026-05-02T10:06:22Z</time></trkpt><trkpt lat="43.71734695055918" lon="11.879329934883893"><ele>531.0</ele><time>2026-05-02T10:06:24Z</time></trkpt><trkpt lat="43.71737677426284" lon="11.879419065490065"><ele>531.0</ele><time>2026-05-02T10:06:25Z</time></trkpt><trkpt lat="43.71740819024842" lon="11.879496093145967"><ele>531.0</ele><time>2026-05-02T10:06:26Z</time></trkpt><trkpt lat="43.7174586109273" lon="11.879651515615254"><ele>531.0</ele><time>2026-05-02T10:06:28Z</time></trkpt><trkpt lat="43.71748914885538" lon="11.879800005032187"><ele>531.0</ele><time>2026-05-02T10:06:30Z</time></trkpt><trkpt lat="43.71752721324806" lon="11.879911873063271"><ele>531.0</ele><time>2026-05-02T10:06:32Z</time></trkpt><trkpt lat="43.7175694593398" lon="11.880012757719072"><ele>531.0</ele><time>2026-05-02T10:06:34Z</time></trkpt><trkpt lat="43.71765120449931" lon="11.880103031231238"><ele>531.0</ele><time>2026-05-02T10:06:36Z</time></trkpt><trkpt lat="43.71772443893937" lon="11.880203671572191"><ele>531.0</ele><time>2026-05-02T10:06:38Z</time></trkpt><trkpt lat="43.71778081772214" lon="11.8803080944069"><ele>531.0</ele><time>2026-05-02T10:06:40Z</time></trkpt><trkpt lat="43.717803049819004" lon="11.880450948218897"><ele>535.1666666666666</ele><time>2026-05-02T10:06:42Z</time></trkpt><trkpt lat="43.71782349961708" lon="11.880542775269735"><ele>539.3333333333334</ele><time>2026-05-02T10:06:44Z</time></trkpt><trkpt lat="43.71787407353855" lon="11.8806471877591"><ele>543.5</ele><time>2026-05-02T10:06:46Z</time></trkpt><trkpt lat="43.71789042420666" lon="11.880739847967185"><ele>547.6666666666667</ele><time>2026-05-02T10:06:48Z</time></trkpt><trkpt lat="43.71796581064348" lon="11.880862400176765"><ele>551.8333333333334</ele><time>2026-05-02T10:06:50Z</time></trkpt><trkpt lat="43.71799678171127" lon="11.880971221748954"><ele>556.0</ele><time>2026-05-02T10:06:53Z</time></trkpt><trkpt lat="43.718030714721124" lon="11.881052924620109"><ele>556.1666666666667</ele><time>2026-05-02T10:06:56Z</time></trkpt><trkpt lat="43.718089161222785" lon="11.881143503625074"><ele>556.3333333333334</ele><time>2026-05-02T10:06:59Z</time></trkpt><trkpt lat="43.71813635193218" lon="11.881226192741432"><ele>556.5</ele><time>2026-05-02T10:07:02Z</time></trkpt><trkpt lat="43.71820069846596" lon="11.881300621053631"><ele>556.6666666666666</ele><time>2026-05-02T10:07:04Z</time></trkpt><trkpt lat="43.718234404748124" lon="11.881420491633339"><ele>556.8333333333333</ele><time>2026-05-02T10:07:06Z</time></trkpt><trkpt lat="43.71829447827618" lon="11.8814785380789"><ele>557.0</ele><time>2026-05-02T10:07:08Z</time></trkpt><trkpt lat="43.71835097387547" lon="11.881547144783113"><ele>557.0</ele><time>2026-05-02T10:07:10Z</time></trkpt><trkpt lat="43.718390140843894" lon="11.881649633079693"><ele>557.0</ele><time>2026-05-02T10:07:12Z</time></trkpt><trkpt lat="43.71845679441695" lon="11.88172633254864"><ele>557.0</ele><time>2026-05-02T10:07:14Z</time></trkpt><trkpt lat="43.718516825754755" lon="11.881786118129341"><ele>557.0</ele><time>2026-05-02T10:07:15Z</time></trkpt><trkpt lat="43.7185604688794" lon="11.881850292511968"><ele>557.0</ele><time>2026-05-02T10:07:16Z</time></trkpt><trkpt lat="43.718638009503195" lon="11.881972276278196"><ele>557.0</ele><time>2026-05-02T10:07:18Z</time></trkpt><trkpt lat="43.71869221830348" lon="11.882036251228042"><ele>560.0</ele><time>2026-05-02T10:07:19Z</time></trkpt><trkpt lat="43.71875771566707" lon="11.88214654172739"><ele>563.0</ele><time>2026-05-02T10:07:21Z</time></trkpt><trkpt lat="43.71884398276532" lon="11.882267481794702"><ele>566.0</ele><time>2026-05-02T10:07:23Z</time></trkpt><trkpt lat="43.71888448949283" lon="11.882334976540198"><ele>569.0</ele><time>2026-05-02T10:07:24Z</time></trkpt><trkpt lat="43.718939910955164" lon="11.882430726539491"><ele>572.0</ele><time>2026-05-02T10:07:26Z</time></trkpt><trkpt lat="43.71893540657985" lon="11.882557539792943"><ele>576.0</ele><time>2026-05-02T10:07:28Z</time></trkpt><trkpt lat="43.718923663223975" lon="11.882643147687636"><ele>580.0</ele><time>2026-05-02T10:07:30Z</time></trkpt><trkpt lat="43.71890078846904" lon="11.882734626364806"><ele>584.0</ele><time>2026-05-02T10:07:45Z</time></trkpt><trkpt lat="43.718893509641354" lon="11.882873765652928"><ele>588.0</ele><time>2026-05-02T10:07:47Z</time></trkpt><trkpt lat="43.7188690055071" lon="11.883022910707345"><ele>592.0</ele><time>2026-05-02T10:07:49Z</time></trkpt><trkpt lat="43.71882103894817" lon="11.88315313500943"><ele>592.0</ele><time>2026-05-02T10:07:51Z</time></trkpt><trkpt lat="43.71875165381676" lon="11.883235028407961"><ele>592.0</ele><time>2026-05-02T10:07:53Z</time></trkpt><trkpt lat="43.71871272522016" lon="11.88334978491191"><ele>592.0</ele><time>2026-05-02T10:07:55Z</time></trkpt><trkpt lat="43.71867573849093" lon="11.883422497411305"><ele>592.0</ele><time>2026-05-02T10:07:56Z</time></trkpt><trkpt lat="43.71870606788936" lon="11.883537711653089"><ele>592.0</ele><time>2026-05-02T10:07:59Z</time></trkpt><trkpt lat="43.71877130928163" lon="11.883551296871127"><ele>592.0</ele><time>2026-05-02T10:08:00Z</time></trkpt><trkpt lat="43.718848414811504" lon="11.88354270305418"><ele>595.4</ele><time>2026-05-02T10:08:02Z</time></trkpt><trkpt lat="43.71893460425799" lon="11.883531949325496"><ele>598.8000000000001</ele><time>2026-05-02T10:08:04Z</time></trkpt><trkpt lat="43.719005751236416" lon="11.883555845686724"><ele>602.2</ele><time>2026-05-02T10:08:06Z</time></trkpt><trkpt lat="43.719119868071616" lon="11.883594972349098"><ele>605.6</ele><time>2026-05-02T10:08:08Z</time></trkpt><trkpt lat="43.719219225720636" lon="11.883650297757173"><ele>609.0</ele><time>2026-05-02T10:08:10Z</time></trkpt><trkpt lat="43.71926448155951" lon="11.883783170137194"><ele>609.0</ele><time>2026-05-02T10:08:12Z</time></trkpt><trkpt lat="43.71924754163462" lon="11.883867823191576"><ele>609.0</ele><time>2026-05-02T10:08:13Z</time></trkpt><trkpt lat="43.71919670729007" lon="11.883919347821255"><ele>609.0</ele><time>2026-05-02T10:08:15Z</time></trkpt><trkpt lat="43.71913892194666" lon="11.883984363520321"><ele>609.0</ele><time>2026-05-02T10:08:16Z</time></trkpt><trkpt lat="43.719069741964425" lon="11.883994382546131"><ele>609.0</ele><time>2026-05-02T10:08:17Z</time></trkpt><trkpt lat="43.71899080997973" lon="11.884013608374275"><ele>609.0</ele><time>2026-05-02T10:08:19Z</time></trkpt><trkpt lat="43.718907274043005" lon="11.884038480371455"><ele>609.0</ele><time>2026-05-02T10:08:21Z</time></trkpt><trkpt lat="43.718829203487346" lon="11.884065642486743"><ele>609.0</ele><time>2026-05-02T10:08:22Z</time></trkpt><trkpt lat="43.71875787166622" lon="11.884083440428135"><ele>609.0</ele><time>2026-05-02T10:08:24Z</time></trkpt><trkpt lat="43.7186853504851" lon="11.884105902610912"><ele>609.0</ele><time>2026-05-02T10:08:26Z</time></trkpt><trkpt lat="43.718602388866174" lon="11.884200019074813"><ele>609.0</ele><time>2026-05-02T10:08:28Z</time></trkpt><trkpt lat="43.71854029012311" lon="11.884218251907145"><ele>609.0</ele><time>2026-05-02T10:08:29Z</time></trkpt><trkpt lat="43.71847562774975" lon="11.88429800661"><ele>609.0</ele><time>2026-05-02T10:08:31Z</time></trkpt><trkpt lat="43.71842999691653" lon="11.884382012648471"><ele>612.1666666666666</ele><time>2026-05-02T10:08:33Z</time></trkpt><trkpt lat="43.71836498218996" lon="11.884460669734825"><ele>615.3333333333334</ele><time>2026-05-02T10:08:34Z</time></trkpt><trkpt lat="43.71829915793168" lon="11.88454346540282"><ele>618.5</ele><time>2026-05-02T10:08:36Z</time></trkpt><trkpt lat="43.71831882335166" lon="11.884657263300937"><ele>621.6666666666667</ele><time>2026-05-02T10:08:38Z</time></trkpt><trkpt lat="43.7183848429179" lon="11.884686918196532"><ele>624.8333333333334</ele><time>2026-05-02T10:08:40Z</time></trkpt><trkpt lat="43.71845154514495" lon="11.884687276176605"><ele>628.0</ele><time>2026-05-02T10:08:42Z</time></trkpt><trkpt lat="43.71853717011624" lon="11.884741253500069"><ele>627.1999999999999</ele><time>2026-05-02T10:08:44Z</time></trkpt><trkpt lat="43.718575605549994" lon="11.884838059645721"><ele>626.4</ele><time>2026-05-02T10:08:46Z</time></trkpt><trkpt lat="43.71862110122195" lon="11.884937594443885"><ele>625.5999999999999</ele><time>2026-05-02T10:08:48Z</time></trkpt><trkpt lat="43.71869507562374" lon="11.885021854307764"><ele>624.8</ele><time>2026-05-02T10:08:50Z</time></trkpt><trkpt lat="43.71873971874587" lon="11.885159708825693"><ele>624.0</ele><time>2026-05-02T10:08:53Z</time></trkpt><trkpt lat="43.7187793058808" lon="11.885270721831668"><ele>627.1666666666666</ele><time>2026-05-02T10:08:55Z</time></trkpt><trkpt lat="43.718745098356585" lon="11.885368716034016"><ele>630.3333333333334</ele><time>2026-05-02T10:08:59Z</time></trkpt><trkpt lat="43.718758480115326" lon="11.885472133397103"><ele>633.5</ele><time>2026-05-02T10:09:02Z</time></trkpt><trkpt lat="43.71879543907943" lon="11.885572999194192"><ele>636.6666666666667</ele><time>2026-05-02T10:09:05Z</time></trkpt><trkpt lat="43.718761459641605" lon="11.885692251460895"><ele>639.8333333333334</ele><time>2026-05-02T10:09:08Z</time></trkpt><trkpt lat="43.7187449103551" lon="11.88578800446925"><ele>643.0</ele><time>2026-05-02T10:09:10Z</time></trkpt><trkpt lat="43.718731256611555" lon="11.885875565544621"><ele>646.8</ele><time>2026-05-02T10:09:12Z</time></trkpt><trkpt lat="43.7187521144485" lon="11.886020155609817"><ele>650.5999999999999</ele><time>2026-05-02T10:09:15Z</time></trkpt><trkpt lat="43.71876677748032" lon="11.886116165980495"><ele>654.4000000000001</ele><time>2026-05-02T10:09:17Z</time></trkpt><trkpt lat="43.718783027586916" lon="11.886244682183433"><ele>658.2</ele><time>2026-05-02T10:09:19Z</time></trkpt><trkpt lat="43.71882219669636" lon="11.88635608310897"><ele>662.0</ele><time>2026-05-02T10:09:21Z</time></trkpt><trkpt lat="43.71885496934904" lon="11.886495093218748"><ele>662.0</ele><time>2026-05-02T10:09:24Z</time></trkpt><trkpt lat="43.71888123008954" lon="11.88658815663704"><ele>662.0</ele><time>2026-05-02T10:09:25Z</time></trkpt><trkpt lat="43.71888439916715" lon="11.88667739830691"><ele>662.0</ele><time>2026-05-02T10:09:26Z</time></trkpt><trkpt lat="43.718894129522916" lon="11.88676646706289"><ele>662.0</ele><time>2026-05-02T10:09:27Z</time></trkpt><trkpt lat="43.7189009101656" lon="11.886856989244722"><ele>662.0</ele><time>2026-05-02T10:09:28Z</time></trkpt><trkpt lat="43.71890600911143" lon="11.886950610268977"><ele>662.0</ele><time>2026-05-02T10:09:29Z</time></trkpt><trkpt lat="43.7189138121312" lon="11.887107152545342"><ele>662.0</ele><time>2026-05-02T10:09:31Z</time></trkpt><trkpt lat="43.71894096562994" lon="11.88722407510622"><ele>665.0</ele><time>2026-05-02T10:09:33Z</time></trkpt><trkpt lat="43.71899460596253" lon="11.887327930368434"><ele>668.0</ele><time>2026-05-02T10:09:35Z</time></trkpt><trkpt lat="43.719081297169865" lon="11.887412626434083"><ele>671.0</ele><time>2026-05-02T10:09:37Z</time></trkpt><trkpt lat="43.71915241357089" lon="11.887513617904174"><ele>674.0</ele><time>2026-05-02T10:09:39Z</time></trkpt><trkpt lat="43.71921015658502" lon="11.887602993117955"><ele>677.0</ele><time>2026-05-02T10:09:41Z</time></trkpt><trkpt lat="43.719273708897276" lon="11.887686405313882"><ele>679.4000000000001</ele><time>2026-05-02T10:09:43Z</time></trkpt><trkpt lat="43.719337399086506" lon="11.887801294229602"><ele>681.8000000000001</ele><time>2026-05-02T10:09:45Z</time></trkpt><trkpt lat="43.71937139940377" lon="11.887936129230773"><ele>684.2</ele><time>2026-05-02T10:09:47Z</time></trkpt><trkpt lat="43.71937274526043" lon="11.88804787127582"><ele>686.6</ele><time>2026-05-02T10:09:49Z</time></trkpt><trkpt lat="43.719327466346705" lon="11.888147105747306"><ele>689.0</ele><time>2026-05-02T10:09:51Z</time></trkpt><trkpt lat="43.719294956526994" lon="11.888275450683718"><ele>689.0</ele><time>2026-05-02T10:09:53Z</time></trkpt><trkpt lat="43.719279902499814" lon="11.888407557703804"><ele>689.0</ele><time>2026-05-02T10:09:55Z</time></trkpt><trkpt lat="43.71927545001033" lon="11.888528538112109"><ele>689.0</ele><time>2026-05-02T10:09:57Z</time></trkpt><trkpt lat="43.71929600561383" lon="11.888628903780777"><ele>689.0</ele><time>2026-05-02T10:09:59Z</time></trkpt><trkpt lat="43.71932697893651" lon="11.888749864960664"><ele>689.0</ele><time>2026-05-02T10:10:01Z</time></trkpt><trkpt lat="43.719336616863" lon="11.88886144147293"><ele>689.0</ele><time>2026-05-02T10:10:03Z</time></trkpt><trkpt lat="43.719339188661834" lon="11.88895135981898"><ele>692.1666666666666</ele><time>2026-05-02T10:10:05Z</time></trkpt><trkpt lat="43.71933608286091" lon="11.889044424088477"><ele>695.3333333333333</ele><time>2026-05-02T10:10:07Z</time></trkpt><trkpt lat="43.71936335457424" lon="11.889150072682863"><ele>698.5</ele><time>2026-05-02T10:10:09Z</time></trkpt><trkpt lat="43.71935861159754" lon="11.889249638877581"><ele>701.6666666666666</ele><time>2026-05-02T10:10:11Z</time></trkpt><trkpt lat="43.71931980580326" lon="11.889358556819497"><ele>704.8333333333334</ele><time>2026-05-02T10:10:13Z</time></trkpt><trkpt lat="43.719288847168464" lon="11.889467747048622"><ele>708.0</ele><time>2026-05-02T10:10:15Z</time></trkpt><trkpt lat="43.719324670700644" lon="11.889624200731838"><ele>710.4</ele><time>2026-05-02T10:10:19Z</time></trkpt><trkpt lat="43.71932182439208" lon="11.889744761068588"><ele>712.8</ele><time>2026-05-02T10:10:21Z</time></trkpt><trkpt lat="43.7192786700535" lon="11.889885113678906"><ele>715.2</ele><time>2026-05-02T10:10:24Z</time></trkpt><trkpt lat="43.71920958191141" lon="11.890009067279605"><ele>717.6</ele><time>2026-05-02T10:10:26Z</time></trkpt><trkpt lat="43.71917542473081" lon="11.890109151938738"><ele>720.0</ele><time>2026-05-02T10:10:28Z</time></trkpt><trkpt lat="43.719148548488846" lon="11.890211171346822"><ele>720.4</ele><time>2026-05-02T10:10:31Z</time></trkpt><trkpt lat="43.719110480093946" lon="11.890333830898015"><ele>720.8</ele><time>2026-05-02T10:10:34Z</time></trkpt><trkpt lat="43.71909593691374" lon="11.890454607347246"><ele>721.2</ele><time>2026-05-02T10:10:35Z</time></trkpt><trkpt lat="43.71907924991148" lon="11.890553714544767"><ele>721.6</ele><time>2026-05-02T10:10:36Z</time></trkpt><trkpt lat="43.719056828317" lon="11.890704384552054"><ele>722.0</ele><time>2026-05-02T10:10:38Z</time></trkpt><trkpt lat="43.71903688605813" lon="11.890853987719373"><ele>722.8</ele><time>2026-05-02T10:10:40Z</time></trkpt><trkpt lat="43.719019192878775" lon="11.89094048512449"><ele>723.6</ele><time>2026-05-02T10:10:41Z</time></trkpt><trkpt lat="43.718973701148215" lon="11.891084433959156"><ele>724.4</ele><time>2026-05-02T10:10:43Z</time></trkpt><trkpt lat="43.71892621137578" lon="11.891207048445937"><ele>725.1999999999999</ele><time>2026-05-02T10:10:45Z</time></trkpt><trkpt lat="43.71885153320269" lon="11.891332716385149"><ele>726.0</ele><time>2026-05-02T10:10:47Z</time></trkpt><trkpt lat="43.71878159001952" lon="11.891438282419102"><ele>726.0</ele><time>2026-05-02T10:10:49Z</time></trkpt><trkpt lat="43.718709063246436" lon="11.89154079690923"><ele>726.0</ele><time>2026-05-02T10:10:51Z</time></trkpt><trkpt lat="43.71862441572606" lon="11.891609494031723"><ele>726.0</ele><time>2026-05-02T10:10:53Z</time></trkpt><trkpt lat="43.718553810725126" lon="11.891713367062408"><ele>726.0</ele><time>2026-05-02T10:10:55Z</time></trkpt><trkpt lat="43.718489664689066" lon="11.891818806828992"><ele>726.0</ele><time>2026-05-02T10:10:57Z</time></trkpt><trkpt lat="43.7184109200379" lon="11.891936634592174"><ele>730.4</ele><time>2026-05-02T10:10:59Z</time></trkpt><trkpt lat="43.71837607197441" lon="11.892017593970943"><ele>734.8</ele><time>2026-05-02T10:11:00Z</time></trkpt><trkpt lat="43.71833533640642" lon="11.892086145338533"><ele>739.1999999999999</ele><time>2026-05-02T10:11:01Z</time></trkpt><trkpt lat="43.718237642093854" lon="11.892180235101142"><ele>743.5999999999999</ele><time>2026-05-02T10:11:03Z</time></trkpt><trkpt lat="43.71817056329214" lon="11.892275098838915"><ele>748.0</ele><time>2026-05-02T10:11:05Z</time></trkpt><trkpt lat="43.71810980502487" lon="11.89239219902727"><ele>748.0</ele><time>2026-05-02T10:11:07Z</time></trkpt><trkpt lat="43.718068890153816" lon="11.8924921286295"><ele>748.0</ele><time>2026-05-02T10:11:09Z</time></trkpt><trkpt lat="43.71807829918808" lon="11.892611956670516"><ele>748.0</ele><time>2026-05-02T10:12:17Z</time></trkpt><trkpt lat="43.718099293614394" lon="11.892742415027453"><ele>748.0</ele><time>2026-05-02T10:12:19Z</time></trkpt><trkpt lat="43.71811693587947" lon="11.89286925641083"><ele>748.0</ele><time>2026-05-02T10:12:21Z</time></trkpt><trkpt lat="43.718118723054445" lon="11.892992874860234"><ele>748.0</ele><time>2026-05-02T10:12:23Z</time></trkpt><trkpt lat="43.71810255030165" lon="11.893125456345492"><ele>747.8</ele><time>2026-05-02T10:12:25Z</time></trkpt><trkpt lat="43.71807556241941" lon="11.893287085411915"><ele>747.5999999999999</ele><time>2026-05-02T10:12:27Z</time></trkpt><trkpt lat="43.718022734598826" lon="11.893420486206074"><ele>747.4000000000001</ele><time>2026-05-02T10:12:29Z</time></trkpt><trkpt lat="43.717954183071775" lon="11.893553089299226"><ele>747.2</ele><time>2026-05-02T10:12:31Z</time></trkpt><trkpt lat="43.71791328542964" lon="11.893637029559164"><ele>747.0</ele><time>2026-05-02T10:12:32Z</time></trkpt><trkpt lat="43.71787330991187" lon="11.893713280677643"><ele>747.2</ele><time>2026-05-02T10:12:33Z</time></trkpt><trkpt lat="43.717857818023646" lon="11.893802331520133"><ele>747.4000000000001</ele><time>2026-05-02T10:12:34Z</time></trkpt><trkpt lat="43.71781064282177" lon="11.893977117561464"><ele>747.5999999999999</ele><time>2026-05-02T10:12:36Z</time></trkpt><trkpt lat="43.71774525636324" lon="11.894122961315928"><ele>747.8</ele><time>2026-05-02T10:12:38Z</time></trkpt><trkpt lat="43.717703233771786" lon="11.89419076351386"><ele>748.0</ele><time>2026-05-02T10:12:39Z</time></trkpt><trkpt lat="43.7176503468283" lon="11.894256823671599"><ele>749.8</ele><time>2026-05-02T10:12:40Z</time></trkpt><trkpt lat="43.71757013733664" lon="11.894381157126235"><ele>751.5999999999999</ele><time>2026-05-02T10:12:42Z</time></trkpt><trkpt lat="43.71754174663171" lon="11.894473593220903"><ele>753.4000000000001</ele><time>2026-05-02T10:12:43Z</time></trkpt><trkpt lat="43.71746228649804" lon="11.894611542930104"><ele>755.2</ele><time>2026-05-02T10:12:45Z</time></trkpt><trkpt lat="43.717410883554244" lon="11.894729220781944"><ele>757.0</ele><time>2026-05-02T10:12:47Z</time></trkpt><trkpt lat="43.71735120904542" lon="11.894842494080915"><ele>757.0</ele><time>2026-05-02T10:12:49Z</time></trkpt><trkpt lat="43.717304132716215" lon="11.89490137460412"><ele>757.0</ele><time>2026-05-02T10:12:50Z</time></trkpt><trkpt lat="43.71724503721602" lon="11.894955881644217"><ele>757.0</ele><time>2026-05-02T10:12:51Z</time></trkpt><trkpt lat="43.71721516231702" lon="11.895042693287573"><ele>757.0</ele><time>2026-05-02T10:12:52Z</time></trkpt><trkpt lat="43.717195846083676" lon="11.895139673348083"><ele>757.0</ele><time>2026-05-02T10:12:53Z</time></trkpt><trkpt lat="43.717179647681114" lon="11.895224087212686"><ele>757.0</ele><time>2026-05-02T10:12:54Z</time></trkpt><trkpt lat="43.717130288618186" lon="11.89533642351335"><ele>757.0</ele><time>2026-05-02T10:12:56Z</time></trkpt><trkpt lat="43.717095037457376" lon="11.89541869210365"><ele>758.6</ele><time>2026-05-02T10:12:57Z</time></trkpt><trkpt lat="43.717017787761826" lon="11.895506985016643"><ele>760.2</ele><time>2026-05-02T10:12:59Z</time></trkpt><trkpt lat="43.71692489672328" lon="11.895583380233415"><ele>761.8</ele><time>2026-05-02T10:13:01Z</time></trkpt><trkpt lat="43.71681910673426" lon="11.89572719095883"><ele>763.4</ele><time>2026-05-02T10:13:04Z</time></trkpt><trkpt lat="43.71674080245593" lon="11.895759905544226"><ele>765.0</ele><time>2026-05-02T10:13:06Z</time></trkpt><trkpt lat="43.71665709495792" lon="11.895842672805701"><ele>767.4</ele><time>2026-05-02T10:13:08Z</time></trkpt><trkpt lat="43.71658112457617" lon="11.895896104301334"><ele>769.8</ele><time>2026-05-02T10:13:10Z</time></trkpt><trkpt lat="43.716573635166185" lon="11.895996503506677"><ele>772.2</ele><time>2026-05-02T10:13:12Z</time></trkpt><trkpt lat="43.71652126573712" lon="11.896130457303798"><ele>774.6</ele><time>2026-05-02T10:13:14Z</time></trkpt><trkpt lat="43.716494511409124" lon="11.896284068747343"><ele>777.0</ele><time>2026-05-02T10:13:16Z</time></trkpt><trkpt lat="43.716560148412775" lon="11.896365165612586"><ele>778.1666666666666</ele><time>2026-05-02T10:13:17Z</time></trkpt><trkpt lat="43.71661471959949" lon="11.896458754619148"><ele>779.3333333333333</ele><time>2026-05-02T10:13:19Z</time></trkpt><trkpt lat="43.716577398993145" lon="11.896545512612464"><ele>780.5</ele><time>2026-05-02T10:13:20Z</time></trkpt><trkpt lat="43.71659219323994" lon="11.896678990584247"><ele>781.6666666666666</ele><time>2026-05-02T10:13:22Z</time></trkpt><trkpt lat="43.71659902507584" lon="11.896766651925452"><ele>782.8333333333333</ele><time>2026-05-02T10:13:23Z</time></trkpt><trkpt lat="43.71660926260454" lon="11.89686034002988"><ele>784.0</ele><time>2026-05-02T10:13:25Z</time></trkpt><trkpt lat="43.71657883107373" lon="11.896964643600745"><ele>784.4000000000001</ele><time>2026-05-02T10:13:27Z</time></trkpt><trkpt lat="43.71651392365168" lon="11.89711172851869"><ele>784.8</ele><time>2026-05-02T10:13:29Z</time></trkpt><trkpt lat="43.716458978447385" lon="11.897232866984698"><ele>785.2</ele><time>2026-05-02T10:13:31Z</time></trkpt><trkpt lat="43.7164233206213" lon="11.897354203349089"><ele>785.5999999999999</ele><time>2026-05-02T10:13:33Z</time></trkpt><trkpt lat="43.716403415768944" lon="11.897480247365372"><ele>786.0</ele><time>2026-05-02T10:13:35Z</time></trkpt><trkpt lat="43.71636039549337" lon="11.897607289579486"><ele>787.4</ele><time>2026-05-02T10:13:37Z</time></trkpt><trkpt lat="43.71632670641808" lon="11.897736652542529"><ele>788.8</ele><time>2026-05-02T10:13:39Z</time></trkpt><trkpt lat="43.71629301925019" lon="11.897868814111142"><ele>790.1999999999999</ele><time>2026-05-02T10:13:41Z</time></trkpt><trkpt lat="43.716269073792844" lon="11.897974481483729"><ele>791.5999999999999</ele><time>2026-05-02T10:13:43Z</time></trkpt><trkpt lat="43.71623758789405" lon="11.89810811083955"><ele>793.0</ele><time>2026-05-02T10:13:45Z</time></trkpt><trkpt lat="43.716220022494056" lon="11.89819993264786"><ele>793.0</ele><time>2026-05-02T10:13:46Z</time></trkpt><trkpt lat="43.716160432339834" lon="11.898328054459656"><ele>793.0</ele><time>2026-05-02T10:13:48Z</time></trkpt><trkpt lat="43.71610174944172" lon="11.898434869000459"><ele>793.0</ele><time>2026-05-02T10:13:50Z</time></trkpt><trkpt lat="43.716116564306056" lon="11.89859410366978"><ele>793.0</ele><time>2026-05-02T10:13:52Z</time></trkpt><trkpt lat="43.71613501522606" lon="11.898755798779087"><ele>793.0</ele><time>2026-05-02T10:13:54Z</time></trkpt><trkpt lat="43.716167278635936" lon="11.898887049621468"><ele>795.2</ele><time>2026-05-02T10:13:56Z</time></trkpt><trkpt lat="43.716156115585015" lon="11.899038137498458"><ele>797.4</ele><time>2026-05-02T10:13:58Z</time></trkpt><trkpt lat="43.71609328283939" lon="11.89910878343552"><ele>799.6</ele><time>2026-05-02T10:14:00Z</time></trkpt><trkpt lat="43.71597959366356" lon="11.899131915950461"><ele>801.8000000000001</ele><time>2026-05-02T10:14:02Z</time></trkpt><trkpt lat="43.71588671452913" lon="11.899226922009337"><ele>804.0</ele><time>2026-05-02T10:14:04Z</time></trkpt><trkpt lat="43.715828736602404" lon="11.899352405065336"><ele>806.1666666666666</ele><time>2026-05-02T10:14:07Z</time></trkpt><trkpt lat="43.715819774282245" lon="11.899470932347866"><ele>808.3333333333333</ele><time>2026-05-02T10:14:09Z</time></trkpt><trkpt lat="43.71579063777337" lon="11.899553635298625"><ele>810.5</ele><time>2026-05-02T10:14:11Z</time></trkpt><trkpt lat="43.715738805324506" lon="11.899627344068866"><ele>812.6666666666666</ele><time>2026-05-02T10:14:13Z</time></trkpt><trkpt lat="43.71566223564357" lon="11.899717019321319"><ele>814.8333333333333</ele><time>2026-05-02T10:14:15Z</time></trkpt><trkpt lat="43.71559540285772" lon="11.899819626146526"><ele>817.0</ele><time>2026-05-02T10:14:17Z</time></trkpt><trkpt lat="43.715510352606" lon="11.899932697970993"><ele>817.0</ele><time>2026-05-02T10:14:19Z</time></trkpt><trkpt lat="43.71544156181623" lon="11.900077334933775"><ele>817.0</ele><time>2026-05-02T10:14:21Z</time></trkpt><trkpt lat="43.71538410026493" lon="11.90020543365106"><ele>817.0</ele><time>2026-05-02T10:14:23Z</time></trkpt><trkpt lat="43.715318438852535" lon="11.900334299611313"><ele>817.0</ele><time>2026-05-02T10:14:25Z</time></trkpt><trkpt lat="43.71525995353146" lon="11.900446015631859"><ele>817.0</ele><time>2026-05-02T10:14:27Z</time></trkpt><trkpt lat="43.71517992120207" lon="11.900559812434667"><ele>816.4999999999999</ele><time>2026-05-02T10:14:29Z</time></trkpt><trkpt lat="43.715137535050225" lon="11.900633252915226"><ele>816.0</ele><time>2026-05-02T10:14:30Z</time></trkpt><trkpt lat="43.715096269871474" lon="11.900699648577424"><ele>815.5</ele><time>2026-05-02T10:14:31Z</time></trkpt><trkpt lat="43.715055317077486" lon="11.900766287425402"><ele>815.0</ele><time>2026-05-02T10:14:32Z</time></trkpt><trkpt lat="43.71496701182483" lon="11.900870942534581"><ele>814.4999999999999</ele><time>2026-05-02T10:14:34Z</time></trkpt><trkpt lat="43.71492798550973" lon="11.900948683617127"><ele>814.0</ele><time>2026-05-02T10:14:35Z</time></trkpt><trkpt lat="43.71485951475202" lon="11.901092625199801"><ele>814.0</ele><time>2026-05-02T10:14:37Z</time></trkpt><trkpt lat="43.714789437679535" lon="11.901205751268803"><ele>814.0</ele><time>2026-05-02T10:14:39Z</time></trkpt><trkpt lat="43.71470096576636" lon="11.901324736066762"><ele>814.0</ele><time>2026-05-02T10:14:41Z</time></trkpt><trkpt lat="43.71462466050523" lon="11.901467577727864"><ele>814.0</ele><time>2026-05-02T10:14:43Z</time></trkpt><trkpt lat="43.71457767976047" lon="11.901608105891624"><ele>813.8000000000001</ele><time>2026-05-02T10:14:45Z</time></trkpt><trkpt lat="43.71450627867036" lon="11.901767787209286"><ele>813.6</ele><time>2026-05-02T10:14:47Z</time></trkpt><trkpt lat="43.71446824688646" lon="11.901861304180423"><ele>813.4</ele><time>2026-05-02T10:14:48Z</time></trkpt><trkpt lat="43.71442341040454" lon="11.901941329856031"><ele>813.2</ele><time>2026-05-02T10:14:49Z</time></trkpt><trkpt lat="43.714392066806184" lon="11.902087724899124"><ele>813.0</ele><time>2026-05-02T10:14:51Z</time></trkpt><trkpt lat="43.71436644851896" lon="11.902174800322769"><ele>815.8333333333334</ele><time>2026-05-02T10:14:52Z</time></trkpt><trkpt lat="43.71432049159987" lon="11.902266054378762"><ele>818.6666666666667</ele><time>2026-05-02T10:14:53Z</time></trkpt><trkpt lat="43.71423444695988" lon="11.90231437586377"><ele>821.5</ele><time>2026-05-02T10:14:55Z</time></trkpt><trkpt lat="43.71415268736527" lon="11.902268806693582"><ele>824.3333333333334</ele><time>2026-05-02T10:14:57Z</time></trkpt><trkpt lat="43.71408190834467" lon="11.902220185338319"><ele>827.1666666666667</ele><time>2026-05-02T10:14:58Z</time></trkpt><trkpt lat="43.71399084968714" lon="11.90221571322848"><ele>830.0</ele><time>2026-05-02T10:14:59Z</time></trkpt><trkpt lat="43.713906494274084" lon="11.902218352340812"><ele>830.0</ele><time>2026-05-02T10:15:00Z</time></trkpt><trkpt lat="43.71383568351273" lon="11.902221532373432"><ele>830.0</ele><time>2026-05-02T10:15:01Z</time></trkpt><trkpt lat="43.71376536009292" lon="11.902223643079653"><ele>830.0</ele><time>2026-05-02T10:15:02Z</time></trkpt><trkpt lat="43.71369638616007" lon="11.902202504428464"><ele>830.0</ele><time>2026-05-02T10:15:03Z</time></trkpt><trkpt lat="43.71363221916651" lon="11.902165466102542"><ele>830.0</ele><time>2026-05-02T10:15:04Z</time></trkpt><trkpt lat="43.71356528785775" lon="11.902133095542565"><ele>830.0</ele><time>2026-05-02T10:15:05Z</time></trkpt><trkpt lat="43.71350061920117" lon="11.902128250937416"><ele>830.0</ele><time>2026-05-02T10:15:06Z</time></trkpt><trkpt lat="43.71337434704437" lon="11.902147854269314"><ele>832.0</ele><time>2026-05-02T10:15:08Z</time></trkpt><trkpt lat="43.71328423823546" lon="11.902175111363256"><ele>834.0</ele><time>2026-05-02T10:15:10Z</time></trkpt><trkpt lat="43.7131846154347" lon="11.902187795208038"><ele>836.0</ele><time>2026-05-02T10:15:13Z</time></trkpt><trkpt lat="43.713061783378684" lon="11.902209338500567"><ele>838.0</ele><time>2026-05-02T10:15:15Z</time></trkpt><trkpt lat="43.712961843429284" lon="11.902231032952646"><ele>840.0</ele><time>2026-05-02T10:15:17Z</time></trkpt><trkpt lat="43.71287336506911" lon="11.902237601982"><ele>840.0</ele><time>2026-05-02T10:15:19Z</time></trkpt><trkpt lat="43.71277693369732" lon="11.902287079872178"><ele>840.0</ele><time>2026-05-02T10:15:21Z</time></trkpt><trkpt lat="43.712709475350636" lon="11.902377227469609"><ele>840.0</ele><time>2026-05-02T10:15:23Z</time></trkpt><trkpt lat="43.71264812236451" lon="11.902515418471841"><ele>840.0</ele><time>2026-05-02T10:15:25Z</time></trkpt><trkpt lat="43.712571072826215" lon="11.90262212595346"><ele>840.0</ele><time>2026-05-02T10:15:27Z</time></trkpt><trkpt lat="43.71247286382256" lon="11.9027204432301"><ele>840.6</ele><time>2026-05-02T10:15:29Z</time></trkpt><trkpt lat="43.712368141364855" lon="11.902734776494794"><ele>841.2</ele><time>2026-05-02T10:15:31Z</time></trkpt><trkpt lat="43.71227367006487" lon="11.902774244969583"><ele>841.8</ele><time>2026-05-02T10:15:33Z</time></trkpt><trkpt lat="43.712164322464425" lon="11.902860782933825"><ele>842.4</ele><time>2026-05-02T10:15:35Z</time></trkpt><trkpt lat="43.7120713795584" lon="11.902922276893174"><ele>843.0</ele><time>2026-05-02T10:15:37Z</time></trkpt><trkpt lat="43.712008555492844" lon="11.902980858924137"><ele>843.0</ele><time>2026-05-02T10:15:39Z</time></trkpt><trkpt lat="43.71197297482502" lon="11.90306421148863"><ele>843.0</ele><time>2026-05-02T10:15:40Z</time></trkpt><trkpt lat="43.71191598944209" lon="11.903176321615092"><ele>843.0</ele><time>2026-05-02T10:15:42Z</time></trkpt><trkpt lat="43.71186333887699" lon="11.903248387296507"><ele>843.0</ele><time>2026-05-02T10:15:45Z</time></trkpt><trkpt lat="43.711770054571794" lon="11.903329469741028"><ele>843.0</ele><time>2026-05-02T10:15:59Z</time></trkpt><trkpt lat="43.71166018987203" lon="11.903364795846333"><ele>844.8</ele><time>2026-05-02T10:16:01Z</time></trkpt><trkpt lat="43.7115471789128" lon="11.903383939513969"><ele>846.5999999999999</ele><time>2026-05-02T10:16:03Z</time></trkpt><trkpt lat="43.71147364069742" lon="11.903390794146631"><ele>848.4000000000001</ele><time>2026-05-02T10:16:04Z</time></trkpt><trkpt lat="43.711407441161434" lon="11.903383489179737"><ele>850.2</ele><time>2026-05-02T10:16:05Z</time></trkpt><trkpt lat="43.71134045364719" lon="11.90336901102858"><ele>852.0</ele><time>2026-05-02T10:16:06Z</time></trkpt><trkpt lat="43.711208557839065" lon="11.903360019615082"><ele>852.0</ele><time>2026-05-02T10:16:08Z</time></trkpt><trkpt lat="43.711104429090696" lon="11.903404398138914"><ele>852.0</ele><time>2026-05-02T10:16:10Z</time></trkpt><trkpt lat="43.711004119600204" lon="11.903508897485006"><ele>852.0</ele><time>2026-05-02T10:16:12Z</time></trkpt><trkpt lat="43.71090184915691" lon="11.903606005567257"><ele>852.0</ele><time>2026-05-02T10:16:14Z</time></trkpt><trkpt lat="43.71081917294451" lon="11.903733690056834"><ele>854.0</ele><time>2026-05-02T10:16:16Z</time></trkpt><trkpt lat="43.710757625039065" lon="11.903888594398989"><ele>856.0</ele><time>2026-05-02T10:16:18Z</time></trkpt><trkpt lat="43.710699678761856" lon="11.904021511953772"><ele>858.0</ele><time>2026-05-02T10:16:20Z</time></trkpt><trkpt lat="43.710685215003544" lon="11.904155632199334"><ele>860.0</ele><time>2026-05-02T10:16:22Z</time></trkpt><trkpt lat="43.71071924749098" lon="11.90430613604673"><ele>860.3333333333334</ele><time>2026-05-02T10:16:24Z</time></trkpt><trkpt lat="43.71074708292842" lon="11.904386263540575"><ele>860.6666666666667</ele><time>2026-05-02T10:16:28Z</time></trkpt><trkpt lat="43.710778640732265" lon="11.904482487085742"><ele>861.0</ele><time>2026-05-02T10:16:31Z</time></trkpt><trkpt lat="43.71081695264515" lon="11.904598810800918"><ele>861.3333333333333</ele><time>2026-05-02T10:16:33Z</time></trkpt><trkpt lat="43.71081940506382" lon="11.90468758441054"><ele>861.6666666666666</ele><time>2026-05-02T10:16:35Z</time></trkpt><trkpt lat="43.71081624006796" lon="11.904839684868024"><ele>862.0</ele><time>2026-05-02T10:16:37Z</time></trkpt><trkpt lat="43.71080917810208" lon="11.904974508686099"><ele>863.0</ele><time>2026-05-02T10:16:39Z</time></trkpt><trkpt lat="43.71082415603035" lon="11.905090768422625"><ele>864.0</ele><time>2026-05-02T10:16:41Z</time></trkpt><trkpt lat="43.71080415524655" lon="11.905226421161158"><ele>865.0</ele><time>2026-05-02T10:16:43Z</time></trkpt><trkpt lat="43.71072533348913" lon="11.905355934809593"><ele>866.0</ele><time>2026-05-02T10:16:45Z</time></trkpt><trkpt lat="43.71066286387464" lon="11.905489521262874"><ele>867.0</ele><time>2026-05-02T10:16:47Z</time></trkpt><trkpt lat="43.710657824380554" lon="11.905616167109963"><ele>867.0</ele><time>2026-05-02T10:16:49Z</time></trkpt><trkpt lat="43.71065721090871" lon="11.905736910366844"><ele>867.0</ele><time>2026-05-02T10:16:51Z</time></trkpt><trkpt lat="43.710664148019575" lon="11.90583315986827"><ele>867.0</ele><time>2026-05-02T10:16:54Z</time></trkpt><trkpt lat="43.710687287393654" lon="11.905938839243872"><ele>867.0</ele><time>2026-05-02T10:16:58Z</time></trkpt><trkpt lat="43.71072335500161" lon="11.906066035545086"><ele>867.0</ele><time>2026-05-02T10:17:01Z</time></trkpt><trkpt lat="43.710750824175896" lon="11.906191894070789"><ele>867.0</ele><time>2026-05-02T10:17:03Z</time></trkpt><trkpt lat="43.71076192239518" lon="11.906283134459898"><ele>868.2</ele><time>2026-05-02T10:17:04Z</time></trkpt><trkpt lat="43.7107784952266" lon="11.90637090589793"><ele>869.4000000000001</ele><time>2026-05-02T10:17:05Z</time></trkpt><trkpt lat="43.7107807905941" lon="11.906502317098793"><ele>870.5999999999999</ele><time>2026-05-02T10:17:07Z</time></trkpt><trkpt lat="43.710790570727525" lon="11.906645335207754"><ele>871.8</ele><time>2026-05-02T10:17:09Z</time></trkpt><trkpt lat="43.71079965381408" lon="11.90678985794804"><ele>873.0</ele><time>2026-05-02T10:17:11Z</time></trkpt><trkpt lat="43.71080621499407" lon="11.906938299121611"><ele>873.2</ele><time>2026-05-02T10:17:13Z</time></trkpt><trkpt lat="43.71081275500787" lon="11.907079792556834"><ele>873.4</ele><time>2026-05-02T10:17:15Z</time></trkpt><trkpt lat="43.71079305496103" lon="11.907217775036168"><ele>873.6000000000001</ele><time>2026-05-02T10:17:17Z</time></trkpt><trkpt lat="43.71072007970911" lon="11.907346391143731"><ele>873.8000000000001</ele><time>2026-05-02T10:17:19Z</time></trkpt><trkpt lat="43.710674018610234" lon="11.90740923754185"><ele>874.0</ele><time>2026-05-02T10:17:20Z</time></trkpt><trkpt lat="43.71062327323911" lon="11.90746976074518"><ele>874.2</ele><time>2026-05-02T10:17:21Z</time></trkpt><trkpt lat="43.71053693719113" lon="11.907579406434875"><ele>874.4000000000001</ele><time>2026-05-02T10:17:23Z</time></trkpt><trkpt lat="43.710451054690544" lon="11.907679016512175"><ele>874.6</ele><time>2026-05-02T10:17:25Z</time></trkpt><trkpt lat="43.71038513121317" lon="11.907792393754265"><ele>874.8</ele><time>2026-05-02T10:17:27Z</time></trkpt><trkpt lat="43.71032685742493" lon="11.907887858032595"><ele>875.0</ele><time>2026-05-02T10:17:29Z</time></trkpt><trkpt lat="43.710296943459284" lon="11.90802269431442"><ele>875.0000000000001</ele><time>2026-05-02T10:17:31Z</time></trkpt><trkpt lat="43.71029136571512" lon="11.908114286010356"><ele>875.0</ele><time>2026-05-02T10:17:33Z</time></trkpt><trkpt lat="43.710254633988626" lon="11.908217773143994"><ele>875.0</ele><time>2026-05-02T10:18:01Z</time></trkpt><trkpt lat="43.71021925274225" lon="11.908293694594425"><ele>875.0</ele><time>2026-05-02T10:18:02Z</time></trkpt><trkpt lat="43.710157782083215" lon="11.908430713439444"><ele>875.0000000000001</ele><time>2026-05-02T10:18:04Z</time></trkpt><trkpt lat="43.71006291880643" lon="11.90846645039467"><ele>875.0</ele><time>2026-05-02T10:18:06Z</time></trkpt><trkpt lat="43.709983648293516" lon="11.908537668606558"><ele>880.2</ele><time>2026-05-02T10:18:09Z</time></trkpt><trkpt lat="43.709945100463734" lon="11.908623176344552"><ele>885.4</ele><time>2026-05-02T10:18:11Z</time></trkpt><trkpt lat="43.70992340938637" lon="11.908747129351497"><ele>890.5999999999999</ele><time>2026-05-02T10:18:13Z</time></trkpt><trkpt lat="43.70993400114486" lon="11.908878011831575"><ele>895.8</ele><time>2026-05-02T10:18:15Z</time></trkpt><trkpt lat="43.709931924251904" lon="11.909022742953942"><ele>901.0</ele><time>2026-05-02T10:18:17Z</time></trkpt><trkpt lat="43.70994237315475" lon="11.909158087677092"><ele>902.0</ele><time>2026-05-02T10:18:19Z</time></trkpt><trkpt lat="43.70995524864296" lon="11.909291631396865"><ele>902.9999999999999</ele><time>2026-05-02T10:18:21Z</time></trkpt><trkpt lat="43.70997885668096" lon="11.909382881372428"><ele>903.9999999999999</ele><time>2026-05-02T10:18:23Z</time></trkpt><trkpt lat="43.70999110422744" lon="11.90946993339377"><ele>905.0</ele><time>2026-05-02T10:18:25Z</time></trkpt><trkpt lat="43.710003446079234" lon="11.909620100174223"><ele>906.0</ele><time>2026-05-02T10:18:27Z</time></trkpt><trkpt lat="43.710024304891576" lon="11.909791823596326"><ele>906.0</ele><time>2026-05-02T10:18:29Z</time></trkpt><trkpt lat="43.710051053549854" lon="11.909926964242427"><ele>905.9999999999999</ele><time>2026-05-02T10:18:31Z</time></trkpt><trkpt lat="43.7100900967549" lon="11.91005597091525"><ele>905.9999999999999</ele><time>2026-05-02T10:18:33Z</time></trkpt><trkpt lat="43.710138027892974" lon="11.910160310391138"><ele>906.0</ele><time>2026-05-02T10:18:35Z</time></trkpt><trkpt lat="43.71018363145681" lon="11.910220735917655"><ele>906.0</ele><time>2026-05-02T10:18:38Z</time></trkpt><trkpt lat="43.71024340439446" lon="11.910357224429319"><ele>904.6666666666666</ele><time>2026-05-02T10:18:42Z</time></trkpt><trkpt lat="43.71027480024741" lon="11.91043312599779"><ele>903.3333333333333</ele><time>2026-05-02T10:18:43Z</time></trkpt><trkpt lat="43.710284827489076" lon="11.910523691561583"><ele>902.0</ele><time>2026-05-02T10:18:44Z</time></trkpt><trkpt lat="43.71036338479497" lon="11.910641377013441"><ele>900.6666666666666</ele><time>2026-05-02T10:18:46Z</time></trkpt><trkpt lat="43.7103908439561" lon="11.910721174525218"><ele>899.3333333333333</ele><time>2026-05-02T10:18:47Z</time></trkpt><trkpt lat="43.71041763077468" lon="11.91080538622082"><ele>898.0</ele><time>2026-05-02T10:18:48Z</time></trkpt><trkpt lat="43.7104648949003" lon="11.910955034547518"><ele>901.4</ele><time>2026-05-02T10:18:50Z</time></trkpt><trkpt lat="43.710542830481174" lon="11.911077481112512"><ele>904.8</ele><time>2026-05-02T10:18:52Z</time></trkpt><trkpt lat="43.71056061091331" lon="11.911187878052107"><ele>908.2</ele><time>2026-05-02T10:18:53Z</time></trkpt><trkpt lat="43.71060613378772" lon="11.911337456018629"><ele>911.6</ele><time>2026-05-02T10:18:55Z</time></trkpt><trkpt lat="43.710640072201485" lon="11.911420553568403"><ele>915.0</ele><time>2026-05-02T10:18:56Z</time></trkpt><trkpt lat="43.710662712717" lon="11.911509867512361"><ele>915.0</ele><time>2026-05-02T10:18:57Z</time></trkpt><trkpt lat="43.71065863657374" lon="11.91160666160131"><ele>915.0</ele><time>2026-05-02T10:18:58Z</time></trkpt><trkpt lat="43.710670603584845" lon="11.911697343438984"><ele>915.0</ele><time>2026-05-02T10:18:59Z</time></trkpt><trkpt lat="43.7107336588123" lon="11.911835916602149"><ele>915.0</ele><time>2026-05-02T10:19:01Z</time></trkpt><trkpt lat="43.71071248332303" lon="11.911934651632015"><ele>915.0</ele><time>2026-05-02T10:19:03Z</time></trkpt><trkpt lat="43.710642550546766" lon="11.912018139144301"><ele>915.0</ele><time>2026-05-02T10:19:05Z</time></trkpt><trkpt lat="43.710583124087826" lon="11.912102464169179"><ele>918.0</ele><time>2026-05-02T10:19:07Z</time></trkpt><trkpt lat="43.71052830325573" lon="11.912176780679733"><ele>921.0</ele><time>2026-05-02T10:19:09Z</time></trkpt><trkpt lat="43.71046563732128" lon="11.912269199830366"><ele>924.0</ele><time>2026-05-02T10:19:11Z</time></trkpt><trkpt lat="43.71045049303" lon="11.912416602772108"><ele>927.0</ele><time>2026-05-02T10:19:13Z</time></trkpt><trkpt lat="43.71040675696127" lon="11.912528697411595"><ele>930.0</ele><time>2026-05-02T10:19:15Z</time></trkpt><trkpt lat="43.710344050699966" lon="11.912618520942365"><ele>930.8333333333334</ele><time>2026-05-02T10:19:17Z</time></trkpt><trkpt lat="43.71037033677482" lon="11.912698721768987"><ele>931.6666666666667</ele><time>2026-05-02T10:19:19Z</time></trkpt><trkpt lat="43.710393313562" lon="11.912828143800526"><ele>932.5</ele><time>2026-05-02T10:19:21Z</time></trkpt><trkpt lat="43.710397270288894" lon="11.912974394504824"><ele>933.3333333333334</ele><time>2026-05-02T10:19:23Z</time></trkpt><trkpt lat="43.71041065089826" lon="11.91306106306705"><ele>934.1666666666667</ele><time>2026-05-02T10:19:24Z</time></trkpt><trkpt lat="43.710444394926924" lon="11.9132050689685"><ele>935.0</ele><time>2026-05-02T10:19:26Z</time></trkpt><trkpt lat="43.710466068036716" lon="11.913331856126216"><ele>934.3333333333334</ele><time>2026-05-02T10:19:28Z</time></trkpt><trkpt lat="43.71046865496426" lon="11.913440234404181"><ele>933.6666666666667</ele><time>2026-05-02T10:19:30Z</time></trkpt><trkpt lat="43.710422586657366" lon="11.913510787053207"><ele>933.0</ele><time>2026-05-02T10:19:32Z</time></trkpt><trkpt lat="43.710362046762924" lon="11.913596730709113"><ele>932.3333333333333</ele><time>2026-05-02T10:19:38Z</time></trkpt><trkpt lat="43.71029555934142" lon="11.91367223561352"><ele>931.6666666666666</ele><time>2026-05-02T10:19:40Z</time></trkpt><trkpt lat="43.71023359464749" lon="11.913760593330963"><ele>931.0</ele><time>2026-05-02T10:19:42Z</time></trkpt><trkpt lat="43.71017382705704" lon="11.91382260105466"><ele>932.2857142857142</ele><time>2026-05-02T10:19:44Z</time></trkpt><trkpt lat="43.71011843853829" lon="11.913866216983699"><ele>933.5714285714286</ele><time>2026-05-02T10:19:46Z</time></trkpt><trkpt lat="43.71006551391132" lon="11.913920283216676"><ele>934.8571428571429</ele><time>2026-05-02T10:19:51Z</time></trkpt><trkpt lat="43.710040528511676" lon="11.914013219567076"><ele>936.1428571428571</ele><time>2026-05-02T10:19:54Z</time></trkpt><trkpt lat="43.71001421142855" lon="11.914096368701834"><ele>937.4285714285713</ele><time>2026-05-02T10:19:57Z</time></trkpt><trkpt lat="43.70996424069365" lon="11.914163379228954"><ele>938.7142857142857</ele><time>2026-05-02T10:20:00Z</time></trkpt><trkpt lat="43.70989280758559" lon="11.914259039345202"><ele>940.0</ele><time>2026-05-02T10:20:02Z</time></trkpt><trkpt lat="43.70983334646219" lon="11.914351128885112"><ele>940.6666666666666</ele><time>2026-05-02T10:20:04Z</time></trkpt><trkpt lat="43.70979932482701" lon="11.914431726108083"><ele>941.3333333333333</ele><time>2026-05-02T10:20:06Z</time></trkpt><trkpt lat="43.709772399513305" lon="11.914512434060274"><ele>942.0</ele><time>2026-05-02T10:20:08Z</time></trkpt><trkpt lat="43.709756739221646" lon="11.91461910923359"><ele>942.6666666666667</ele><time>2026-05-02T10:20:10Z</time></trkpt><trkpt lat="43.70974857115183" lon="11.914743598898083"><ele>943.3333333333334</ele><time>2026-05-02T10:20:12Z</time></trkpt><trkpt lat="43.70972696250307" lon="11.914850279564371"><ele>944.0</ele><time>2026-05-02T10:20:14Z</time></trkpt><trkpt lat="43.709691199828896" lon="11.914962700031184"><ele>945.0</ele><time>2026-05-02T10:20:16Z</time></trkpt><trkpt lat="43.709667676348104" lon="11.915091492814017"><ele>946.0000000000001</ele><time>2026-05-02T10:20:18Z</time></trkpt><trkpt lat="43.709646627591596" lon="11.915222513164432"><ele>947.0000000000001</ele><time>2026-05-02T10:20:20Z</time></trkpt><trkpt lat="43.7096064613437" lon="11.915358565720933"><ele>948.0</ele><time>2026-05-02T10:20:22Z</time></trkpt><trkpt lat="43.70955836897411" lon="11.915484955411177"><ele>949.0</ele><time>2026-05-02T10:20:24Z</time></trkpt><trkpt lat="43.70952767555126" lon="11.915585921278788"><ele>948.9999999999999</ele><time>2026-05-02T10:20:26Z</time></trkpt><trkpt lat="43.70949033505343" lon="11.915686071629043"><ele>949.0</ele><time>2026-05-02T10:20:29Z</time></trkpt><trkpt lat="43.709453225754984" lon="11.915786407099988"><ele>949.0</ele><time>2026-05-02T10:20:32Z</time></trkpt><trkpt lat="43.70945221561771" lon="11.915889768457344"><ele>949.0</ele><time>2026-05-02T10:20:35Z</time></trkpt><trkpt lat="43.709431630215555" lon="11.916003186810785"><ele>948.9999999999999</ele><time>2026-05-02T10:20:39Z</time></trkpt><trkpt lat="43.7093956540904" lon="11.916108716071147"><ele>949.0</ele><time>2026-05-02T10:20:42Z</time></trkpt><trkpt lat="43.709343134918285" lon="11.916210293612846"><ele>949.2</ele><time>2026-05-02T10:20:44Z</time></trkpt><trkpt lat="43.709296553341126" lon="11.916280370087755"><ele>949.4000000000001</ele><time>2026-05-02T10:20:45Z</time></trkpt><trkpt lat="43.709206548930325" lon="11.916367230340853"><ele>949.6</ele><time>2026-05-02T10:20:47Z</time></trkpt><trkpt lat="43.70912542403795" lon="11.916454242435027"><ele>949.8</ele><time>2026-05-02T10:20:50Z</time></trkpt><trkpt lat="43.70903761671024" lon="11.916528850584198"><ele>950.0</ele><time>2026-05-02T10:20:52Z</time></trkpt><trkpt lat="43.708970708390865" lon="11.91659663476794"><ele>950.0</ele><time>2026-05-02T10:20:54Z</time></trkpt><trkpt lat="43.708903060598466" lon="11.916665146361005"><ele>950.0000000000001</ele><time>2026-05-02T10:20:59Z</time></trkpt><trkpt lat="43.70883597912798" lon="11.916728224636183"><ele>950.0</ele><time>2026-05-02T10:21:02Z</time></trkpt><trkpt lat="43.708780720452815" lon="11.91677763046737"><ele>950.0</ele><time>2026-05-02T10:21:08Z</time></trkpt><trkpt lat="43.70872096436277" lon="11.916829599846949"><ele>950.0000000000001</ele><time>2026-05-02T10:21:11Z</time></trkpt><trkpt lat="43.708690505928196" lon="11.91690617114369"><ele>950.0</ele><time>2026-05-02T10:21:14Z</time></trkpt><trkpt lat="43.708676227540714" lon="11.916997958286583"><ele>950.0</ele><time>2026-05-02T10:21:16Z</time></trkpt><trkpt lat="43.708641224823445" lon="11.917080087588609"><ele>950.7142857142858</ele><time>2026-05-02T10:21:19Z</time></trkpt><trkpt lat="43.70859336261351" lon="11.917142312045799"><ele>951.4285714285716</ele><time>2026-05-02T10:21:20Z</time></trkpt><trkpt lat="43.70851648238096" lon="11.917161007141468"><ele>952.1428571428571</ele><time>2026-05-02T10:21:23Z</time></trkpt><trkpt lat="43.708443646087325" lon="11.91715159023349"><ele>952.8571428571429</ele><time>2026-05-02T10:21:25Z</time></trkpt><trkpt lat="43.70836832538849" lon="11.917135507940085"><ele>953.5714285714286</ele><time>2026-05-02T10:21:27Z</time></trkpt><trkpt lat="43.70830791466911" lon="11.917108834121892"><ele>954.2857142857142</ele><time>2026-05-02T10:21:29Z</time></trkpt><trkpt lat="43.708228801227456" lon="11.917072074935433"><ele>954.9999999999999</ele><time>2026-05-02T10:21:32Z</time></trkpt><trkpt lat="43.708164090182464" lon="11.917054271887059"><ele>954.9999999999999</ele><time>2026-05-02T10:21:34Z</time></trkpt><trkpt lat="43.70810007673368" lon="11.917024096765784"><ele>955.0</ele><time>2026-05-02T10:21:36Z</time></trkpt><trkpt lat="43.70801709004683" lon="11.916982511436116"><ele>955.0</ele><time>2026-05-02T10:21:39Z</time></trkpt><trkpt lat="43.707935007475115" lon="11.916952279729479"><ele>955.0</ele><time>2026-05-02T10:21:41Z</time></trkpt><trkpt lat="43.707862268402145" lon="11.916943141962383"><ele>954.9999999999999</ele><time>2026-05-02T10:21:43Z</time></trkpt><trkpt lat="43.70778400695728" lon="11.916960909844173"><ele>955.0</ele><time>2026-05-02T10:21:45Z</time></trkpt><trkpt lat="43.70771188252763" lon="11.916966648646348"><ele>955.9999999999999</ele><time>2026-05-02T10:21:47Z</time></trkpt><trkpt lat="43.70765074777349" lon="11.916988068178103"><ele>957.0</ele><time>2026-05-02T10:21:49Z</time></trkpt><trkpt lat="43.70759253115829" lon="11.917031694469884"><ele>958.0</ele><time>2026-05-02T10:21:52Z</time></trkpt><trkpt lat="43.7074440040962" lon="11.917099988444214"><ele>959.0</ele><time>2026-05-02T10:21:54Z</time></trkpt><trkpt lat="43.70738023085731" lon="11.91713580481864"><ele>959.9999999999999</ele><time>2026-05-02T10:21:55Z</time></trkpt><trkpt lat="43.70730299539522" lon="11.917183308506882"><ele>961.0</ele><time>2026-05-02T10:21:57Z</time></trkpt><trkpt lat="43.70724360348276" lon="11.917224348730118"><ele>960.9999999999999</ele><time>2026-05-02T10:21:58Z</time></trkpt><trkpt lat="43.70719118880437" lon="11.91727400000939"><ele>961.0</ele><time>2026-05-02T10:21:59Z</time></trkpt><trkpt lat="43.70711756690757" lon="11.917391368483289"><ele>961.0</ele><time>2026-05-02T10:22:01Z</time></trkpt><trkpt lat="43.70704373545243" lon="11.917493018670768"><ele>961.0</ele><time>2026-05-02T10:22:03Z</time></trkpt><trkpt lat="43.707001311664904" lon="11.917564661820027"><ele>960.9999999999999</ele><time>2026-05-02T10:22:05Z</time></trkpt><trkpt lat="43.70697112272026" lon="11.917669835689427"><ele>961.0</ele><time>2026-05-02T10:22:08Z</time></trkpt><trkpt lat="43.70693985392448" lon="11.917808696572006"><ele>961.3333333333333</ele><time>2026-05-02T10:22:10Z</time></trkpt><trkpt lat="43.70690387074701" lon="11.917947215127267"><ele>961.6666666666666</ele><time>2026-05-02T10:22:11Z</time></trkpt><trkpt lat="43.706857255583245" lon="11.918046344150042"><ele>962.0</ele><time>2026-05-02T10:22:13Z</time></trkpt><trkpt lat="43.70679202701682" lon="11.918122450428653"><ele>962.3333333333333</ele><time>2026-05-02T10:22:15Z</time></trkpt><trkpt lat="43.70673838453699" lon="11.918184433499151"><ele>962.6666666666666</ele><time>2026-05-02T10:22:16Z</time></trkpt><trkpt lat="43.70669097772447" lon="11.918264920707214"><ele>963.0</ele><time>2026-05-02T10:22:18Z</time></trkpt><trkpt lat="43.70665925498972" lon="11.918353060004497"><ele>963.5999999999999</ele><time>2026-05-02T10:22:20Z</time></trkpt><trkpt lat="43.70663004919494" lon="11.918468602682369"><ele>964.1999999999999</ele><time>2026-05-02T10:22:22Z</time></trkpt><trkpt lat="43.70660745330991" lon="11.918585057009519"><ele>964.8</ele><time>2026-05-02T10:22:24Z</time></trkpt><trkpt lat="43.70658152392883" lon="11.918714275793237"><ele>965.4</ele><time>2026-05-02T10:22:26Z</time></trkpt><trkpt lat="43.70653862593293" lon="11.918846967700732"><ele>966.0</ele><time>2026-05-02T10:22:28Z</time></trkpt><trkpt lat="43.706501163293964" lon="11.918977291313825"><ele>966.0</ele><time>2026-05-02T10:22:30Z</time></trkpt><trkpt lat="43.7064703271847" lon="11.91907510524999"><ele>966.0</ele><time>2026-05-02T10:22:31Z</time></trkpt><trkpt lat="43.70645485919408" lon="11.919162378304526"><ele>966.0</ele><time>2026-05-02T10:22:32Z</time></trkpt><trkpt lat="43.706435048903465" lon="11.919310065316234"><ele>966.0</ele><time>2026-05-02T10:22:34Z</time></trkpt><trkpt lat="43.70641742546694" lon="11.919462147255398"><ele>966.0</ele><time>2026-05-02T10:22:36Z</time></trkpt><trkpt lat="43.70642232733022" lon="11.919570138343383"><ele>966.0</ele><time>2026-05-02T10:22:37Z</time></trkpt><trkpt lat="43.70642669799624" lon="11.919716641863891"><ele>967.0</ele><time>2026-05-02T10:22:39Z</time></trkpt><trkpt lat="43.70643275142075" lon="11.919813530099807"><ele>968.0</ele><time>2026-05-02T10:22:40Z</time></trkpt><trkpt lat="43.70644473922523" lon="11.919925053772154"><ele>969.0</ele><time>2026-05-02T10:22:41Z</time></trkpt><trkpt lat="43.70639950904507" lon="11.920052728489425"><ele>970.0</ele><time>2026-05-02T10:22:43Z</time></trkpt><trkpt lat="43.70641057867888" lon="11.920207255042845"><ele>971.0</ele><time>2026-05-02T10:22:45Z</time></trkpt><trkpt lat="43.70634985391947" lon="11.920279069461609"><ele>972.0</ele><time>2026-05-02T10:22:47Z</time></trkpt><trkpt lat="43.70637170863581" lon="11.920373238899622"><ele>973.6666666666666</ele><time>2026-05-02T10:22:49Z</time></trkpt><trkpt lat="43.70633900333306" lon="11.920470134138654"><ele>975.3333333333333</ele><time>2026-05-02T10:22:51Z</time></trkpt><trkpt lat="43.70626106630523" lon="11.920477464364067"><ele>977.0</ele><time>2026-05-02T10:22:54Z</time></trkpt><trkpt lat="43.706180091498595" lon="11.92052133033059"><ele>978.6666666666666</ele><time>2026-05-02T10:22:58Z</time></trkpt><trkpt lat="43.70612022025107" lon="11.920605069747644"><ele>980.3333333333333</ele><time>2026-05-02T10:23:00Z</time></trkpt><trkpt lat="43.70603491640444" lon="11.920683821770814"><ele>982.0</ele><time>2026-05-02T10:23:01Z</time></trkpt><trkpt lat="43.705942213941874" lon="11.920815831003315"><ele>984.4000000000001</ele><time>2026-05-02T10:23:03Z</time></trkpt><trkpt lat="43.70589270497536" lon="11.920921112920981"><ele>986.8000000000001</ele><time>2026-05-02T10:23:05Z</time></trkpt><trkpt lat="43.70588137728989" lon="11.921064162844136"><ele>989.2</ele><time>2026-05-02T10:23:07Z</time></trkpt><trkpt lat="43.70580414232787" lon="11.921164518806217"><ele>991.6</ele><time>2026-05-02T10:23:09Z</time></trkpt><trkpt lat="43.705814952747076" lon="11.921294037216994"><ele>994.0</ele><time>2026-05-02T10:23:11Z</time></trkpt><trkpt lat="43.705860981033474" lon="11.921422388695177"><ele>994.0</ele><time>2026-05-02T10:23:13Z</time></trkpt><trkpt lat="43.70584337642113" lon="11.92151536646132"><ele>994.0000000000001</ele><time>2026-05-02T10:23:14Z</time></trkpt><trkpt lat="43.705842384222805" lon="11.921666320159497"><ele>994.0000000000001</ele><time>2026-05-02T10:23:16Z</time></trkpt><trkpt lat="43.70583040502358" lon="11.921830315402856"><ele>994.0</ele><time>2026-05-02T10:23:18Z</time></trkpt><trkpt lat="43.70583113843583" lon="11.92201205329673"><ele>994.0</ele><time>2026-05-02T10:23:20Z</time></trkpt><trkpt lat="43.70582292369893" lon="11.922179802546964"><ele>994.9999999999999</ele><time>2026-05-02T10:23:22Z</time></trkpt><trkpt lat="43.70581796748229" lon="11.922322311754959"><ele>996.0</ele><time>2026-05-02T10:23:24Z</time></trkpt><trkpt lat="43.70581041194824" lon="11.922421501628484"><ele>997.0</ele><time>2026-05-02T10:23:25Z</time></trkpt><trkpt lat="43.705807682007254" lon="11.922530893221886"><ele>998.0</ele><time>2026-05-02T10:23:26Z</time></trkpt><trkpt lat="43.70581293760048" lon="11.922620884377867"><ele>998.9999999999999</ele><time>2026-05-02T10:23:27Z</time></trkpt><trkpt lat="43.705800176052755" lon="11.922756532924472"><ele>1000.0</ele><time>2026-05-02T10:23:29Z</time></trkpt><trkpt lat="43.70581253063678" lon="11.922882358148518"><ele>1001.2</ele><time>2026-05-02T10:23:31Z</time></trkpt><trkpt lat="43.705793525265" lon="11.92298279871791"><ele>1002.4</ele><time>2026-05-02T10:23:34Z</time></trkpt><trkpt lat="43.705813375321995" lon="11.923101650969805"><ele>1003.5999999999999</ele><time>2026-05-02T10:23:36Z</time></trkpt><trkpt lat="43.70587990150324" lon="11.923240185382856"><ele>1004.8</ele><time>2026-05-02T10:23:38Z</time></trkpt><trkpt lat="43.705945583620206" lon="11.92338637680594"><ele>1006.0</ele><time>2026-05-02T10:23:40Z</time></trkpt><trkpt lat="43.70597218988927" lon="11.923465765664908"><ele>1006.5714285714287</ele><time>2026-05-02T10:23:41Z</time></trkpt><trkpt lat="43.706000044181444" lon="11.923553275028752"><ele>1007.1428571428572</ele><time>2026-05-02T10:23:42Z</time></trkpt><trkpt lat="43.706021539190694" lon="11.923642609270598"><ele>1007.7142857142858</ele><time>2026-05-02T10:23:43Z</time></trkpt><trkpt lat="43.706040337680435" lon="11.923737808370715"><ele>1008.2857142857142</ele><time>2026-05-02T10:23:44Z</time></trkpt><trkpt lat="43.70605926464636" lon="11.923834717951395"><ele>1008.8571428571428</ele><time>2026-05-02T10:23:45Z</time></trkpt><trkpt lat="43.706070001269424" lon="11.923933485478479"><ele>1009.4285714285713</ele><time>2026-05-02T10:23:46Z</time></trkpt><trkpt lat="43.70607406664323" lon="11.924029551482889"><ele>1010.0</ele><time>2026-05-02T10:23:47Z</time></trkpt><trkpt lat="43.70606973445107" lon="11.924177609406277"><ele>1010.8333333333334</ele><time>2026-05-02T10:23:49Z</time></trkpt><trkpt lat="43.70606580779142" lon="11.92430547469389"><ele>1011.6666666666667</ele><time>2026-05-02T10:23:51Z</time></trkpt><trkpt lat="43.706066635332526" lon="11.92441662898831"><ele>1012.5</ele><time>2026-05-02T10:23:53Z</time></trkpt><trkpt lat="43.70605958627934" lon="11.924507575485498"><ele>1013.3333333333333</ele><time>2026-05-02T10:23:55Z</time></trkpt><trkpt lat="43.70602512716851" lon="11.924584315653536"><ele>1014.1666666666666</ele><time>2026-05-02T10:23:57Z</time></trkpt><trkpt lat="43.7059666504492" lon="11.924734592278753"><ele>1015.0</ele><time>2026-05-02T10:23:59Z</time></trkpt><trkpt lat="43.705931149444844" lon="11.924831916213893"><ele>1014.9999999999999</ele><time>2026-05-02T10:24:00Z</time></trkpt><trkpt lat="43.70588496474379" lon="11.924924486243102"><ele>1015.0</ele><time>2026-05-02T10:24:01Z</time></trkpt><trkpt lat="43.705835326574935" lon="11.925017470388187"><ele>1015.0</ele><time>2026-05-02T10:24:02Z</time></trkpt><trkpt lat="43.70578618844089" lon="11.925115210761495"><ele>1015.0</ele><time>2026-05-02T10:24:03Z</time></trkpt><trkpt lat="43.70573233870859" lon="11.92522106473579"><ele>1014.9999999999999</ele><time>2026-05-02T10:24:04Z</time></trkpt><trkpt lat="43.70567501208797" lon="11.925337585645607"><ele>1015.0</ele><time>2026-05-02T10:24:05Z</time></trkpt><trkpt lat="43.70561922296749" lon="11.9254538823031"><ele>1017.0</ele><time>2026-05-02T10:24:06Z</time></trkpt><trkpt lat="43.70556421726426" lon="11.925565446001539"><ele>1019.0</ele><time>2026-05-02T10:24:07Z</time></trkpt><trkpt lat="43.705509584937246" lon="11.92568018018007"><ele>1021.0</ele><time>2026-05-02T10:24:08Z</time></trkpt><trkpt lat="43.705455780596836" lon="11.925791478369893"><ele>1023.0</ele><time>2026-05-02T10:24:09Z</time></trkpt><trkpt lat="43.70540082491629" lon="11.925902458821588"><ele>1025.0</ele><time>2026-05-02T10:24:10Z</time></trkpt><trkpt lat="43.70534953495884" lon="11.926011599796306"><ele>1024.4</ele><time>2026-05-02T10:24:11Z</time></trkpt><trkpt lat="43.70529178051686" lon="11.926129100273936"><ele>1023.8</ele><time>2026-05-02T10:24:12Z</time></trkpt><trkpt lat="43.70523861689855" lon="11.92624008651893"><ele>1023.2</ele><time>2026-05-02T10:24:13Z</time></trkpt><trkpt lat="43.705187345044344" lon="11.9263409154703"><ele>1022.6</ele><time>2026-05-02T10:24:14Z</time></trkpt><trkpt lat="43.705137049489494" lon="11.926441543152418"><ele>1022.0</ele><time>2026-05-02T10:24:15Z</time></trkpt><trkpt lat="43.7050794363156" lon="11.92654747603427"><ele>1022.0</ele><time>2026-05-02T10:24:16Z</time></trkpt><trkpt lat="43.70502083823228" lon="11.926655143246997"><ele>1022.0</ele><time>2026-05-02T10:24:17Z</time></trkpt><trkpt lat="43.70496834327066" lon="11.926764544863525"><ele>1022.0</ele><time>2026-05-02T10:24:18Z</time></trkpt><trkpt lat="43.704917074328925" lon="11.92687786188803"><ele>1022.0</ele><time>2026-05-02T10:24:19Z</time></trkpt><trkpt lat="43.70486094794773" lon="11.926991650123218"><ele>1022.0</ele><time>2026-05-02T10:24:20Z</time></trkpt><trkpt lat="43.70480734886248" lon="11.927105175360333"><ele>1023.2</ele><time>2026-05-02T10:24:21Z</time></trkpt><trkpt lat="43.704753139696386" lon="11.927219942205339"><ele>1024.4</ele><time>2026-05-02T10:24:22Z</time></trkpt><trkpt lat="43.704698893057795" lon="11.927333137336863"><ele>1025.6</ele><time>2026-05-02T10:24:23Z</time></trkpt><trkpt lat="43.70464299125341" lon="11.927448337580323"><ele>1026.8</ele><time>2026-05-02T10:24:24Z</time></trkpt><trkpt lat="43.70459265230674" lon="11.927563632148617"><ele>1028.0</ele><time>2026-05-02T10:24:25Z</time></trkpt><trkpt lat="43.70453615054265" lon="11.927677354798528"><ele>1028.8</ele><time>2026-05-02T10:24:26Z</time></trkpt><trkpt lat="43.704478715394856" lon="11.927796402528468"><ele>1029.6</ele><time>2026-05-02T10:24:27Z</time></trkpt><trkpt lat="43.704422078498084" lon="11.927912849012545"><ele>1030.4</ele><time>2026-05-02T10:24:28Z</time></trkpt><trkpt lat="43.70436252418098" lon="11.92802961517875"><ele>1031.2</ele><time>2026-05-02T10:24:29Z</time></trkpt><trkpt lat="43.70430765600139" lon="11.928148252312804"><ele>1032.0</ele><time>2026-05-02T10:24:30Z</time></trkpt><trkpt lat="43.70425113524483" lon="11.928267384790647"><ele>1030.2</ele><time>2026-05-02T10:24:31Z</time></trkpt><trkpt lat="43.70419474941905" lon="11.928379523081912"><ele>1028.4</ele><time>2026-05-02T10:24:32Z</time></trkpt><trkpt lat="43.70413484484434" lon="11.928487675222836"><ele>1026.6</ele><time>2026-05-02T10:24:33Z</time></trkpt><trkpt lat="43.70407041205634" lon="11.928583749507238"><ele>1024.8</ele><time>2026-05-02T10:24:34Z</time></trkpt><trkpt lat="43.703999292588016" lon="11.92866875114427"><ele>1023.0</ele><time>2026-05-02T10:24:35Z</time></trkpt><trkpt lat="43.70391297298347" lon="11.928745945781932"><ele>1023.0</ele><time>2026-05-02T10:24:36Z</time></trkpt><trkpt lat="43.70382522775711" lon="11.928807972979964"><ele>1023.0</ele><time>2026-05-02T10:24:37Z</time></trkpt><trkpt lat="43.703725392998145" lon="11.928852047336536"><ele>1023.0</ele><time>2026-05-02T10:24:38Z</time></trkpt><trkpt lat="43.70362162484302" lon="11.928881601689792"><ele>1023.0</ele><time>2026-05-02T10:24:39Z</time></trkpt><trkpt lat="43.70351662129078" lon="11.928892502423363"><ele>1023.0</ele><time>2026-05-02T10:24:40Z</time></trkpt><trkpt lat="43.703407642364866" lon="11.92890126907679"><ele>1021.0</ele><time>2026-05-02T10:24:41Z</time></trkpt><trkpt lat="43.70329962273756" lon="11.928915659309238"><ele>1019.0</ele><time>2026-05-02T10:24:42Z</time></trkpt><trkpt lat="43.70319121956493" lon="11.928935651175763"><ele>1017.0</ele><time>2026-05-02T10:24:43Z</time></trkpt><trkpt lat="43.70308271906378" lon="11.928953131764233"><ele>1015.0</ele><time>2026-05-02T10:24:44Z</time></trkpt><trkpt lat="43.702973172949605" lon="11.928969477151036"><ele>1013.0</ele><time>2026-05-02T10:24:45Z</time></trkpt><trkpt lat="43.702857777676385" lon="11.928986834662016"><ele>1013.0</ele><time>2026-05-02T10:24:46Z</time></trkpt><trkpt lat="43.7027506835191" lon="11.929010068649365"><ele>1013.0</ele><time>2026-05-02T10:24:47Z</time></trkpt><trkpt lat="43.702646977364104" lon="11.929030731098813"><ele>1013.0</ele><time>2026-05-02T10:24:48Z</time></trkpt><trkpt lat="43.70254177382704" lon="11.929048293952222"><ele>1013.0</ele><time>2026-05-02T10:24:49Z</time></trkpt><trkpt lat="43.7024364947712" lon="11.929059871863654"><ele>1013.0</ele><time>2026-05-02T10:24:50Z</time></trkpt><trkpt lat="43.70233150388482" lon="11.929072777588702"><ele>1011.2</ele><time>2026-05-02T10:24:51Z</time></trkpt><trkpt lat="43.70222962082893" lon="11.929093085093408"><ele>1009.4</ele><time>2026-05-02T10:24:52Z</time></trkpt><trkpt lat="43.702125570884334" lon="11.929113194752855"><ele>1007.6000000000001</ele><time>2026-05-02T10:24:53Z</time></trkpt><trkpt lat="43.70203116539269" lon="11.929126244325353"><ele>1005.8000000000001</ele><time>2026-05-02T10:24:54Z</time></trkpt><trkpt lat="43.70194901214088" lon="11.929159483786155"><ele>1004.0</ele><time>2026-05-02T10:24:55Z</time></trkpt><trkpt lat="43.70187188728719" lon="11.929213986252616"><ele>1003.2</ele><time>2026-05-02T10:24:56Z</time></trkpt><trkpt lat="43.701799832494714" lon="11.929283287270222"><ele>1002.4000000000001</ele><time>2026-05-02T10:24:57Z</time></trkpt><trkpt lat="43.70173637642336" lon="11.929374541866283"><ele>1001.6</ele><time>2026-05-02T10:24:58Z</time></trkpt><trkpt lat="43.70168170822757" lon="11.92947903503192"><ele>1000.8</ele><time>2026-05-02T10:24:59Z</time></trkpt><trkpt lat="43.70163861098936" lon="11.929595192584394"><ele>1000.0</ele><time>2026-05-02T10:25:00Z</time></trkpt><trkpt lat="43.701614984880514" lon="11.929722121228831"><ele>1000.0</ele><time>2026-05-02T10:25:01Z</time></trkpt><trkpt lat="43.70158477106609" lon="11.929840667775354"><ele>1000.0</ele><time>2026-05-02T10:25:02Z</time></trkpt><trkpt lat="43.70155843850669" lon="11.929949374048576"><ele>1000.0</ele><time>2026-05-02T10:25:03Z</time></trkpt><trkpt lat="43.70153813348925" lon="11.930046995788084"><ele>1000.0</ele><time>2026-05-02T10:25:04Z</time></trkpt><trkpt lat="43.7017033708393" lon="11.930215712368732"><ele>1000.4</ele><time>2026-05-02T10:25:05Z</time></trkpt><trkpt lat="43.7017543352796" lon="11.930331262213418"><ele>1000.8</ele><time>2026-05-02T10:25:06Z</time></trkpt><trkpt lat="43.70180559585487" lon="11.930446165569453"><ele>1001.2</ele><time>2026-05-02T10:25:07Z</time></trkpt><trkpt lat="43.70185189689424" lon="11.930562893708279"><ele>1001.6</ele><time>2026-05-02T10:25:08Z</time></trkpt><trkpt lat="43.70189477987262" lon="11.930684615660423"><ele>1002.0</ele><time>2026-05-02T10:25:09Z</time></trkpt><trkpt lat="43.70193655480454" lon="11.930803884150556"><ele>1002.2</ele><time>2026-05-02T10:25:10Z</time></trkpt><trkpt lat="43.701982725030156" lon="11.930928918772755"><ele>1002.4000000000001</ele><time>2026-05-02T10:25:11Z</time></trkpt><trkpt lat="43.70202495299247" lon="11.93105098953624"><ele>1002.5999999999999</ele><time>2026-05-02T10:25:12Z</time></trkpt><trkpt lat="43.70204916608028" lon="11.931177183493336"><ele>1002.8</ele><time>2026-05-02T10:25:13Z</time></trkpt><trkpt lat="43.702057681403154" lon="11.931303522987447"><ele>1003.0</ele><time>2026-05-02T10:25:14Z</time></trkpt><trkpt lat="43.70206128853399" lon="11.931428264618138"><ele>1003.0</ele><time>2026-05-02T10:25:15Z</time></trkpt><trkpt lat="43.702052809488826" lon="11.931551141700881"><ele>1003.0</ele><time>2026-05-02T10:25:16Z</time></trkpt><trkpt lat="43.70203975460605" lon="11.931677133769501"><ele>1003.0</ele><time>2026-05-02T10:25:17Z</time></trkpt><trkpt lat="43.702015786292044" lon="11.931799154739704"><ele>1003.0</ele><time>2026-05-02T10:25:18Z</time></trkpt><trkpt lat="43.7019898181111" lon="11.93191843127815"><ele>1003.0</ele><time>2026-05-02T10:25:19Z</time></trkpt><trkpt lat="43.701966048551704" lon="11.932036503373281"><ele>1003.5714285714286</ele><time>2026-05-02T10:25:20Z</time></trkpt><trkpt lat="43.70194497651211" lon="11.932156116039927"><ele>1004.1428571428571</ele><time>2026-05-02T10:25:21Z</time></trkpt><trkpt lat="43.701922849753494" lon="11.932263769490639"><ele>1004.7142857142857</ele><time>2026-05-02T10:25:22Z</time></trkpt><trkpt lat="43.70189699181487" lon="11.932357730912615"><ele>1005.2857142857142</ele><time>2026-05-02T10:25:23Z</time></trkpt><trkpt lat="43.70185898220185" lon="11.932438890506607"><ele>1005.8571428571429</ele><time>2026-05-02T10:25:24Z</time></trkpt><trkpt lat="43.70180801184037" lon="11.932500322096846"><ele>1006.4285714285713</ele><time>2026-05-02T10:25:25Z</time></trkpt><trkpt lat="43.701742225928136" lon="11.932527143113312"><ele>1007.0</ele><time>2026-05-02T10:25:26Z</time></trkpt><trkpt lat="43.701670327611836" lon="11.932521848604036"><ele>1004.1666666666667</ele><time>2026-05-02T10:25:27Z</time></trkpt><trkpt lat="43.70160398973716" lon="11.932489175385445"><ele>1001.3333333333334</ele><time>2026-05-02T10:25:28Z</time></trkpt><trkpt lat="43.701557309508836" lon="11.932418807168139"><ele>998.5</ele><time>2026-05-02T10:25:29Z</time></trkpt><trkpt lat="43.701519989087814" lon="11.932322380362587"><ele>995.6666666666667</ele><time>2026-05-02T10:25:30Z</time></trkpt><trkpt lat="43.70150836267479" lon="11.932198227102484"><ele>992.8333333333334</ele><time>2026-05-02T10:25:31Z</time></trkpt><trkpt lat="43.70148294763011" lon="11.932083651184579"><ele>990.0</ele><time>2026-05-02T10:25:32Z</time></trkpt><trkpt lat="43.70145011150238" lon="11.931967616216207"><ele>990.0</ele><time>2026-05-02T10:25:33Z</time></trkpt><trkpt lat="43.70142531353604" lon="11.931854268596325"><ele>990.0</ele><time>2026-05-02T10:25:34Z</time></trkpt><trkpt lat="43.701395145800696" lon="11.93174635412931"><ele>990.0</ele><time>2026-05-02T10:25:35Z</time></trkpt><trkpt lat="43.70135024213086" lon="11.931656517779446"><ele>990.0</ele><time>2026-05-02T10:25:36Z</time></trkpt><trkpt lat="43.70128856143791" lon="11.93159429526168"><ele>990.0</ele><time>2026-05-02T10:25:37Z</time></trkpt><trkpt lat="43.70121684422816" lon="11.93157060752589"><ele>990.0</ele><time>2026-05-02T10:25:38Z</time></trkpt><trkpt lat="43.70114351151237" lon="11.931569356539342"><ele>989.7142857142856</ele><time>2026-05-02T10:25:39Z</time></trkpt><trkpt lat="43.701084270343685" lon="11.931602235507281"><ele>989.4285714285713</ele><time>2026-05-02T10:25:40Z</time></trkpt><trkpt lat="43.7010267959122" lon="11.931656777560905"><ele>989.1428571428571</ele><time>2026-05-02T10:25:41Z</time></trkpt><trkpt lat="43.70098226725726" lon="11.931730221877167"><ele>988.8571428571428</ele><time>2026-05-02T10:25:42Z</time></trkpt><trkpt lat="43.7009616660989" lon="11.931837425292242"><ele>988.5714285714284</ele><time>2026-05-02T10:25:43Z</time></trkpt><trkpt lat="43.70096492574583" lon="11.931949786915993"><ele>988.2857142857143</ele><time>2026-05-02T10:25:44Z</time></trkpt><trkpt lat="43.70097577518258" lon="11.932066407612062"><ele>988.0</ele><time>2026-05-02T10:25:45Z</time></trkpt><trkpt lat="43.700988895184864" lon="11.932183205240108"><ele>985.5999999999999</ele><time>2026-05-02T10:25:46Z</time></trkpt><trkpt lat="43.701002067285614" lon="11.932322067249553"><ele>983.1999999999999</ele><time>2026-05-02T10:25:47Z</time></trkpt><trkpt lat="43.70101574834459" lon="11.932447744263088"><ele>980.8</ele><time>2026-05-02T10:25:48Z</time></trkpt><trkpt lat="43.70103107461121" lon="11.932571090378161"><ele>978.4</ele><time>2026-05-02T10:25:49Z</time></trkpt><trkpt lat="43.70103547797167" lon="11.932692531628913"><ele>976.0</ele><time>2026-05-02T10:25:50Z</time></trkpt><trkpt lat="43.70102426697716" lon="11.93281369912141"><ele>975.9999999999999</ele><time>2026-05-02T10:25:51Z</time></trkpt><trkpt lat="43.70100564230128" lon="11.932932162397773"><ele>976.0</ele><time>2026-05-02T10:25:52Z</time></trkpt><trkpt lat="43.700987656242816" lon="11.933049361573232"><ele>976.0</ele><time>2026-05-02T10:25:53Z</time></trkpt><trkpt lat="43.70096678612028" lon="11.933158689955969"><ele>976.0</ele><time>2026-05-02T10:25:54Z</time></trkpt><trkpt lat="43.700942652584736" lon="11.933274468637407"><ele>975.9999999999999</ele><time>2026-05-02T10:25:55Z</time></trkpt><trkpt lat="43.7009138758241" lon="11.933388778345352"><ele>976.0</ele><time>2026-05-02T10:25:56Z</time></trkpt><trkpt lat="43.700878900615926" lon="11.933506276582662"><ele>976.0</ele><time>2026-05-02T10:25:57Z</time></trkpt><trkpt lat="43.70083214480119" lon="11.93362641832975"><ele>975.9999999999999</ele><time>2026-05-02T10:25:58Z</time></trkpt><trkpt lat="43.70078108907175" lon="11.933745088795066"><ele>975.9999999999999</ele><time>2026-05-02T10:25:59Z</time></trkpt><trkpt lat="43.70072495129083" lon="11.933861796513218"><ele>976.0</ele><time>2026-05-02T10:26:00Z</time></trkpt><trkpt lat="43.70066503381338" lon="11.933967903990611"><ele>976.0</ele><time>2026-05-02T10:26:01Z</time></trkpt><trkpt lat="43.70060371359851" lon="11.93407332313888"><ele>976.0</ele><time>2026-05-02T10:26:02Z</time></trkpt><trkpt lat="43.70053987702757" lon="11.934171882585185"><ele>975.9999999999999</ele><time>2026-05-02T10:26:03Z</time></trkpt><trkpt lat="43.70046867945732" lon="11.934260671556169"><ele>975.9999999999999</ele><time>2026-05-02T10:26:04Z</time></trkpt><trkpt lat="43.70039783568005" lon="11.934342020763214"><ele>976.0</ele><time>2026-05-02T10:26:05Z</time></trkpt><trkpt lat="43.700323603920516" lon="11.934417241001526"><ele>976.0</ele><time>2026-05-02T10:26:06Z</time></trkpt><trkpt lat="43.70024687443922" lon="11.934489052964752"><ele>974.9999999999999</ele><time>2026-05-02T10:26:07Z</time></trkpt><trkpt lat="43.700167016930195" lon="11.934552816132062"><ele>974.0</ele><time>2026-05-02T10:26:08Z</time></trkpt><trkpt lat="43.70009129684681" lon="11.93461834857954"><ele>973.0</ele><time>2026-05-02T10:26:09Z</time></trkpt><trkpt lat="43.70001612968442" lon="11.934684238697653"><ele>972.0</ele><time>2026-05-02T10:26:10Z</time></trkpt><trkpt lat="43.69994504260027" lon="11.934744292685679"><ele>970.9999999999999</ele><time>2026-05-02T10:26:11Z</time></trkpt><trkpt lat="43.69987313801817" lon="11.934801396260996"><ele>970.0</ele><time>2026-05-02T10:26:12Z</time></trkpt><trkpt lat="43.69979974893811" lon="11.934860599851852"><ele>969.9999999999999</ele><time>2026-05-02T10:26:13Z</time></trkpt><trkpt lat="43.69972889019752" lon="11.934924247738474"><ele>970.0</ele><time>2026-05-02T10:26:14Z</time></trkpt><trkpt lat="43.699659911120825" lon="11.93498744642489"><ele>970.0</ele><time>2026-05-02T10:26:15Z</time></trkpt><trkpt lat="43.6995888514295" lon="11.935046701339322"><ele>970.0</ele><time>2026-05-02T10:26:16Z</time></trkpt><trkpt lat="43.69951745654481" lon="11.935107797937937"><ele>969.9999999999999</ele><time>2026-05-02T10:26:17Z</time></trkpt><trkpt lat="43.69944820959549" lon="11.935169570845778"><ele>970.0</ele><time>2026-05-02T10:26:18Z</time></trkpt><trkpt lat="43.699384109329564" lon="11.935224446175486"><ele>968.857142857143</ele><time>2026-05-02T10:26:19Z</time></trkpt><trkpt lat="43.69932319583572" lon="11.935278124559368"><ele>967.7142857142858</ele><time>2026-05-02T10:26:20Z</time></trkpt><trkpt lat="43.69926318893948" lon="11.935327799662621"><ele>966.5714285714286</ele><time>2026-05-02T10:26:21Z</time></trkpt><trkpt lat="43.69920157893432" lon="11.93538540135904"><ele>965.4285714285714</ele><time>2026-05-02T10:26:22Z</time></trkpt><trkpt lat="43.69915120824498" lon="11.935452579730212"><ele>964.2857142857142</ele><time>2026-05-02T10:26:23Z</time></trkpt><trkpt lat="43.69910480364139" lon="11.93552223256793"><ele>963.142857142857</ele><time>2026-05-02T10:26:24Z</time></trkpt><trkpt lat="43.69906886330968" lon="11.935595018623903"><ele>961.9999999999999</ele><time>2026-05-02T10:26:25Z</time></trkpt><trkpt lat="43.6990151391702" lon="11.93572012518667"><ele>962.0000000000001</ele><time>2026-05-02T10:26:27Z</time></trkpt><trkpt lat="43.6989630967011" lon="11.935788324360386"><ele>962.0</ele><time>2026-05-02T10:26:29Z</time></trkpt><trkpt lat="43.69904887381346" lon="11.935715957912432"><ele>962.0</ele><time>2026-05-02T10:27:09Z</time></trkpt><trkpt lat="43.69909482773587" lon="11.935623342334317"><ele>962.0</ele><time>2026-05-02T10:27:11Z</time></trkpt><trkpt lat="43.69914097154078" lon="11.935546731750478"><ele>962.0000000000001</ele><time>2026-05-02T10:27:13Z</time></trkpt><trkpt lat="43.699190449517104" lon="11.935490951273465"><ele>962.0</ele><time>2026-05-02T10:27:15Z</time></trkpt><trkpt lat="43.69925617006376" lon="11.93544767982652"><ele>962.0</ele><time>2026-05-02T10:27:19Z</time></trkpt><trkpt lat="43.69931711879422" lon="11.935415699071946"><ele>962.0</ele><time>2026-05-02T10:27:41Z</time></trkpt></trkseg><trkseg><trkpt lat="43.7659428538154" lon="12.201533907551928"><ele>433.66666666666663</ele><time>2026-05-02T15:04:14Z</time></trkpt><trkpt lat="43.765931694165474" lon="12.201390034385422"><ele>433.3333333333333</ele><time>2026-05-02T15:04:16Z</time></trkpt><trkpt lat="43.76593010926205" lon="12.20129706180785"><ele>433.0</ele><time>2026-05-02T15:04:17Z</time></trkpt><trkpt lat="43.76594270663188" lon="12.201206937815387"><ele>432.66666666666663</ele><time>2026-05-02T15:04:18Z</time></trkpt><trkpt lat="43.765946463621795" lon="12.201098080976935"><ele>432.3333333333333</ele><time>2026-05-02T15:04:19Z</time></trkpt><trkpt lat="43.766000451540826" lon="12.200951387131576"><ele>432.0</ele><time>2026-05-02T15:04:21Z</time></trkpt><trkpt lat="43.76610144184697" lon="12.200892834564955"><ele>433.1666666666667</ele><time>2026-05-02T15:04:23Z</time></trkpt><trkpt lat="43.7661847373822" lon="12.200834590255015"><ele>434.33333333333337</ele><time>2026-05-02T15:04:25Z</time></trkpt><trkpt lat="43.766249342907116" lon="12.200779119010926"><ele>435.5</ele><time>2026-05-02T15:04:27Z</time></trkpt><trkpt lat="43.76631016991535" lon="12.200708863577972"><ele>436.6666666666667</ele><time>2026-05-02T15:04:30Z</time></trkpt><trkpt lat="43.766194043945866" lon="12.200763555032765"><ele>437.83333333333337</ele><time>2026-05-02T15:04:37Z</time></trkpt><trkpt lat="43.76614956149034" lon="12.200828140019185"><ele>439.0</ele><time>2026-05-02T15:04:38Z</time></trkpt><trkpt lat="43.76603387229322" lon="12.200898681285405"><ele>438.2857142857143</ele><time>2026-05-02T15:04:40Z</time></trkpt><trkpt lat="43.76598010260707" lon="12.200957118601327"><ele>437.57142857142856</ele><time>2026-05-02T15:04:41Z</time></trkpt><trkpt lat="43.76593460988523" lon="12.201027390026123"><ele>436.8571428571429</ele><time>2026-05-02T15:04:42Z</time></trkpt><trkpt lat="43.76590311574452" lon="12.201112659534457"><ele>436.1428571428571</ele><time>2026-05-02T15:04:43Z</time></trkpt><trkpt lat="43.76589298795675" lon="12.201215265680881"><ele>435.42857142857144</ele><time>2026-05-02T15:04:44Z</time></trkpt><trkpt lat="43.76589991580056" lon="12.20133060826134"><ele>434.7142857142857</ele><time>2026-05-02T15:04:45Z</time></trkpt><trkpt lat="43.76591902872964" lon="12.201434478794038"><ele>434.0</ele><time>2026-05-02T15:04:46Z</time></trkpt><trkpt lat="43.765937666162635" lon="12.201552134941675"><ele>434.0</ele><time>2026-05-02T15:04:47Z</time></trkpt><trkpt lat="43.765947180028704" lon="12.20166330755435"><ele>434.0</ele><time>2026-05-02T15:04:48Z</time></trkpt><trkpt lat="43.7659572996319" lon="12.201790249225933"><ele>434.0</ele><time>2026-05-02T15:04:49Z</time></trkpt><trkpt lat="43.76596945593575" lon="12.201923536316201"><ele>434.0</ele><time>2026-05-02T15:04:50Z</time></trkpt><trkpt lat="43.76598399415435" lon="12.202056144070266"><ele>434.0</ele><time>2026-05-02T15:04:51Z</time></trkpt><trkpt lat="43.765996528867824" lon="12.202200551762797"><ele>434.79999999999995</ele><time>2026-05-02T15:04:52Z</time></trkpt><trkpt lat="43.76600593259886" lon="12.20234577228599"><ele>435.59999999999997</ele><time>2026-05-02T15:04:53Z</time></trkpt><trkpt lat="43.765996837451446" lon="12.202492806283429"><ele>436.4</ele><time>2026-05-02T15:04:54Z</time></trkpt><trkpt lat="43.76597799602023" lon="12.202640080764349"><ele>437.2</ele><time>2026-05-02T15:04:55Z</time></trkpt><trkpt lat="43.765957351910544" lon="12.202789418723654"><ele>438.0</ele><time>2026-05-02T15:04:56Z</time></trkpt><trkpt lat="43.76594563133295" lon="12.20293689088077"><ele>438.0</ele><time>2026-05-02T15:04:57Z</time></trkpt><trkpt lat="43.765922444723806" lon="12.203080043645643"><ele>437.99999999999994</ele><time>2026-05-02T15:04:58Z</time></trkpt><trkpt lat="43.76589361487467" lon="12.203229035947238"><ele>437.99999999999994</ele><time>2026-05-02T15:04:59Z</time></trkpt><trkpt lat="43.76585311901478" lon="12.203372900115792"><ele>438.0</ele><time>2026-05-02T15:05:00Z</time></trkpt><trkpt lat="43.76580135087943" lon="12.203521083174778"><ele>438.0</ele><time>2026-05-02T15:05:01Z</time></trkpt><trkpt lat="43.7657369955454" lon="12.203657735861166"><ele>439.0</ele><time>2026-05-02T15:05:02Z</time></trkpt><trkpt lat="43.765674548591086" lon="12.203780673915865"><ele>439.99999999999994</ele><time>2026-05-02T15:05:03Z</time></trkpt><trkpt lat="43.76561603890167" lon="12.203901031122031"><ele>440.99999999999994</ele><time>2026-05-02T15:05:04Z</time></trkpt><trkpt lat="43.7655643804888" lon="12.204042625868613"><ele>442.0</ele><time>2026-05-02T15:05:05Z</time></trkpt><trkpt lat="43.765520532983146" lon="12.20418443813885"><ele>443.0</ele><time>2026-05-02T15:05:06Z</time></trkpt><trkpt lat="43.76549166255094" lon="12.204332606925304"><ele>444.25</ele><time>2026-05-02T15:05:07Z</time></trkpt><trkpt lat="43.765475318195534" lon="12.204482071475141"><ele>445.5</ele><time>2026-05-02T15:05:08Z</time></trkpt><trkpt lat="43.76546188258889" lon="12.20465147737707"><ele>446.75</ele><time>2026-05-02T15:05:09Z</time></trkpt><trkpt lat="43.76543023545969" lon="12.204811340707739"><ele>448.0</ele><time>2026-05-02T15:05:10Z</time></trkpt><trkpt lat="43.76540009414507" lon="12.204968613441448"><ele>451.25</ele><time>2026-05-02T15:05:11Z</time></trkpt><trkpt lat="43.76536575778616" lon="12.205134686760358"><ele>454.5</ele><time>2026-05-02T15:05:12Z</time></trkpt><trkpt lat="43.765313254631764" lon="12.205285278770317"><ele>457.75</ele><time>2026-05-02T15:05:13Z</time></trkpt><trkpt lat="43.765260990182874" lon="12.205438802999245"><ele>461.0</ele><time>2026-05-02T15:05:14Z</time></trkpt><trkpt lat="43.76520517006861" lon="12.205588212504404"><ele>459.25</ele><time>2026-05-02T15:05:15Z</time></trkpt><trkpt lat="43.76511833449292" lon="12.205712798686058"><ele>457.5</ele><time>2026-05-02T15:05:16Z</time></trkpt><trkpt lat="43.765050226158834" lon="12.205852006207902"><ele>455.75</ele><time>2026-05-02T15:05:17Z</time></trkpt><trkpt lat="43.76496330467184" lon="12.20596307367697"><ele>454.0</ele><time>2026-05-02T15:05:18Z</time></trkpt><trkpt lat="43.76486984068144" lon="12.206052848845806"><ele>454.0</ele><time>2026-05-02T15:05:19Z</time></trkpt><trkpt lat="43.76476541773872" lon="12.206101664042277"><ele>454.0</ele><time>2026-05-02T15:05:20Z</time></trkpt><trkpt lat="43.76466862179075" lon="12.206163841919485"><ele>454.0</ele><time>2026-05-02T15:05:21Z</time></trkpt><trkpt lat="43.764571762772974" lon="12.206202643122054"><ele>454.0</ele><time>2026-05-02T15:05:22Z</time></trkpt><trkpt lat="43.76446291390886" lon="12.206239278609393"><ele>454.0</ele><time>2026-05-02T15:05:23Z</time></trkpt><trkpt lat="43.76435498509177" lon="12.20630941551543"><ele>455.0</ele><time>2026-05-02T15:05:24Z</time></trkpt><trkpt lat="43.76424694036617" lon="12.20637762123082"><ele>456.0</ele><time>2026-05-02T15:05:25Z</time></trkpt><trkpt lat="43.764145728797494" lon="12.206448090302672"><ele>457.0</ele><time>2026-05-02T15:05:26Z</time></trkpt><trkpt lat="43.764053954596484" lon="12.206515628372228"><ele>458.0</ele><time>2026-05-02T15:05:27Z</time></trkpt><trkpt lat="43.76396896401731" lon="12.206576191806324"><ele>459.0</ele><time>2026-05-02T15:05:28Z</time></trkpt><trkpt lat="43.763899636861616" lon="12.206649886413336"><ele>459.0</ele><time>2026-05-02T15:05:29Z</time></trkpt><trkpt lat="43.76384639794924" lon="12.20673171034673"><ele>459.0</ele><time>2026-05-02T15:05:30Z</time></trkpt><trkpt lat="43.76379910647731" lon="12.206830358769812"><ele>459.0</ele><time>2026-05-02T15:05:31Z</time></trkpt><trkpt lat="43.76376260779949" lon="12.206943935488024"><ele>459.0</ele><time>2026-05-02T15:05:32Z</time></trkpt><trkpt lat="43.76373496430764" lon="12.207071384350796"><ele>459.0</ele><time>2026-05-02T15:05:33Z</time></trkpt><trkpt lat="43.76370032791307" lon="12.20720067000169"><ele>459.0</ele><time>2026-05-02T15:05:34Z</time></trkpt><trkpt lat="43.7636680261375" lon="12.207324707057607"><ele>459.0</ele><time>2026-05-02T15:05:35Z</time></trkpt><trkpt lat="43.76365363015793" lon="12.207428005037654"><ele>459.0</ele><time>2026-05-02T15:05:36Z</time></trkpt><trkpt lat="43.763661221040195" lon="12.207517547276634"><ele>459.0</ele><time>2026-05-02T15:05:37Z</time></trkpt><trkpt lat="43.7637249104097" lon="12.207667094924256"><ele>459.0</ele><time>2026-05-02T15:05:39Z</time></trkpt><trkpt lat="43.76381371004878" lon="12.20767489755427"><ele>459.0</ele><time>2026-05-02T15:05:40Z</time></trkpt><trkpt lat="43.76390158448057" lon="12.207591585570466"><ele>459.0</ele><time>2026-05-02T15:05:41Z</time></trkpt><trkpt lat="43.76396272917558" lon="12.207516507935331"><ele>459.0</ele><time>2026-05-02T15:05:42Z</time></trkpt><trkpt lat="43.76402965879978" lon="12.207447219700132"><ele>459.0</ele><time>2026-05-02T15:05:43Z</time></trkpt><trkpt lat="43.76408985282259" lon="12.207371020604908"><ele>459.0</ele><time>2026-05-02T15:05:44Z</time></trkpt><trkpt lat="43.764156746462525" lon="12.20729426295196"><ele>459.0</ele><time>2026-05-02T15:05:45Z</time></trkpt><trkpt lat="43.76421282364186" lon="12.20723399841819"><ele>459.0</ele><time>2026-05-02T15:05:46Z</time></trkpt><trkpt lat="43.76427552890372" lon="12.207186874887451"><ele>459.0</ele><time>2026-05-02T15:05:47Z</time></trkpt><trkpt lat="43.76434062498893" lon="12.207145351335177"><ele>459.0</ele><time>2026-05-02T15:05:48Z</time></trkpt><trkpt lat="43.764436467464485" lon="12.20708858320242"><ele>459.0</ele><time>2026-05-02T15:05:50Z</time></trkpt><trkpt lat="43.7645057213234" lon="12.207028721900993"><ele>459.0</ele><time>2026-05-02T15:06:14Z</time></trkpt><trkpt lat="43.76456614348116" lon="12.206995658731012"><ele>459.0</ele><time>2026-05-02T15:06:16Z</time></trkpt><trkpt lat="43.76468407611469" lon="12.206939228548121"><ele>462.0</ele><time>2026-05-02T15:06:18Z</time></trkpt><trkpt lat="43.76474719457814" lon="12.206925112643082"><ele>465.0</ele><time>2026-05-02T15:06:19Z</time></trkpt><trkpt lat="43.764820521135405" lon="12.206884351541685"><ele>468.0</ele><time>2026-05-02T15:06:20Z</time></trkpt><trkpt lat="43.76489737247754" lon="12.206841631068274"><ele>471.0</ele><time>2026-05-02T15:06:21Z</time></trkpt><trkpt lat="43.76498282856563" lon="12.206794127347296"><ele>474.0</ele><time>2026-05-02T15:06:22Z</time></trkpt><trkpt lat="43.76505923621585" lon="12.206742974053576"><ele>477.0</ele><time>2026-05-02T15:06:23Z</time></trkpt><trkpt lat="43.765136894138834" lon="12.206722124015466"><ele>477.0</ele><time>2026-05-02T15:06:24Z</time></trkpt><trkpt lat="43.7652006767198" lon="12.20675945330156"><ele>477.0</ele><time>2026-05-02T15:06:25Z</time></trkpt><trkpt lat="43.765228852687386" lon="12.20689937685674"><ele>477.0</ele><time>2026-05-02T15:06:27Z</time></trkpt><trkpt lat="43.7651919754467" lon="12.206988548850884"><ele>477.0</ele><time>2026-05-02T15:06:28Z</time></trkpt><trkpt lat="43.76512789248904" lon="12.207053178257826"><ele>477.0</ele><time>2026-05-02T15:06:29Z</time></trkpt><trkpt lat="43.76504484195481" lon="12.207091474362567"><ele>477.0</ele><time>2026-05-02T15:06:30Z</time></trkpt><trkpt lat="43.764958604402665" lon="12.207128043263014"><ele>477.0</ele><time>2026-05-02T15:06:31Z</time></trkpt><trkpt lat="43.76487284084098" lon="12.207173537749135"><ele>477.0</ele><time>2026-05-02T15:06:32Z</time></trkpt><trkpt lat="43.764787805224" lon="12.20721379244858"><ele>477.0</ele><time>2026-05-02T15:06:33Z</time></trkpt><trkpt lat="43.764723931816576" lon="12.20728438917205"><ele>477.0</ele><time>2026-05-02T15:06:34Z</time></trkpt><trkpt lat="43.764678786521294" lon="12.207369633015114"><ele>477.0</ele><time>2026-05-02T15:06:35Z</time></trkpt><trkpt lat="43.764651670240646" lon="12.20746914316087"><ele>477.0</ele><time>2026-05-02T15:06:36Z</time></trkpt><trkpt lat="43.76465408783388" lon="12.207580483336397"><ele>479.6666666666667</ele><time>2026-05-02T15:06:37Z</time></trkpt><trkpt lat="43.764674484581676" lon="12.207703763184366"><ele>482.33333333333337</ele><time>2026-05-02T15:06:38Z</time></trkpt><trkpt lat="43.76471113282866" lon="12.20782557747683"><ele>485.0</ele><time>2026-05-02T15:06:39Z</time></trkpt><trkpt lat="43.76475336632732" lon="12.20793964416279"><ele>487.6666666666667</ele><time>2026-05-02T15:06:40Z</time></trkpt><trkpt lat="43.76475306399804" lon="12.208052455612187"><ele>490.33333333333337</ele><time>2026-05-02T15:06:41Z</time></trkpt><trkpt lat="43.76474890680543" lon="12.20815491886527"><ele>493.0</ele><time>2026-05-02T15:06:42Z</time></trkpt><trkpt lat="43.76469905873755" lon="12.208252733584962"><ele>494.4</ele><time>2026-05-02T15:06:43Z</time></trkpt><trkpt lat="43.76463239066453" lon="12.208332423757014"><ele>495.79999999999995</ele><time>2026-05-02T15:06:44Z</time></trkpt><trkpt lat="43.76456357084857" lon="12.208406781785717"><ele>497.2</ele><time>2026-05-02T15:06:45Z</time></trkpt><trkpt lat="43.76450342562486" lon="12.208492066279486"><ele>498.6</ele><time>2026-05-02T15:06:46Z</time></trkpt><trkpt lat="43.76446132832502" lon="12.208611420243507"><ele>500.0</ele><time>2026-05-02T15:06:47Z</time></trkpt><trkpt lat="43.764438705115886" lon="12.208749210749179"><ele>499.99999999999994</ele><time>2026-05-02T15:06:48Z</time></trkpt><trkpt lat="43.764423775066135" lon="12.208887856418066"><ele>500.0</ele><time>2026-05-02T15:06:49Z</time></trkpt><trkpt lat="43.764409693482115" lon="12.20901739461647"><ele>500.0</ele><time>2026-05-02T15:06:50Z</time></trkpt><trkpt lat="43.76441135411748" lon="12.209121961193965"><ele>500.0</ele><time>2026-05-02T15:06:51Z</time></trkpt><trkpt lat="43.764449117395806" lon="12.209213394028675"><ele>499.99999999999994</ele><time>2026-05-02T15:06:52Z</time></trkpt><trkpt lat="43.76451693829666" lon="12.209272817044775"><ele>500.0</ele><time>2026-05-02T15:06:53Z</time></trkpt><trkpt lat="43.76460124476279" lon="12.209276743146582"><ele>500.0</ele><time>2026-05-02T15:06:54Z</time></trkpt><trkpt lat="43.76468014759726" lon="12.209237196369118"><ele>500.0</ele><time>2026-05-02T15:06:55Z</time></trkpt><trkpt lat="43.76475191925354" lon="12.209167431663479"><ele>500.0</ele><time>2026-05-02T15:06:56Z</time></trkpt><trkpt lat="43.76482347404338" lon="12.209088500187192"><ele>500.0</ele><time>2026-05-02T15:06:57Z</time></trkpt><trkpt lat="43.76489944419625" lon="12.209008368430329"><ele>500.0</ele><time>2026-05-02T15:06:58Z</time></trkpt><trkpt lat="43.764980457535316" lon="12.208931852256192"><ele>499.99999999999994</ele><time>2026-05-02T15:06:59Z</time></trkpt><trkpt lat="43.765057674318506" lon="12.208866181878747"><ele>500.0</ele><time>2026-05-02T15:07:00Z</time></trkpt><trkpt lat="43.76513411975626" lon="12.208805158638288"><ele>500.0</ele><time>2026-05-02T15:07:01Z</time></trkpt><trkpt lat="43.76520717575138" lon="12.208729367077657"><ele>500.0</ele><time>2026-05-02T15:07:02Z</time></trkpt><trkpt lat="43.76528531460151" lon="12.208671156528625"><ele>499.99999999999994</ele><time>2026-05-02T15:07:03Z</time></trkpt><trkpt lat="43.76535889159069" lon="12.208647947133416"><ele>500.0</ele><time>2026-05-02T15:07:04Z</time></trkpt><trkpt lat="43.76542420122156" lon="12.208689704085185"><ele>503.66666666666663</ele><time>2026-05-02T15:07:05Z</time></trkpt><trkpt lat="43.76546451813699" lon="12.208767478134844"><ele>507.3333333333333</ele><time>2026-05-02T15:07:06Z</time></trkpt><trkpt lat="43.76548335871871" lon="12.208871776985712"><ele>511.0</ele><time>2026-05-02T15:07:07Z</time></trkpt><trkpt lat="43.765466071674545" lon="12.20897294858919"><ele>514.6666666666666</ele><time>2026-05-02T15:07:08Z</time></trkpt><trkpt lat="43.76540939199636" lon="12.209067190660285"><ele>518.3333333333334</ele><time>2026-05-02T15:07:09Z</time></trkpt><trkpt lat="43.765384254264944" lon="12.209180335943545"><ele>522.0</ele><time>2026-05-02T15:07:10Z</time></trkpt><trkpt lat="43.76534650759303" lon="12.209297617028765"><ele>522.6</ele><time>2026-05-02T15:07:11Z</time></trkpt><trkpt lat="43.76532449928035" lon="12.20941902087314"><ele>523.2</ele><time>2026-05-02T15:07:12Z</time></trkpt><trkpt lat="43.76533589061719" lon="12.20954694271704"><ele>523.8</ele><time>2026-05-02T15:07:13Z</time></trkpt><trkpt lat="43.76536509008152" lon="12.209671543877588"><ele>524.4</ele><time>2026-05-02T15:07:14Z</time></trkpt><trkpt lat="43.76540055482732" lon="12.209798347145025"><ele>525.0</ele><time>2026-05-02T15:07:15Z</time></trkpt><trkpt lat="43.76543439713729" lon="12.209937491983908"><ele>525.0</ele><time>2026-05-02T15:07:16Z</time></trkpt><trkpt lat="43.76544127913734" lon="12.210085208953693"><ele>525.0</ele><time>2026-05-02T15:07:17Z</time></trkpt><trkpt lat="43.76542105055509" lon="12.210230444876789"><ele>525.0</ele><time>2026-05-02T15:07:18Z</time></trkpt><trkpt lat="43.76540295713011" lon="12.210359760826927"><ele>525.0</ele><time>2026-05-02T15:07:19Z</time></trkpt><trkpt lat="43.765401929727055" lon="12.210484779541634"><ele>525.0</ele><time>2026-05-02T15:07:20Z</time></trkpt><trkpt lat="43.76543162578185" lon="12.210596061104425"><ele>525.4</ele><time>2026-05-02T15:07:21Z</time></trkpt><trkpt lat="43.765498490577436" lon="12.210672601700557"><ele>525.8</ele><time>2026-05-02T15:07:22Z</time></trkpt><trkpt lat="43.765576185709705" lon="12.210739102356156"><ele>526.2</ele><time>2026-05-02T15:07:23Z</time></trkpt><trkpt lat="43.76566146290425" lon="12.210799628345548"><ele>526.6</ele><time>2026-05-02T15:07:24Z</time></trkpt><trkpt lat="43.76575257976676" lon="12.210859346910542"><ele>527.0</ele><time>2026-05-02T15:07:25Z</time></trkpt><trkpt lat="43.76583962089486" lon="12.21092752507777"><ele>527.0</ele><time>2026-05-02T15:07:26Z</time></trkpt><trkpt lat="43.76591098357154" lon="12.210971354058396"><ele>527.0</ele><time>2026-05-02T15:07:27Z</time></trkpt><trkpt lat="43.76598371266212" lon="12.211043931532025"><ele>527.0</ele><time>2026-05-02T15:07:29Z</time></trkpt><trkpt lat="43.76611218012067" lon="12.210838295902578"><ele>527.0</ele><time>2026-05-02T15:07:32Z</time></trkpt><trkpt lat="43.7661506002638" lon="12.210756016659417"><ele>527.0</ele><time>2026-05-02T15:07:33Z</time></trkpt><trkpt lat="43.76617631337179" lon="12.21065415891152"><ele>529.4</ele><time>2026-05-02T15:07:34Z</time></trkpt><trkpt lat="43.76620831062194" lon="12.210539302421953"><ele>531.8000000000001</ele><time>2026-05-02T15:07:35Z</time></trkpt><trkpt lat="43.76624501630144" lon="12.210414371817695"><ele>534.2</ele><time>2026-05-02T15:07:36Z</time></trkpt><trkpt lat="43.7662873258393" lon="12.210287625116612"><ele>536.6</ele><time>2026-05-02T15:07:37Z</time></trkpt><trkpt lat="43.76631323723582" lon="12.210158589035176"><ele>539.0</ele><time>2026-05-02T15:07:38Z</time></trkpt><trkpt lat="43.76635816210036" lon="12.210026284831713"><ele>539.0</ele><time>2026-05-02T15:07:39Z</time></trkpt><trkpt lat="43.76639811034282" lon="12.209888934946402"><ele>539.0</ele><time>2026-05-02T15:07:40Z</time></trkpt><trkpt lat="43.766443113105254" lon="12.209755718431724"><ele>539.0</ele><time>2026-05-02T15:07:41Z</time></trkpt><trkpt lat="43.76649308911482" lon="12.209631158321137"><ele>539.0</ele><time>2026-05-02T15:07:42Z</time></trkpt><trkpt lat="43.766555326677846" lon="12.20950564833469"><ele>539.0</ele><time>2026-05-02T15:07:43Z</time></trkpt><trkpt lat="43.76662757734081" lon="12.209379157081944"><ele>539.6</ele><time>2026-05-02T15:07:44Z</time></trkpt><trkpt lat="43.76670763324525" lon="12.209260427259705"><ele>540.2</ele><time>2026-05-02T15:07:45Z</time></trkpt><trkpt lat="43.766778535085535" lon="12.209139952338857"><ele>540.8000000000001</ele><time>2026-05-02T15:07:46Z</time></trkpt><trkpt lat="43.76683024620907" lon="12.209008772204328"><ele>541.4</ele><time>2026-05-02T15:07:47Z</time></trkpt><trkpt lat="43.76686070319722" lon="12.208869434891849"><ele>542.0</ele><time>2026-05-02T15:07:48Z</time></trkpt><trkpt lat="43.766878885463655" lon="12.208738764911486"><ele>545.0</ele><time>2026-05-02T15:07:49Z</time></trkpt><trkpt lat="43.76690230283708" lon="12.208625221775105"><ele>548.0</ele><time>2026-05-02T15:07:50Z</time></trkpt><trkpt lat="43.76693027218243" lon="12.208520196006788"><ele>551.0</ele><time>2026-05-02T15:07:51Z</time></trkpt><trkpt lat="43.76696545148007" lon="12.208427344597048"><ele>554.0</ele><time>2026-05-02T15:07:52Z</time></trkpt><trkpt lat="43.76702962317802" lon="12.208323113850632"><ele>557.0</ele><time>2026-05-02T15:07:53Z</time></trkpt><trkpt lat="43.76710330204257" lon="12.20823479640933"><ele>560.0</ele><time>2026-05-02T15:07:54Z</time></trkpt><trkpt lat="43.76718419571885" lon="12.208150198961299"><ele>560.0</ele><time>2026-05-02T15:07:55Z</time></trkpt><trkpt lat="43.76726010315533" lon="12.20805494825799"><ele>560.0</ele><time>2026-05-02T15:07:56Z</time></trkpt><trkpt lat="43.76732009052032" lon="12.207937849902022"><ele>560.0</ele><time>2026-05-02T15:07:57Z</time></trkpt><trkpt lat="43.76736125952215" lon="12.207808739561022"><ele>560.0</ele><time>2026-05-02T15:07:58Z</time></trkpt><trkpt lat="43.7673963433692" lon="12.207680363920597"><ele>560.0</ele><time>2026-05-02T15:07:59Z</time></trkpt><trkpt lat="43.76744021357663" lon="12.207562577102653"><ele>560.0</ele><time>2026-05-02T15:08:00Z</time></trkpt><trkpt lat="43.76749280927243" lon="12.20744468200245"><ele>560.0</ele><time>2026-05-02T15:08:01Z</time></trkpt><trkpt lat="43.76755687566839" lon="12.20736441677516"><ele>560.0</ele><time>2026-05-02T15:08:02Z</time></trkpt><trkpt lat="43.76762200494114" lon="12.207276304762445"><ele>560.0</ele><time>2026-05-02T15:08:03Z</time></trkpt><trkpt lat="43.767693592558686" lon="12.207184765174901"><ele>560.0</ele><time>2026-05-02T15:08:04Z</time></trkpt><trkpt lat="43.76776196620594" lon="12.207098338743657"><ele>562.0</ele><time>2026-05-02T15:08:05Z</time></trkpt><trkpt lat="43.76783995825887" lon="12.207035589728633"><ele>564.0</ele><time>2026-05-02T15:08:06Z</time></trkpt><trkpt lat="43.76792487648815" lon="12.206945771148785"><ele>566.0</ele><time>2026-05-02T15:08:07Z</time></trkpt><trkpt lat="43.76800491713531" lon="12.206836677440569"><ele>568.0</ele><time>2026-05-02T15:08:08Z</time></trkpt><trkpt lat="43.76807522705426" lon="12.206725739152288"><ele>570.0</ele><time>2026-05-02T15:08:09Z</time></trkpt><trkpt lat="43.76814345938546" lon="12.206617170563456"><ele>570.0</ele><time>2026-05-02T15:08:10Z</time></trkpt><trkpt lat="43.7682087594584" lon="12.206518465139814"><ele>570.0</ele><time>2026-05-02T15:08:11Z</time></trkpt><trkpt lat="43.76827811241172" lon="12.20642415728456"><ele>570.0</ele><time>2026-05-02T15:08:12Z</time></trkpt><trkpt lat="43.768349017241135" lon="12.206354949736516"><ele>570.0</ele><time>2026-05-02T15:08:13Z</time></trkpt><trkpt lat="43.768447115669524" lon="12.206344386574855"><ele>570.0</ele><time>2026-05-02T15:08:14Z</time></trkpt><trkpt lat="43.768531331201146" lon="12.206344009556815"><ele>570.2</ele><time>2026-05-02T15:08:15Z</time></trkpt><trkpt lat="43.76863754669281" lon="12.206330566609344"><ele>570.4</ele><time>2026-05-02T15:08:16Z</time></trkpt><trkpt lat="43.76874298305224" lon="12.206348507368878"><ele>570.6</ele><time>2026-05-02T15:08:17Z</time></trkpt><trkpt lat="43.76885525820801" lon="12.206363110386677"><ele>570.8</ele><time>2026-05-02T15:08:18Z</time></trkpt><trkpt lat="43.76896938577304" lon="12.206381150530293"><ele>571.0</ele><time>2026-05-02T15:08:19Z</time></trkpt><trkpt lat="43.76908908322288" lon="12.206385968554565"><ele>571.0</ele><time>2026-05-02T15:08:20Z</time></trkpt><trkpt lat="43.769196341363184" lon="12.206388652192155"><ele>571.0</ele><time>2026-05-02T15:08:21Z</time></trkpt><trkpt lat="43.76930658648968" lon="12.206397952596314"><ele>571.0</ele><time>2026-05-02T15:08:22Z</time></trkpt><trkpt lat="43.769421305245814" lon="12.206385217610558"><ele>571.0</ele><time>2026-05-02T15:08:23Z</time></trkpt><trkpt lat="43.76953125055563" lon="12.206358849869194"><ele>571.0</ele><time>2026-05-02T15:08:24Z</time></trkpt><trkpt lat="43.76963964252346" lon="12.20632430891704"><ele>571.1666666666667</ele><time>2026-05-02T15:08:25Z</time></trkpt><trkpt lat="43.76973938895779" lon="12.20629125009124"><ele>571.3333333333334</ele><time>2026-05-02T15:08:26Z</time></trkpt><trkpt lat="43.769823873095184" lon="12.206277533172692"><ele>571.5</ele><time>2026-05-02T15:08:27Z</time></trkpt><trkpt lat="43.7698901503558" lon="12.206290547095096"><ele>571.6666666666666</ele><time>2026-05-02T15:08:28Z</time></trkpt><trkpt lat="43.769938715826505" lon="12.206349000983916"><ele>571.8333333333333</ele><time>2026-05-02T15:08:29Z</time></trkpt><trkpt lat="43.769959137368545" lon="12.206515216291475"><ele>572.0</ele><time>2026-05-02T15:08:31Z</time></trkpt><trkpt lat="43.76986097404646" lon="12.20662920672701"><ele>575.6</ele><time>2026-05-02T15:08:33Z</time></trkpt><trkpt lat="43.76978162037901" lon="12.206642256987742"><ele>579.2</ele><time>2026-05-02T15:08:34Z</time></trkpt><trkpt lat="43.769693940956465" lon="12.206696125927268"><ele>582.8</ele><time>2026-05-02T15:08:35Z</time></trkpt><trkpt lat="43.769611824980224" lon="12.206767260625337"><ele>586.4</ele><time>2026-05-02T15:08:36Z</time></trkpt><trkpt lat="43.76952203705369" lon="12.20679807279341"><ele>590.0</ele><time>2026-05-02T15:08:37Z</time></trkpt><trkpt lat="43.769450096440785" lon="12.206870992347806"><ele>590.0</ele><time>2026-05-02T15:08:38Z</time></trkpt><trkpt lat="43.76938066597733" lon="12.206938384435361"><ele>590.0</ele><time>2026-05-02T15:08:39Z</time></trkpt><trkpt lat="43.769334174359756" lon="12.207033798460664"><ele>590.0</ele><time>2026-05-02T15:08:40Z</time></trkpt><trkpt lat="43.76929617690426" lon="12.207154619856965"><ele>590.0</ele><time>2026-05-02T15:08:41Z</time></trkpt><trkpt lat="43.76926529296001" lon="12.207275337963676"><ele>590.0</ele><time>2026-05-02T15:08:42Z</time></trkpt><trkpt lat="43.7691915924277" lon="12.207366311183709"><ele>591.6</ele><time>2026-05-02T15:08:43Z</time></trkpt><trkpt lat="43.76912437188972" lon="12.207470475144332"><ele>593.2</ele><time>2026-05-02T15:08:44Z</time></trkpt><trkpt lat="43.76905517404199" lon="12.207575124253228"><ele>594.8</ele><time>2026-05-02T15:08:45Z</time></trkpt><trkpt lat="43.768977756804134" lon="12.207688696425073"><ele>596.4</ele><time>2026-05-02T15:08:46Z</time></trkpt><trkpt lat="43.76889832495505" lon="12.207799312645816"><ele>598.0</ele><time>2026-05-02T15:08:47Z</time></trkpt><trkpt lat="43.768814863559726" lon="12.207907538255041"><ele>598.0</ele><time>2026-05-02T15:08:48Z</time></trkpt><trkpt lat="43.768728791782" lon="12.20801752158917"><ele>598.0</ele><time>2026-05-02T15:08:49Z</time></trkpt><trkpt lat="43.76865641489295" lon="12.20813749048551"><ele>598.0</ele><time>2026-05-02T15:08:50Z</time></trkpt><trkpt lat="43.76857916926691" lon="12.208218667653632"><ele>598.0</ele><time>2026-05-02T15:08:51Z</time></trkpt><trkpt lat="43.7685317656529" lon="12.208313721788109"><ele>598.0</ele><time>2026-05-02T15:08:52Z</time></trkpt><trkpt lat="43.768513788984464" lon="12.208427040402137"><ele>600.8</ele><time>2026-05-02T15:08:53Z</time></trkpt><trkpt lat="43.768527573936574" lon="12.20855111111567"><ele>603.5999999999999</ele><time>2026-05-02T15:08:54Z</time></trkpt><trkpt lat="43.76855570066662" lon="12.208687576543666"><ele>606.4000000000001</ele><time>2026-05-02T15:08:55Z</time></trkpt><trkpt lat="43.76860112548049" lon="12.20881756663677"><ele>609.2</ele><time>2026-05-02T15:08:56Z</time></trkpt><trkpt lat="43.76865541684234" lon="12.208940115627547"><ele>612.0</ele><time>2026-05-02T15:08:57Z</time></trkpt><trkpt lat="43.76872323301635" lon="12.209054346283773"><ele>614.0</ele><time>2026-05-02T15:08:58Z</time></trkpt><trkpt lat="43.768795313036236" lon="12.209167070590174"><ele>616.0</ele><time>2026-05-02T15:08:59Z</time></trkpt><trkpt lat="43.76886202095322" lon="12.209281655714504"><ele>618.0</ele><time>2026-05-02T15:09:00Z</time></trkpt><trkpt lat="43.768910714139444" lon="12.209392217808675"><ele>620.0</ele><time>2026-05-02T15:09:01Z</time></trkpt><trkpt lat="43.768941061320064" lon="12.209506957749735"><ele>622.0</ele><time>2026-05-02T15:09:02Z</time></trkpt><trkpt lat="43.76895367734661" lon="12.209618327711304"><ele>622.0</ele><time>2026-05-02T15:09:03Z</time></trkpt><trkpt lat="43.768961540834894" lon="12.209745039919301"><ele>622.0</ele><time>2026-05-02T15:09:05Z</time></trkpt><trkpt lat="43.76895603162538" lon="12.20993986557805"><ele>622.0</ele><time>2026-05-02T15:09:36Z</time></trkpt><trkpt lat="43.76900039779733" lon="12.210056642604293"><ele>622.0</ele><time>2026-05-02T15:09:37Z</time></trkpt><trkpt lat="43.76898014815166" lon="12.20990461478216"><ele>622.0</ele><time>2026-05-02T15:09:38Z</time></trkpt><trkpt lat="43.76898838860776" lon="12.210003890442165"><ele>622.4</ele><time>2026-05-02T15:09:39Z</time></trkpt><trkpt lat="43.76901935988294" lon="12.210106758760565"><ele>622.8000000000001</ele><time>2026-05-02T15:09:40Z</time></trkpt><trkpt lat="43.76906432213248" lon="12.21019944759554"><ele>623.2</ele><time>2026-05-02T15:09:41Z</time></trkpt><trkpt lat="43.76911441863131" lon="12.21030237607771"><ele>623.6</ele><time>2026-05-02T15:09:42Z</time></trkpt><trkpt lat="43.76917485388358" lon="12.210422283927128"><ele>624.0</ele><time>2026-05-02T15:09:43Z</time></trkpt><trkpt lat="43.769229723757505" lon="12.210569405540129"><ele>621.25</ele><time>2026-05-02T15:09:44Z</time></trkpt><trkpt lat="43.769303543177465" lon="12.210708703166802"><ele>618.5</ele><time>2026-05-02T15:09:45Z</time></trkpt><trkpt lat="43.7693815809007" lon="12.210856240101764"><ele>615.75</ele><time>2026-05-02T15:09:46Z</time></trkpt><trkpt lat="43.76946346520824" lon="12.211016942512622"><ele>613.0</ele><time>2026-05-02T15:09:47Z</time></trkpt><trkpt lat="43.76954651789286" lon="12.211174133243984"><ele>617.25</ele><time>2026-05-02T15:09:48Z</time></trkpt><trkpt lat="43.76962646682189" lon="12.211331646633802"><ele>621.5</ele><time>2026-05-02T15:09:49Z</time></trkpt><trkpt lat="43.76969530565675" lon="12.211473392298595"><ele>625.75</ele><time>2026-05-02T15:09:50Z</time></trkpt><trkpt lat="43.76974856738801" lon="12.211636769761041"><ele>630.0</ele><time>2026-05-02T15:09:51Z</time></trkpt><trkpt lat="43.76977625407113" lon="12.21180643620666"><ele>630.0</ele><time>2026-05-02T15:09:52Z</time></trkpt><trkpt lat="43.76981094721238" lon="12.211977384740369"><ele>630.0</ele><time>2026-05-02T15:09:53Z</time></trkpt><trkpt lat="43.769843928405585" lon="12.212143343598616"><ele>630.0</ele><time>2026-05-02T15:09:54Z</time></trkpt><trkpt lat="43.76987622406745" lon="12.212307272806516"><ele>630.0</ele><time>2026-05-02T15:09:55Z</time></trkpt><trkpt lat="43.769909680526816" lon="12.212467362333953"><ele>628.5</ele><time>2026-05-02T15:09:56Z</time></trkpt><trkpt lat="43.76994349574399" lon="12.212628406064258"><ele>627.0</ele><time>2026-05-02T15:09:57Z</time></trkpt><trkpt lat="43.7699746583662" lon="12.2127876218842"><ele>625.5</ele><time>2026-05-02T15:09:58Z</time></trkpt><trkpt lat="43.770002746510485" lon="12.212935771755552"><ele>624.0</ele><time>2026-05-02T15:09:59Z</time></trkpt><trkpt lat="43.770029056305425" lon="12.21307616926554"><ele>623.6666666666666</ele><time>2026-05-02T15:10:00Z</time></trkpt><trkpt lat="43.770060612863745" lon="12.213176631286801"><ele>623.3333333333334</ele><time>2026-05-02T15:10:01Z</time></trkpt><trkpt lat="43.77007898280761" lon="12.21327863642283"><ele>623.0</ele><time>2026-05-02T15:10:02Z</time></trkpt><trkpt lat="43.77007022457561" lon="12.213440960539113"><ele>622.6666666666667</ele><time>2026-05-02T15:10:04Z</time></trkpt><trkpt lat="43.770019962050796" lon="12.213529795422534"><ele>622.3333333333334</ele><time>2026-05-02T15:10:05Z</time></trkpt><trkpt lat="43.76999271998858" lon="12.213632721879845"><ele>622.0</ele><time>2026-05-02T15:10:06Z</time></trkpt><trkpt lat="43.76997241376777" lon="12.213752823421013"><ele>622.0</ele><time>2026-05-02T15:10:07Z</time></trkpt><trkpt lat="43.76995390589513" lon="12.213883517832404"><ele>622.0</ele><time>2026-05-02T15:10:08Z</time></trkpt><trkpt lat="43.76992613838637" lon="12.213999302705458"><ele>622.0</ele><time>2026-05-02T15:10:09Z</time></trkpt><trkpt lat="43.7698924511117" lon="12.214082801495179"><ele>622.0</ele><time>2026-05-02T15:10:10Z</time></trkpt><trkpt lat="43.76978622663307" lon="12.21418037815818"><ele>622.0</ele><time>2026-05-02T15:10:12Z</time></trkpt><trkpt lat="43.76970762119299" lon="12.214233279665002"><ele>622.4</ele><time>2026-05-02T15:10:13Z</time></trkpt><trkpt lat="43.76963696899117" lon="12.214308409343882"><ele>622.8000000000001</ele><time>2026-05-02T15:10:14Z</time></trkpt><trkpt lat="43.769574532845525" lon="12.214387925585884"><ele>623.2</ele><time>2026-05-02T15:10:15Z</time></trkpt><trkpt lat="43.769493733527" lon="12.214474626166577"><ele>623.6</ele><time>2026-05-02T15:10:16Z</time></trkpt><trkpt lat="43.76941790176292" lon="12.21455967243752"><ele>624.0</ele><time>2026-05-02T15:10:17Z</time></trkpt><trkpt lat="43.76933932374971" lon="12.214651651790772"><ele>624.0</ele><time>2026-05-02T15:10:18Z</time></trkpt><trkpt lat="43.76926273149953" lon="12.214765511782854"><ele>624.0</ele><time>2026-05-02T15:10:19Z</time></trkpt><trkpt lat="43.769192113149124" lon="12.21488480140357"><ele>624.0</ele><time>2026-05-02T15:10:20Z</time></trkpt><trkpt lat="43.76911552455011" lon="12.214996760663716"><ele>624.0</ele><time>2026-05-02T15:10:21Z</time></trkpt><trkpt lat="43.76904794737271" lon="12.215122433353185"><ele>624.0</ele><time>2026-05-02T15:10:22Z</time></trkpt><trkpt lat="43.76899042255948" lon="12.215253263047352"><ele>625.6</ele><time>2026-05-02T15:10:23Z</time></trkpt><trkpt lat="43.76893839581818" lon="12.215396563583653"><ele>627.2</ele><time>2026-05-02T15:10:24Z</time></trkpt><trkpt lat="43.76889679264576" lon="12.215535469234615"><ele>628.8000000000001</ele><time>2026-05-02T15:10:25Z</time></trkpt><trkpt lat="43.76886351878962" lon="12.215673850548859"><ele>630.4</ele><time>2026-05-02T15:10:26Z</time></trkpt><trkpt lat="43.76882695869002" lon="12.21580119484703"><ele>632.0</ele><time>2026-05-02T15:10:27Z</time></trkpt><trkpt lat="43.7687737530999" lon="12.215933358658086"><ele>632.2</ele><time>2026-05-02T15:10:28Z</time></trkpt><trkpt lat="43.768712038694304" lon="12.216054726097004"><ele>632.4000000000001</ele><time>2026-05-02T15:10:29Z</time></trkpt><trkpt lat="43.7686489195218" lon="12.216178007039717"><ele>632.5999999999999</ele><time>2026-05-02T15:10:30Z</time></trkpt><trkpt lat="43.76858337817826" lon="12.216297561732745"><ele>632.8</ele><time>2026-05-02T15:10:31Z</time></trkpt><trkpt lat="43.76851651490792" lon="12.216413879684461"><ele>633.0</ele><time>2026-05-02T15:10:32Z</time></trkpt><trkpt lat="43.76844711570821" lon="12.216534700976865"><ele>630.75</ele><time>2026-05-02T15:10:33Z</time></trkpt><trkpt lat="43.76837870011655" lon="12.21666600833887"><ele>628.5</ele><time>2026-05-02T15:10:34Z</time></trkpt><trkpt lat="43.768305091015094" lon="12.216794768697472"><ele>626.25</ele><time>2026-05-02T15:10:35Z</time></trkpt><trkpt lat="43.76823620160451" lon="12.216924015598874"><ele>624.0</ele><time>2026-05-02T15:10:36Z</time></trkpt><trkpt lat="43.768171345205545" lon="12.21704358639174"><ele>624.0</ele><time>2026-05-02T15:10:37Z</time></trkpt><trkpt lat="43.76810259780406" lon="12.217170314360729"><ele>624.0</ele><time>2026-05-02T15:10:38Z</time></trkpt><trkpt lat="43.76802366244812" lon="12.217304502679829"><ele>624.0</ele><time>2026-05-02T15:10:39Z</time></trkpt><trkpt lat="43.76794586612023" lon="12.21744167891133"><ele>624.0</ele><time>2026-05-02T15:10:40Z</time></trkpt><trkpt lat="43.76786297990116" lon="12.217575623695051"><ele>623.6</ele><time>2026-05-02T15:10:41Z</time></trkpt><trkpt lat="43.76778748270196" lon="12.217703721242076"><ele>623.2</ele><time>2026-05-02T15:10:42Z</time></trkpt><trkpt lat="43.7677210131077" lon="12.217820148190851"><ele>622.8000000000001</ele><time>2026-05-02T15:10:43Z</time></trkpt><trkpt lat="43.76765703686804" lon="12.217933879518409"><ele>622.4</ele><time>2026-05-02T15:10:44Z</time></trkpt><trkpt lat="43.76760846162019" lon="12.218047052275757"><ele>622.0</ele><time>2026-05-02T15:10:45Z</time></trkpt><trkpt lat="43.767575046909954" lon="12.218153663713311"><ele>621.8000000000001</ele><time>2026-05-02T15:10:46Z</time></trkpt><trkpt lat="43.76754990092747" lon="12.218255282051835"><ele>621.6</ele><time>2026-05-02T15:10:47Z</time></trkpt><trkpt lat="43.7675261053619" lon="12.218344095294634"><ele>621.4000000000001</ele><time>2026-05-02T15:10:48Z</time></trkpt><trkpt lat="43.76749672586419" lon="12.218448544798614"><ele>621.2</ele><time>2026-05-02T15:10:50Z</time></trkpt><trkpt lat="43.767466809233994" lon="12.218571677286791"><ele>621.0</ele><time>2026-05-02T15:11:27Z</time></trkpt><trkpt lat="43.76738554448185" lon="12.21872536674842"><ele>621.0</ele><time>2026-05-02T15:11:29Z</time></trkpt><trkpt lat="43.767331860192" lon="12.218823063540734"><ele>621.0</ele><time>2026-05-02T15:11:30Z</time></trkpt><trkpt lat="43.76727134595309" lon="12.218929175026524"><ele>621.0</ele><time>2026-05-02T15:11:31Z</time></trkpt><trkpt lat="43.76721805608547" lon="12.219020625475757"><ele>621.0</ele><time>2026-05-02T15:11:32Z</time></trkpt><trkpt lat="43.76715385398087" lon="12.219137218096575"><ele>621.0</ele><time>2026-05-02T15:11:33Z</time></trkpt><trkpt lat="43.76710355080408" lon="12.219239341819227"><ele>622.0</ele><time>2026-05-02T15:11:34Z</time></trkpt><trkpt lat="43.76705192094953" lon="12.219336942826823"><ele>623.0</ele><time>2026-05-02T15:11:35Z</time></trkpt><trkpt lat="43.767010873251564" lon="12.21941484874737"><ele>624.0</ele><time>2026-05-02T15:11:36Z</time></trkpt><trkpt lat="43.766962726178505" lon="12.21948754809249"><ele>625.0</ele><time>2026-05-02T15:11:37Z</time></trkpt><trkpt lat="43.7668831337813" lon="12.219611818260203"><ele>626.0</ele><time>2026-05-02T15:11:39Z</time></trkpt><trkpt lat="43.766832808703846" lon="12.219705887847276"><ele>627.0</ele><time>2026-05-02T15:11:40Z</time></trkpt><trkpt lat="43.76678973462344" lon="12.219777894659096"><ele>629.2</ele><time>2026-05-02T15:11:41Z</time></trkpt><trkpt lat="43.766732503970985" lon="12.2198655657519"><ele>631.4000000000001</ele><time>2026-05-02T15:11:42Z</time></trkpt><trkpt lat="43.766679574893345" lon="12.219991860878247"><ele>633.5999999999999</ele><time>2026-05-02T15:11:44Z</time></trkpt><trkpt lat="43.7666881098945" lon="12.220147488244631"><ele>635.8</ele><time>2026-05-02T15:11:46Z</time></trkpt><trkpt lat="43.766742984920256" lon="12.220275223478067"><ele>638.0</ele><time>2026-05-02T15:11:48Z</time></trkpt><trkpt lat="43.76676606123603" lon="12.220391634716005"><ele>638.0</ele><time>2026-05-02T15:11:50Z</time></trkpt><trkpt lat="43.7667571928413" lon="12.220504263947827"><ele>638.0</ele><time>2026-05-02T15:11:52Z</time></trkpt><trkpt lat="43.76668750916061" lon="12.220577450908428"><ele>638.0</ele><time>2026-05-02T15:11:54Z</time></trkpt><trkpt lat="43.766575788091856" lon="12.22063172101711"><ele>638.0</ele><time>2026-05-02T15:11:56Z</time></trkpt><trkpt lat="43.76647186311282" lon="12.220638991669135"><ele>638.0</ele><time>2026-05-02T15:11:58Z</time></trkpt><trkpt lat="43.766370540575025" lon="12.220679243777276"><ele>638.0</ele><time>2026-05-02T15:12:00Z</time></trkpt><trkpt lat="43.766295084596265" lon="12.22076362799891"><ele>638.0</ele><time>2026-05-02T15:12:02Z</time></trkpt><trkpt lat="43.76624755843699" lon="12.22082438141198"><ele>638.0</ele><time>2026-05-02T15:12:03Z</time></trkpt><trkpt lat="43.76618443486881" lon="12.22091658513999"><ele>638.0</ele><time>2026-05-02T15:12:05Z</time></trkpt><trkpt lat="43.76611446297185" lon="12.221012975847916"><ele>638.0</ele><time>2026-05-02T15:12:09Z</time></trkpt><trkpt lat="43.766037864091174" lon="12.221128682076335"><ele>644.2</ele><time>2026-05-02T15:12:11Z</time></trkpt><trkpt lat="43.765981124017955" lon="12.221249674618257"><ele>650.4</ele><time>2026-05-02T15:12:13Z</time></trkpt><trkpt lat="43.76594623346216" lon="12.221355436914202"><ele>656.6</ele><time>2026-05-02T15:12:15Z</time></trkpt><trkpt lat="43.765874524186835" lon="12.221502460812324"><ele>662.8000000000001</ele><time>2026-05-02T15:12:17Z</time></trkpt><trkpt lat="43.76584013569398" lon="12.221594387825842"><ele>669.0</ele><time>2026-05-02T15:12:18Z</time></trkpt><trkpt lat="43.76579734345766" lon="12.22167666288583"><ele>670.4000000000001</ele><time>2026-05-02T15:12:19Z</time></trkpt><trkpt lat="43.76579415733012" lon="12.221847865622468"><ele>671.8</ele><time>2026-05-02T15:12:21Z</time></trkpt><trkpt lat="43.76578795460599" lon="12.221973346558494"><ele>673.2</ele><time>2026-05-02T15:12:22Z</time></trkpt><trkpt lat="43.7657707311092" lon="12.222113952249165"><ele>674.5999999999999</ele><time>2026-05-02T15:12:23Z</time></trkpt><trkpt lat="43.76574505184011" lon="12.222208543523033"><ele>676.0</ele><time>2026-05-02T15:12:24Z</time></trkpt><trkpt lat="43.76573221057736" lon="12.222299785315064"><ele>677.4</ele><time>2026-05-02T15:12:25Z</time></trkpt><trkpt lat="43.765676055478146" lon="12.22241251641767"><ele>678.8</ele><time>2026-05-02T15:12:27Z</time></trkpt><trkpt lat="43.7655822499292" lon="12.222407532990617"><ele>680.1999999999999</ele><time>2026-05-02T15:12:29Z</time></trkpt><trkpt lat="43.76552462522993" lon="12.222486048670671"><ele>681.5999999999999</ele><time>2026-05-02T15:12:31Z</time></trkpt><trkpt lat="43.76546917568028" lon="12.222660730487789"><ele>683.0</ele><time>2026-05-02T15:12:33Z</time></trkpt><trkpt lat="43.765423561223734" lon="12.222769900820502"><ele>683.0</ele><time>2026-05-02T15:12:34Z</time></trkpt><trkpt lat="43.765363429338315" lon="12.22289414688448"><ele>683.0</ele><time>2026-05-02T15:12:35Z</time></trkpt><trkpt lat="43.765303036184434" lon="12.223018949476996"><ele>683.0</ele><time>2026-05-02T15:12:36Z</time></trkpt><trkpt lat="43.765246337397954" lon="12.223165355293952"><ele>683.0</ele><time>2026-05-02T15:12:37Z</time></trkpt><trkpt lat="43.765184707630134" lon="12.22331794714176"><ele>686.2</ele><time>2026-05-02T15:12:38Z</time></trkpt><trkpt lat="43.76512765114986" lon="12.223443395900057"><ele>689.4</ele><time>2026-05-02T15:12:39Z</time></trkpt><trkpt lat="43.76507548246401" lon="12.223564587108982"><ele>692.6</ele><time>2026-05-02T15:12:40Z</time></trkpt><trkpt lat="43.76501738981766" lon="12.223678335438345"><ele>695.8000000000001</ele><time>2026-05-02T15:12:41Z</time></trkpt><trkpt lat="43.764949771161945" lon="12.223791498643825"><ele>699.0</ele><time>2026-05-02T15:12:42Z</time></trkpt><trkpt lat="43.764898747307825" lon="12.223903579657577"><ele>700.5</ele><time>2026-05-02T15:12:43Z</time></trkpt><trkpt lat="43.76484897516107" lon="12.223995090096576"><ele>702.0</ele><time>2026-05-02T15:12:44Z</time></trkpt><trkpt lat="43.76480793270738" lon="12.224091854836352"><ele>703.5</ele><time>2026-05-02T15:12:45Z</time></trkpt><trkpt lat="43.764785360234875" lon="12.224175029943256"><ele>705.0</ele><time>2026-05-02T15:12:46Z</time></trkpt><trkpt lat="43.76478242084975" lon="12.224263327006765"><ele>706.5</ele><time>2026-05-02T15:12:47Z</time></trkpt><trkpt lat="43.764784857245516" lon="12.224379455905256"><ele>708.0</ele><time>2026-05-02T15:12:48Z</time></trkpt><trkpt lat="43.764800205625" lon="12.224495912009354"><ele>708.0</ele><time>2026-05-02T15:12:49Z</time></trkpt><trkpt lat="43.764807491445325" lon="12.224627389059478"><ele>708.0</ele><time>2026-05-02T15:12:50Z</time></trkpt><trkpt lat="43.76479985372479" lon="12.224761021934539"><ele>708.0</ele><time>2026-05-02T15:12:51Z</time></trkpt><trkpt lat="43.7647951648851" lon="12.224906644910492"><ele>708.0</ele><time>2026-05-02T15:12:52Z</time></trkpt><trkpt lat="43.764793745641505" lon="12.225036165641281"><ele>708.0</ele><time>2026-05-02T15:12:53Z</time></trkpt><trkpt lat="43.764802423288195" lon="12.225168372219612"><ele>709.5</ele><time>2026-05-02T15:12:54Z</time></trkpt><trkpt lat="43.76481798895662" lon="12.22529745379758"><ele>711.0</ele><time>2026-05-02T15:12:55Z</time></trkpt><trkpt lat="43.76482301892391" lon="12.225408826154677"><ele>712.5</ele><time>2026-05-02T15:12:56Z</time></trkpt><trkpt lat="43.764812780693454" lon="12.225518527551918"><ele>714.0</ele><time>2026-05-02T15:12:57Z</time></trkpt><trkpt lat="43.76478890544867" lon="12.225631233419328"><ele>715.5</ele><time>2026-05-02T15:12:58Z</time></trkpt><trkpt lat="43.76476607606031" lon="12.225743746871132"><ele>717.0</ele><time>2026-05-02T15:12:59Z</time></trkpt><trkpt lat="43.76475208350136" lon="12.225861417209504"><ele>718.4000000000001</ele><time>2026-05-02T15:13:00Z</time></trkpt><trkpt lat="43.764752426449384" lon="12.226009174310212"><ele>719.8000000000001</ele><time>2026-05-02T15:13:02Z</time></trkpt><trkpt lat="43.76480900622349" lon="12.226113340158104"><ele>721.2</ele><time>2026-05-02T15:13:05Z</time></trkpt><trkpt lat="43.764845887616104" lon="12.226232247224516"><ele>722.6</ele><time>2026-05-02T15:13:07Z</time></trkpt><trkpt lat="43.764878766704456" lon="12.226374460106584"><ele>724.0</ele><time>2026-05-02T15:13:09Z</time></trkpt><trkpt lat="43.76490708150932" lon="12.22650611075411"><ele>725.0</ele><time>2026-05-02T15:13:11Z</time></trkpt><trkpt lat="43.76492935410031" lon="12.226646303530899"><ele>726.0</ele><time>2026-05-02T15:13:13Z</time></trkpt><trkpt lat="43.764947609823494" lon="12.226808873100293"><ele>727.0</ele><time>2026-05-02T15:13:15Z</time></trkpt><trkpt lat="43.764964744642434" lon="12.22690562761538"><ele>728.0</ele><time>2026-05-02T15:13:16Z</time></trkpt><trkpt lat="43.764983894614495" lon="12.227024124835598"><ele>729.0</ele><time>2026-05-02T15:13:17Z</time></trkpt><trkpt lat="43.765006274992324" lon="12.227146665613622"><ele>729.0</ele><time>2026-05-02T15:13:18Z</time></trkpt><trkpt lat="43.76503752153162" lon="12.227258401115314"><ele>729.0</ele><time>2026-05-02T15:13:19Z</time></trkpt><trkpt lat="43.76508818884803" lon="12.227380993705665"><ele>729.0</ele><time>2026-05-02T15:13:20Z</time></trkpt><trkpt lat="43.76513165586399" lon="12.227515267569606"><ele>729.0</ele><time>2026-05-02T15:13:21Z</time></trkpt><trkpt lat="43.765158696871275" lon="12.227661362945884"><ele>729.0</ele><time>2026-05-02T15:13:22Z</time></trkpt><trkpt lat="43.76518463136064" lon="12.22782933875711"><ele>730.25</ele><time>2026-05-02T15:13:23Z</time></trkpt><trkpt lat="43.7652102604128" lon="12.228004642316197"><ele>731.5</ele><time>2026-05-02T15:13:24Z</time></trkpt><trkpt lat="43.76522821189745" lon="12.22819191668813"><ele>732.75</ele><time>2026-05-02T15:13:25Z</time></trkpt><trkpt lat="43.76524139731875" lon="12.228380971974532"><ele>734.0</ele><time>2026-05-02T15:13:26Z</time></trkpt><trkpt lat="43.76525453447682" lon="12.228574821635812"><ele>736.0</ele><time>2026-05-02T15:13:27Z</time></trkpt><trkpt lat="43.76526028129513" lon="12.228763340071442"><ele>738.0</ele><time>2026-05-02T15:13:28Z</time></trkpt><trkpt lat="43.76526296766375" lon="12.228933453615776"><ele>740.0</ele><time>2026-05-02T15:13:29Z</time></trkpt><trkpt lat="43.76526758551034" lon="12.229113307468877"><ele>742.0</ele><time>2026-05-02T15:13:30Z</time></trkpt><trkpt lat="43.76526838268798" lon="12.229295035496458"><ele>744.0</ele><time>2026-05-02T15:13:31Z</time></trkpt><trkpt lat="43.76526923812279" lon="12.229464850196521"><ele>746.0</ele><time>2026-05-02T15:13:32Z</time></trkpt><trkpt lat="43.76527564410523" lon="12.229640264067541"><ele>748.0</ele><time>2026-05-02T15:13:33Z</time></trkpt><trkpt lat="43.765270769971664" lon="12.229814153999898"><ele>750.0</ele><time>2026-05-02T15:13:34Z</time></trkpt><trkpt lat="43.76524813048902" lon="12.22996804252252"><ele>751.1666666666666</ele><time>2026-05-02T15:13:35Z</time></trkpt><trkpt lat="43.76521555189633" lon="12.230101858994244"><ele>752.3333333333334</ele><time>2026-05-02T15:13:36Z</time></trkpt><trkpt lat="43.76519302336586" lon="12.2302344226104"><ele>753.5</ele><time>2026-05-02T15:13:37Z</time></trkpt><trkpt lat="43.765178936189585" lon="12.230329502128148"><ele>754.6666666666667</ele><time>2026-05-02T15:13:38Z</time></trkpt><trkpt lat="43.765188840433815" lon="12.230445497742322"><ele>755.8333333333334</ele><time>2026-05-02T15:13:39Z</time></trkpt><trkpt lat="43.76522986256738" lon="12.230549757268776"><ele>757.0</ele><time>2026-05-02T15:13:40Z</time></trkpt><trkpt lat="43.765255448606304" lon="12.230668717275934"><ele>757.8333333333334</ele><time>2026-05-02T15:13:41Z</time></trkpt><trkpt lat="43.76527193243947" lon="12.23080121036796"><ele>758.6666666666667</ele><time>2026-05-02T15:13:42Z</time></trkpt><trkpt lat="43.76528117788596" lon="12.23091053964093"><ele>759.5</ele><time>2026-05-02T15:13:43Z</time></trkpt><trkpt lat="43.7652520172287" lon="12.231010864534468"><ele>760.3333333333334</ele><time>2026-05-02T15:13:44Z</time></trkpt><trkpt lat="43.76520064830549" lon="12.231103235338534"><ele>761.1666666666666</ele><time>2026-05-02T15:13:45Z</time></trkpt><trkpt lat="43.76514066968947" lon="12.231191420081528"><ele>762.0</ele><time>2026-05-02T15:13:46Z</time></trkpt><trkpt lat="43.76508335285076" lon="12.23130033574603"><ele>762.2</ele><time>2026-05-02T15:13:47Z</time></trkpt><trkpt lat="43.76504108052323" lon="12.231431396699488"><ele>762.4000000000001</ele><time>2026-05-02T15:13:48Z</time></trkpt><trkpt lat="43.76499242453875" lon="12.231560106971775"><ele>762.5999999999999</ele><time>2026-05-02T15:13:49Z</time></trkpt><trkpt lat="43.764939497312284" lon="12.231705213805265"><ele>762.8</ele><time>2026-05-02T15:13:50Z</time></trkpt><trkpt lat="43.76488585624345" lon="12.231841466868863"><ele>763.0</ele><time>2026-05-02T15:13:51Z</time></trkpt><trkpt lat="43.76482193015348" lon="12.231975326370728"><ele>763.8</ele><time>2026-05-02T15:13:52Z</time></trkpt><trkpt lat="43.76475826703845" lon="12.232107311321629"><ele>764.5999999999999</ele><time>2026-05-02T15:13:53Z</time></trkpt><trkpt lat="43.76470369096335" lon="12.232228933691347"><ele>765.4000000000001</ele><time>2026-05-02T15:13:54Z</time></trkpt><trkpt lat="43.76464404970376" lon="12.232334656546211"><ele>766.2</ele><time>2026-05-02T15:13:55Z</time></trkpt><trkpt lat="43.764584321538834" lon="12.232430619035554"><ele>767.0</ele><time>2026-05-02T15:13:56Z</time></trkpt><trkpt lat="43.76453964112753" lon="12.23253860493801"><ele>768.2</ele><time>2026-05-02T15:13:57Z</time></trkpt><trkpt lat="43.76450647028519" lon="12.232667618198983"><ele>769.4000000000001</ele><time>2026-05-02T15:13:58Z</time></trkpt><trkpt lat="43.76448485424652" lon="12.232810819636999"><ele>770.5999999999999</ele><time>2026-05-02T15:13:59Z</time></trkpt><trkpt lat="43.76445383923311" lon="12.232945576912375"><ele>771.8</ele><time>2026-05-02T15:14:00Z</time></trkpt><trkpt lat="43.76441996117367" lon="12.233048807786643"><ele>773.0</ele><time>2026-05-02T15:14:01Z</time></trkpt><trkpt lat="43.764406492116045" lon="12.23314255184562"><ele>774.6666666666667</ele><time>2026-05-02T15:14:02Z</time></trkpt><trkpt lat="43.764420334757986" lon="12.233236185964413"><ele>776.3333333333334</ele><time>2026-05-02T15:14:03Z</time></trkpt><trkpt lat="43.76447031194994" lon="12.233319316434844"><ele>778.0</ele><time>2026-05-02T15:14:04Z</time></trkpt><trkpt lat="43.76454256674552" lon="12.23339181796412"><ele>779.6666666666667</ele><time>2026-05-02T15:14:05Z</time></trkpt><trkpt lat="43.76459606690366" lon="12.233494255653923"><ele>781.3333333333334</ele><time>2026-05-02T15:14:06Z</time></trkpt><trkpt lat="43.76465357894924" lon="12.233592942525974"><ele>783.0</ele><time>2026-05-02T15:14:07Z</time></trkpt><trkpt lat="43.76472290408678" lon="12.23370649246726"><ele>783.0</ele><time>2026-05-02T15:14:08Z</time></trkpt><trkpt lat="43.76477948994457" lon="12.233802409842314"><ele>783.0</ele><time>2026-05-02T15:14:09Z</time></trkpt><trkpt lat="43.76484565225944" lon="12.233908648908294"><ele>783.0</ele><time>2026-05-02T15:14:10Z</time></trkpt><trkpt lat="43.76489868747827" lon="12.234007821471673"><ele>783.0</ele><time>2026-05-02T15:14:11Z</time></trkpt><trkpt lat="43.764928336754075" lon="12.234104883292785"><ele>783.0</ele><time>2026-05-02T15:14:12Z</time></trkpt><trkpt lat="43.76487798563453" lon="12.234269905653791"><ele>785.0</ele><time>2026-05-02T15:14:14Z</time></trkpt><trkpt lat="43.764825865840734" lon="12.234354047672802"><ele>787.0</ele><time>2026-05-02T15:14:15Z</time></trkpt><trkpt lat="43.764763674198804" lon="12.234428457706708"><ele>789.0</ele><time>2026-05-02T15:14:16Z</time></trkpt><trkpt lat="43.76471330847046" lon="12.234517797665074"><ele>791.0</ele><time>2026-05-02T15:14:17Z</time></trkpt><trkpt lat="43.76465959490167" lon="12.234629681312562"><ele>793.0</ele><time>2026-05-02T15:14:18Z</time></trkpt><trkpt lat="43.764609643011106" lon="12.234738365126773"><ele>795.0</ele><time>2026-05-02T15:14:19Z</time></trkpt><trkpt lat="43.76455610125258" lon="12.23486422533734"><ele>796.2</ele><time>2026-05-02T15:14:20Z</time></trkpt><trkpt lat="43.76449536269343" lon="12.234999357045426"><ele>797.4</ele><time>2026-05-02T15:14:21Z</time></trkpt><trkpt lat="43.764441062172615" lon="12.235136753773467"><ele>798.5999999999999</ele><time>2026-05-02T15:14:22Z</time></trkpt><trkpt lat="43.764406500734445" lon="12.235268409905615"><ele>799.8</ele><time>2026-05-02T15:14:23Z</time></trkpt><trkpt lat="43.764376436159196" lon="12.235406784157226"><ele>801.0</ele><time>2026-05-02T15:14:24Z</time></trkpt><trkpt lat="43.76433570721192" lon="12.235530646077121"><ele>803.1999999999999</ele><time>2026-05-02T15:14:25Z</time></trkpt><trkpt lat="43.76428579545294" lon="12.235643468367922"><ele>805.4</ele><time>2026-05-02T15:14:26Z</time></trkpt><trkpt lat="43.76423502155193" lon="12.235735236729148"><ele>807.6</ele><time>2026-05-02T15:14:27Z</time></trkpt><trkpt lat="43.76419012623691" lon="12.235810809688374"><ele>809.8</ele><time>2026-05-02T15:14:28Z</time></trkpt><trkpt lat="43.76409875616012" lon="12.235955385172664"><ele>812.0</ele><time>2026-05-02T15:14:30Z</time></trkpt><trkpt lat="43.764041621527625" lon="12.23604565071549"><ele>812.0</ele><time>2026-05-02T15:14:31Z</time></trkpt><trkpt lat="43.763977573974046" lon="12.236154165536213"><ele>812.0</ele><time>2026-05-02T15:14:32Z</time></trkpt><trkpt lat="43.76391306478966" lon="12.236266036616572"><ele>812.0</ele><time>2026-05-02T15:14:33Z</time></trkpt><trkpt lat="43.763850920486846" lon="12.236375447437121"><ele>812.0</ele><time>2026-05-02T15:14:34Z</time></trkpt><trkpt lat="43.763789940606465" lon="12.236482157021157"><ele>812.0</ele><time>2026-05-02T15:14:35Z</time></trkpt><trkpt lat="43.763736315335635" lon="12.236584588999976"><ele>812.8333333333334</ele><time>2026-05-02T15:14:36Z</time></trkpt><trkpt lat="43.763681504082236" lon="12.236673709516419"><ele>813.6666666666667</ele><time>2026-05-02T15:14:37Z</time></trkpt><trkpt lat="43.76362857706496" lon="12.236739045338618"><ele>814.5</ele><time>2026-05-02T15:14:38Z</time></trkpt><trkpt lat="43.763565581300256" lon="12.23679816826841"><ele>815.3333333333333</ele><time>2026-05-02T15:14:39Z</time></trkpt><trkpt lat="43.76348721979763" lon="12.236848443597701"><ele>816.1666666666666</ele><time>2026-05-02T15:14:40Z</time></trkpt><trkpt lat="43.763407817639774" lon="12.236897750367214"><ele>817.0</ele><time>2026-05-02T15:14:41Z</time></trkpt><trkpt lat="43.76333307149351" lon="12.23694805692025"><ele>817.8333333333333</ele><time>2026-05-02T15:14:42Z</time></trkpt><trkpt lat="43.76325875467079" lon="12.23699930738019"><ele>818.6666666666666</ele><time>2026-05-02T15:14:43Z</time></trkpt><trkpt lat="43.76318380826136" lon="12.237053818407071"><ele>819.5</ele><time>2026-05-02T15:14:44Z</time></trkpt><trkpt lat="43.76310266363818" lon="12.237102242295032"><ele>820.3333333333333</ele><time>2026-05-02T15:14:45Z</time></trkpt><trkpt lat="43.76302874234767" lon="12.237154874162078"><ele>821.1666666666666</ele><time>2026-05-02T15:14:46Z</time></trkpt><trkpt lat="43.762948968093276" lon="12.237238318362753"><ele>822.0</ele><time>2026-05-02T15:14:48Z</time></trkpt><trkpt lat="43.762939561406206" lon="12.23732522865121"><ele>823.8333333333334</ele><time>2026-05-02T15:14:50Z</time></trkpt><trkpt lat="43.76297789018704" lon="12.237462139125434"><ele>825.6666666666667</ele><time>2026-05-02T15:14:53Z</time></trkpt><trkpt lat="43.76303888504984" lon="12.23760895492297"><ele>827.5</ele><time>2026-05-02T15:14:55Z</time></trkpt><trkpt lat="43.76307424446275" lon="12.237697146680592"><ele>829.3333333333334</ele><time>2026-05-02T15:14:56Z</time></trkpt><trkpt lat="43.76311702054001" lon="12.237775746182587"><ele>831.1666666666667</ele><time>2026-05-02T15:14:57Z</time></trkpt><trkpt lat="43.763165991825396" lon="12.23784032399438"><ele>833.0</ele><time>2026-05-02T15:14:58Z</time></trkpt><trkpt lat="43.76323362167345" lon="12.237903565321531"><ele>833.0000000000001</ele><time>2026-05-02T15:14:59Z</time></trkpt><trkpt lat="43.763328194789054" lon="12.237948965609718"><ele>833.0</ele><time>2026-05-02T15:15:00Z</time></trkpt><trkpt lat="43.76341028135535" lon="12.237989300887689"><ele>833.0</ele><time>2026-05-02T15:15:01Z</time></trkpt><trkpt lat="43.76347569475444" lon="12.238044364585118"><ele>833.0</ele><time>2026-05-02T15:15:02Z</time></trkpt><trkpt lat="43.763519584952974" lon="12.238130006144571"><ele>833.0000000000001</ele><time>2026-05-02T15:15:03Z</time></trkpt><trkpt lat="43.76357232773229" lon="12.238232283792918"><ele>833.0</ele><time>2026-05-02T15:15:04Z</time></trkpt><trkpt lat="43.76363389734574" lon="12.238344718184266"><ele>832.5999999999999</ele><time>2026-05-02T15:15:05Z</time></trkpt><trkpt lat="43.763682338756816" lon="12.238447932912726"><ele>832.1999999999999</ele><time>2026-05-02T15:15:06Z</time></trkpt><trkpt lat="43.76371206676404" lon="12.238562583985365"><ele>831.8</ele><time>2026-05-02T15:15:07Z</time></trkpt><trkpt lat="43.76372636233324" lon="12.238697072853787"><ele>831.4</ele><time>2026-05-02T15:15:08Z</time></trkpt><trkpt lat="43.76374770622559" lon="12.2388432811915"><ele>831.0</ele><time>2026-05-02T15:15:09Z</time></trkpt><trkpt lat="43.763768672125984" lon="12.239005295651848"><ele>832.0</ele><time>2026-05-02T15:15:10Z</time></trkpt><trkpt lat="43.76379298405495" lon="12.239160285015677"><ele>833.0</ele><time>2026-05-02T15:15:11Z</time></trkpt><trkpt lat="43.7638302011861" lon="12.239300990916455"><ele>834.0</ele><time>2026-05-02T15:15:12Z</time></trkpt><trkpt lat="43.76385792000356" lon="12.239434703707976"><ele>835.0</ele><time>2026-05-02T15:15:13Z</time></trkpt><trkpt lat="43.76390853799968" lon="12.239547778595492"><ele>836.0</ele><time>2026-05-02T15:15:14Z</time></trkpt><trkpt lat="43.763985960649016" lon="12.239662579252519"><ele>836.0</ele><time>2026-05-02T15:15:15Z</time></trkpt><trkpt lat="43.76407005513415" lon="12.239772080300416"><ele>836.0</ele><time>2026-05-02T15:15:16Z</time></trkpt><trkpt lat="43.764136478352256" lon="12.239882404960255"><ele>836.0</ele><time>2026-05-02T15:15:17Z</time></trkpt><trkpt lat="43.76419640194996" lon="12.239998119595942"><ele>836.0</ele><time>2026-05-02T15:15:18Z</time></trkpt><trkpt lat="43.764243586655994" lon="12.2400965074315"><ele>836.0</ele><time>2026-05-02T15:15:19Z</time></trkpt><trkpt lat="43.76426909122342" lon="12.240229307159744"><ele>836.8</ele><time>2026-05-02T15:15:20Z</time></trkpt><trkpt lat="43.764297604569585" lon="12.240386113207656"><ele>837.5999999999999</ele><time>2026-05-02T15:15:21Z</time></trkpt><trkpt lat="43.76431254539966" lon="12.240537003627395"><ele>838.4</ele><time>2026-05-02T15:15:22Z</time></trkpt><trkpt lat="43.76433482116566" lon="12.240679133738878"><ele>839.2</ele><time>2026-05-02T15:15:23Z</time></trkpt><trkpt lat="43.764346477480984" lon="12.240799836102182"><ele>840.0</ele><time>2026-05-02T15:15:24Z</time></trkpt><trkpt lat="43.764357650799624" lon="12.240910594392517"><ele>840.1666666666666</ele><time>2026-05-02T15:15:25Z</time></trkpt><trkpt lat="43.76436955189554" lon="12.24102265911368"><ele>840.3333333333333</ele><time>2026-05-02T15:15:26Z</time></trkpt><trkpt lat="43.76435839943445" lon="12.241111257220744"><ele>840.5</ele><time>2026-05-02T15:15:27Z</time></trkpt><trkpt lat="43.76432506214351" lon="12.241189816400812"><ele>840.6666666666666</ele><time>2026-05-02T15:15:28Z</time></trkpt><trkpt lat="43.76426855509302" lon="12.241289536270203"><ele>840.8333333333333</ele><time>2026-05-02T15:15:29Z</time></trkpt><trkpt lat="43.76421142489521" lon="12.241388732957029"><ele>841.0</ele><time>2026-05-02T15:15:30Z</time></trkpt><trkpt lat="43.764144135155355" lon="12.241506554508733"><ele>842.1999999999999</ele><time>2026-05-02T15:15:31Z</time></trkpt><trkpt lat="43.76406830792849" lon="12.241619914596141"><ele>843.4</ele><time>2026-05-02T15:15:32Z</time></trkpt><trkpt lat="43.763996947054075" lon="12.241725140102675"><ele>844.6</ele><time>2026-05-02T15:15:33Z</time></trkpt><trkpt lat="43.763925957141154" lon="12.241822480994179"><ele>845.8</ele><time>2026-05-02T15:15:34Z</time></trkpt><trkpt lat="43.76387694272841" lon="12.241901704292502"><ele>847.0</ele><time>2026-05-02T15:15:35Z</time></trkpt><trkpt lat="43.7638299983432" lon="12.241985485160985"><ele>846.9999999999999</ele><time>2026-05-02T15:15:36Z</time></trkpt><trkpt lat="43.76379077447511" lon="12.242065448785521"><ele>847.0</ele><time>2026-05-02T15:15:37Z</time></trkpt><trkpt lat="43.76375699951399" lon="12.242199123147602"><ele>847.0</ele><time>2026-05-02T15:15:39Z</time></trkpt><trkpt lat="43.763759768434966" lon="12.24228814029495"><ele>847.0</ele><time>2026-05-02T15:15:41Z</time></trkpt><trkpt lat="43.76376821211562" lon="12.242443095529048"><ele>846.9999999999999</ele><time>2026-05-02T15:15:43Z</time></trkpt><trkpt lat="43.76377387341619" lon="12.242562488238823"><ele>847.0</ele><time>2026-05-02T15:15:44Z</time></trkpt><trkpt lat="43.763785241553784" lon="12.242673012742214"><ele>848.6</ele><time>2026-05-02T15:15:45Z</time></trkpt><trkpt lat="43.763788499965514" lon="12.242804181812557"><ele>850.2</ele><time>2026-05-02T15:15:46Z</time></trkpt><trkpt lat="43.763781814128826" lon="12.242940354471008"><ele>851.8</ele><time>2026-05-02T15:15:47Z</time></trkpt><trkpt lat="43.76375416760828" lon="12.24304604245119"><ele>853.4</ele><time>2026-05-02T15:15:48Z</time></trkpt><trkpt lat="43.76370613460949" lon="12.24314965276261"><ele>855.0</ele><time>2026-05-02T15:15:49Z</time></trkpt><trkpt lat="43.7636424938714" lon="12.243242989653742"><ele>855.3333333333334</ele><time>2026-05-02T15:15:50Z</time></trkpt><trkpt lat="43.76359953506758" lon="12.24332922984487"><ele>855.6666666666667</ele><time>2026-05-02T15:15:51Z</time></trkpt><trkpt lat="43.76355113906677" lon="12.243398363653535"><ele>856.0</ele><time>2026-05-02T15:15:52Z</time></trkpt><trkpt lat="43.7634829896141" lon="12.243550694595566"><ele>856.3333333333334</ele><time>2026-05-02T15:15:54Z</time></trkpt><trkpt lat="43.763441138101875" lon="12.243652766571637"><ele>856.6666666666667</ele><time>2026-05-02T15:15:55Z</time></trkpt><trkpt lat="43.76340789843715" lon="12.243737460871754"><ele>857.0</ele><time>2026-05-02T15:15:56Z</time></trkpt><trkpt lat="43.763376239858225" lon="12.243857599294214"><ele>860.2</ele><time>2026-05-02T15:15:57Z</time></trkpt><trkpt lat="43.76333546240542" lon="12.24399084380271"><ele>863.4000000000001</ele><time>2026-05-02T15:15:58Z</time></trkpt><trkpt lat="43.76331466743798" lon="12.244141333956438"><ele>866.5999999999999</ele><time>2026-05-02T15:15:59Z</time></trkpt><trkpt lat="43.76327904216241" lon="12.244297449984826"><ele>869.8</ele><time>2026-05-02T15:16:00Z</time></trkpt><trkpt lat="43.76323679927941" lon="12.244428431923867"><ele>873.0</ele><time>2026-05-02T15:16:01Z</time></trkpt><trkpt lat="43.76319337635288" lon="12.244546387631452"><ele>873.0</ele><time>2026-05-02T15:16:02Z</time></trkpt><trkpt lat="43.76314492350121" lon="12.244679416458906"><ele>873.0</ele><time>2026-05-02T15:16:03Z</time></trkpt><trkpt lat="43.763107662719726" lon="12.244803617551065"><ele>873.0</ele><time>2026-05-02T15:16:04Z</time></trkpt><trkpt lat="43.76307450762543" lon="12.244922103253229"><ele>873.0</ele><time>2026-05-02T15:16:05Z</time></trkpt><trkpt lat="43.76304090434173" lon="12.245032462339445"><ele>873.0</ele><time>2026-05-02T15:16:06Z</time></trkpt><trkpt lat="43.76299887719482" lon="12.245147052097906"><ele>874.8333333333334</ele><time>2026-05-02T15:16:07Z</time></trkpt><trkpt lat="43.762947806506546" lon="12.24526797428053"><ele>876.6666666666667</ele><time>2026-05-02T15:16:08Z</time></trkpt><trkpt lat="43.762892730517734" lon="12.24539108107968"><ele>878.5</ele><time>2026-05-02T15:16:09Z</time></trkpt><trkpt lat="43.76285062126065" lon="12.245491314934098"><ele>880.3333333333334</ele><time>2026-05-02T15:16:10Z</time></trkpt><trkpt lat="43.76281881983421" lon="12.245572309919732"><ele>882.1666666666667</ele><time>2026-05-02T15:16:11Z</time></trkpt><trkpt lat="43.76277250361695" lon="12.245669498598941"><ele>884.0</ele><time>2026-05-02T15:16:13Z</time></trkpt><trkpt lat="43.76273199814202" lon="12.245736924621962"><ele>884.0</ele><time>2026-05-02T15:16:20Z</time></trkpt><trkpt lat="43.76279274504861" lon="12.245658683574952"><ele>884.0000000000001</ele><time>2026-05-02T15:16:28Z</time></trkpt><trkpt lat="43.762840012931406" lon="12.245553157598925"><ele>884.0000000000001</ele><time>2026-05-02T15:16:30Z</time></trkpt><trkpt lat="43.76287723399695" lon="12.245431930361727"><ele>884.0</ele><time>2026-05-02T15:16:33Z</time></trkpt><trkpt lat="43.76295388839192" lon="12.245255331965247"><ele>884.0</ele><time>2026-05-02T15:16:35Z</time></trkpt><trkpt lat="43.76299621577582" lon="12.245152792175482"><ele>884.0000000000001</ele><time>2026-05-02T15:16:36Z</time></trkpt><trkpt lat="43.763032547464775" lon="12.24506974441118"><ele>884.0</ele><time>2026-05-02T15:16:37Z</time></trkpt><trkpt lat="43.763059788096555" lon="12.244991071938344"><ele>884.0</ele><time>2026-05-02T15:16:38Z</time></trkpt><trkpt lat="43.76310691966215" lon="12.244831697236707"><ele>884.0</ele><time>2026-05-02T15:16:40Z</time></trkpt><trkpt lat="43.76313605275151" lon="12.244730305402285"><ele>884.0000000000001</ele><time>2026-05-02T15:16:41Z</time></trkpt><trkpt lat="43.76316974696575" lon="12.244628261556986"><ele>884.0</ele><time>2026-05-02T15:16:42Z</time></trkpt><trkpt lat="43.76320790895978" lon="12.24452612143745"><ele>882.1666666666667</ele><time>2026-05-02T15:16:43Z</time></trkpt><trkpt lat="43.76324163489806" lon="12.244433233619349"><ele>880.3333333333334</ele><time>2026-05-02T15:16:44Z</time></trkpt><trkpt lat="43.76327462362105" lon="12.244348231759057"><ele>878.5</ele><time>2026-05-02T15:16:45Z</time></trkpt><trkpt lat="43.76330161880592" lon="12.244261677019571"><ele>876.6666666666667</ele><time>2026-05-02T15:16:46Z</time></trkpt><trkpt lat="43.76333989777335" lon="12.244091524233065"><ele>874.8333333333334</ele><time>2026-05-02T15:16:48Z</time></trkpt><trkpt lat="43.763358367394716" lon="12.243965693303869"><ele>873.0</ele><time>2026-05-02T15:16:49Z</time></trkpt><trkpt lat="43.76336752763462" lon="12.243856448545195"><ele>870.3333333333334</ele><time>2026-05-02T15:16:50Z</time></trkpt><trkpt lat="43.76339002103385" lon="12.243754089802879"><ele>867.6666666666667</ele><time>2026-05-02T15:16:51Z</time></trkpt><trkpt lat="43.76342173761039" lon="12.243636869829507"><ele>865.0</ele><time>2026-05-02T15:16:53Z</time></trkpt><trkpt lat="43.76346431649519" lon="12.243552741805981"><ele>862.3333333333334</ele><time>2026-05-02T15:16:54Z</time></trkpt><trkpt lat="43.7635195924089" lon="12.243468489829384"><ele>859.6666666666667</ele><time>2026-05-02T15:16:56Z</time></trkpt><trkpt lat="43.76347387160172" lon="12.243402482143486"><ele>857.0</ele><time>2026-05-02T15:17:01Z</time></trkpt><trkpt lat="43.76339650569962" lon="12.243466822728656"><ele>857.0</ele><time>2026-05-02T15:17:14Z</time></trkpt><trkpt lat="43.76334555841869" lon="12.243565834128482"><ele>857.0</ele><time>2026-05-02T15:17:52Z</time></trkpt><trkpt lat="43.763287424995866" lon="12.243614373435813"><ele>857.0</ele><time>2026-05-02T15:17:53Z</time></trkpt><trkpt lat="43.76319535256585" lon="12.243736835349221"><ele>857.0</ele><time>2026-05-02T15:17:55Z</time></trkpt><trkpt lat="43.7631354957852" lon="12.243824474003413"><ele>857.0</ele><time>2026-05-02T15:17:56Z</time></trkpt><trkpt lat="43.76308271196329" lon="12.243913868840638"><ele>857.0</ele><time>2026-05-02T15:17:57Z</time></trkpt><trkpt lat="43.76330150029057" lon="12.243511016240708"><ele>857.0</ele><time>2026-05-02T15:17:58Z</time></trkpt><trkpt lat="43.76322980089095" lon="12.243542828156212"><ele>857.0</ele><time>2026-05-02T15:18:09Z</time></trkpt><trkpt lat="43.763174751395105" lon="12.243617453305987"><ele>857.0</ele><time>2026-05-02T15:18:12Z</time></trkpt><trkpt lat="43.763112633228744" lon="12.243679436883628"><ele>857.0</ele><time>2026-05-02T15:18:15Z</time></trkpt><trkpt lat="43.76307469838502" lon="12.243750245650258"><ele>857.0</ele><time>2026-05-02T15:18:22Z</time></trkpt></trkseg></trk></gpx>